<?xml version="1.0" encoding="UTF-8" standalone="no" ?>
<gpx xmlns="http://www.topografix.com/GPX/1/1" xmlns:xsi="http://www.w3.org/2001/XMLSchema-instance" xsi:schemaLocation="http://www.topografix.com/GPX/1/1 http://www.topografix.com/GPX/1/1/gpx.xsd" version="1.1" creator="VisuGPX - https://www.visugpx.com">
  <metadata>
    <name>La Forestière 2010  VTT 100KM</name>
    <desc><![CDATA[http://www.premiumwanadoo.com/la-forestiere/site/
]]></desc>
  </metadata>
  <trk>
    <name><![CDATA[La Forestière 2010  100km VTT]]></name>
    <cmt><![CDATA[-2°C le matin  - voiture transformée en camping car -  retour à 23h30 le dimanche !
+D2400m au gps
ca tire un peu après le 80km - ]]></cmt>
    <trkseg>
      <trkpt lat="46.4789" lon="6.05559">
        <ele>1146.0288085938</ele>
        <time>2010-09-19T06:05:44Z</time>
      </trkpt>
      <trkpt lat="46.47888" lon="6.05563">
        <ele>1150.3549804688</ele>
        <time>2010-09-19T06:05:46Z</time>
      </trkpt>
      <trkpt lat="46.47886" lon="6.05567">
        <ele>1146.0288085938</ele>
        <time>2010-09-19T06:05:48Z</time>
      </trkpt>
      <trkpt lat="46.47869" lon="6.0558">
        <ele>1146.9899902344</ele>
        <time>2010-09-19T06:05:54Z</time>
      </trkpt>
      <trkpt lat="46.47849" lon="6.05582">
        <ele>1147.9514160156</ele>
        <time>2010-09-19T06:05:59Z</time>
      </trkpt>
      <trkpt lat="46.47816" lon="6.0557">
        <ele>1147.9514160156</ele>
        <time>2010-09-19T06:06:06Z</time>
      </trkpt>
      <trkpt lat="46.47802" lon="6.0556">
        <ele>1148.4321289062</ele>
        <time>2010-09-19T06:06:11Z</time>
      </trkpt>
      <trkpt lat="46.47793" lon="6.05552">
        <ele>1149.3935546875</ele>
        <time>2010-09-19T06:06:17Z</time>
      </trkpt>
      <trkpt lat="46.47786" lon="6.05545">
        <ele>1150.3549804688</ele>
        <time>2010-09-19T06:06:24Z</time>
      </trkpt>
      <trkpt lat="46.47781" lon="6.0554">
        <ele>1150.3549804688</ele>
        <time>2010-09-19T06:06:31Z</time>
      </trkpt>
      <trkpt lat="46.47776" lon="6.05536">
        <ele>1150.3549804688</ele>
        <time>2010-09-19T06:06:40Z</time>
      </trkpt>
      <trkpt lat="46.47771" lon="6.05532">
        <ele>1150.8354492188</ele>
        <time>2010-09-19T06:06:48Z</time>
      </trkpt>
      <trkpt lat="46.47766" lon="6.05529">
        <ele>1150.8354492188</ele>
        <time>2010-09-19T06:06:56Z</time>
      </trkpt>
      <trkpt lat="46.4776" lon="6.05527">
        <ele>1151.3161621094</ele>
        <time>2010-09-19T06:07:05Z</time>
      </trkpt>
      <trkpt lat="46.47756" lon="6.05525">
        <ele>1151.796875</ele>
        <time>2010-09-19T06:07:10Z</time>
      </trkpt>
      <trkpt lat="46.47749" lon="6.0552">
        <ele>1152.27734375</ele>
        <time>2010-09-19T06:07:17Z</time>
      </trkpt>
      <trkpt lat="46.47741" lon="6.05512">
        <ele>1153.7194824219</ele>
        <time>2010-09-19T06:07:23Z</time>
      </trkpt>
      <trkpt lat="46.47728" lon="6.05502">
        <ele>1154.6806640625</ele>
        <time>2010-09-19T06:07:30Z</time>
      </trkpt>
      <trkpt lat="46.47717" lon="6.05493">
        <ele>1156.1225585938</ele>
        <time>2010-09-19T06:07:35Z</time>
      </trkpt>
      <trkpt lat="46.47701" lon="6.05484">
        <ele>1157.5646972656</ele>
        <time>2010-09-19T06:07:41Z</time>
      </trkpt>
      <trkpt lat="46.47675" lon="6.05466">
        <ele>1158.0454101562</ele>
        <time>2010-09-19T06:07:50Z</time>
      </trkpt>
      <trkpt lat="46.4766" lon="6.05444">
        <ele>1156.6032714844</ele>
        <time>2010-09-19T06:07:57Z</time>
      </trkpt>
      <trkpt lat="46.47656" lon="6.05419">
        <ele>1154.6806640625</ele>
        <time>2010-09-19T06:08:02Z</time>
      </trkpt>
      <trkpt lat="46.47652" lon="6.05392">
        <ele>1151.796875</ele>
        <time>2010-09-19T06:08:07Z</time>
      </trkpt>
      <trkpt lat="46.47651" lon="6.05386">
        <ele>1150.8354492188</ele>
        <time>2010-09-19T06:08:08Z</time>
      </trkpt>
      <trkpt lat="46.47659" lon="6.05363">
        <ele>1150.3549804688</ele>
        <time>2010-09-19T06:08:12Z</time>
      </trkpt>
      <trkpt lat="46.4767" lon="6.05362">
        <ele>1150.3549804688</ele>
        <time>2010-09-19T06:08:15Z</time>
      </trkpt>
      <trkpt lat="46.47675" lon="6.05362">
        <ele>1150.3549804688</ele>
        <time>2010-09-19T06:08:16Z</time>
      </trkpt>
      <trkpt lat="46.47699" lon="6.05361">
        <ele>1150.8354492188</ele>
        <time>2010-09-19T06:08:22Z</time>
      </trkpt>
      <trkpt lat="46.47708" lon="6.05359">
        <ele>1150.8354492188</ele>
        <time>2010-09-19T06:08:24Z</time>
      </trkpt>
      <trkpt lat="46.47731" lon="6.05358">
        <ele>1150.8354492188</ele>
        <time>2010-09-19T06:08:30Z</time>
      </trkpt>
      <trkpt lat="46.47738" lon="6.05358">
        <ele>1150.3549804688</ele>
        <time>2010-09-19T06:08:32Z</time>
      </trkpt>
      <trkpt lat="46.47755" lon="6.05349">
        <ele>1150.8354492188</ele>
        <time>2010-09-19T06:08:36Z</time>
      </trkpt>
      <trkpt lat="46.47763" lon="6.05337">
        <ele>1151.3161621094</ele>
        <time>2010-09-19T06:08:40Z</time>
      </trkpt>
      <trkpt lat="46.47766" lon="6.05326">
        <ele>1151.3161621094</ele>
        <time>2010-09-19T06:08:43Z</time>
      </trkpt>
      <trkpt lat="46.47782" lon="6.05312">
        <ele>1151.796875</ele>
        <time>2010-09-19T06:08:47Z</time>
      </trkpt>
      <trkpt lat="46.47787" lon="6.05312">
        <ele>1151.3161621094</ele>
        <time>2010-09-19T06:08:48Z</time>
      </trkpt>
      <trkpt lat="46.47829" lon="6.05305">
        <ele>1150.3549804688</ele>
        <time>2010-09-19T06:08:56Z</time>
      </trkpt>
      <trkpt lat="46.47866" lon="6.05299">
        <ele>1147.470703125</ele>
        <time>2010-09-19T06:09:02Z</time>
      </trkpt>
      <trkpt lat="46.47873" lon="6.05298">
        <ele>1146.9899902344</ele>
        <time>2010-09-19T06:09:03Z</time>
      </trkpt>
      <trkpt lat="46.47897" lon="6.05307">
        <ele>1147.9514160156</ele>
        <time>2010-09-19T06:09:07Z</time>
      </trkpt>
      <trkpt lat="46.47936" lon="6.05328">
        <ele>1147.470703125</ele>
        <time>2010-09-19T06:09:13Z</time>
      </trkpt>
      <trkpt lat="46.47991" lon="6.05353">
        <ele>1147.470703125</ele>
        <time>2010-09-19T06:09:21Z</time>
      </trkpt>
      <trkpt lat="46.48046" lon="6.05375">
        <ele>1146.0288085938</ele>
        <time>2010-09-19T06:09:29Z</time>
      </trkpt>
      <trkpt lat="46.48081" lon="6.0539">
        <ele>1144.5866699219</ele>
        <time>2010-09-19T06:09:34Z</time>
      </trkpt>
      <trkpt lat="46.48095" lon="6.054">
        <ele>1143.6254882812</ele>
        <time>2010-09-19T06:09:36Z</time>
      </trkpt>
      <trkpt lat="46.48139" lon="6.05447">
        <ele>1142.18359375</ele>
        <time>2010-09-19T06:09:43Z</time>
      </trkpt>
      <trkpt lat="46.48151" lon="6.05459">
        <ele>1140.7414550781</ele>
        <time>2010-09-19T06:09:45Z</time>
      </trkpt>
      <trkpt lat="46.48175" lon="6.05489">
        <ele>1139.2995605469</ele>
        <time>2010-09-19T06:09:50Z</time>
      </trkpt>
      <trkpt lat="46.48186" lon="6.05503">
        <ele>1138.8190917969</ele>
        <time>2010-09-19T06:09:54Z</time>
      </trkpt>
      <trkpt lat="46.48192" lon="6.05509">
        <ele>1138.8190917969</ele>
        <time>2010-09-19T06:09:57Z</time>
      </trkpt>
      <trkpt lat="46.48192" lon="6.05505">
        <ele>1138.3383789062</ele>
        <time>2010-09-19T06:10:00Z</time>
      </trkpt>
      <trkpt lat="46.48221" lon="6.0551">
        <ele>1138.3383789062</ele>
        <time>2010-09-19T06:10:04Z</time>
      </trkpt>
      <trkpt lat="46.48229" lon="6.05523">
        <ele>1138.3383789062</ele>
        <time>2010-09-19T06:10:06Z</time>
      </trkpt>
      <trkpt lat="46.48244" lon="6.05551">
        <ele>1137.8576660156</ele>
        <time>2010-09-19T06:10:10Z</time>
      </trkpt>
      <trkpt lat="46.48265" lon="6.0557">
        <ele>1137.376953125</ele>
        <time>2010-09-19T06:10:14Z</time>
      </trkpt>
      <trkpt lat="46.48286" lon="6.05575">
        <ele>1134.9738769531</ele>
        <time>2010-09-19T06:10:17Z</time>
      </trkpt>
      <trkpt lat="46.48294" lon="6.05579">
        <ele>1134.4931640625</ele>
        <time>2010-09-19T06:10:18Z</time>
      </trkpt>
      <trkpt lat="46.48339" lon="6.05601">
        <ele>1132.08984375</ele>
        <time>2010-09-19T06:10:24Z</time>
      </trkpt>
      <trkpt lat="46.48365" lon="6.05616">
        <ele>1130.1669921875</ele>
        <time>2010-09-19T06:10:28Z</time>
      </trkpt>
      <trkpt lat="46.48373" lon="6.05608">
        <ele>1128.2443847656</ele>
        <time>2010-09-19T06:10:32Z</time>
      </trkpt>
      <trkpt lat="46.48366" lon="6.05588">
        <ele>1127.283203125</ele>
        <time>2010-09-19T06:10:36Z</time>
      </trkpt>
      <trkpt lat="46.48358" lon="6.05577">
        <ele>1126.8024902344</ele>
        <time>2010-09-19T06:10:38Z</time>
      </trkpt>
      <trkpt lat="46.48338" lon="6.05556">
        <ele>1125.3603515625</ele>
        <time>2010-09-19T06:10:42Z</time>
      </trkpt>
      <trkpt lat="46.48334" lon="6.05552">
        <ele>1125.3603515625</ele>
        <time>2010-09-19T06:10:43Z</time>
      </trkpt>
      <trkpt lat="46.48325" lon="6.05539">
        <ele>1123.4379882812</ele>
        <time>2010-09-19T06:10:46Z</time>
      </trkpt>
      <trkpt lat="46.4832" lon="6.05529">
        <ele>1121.9958496094</ele>
        <time>2010-09-19T06:10:48Z</time>
      </trkpt>
      <trkpt lat="46.48316" lon="6.05509">
        <ele>1120.0732421875</ele>
        <time>2010-09-19T06:10:51Z</time>
      </trkpt>
      <trkpt lat="46.48314" lon="6.05492">
        <ele>1119.1120605469</ele>
        <time>2010-09-19T06:10:53Z</time>
      </trkpt>
      <trkpt lat="46.48305" lon="6.05466">
        <ele>1119.1120605469</ele>
        <time>2010-09-19T06:10:56Z</time>
      </trkpt>
      <trkpt lat="46.48287" lon="6.05437">
        <ele>1119.5927734375</ele>
        <time>2010-09-19T06:11:01Z</time>
      </trkpt>
      <trkpt lat="46.48279" lon="6.05421">
        <ele>1119.1120605469</ele>
        <time>2010-09-19T06:11:05Z</time>
      </trkpt>
      <trkpt lat="46.48277" lon="6.05406">
        <ele>1119.1120605469</ele>
        <time>2010-09-19T06:11:11Z</time>
      </trkpt>
      <trkpt lat="46.48275" lon="6.05397">
        <ele>1118.6313476562</ele>
        <time>2010-09-19T06:11:18Z</time>
      </trkpt>
      <trkpt lat="46.48275" lon="6.05392">
        <ele>1118.1506347656</ele>
        <time>2010-09-19T06:11:24Z</time>
      </trkpt>
      <trkpt lat="46.48275" lon="6.05389">
        <ele>1118.1506347656</ele>
        <time>2010-09-19T06:11:30Z</time>
      </trkpt>
      <trkpt lat="46.48276" lon="6.05386">
        <ele>1118.6313476562</ele>
        <time>2010-09-19T06:11:36Z</time>
      </trkpt>
      <trkpt lat="46.48277" lon="6.05382">
        <ele>1118.1506347656</ele>
        <time>2010-09-19T06:11:42Z</time>
      </trkpt>
      <trkpt lat="46.48277" lon="6.05378">
        <ele>1117.189453125</ele>
        <time>2010-09-19T06:11:50Z</time>
      </trkpt>
      <trkpt lat="46.4828" lon="6.05375">
        <ele>1116.7087402344</ele>
        <time>2010-09-19T06:11:59Z</time>
      </trkpt>
      <trkpt lat="46.48281" lon="6.05373">
        <ele>1116.2280273438</ele>
        <time>2010-09-19T06:12:08Z</time>
      </trkpt>
      <trkpt lat="46.48284" lon="6.05369">
        <ele>1115.7473144531</ele>
        <time>2010-09-19T06:12:18Z</time>
      </trkpt>
      <trkpt lat="46.48285" lon="6.05366">
        <ele>1115.7473144531</ele>
        <time>2010-09-19T06:12:27Z</time>
      </trkpt>
      <trkpt lat="46.48286" lon="6.05363">
        <ele>1115.7473144531</ele>
        <time>2010-09-19T06:12:36Z</time>
      </trkpt>
      <trkpt lat="46.48286" lon="6.05358">
        <ele>1114.7858886719</ele>
        <time>2010-09-19T06:12:45Z</time>
      </trkpt>
      <trkpt lat="46.48289" lon="6.05346">
        <ele>1112.86328125</ele>
        <time>2010-09-19T06:12:52Z</time>
      </trkpt>
      <trkpt lat="46.48289" lon="6.05331">
        <ele>1111.4213867188</ele>
        <time>2010-09-19T06:12:57Z</time>
      </trkpt>
      <trkpt lat="46.48288" lon="6.0532">
        <ele>1110.4599609375</ele>
        <time>2010-09-19T06:13:01Z</time>
      </trkpt>
      <trkpt lat="46.48291" lon="6.05305">
        <ele>1109.4987792969</ele>
        <time>2010-09-19T06:13:04Z</time>
      </trkpt>
      <trkpt lat="46.48296" lon="6.05272">
        <ele>1107.576171875</ele>
        <time>2010-09-19T06:13:10Z</time>
      </trkpt>
      <trkpt lat="46.48301" lon="6.05256">
        <ele>1104.6921386719</ele>
        <time>2010-09-19T06:13:14Z</time>
      </trkpt>
      <trkpt lat="46.48306" lon="6.05234">
        <ele>1101.8083496094</ele>
        <time>2010-09-19T06:13:18Z</time>
      </trkpt>
      <trkpt lat="46.48306" lon="6.05204">
        <ele>1099.8854980469</ele>
        <time>2010-09-19T06:13:24Z</time>
      </trkpt>
      <trkpt lat="46.48304" lon="6.05191">
        <ele>1098.9240722656</ele>
        <time>2010-09-19T06:13:30Z</time>
      </trkpt>
      <trkpt lat="46.48301" lon="6.05176">
        <ele>1097.0014648438</ele>
        <time>2010-09-19T06:13:36Z</time>
      </trkpt>
      <trkpt lat="46.48299" lon="6.05161">
        <ele>1094.1176757812</ele>
        <time>2010-09-19T06:13:42Z</time>
      </trkpt>
      <trkpt lat="46.48298" lon="6.05159">
        <ele>1093.6369628906</ele>
        <time>2010-09-19T06:13:47Z</time>
      </trkpt>
      <trkpt lat="46.48296" lon="6.05155">
        <ele>1093.6369628906</ele>
        <time>2010-09-19T06:13:53Z</time>
      </trkpt>
      <trkpt lat="46.48294" lon="6.05151">
        <ele>1093.15625</ele>
        <time>2010-09-19T06:13:59Z</time>
      </trkpt>
      <trkpt lat="46.48291" lon="6.05145">
        <ele>1092.67578125</ele>
        <time>2010-09-19T06:14:06Z</time>
      </trkpt>
      <trkpt lat="46.48288" lon="6.05141">
        <ele>1092.1950683594</ele>
        <time>2010-09-19T06:14:12Z</time>
      </trkpt>
      <trkpt lat="46.48283" lon="6.05134">
        <ele>1092.1950683594</ele>
        <time>2010-09-19T06:14:21Z</time>
      </trkpt>
      <trkpt lat="46.4828" lon="6.05126">
        <ele>1091.7143554688</ele>
        <time>2010-09-19T06:14:32Z</time>
      </trkpt>
      <trkpt lat="46.48277" lon="6.0512">
        <ele>1091.2336425781</ele>
        <time>2010-09-19T06:14:40Z</time>
      </trkpt>
      <trkpt lat="46.48272" lon="6.05114">
        <ele>1090.2724609375</ele>
        <time>2010-09-19T06:14:48Z</time>
      </trkpt>
      <trkpt lat="46.48269" lon="6.05106">
        <ele>1090.2724609375</ele>
        <time>2010-09-19T06:14:55Z</time>
      </trkpt>
      <trkpt lat="46.48266" lon="6.05101">
        <ele>1090.2724609375</ele>
        <time>2010-09-19T06:15:01Z</time>
      </trkpt>
      <trkpt lat="46.48263" lon="6.05095">
        <ele>1090.2724609375</ele>
        <time>2010-09-19T06:15:09Z</time>
      </trkpt>
      <trkpt lat="46.48261" lon="6.05087">
        <ele>1089.7917480469</ele>
        <time>2010-09-19T06:15:16Z</time>
      </trkpt>
      <trkpt lat="46.48261" lon="6.05086">
        <ele>1088.8305664062</ele>
        <time>2010-09-19T06:15:17Z</time>
      </trkpt>
      <trkpt lat="46.48262" lon="6.0507">
        <ele>1087.3884277344</ele>
        <time>2010-09-19T06:15:22Z</time>
      </trkpt>
      <trkpt lat="46.4826" lon="6.05066">
        <ele>1087.3884277344</ele>
        <time>2010-09-19T06:15:23Z</time>
      </trkpt>
      <trkpt lat="46.48246" lon="6.05042">
        <ele>1086.4272460938</ele>
        <time>2010-09-19T06:15:29Z</time>
      </trkpt>
      <trkpt lat="46.48231" lon="6.05019">
        <ele>1084.0239257812</ele>
        <time>2010-09-19T06:15:33Z</time>
      </trkpt>
      <trkpt lat="46.48222" lon="6.05008">
        <ele>1082.5817871094</ele>
        <time>2010-09-19T06:15:37Z</time>
      </trkpt>
      <trkpt lat="46.48216" lon="6.05005">
        <ele>1082.1010742188</ele>
        <time>2010-09-19T06:15:42Z</time>
      </trkpt>
      <trkpt lat="46.48215" lon="6.05005">
        <ele>1082.1010742188</ele>
        <time>2010-09-19T06:15:51Z</time>
      </trkpt>
      <trkpt lat="46.48214" lon="6.05002">
        <ele>1082.1010742188</ele>
        <time>2010-09-19T06:16:01Z</time>
      </trkpt>
      <trkpt lat="46.48211" lon="6.04996">
        <ele>1082.1010742188</ele>
        <time>2010-09-19T06:16:12Z</time>
      </trkpt>
      <trkpt lat="46.48215" lon="6.04989">
        <ele>1082.1010742188</ele>
        <time>2010-09-19T06:16:26Z</time>
      </trkpt>
      <trkpt lat="46.4821" lon="6.04986">
        <ele>1081.6203613281</ele>
        <time>2010-09-19T06:16:34Z</time>
      </trkpt>
      <trkpt lat="46.48205" lon="6.04977">
        <ele>1080.6591796875</ele>
        <time>2010-09-19T06:16:40Z</time>
      </trkpt>
      <trkpt lat="46.48193" lon="6.04969">
        <ele>1078.7365722656</ele>
        <time>2010-09-19T06:16:45Z</time>
      </trkpt>
      <trkpt lat="46.4819" lon="6.04967">
        <ele>1078.255859375</ele>
        <time>2010-09-19T06:16:47Z</time>
      </trkpt>
      <trkpt lat="46.48182" lon="6.0496">
        <ele>1076.3332519531</ele>
        <time>2010-09-19T06:16:50Z</time>
      </trkpt>
      <trkpt lat="46.48178" lon="6.04957">
        <ele>1075.8525390625</ele>
        <time>2010-09-19T06:16:51Z</time>
      </trkpt>
      <trkpt lat="46.4816" lon="6.04935">
        <ele>1074.4106445312</ele>
        <time>2010-09-19T06:16:56Z</time>
      </trkpt>
      <trkpt lat="46.48155" lon="6.04927">
        <ele>1073.9299316406</ele>
        <time>2010-09-19T06:16:58Z</time>
      </trkpt>
      <trkpt lat="46.48151" lon="6.04923">
        <ele>1072.96875</ele>
        <time>2010-09-19T06:16:59Z</time>
      </trkpt>
      <trkpt lat="46.48124" lon="6.04896">
        <ele>1073.9299316406</ele>
        <time>2010-09-19T06:17:05Z</time>
      </trkpt>
      <trkpt lat="46.48114" lon="6.04884">
        <ele>1072.4880371094</ele>
        <time>2010-09-19T06:17:08Z</time>
      </trkpt>
      <trkpt lat="46.4809" lon="6.04864">
        <ele>1072.4880371094</ele>
        <time>2010-09-19T06:17:13Z</time>
      </trkpt>
      <trkpt lat="46.4807" lon="6.04854">
        <ele>1072.4880371094</ele>
        <time>2010-09-19T06:17:17Z</time>
      </trkpt>
      <trkpt lat="46.48046" lon="6.04834">
        <ele>1072.0073242188</ele>
        <time>2010-09-19T06:17:22Z</time>
      </trkpt>
      <trkpt lat="46.48042" lon="6.0483">
        <ele>1072.0073242188</ele>
        <time>2010-09-19T06:17:23Z</time>
      </trkpt>
      <trkpt lat="46.48026" lon="6.0482">
        <ele>1071.5266113281</ele>
        <time>2010-09-19T06:17:26Z</time>
      </trkpt>
      <trkpt lat="46.48001" lon="6.04792">
        <ele>1070.5654296875</ele>
        <time>2010-09-19T06:17:31Z</time>
      </trkpt>
      <trkpt lat="46.47987" lon="6.04778">
        <ele>1070.0847167969</ele>
        <time>2010-09-19T06:17:34Z</time>
      </trkpt>
      <trkpt lat="46.47972" lon="6.04754">
        <ele>1067.6811523438</ele>
        <time>2010-09-19T06:17:38Z</time>
      </trkpt>
      <trkpt lat="46.47966" lon="6.0474">
        <ele>1066.7199707031</ele>
        <time>2010-09-19T06:17:40Z</time>
      </trkpt>
      <trkpt lat="46.47961" lon="6.04712">
        <ele>1064.7973632812</ele>
        <time>2010-09-19T06:17:43Z</time>
      </trkpt>
      <trkpt lat="46.47946" lon="6.04683">
        <ele>1061.4328613281</ele>
        <time>2010-09-19T06:17:48Z</time>
      </trkpt>
      <trkpt lat="46.4794" lon="6.04679">
        <ele>1060.9521484375</ele>
        <time>2010-09-19T06:17:49Z</time>
      </trkpt>
      <trkpt lat="46.47931" lon="6.04669">
        <ele>1059.9907226562</ele>
        <time>2010-09-19T06:17:51Z</time>
      </trkpt>
      <trkpt lat="46.47899" lon="6.04649">
        <ele>1054.7036132812</ele>
        <time>2010-09-19T06:17:56Z</time>
      </trkpt>
      <trkpt lat="46.47891" lon="6.04648">
        <ele>1054.2231445312</ele>
        <time>2010-09-19T06:17:57Z</time>
      </trkpt>
      <trkpt lat="46.47859" lon="6.04647">
        <ele>1048.4548339844</ele>
        <time>2010-09-19T06:18:01Z</time>
      </trkpt>
      <trkpt lat="46.47827" lon="6.04662">
        <ele>1044.1291503906</ele>
        <time>2010-09-19T06:18:05Z</time>
      </trkpt>
      <trkpt lat="46.47812" lon="6.04671">
        <ele>1041.2451171875</ele>
        <time>2010-09-19T06:18:07Z</time>
      </trkpt>
      <trkpt lat="46.47779" lon="6.04676">
        <ele>1039.8032226562</ele>
        <time>2010-09-19T06:18:11Z</time>
      </trkpt>
      <trkpt lat="46.47755" lon="6.04673">
        <ele>1039.3225097656</ele>
        <time>2010-09-19T06:18:14Z</time>
      </trkpt>
      <trkpt lat="46.47713" lon="6.04681">
        <ele>1038.361328125</ele>
        <time>2010-09-19T06:18:20Z</time>
      </trkpt>
      <trkpt lat="46.47694" lon="6.04689">
        <ele>1036.4387207031</ele>
        <time>2010-09-19T06:18:23Z</time>
      </trkpt>
      <trkpt lat="46.47667" lon="6.04708">
        <ele>1036.4387207031</ele>
        <time>2010-09-19T06:18:27Z</time>
      </trkpt>
      <trkpt lat="46.47639" lon="6.04727">
        <ele>1034.03515625</ele>
        <time>2010-09-19T06:18:31Z</time>
      </trkpt>
      <trkpt lat="46.47612" lon="6.04736">
        <ele>1033.0737304688</ele>
        <time>2010-09-19T06:18:35Z</time>
      </trkpt>
      <trkpt lat="46.47595" lon="6.04755">
        <ele>1030.1899414062</ele>
        <time>2010-09-19T06:18:38Z</time>
      </trkpt>
      <trkpt lat="46.47588" lon="6.04762">
        <ele>1029.228515625</ele>
        <time>2010-09-19T06:18:39Z</time>
      </trkpt>
      <trkpt lat="46.47538" lon="6.04795">
        <ele>1027.7866210938</ele>
        <time>2010-09-19T06:18:46Z</time>
      </trkpt>
      <trkpt lat="46.47504" lon="6.04809">
        <ele>1026.8254394531</ele>
        <time>2010-09-19T06:18:51Z</time>
      </trkpt>
      <trkpt lat="46.4749" lon="6.04812">
        <ele>1025.3833007812</ele>
        <time>2010-09-19T06:18:53Z</time>
      </trkpt>
      <trkpt lat="46.47462" lon="6.04821">
        <ele>1023.94140625</ele>
        <time>2010-09-19T06:18:57Z</time>
      </trkpt>
      <trkpt lat="46.47431" lon="6.04836">
        <ele>1021.5380859375</ele>
        <time>2010-09-19T06:19:01Z</time>
      </trkpt>
      <trkpt lat="46.47403" lon="6.04847">
        <ele>1020.5769042969</ele>
        <time>2010-09-19T06:19:05Z</time>
      </trkpt>
      <trkpt lat="46.47387" lon="6.04851">
        <ele>1019.134765625</ele>
        <time>2010-09-19T06:19:08Z</time>
      </trkpt>
      <trkpt lat="46.47381" lon="6.04852">
        <ele>1018.6540527344</ele>
        <time>2010-09-19T06:19:09Z</time>
      </trkpt>
      <trkpt lat="46.47357" lon="6.04864">
        <ele>1020.0961914062</ele>
        <time>2010-09-19T06:19:13Z</time>
      </trkpt>
      <trkpt lat="46.47329" lon="6.04876">
        <ele>1021.0576171875</ele>
        <time>2010-09-19T06:19:20Z</time>
      </trkpt>
      <trkpt lat="46.47305" lon="6.04889">
        <ele>1022.9802246094</ele>
        <time>2010-09-19T06:19:26Z</time>
      </trkpt>
      <trkpt lat="46.47289" lon="6.04902">
        <ele>1024.9028320312</ele>
        <time>2010-09-19T06:19:31Z</time>
      </trkpt>
      <trkpt lat="46.47275" lon="6.04909">
        <ele>1025.3833007812</ele>
        <time>2010-09-19T06:19:35Z</time>
      </trkpt>
      <trkpt lat="46.47268" lon="6.04911">
        <ele>1024.4221191406</ele>
        <time>2010-09-19T06:19:37Z</time>
      </trkpt>
      <trkpt lat="46.47254" lon="6.04912">
        <ele>1022.4995117188</ele>
        <time>2010-09-19T06:19:40Z</time>
      </trkpt>
      <trkpt lat="46.47232" lon="6.04905">
        <ele>1020.0961914062</ele>
        <time>2010-09-19T06:19:44Z</time>
      </trkpt>
      <trkpt lat="46.47201" lon="6.04892">
        <ele>1017.2121582031</ele>
        <time>2010-09-19T06:19:49Z</time>
      </trkpt>
      <trkpt lat="46.47165" lon="6.04891">
        <ele>1016.7314453125</ele>
        <time>2010-09-19T06:19:54Z</time>
      </trkpt>
      <trkpt lat="46.47139" lon="6.04888">
        <ele>1015.7702636719</ele>
        <time>2010-09-19T06:19:59Z</time>
      </trkpt>
      <trkpt lat="46.47134" lon="6.04887">
        <ele>1015.2895507812</ele>
        <time>2010-09-19T06:20:00Z</time>
      </trkpt>
      <trkpt lat="46.47117" lon="6.0489">
        <ele>1013.3669433594</ele>
        <time>2010-09-19T06:20:03Z</time>
      </trkpt>
      <trkpt lat="46.47098" lon="6.04904">
        <ele>1013.3669433594</ele>
        <time>2010-09-19T06:20:07Z</time>
      </trkpt>
      <trkpt lat="46.47076" lon="6.04897">
        <ele>1011.4443359375</ele>
        <time>2010-09-19T06:20:12Z</time>
      </trkpt>
      <trkpt lat="46.47068" lon="6.049">
        <ele>1011.9250488281</ele>
        <time>2010-09-19T06:20:14Z</time>
      </trkpt>
      <trkpt lat="46.47062" lon="6.04905">
        <ele>1013.3669433594</ele>
        <time>2010-09-19T06:20:16Z</time>
      </trkpt>
      <trkpt lat="46.47051" lon="6.0492">
        <ele>1013.8474121094</ele>
        <time>2010-09-19T06:20:20Z</time>
      </trkpt>
      <trkpt lat="46.47035" lon="6.04929">
        <ele>1014.8088378906</ele>
        <time>2010-09-19T06:20:25Z</time>
      </trkpt>
      <trkpt lat="46.47028" lon="6.04935">
        <ele>1015.2895507812</ele>
        <time>2010-09-19T06:20:29Z</time>
      </trkpt>
      <trkpt lat="46.47023" lon="6.04942">
        <ele>1015.2895507812</ele>
        <time>2010-09-19T06:20:33Z</time>
      </trkpt>
      <trkpt lat="46.47018" lon="6.04947">
        <ele>1015.7702636719</ele>
        <time>2010-09-19T06:20:39Z</time>
      </trkpt>
      <trkpt lat="46.47018" lon="6.04948">
        <ele>1015.2895507812</ele>
        <time>2010-09-19T06:20:41Z</time>
      </trkpt>
      <trkpt lat="46.47014" lon="6.04953">
        <ele>1016.2507324219</ele>
        <time>2010-09-19T06:20:47Z</time>
      </trkpt>
      <trkpt lat="46.47009" lon="6.04957">
        <ele>1016.2507324219</ele>
        <time>2010-09-19T06:20:54Z</time>
      </trkpt>
      <trkpt lat="46.47002" lon="6.0496">
        <ele>1016.7314453125</ele>
        <time>2010-09-19T06:21:01Z</time>
      </trkpt>
      <trkpt lat="46.46997" lon="6.04962">
        <ele>1017.2121582031</ele>
        <time>2010-09-19T06:21:07Z</time>
      </trkpt>
      <trkpt lat="46.46991" lon="6.04965">
        <ele>1018.1733398438</ele>
        <time>2010-09-19T06:21:14Z</time>
      </trkpt>
      <trkpt lat="46.46982" lon="6.04971">
        <ele>1018.6540527344</ele>
        <time>2010-09-19T06:21:19Z</time>
      </trkpt>
      <trkpt lat="46.46971" lon="6.04977">
        <ele>1019.134765625</ele>
        <time>2010-09-19T06:21:24Z</time>
      </trkpt>
      <trkpt lat="46.46959" lon="6.04986">
        <ele>1019.6154785156</ele>
        <time>2010-09-19T06:21:30Z</time>
      </trkpt>
      <trkpt lat="46.46954" lon="6.04992">
        <ele>1020.0961914062</ele>
        <time>2010-09-19T06:21:34Z</time>
      </trkpt>
      <trkpt lat="46.46943" lon="6.04998">
        <ele>1020.5769042969</ele>
        <time>2010-09-19T06:21:40Z</time>
      </trkpt>
      <trkpt lat="46.46936" lon="6.05004">
        <ele>1020.5769042969</ele>
        <time>2010-09-19T06:21:46Z</time>
      </trkpt>
      <trkpt lat="46.46932" lon="6.0501">
        <ele>1021.5380859375</ele>
        <time>2010-09-19T06:21:50Z</time>
      </trkpt>
      <trkpt lat="46.46924" lon="6.05025">
        <ele>1021.5380859375</ele>
        <time>2010-09-19T06:21:56Z</time>
      </trkpt>
      <trkpt lat="46.46914" lon="6.0503">
        <ele>1022.4995117188</ele>
        <time>2010-09-19T06:22:00Z</time>
      </trkpt>
      <trkpt lat="46.46906" lon="6.05036">
        <ele>1023.4609375</ele>
        <time>2010-09-19T06:22:04Z</time>
      </trkpt>
      <trkpt lat="46.46895" lon="6.05046">
        <ele>1023.94140625</ele>
        <time>2010-09-19T06:22:10Z</time>
      </trkpt>
      <trkpt lat="46.46886" lon="6.05059">
        <ele>1025.3833007812</ele>
        <time>2010-09-19T06:22:16Z</time>
      </trkpt>
      <trkpt lat="46.46872" lon="6.05072">
        <ele>1025.8640136719</ele>
        <time>2010-09-19T06:22:21Z</time>
      </trkpt>
      <trkpt lat="46.46863" lon="6.05081">
        <ele>1026.8254394531</ele>
        <time>2010-09-19T06:22:25Z</time>
      </trkpt>
      <trkpt lat="46.46848" lon="6.05095">
        <ele>1026.8254394531</ele>
        <time>2010-09-19T06:22:31Z</time>
      </trkpt>
      <trkpt lat="46.4684" lon="6.05103">
        <ele>1026.3447265625</ele>
        <time>2010-09-19T06:22:36Z</time>
      </trkpt>
      <trkpt lat="46.46833" lon="6.05109">
        <ele>1027.3061523438</ele>
        <time>2010-09-19T06:22:43Z</time>
      </trkpt>
      <trkpt lat="46.46833" lon="6.0511">
        <ele>1028.2673339844</ele>
        <time>2010-09-19T06:22:44Z</time>
      </trkpt>
      <trkpt lat="46.46823" lon="6.05123">
        <ele>1028.748046875</ele>
        <time>2010-09-19T06:22:50Z</time>
      </trkpt>
      <trkpt lat="46.46821" lon="6.05125">
        <ele>1029.228515625</ele>
        <time>2010-09-19T06:22:51Z</time>
      </trkpt>
      <trkpt lat="46.46812" lon="6.05128">
        <ele>1030.1899414062</ele>
        <time>2010-09-19T06:22:55Z</time>
      </trkpt>
      <trkpt lat="46.468" lon="6.0513">
        <ele>1031.1513671875</ele>
        <time>2010-09-19T06:23:00Z</time>
      </trkpt>
      <trkpt lat="46.46781" lon="6.0514">
        <ele>1031.6318359375</ele>
        <time>2010-09-19T06:23:06Z</time>
      </trkpt>
      <trkpt lat="46.46765" lon="6.0515">
        <ele>1031.6318359375</ele>
        <time>2010-09-19T06:23:12Z</time>
      </trkpt>
      <trkpt lat="46.46757" lon="6.05152">
        <ele>1032.1125488281</ele>
        <time>2010-09-19T06:23:15Z</time>
      </trkpt>
      <trkpt lat="46.46751" lon="6.0514">
        <ele>1031.6318359375</ele>
        <time>2010-09-19T06:23:20Z</time>
      </trkpt>
      <trkpt lat="46.46746" lon="6.05125">
        <ele>1030.6706542969</ele>
        <time>2010-09-19T06:23:24Z</time>
      </trkpt>
      <trkpt lat="46.46742" lon="6.05118">
        <ele>1029.228515625</ele>
        <time>2010-09-19T06:23:26Z</time>
      </trkpt>
      <trkpt lat="46.46736" lon="6.05115">
        <ele>1028.2673339844</ele>
        <time>2010-09-19T06:23:29Z</time>
      </trkpt>
      <trkpt lat="46.4673" lon="6.05117">
        <ele>1027.3061523438</ele>
        <time>2010-09-19T06:23:31Z</time>
      </trkpt>
      <trkpt lat="46.46708" lon="6.05126">
        <ele>1025.3833007812</ele>
        <time>2010-09-19T06:23:36Z</time>
      </trkpt>
      <trkpt lat="46.46685" lon="6.05133">
        <ele>1022.9802246094</ele>
        <time>2010-09-19T06:23:40Z</time>
      </trkpt>
      <trkpt lat="46.46656" lon="6.0514">
        <ele>1020.0961914062</ele>
        <time>2010-09-19T06:23:45Z</time>
      </trkpt>
      <trkpt lat="46.46646" lon="6.05141">
        <ele>1018.6540527344</ele>
        <time>2010-09-19T06:23:47Z</time>
      </trkpt>
      <trkpt lat="46.46636" lon="6.05144">
        <ele>1017.6926269531</ele>
        <time>2010-09-19T06:23:49Z</time>
      </trkpt>
      <trkpt lat="46.46611" lon="6.05149">
        <ele>1017.2121582031</ele>
        <time>2010-09-19T06:23:54Z</time>
      </trkpt>
      <trkpt lat="46.46599" lon="6.05152">
        <ele>1016.7314453125</ele>
        <time>2010-09-19T06:23:58Z</time>
      </trkpt>
      <trkpt lat="46.4659" lon="6.05158">
        <ele>1016.2507324219</ele>
        <time>2010-09-19T06:24:02Z</time>
      </trkpt>
      <trkpt lat="46.46576" lon="6.05167">
        <ele>1013.8474121094</ele>
        <time>2010-09-19T06:24:08Z</time>
      </trkpt>
      <trkpt lat="46.4656" lon="6.05177">
        <ele>1011.4443359375</ele>
        <time>2010-09-19T06:24:13Z</time>
      </trkpt>
      <trkpt lat="46.46551" lon="6.05184">
        <ele>1011.4443359375</ele>
        <time>2010-09-19T06:24:18Z</time>
      </trkpt>
      <trkpt lat="46.46545" lon="6.05187">
        <ele>1011.4443359375</ele>
        <time>2010-09-19T06:24:24Z</time>
      </trkpt>
      <trkpt lat="46.4654" lon="6.05187">
        <ele>1010.9636230469</ele>
        <time>2010-09-19T06:24:31Z</time>
      </trkpt>
      <trkpt lat="46.46536" lon="6.05186">
        <ele>1010.0021972656</ele>
        <time>2010-09-19T06:24:39Z</time>
      </trkpt>
      <trkpt lat="46.46532" lon="6.05185">
        <ele>1010.0021972656</ele>
        <time>2010-09-19T06:24:46Z</time>
      </trkpt>
      <trkpt lat="46.46525" lon="6.05183">
        <ele>1009.041015625</ele>
        <time>2010-09-19T06:24:53Z</time>
      </trkpt>
      <trkpt lat="46.46523" lon="6.05182">
        <ele>1007.5991210938</ele>
        <time>2010-09-19T06:24:59Z</time>
      </trkpt>
      <trkpt lat="46.46522" lon="6.05181">
        <ele>1007.1184082031</ele>
        <time>2010-09-19T06:25:01Z</time>
      </trkpt>
      <trkpt lat="46.46521" lon="6.05177">
        <ele>1005.1958007812</ele>
        <time>2010-09-19T06:25:08Z</time>
      </trkpt>
      <trkpt lat="46.46523" lon="6.05176">
        <ele>1005.6765136719</ele>
        <time>2010-09-19T06:25:13Z</time>
      </trkpt>
      <trkpt lat="46.4652" lon="6.05172">
        <ele>1005.1958007812</ele>
        <time>2010-09-19T06:25:21Z</time>
      </trkpt>
      <trkpt lat="46.46517" lon="6.05161">
        <ele>1005.6765136719</ele>
        <time>2010-09-19T06:25:30Z</time>
      </trkpt>
      <trkpt lat="46.46518" lon="6.05157">
        <ele>1006.6376953125</ele>
        <time>2010-09-19T06:25:35Z</time>
      </trkpt>
      <trkpt lat="46.46519" lon="6.05148">
        <ele>1007.5991210938</ele>
        <time>2010-09-19T06:25:43Z</time>
      </trkpt>
      <trkpt lat="46.4652" lon="6.05143">
        <ele>1008.5603027344</ele>
        <time>2010-09-19T06:25:49Z</time>
      </trkpt>
      <trkpt lat="46.46521" lon="6.05136">
        <ele>1009.5217285156</ele>
        <time>2010-09-19T06:25:56Z</time>
      </trkpt>
      <trkpt lat="46.46523" lon="6.05128">
        <ele>1010.4829101562</ele>
        <time>2010-09-19T06:26:02Z</time>
      </trkpt>
      <trkpt lat="46.46524" lon="6.05126">
        <ele>1010.9636230469</ele>
        <time>2010-09-19T06:26:04Z</time>
      </trkpt>
      <trkpt lat="46.46524" lon="6.05117">
        <ele>1011.9250488281</ele>
        <time>2010-09-19T06:26:10Z</time>
      </trkpt>
      <trkpt lat="46.46524" lon="6.05114">
        <ele>1011.9250488281</ele>
        <time>2010-09-19T06:26:13Z</time>
      </trkpt>
      <trkpt lat="46.4652" lon="6.05106">
        <ele>1011.9250488281</ele>
        <time>2010-09-19T06:26:17Z</time>
      </trkpt>
      <trkpt lat="46.46517" lon="6.05099">
        <ele>1012.4055175781</ele>
        <time>2010-09-19T06:26:20Z</time>
      </trkpt>
      <trkpt lat="46.46516" lon="6.05084">
        <ele>1014.8088378906</ele>
        <time>2010-09-19T06:26:27Z</time>
      </trkpt>
      <trkpt lat="46.46513" lon="6.05075">
        <ele>1015.7702636719</ele>
        <time>2010-09-19T06:26:33Z</time>
      </trkpt>
      <trkpt lat="46.46508" lon="6.05063">
        <ele>1016.7314453125</ele>
        <time>2010-09-19T06:26:41Z</time>
      </trkpt>
      <trkpt lat="46.46507" lon="6.05062">
        <ele>1017.6926269531</ele>
        <time>2010-09-19T06:26:42Z</time>
      </trkpt>
      <trkpt lat="46.46501" lon="6.05055">
        <ele>1019.134765625</ele>
        <time>2010-09-19T06:26:48Z</time>
      </trkpt>
      <trkpt lat="46.46486" lon="6.05049">
        <ele>1021.0576171875</ele>
        <time>2010-09-19T06:26:58Z</time>
      </trkpt>
      <trkpt lat="46.46473" lon="6.05041">
        <ele>1021.0576171875</ele>
        <time>2010-09-19T06:27:03Z</time>
      </trkpt>
      <trkpt lat="46.46469" lon="6.05038">
        <ele>1020.5769042969</ele>
        <time>2010-09-19T06:27:04Z</time>
      </trkpt>
      <trkpt lat="46.46461" lon="6.05029">
        <ele>1018.1733398438</ele>
        <time>2010-09-19T06:27:06Z</time>
      </trkpt>
      <trkpt lat="46.46457" lon="6.0501">
        <ele>1019.6154785156</ele>
        <time>2010-09-19T06:27:10Z</time>
      </trkpt>
      <trkpt lat="46.4646" lon="6.05006">
        <ele>1020.5769042969</ele>
        <time>2010-09-19T06:27:12Z</time>
      </trkpt>
      <trkpt lat="46.4647" lon="6.04996">
        <ele>1022.4995117188</ele>
        <time>2010-09-19T06:27:19Z</time>
      </trkpt>
      <trkpt lat="46.46477" lon="6.04986">
        <ele>1023.94140625</ele>
        <time>2010-09-19T06:27:25Z</time>
      </trkpt>
      <trkpt lat="46.46481" lon="6.04979">
        <ele>1025.3833007812</ele>
        <time>2010-09-19T06:27:28Z</time>
      </trkpt>
      <trkpt lat="46.46492" lon="6.04966">
        <ele>1026.3447265625</ele>
        <time>2010-09-19T06:27:35Z</time>
      </trkpt>
      <trkpt lat="46.46496" lon="6.0496">
        <ele>1027.3061523438</ele>
        <time>2010-09-19T06:27:38Z</time>
      </trkpt>
      <trkpt lat="46.46499" lon="6.04957">
        <ele>1027.7866210938</ele>
        <time>2010-09-19T06:27:40Z</time>
      </trkpt>
      <trkpt lat="46.46504" lon="6.04948">
        <ele>1028.2673339844</ele>
        <time>2010-09-19T06:27:44Z</time>
      </trkpt>
      <trkpt lat="46.46516" lon="6.04937">
        <ele>1030.1899414062</ele>
        <time>2010-09-19T06:27:52Z</time>
      </trkpt>
      <trkpt lat="46.46519" lon="6.04935">
        <ele>1030.6706542969</ele>
        <time>2010-09-19T06:27:54Z</time>
      </trkpt>
      <trkpt lat="46.46529" lon="6.04926">
        <ele>1033.5544433594</ele>
        <time>2010-09-19T06:28:02Z</time>
      </trkpt>
      <trkpt lat="46.46535" lon="6.04919">
        <ele>1034.03515625</ele>
        <time>2010-09-19T06:28:08Z</time>
      </trkpt>
      <trkpt lat="46.46542" lon="6.04913">
        <ele>1035.9577636719</ele>
        <time>2010-09-19T06:28:14Z</time>
      </trkpt>
      <trkpt lat="46.46552" lon="6.04904">
        <ele>1037.3999023438</ele>
        <time>2010-09-19T06:28:22Z</time>
      </trkpt>
      <trkpt lat="46.46555" lon="6.04902">
        <ele>1037.3999023438</ele>
        <time>2010-09-19T06:28:24Z</time>
      </trkpt>
      <trkpt lat="46.46563" lon="6.04893">
        <ele>1039.8032226562</ele>
        <time>2010-09-19T06:28:32Z</time>
      </trkpt>
      <trkpt lat="46.46565" lon="6.0489">
        <ele>1039.8032226562</ele>
        <time>2010-09-19T06:28:34Z</time>
      </trkpt>
      <trkpt lat="46.46574" lon="6.0488">
        <ele>1041.2451171875</ele>
        <time>2010-09-19T06:28:41Z</time>
      </trkpt>
      <trkpt lat="46.46579" lon="6.04872">
        <ele>1043.6484375</ele>
        <time>2010-09-19T06:28:47Z</time>
      </trkpt>
      <trkpt lat="46.46581" lon="6.04871">
        <ele>1043.6484375</ele>
        <time>2010-09-19T06:28:48Z</time>
      </trkpt>
      <trkpt lat="46.46591" lon="6.0486">
        <ele>1046.5324707031</ele>
        <time>2010-09-19T06:28:57Z</time>
      </trkpt>
      <trkpt lat="46.466" lon="6.04846">
        <ele>1047.9743652344</ele>
        <time>2010-09-19T06:29:05Z</time>
      </trkpt>
      <trkpt lat="46.46602" lon="6.04842">
        <ele>1048.4548339844</ele>
        <time>2010-09-19T06:29:07Z</time>
      </trkpt>
      <trkpt lat="46.46609" lon="6.04825">
        <ele>1050.3776855469</ele>
        <time>2010-09-19T06:29:14Z</time>
      </trkpt>
      <trkpt lat="46.46619" lon="6.04814">
        <ele>1050.8581542969</ele>
        <time>2010-09-19T06:29:19Z</time>
      </trkpt>
      <trkpt lat="46.46633" lon="6.04795">
        <ele>1049.8969726562</ele>
        <time>2010-09-19T06:29:24Z</time>
      </trkpt>
      <trkpt lat="46.46644" lon="6.04782">
        <ele>1050.3776855469</ele>
        <time>2010-09-19T06:29:28Z</time>
      </trkpt>
      <trkpt lat="46.46663" lon="6.04765">
        <ele>1050.3776855469</ele>
        <time>2010-09-19T06:29:34Z</time>
      </trkpt>
      <trkpt lat="46.46679" lon="6.04744">
        <ele>1050.8581542969</ele>
        <time>2010-09-19T06:29:40Z</time>
      </trkpt>
      <trkpt lat="46.46692" lon="6.04718">
        <ele>1052.7810058594</ele>
        <time>2010-09-19T06:29:47Z</time>
      </trkpt>
      <trkpt lat="46.46702" lon="6.04696">
        <ele>1052.3002929688</ele>
        <time>2010-09-19T06:29:52Z</time>
      </trkpt>
      <trkpt lat="46.46705" lon="6.04685">
        <ele>1052.3002929688</ele>
        <time>2010-09-19T06:29:54Z</time>
      </trkpt>
      <trkpt lat="46.46712" lon="6.04668">
        <ele>1051.3388671875</ele>
        <time>2010-09-19T06:29:57Z</time>
      </trkpt>
      <trkpt lat="46.46719" lon="6.04655">
        <ele>1050.8581542969</ele>
        <time>2010-09-19T06:29:59Z</time>
      </trkpt>
      <trkpt lat="46.46735" lon="6.04626">
        <ele>1049.4162597656</ele>
        <time>2010-09-19T06:30:03Z</time>
      </trkpt>
      <trkpt lat="46.46743" lon="6.04611">
        <ele>1051.3388671875</ele>
        <time>2010-09-19T06:30:07Z</time>
      </trkpt>
      <trkpt lat="46.46747" lon="6.04598">
        <ele>1053.26171875</ele>
        <time>2010-09-19T06:30:13Z</time>
      </trkpt>
      <trkpt lat="46.4675" lon="6.04584">
        <ele>1055.1843261719</ele>
        <time>2010-09-19T06:30:20Z</time>
      </trkpt>
      <trkpt lat="46.46753" lon="6.04572">
        <ele>1056.6262207031</ele>
        <time>2010-09-19T06:30:26Z</time>
      </trkpt>
      <trkpt lat="46.46762" lon="6.04553">
        <ele>1058.548828125</ele>
        <time>2010-09-19T06:30:35Z</time>
      </trkpt>
      <trkpt lat="46.46769" lon="6.04543">
        <ele>1059.5102539062</ele>
        <time>2010-09-19T06:30:40Z</time>
      </trkpt>
      <trkpt lat="46.46774" lon="6.04534">
        <ele>1060.9521484375</ele>
        <time>2010-09-19T06:30:45Z</time>
      </trkpt>
      <trkpt lat="46.4678" lon="6.04525">
        <ele>1062.8747558594</ele>
        <time>2010-09-19T06:30:52Z</time>
      </trkpt>
      <trkpt lat="46.46783" lon="6.04522">
        <ele>1062.8747558594</ele>
        <time>2010-09-19T06:30:54Z</time>
      </trkpt>
      <trkpt lat="46.46786" lon="6.04517">
        <ele>1063.35546875</ele>
        <time>2010-09-19T06:30:57Z</time>
      </trkpt>
      <trkpt lat="46.46794" lon="6.04499">
        <ele>1064.7973632812</ele>
        <time>2010-09-19T06:31:05Z</time>
      </trkpt>
      <trkpt lat="46.46802" lon="6.04481">
        <ele>1066.2392578125</ele>
        <time>2010-09-19T06:31:13Z</time>
      </trkpt>
      <trkpt lat="46.46809" lon="6.04462">
        <ele>1069.1235351562</ele>
        <time>2010-09-19T06:31:21Z</time>
      </trkpt>
      <trkpt lat="46.4681" lon="6.04456">
        <ele>1069.6042480469</ele>
        <time>2010-09-19T06:31:24Z</time>
      </trkpt>
      <trkpt lat="46.4681" lon="6.04448">
        <ele>1071.0461425781</ele>
        <time>2010-09-19T06:31:29Z</time>
      </trkpt>
      <trkpt lat="46.46808" lon="6.04444">
        <ele>1072.0073242188</ele>
        <time>2010-09-19T06:31:32Z</time>
      </trkpt>
      <trkpt lat="46.46803" lon="6.0444">
        <ele>1073.4494628906</ele>
        <time>2010-09-19T06:31:35Z</time>
      </trkpt>
      <trkpt lat="46.46796" lon="6.04438">
        <ele>1074.4106445312</ele>
        <time>2010-09-19T06:31:39Z</time>
      </trkpt>
      <trkpt lat="46.46786" lon="6.0443">
        <ele>1075.8525390625</ele>
        <time>2010-09-19T06:31:46Z</time>
      </trkpt>
      <trkpt lat="46.46783" lon="6.04425">
        <ele>1076.8139648438</ele>
        <time>2010-09-19T06:31:49Z</time>
      </trkpt>
      <trkpt lat="46.4678" lon="6.04421">
        <ele>1077.2946777344</ele>
        <time>2010-09-19T06:31:52Z</time>
      </trkpt>
      <trkpt lat="46.4677" lon="6.04422">
        <ele>1078.7365722656</ele>
        <time>2010-09-19T06:32:00Z</time>
      </trkpt>
      <trkpt lat="46.46767" lon="6.04421">
        <ele>1080.1784667969</ele>
        <time>2010-09-19T06:32:03Z</time>
      </trkpt>
      <trkpt lat="46.46754" lon="6.04422">
        <ele>1081.6203613281</ele>
        <time>2010-09-19T06:32:12Z</time>
      </trkpt>
      <trkpt lat="46.46744" lon="6.0442">
        <ele>1082.1010742188</ele>
        <time>2010-09-19T06:32:19Z</time>
      </trkpt>
      <trkpt lat="46.46731" lon="6.04419">
        <ele>1084.5046386719</ele>
        <time>2010-09-19T06:32:28Z</time>
      </trkpt>
      <trkpt lat="46.4672" lon="6.04419">
        <ele>1086.4272460938</ele>
        <time>2010-09-19T06:32:36Z</time>
      </trkpt>
      <trkpt lat="46.46714" lon="6.04417">
        <ele>1087.869140625</ele>
        <time>2010-09-19T06:32:42Z</time>
      </trkpt>
      <trkpt lat="46.46701" lon="6.04416">
        <ele>1091.2336425781</ele>
        <time>2010-09-19T06:32:51Z</time>
      </trkpt>
      <trkpt lat="46.467" lon="6.04415">
        <ele>1091.2336425781</ele>
        <time>2010-09-19T06:32:52Z</time>
      </trkpt>
      <trkpt lat="46.46697" lon="6.0441">
        <ele>1092.67578125</ele>
        <time>2010-09-19T06:32:55Z</time>
      </trkpt>
      <trkpt lat="46.46696" lon="6.04406">
        <ele>1093.15625</ele>
        <time>2010-09-19T06:32:57Z</time>
      </trkpt>
      <trkpt lat="46.46697" lon="6.04386">
        <ele>1095.0788574219</ele>
        <time>2010-09-19T06:33:05Z</time>
      </trkpt>
      <trkpt lat="46.46703" lon="6.04352">
        <ele>1097.962890625</ele>
        <time>2010-09-19T06:33:17Z</time>
      </trkpt>
      <trkpt lat="46.46706" lon="6.04333">
        <ele>1098.443359375</ele>
        <time>2010-09-19T06:33:23Z</time>
      </trkpt>
      <trkpt lat="46.46707" lon="6.04331">
        <ele>1098.443359375</ele>
        <time>2010-09-19T06:33:24Z</time>
      </trkpt>
      <trkpt lat="46.46713" lon="6.04327">
        <ele>1098.443359375</ele>
        <time>2010-09-19T06:33:27Z</time>
      </trkpt>
      <trkpt lat="46.46715" lon="6.04316">
        <ele>1099.4047851562</ele>
        <time>2010-09-19T06:33:30Z</time>
      </trkpt>
      <trkpt lat="46.46712" lon="6.04284">
        <ele>1101.3276367188</ele>
        <time>2010-09-19T06:33:38Z</time>
      </trkpt>
      <trkpt lat="46.46708" lon="6.0425">
        <ele>1103.2502441406</ele>
        <time>2010-09-19T06:33:47Z</time>
      </trkpt>
      <trkpt lat="46.46703" lon="6.04222">
        <ele>1103.7309570312</ele>
        <time>2010-09-19T06:33:54Z</time>
      </trkpt>
      <trkpt lat="46.4669" lon="6.04187">
        <ele>1105.6535644531</ele>
        <time>2010-09-19T06:34:03Z</time>
      </trkpt>
      <trkpt lat="46.46668" lon="6.04146">
        <ele>1105.6535644531</ele>
        <time>2010-09-19T06:34:12Z</time>
      </trkpt>
      <trkpt lat="46.46643" lon="6.041">
        <ele>1105.6535644531</ele>
        <time>2010-09-19T06:34:21Z</time>
      </trkpt>
      <trkpt lat="46.46626" lon="6.04079">
        <ele>1107.576171875</ele>
        <time>2010-09-19T06:34:28Z</time>
      </trkpt>
      <trkpt lat="46.46606" lon="6.04058">
        <ele>1109.9792480469</ele>
        <time>2010-09-19T06:34:36Z</time>
      </trkpt>
      <trkpt lat="46.46583" lon="6.04028">
        <ele>1109.4987792969</ele>
        <time>2010-09-19T06:34:44Z</time>
      </trkpt>
      <trkpt lat="46.46563" lon="6.03998">
        <ele>1107.0954589844</ele>
        <time>2010-09-19T06:34:49Z</time>
      </trkpt>
      <trkpt lat="46.46548" lon="6.03969">
        <ele>1105.6535644531</ele>
        <time>2010-09-19T06:34:52Z</time>
      </trkpt>
      <trkpt lat="46.46541" lon="6.03924">
        <ele>1105.1728515625</ele>
        <time>2010-09-19T06:34:56Z</time>
      </trkpt>
      <trkpt lat="46.46541" lon="6.03914">
        <ele>1105.6535644531</ele>
        <time>2010-09-19T06:34:57Z</time>
      </trkpt>
      <trkpt lat="46.4654" lon="6.03854">
        <ele>1105.6535644531</ele>
        <time>2010-09-19T06:35:04Z</time>
      </trkpt>
      <trkpt lat="46.46538" lon="6.03838">
        <ele>1106.1340332031</ele>
        <time>2010-09-19T06:35:06Z</time>
      </trkpt>
      <trkpt lat="46.46525" lon="6.038">
        <ele>1106.6147460938</ele>
        <time>2010-09-19T06:35:11Z</time>
      </trkpt>
      <trkpt lat="46.46497" lon="6.03743">
        <ele>1104.2116699219</ele>
        <time>2010-09-19T06:35:18Z</time>
      </trkpt>
      <trkpt lat="46.46468" lon="6.03672">
        <ele>1102.76953125</ele>
        <time>2010-09-19T06:35:26Z</time>
      </trkpt>
      <trkpt lat="46.46453" lon="6.03636">
        <ele>1104.2116699219</ele>
        <time>2010-09-19T06:35:31Z</time>
      </trkpt>
      <trkpt lat="46.46436" lon="6.03605">
        <ele>1105.6535644531</ele>
        <time>2010-09-19T06:35:37Z</time>
      </trkpt>
      <trkpt lat="46.46414" lon="6.03574">
        <ele>1108.0568847656</ele>
        <time>2010-09-19T06:35:45Z</time>
      </trkpt>
      <trkpt lat="46.46404" lon="6.03544">
        <ele>1109.4987792969</ele>
        <time>2010-09-19T06:35:52Z</time>
      </trkpt>
      <trkpt lat="46.46402" lon="6.03518">
        <ele>1111.4213867188</ele>
        <time>2010-09-19T06:35:58Z</time>
      </trkpt>
      <trkpt lat="46.46407" lon="6.03488">
        <ele>1114.3051757812</ele>
        <time>2010-09-19T06:36:06Z</time>
      </trkpt>
      <trkpt lat="46.46407" lon="6.03484">
        <ele>1114.7858886719</ele>
        <time>2010-09-19T06:36:07Z</time>
      </trkpt>
      <trkpt lat="46.46406" lon="6.03458">
        <ele>1116.2280273438</ele>
        <time>2010-09-19T06:36:14Z</time>
      </trkpt>
      <trkpt lat="46.46405" lon="6.03447">
        <ele>1117.669921875</ele>
        <time>2010-09-19T06:36:17Z</time>
      </trkpt>
      <trkpt lat="46.464" lon="6.03418">
        <ele>1121.0346679688</ele>
        <time>2010-09-19T06:36:26Z</time>
      </trkpt>
      <trkpt lat="46.46386" lon="6.0339">
        <ele>1121.9958496094</ele>
        <time>2010-09-19T06:36:35Z</time>
      </trkpt>
      <trkpt lat="46.46368" lon="6.03368">
        <ele>1123.4379882812</ele>
        <time>2010-09-19T06:36:43Z</time>
      </trkpt>
      <trkpt lat="46.4635" lon="6.03347">
        <ele>1124.3991699219</ele>
        <time>2010-09-19T06:36:51Z</time>
      </trkpt>
      <trkpt lat="46.46332" lon="6.0332">
        <ele>1125.3603515625</ele>
        <time>2010-09-19T06:36:59Z</time>
      </trkpt>
      <trkpt lat="46.46311" lon="6.03276">
        <ele>1126.8024902344</ele>
        <time>2010-09-19T06:37:10Z</time>
      </trkpt>
      <trkpt lat="46.46309" lon="6.03273">
        <ele>1126.8024902344</ele>
        <time>2010-09-19T06:37:11Z</time>
      </trkpt>
      <trkpt lat="46.46308" lon="6.03268">
        <ele>1127.283203125</ele>
        <time>2010-09-19T06:37:14Z</time>
      </trkpt>
      <trkpt lat="46.46301" lon="6.03259">
        <ele>1127.283203125</ele>
        <time>2010-09-19T06:37:17Z</time>
      </trkpt>
      <trkpt lat="46.46293" lon="6.03229">
        <ele>1128.2443847656</ele>
        <time>2010-09-19T06:37:23Z</time>
      </trkpt>
      <trkpt lat="46.4628" lon="6.03194">
        <ele>1128.2443847656</ele>
        <time>2010-09-19T06:37:30Z</time>
      </trkpt>
      <trkpt lat="46.4626" lon="6.03153">
        <ele>1127.763671875</ele>
        <time>2010-09-19T06:37:37Z</time>
      </trkpt>
      <trkpt lat="46.46235" lon="6.03114">
        <ele>1125.3603515625</ele>
        <time>2010-09-19T06:37:43Z</time>
      </trkpt>
      <trkpt lat="46.46226" lon="6.03099">
        <ele>1124.8798828125</ele>
        <time>2010-09-19T06:37:45Z</time>
      </trkpt>
      <trkpt lat="46.46212" lon="6.03064">
        <ele>1123.9184570312</ele>
        <time>2010-09-19T06:37:49Z</time>
      </trkpt>
      <trkpt lat="46.46175" lon="6.03014">
        <ele>1122.9572753906</ele>
        <time>2010-09-19T06:37:56Z</time>
      </trkpt>
      <trkpt lat="46.46138" lon="6.02971">
        <ele>1123.4379882812</ele>
        <time>2010-09-19T06:38:04Z</time>
      </trkpt>
      <trkpt lat="46.4611" lon="6.02956">
        <ele>1123.9184570312</ele>
        <time>2010-09-19T06:38:10Z</time>
      </trkpt>
      <trkpt lat="46.46076" lon="6.02932">
        <ele>1125.3603515625</ele>
        <time>2010-09-19T06:38:18Z</time>
      </trkpt>
      <trkpt lat="46.46045" lon="6.02905">
        <ele>1125.3603515625</ele>
        <time>2010-09-19T06:38:25Z</time>
      </trkpt>
      <trkpt lat="46.46" lon="6.02866">
        <ele>1126.3217773438</ele>
        <time>2010-09-19T06:38:34Z</time>
      </trkpt>
      <trkpt lat="46.45995" lon="6.02862">
        <ele>1126.3217773438</ele>
        <time>2010-09-19T06:38:35Z</time>
      </trkpt>
      <trkpt lat="46.45965" lon="6.02846">
        <ele>1127.283203125</ele>
        <time>2010-09-19T06:38:41Z</time>
      </trkpt>
      <trkpt lat="46.45946" lon="6.02822">
        <ele>1128.2443847656</ele>
        <time>2010-09-19T06:38:46Z</time>
      </trkpt>
      <trkpt lat="46.45927" lon="6.02778">
        <ele>1128.7250976562</ele>
        <time>2010-09-19T06:38:53Z</time>
      </trkpt>
      <trkpt lat="46.45907" lon="6.02743">
        <ele>1127.283203125</ele>
        <time>2010-09-19T06:38:58Z</time>
      </trkpt>
      <trkpt lat="46.45872" lon="6.02699">
        <ele>1126.8024902344</ele>
        <time>2010-09-19T06:39:05Z</time>
      </trkpt>
      <trkpt lat="46.4583" lon="6.02636">
        <ele>1127.283203125</ele>
        <time>2010-09-19T06:39:15Z</time>
      </trkpt>
      <trkpt lat="46.458" lon="6.02595">
        <ele>1128.7250976562</ele>
        <time>2010-09-19T06:39:23Z</time>
      </trkpt>
      <trkpt lat="46.45779" lon="6.02576">
        <ele>1130.6477050781</ele>
        <time>2010-09-19T06:39:29Z</time>
      </trkpt>
      <trkpt lat="46.45752" lon="6.0257">
        <ele>1131.6088867188</ele>
        <time>2010-09-19T06:39:36Z</time>
      </trkpt>
      <trkpt lat="46.45732" lon="6.02565">
        <ele>1132.5705566406</ele>
        <time>2010-09-19T06:39:41Z</time>
      </trkpt>
      <trkpt lat="46.45707" lon="6.02545">
        <ele>1133.0510253906</ele>
        <time>2010-09-19T06:39:48Z</time>
      </trkpt>
      <trkpt lat="46.45678" lon="6.02524">
        <ele>1134.4931640625</ele>
        <time>2010-09-19T06:39:56Z</time>
      </trkpt>
      <trkpt lat="46.45642" lon="6.02509">
        <ele>1134.4931640625</ele>
        <time>2010-09-19T06:40:05Z</time>
      </trkpt>
      <trkpt lat="46.45613" lon="6.02484">
        <ele>1135.9350585938</ele>
        <time>2010-09-19T06:40:13Z</time>
      </trkpt>
      <trkpt lat="46.45584" lon="6.02458">
        <ele>1137.8576660156</ele>
        <time>2010-09-19T06:40:22Z</time>
      </trkpt>
      <trkpt lat="46.45564" lon="6.02439">
        <ele>1138.8190917969</ele>
        <time>2010-09-19T06:40:29Z</time>
      </trkpt>
      <trkpt lat="46.45546" lon="6.02419">
        <ele>1140.7414550781</ele>
        <time>2010-09-19T06:40:36Z</time>
      </trkpt>
      <trkpt lat="46.45533" lon="6.02402">
        <ele>1141.2221679688</ele>
        <time>2010-09-19T06:40:42Z</time>
      </trkpt>
      <trkpt lat="46.4552" lon="6.02384">
        <ele>1142.6643066406</ele>
        <time>2010-09-19T06:40:48Z</time>
      </trkpt>
      <trkpt lat="46.45502" lon="6.02361">
        <ele>1144.5866699219</ele>
        <time>2010-09-19T06:40:55Z</time>
      </trkpt>
      <trkpt lat="46.45483" lon="6.02333">
        <ele>1145.5480957031</ele>
        <time>2010-09-19T06:41:03Z</time>
      </trkpt>
      <trkpt lat="46.4547" lon="6.02314">
        <ele>1146.5095214844</ele>
        <time>2010-09-19T06:41:09Z</time>
      </trkpt>
      <trkpt lat="46.45445" lon="6.02301">
        <ele>1148.4321289062</ele>
        <time>2010-09-19T06:41:17Z</time>
      </trkpt>
      <trkpt lat="46.4542" lon="6.02287">
        <ele>1150.3549804688</ele>
        <time>2010-09-19T06:41:27Z</time>
      </trkpt>
      <trkpt lat="46.45398" lon="6.02281">
        <ele>1153.2387695312</ele>
        <time>2010-09-19T06:41:37Z</time>
      </trkpt>
      <trkpt lat="46.45394" lon="6.02278">
        <ele>1153.7194824219</ele>
        <time>2010-09-19T06:41:39Z</time>
      </trkpt>
      <trkpt lat="46.45391" lon="6.02266">
        <ele>1154.2001953125</ele>
        <time>2010-09-19T06:41:44Z</time>
      </trkpt>
      <trkpt lat="46.45391" lon="6.02251">
        <ele>1155.1613769531</ele>
        <time>2010-09-19T06:41:51Z</time>
      </trkpt>
      <trkpt lat="46.45391" lon="6.02232">
        <ele>1157.083984375</ele>
        <time>2010-09-19T06:42:01Z</time>
      </trkpt>
      <trkpt lat="46.45389" lon="6.02216">
        <ele>1159.9677734375</ele>
        <time>2010-09-19T06:42:09Z</time>
      </trkpt>
      <trkpt lat="46.45382" lon="6.02206">
        <ele>1160.9291992188</ele>
        <time>2010-09-19T06:42:16Z</time>
      </trkpt>
      <trkpt lat="46.45373" lon="6.02196">
        <ele>1162.37109375</ele>
        <time>2010-09-19T06:42:24Z</time>
      </trkpt>
      <trkpt lat="46.45364" lon="6.02188">
        <ele>1163.8129882812</ele>
        <time>2010-09-19T06:42:32Z</time>
      </trkpt>
      <trkpt lat="46.45356" lon="6.02183">
        <ele>1164.7746582031</ele>
        <time>2010-09-19T06:42:40Z</time>
      </trkpt>
      <trkpt lat="46.45354" lon="6.02178">
        <ele>1164.7746582031</ele>
        <time>2010-09-19T06:42:44Z</time>
      </trkpt>
      <trkpt lat="46.45342" lon="6.02165">
        <ele>1166.697265625</ele>
        <time>2010-09-19T06:42:53Z</time>
      </trkpt>
      <trkpt lat="46.45333" lon="6.02155">
        <ele>1168.6198730469</ele>
        <time>2010-09-19T06:43:00Z</time>
      </trkpt>
      <trkpt lat="46.45325" lon="6.02145">
        <ele>1171.5036621094</ele>
        <time>2010-09-19T06:43:07Z</time>
      </trkpt>
      <trkpt lat="46.45319" lon="6.02138">
        <ele>1173.4265136719</ele>
        <time>2010-09-19T06:43:14Z</time>
      </trkpt>
      <trkpt lat="46.45312" lon="6.02126">
        <ele>1174.3876953125</ele>
        <time>2010-09-19T06:43:23Z</time>
      </trkpt>
      <trkpt lat="46.45306" lon="6.02114">
        <ele>1174.8684082031</ele>
        <time>2010-09-19T06:43:30Z</time>
      </trkpt>
      <trkpt lat="46.45299" lon="6.02097">
        <ele>1176.3103027344</ele>
        <time>2010-09-19T06:43:39Z</time>
      </trkpt>
      <trkpt lat="46.45295" lon="6.02085">
        <ele>1178.2329101562</ele>
        <time>2010-09-19T06:43:45Z</time>
      </trkpt>
      <trkpt lat="46.45292" lon="6.02067">
        <ele>1178.7136230469</ele>
        <time>2010-09-19T06:43:54Z</time>
      </trkpt>
      <trkpt lat="46.45291" lon="6.02059">
        <ele>1179.6748046875</ele>
        <time>2010-09-19T06:43:58Z</time>
      </trkpt>
      <trkpt lat="46.45289" lon="6.02049">
        <ele>1181.59765625</ele>
        <time>2010-09-19T06:44:06Z</time>
      </trkpt>
      <trkpt lat="46.45287" lon="6.02038">
        <ele>1183.5202636719</ele>
        <time>2010-09-19T06:44:14Z</time>
      </trkpt>
      <trkpt lat="46.45287" lon="6.02035">
        <ele>1184.0009765625</ele>
        <time>2010-09-19T06:44:16Z</time>
      </trkpt>
      <trkpt lat="46.45286" lon="6.02032">
        <ele>1184.9624023438</ele>
        <time>2010-09-19T06:44:18Z</time>
      </trkpt>
      <trkpt lat="46.4528" lon="6.0202">
        <ele>1186.404296875</ele>
        <time>2010-09-19T06:44:26Z</time>
      </trkpt>
      <trkpt lat="46.45275" lon="6.02011">
        <ele>1187.3654785156</ele>
        <time>2010-09-19T06:44:34Z</time>
      </trkpt>
      <trkpt lat="46.45269" lon="6.02">
        <ele>1189.7687988281</ele>
        <time>2010-09-19T06:44:44Z</time>
      </trkpt>
      <trkpt lat="46.45268" lon="6.01998">
        <ele>1190.7299804688</ele>
        <time>2010-09-19T06:44:45Z</time>
      </trkpt>
      <trkpt lat="46.45262" lon="6.01985">
        <ele>1192.6528320312</ele>
        <time>2010-09-19T06:44:52Z</time>
      </trkpt>
      <trkpt lat="46.45255" lon="6.01973">
        <ele>1194.5751953125</ele>
        <time>2010-09-19T06:44:59Z</time>
      </trkpt>
      <trkpt lat="46.45249" lon="6.01961">
        <ele>1196.9787597656</ele>
        <time>2010-09-19T06:45:06Z</time>
      </trkpt>
      <trkpt lat="46.45245" lon="6.01946">
        <ele>1198.9013671875</ele>
        <time>2010-09-19T06:45:13Z</time>
      </trkpt>
      <trkpt lat="46.45244" lon="6.01944">
        <ele>1199.3820800781</ele>
        <time>2010-09-19T06:45:15Z</time>
      </trkpt>
      <trkpt lat="46.45242" lon="6.01942">
        <ele>1199.8627929688</ele>
        <time>2010-09-19T06:45:17Z</time>
      </trkpt>
      <trkpt lat="46.45241" lon="6.0194">
        <ele>1199.8627929688</ele>
        <time>2010-09-19T06:45:19Z</time>
      </trkpt>
      <trkpt lat="46.4524" lon="6.01928">
        <ele>1201.7854003906</ele>
        <time>2010-09-19T06:45:27Z</time>
      </trkpt>
      <trkpt lat="46.45237" lon="6.01922">
        <ele>1203.2272949219</ele>
        <time>2010-09-19T06:45:32Z</time>
      </trkpt>
      <trkpt lat="46.45229" lon="6.01908">
        <ele>1205.6306152344</ele>
        <time>2010-09-19T06:45:40Z</time>
      </trkpt>
      <trkpt lat="46.45222" lon="6.01896">
        <ele>1207.0725097656</ele>
        <time>2010-09-19T06:45:48Z</time>
      </trkpt>
      <trkpt lat="46.45212" lon="6.01882">
        <ele>1209.4758300781</ele>
        <time>2010-09-19T06:45:58Z</time>
      </trkpt>
      <trkpt lat="46.45207" lon="6.01871">
        <ele>1211.3984375</ele>
        <time>2010-09-19T06:46:05Z</time>
      </trkpt>
      <trkpt lat="46.45199" lon="6.01855">
        <ele>1212.8405761719</ele>
        <time>2010-09-19T06:46:13Z</time>
      </trkpt>
      <trkpt lat="46.45198" lon="6.01853">
        <ele>1212.8405761719</ele>
        <time>2010-09-19T06:46:14Z</time>
      </trkpt>
      <trkpt lat="46.45192" lon="6.01844">
        <ele>1214.2824707031</ele>
        <time>2010-09-19T06:46:22Z</time>
      </trkpt>
      <trkpt lat="46.45184" lon="6.0183">
        <ele>1216.6857910156</ele>
        <time>2010-09-19T06:46:31Z</time>
      </trkpt>
      <trkpt lat="46.45177" lon="6.0182">
        <ele>1217.6469726562</ele>
        <time>2010-09-19T06:46:38Z</time>
      </trkpt>
      <trkpt lat="46.45175" lon="6.01815">
        <ele>1218.6083984375</ele>
        <time>2010-09-19T06:46:42Z</time>
      </trkpt>
      <trkpt lat="46.45168" lon="6.01799">
        <ele>1220.0502929688</ele>
        <time>2010-09-19T06:46:50Z</time>
      </trkpt>
      <trkpt lat="46.4516" lon="6.01781">
        <ele>1221.9729003906</ele>
        <time>2010-09-19T06:46:58Z</time>
      </trkpt>
      <trkpt lat="46.45154" lon="6.01768">
        <ele>1223.8955078125</ele>
        <time>2010-09-19T06:47:06Z</time>
      </trkpt>
      <trkpt lat="46.45152" lon="6.01756">
        <ele>1226.298828125</ele>
        <time>2010-09-19T06:47:13Z</time>
      </trkpt>
      <trkpt lat="46.4515" lon="6.01744">
        <ele>1228.2216796875</ele>
        <time>2010-09-19T06:47:21Z</time>
      </trkpt>
      <trkpt lat="46.45145" lon="6.01736">
        <ele>1230.1442871094</ele>
        <time>2010-09-19T06:47:26Z</time>
      </trkpt>
      <trkpt lat="46.45141" lon="6.0173">
        <ele>1232.0668945312</ele>
        <time>2010-09-19T06:47:29Z</time>
      </trkpt>
      <trkpt lat="46.45136" lon="6.01725">
        <ele>1233.5087890625</ele>
        <time>2010-09-19T06:47:33Z</time>
      </trkpt>
      <trkpt lat="46.45128" lon="6.01713">
        <ele>1234.4702148438</ele>
        <time>2010-09-19T06:47:42Z</time>
      </trkpt>
      <trkpt lat="46.45121" lon="6.01701">
        <ele>1235.912109375</ele>
        <time>2010-09-19T06:47:50Z</time>
      </trkpt>
      <trkpt lat="46.45116" lon="6.01695">
        <ele>1235.912109375</ele>
        <time>2010-09-19T06:47:57Z</time>
      </trkpt>
      <trkpt lat="46.45117" lon="6.01693">
        <ele>1237.3540039062</ele>
        <time>2010-09-19T06:49:38Z</time>
      </trkpt>
      <trkpt lat="46.45114" lon="6.01688">
        <ele>1236.8732910156</ele>
        <time>2010-09-19T06:49:42Z</time>
      </trkpt>
      <trkpt lat="46.451" lon="6.01678">
        <ele>1236.8732910156</ele>
        <time>2010-09-19T06:49:47Z</time>
      </trkpt>
      <trkpt lat="46.45096" lon="6.01676">
        <ele>1236.3928222656</ele>
        <time>2010-09-19T06:49:48Z</time>
      </trkpt>
      <trkpt lat="46.45079" lon="6.0167">
        <ele>1235.4313964844</ele>
        <time>2010-09-19T06:49:52Z</time>
      </trkpt>
      <trkpt lat="46.45045" lon="6.0165">
        <ele>1236.8732910156</ele>
        <time>2010-09-19T06:50:01Z</time>
      </trkpt>
      <trkpt lat="46.45029" lon="6.01642">
        <ele>1238.3154296875</ele>
        <time>2010-09-19T06:50:07Z</time>
      </trkpt>
      <trkpt lat="46.45013" lon="6.01635">
        <ele>1238.7961425781</ele>
        <time>2010-09-19T06:50:14Z</time>
      </trkpt>
      <trkpt lat="46.45002" lon="6.01628">
        <ele>1239.7573242188</ele>
        <time>2010-09-19T06:50:19Z</time>
      </trkpt>
      <trkpt lat="46.44982" lon="6.01617">
        <ele>1240.2380371094</ele>
        <time>2010-09-19T06:50:26Z</time>
      </trkpt>
      <trkpt lat="46.44963" lon="6.01606">
        <ele>1240.7185058594</ele>
        <time>2010-09-19T06:50:33Z</time>
      </trkpt>
      <trkpt lat="46.44945" lon="6.01593">
        <ele>1242.1606445312</ele>
        <time>2010-09-19T06:50:41Z</time>
      </trkpt>
      <trkpt lat="46.44933" lon="6.01584">
        <ele>1243.6025390625</ele>
        <time>2010-09-19T06:50:48Z</time>
      </trkpt>
      <trkpt lat="46.44929" lon="6.01579">
        <ele>1245.525390625</ele>
        <time>2010-09-19T06:50:51Z</time>
      </trkpt>
      <trkpt lat="46.44924" lon="6.01572">
        <ele>1246.4868164062</ele>
        <time>2010-09-19T06:50:56Z</time>
      </trkpt>
      <trkpt lat="46.44916" lon="6.01562">
        <ele>1247.9287109375</ele>
        <time>2010-09-19T06:51:04Z</time>
      </trkpt>
      <trkpt lat="46.4491" lon="6.0155">
        <ele>1249.8513183594</ele>
        <time>2010-09-19T06:51:13Z</time>
      </trkpt>
      <trkpt lat="46.44909" lon="6.01549">
        <ele>1249.8513183594</ele>
        <time>2010-09-19T06:51:14Z</time>
      </trkpt>
      <trkpt lat="46.44903" lon="6.0154">
        <ele>1252.7351074219</ele>
        <time>2010-09-19T06:51:21Z</time>
      </trkpt>
      <trkpt lat="46.44892" lon="6.01528">
        <ele>1255.1384277344</ele>
        <time>2010-09-19T06:51:30Z</time>
      </trkpt>
      <trkpt lat="46.44891" lon="6.01526">
        <ele>1255.619140625</ele>
        <time>2010-09-19T06:51:31Z</time>
      </trkpt>
      <trkpt lat="46.44884" lon="6.01516">
        <ele>1258.5029296875</ele>
        <time>2010-09-19T06:51:37Z</time>
      </trkpt>
      <trkpt lat="46.44883" lon="6.01514">
        <ele>1258.5029296875</ele>
        <time>2010-09-19T06:51:38Z</time>
      </trkpt>
      <trkpt lat="46.44875" lon="6.01502">
        <ele>1261.3872070312</ele>
        <time>2010-09-19T06:51:45Z</time>
      </trkpt>
      <trkpt lat="46.44867" lon="6.01491">
        <ele>1262.3483886719</ele>
        <time>2010-09-19T06:51:52Z</time>
      </trkpt>
      <trkpt lat="46.44859" lon="6.01478">
        <ele>1263.3098144531</ele>
        <time>2010-09-19T06:51:58Z</time>
      </trkpt>
      <trkpt lat="46.44847" lon="6.01461">
        <ele>1264.7517089844</ele>
        <time>2010-09-19T06:52:06Z</time>
      </trkpt>
      <trkpt lat="46.44837" lon="6.01445">
        <ele>1265.7131347656</ele>
        <time>2010-09-19T06:52:14Z</time>
      </trkpt>
      <trkpt lat="46.44825" lon="6.01423">
        <ele>1265.7131347656</ele>
        <time>2010-09-19T06:52:22Z</time>
      </trkpt>
      <trkpt lat="46.44809" lon="6.01397">
        <ele>1266.1936035156</ele>
        <time>2010-09-19T06:52:30Z</time>
      </trkpt>
      <trkpt lat="46.44794" lon="6.01372">
        <ele>1266.1936035156</ele>
        <time>2010-09-19T06:52:37Z</time>
      </trkpt>
      <trkpt lat="46.44781" lon="6.01358">
        <ele>1268.1162109375</ele>
        <time>2010-09-19T06:52:44Z</time>
      </trkpt>
      <trkpt lat="46.44767" lon="6.01338">
        <ele>1270.0388183594</ele>
        <time>2010-09-19T06:52:53Z</time>
      </trkpt>
      <trkpt lat="46.4476" lon="6.01328">
        <ele>1271.0002441406</ele>
        <time>2010-09-19T06:53:00Z</time>
      </trkpt>
      <trkpt lat="46.44752" lon="6.01318">
        <ele>1272.4421386719</ele>
        <time>2010-09-19T06:53:07Z</time>
      </trkpt>
      <trkpt lat="46.44744" lon="6.01308">
        <ele>1273.8840332031</ele>
        <time>2010-09-19T06:53:13Z</time>
      </trkpt>
      <trkpt lat="46.44736" lon="6.01297">
        <ele>1275.3259277344</ele>
        <time>2010-09-19T06:53:20Z</time>
      </trkpt>
      <trkpt lat="46.44733" lon="6.01294">
        <ele>1276.2875976562</ele>
        <time>2010-09-19T06:53:22Z</time>
      </trkpt>
      <trkpt lat="46.44724" lon="6.01279">
        <ele>1277.2490234375</ele>
        <time>2010-09-19T06:53:31Z</time>
      </trkpt>
      <trkpt lat="46.44715" lon="6.01267">
        <ele>1278.2102050781</ele>
        <time>2010-09-19T06:53:39Z</time>
      </trkpt>
      <trkpt lat="46.44703" lon="6.0126">
        <ele>1279.6520996094</ele>
        <time>2010-09-19T06:53:47Z</time>
      </trkpt>
      <trkpt lat="46.44691" lon="6.01264">
        <ele>1281.5747070312</ele>
        <time>2010-09-19T06:53:55Z</time>
      </trkpt>
      <trkpt lat="46.44682" lon="6.01264">
        <ele>1283.0166015625</ele>
        <time>2010-09-19T06:54:03Z</time>
      </trkpt>
      <trkpt lat="46.44675" lon="6.01265">
        <ele>1283.9780273438</ele>
        <time>2010-09-19T06:54:08Z</time>
      </trkpt>
      <trkpt lat="46.4467" lon="6.01264">
        <ele>1285.419921875</ele>
        <time>2010-09-19T06:54:12Z</time>
      </trkpt>
      <trkpt lat="46.44663" lon="6.01252">
        <ele>1285.9006347656</ele>
        <time>2010-09-19T06:54:19Z</time>
      </trkpt>
      <trkpt lat="46.44661" lon="6.01251">
        <ele>1285.9006347656</ele>
        <time>2010-09-19T06:54:20Z</time>
      </trkpt>
      <trkpt lat="46.44654" lon="6.01229">
        <ele>1286.3813476562</ele>
        <time>2010-09-19T06:54:27Z</time>
      </trkpt>
      <trkpt lat="46.44649" lon="6.01218">
        <ele>1287.3425292969</ele>
        <time>2010-09-19T06:54:30Z</time>
      </trkpt>
      <trkpt lat="46.44631" lon="6.01189">
        <ele>1287.8232421875</ele>
        <time>2010-09-19T06:54:39Z</time>
      </trkpt>
      <trkpt lat="46.44611" lon="6.01163">
        <ele>1288.3039550781</ele>
        <time>2010-09-19T06:54:48Z</time>
      </trkpt>
      <trkpt lat="46.44594" lon="6.01142">
        <ele>1290.2265625</ele>
        <time>2010-09-19T06:54:56Z</time>
      </trkpt>
      <trkpt lat="46.44582" lon="6.01129">
        <ele>1292.1494140625</ele>
        <time>2010-09-19T06:55:02Z</time>
      </trkpt>
      <trkpt lat="46.44568" lon="6.01117">
        <ele>1293.1105957031</ele>
        <time>2010-09-19T06:55:08Z</time>
      </trkpt>
      <trkpt lat="46.44552" lon="6.01101">
        <ele>1294.0720214844</ele>
        <time>2010-09-19T06:55:15Z</time>
      </trkpt>
      <trkpt lat="46.44532" lon="6.0108">
        <ele>1294.5524902344</ele>
        <time>2010-09-19T06:55:22Z</time>
      </trkpt>
      <trkpt lat="46.44507" lon="6.01059">
        <ele>1294.5524902344</ele>
        <time>2010-09-19T06:55:29Z</time>
      </trkpt>
      <trkpt lat="46.44483" lon="6.01037">
        <ele>1294.5524902344</ele>
        <time>2010-09-19T06:55:35Z</time>
      </trkpt>
      <trkpt lat="46.44455" lon="6.01019">
        <ele>1294.5524902344</ele>
        <time>2010-09-19T06:55:42Z</time>
      </trkpt>
      <trkpt lat="46.44451" lon="6.01015">
        <ele>1294.5524902344</ele>
        <time>2010-09-19T06:55:43Z</time>
      </trkpt>
      <trkpt lat="46.44435" lon="6.0101">
        <ele>1293.5913085938</ele>
        <time>2010-09-19T06:55:46Z</time>
      </trkpt>
      <trkpt lat="46.44418" lon="6.01001">
        <ele>1293.1105957031</ele>
        <time>2010-09-19T06:55:49Z</time>
      </trkpt>
      <trkpt lat="46.44389" lon="6.0097">
        <ele>1293.5913085938</ele>
        <time>2010-09-19T06:55:55Z</time>
      </trkpt>
      <trkpt lat="46.44365" lon="6.00941">
        <ele>1293.1105957031</ele>
        <time>2010-09-19T06:56:00Z</time>
      </trkpt>
      <trkpt lat="46.44336" lon="6.00906">
        <ele>1292.1494140625</ele>
        <time>2010-09-19T06:56:06Z</time>
      </trkpt>
      <trkpt lat="46.44305" lon="6.00867">
        <ele>1289.7458496094</ele>
        <time>2010-09-19T06:56:11Z</time>
      </trkpt>
      <trkpt lat="46.44287" lon="6.00843">
        <ele>1288.7846679688</ele>
        <time>2010-09-19T06:56:14Z</time>
      </trkpt>
      <trkpt lat="46.44266" lon="6.00793">
        <ele>1289.2651367188</ele>
        <time>2010-09-19T06:56:19Z</time>
      </trkpt>
      <trkpt lat="46.44249" lon="6.00753">
        <ele>1289.7458496094</ele>
        <time>2010-09-19T06:56:24Z</time>
      </trkpt>
      <trkpt lat="46.44226" lon="6.0072">
        <ele>1291.6684570312</ele>
        <time>2010-09-19T06:56:30Z</time>
      </trkpt>
      <trkpt lat="46.4421" lon="6.00697">
        <ele>1293.5913085938</ele>
        <time>2010-09-19T06:56:36Z</time>
      </trkpt>
      <trkpt lat="46.44202" lon="6.00682">
        <ele>1293.5913085938</ele>
        <time>2010-09-19T06:56:40Z</time>
      </trkpt>
      <trkpt lat="46.44207" lon="6.00668">
        <ele>1293.5913085938</ele>
        <time>2010-09-19T06:56:44Z</time>
      </trkpt>
      <trkpt lat="46.44209" lon="6.00664">
        <ele>1293.5913085938</ele>
        <time>2010-09-19T06:56:45Z</time>
      </trkpt>
      <trkpt lat="46.44207" lon="6.0065">
        <ele>1293.5913085938</ele>
        <time>2010-09-19T06:56:49Z</time>
      </trkpt>
      <trkpt lat="46.44192" lon="6.00628">
        <ele>1292.6301269531</ele>
        <time>2010-09-19T06:56:56Z</time>
      </trkpt>
      <trkpt lat="46.44189" lon="6.00624">
        <ele>1292.6301269531</ele>
        <time>2010-09-19T06:56:57Z</time>
      </trkpt>
      <trkpt lat="46.44178" lon="6.00606">
        <ele>1290.2265625</ele>
        <time>2010-09-19T06:57:01Z</time>
      </trkpt>
      <trkpt lat="46.4417" lon="6.00574">
        <ele>1287.3425292969</ele>
        <time>2010-09-19T06:57:06Z</time>
      </trkpt>
      <trkpt lat="46.44169" lon="6.00567">
        <ele>1286.3813476562</ele>
        <time>2010-09-19T06:57:07Z</time>
      </trkpt>
      <trkpt lat="46.44161" lon="6.00518">
        <ele>1283.4973144531</ele>
        <time>2010-09-19T06:57:14Z</time>
      </trkpt>
      <trkpt lat="46.44158" lon="6.00504">
        <ele>1283.0166015625</ele>
        <time>2010-09-19T06:57:16Z</time>
      </trkpt>
      <trkpt lat="46.44154" lon="6.00476">
        <ele>1281.5747070312</ele>
        <time>2010-09-19T06:57:20Z</time>
      </trkpt>
      <trkpt lat="46.44158" lon="6.00427">
        <ele>1279.6520996094</ele>
        <time>2010-09-19T06:57:27Z</time>
      </trkpt>
      <trkpt lat="46.44163" lon="6.00401">
        <ele>1280.1328125</ele>
        <time>2010-09-19T06:57:32Z</time>
      </trkpt>
      <trkpt lat="46.4417" lon="6.00379">
        <ele>1281.5747070312</ele>
        <time>2010-09-19T06:57:38Z</time>
      </trkpt>
      <trkpt lat="46.44175" lon="6.0036">
        <ele>1282.5361328125</ele>
        <time>2010-09-19T06:57:44Z</time>
      </trkpt>
      <trkpt lat="46.44184" lon="6.00346">
        <ele>1283.9780273438</ele>
        <time>2010-09-19T06:57:50Z</time>
      </trkpt>
      <trkpt lat="46.44195" lon="6.00326">
        <ele>1284.4587402344</ele>
        <time>2010-09-19T06:57:57Z</time>
      </trkpt>
      <trkpt lat="46.44201" lon="6.00304">
        <ele>1285.9006347656</ele>
        <time>2010-09-19T06:58:04Z</time>
      </trkpt>
      <trkpt lat="46.44203" lon="6.00289">
        <ele>1286.3813476562</ele>
        <time>2010-09-19T06:58:10Z</time>
      </trkpt>
      <trkpt lat="46.44204" lon="6.00267">
        <ele>1286.8618164062</ele>
        <time>2010-09-19T06:58:18Z</time>
      </trkpt>
      <trkpt lat="46.442" lon="6.00247">
        <ele>1286.3813476562</ele>
        <time>2010-09-19T06:58:25Z</time>
      </trkpt>
      <trkpt lat="46.44196" lon="6.00234">
        <ele>1285.9006347656</ele>
        <time>2010-09-19T06:58:30Z</time>
      </trkpt>
      <trkpt lat="46.44196" lon="6.00217">
        <ele>1285.419921875</ele>
        <time>2010-09-19T06:58:36Z</time>
      </trkpt>
      <trkpt lat="46.44196" lon="6.00212">
        <ele>1285.419921875</ele>
        <time>2010-09-19T06:58:40Z</time>
      </trkpt>
      <trkpt lat="46.44196" lon="6.00205">
        <ele>1284.939453125</ele>
        <time>2010-09-19T06:58:45Z</time>
      </trkpt>
      <trkpt lat="46.44195" lon="6.002">
        <ele>1284.939453125</ele>
        <time>2010-09-19T06:58:50Z</time>
      </trkpt>
      <trkpt lat="46.44194" lon="6.00198">
        <ele>1285.419921875</ele>
        <time>2010-09-19T06:58:51Z</time>
      </trkpt>
      <trkpt lat="46.44193" lon="6.00189">
        <ele>1285.419921875</ele>
        <time>2010-09-19T06:58:56Z</time>
      </trkpt>
      <trkpt lat="46.44188" lon="6.0018">
        <ele>1285.9006347656</ele>
        <time>2010-09-19T06:59:00Z</time>
      </trkpt>
      <trkpt lat="46.44177" lon="6.00159">
        <ele>1287.3425292969</ele>
        <time>2010-09-19T06:59:09Z</time>
      </trkpt>
      <trkpt lat="46.44167" lon="6.00146">
        <ele>1288.3039550781</ele>
        <time>2010-09-19T06:59:17Z</time>
      </trkpt>
      <trkpt lat="46.44156" lon="6.00135">
        <ele>1291.1877441406</ele>
        <time>2010-09-19T06:59:25Z</time>
      </trkpt>
      <trkpt lat="46.44144" lon="6.00126">
        <ele>1293.5913085938</ele>
        <time>2010-09-19T06:59:34Z</time>
      </trkpt>
      <trkpt lat="46.44134" lon="6.00116">
        <ele>1294.5524902344</ele>
        <time>2010-09-19T06:59:42Z</time>
      </trkpt>
      <trkpt lat="46.44119" lon="6.00103">
        <ele>1295.5139160156</ele>
        <time>2010-09-19T06:59:53Z</time>
      </trkpt>
      <trkpt lat="46.44108" lon="6.00092">
        <ele>1297.4365234375</ele>
        <time>2010-09-19T07:00:01Z</time>
      </trkpt>
      <trkpt lat="46.44094" lon="6.00079">
        <ele>1298.3977050781</ele>
        <time>2010-09-19T07:00:10Z</time>
      </trkpt>
      <trkpt lat="46.4408" lon="6.00065">
        <ele>1299.83984375</ele>
        <time>2010-09-19T07:00:19Z</time>
      </trkpt>
      <trkpt lat="46.4407" lon="6.00052">
        <ele>1300.8010253906</ele>
        <time>2010-09-19T07:00:27Z</time>
      </trkpt>
      <trkpt lat="46.44057" lon="6.00034">
        <ele>1303.2043457031</ele>
        <time>2010-09-19T07:00:38Z</time>
      </trkpt>
      <trkpt lat="46.44051" lon="6.00027">
        <ele>1303.6850585938</ele>
        <time>2010-09-19T07:00:45Z</time>
      </trkpt>
      <trkpt lat="46.4405" lon="6.00026">
        <ele>1303.6850585938</ele>
        <time>2010-09-19T07:00:46Z</time>
      </trkpt>
      <trkpt lat="46.44042" lon="6.00018">
        <ele>1304.6462402344</ele>
        <time>2010-09-19T07:00:53Z</time>
      </trkpt>
      <trkpt lat="46.44037" lon="6.00014">
        <ele>1305.126953125</ele>
        <time>2010-09-19T07:00:58Z</time>
      </trkpt>
      <trkpt lat="46.44021" lon="6.00005">
        <ele>1305.6076660156</ele>
        <time>2010-09-19T07:01:06Z</time>
      </trkpt>
      <trkpt lat="46.44008" lon="6.00002">
        <ele>1306.0881347656</ele>
        <time>2010-09-19T07:01:12Z</time>
      </trkpt>
      <trkpt lat="46.43993" lon="5.99995">
        <ele>1306.0881347656</ele>
        <time>2010-09-19T07:01:19Z</time>
      </trkpt>
      <trkpt lat="46.43975" lon="5.99985">
        <ele>1305.6076660156</ele>
        <time>2010-09-19T07:01:25Z</time>
      </trkpt>
      <trkpt lat="46.43959" lon="5.99974">
        <ele>1305.6076660156</ele>
        <time>2010-09-19T07:01:31Z</time>
      </trkpt>
      <trkpt lat="46.43945" lon="5.99961">
        <ele>1306.0881347656</ele>
        <time>2010-09-19T07:01:38Z</time>
      </trkpt>
      <trkpt lat="46.4393" lon="5.99942">
        <ele>1306.5688476562</ele>
        <time>2010-09-19T07:01:45Z</time>
      </trkpt>
      <trkpt lat="46.43912" lon="5.99917">
        <ele>1306.5688476562</ele>
        <time>2010-09-19T07:01:53Z</time>
      </trkpt>
      <trkpt lat="46.43899" lon="5.99899">
        <ele>1306.5688476562</ele>
        <time>2010-09-19T07:02:00Z</time>
      </trkpt>
      <trkpt lat="46.43888" lon="5.99896">
        <ele>1305.126953125</ele>
        <time>2010-09-19T07:02:03Z</time>
      </trkpt>
      <trkpt lat="46.43859" lon="5.99876">
        <ele>1302.7236328125</ele>
        <time>2010-09-19T07:02:11Z</time>
      </trkpt>
      <trkpt lat="46.43845" lon="5.99867">
        <ele>1301.2817382812</ele>
        <time>2010-09-19T07:02:16Z</time>
      </trkpt>
      <trkpt lat="46.43839" lon="5.99861">
        <ele>1300.3205566406</ele>
        <time>2010-09-19T07:02:18Z</time>
      </trkpt>
      <trkpt lat="46.43829" lon="5.99846">
        <ele>1299.3591308594</ele>
        <time>2010-09-19T07:02:21Z</time>
      </trkpt>
      <trkpt lat="46.43816" lon="5.99825">
        <ele>1298.3977050781</ele>
        <time>2010-09-19T07:02:26Z</time>
      </trkpt>
      <trkpt lat="46.43803" lon="5.99802">
        <ele>1299.83984375</ele>
        <time>2010-09-19T07:02:33Z</time>
      </trkpt>
      <trkpt lat="46.43796" lon="5.99786">
        <ele>1301.7624511719</ele>
        <time>2010-09-19T07:02:38Z</time>
      </trkpt>
      <trkpt lat="46.43785" lon="5.99773">
        <ele>1302.2429199219</ele>
        <time>2010-09-19T07:02:44Z</time>
      </trkpt>
      <trkpt lat="46.43774" lon="5.99755">
        <ele>1302.7236328125</ele>
        <time>2010-09-19T07:02:51Z</time>
      </trkpt>
      <trkpt lat="46.43764" lon="5.9974">
        <ele>1304.1657714844</ele>
        <time>2010-09-19T07:02:59Z</time>
      </trkpt>
      <trkpt lat="46.43751" lon="5.99725">
        <ele>1305.6076660156</ele>
        <time>2010-09-19T07:03:07Z</time>
      </trkpt>
      <trkpt lat="46.43737" lon="5.99712">
        <ele>1305.6076660156</ele>
        <time>2010-09-19T07:03:14Z</time>
      </trkpt>
      <trkpt lat="46.43723" lon="5.99697">
        <ele>1306.0881347656</ele>
        <time>2010-09-19T07:03:21Z</time>
      </trkpt>
      <trkpt lat="46.43705" lon="5.99684">
        <ele>1304.6462402344</ele>
        <time>2010-09-19T07:03:26Z</time>
      </trkpt>
      <trkpt lat="46.43701" lon="5.99682">
        <ele>1304.1657714844</ele>
        <time>2010-09-19T07:03:27Z</time>
      </trkpt>
      <trkpt lat="46.43679" lon="5.99665">
        <ele>1301.7624511719</ele>
        <time>2010-09-19T07:03:32Z</time>
      </trkpt>
      <trkpt lat="46.43666" lon="5.99654">
        <ele>1301.2817382812</ele>
        <time>2010-09-19T07:03:35Z</time>
      </trkpt>
      <trkpt lat="46.43633" lon="5.99624">
        <ele>1300.8010253906</ele>
        <time>2010-09-19T07:03:43Z</time>
      </trkpt>
      <trkpt lat="46.43615" lon="5.99596">
        <ele>1299.3591308594</ele>
        <time>2010-09-19T07:03:48Z</time>
      </trkpt>
      <trkpt lat="46.43608" lon="5.99585">
        <ele>1298.3977050781</ele>
        <time>2010-09-19T07:03:50Z</time>
      </trkpt>
      <trkpt lat="46.43583" lon="5.99553">
        <ele>1295.9946289062</ele>
        <time>2010-09-19T07:03:56Z</time>
      </trkpt>
      <trkpt lat="46.43579" lon="5.99547">
        <ele>1296.4753417969</ele>
        <time>2010-09-19T07:03:57Z</time>
      </trkpt>
      <trkpt lat="46.4356" lon="5.99516">
        <ele>1295.5139160156</ele>
        <time>2010-09-19T07:04:02Z</time>
      </trkpt>
      <trkpt lat="46.43535" lon="5.99483">
        <ele>1292.1494140625</ele>
        <time>2010-09-19T07:04:08Z</time>
      </trkpt>
      <trkpt lat="46.4353" lon="5.99476">
        <ele>1292.6301269531</ele>
        <time>2010-09-19T07:04:09Z</time>
      </trkpt>
      <trkpt lat="46.4351" lon="5.99453">
        <ele>1289.2651367188</ele>
        <time>2010-09-19T07:04:12Z</time>
      </trkpt>
      <trkpt lat="46.43477" lon="5.99419">
        <ele>1286.8618164062</ele>
        <time>2010-09-19T07:04:17Z</time>
      </trkpt>
      <trkpt lat="46.43446" lon="5.99388">
        <ele>1284.939453125</ele>
        <time>2010-09-19T07:04:22Z</time>
      </trkpt>
      <trkpt lat="46.43439" lon="5.99382">
        <ele>1284.4587402344</ele>
        <time>2010-09-19T07:04:23Z</time>
      </trkpt>
      <trkpt lat="46.43417" lon="5.99363">
        <ele>1284.4587402344</ele>
        <time>2010-09-19T07:04:27Z</time>
      </trkpt>
      <trkpt lat="46.43386" lon="5.99332">
        <ele>1283.0166015625</ele>
        <time>2010-09-19T07:04:34Z</time>
      </trkpt>
      <trkpt lat="46.43371" lon="5.99318">
        <ele>1281.0942382812</ele>
        <time>2010-09-19T07:04:37Z</time>
      </trkpt>
      <trkpt lat="46.43365" lon="5.99314">
        <ele>1280.1328125</ele>
        <time>2010-09-19T07:04:38Z</time>
      </trkpt>
      <trkpt lat="46.43321" lon="5.9929">
        <ele>1275.806640625</ele>
        <time>2010-09-19T07:04:44Z</time>
      </trkpt>
      <trkpt lat="46.4329" lon="5.9927">
        <ele>1271.4807128906</ele>
        <time>2010-09-19T07:04:49Z</time>
      </trkpt>
      <trkpt lat="46.43272" lon="5.99258">
        <ele>1267.6354980469</ele>
        <time>2010-09-19T07:04:53Z</time>
      </trkpt>
      <trkpt lat="46.43248" lon="5.99244">
        <ele>1264.2709960938</ele>
        <time>2010-09-19T07:04:57Z</time>
      </trkpt>
      <trkpt lat="46.43225" lon="5.99233">
        <ele>1260.9064941406</ele>
        <time>2010-09-19T07:05:01Z</time>
      </trkpt>
      <trkpt lat="46.43209" lon="5.99224">
        <ele>1257.0610351562</ele>
        <time>2010-09-19T07:05:04Z</time>
      </trkpt>
      <trkpt lat="46.43203" lon="5.99221">
        <ele>1257.0610351562</ele>
        <time>2010-09-19T07:05:05Z</time>
      </trkpt>
      <trkpt lat="46.43183" lon="5.99211">
        <ele>1254.1772460938</ele>
        <time>2010-09-19T07:05:09Z</time>
      </trkpt>
      <trkpt lat="46.43179" lon="5.99209">
        <ele>1253.6965332031</ele>
        <time>2010-09-19T07:05:10Z</time>
      </trkpt>
      <trkpt lat="46.43171" lon="5.99206">
        <ele>1252.7351074219</ele>
        <time>2010-09-19T07:05:12Z</time>
      </trkpt>
      <trkpt lat="46.43161" lon="5.99199">
        <ele>1249.3706054688</ele>
        <time>2010-09-19T07:05:16Z</time>
      </trkpt>
      <trkpt lat="46.43159" lon="5.99197">
        <ele>1249.3706054688</ele>
        <time>2010-09-19T07:05:17Z</time>
      </trkpt>
      <trkpt lat="46.43151" lon="5.99189">
        <ele>1246.9672851562</ele>
        <time>2010-09-19T07:05:22Z</time>
      </trkpt>
      <trkpt lat="46.43142" lon="5.99181">
        <ele>1243.1218261719</ele>
        <time>2010-09-19T07:05:26Z</time>
      </trkpt>
      <trkpt lat="46.4313" lon="5.99179">
        <ele>1239.7573242188</ele>
        <time>2010-09-19T07:05:30Z</time>
      </trkpt>
      <trkpt lat="46.43122" lon="5.99178">
        <ele>1238.3154296875</ele>
        <time>2010-09-19T07:05:32Z</time>
      </trkpt>
      <trkpt lat="46.43112" lon="5.99175">
        <ele>1236.3928222656</ele>
        <time>2010-09-19T07:05:35Z</time>
      </trkpt>
      <trkpt lat="46.43093" lon="5.99164">
        <ele>1235.912109375</ele>
        <time>2010-09-19T07:05:40Z</time>
      </trkpt>
      <trkpt lat="46.43079" lon="5.99157">
        <ele>1232.0668945312</ele>
        <time>2010-09-19T07:05:43Z</time>
      </trkpt>
      <trkpt lat="46.43066" lon="5.99149">
        <ele>1230.1442871094</ele>
        <time>2010-09-19T07:05:45Z</time>
      </trkpt>
      <trkpt lat="46.4303" lon="5.99128">
        <ele>1225.3374023438</ele>
        <time>2010-09-19T07:05:50Z</time>
      </trkpt>
      <trkpt lat="46.42999" lon="5.99113">
        <ele>1221.9729003906</ele>
        <time>2010-09-19T07:05:54Z</time>
      </trkpt>
      <trkpt lat="46.42992" lon="5.9911">
        <ele>1220.0502929688</ele>
        <time>2010-09-19T07:05:55Z</time>
      </trkpt>
      <trkpt lat="46.42956" lon="5.99103">
        <ele>1216.205078125</ele>
        <time>2010-09-19T07:05:59Z</time>
      </trkpt>
      <trkpt lat="46.42925" lon="5.99094">
        <ele>1215.2438964844</ele>
        <time>2010-09-19T07:06:03Z</time>
      </trkpt>
      <trkpt lat="46.42907" lon="5.99084">
        <ele>1216.205078125</ele>
        <time>2010-09-19T07:06:08Z</time>
      </trkpt>
      <trkpt lat="46.42893" lon="5.9907">
        <ele>1217.1665039062</ele>
        <time>2010-09-19T07:06:16Z</time>
      </trkpt>
      <trkpt lat="46.42884" lon="5.99055">
        <ele>1219.0891113281</ele>
        <time>2010-09-19T07:06:24Z</time>
      </trkpt>
      <trkpt lat="46.42876" lon="5.99045">
        <ele>1221.01171875</ele>
        <time>2010-09-19T07:06:30Z</time>
      </trkpt>
      <trkpt lat="46.42866" lon="5.99038">
        <ele>1223.4150390625</ele>
        <time>2010-09-19T07:06:37Z</time>
      </trkpt>
      <trkpt lat="46.42856" lon="5.99031">
        <ele>1224.8569335938</ele>
        <time>2010-09-19T07:06:44Z</time>
      </trkpt>
      <trkpt lat="46.42842" lon="5.9902">
        <ele>1226.298828125</ele>
        <time>2010-09-19T07:06:52Z</time>
      </trkpt>
      <trkpt lat="46.42825" lon="5.98999">
        <ele>1225.3374023438</ele>
        <time>2010-09-19T07:06:59Z</time>
      </trkpt>
      <trkpt lat="46.42801" lon="5.98974">
        <ele>1223.8955078125</ele>
        <time>2010-09-19T07:07:05Z</time>
      </trkpt>
      <trkpt lat="46.42785" lon="5.98957">
        <ele>1222.4536132812</ele>
        <time>2010-09-19T07:07:08Z</time>
      </trkpt>
      <trkpt lat="46.4277" lon="5.98938">
        <ele>1221.01171875</ele>
        <time>2010-09-19T07:07:11Z</time>
      </trkpt>
      <trkpt lat="46.4274" lon="5.98902">
        <ele>1220.5310058594</ele>
        <time>2010-09-19T07:07:17Z</time>
      </trkpt>
      <trkpt lat="46.42715" lon="5.98873">
        <ele>1220.5310058594</ele>
        <time>2010-09-19T07:07:23Z</time>
      </trkpt>
      <trkpt lat="46.42704" lon="5.98856">
        <ele>1219.5698242188</ele>
        <time>2010-09-19T07:07:26Z</time>
      </trkpt>
      <trkpt lat="46.42697" lon="5.98843">
        <ele>1218.1276855469</ele>
        <time>2010-09-19T07:07:28Z</time>
      </trkpt>
      <trkpt lat="46.4268" lon="5.98809">
        <ele>1215.2438964844</ele>
        <time>2010-09-19T07:07:33Z</time>
      </trkpt>
      <trkpt lat="46.42676" lon="5.98802">
        <ele>1213.8017578125</ele>
        <time>2010-09-19T07:07:34Z</time>
      </trkpt>
      <trkpt lat="46.42657" lon="5.98776">
        <ele>1209.4758300781</ele>
        <time>2010-09-19T07:07:38Z</time>
      </trkpt>
      <trkpt lat="46.42643" lon="5.98758">
        <ele>1206.1110839844</ele>
        <time>2010-09-19T07:07:41Z</time>
      </trkpt>
      <trkpt lat="46.42624" lon="5.98735">
        <ele>1203.7080078125</ele>
        <time>2010-09-19T07:07:44Z</time>
      </trkpt>
      <trkpt lat="46.42612" lon="5.98718">
        <ele>1202.7465820312</ele>
        <time>2010-09-19T07:07:46Z</time>
      </trkpt>
      <trkpt lat="46.42593" lon="5.98707">
        <ele>1203.2272949219</ele>
        <time>2010-09-19T07:07:49Z</time>
      </trkpt>
      <trkpt lat="46.42575" lon="5.98716">
        <ele>1202.2658691406</ele>
        <time>2010-09-19T07:07:52Z</time>
      </trkpt>
      <trkpt lat="46.42565" lon="5.98726">
        <ele>1199.8627929688</ele>
        <time>2010-09-19T07:07:54Z</time>
      </trkpt>
      <trkpt lat="46.42542" lon="5.98734">
        <ele>1198.9013671875</ele>
        <time>2010-09-19T07:07:58Z</time>
      </trkpt>
      <trkpt lat="46.42535" lon="5.98715">
        <ele>1198.4206542969</ele>
        <time>2010-09-19T07:08:01Z</time>
      </trkpt>
      <trkpt lat="46.42535" lon="5.98707">
        <ele>1197.9401855469</ele>
        <time>2010-09-19T07:08:02Z</time>
      </trkpt>
      <trkpt lat="46.42535" lon="5.98694">
        <ele>1197.4594726562</ele>
        <time>2010-09-19T07:08:04Z</time>
      </trkpt>
      <trkpt lat="46.4253" lon="5.98666">
        <ele>1194.0947265625</ele>
        <time>2010-09-19T07:08:08Z</time>
      </trkpt>
      <trkpt lat="46.42524" lon="5.98636">
        <ele>1190.2495117188</ele>
        <time>2010-09-19T07:08:12Z</time>
      </trkpt>
      <trkpt lat="46.42522" lon="5.98628">
        <ele>1189.2880859375</ele>
        <time>2010-09-19T07:08:13Z</time>
      </trkpt>
      <trkpt lat="46.42506" lon="5.98596">
        <ele>1184.4816894531</ele>
        <time>2010-09-19T07:08:17Z</time>
      </trkpt>
      <trkpt lat="46.42487" lon="5.98552">
        <ele>1183.0395507812</ele>
        <time>2010-09-19T07:08:22Z</time>
      </trkpt>
      <trkpt lat="46.42469" lon="5.985">
        <ele>1181.1171875</ele>
        <time>2010-09-19T07:08:28Z</time>
      </trkpt>
      <trkpt lat="46.42463" lon="5.98472">
        <ele>1180.6364746094</ele>
        <time>2010-09-19T07:08:31Z</time>
      </trkpt>
      <trkpt lat="46.42461" lon="5.98446">
        <ele>1177.7521972656</ele>
        <time>2010-09-19T07:08:34Z</time>
      </trkpt>
      <trkpt lat="46.42453" lon="5.98408">
        <ele>1173.9069824219</ele>
        <time>2010-09-19T07:08:38Z</time>
      </trkpt>
      <trkpt lat="46.42452" lon="5.98373">
        <ele>1173.4265136719</ele>
        <time>2010-09-19T07:08:42Z</time>
      </trkpt>
      <trkpt lat="46.42453" lon="5.98359">
        <ele>1171.984375</ele>
        <time>2010-09-19T07:08:44Z</time>
      </trkpt>
      <trkpt lat="46.42453" lon="5.9835">
        <ele>1171.0231933594</ele>
        <time>2010-09-19T07:08:47Z</time>
      </trkpt>
      <trkpt lat="46.42451" lon="5.98344">
        <ele>1171.0231933594</ele>
        <time>2010-09-19T07:08:53Z</time>
      </trkpt>
      <trkpt lat="46.42447" lon="5.98328">
        <ele>1171.0231933594</ele>
        <time>2010-09-19T07:08:57Z</time>
      </trkpt>
      <trkpt lat="46.42446" lon="5.98322">
        <ele>1170.5424804688</ele>
        <time>2010-09-19T07:08:58Z</time>
      </trkpt>
      <trkpt lat="46.4244" lon="5.98302">
        <ele>1170.0617675781</ele>
        <time>2010-09-19T07:09:01Z</time>
      </trkpt>
      <trkpt lat="46.42431" lon="5.98288">
        <ele>1168.6198730469</ele>
        <time>2010-09-19T07:09:04Z</time>
      </trkpt>
      <trkpt lat="46.42429" lon="5.98284">
        <ele>1168.6198730469</ele>
        <time>2010-09-19T07:09:05Z</time>
      </trkpt>
      <trkpt lat="46.42405" lon="5.9826">
        <ele>1168.1391601562</ele>
        <time>2010-09-19T07:09:11Z</time>
      </trkpt>
      <trkpt lat="46.42394" lon="5.98257">
        <ele>1167.1779785156</ele>
        <time>2010-09-19T07:09:13Z</time>
      </trkpt>
      <trkpt lat="46.42368" lon="5.98239">
        <ele>1168.1391601562</ele>
        <time>2010-09-19T07:09:18Z</time>
      </trkpt>
      <trkpt lat="46.42345" lon="5.98212">
        <ele>1168.6198730469</ele>
        <time>2010-09-19T07:09:23Z</time>
      </trkpt>
      <trkpt lat="46.42331" lon="5.9819">
        <ele>1169.5812988281</ele>
        <time>2010-09-19T07:09:27Z</time>
      </trkpt>
      <trkpt lat="46.42324" lon="5.98182">
        <ele>1169.5812988281</ele>
        <time>2010-09-19T07:09:29Z</time>
      </trkpt>
      <trkpt lat="46.4229" lon="5.98159">
        <ele>1169.1005859375</ele>
        <time>2010-09-19T07:09:36Z</time>
      </trkpt>
      <trkpt lat="46.42269" lon="5.98138">
        <ele>1167.1779785156</ele>
        <time>2010-09-19T07:09:40Z</time>
      </trkpt>
      <trkpt lat="46.4225" lon="5.98099">
        <ele>1166.2165527344</ele>
        <time>2010-09-19T07:09:45Z</time>
      </trkpt>
      <trkpt lat="46.42245" lon="5.98081">
        <ele>1165.7360839844</ele>
        <time>2010-09-19T07:09:47Z</time>
      </trkpt>
      <trkpt lat="46.42225" lon="5.9805">
        <ele>1165.2553710938</ele>
        <time>2010-09-19T07:09:52Z</time>
      </trkpt>
      <trkpt lat="46.4222" lon="5.98048">
        <ele>1164.7746582031</ele>
        <time>2010-09-19T07:09:53Z</time>
      </trkpt>
      <trkpt lat="46.42209" lon="5.98044">
        <ele>1163.8129882812</ele>
        <time>2010-09-19T07:09:55Z</time>
      </trkpt>
      <trkpt lat="46.4219" lon="5.98024">
        <ele>1160.9291992188</ele>
        <time>2010-09-19T07:09:59Z</time>
      </trkpt>
      <trkpt lat="46.42188" lon="5.98015">
        <ele>1160.4484863281</ele>
        <time>2010-09-19T07:10:00Z</time>
      </trkpt>
      <trkpt lat="46.42167" lon="5.97936">
        <ele>1160.4484863281</ele>
        <time>2010-09-19T07:10:10Z</time>
      </trkpt>
      <trkpt lat="46.42158" lon="5.97915">
        <ele>1160.4484863281</ele>
        <time>2010-09-19T07:10:14Z</time>
      </trkpt>
      <trkpt lat="46.42155" lon="5.97911">
        <ele>1160.4484863281</ele>
        <time>2010-09-19T07:10:15Z</time>
      </trkpt>
      <trkpt lat="46.4214" lon="5.97897">
        <ele>1159.4873046875</ele>
        <time>2010-09-19T07:10:20Z</time>
      </trkpt>
      <trkpt lat="46.42131" lon="5.97887">
        <ele>1159.4873046875</ele>
        <time>2010-09-19T07:10:24Z</time>
      </trkpt>
      <trkpt lat="46.42114" lon="5.97861">
        <ele>1159.9677734375</ele>
        <time>2010-09-19T07:10:31Z</time>
      </trkpt>
      <trkpt lat="46.42101" lon="5.97842">
        <ele>1160.9291992188</ele>
        <time>2010-09-19T07:10:38Z</time>
      </trkpt>
      <trkpt lat="46.42091" lon="5.97823">
        <ele>1162.8518066406</ele>
        <time>2010-09-19T07:10:46Z</time>
      </trkpt>
      <trkpt lat="46.42083" lon="5.97813">
        <ele>1164.7746582031</ele>
        <time>2010-09-19T07:10:53Z</time>
      </trkpt>
      <trkpt lat="46.42079" lon="5.97806">
        <ele>1165.7360839844</ele>
        <time>2010-09-19T07:10:56Z</time>
      </trkpt>
      <trkpt lat="46.4207" lon="5.97793">
        <ele>1166.2165527344</ele>
        <time>2010-09-19T07:11:01Z</time>
      </trkpt>
      <trkpt lat="46.42056" lon="5.97772">
        <ele>1166.697265625</ele>
        <time>2010-09-19T07:11:07Z</time>
      </trkpt>
      <trkpt lat="46.42042" lon="5.97742">
        <ele>1168.1391601562</ele>
        <time>2010-09-19T07:11:14Z</time>
      </trkpt>
      <trkpt lat="46.4203" lon="5.97711">
        <ele>1169.1005859375</ele>
        <time>2010-09-19T07:11:21Z</time>
      </trkpt>
      <trkpt lat="46.42011" lon="5.97672">
        <ele>1169.5812988281</ele>
        <time>2010-09-19T07:11:30Z</time>
      </trkpt>
      <trkpt lat="46.41997" lon="5.97652">
        <ele>1170.0617675781</ele>
        <time>2010-09-19T07:11:36Z</time>
      </trkpt>
      <trkpt lat="46.41986" lon="5.97641">
        <ele>1169.1005859375</ele>
        <time>2010-09-19T07:11:40Z</time>
      </trkpt>
      <trkpt lat="46.41965" lon="5.97614">
        <ele>1168.6198730469</ele>
        <time>2010-09-19T07:11:47Z</time>
      </trkpt>
      <trkpt lat="46.41952" lon="5.97593">
        <ele>1168.6198730469</ele>
        <time>2010-09-19T07:11:52Z</time>
      </trkpt>
      <trkpt lat="46.41938" lon="5.97561">
        <ele>1169.5812988281</ele>
        <time>2010-09-19T07:11:59Z</time>
      </trkpt>
      <trkpt lat="46.41929" lon="5.97525">
        <ele>1169.5812988281</ele>
        <time>2010-09-19T07:12:06Z</time>
      </trkpt>
      <trkpt lat="46.41927" lon="5.97519">
        <ele>1170.0617675781</ele>
        <time>2010-09-19T07:12:08Z</time>
      </trkpt>
      <trkpt lat="46.41924" lon="5.97516">
        <ele>1170.0617675781</ele>
        <time>2010-09-19T07:12:10Z</time>
      </trkpt>
      <trkpt lat="46.41917" lon="5.97499">
        <ele>1170.5424804688</ele>
        <time>2010-09-19T07:12:20Z</time>
      </trkpt>
      <trkpt lat="46.41914" lon="5.97492">
        <ele>1170.5424804688</ele>
        <time>2010-09-19T07:12:27Z</time>
      </trkpt>
      <trkpt lat="46.41912" lon="5.9749">
        <ele>1171.0231933594</ele>
        <time>2010-09-19T07:12:29Z</time>
      </trkpt>
      <trkpt lat="46.41912" lon="5.97475">
        <ele>1170.5424804688</ele>
        <time>2010-09-19T07:12:34Z</time>
      </trkpt>
      <trkpt lat="46.41909" lon="5.97461">
        <ele>1171.0231933594</ele>
        <time>2010-09-19T07:12:37Z</time>
      </trkpt>
      <trkpt lat="46.41898" lon="5.97418">
        <ele>1172.9458007812</ele>
        <time>2010-09-19T07:12:46Z</time>
      </trkpt>
      <trkpt lat="46.41886" lon="5.97374">
        <ele>1175.3488769531</ele>
        <time>2010-09-19T07:12:55Z</time>
      </trkpt>
      <trkpt lat="46.41874" lon="5.97341">
        <ele>1175.3488769531</ele>
        <time>2010-09-19T07:13:01Z</time>
      </trkpt>
      <trkpt lat="46.41865" lon="5.97321">
        <ele>1172.9458007812</ele>
        <time>2010-09-19T07:13:04Z</time>
      </trkpt>
      <trkpt lat="46.41848" lon="5.97292">
        <ele>1170.5424804688</ele>
        <time>2010-09-19T07:13:08Z</time>
      </trkpt>
      <trkpt lat="46.41829" lon="5.97244">
        <ele>1169.5812988281</ele>
        <time>2010-09-19T07:13:14Z</time>
      </trkpt>
      <trkpt lat="46.41817" lon="5.9721">
        <ele>1170.0617675781</ele>
        <time>2010-09-19T07:13:19Z</time>
      </trkpt>
      <trkpt lat="46.418" lon="5.97183">
        <ele>1171.0231933594</ele>
        <time>2010-09-19T07:13:24Z</time>
      </trkpt>
      <trkpt lat="46.41779" lon="5.97165">
        <ele>1171.984375</ele>
        <time>2010-09-19T07:13:30Z</time>
      </trkpt>
      <trkpt lat="46.41762" lon="5.97149">
        <ele>1173.4265136719</ele>
        <time>2010-09-19T07:13:36Z</time>
      </trkpt>
      <trkpt lat="46.41756" lon="5.97143">
        <ele>1173.4265136719</ele>
        <time>2010-09-19T07:13:38Z</time>
      </trkpt>
      <trkpt lat="46.41747" lon="5.97137">
        <ele>1172.4650878906</ele>
        <time>2010-09-19T07:13:40Z</time>
      </trkpt>
      <trkpt lat="46.41735" lon="5.9712">
        <ele>1171.984375</ele>
        <time>2010-09-19T07:13:44Z</time>
      </trkpt>
      <trkpt lat="46.41739" lon="5.97107">
        <ele>1172.4650878906</ele>
        <time>2010-09-19T07:13:47Z</time>
      </trkpt>
      <trkpt lat="46.41743" lon="5.97099">
        <ele>1173.4265136719</ele>
        <time>2010-09-19T07:13:49Z</time>
      </trkpt>
      <trkpt lat="46.41757" lon="5.9708">
        <ele>1172.9458007812</ele>
        <time>2010-09-19T07:13:54Z</time>
      </trkpt>
      <trkpt lat="46.41781" lon="5.97059">
        <ele>1171.5036621094</ele>
        <time>2010-09-19T07:13:59Z</time>
      </trkpt>
      <trkpt lat="46.41787" lon="5.97055">
        <ele>1171.0231933594</ele>
        <time>2010-09-19T07:14:00Z</time>
      </trkpt>
      <trkpt lat="46.41828" lon="5.9703">
        <ele>1168.6198730469</ele>
        <time>2010-09-19T07:14:06Z</time>
      </trkpt>
      <trkpt lat="46.41868" lon="5.97007">
        <ele>1168.1391601562</ele>
        <time>2010-09-19T07:14:12Z</time>
      </trkpt>
      <trkpt lat="46.41901" lon="5.96983">
        <ele>1168.1391601562</ele>
        <time>2010-09-19T07:14:18Z</time>
      </trkpt>
      <trkpt lat="46.41921" lon="5.9697">
        <ele>1168.1391601562</ele>
        <time>2010-09-19T07:14:23Z</time>
      </trkpt>
      <trkpt lat="46.41919" lon="5.96944">
        <ele>1167.1779785156</ele>
        <time>2010-09-19T07:14:27Z</time>
      </trkpt>
      <trkpt lat="46.41915" lon="5.96924">
        <ele>1165.7360839844</ele>
        <time>2010-09-19T07:14:29Z</time>
      </trkpt>
      <trkpt lat="46.41913" lon="5.96915">
        <ele>1165.2553710938</ele>
        <time>2010-09-19T07:14:30Z</time>
      </trkpt>
      <trkpt lat="46.41903" lon="5.9688">
        <ele>1165.7360839844</ele>
        <time>2010-09-19T07:14:34Z</time>
      </trkpt>
      <trkpt lat="46.4189" lon="5.96851">
        <ele>1166.697265625</ele>
        <time>2010-09-19T07:14:39Z</time>
      </trkpt>
      <trkpt lat="46.41878" lon="5.96827">
        <ele>1168.1391601562</ele>
        <time>2010-09-19T07:14:45Z</time>
      </trkpt>
      <trkpt lat="46.41863" lon="5.96807">
        <ele>1170.0617675781</ele>
        <time>2010-09-19T07:14:51Z</time>
      </trkpt>
      <trkpt lat="46.41861" lon="5.96805">
        <ele>1169.5812988281</ele>
        <time>2010-09-19T07:14:52Z</time>
      </trkpt>
      <trkpt lat="46.41859" lon="5.96799">
        <ele>1170.0617675781</ele>
        <time>2010-09-19T07:14:54Z</time>
      </trkpt>
      <trkpt lat="46.41845" lon="5.96776">
        <ele>1170.5424804688</ele>
        <time>2010-09-19T07:15:01Z</time>
      </trkpt>
      <trkpt lat="46.41829" lon="5.96753">
        <ele>1171.984375</ele>
        <time>2010-09-19T07:15:09Z</time>
      </trkpt>
      <trkpt lat="46.41816" lon="5.96733">
        <ele>1172.9458007812</ele>
        <time>2010-09-19T07:15:15Z</time>
      </trkpt>
      <trkpt lat="46.41801" lon="5.96707">
        <ele>1172.9458007812</ele>
        <time>2010-09-19T07:15:22Z</time>
      </trkpt>
      <trkpt lat="46.41784" lon="5.96674">
        <ele>1173.9069824219</ele>
        <time>2010-09-19T07:15:30Z</time>
      </trkpt>
      <trkpt lat="46.41767" lon="5.96642">
        <ele>1173.4265136719</ele>
        <time>2010-09-19T07:15:38Z</time>
      </trkpt>
      <trkpt lat="46.41752" lon="5.96613">
        <ele>1173.9069824219</ele>
        <time>2010-09-19T07:15:45Z</time>
      </trkpt>
      <trkpt lat="46.41737" lon="5.96584">
        <ele>1172.9458007812</ele>
        <time>2010-09-19T07:15:52Z</time>
      </trkpt>
      <trkpt lat="46.41723" lon="5.96561">
        <ele>1171.5036621094</ele>
        <time>2010-09-19T07:15:58Z</time>
      </trkpt>
      <trkpt lat="46.41713" lon="5.96549">
        <ele>1171.0231933594</ele>
        <time>2010-09-19T07:16:01Z</time>
      </trkpt>
      <trkpt lat="46.41691" lon="5.96515">
        <ele>1169.5812988281</ele>
        <time>2010-09-19T07:16:08Z</time>
      </trkpt>
      <trkpt lat="46.41674" lon="5.96494">
        <ele>1169.1005859375</ele>
        <time>2010-09-19T07:16:13Z</time>
      </trkpt>
      <trkpt lat="46.4166" lon="5.96473">
        <ele>1170.0617675781</ele>
        <time>2010-09-19T07:16:18Z</time>
      </trkpt>
      <trkpt lat="46.41657" lon="5.96447">
        <ele>1170.0617675781</ele>
        <time>2010-09-19T07:16:23Z</time>
      </trkpt>
      <trkpt lat="46.41651" lon="5.96427">
        <ele>1171.5036621094</ele>
        <time>2010-09-19T07:16:29Z</time>
      </trkpt>
      <trkpt lat="46.41642" lon="5.96402">
        <ele>1172.9458007812</ele>
        <time>2010-09-19T07:16:37Z</time>
      </trkpt>
      <trkpt lat="46.41632" lon="5.96383">
        <ele>1174.3876953125</ele>
        <time>2010-09-19T07:16:44Z</time>
      </trkpt>
      <trkpt lat="46.41623" lon="5.96363">
        <ele>1174.3876953125</ele>
        <time>2010-09-19T07:16:50Z</time>
      </trkpt>
      <trkpt lat="46.41616" lon="5.96346">
        <ele>1173.9069824219</ele>
        <time>2010-09-19T07:16:54Z</time>
      </trkpt>
      <trkpt lat="46.41605" lon="5.96326">
        <ele>1173.9069824219</ele>
        <time>2010-09-19T07:17:00Z</time>
      </trkpt>
      <trkpt lat="46.41595" lon="5.96312">
        <ele>1172.9458007812</ele>
        <time>2010-09-19T07:17:04Z</time>
      </trkpt>
      <trkpt lat="46.41581" lon="5.96288">
        <ele>1171.5036621094</ele>
        <time>2010-09-19T07:17:09Z</time>
      </trkpt>
      <trkpt lat="46.41578" lon="5.96282">
        <ele>1171.984375</ele>
        <time>2010-09-19T07:17:10Z</time>
      </trkpt>
      <trkpt lat="46.41567" lon="5.96253">
        <ele>1171.0231933594</ele>
        <time>2010-09-19T07:17:15Z</time>
      </trkpt>
      <trkpt lat="46.4155" lon="5.96235">
        <ele>1171.0231933594</ele>
        <time>2010-09-19T07:17:20Z</time>
      </trkpt>
      <trkpt lat="46.41545" lon="5.96226">
        <ele>1171.0231933594</ele>
        <time>2010-09-19T07:17:22Z</time>
      </trkpt>
      <trkpt lat="46.41539" lon="5.96211">
        <ele>1171.984375</ele>
        <time>2010-09-19T07:17:27Z</time>
      </trkpt>
      <trkpt lat="46.41537" lon="5.96207">
        <ele>1171.5036621094</ele>
        <time>2010-09-19T07:17:29Z</time>
      </trkpt>
      <trkpt lat="46.41527" lon="5.962">
        <ele>1171.5036621094</ele>
        <time>2010-09-19T07:17:35Z</time>
      </trkpt>
      <trkpt lat="46.41526" lon="5.96198">
        <ele>1171.984375</ele>
        <time>2010-09-19T07:17:36Z</time>
      </trkpt>
      <trkpt lat="46.41517" lon="5.96178">
        <ele>1171.984375</ele>
        <time>2010-09-19T07:17:43Z</time>
      </trkpt>
      <trkpt lat="46.41504" lon="5.96158">
        <ele>1171.5036621094</ele>
        <time>2010-09-19T07:17:49Z</time>
      </trkpt>
      <trkpt lat="46.41484" lon="5.96135">
        <ele>1170.0617675781</ele>
        <time>2010-09-19T07:17:55Z</time>
      </trkpt>
      <trkpt lat="46.41461" lon="5.96108">
        <ele>1168.1391601562</ele>
        <time>2010-09-19T07:18:01Z</time>
      </trkpt>
      <trkpt lat="46.41434" lon="5.96073">
        <ele>1166.2165527344</ele>
        <time>2010-09-19T07:18:07Z</time>
      </trkpt>
      <trkpt lat="46.41415" lon="5.96049">
        <ele>1165.2553710938</ele>
        <time>2010-09-19T07:18:12Z</time>
      </trkpt>
      <trkpt lat="46.41411" lon="5.96044">
        <ele>1164.7746582031</ele>
        <time>2010-09-19T07:18:13Z</time>
      </trkpt>
      <trkpt lat="46.41404" lon="5.96032">
        <ele>1164.7746582031</ele>
        <time>2010-09-19T07:18:15Z</time>
      </trkpt>
      <trkpt lat="46.41381" lon="5.9601">
        <ele>1162.8518066406</ele>
        <time>2010-09-19T07:18:20Z</time>
      </trkpt>
      <trkpt lat="46.41355" lon="5.96002">
        <ele>1162.8518066406</ele>
        <time>2010-09-19T07:18:25Z</time>
      </trkpt>
      <trkpt lat="46.41338" lon="5.96002">
        <ele>1164.2939453125</ele>
        <time>2010-09-19T07:18:30Z</time>
      </trkpt>
      <trkpt lat="46.41318" lon="5.95996">
        <ele>1163.8129882812</ele>
        <time>2010-09-19T07:18:36Z</time>
      </trkpt>
      <trkpt lat="46.41293" lon="5.95986">
        <ele>1165.7360839844</ele>
        <time>2010-09-19T07:18:44Z</time>
      </trkpt>
      <trkpt lat="46.4128" lon="5.95971">
        <ele>1167.1779785156</ele>
        <time>2010-09-19T07:18:51Z</time>
      </trkpt>
      <trkpt lat="46.41272" lon="5.95961">
        <ele>1168.1391601562</ele>
        <time>2010-09-19T07:18:56Z</time>
      </trkpt>
      <trkpt lat="46.41261" lon="5.95941">
        <ele>1169.5812988281</ele>
        <time>2010-09-19T07:19:04Z</time>
      </trkpt>
      <trkpt lat="46.41252" lon="5.95927">
        <ele>1170.5424804688</ele>
        <time>2010-09-19T07:19:10Z</time>
      </trkpt>
      <trkpt lat="46.41236" lon="5.95909">
        <ele>1171.5036621094</ele>
        <time>2010-09-19T07:19:19Z</time>
      </trkpt>
      <trkpt lat="46.41227" lon="5.95899">
        <ele>1172.9458007812</ele>
        <time>2010-09-19T07:19:24Z</time>
      </trkpt>
      <trkpt lat="46.41211" lon="5.95882">
        <ele>1173.4265136719</ele>
        <time>2010-09-19T07:19:33Z</time>
      </trkpt>
      <trkpt lat="46.41198" lon="5.95871">
        <ele>1174.3876953125</ele>
        <time>2010-09-19T07:19:39Z</time>
      </trkpt>
      <trkpt lat="46.41183" lon="5.95866">
        <ele>1174.3876953125</ele>
        <time>2010-09-19T07:19:45Z</time>
      </trkpt>
      <trkpt lat="46.41164" lon="5.95859">
        <ele>1173.9069824219</ele>
        <time>2010-09-19T07:19:50Z</time>
      </trkpt>
      <trkpt lat="46.41154" lon="5.95855">
        <ele>1173.4265136719</ele>
        <time>2010-09-19T07:19:52Z</time>
      </trkpt>
      <trkpt lat="46.41131" lon="5.9585">
        <ele>1173.4265136719</ele>
        <time>2010-09-19T07:19:57Z</time>
      </trkpt>
      <trkpt lat="46.41098" lon="5.95847">
        <ele>1173.9069824219</ele>
        <time>2010-09-19T07:20:04Z</time>
      </trkpt>
      <trkpt lat="46.41088" lon="5.95844">
        <ele>1172.9458007812</ele>
        <time>2010-09-19T07:20:06Z</time>
      </trkpt>
      <trkpt lat="46.41054" lon="5.95839">
        <ele>1170.0617675781</ele>
        <time>2010-09-19T07:20:12Z</time>
      </trkpt>
      <trkpt lat="46.41027" lon="5.95828">
        <ele>1168.6198730469</ele>
        <time>2010-09-19T07:20:16Z</time>
      </trkpt>
      <trkpt lat="46.41" lon="5.95828">
        <ele>1168.1391601562</ele>
        <time>2010-09-19T07:20:20Z</time>
      </trkpt>
      <trkpt lat="46.40989" lon="5.95843">
        <ele>1166.697265625</ele>
        <time>2010-09-19T07:20:22Z</time>
      </trkpt>
      <trkpt lat="46.40952" lon="5.95873">
        <ele>1163.3325195312</ele>
        <time>2010-09-19T07:20:27Z</time>
      </trkpt>
      <trkpt lat="46.40932" lon="5.95898">
        <ele>1164.7746582031</ele>
        <time>2010-09-19T07:20:30Z</time>
      </trkpt>
      <trkpt lat="46.40924" lon="5.95915">
        <ele>1164.2939453125</ele>
        <time>2010-09-19T07:20:32Z</time>
      </trkpt>
      <trkpt lat="46.40887" lon="5.96007">
        <ele>1163.8129882812</ele>
        <time>2010-09-19T07:20:43Z</time>
      </trkpt>
      <trkpt lat="46.40864" lon="5.96064">
        <ele>1163.3325195312</ele>
        <time>2010-09-19T07:20:50Z</time>
      </trkpt>
      <trkpt lat="46.40858" lon="5.96092">
        <ele>1161.890625</ele>
        <time>2010-09-19T07:20:53Z</time>
      </trkpt>
      <trkpt lat="46.40858" lon="5.96102">
        <ele>1161.890625</ele>
        <time>2010-09-19T07:20:54Z</time>
      </trkpt>
      <trkpt lat="46.40854" lon="5.96164">
        <ele>1160.9291992188</ele>
        <time>2010-09-19T07:21:00Z</time>
      </trkpt>
      <trkpt lat="46.4085" lon="5.96185">
        <ele>1159.9677734375</ele>
        <time>2010-09-19T07:21:02Z</time>
      </trkpt>
      <trkpt lat="46.40836" lon="5.96218">
        <ele>1160.9291992188</ele>
        <time>2010-09-19T07:21:06Z</time>
      </trkpt>
      <trkpt lat="46.40826" lon="5.96229">
        <ele>1160.4484863281</ele>
        <time>2010-09-19T07:21:08Z</time>
      </trkpt>
      <trkpt lat="46.40796" lon="5.96248">
        <ele>1162.37109375</ele>
        <time>2010-09-19T07:21:14Z</time>
      </trkpt>
      <trkpt lat="46.40771" lon="5.96257">
        <ele>1163.8129882812</ele>
        <time>2010-09-19T07:21:20Z</time>
      </trkpt>
      <trkpt lat="46.40742" lon="5.96275">
        <ele>1163.8129882812</ele>
        <time>2010-09-19T07:21:26Z</time>
      </trkpt>
      <trkpt lat="46.40734" lon="5.96281">
        <ele>1164.7746582031</ele>
        <time>2010-09-19T07:21:28Z</time>
      </trkpt>
      <trkpt lat="46.40714" lon="5.96285">
        <ele>1165.2553710938</ele>
        <time>2010-09-19T07:21:33Z</time>
      </trkpt>
      <trkpt lat="46.40703" lon="5.96277">
        <ele>1165.2553710938</ele>
        <time>2010-09-19T07:21:36Z</time>
      </trkpt>
      <trkpt lat="46.4068" lon="5.96257">
        <ele>1166.2165527344</ele>
        <time>2010-09-19T07:21:43Z</time>
      </trkpt>
      <trkpt lat="46.40666" lon="5.96259">
        <ele>1167.1779785156</ele>
        <time>2010-09-19T07:21:47Z</time>
      </trkpt>
      <trkpt lat="46.40659" lon="5.96274">
        <ele>1168.6198730469</ele>
        <time>2010-09-19T07:21:51Z</time>
      </trkpt>
      <trkpt lat="46.40662" lon="5.96293">
        <ele>1169.1005859375</ele>
        <time>2010-09-19T07:21:56Z</time>
      </trkpt>
      <trkpt lat="46.40673" lon="5.96319">
        <ele>1171.0231933594</ele>
        <time>2010-09-19T07:22:04Z</time>
      </trkpt>
      <trkpt lat="46.40679" lon="5.96345">
        <ele>1172.4650878906</ele>
        <time>2010-09-19T07:22:11Z</time>
      </trkpt>
      <trkpt lat="46.40674" lon="5.96369">
        <ele>1173.9069824219</ele>
        <time>2010-09-19T07:22:17Z</time>
      </trkpt>
      <trkpt lat="46.40662" lon="5.96379">
        <ele>1174.8684082031</ele>
        <time>2010-09-19T07:22:22Z</time>
      </trkpt>
      <trkpt lat="46.40642" lon="5.96379">
        <ele>1175.8295898438</ele>
        <time>2010-09-19T07:22:29Z</time>
      </trkpt>
      <trkpt lat="46.40617" lon="5.96377">
        <ele>1177.7521972656</ele>
        <time>2010-09-19T07:22:37Z</time>
      </trkpt>
      <trkpt lat="46.40588" lon="5.96378">
        <ele>1177.7521972656</ele>
        <time>2010-09-19T07:22:44Z</time>
      </trkpt>
      <trkpt lat="46.40551" lon="5.96388">
        <ele>1178.2329101562</ele>
        <time>2010-09-19T07:22:52Z</time>
      </trkpt>
      <trkpt lat="46.40538" lon="5.96394">
        <ele>1178.7136230469</ele>
        <time>2010-09-19T07:22:55Z</time>
      </trkpt>
      <trkpt lat="46.40497" lon="5.964">
        <ele>1178.7136230469</ele>
        <time>2010-09-19T07:23:03Z</time>
      </trkpt>
      <trkpt lat="46.40458" lon="5.96407">
        <ele>1178.7136230469</ele>
        <time>2010-09-19T07:23:10Z</time>
      </trkpt>
      <trkpt lat="46.40429" lon="5.9642">
        <ele>1179.6748046875</ele>
        <time>2010-09-19T07:23:16Z</time>
      </trkpt>
      <trkpt lat="46.40396" lon="5.9643">
        <ele>1180.6364746094</ele>
        <time>2010-09-19T07:23:23Z</time>
      </trkpt>
      <trkpt lat="46.40367" lon="5.9644">
        <ele>1179.1940917969</ele>
        <time>2010-09-19T07:23:28Z</time>
      </trkpt>
      <trkpt lat="46.40343" lon="5.96459">
        <ele>1178.7136230469</ele>
        <time>2010-09-19T07:23:32Z</time>
      </trkpt>
      <trkpt lat="46.40314" lon="5.96492">
        <ele>1177.2717285156</ele>
        <time>2010-09-19T07:23:37Z</time>
      </trkpt>
      <trkpt lat="46.40279" lon="5.96515">
        <ele>1176.791015625</ele>
        <time>2010-09-19T07:23:42Z</time>
      </trkpt>
      <trkpt lat="46.40225" lon="5.9654">
        <ele>1175.8295898438</ele>
        <time>2010-09-19T07:23:50Z</time>
      </trkpt>
      <trkpt lat="46.40176" lon="5.96552">
        <ele>1173.9069824219</ele>
        <time>2010-09-19T07:23:56Z</time>
      </trkpt>
      <trkpt lat="46.40167" lon="5.96554">
        <ele>1173.4265136719</ele>
        <time>2010-09-19T07:23:57Z</time>
      </trkpt>
      <trkpt lat="46.4013" lon="5.96572">
        <ele>1171.984375</ele>
        <time>2010-09-19T07:24:01Z</time>
      </trkpt>
      <trkpt lat="46.4011" lon="5.96579">
        <ele>1170.5424804688</ele>
        <time>2010-09-19T07:24:03Z</time>
      </trkpt>
      <trkpt lat="46.40079" lon="5.96581">
        <ele>1168.6198730469</ele>
        <time>2010-09-19T07:24:06Z</time>
      </trkpt>
      <trkpt lat="46.40019" lon="5.9658">
        <ele>1166.2165527344</ele>
        <time>2010-09-19T07:24:12Z</time>
      </trkpt>
      <trkpt lat="46.39971" lon="5.96576">
        <ele>1164.7746582031</ele>
        <time>2010-09-19T07:24:17Z</time>
      </trkpt>
      <trkpt lat="46.39944" lon="5.96588">
        <ele>1163.3325195312</ele>
        <time>2010-09-19T07:24:20Z</time>
      </trkpt>
      <trkpt lat="46.39937" lon="5.96597">
        <ele>1162.37109375</ele>
        <time>2010-09-19T07:24:21Z</time>
      </trkpt>
      <trkpt lat="46.39882" lon="5.96636">
        <ele>1159.9677734375</ele>
        <time>2010-09-19T07:24:27Z</time>
      </trkpt>
      <trkpt lat="46.39864" lon="5.96635">
        <ele>1159.4873046875</ele>
        <time>2010-09-19T07:24:29Z</time>
      </trkpt>
      <trkpt lat="46.3982" lon="5.96626">
        <ele>1159.0065917969</ele>
        <time>2010-09-19T07:24:34Z</time>
      </trkpt>
      <trkpt lat="46.39793" lon="5.9663">
        <ele>1158.5258789062</ele>
        <time>2010-09-19T07:24:38Z</time>
      </trkpt>
      <trkpt lat="46.39784" lon="5.96637">
        <ele>1159.0065917969</ele>
        <time>2010-09-19T07:24:42Z</time>
      </trkpt>
      <trkpt lat="46.39778" lon="5.96639">
        <ele>1158.5258789062</ele>
        <time>2010-09-19T07:24:45Z</time>
      </trkpt>
      <trkpt lat="46.39772" lon="5.96638">
        <ele>1158.5258789062</ele>
        <time>2010-09-19T07:24:50Z</time>
      </trkpt>
      <trkpt lat="46.39772" lon="5.96636">
        <ele>1158.0454101562</ele>
        <time>2010-09-19T07:24:55Z</time>
      </trkpt>
      <trkpt lat="46.39776" lon="5.9663">
        <ele>1157.5646972656</ele>
        <time>2010-09-19T07:26:50Z</time>
      </trkpt>
      <trkpt lat="46.39777" lon="5.96633">
        <ele>1156.6032714844</ele>
        <time>2010-09-19T07:28:46Z</time>
      </trkpt>
      <trkpt lat="46.39777" lon="5.96633">
        <ele>1156.1225585938</ele>
        <time>2010-09-19T07:28:54Z</time>
      </trkpt>
      <trkpt lat="46.3977" lon="5.96644">
        <ele>1157.083984375</ele>
        <time>2010-09-19T07:29:00Z</time>
      </trkpt>
      <trkpt lat="46.39753" lon="5.96657">
        <ele>1157.083984375</ele>
        <time>2010-09-19T07:29:04Z</time>
      </trkpt>
      <trkpt lat="46.39728" lon="5.96668">
        <ele>1158.0454101562</ele>
        <time>2010-09-19T07:29:09Z</time>
      </trkpt>
      <trkpt lat="46.39704" lon="5.9666">
        <ele>1159.0065917969</ele>
        <time>2010-09-19T07:29:13Z</time>
      </trkpt>
      <trkpt lat="46.3969" lon="5.96636">
        <ele>1159.0065917969</ele>
        <time>2010-09-19T07:29:17Z</time>
      </trkpt>
      <trkpt lat="46.39688" lon="5.96629">
        <ele>1159.9677734375</ele>
        <time>2010-09-19T07:29:18Z</time>
      </trkpt>
      <trkpt lat="46.39684" lon="5.96616">
        <ele>1160.4484863281</ele>
        <time>2010-09-19T07:29:20Z</time>
      </trkpt>
      <trkpt lat="46.39665" lon="5.9659">
        <ele>1161.890625</ele>
        <time>2010-09-19T07:29:25Z</time>
      </trkpt>
      <trkpt lat="46.39648" lon="5.9657">
        <ele>1162.37109375</ele>
        <time>2010-09-19T07:29:30Z</time>
      </trkpt>
      <trkpt lat="46.39643" lon="5.96559">
        <ele>1162.37109375</ele>
        <time>2010-09-19T07:29:32Z</time>
      </trkpt>
      <trkpt lat="46.39628" lon="5.96553">
        <ele>1160.4484863281</ele>
        <time>2010-09-19T07:29:35Z</time>
      </trkpt>
      <trkpt lat="46.39621" lon="5.96556">
        <ele>1159.9677734375</ele>
        <time>2010-09-19T07:29:36Z</time>
      </trkpt>
      <trkpt lat="46.39608" lon="5.96566">
        <ele>1158.5258789062</ele>
        <time>2010-09-19T07:29:38Z</time>
      </trkpt>
      <trkpt lat="46.39572" lon="5.96589">
        <ele>1156.6032714844</ele>
        <time>2010-09-19T07:29:43Z</time>
      </trkpt>
      <trkpt lat="46.39537" lon="5.96582">
        <ele>1153.2387695312</ele>
        <time>2010-09-19T07:29:47Z</time>
      </trkpt>
      <trkpt lat="46.39524" lon="5.9656">
        <ele>1152.7580566406</ele>
        <time>2010-09-19T07:29:49Z</time>
      </trkpt>
      <trkpt lat="46.39514" lon="5.96538">
        <ele>1152.27734375</ele>
        <time>2010-09-19T07:29:51Z</time>
      </trkpt>
      <trkpt lat="46.39488" lon="5.96506">
        <ele>1151.796875</ele>
        <time>2010-09-19T07:29:55Z</time>
      </trkpt>
      <trkpt lat="46.39449" lon="5.96458">
        <ele>1150.8354492188</ele>
        <time>2010-09-19T07:30:01Z</time>
      </trkpt>
      <trkpt lat="46.39418" lon="5.96405">
        <ele>1151.3161621094</ele>
        <time>2010-09-19T07:30:07Z</time>
      </trkpt>
      <trkpt lat="46.39415" lon="5.96397">
        <ele>1151.3161621094</ele>
        <time>2010-09-19T07:30:08Z</time>
      </trkpt>
      <trkpt lat="46.39413" lon="5.96373">
        <ele>1152.27734375</ele>
        <time>2010-09-19T07:30:11Z</time>
      </trkpt>
      <trkpt lat="46.39407" lon="5.96351">
        <ele>1151.796875</ele>
        <time>2010-09-19T07:30:14Z</time>
      </trkpt>
      <trkpt lat="46.39392" lon="5.96342">
        <ele>1153.2387695312</ele>
        <time>2010-09-19T07:30:17Z</time>
      </trkpt>
      <trkpt lat="46.39344" lon="5.96331">
        <ele>1155.6420898438</ele>
        <time>2010-09-19T07:30:27Z</time>
      </trkpt>
      <trkpt lat="46.39322" lon="5.96335">
        <ele>1157.083984375</ele>
        <time>2010-09-19T07:30:33Z</time>
      </trkpt>
      <trkpt lat="46.39298" lon="5.96329">
        <ele>1159.4873046875</ele>
        <time>2010-09-19T07:30:40Z</time>
      </trkpt>
      <trkpt lat="46.39268" lon="5.96308">
        <ele>1159.9677734375</ele>
        <time>2010-09-19T07:30:48Z</time>
      </trkpt>
      <trkpt lat="46.39225" lon="5.9628">
        <ele>1160.4484863281</ele>
        <time>2010-09-19T07:30:58Z</time>
      </trkpt>
      <trkpt lat="46.39213" lon="5.96274">
        <ele>1159.0065917969</ele>
        <time>2010-09-19T07:31:00Z</time>
      </trkpt>
      <trkpt lat="46.39186" lon="5.96254">
        <ele>1155.6420898438</ele>
        <time>2010-09-19T07:31:04Z</time>
      </trkpt>
      <trkpt lat="46.39172" lon="5.96239">
        <ele>1152.7580566406</ele>
        <time>2010-09-19T07:31:06Z</time>
      </trkpt>
      <trkpt lat="46.39151" lon="5.96229">
        <ele>1150.8354492188</ele>
        <time>2010-09-19T07:31:10Z</time>
      </trkpt>
      <trkpt lat="46.39138" lon="5.96226">
        <ele>1148.9128417969</ele>
        <time>2010-09-19T07:31:14Z</time>
      </trkpt>
      <trkpt lat="46.39117" lon="5.96212">
        <ele>1149.3935546875</ele>
        <time>2010-09-19T07:31:18Z</time>
      </trkpt>
      <trkpt lat="46.39112" lon="5.96202">
        <ele>1150.3549804688</ele>
        <time>2010-09-19T07:31:21Z</time>
      </trkpt>
      <trkpt lat="46.39099" lon="5.96189">
        <ele>1153.2387695312</ele>
        <time>2010-09-19T07:31:29Z</time>
      </trkpt>
      <trkpt lat="46.39091" lon="5.9618">
        <ele>1154.6806640625</ele>
        <time>2010-09-19T07:31:36Z</time>
      </trkpt>
      <trkpt lat="46.39079" lon="5.96169">
        <ele>1156.1225585938</ele>
        <time>2010-09-19T07:31:43Z</time>
      </trkpt>
      <trkpt lat="46.39067" lon="5.9616">
        <ele>1157.083984375</ele>
        <time>2010-09-19T07:31:49Z</time>
      </trkpt>
      <trkpt lat="46.39054" lon="5.96149">
        <ele>1157.5646972656</ele>
        <time>2010-09-19T07:31:55Z</time>
      </trkpt>
      <trkpt lat="46.39036" lon="5.96135">
        <ele>1157.5646972656</ele>
        <time>2010-09-19T07:32:01Z</time>
      </trkpt>
      <trkpt lat="46.39015" lon="5.96119">
        <ele>1158.5258789062</ele>
        <time>2010-09-19T07:32:08Z</time>
      </trkpt>
      <trkpt lat="46.38999" lon="5.96109">
        <ele>1159.9677734375</ele>
        <time>2010-09-19T07:32:15Z</time>
      </trkpt>
      <trkpt lat="46.38983" lon="5.96104">
        <ele>1159.9677734375</ele>
        <time>2010-09-19T07:32:20Z</time>
      </trkpt>
      <trkpt lat="46.38962" lon="5.96103">
        <ele>1159.4873046875</ele>
        <time>2010-09-19T07:32:25Z</time>
      </trkpt>
      <trkpt lat="46.38935" lon="5.96088">
        <ele>1161.4099121094</ele>
        <time>2010-09-19T07:32:33Z</time>
      </trkpt>
      <trkpt lat="46.38915" lon="5.96095">
        <ele>1161.890625</ele>
        <time>2010-09-19T07:32:39Z</time>
      </trkpt>
      <trkpt lat="46.389" lon="5.96106">
        <ele>1160.9291992188</ele>
        <time>2010-09-19T07:32:43Z</time>
      </trkpt>
      <trkpt lat="46.38882" lon="5.96136">
        <ele>1158.5258789062</ele>
        <time>2010-09-19T07:32:48Z</time>
      </trkpt>
      <trkpt lat="46.38871" lon="5.96162">
        <ele>1156.1225585938</ele>
        <time>2010-09-19T07:32:51Z</time>
      </trkpt>
      <trkpt lat="46.3885" lon="5.96195">
        <ele>1156.6032714844</ele>
        <time>2010-09-19T07:32:56Z</time>
      </trkpt>
      <trkpt lat="46.38844" lon="5.96205">
        <ele>1157.083984375</ele>
        <time>2010-09-19T07:33:00Z</time>
      </trkpt>
      <trkpt lat="46.38834" lon="5.96216">
        <ele>1159.9677734375</ele>
        <time>2010-09-19T07:33:08Z</time>
      </trkpt>
      <trkpt lat="46.38826" lon="5.96234">
        <ele>1160.9291992188</ele>
        <time>2010-09-19T07:33:16Z</time>
      </trkpt>
      <trkpt lat="46.38824" lon="5.96249">
        <ele>1161.890625</ele>
        <time>2010-09-19T07:33:22Z</time>
      </trkpt>
      <trkpt lat="46.38814" lon="5.96272">
        <ele>1163.8129882812</ele>
        <time>2010-09-19T07:33:31Z</time>
      </trkpt>
      <trkpt lat="46.38807" lon="5.96292">
        <ele>1165.2553710938</ele>
        <time>2010-09-19T07:33:39Z</time>
      </trkpt>
      <trkpt lat="46.38799" lon="5.96312">
        <ele>1166.2165527344</ele>
        <time>2010-09-19T07:33:47Z</time>
      </trkpt>
      <trkpt lat="46.38792" lon="5.96336">
        <ele>1166.2165527344</ele>
        <time>2010-09-19T07:33:55Z</time>
      </trkpt>
      <trkpt lat="46.38787" lon="5.96365">
        <ele>1167.1779785156</ele>
        <time>2010-09-19T07:34:02Z</time>
      </trkpt>
      <trkpt lat="46.38781" lon="5.96399">
        <ele>1167.1779785156</ele>
        <time>2010-09-19T07:34:09Z</time>
      </trkpt>
      <trkpt lat="46.38766" lon="5.96432">
        <ele>1167.6584472656</ele>
        <time>2010-09-19T07:34:17Z</time>
      </trkpt>
      <trkpt lat="46.38754" lon="5.9646">
        <ele>1167.6584472656</ele>
        <time>2010-09-19T07:34:24Z</time>
      </trkpt>
      <trkpt lat="46.38745" lon="5.96493">
        <ele>1168.1391601562</ele>
        <time>2010-09-19T07:34:31Z</time>
      </trkpt>
      <trkpt lat="46.38746" lon="5.96516">
        <ele>1169.1005859375</ele>
        <time>2010-09-19T07:34:36Z</time>
      </trkpt>
      <trkpt lat="46.38757" lon="5.96529">
        <ele>1170.5424804688</ele>
        <time>2010-09-19T07:34:41Z</time>
      </trkpt>
      <trkpt lat="46.38775" lon="5.96541">
        <ele>1172.9458007812</ele>
        <time>2010-09-19T07:34:50Z</time>
      </trkpt>
      <trkpt lat="46.38787" lon="5.96556">
        <ele>1174.8684082031</ele>
        <time>2010-09-19T07:34:59Z</time>
      </trkpt>
      <trkpt lat="46.38792" lon="5.96573">
        <ele>1176.791015625</ele>
        <time>2010-09-19T07:35:06Z</time>
      </trkpt>
      <trkpt lat="46.38801" lon="5.96598">
        <ele>1179.1940917969</ele>
        <time>2010-09-19T07:35:16Z</time>
      </trkpt>
      <trkpt lat="46.3881" lon="5.96615">
        <ele>1181.1171875</ele>
        <time>2010-09-19T07:35:25Z</time>
      </trkpt>
      <trkpt lat="46.38823" lon="5.9663">
        <ele>1183.0395507812</ele>
        <time>2010-09-19T07:35:35Z</time>
      </trkpt>
      <trkpt lat="46.38834" lon="5.96643">
        <ele>1185.9235839844</ele>
        <time>2010-09-19T07:35:43Z</time>
      </trkpt>
      <trkpt lat="46.3884" lon="5.96661">
        <ele>1187.8461914062</ele>
        <time>2010-09-19T07:35:51Z</time>
      </trkpt>
      <trkpt lat="46.38842" lon="5.96681">
        <ele>1188.3269042969</ele>
        <time>2010-09-19T07:35:57Z</time>
      </trkpt>
      <trkpt lat="46.38846" lon="5.96712">
        <ele>1188.8076171875</ele>
        <time>2010-09-19T07:36:05Z</time>
      </trkpt>
      <trkpt lat="46.38852" lon="5.96737">
        <ele>1188.8076171875</ele>
        <time>2010-09-19T07:36:11Z</time>
      </trkpt>
      <trkpt lat="46.3886" lon="5.96772">
        <ele>1188.8076171875</ele>
        <time>2010-09-19T07:36:18Z</time>
      </trkpt>
      <trkpt lat="46.38871" lon="5.96808">
        <ele>1187.8461914062</ele>
        <time>2010-09-19T07:36:24Z</time>
      </trkpt>
      <trkpt lat="46.38877" lon="5.96823">
        <ele>1186.884765625</ele>
        <time>2010-09-19T07:36:26Z</time>
      </trkpt>
      <trkpt lat="46.38881" lon="5.96831">
        <ele>1187.3654785156</ele>
        <time>2010-09-19T07:36:27Z</time>
      </trkpt>
      <trkpt lat="46.38892" lon="5.96849">
        <ele>1186.884765625</ele>
        <time>2010-09-19T07:36:30Z</time>
      </trkpt>
      <trkpt lat="46.38902" lon="5.96862">
        <ele>1186.404296875</ele>
        <time>2010-09-19T07:36:34Z</time>
      </trkpt>
      <trkpt lat="46.38892" lon="5.96866">
        <ele>1184.4816894531</ele>
        <time>2010-09-19T07:36:37Z</time>
      </trkpt>
      <trkpt lat="46.38879" lon="5.96861">
        <ele>1181.59765625</ele>
        <time>2010-09-19T07:36:40Z</time>
      </trkpt>
      <trkpt lat="46.38861" lon="5.96853">
        <ele>1177.2717285156</ele>
        <time>2010-09-19T07:36:44Z</time>
      </trkpt>
      <trkpt lat="46.38842" lon="5.96846">
        <ele>1173.9069824219</ele>
        <time>2010-09-19T07:36:48Z</time>
      </trkpt>
      <trkpt lat="46.38828" lon="5.96843">
        <ele>1170.5424804688</ele>
        <time>2010-09-19T07:36:51Z</time>
      </trkpt>
      <trkpt lat="46.38819" lon="5.9684">
        <ele>1168.6198730469</ele>
        <time>2010-09-19T07:36:53Z</time>
      </trkpt>
      <trkpt lat="46.38796" lon="5.96831">
        <ele>1164.2939453125</ele>
        <time>2010-09-19T07:36:59Z</time>
      </trkpt>
      <trkpt lat="46.38792" lon="5.96831">
        <ele>1164.2939453125</ele>
        <time>2010-09-19T07:37:00Z</time>
      </trkpt>
      <trkpt lat="46.38778" lon="5.9684">
        <ele>1160.4484863281</ele>
        <time>2010-09-19T07:37:04Z</time>
      </trkpt>
      <trkpt lat="46.38779" lon="5.96861">
        <ele>1155.6420898438</ele>
        <time>2010-09-19T07:37:09Z</time>
      </trkpt>
      <trkpt lat="46.38782" lon="5.96866">
        <ele>1155.1613769531</ele>
        <time>2010-09-19T07:37:10Z</time>
      </trkpt>
      <trkpt lat="46.38794" lon="5.9688">
        <ele>1152.27734375</ele>
        <time>2010-09-19T07:37:13Z</time>
      </trkpt>
      <trkpt lat="46.38802" lon="5.9689">
        <ele>1151.3161621094</ele>
        <time>2010-09-19T07:37:15Z</time>
      </trkpt>
      <trkpt lat="46.38809" lon="5.96899">
        <ele>1150.8354492188</ele>
        <time>2010-09-19T07:37:17Z</time>
      </trkpt>
      <trkpt lat="46.38809" lon="5.96915">
        <ele>1149.8742675781</ele>
        <time>2010-09-19T07:37:21Z</time>
      </trkpt>
      <trkpt lat="46.38802" lon="5.96922">
        <ele>1149.8742675781</ele>
        <time>2010-09-19T07:37:25Z</time>
      </trkpt>
      <trkpt lat="46.38794" lon="5.96921">
        <ele>1149.8742675781</ele>
        <time>2010-09-19T07:37:30Z</time>
      </trkpt>
      <trkpt lat="46.3879" lon="5.96921">
        <ele>1150.3549804688</ele>
        <time>2010-09-19T07:37:33Z</time>
      </trkpt>
      <trkpt lat="46.38781" lon="5.96925">
        <ele>1152.7580566406</ele>
        <time>2010-09-19T07:37:40Z</time>
      </trkpt>
      <trkpt lat="46.3877" lon="5.96937">
        <ele>1153.7194824219</ele>
        <time>2010-09-19T07:37:48Z</time>
      </trkpt>
      <trkpt lat="46.38766" lon="5.96945">
        <ele>1154.2001953125</ele>
        <time>2010-09-19T07:37:54Z</time>
      </trkpt>
      <trkpt lat="46.38763" lon="5.9695">
        <ele>1155.1613769531</ele>
        <time>2010-09-19T07:37:59Z</time>
      </trkpt>
      <trkpt lat="46.38761" lon="5.96956">
        <ele>1157.5646972656</ele>
        <time>2010-09-19T07:38:06Z</time>
      </trkpt>
      <trkpt lat="46.38762" lon="5.96963">
        <ele>1159.0065917969</ele>
        <time>2010-09-19T07:38:13Z</time>
      </trkpt>
      <trkpt lat="46.38765" lon="5.96967">
        <ele>1160.4484863281</ele>
        <time>2010-09-19T07:38:21Z</time>
      </trkpt>
      <trkpt lat="46.38768" lon="5.96971">
        <ele>1161.4099121094</ele>
        <time>2010-09-19T07:38:29Z</time>
      </trkpt>
      <trkpt lat="46.38774" lon="5.96975">
        <ele>1162.37109375</ele>
        <time>2010-09-19T07:38:38Z</time>
      </trkpt>
      <trkpt lat="46.38779" lon="5.96978">
        <ele>1164.2939453125</ele>
        <time>2010-09-19T07:38:45Z</time>
      </trkpt>
      <trkpt lat="46.38786" lon="5.96985">
        <ele>1165.7360839844</ele>
        <time>2010-09-19T07:38:53Z</time>
      </trkpt>
      <trkpt lat="46.38787" lon="5.96987">
        <ele>1166.697265625</ele>
        <time>2010-09-19T07:38:55Z</time>
      </trkpt>
      <trkpt lat="46.38789" lon="5.96992">
        <ele>1166.697265625</ele>
        <time>2010-09-19T07:38:59Z</time>
      </trkpt>
      <trkpt lat="46.38792" lon="5.97008">
        <ele>1168.6198730469</ele>
        <time>2010-09-19T07:39:08Z</time>
      </trkpt>
      <trkpt lat="46.38789" lon="5.97018">
        <ele>1169.5812988281</ele>
        <time>2010-09-19T07:39:17Z</time>
      </trkpt>
      <trkpt lat="46.38788" lon="5.97024">
        <ele>1171.0231933594</ele>
        <time>2010-09-19T07:39:26Z</time>
      </trkpt>
      <trkpt lat="46.38781" lon="5.97037">
        <ele>1171.5036621094</ele>
        <time>2010-09-19T07:39:32Z</time>
      </trkpt>
      <trkpt lat="46.38779" lon="5.9705">
        <ele>1172.4650878906</ele>
        <time>2010-09-19T07:39:38Z</time>
      </trkpt>
      <trkpt lat="46.38777" lon="5.97064">
        <ele>1173.9069824219</ele>
        <time>2010-09-19T07:39:44Z</time>
      </trkpt>
      <trkpt lat="46.38767" lon="5.97087">
        <ele>1172.9458007812</ele>
        <time>2010-09-19T07:39:50Z</time>
      </trkpt>
      <trkpt lat="46.38755" lon="5.97101">
        <ele>1172.4650878906</ele>
        <time>2010-09-19T07:39:54Z</time>
      </trkpt>
      <trkpt lat="46.38747" lon="5.9712">
        <ele>1172.4650878906</ele>
        <time>2010-09-19T07:39:58Z</time>
      </trkpt>
      <trkpt lat="46.38748" lon="5.97145">
        <ele>1172.4650878906</ele>
        <time>2010-09-19T07:40:03Z</time>
      </trkpt>
      <trkpt lat="46.38759" lon="5.97179">
        <ele>1173.4265136719</ele>
        <time>2010-09-19T07:40:11Z</time>
      </trkpt>
      <trkpt lat="46.38772" lon="5.97204">
        <ele>1174.3876953125</ele>
        <time>2010-09-19T07:40:19Z</time>
      </trkpt>
      <trkpt lat="46.38781" lon="5.97222">
        <ele>1176.3103027344</ele>
        <time>2010-09-19T07:40:26Z</time>
      </trkpt>
      <trkpt lat="46.38792" lon="5.97239">
        <ele>1178.2329101562</ele>
        <time>2010-09-19T07:40:34Z</time>
      </trkpt>
      <trkpt lat="46.38802" lon="5.97256">
        <ele>1179.6748046875</ele>
        <time>2010-09-19T07:40:42Z</time>
      </trkpt>
      <trkpt lat="46.38808" lon="5.97271">
        <ele>1181.59765625</ele>
        <time>2010-09-19T07:40:49Z</time>
      </trkpt>
      <trkpt lat="46.38816" lon="5.97288">
        <ele>1182.5590820312</ele>
        <time>2010-09-19T07:40:56Z</time>
      </trkpt>
      <trkpt lat="46.38825" lon="5.97305">
        <ele>1184.9624023438</ele>
        <time>2010-09-19T07:41:04Z</time>
      </trkpt>
      <trkpt lat="46.38834" lon="5.97321">
        <ele>1186.404296875</ele>
        <time>2010-09-19T07:41:12Z</time>
      </trkpt>
      <trkpt lat="46.38842" lon="5.97334">
        <ele>1188.8076171875</ele>
        <time>2010-09-19T07:41:18Z</time>
      </trkpt>
      <trkpt lat="46.38851" lon="5.97352">
        <ele>1189.7687988281</ele>
        <time>2010-09-19T07:41:25Z</time>
      </trkpt>
      <trkpt lat="46.38863" lon="5.97373">
        <ele>1191.2106933594</ele>
        <time>2010-09-19T07:41:33Z</time>
      </trkpt>
      <trkpt lat="46.38873" lon="5.97392">
        <ele>1192.6528320312</ele>
        <time>2010-09-19T07:41:40Z</time>
      </trkpt>
      <trkpt lat="46.38884" lon="5.97412">
        <ele>1193.1333007812</ele>
        <time>2010-09-19T07:41:47Z</time>
      </trkpt>
      <trkpt lat="46.38892" lon="5.97424">
        <ele>1194.0947265625</ele>
        <time>2010-09-19T07:41:52Z</time>
      </trkpt>
      <trkpt lat="46.38905" lon="5.97444">
        <ele>1196.017578125</ele>
        <time>2010-09-19T07:42:00Z</time>
      </trkpt>
      <trkpt lat="46.38915" lon="5.97462">
        <ele>1197.4594726562</ele>
        <time>2010-09-19T07:42:07Z</time>
      </trkpt>
      <trkpt lat="46.38924" lon="5.97474">
        <ele>1198.4206542969</ele>
        <time>2010-09-19T07:42:13Z</time>
      </trkpt>
      <trkpt lat="46.38933" lon="5.97494">
        <ele>1200.3435058594</ele>
        <time>2010-09-19T07:42:20Z</time>
      </trkpt>
      <trkpt lat="46.3894" lon="5.97518">
        <ele>1201.3046875</ele>
        <time>2010-09-19T07:42:27Z</time>
      </trkpt>
      <trkpt lat="46.38942" lon="5.97537">
        <ele>1201.7854003906</ele>
        <time>2010-09-19T07:42:32Z</time>
      </trkpt>
      <trkpt lat="46.38945" lon="5.97564">
        <ele>1202.7465820312</ele>
        <time>2010-09-19T07:42:39Z</time>
      </trkpt>
      <trkpt lat="46.3895" lon="5.97595">
        <ele>1203.7080078125</ele>
        <time>2010-09-19T07:42:46Z</time>
      </trkpt>
      <trkpt lat="46.38957" lon="5.97627">
        <ele>1203.7080078125</ele>
        <time>2010-09-19T07:42:53Z</time>
      </trkpt>
      <trkpt lat="46.38969" lon="5.97662">
        <ele>1203.2272949219</ele>
        <time>2010-09-19T07:43:01Z</time>
      </trkpt>
      <trkpt lat="46.38981" lon="5.97699">
        <ele>1203.7080078125</ele>
        <time>2010-09-19T07:43:09Z</time>
      </trkpt>
      <trkpt lat="46.38995" lon="5.97741">
        <ele>1203.7080078125</ele>
        <time>2010-09-19T07:43:18Z</time>
      </trkpt>
      <trkpt lat="46.39009" lon="5.97778">
        <ele>1204.1887207031</ele>
        <time>2010-09-19T07:43:26Z</time>
      </trkpt>
      <trkpt lat="46.39024" lon="5.97809">
        <ele>1205.1499023438</ele>
        <time>2010-09-19T07:43:34Z</time>
      </trkpt>
      <trkpt lat="46.39037" lon="5.97824">
        <ele>1206.591796875</ele>
        <time>2010-09-19T07:43:41Z</time>
      </trkpt>
      <trkpt lat="46.39055" lon="5.97845">
        <ele>1208.5144042969</ele>
        <time>2010-09-19T07:43:50Z</time>
      </trkpt>
      <trkpt lat="46.39064" lon="5.97858">
        <ele>1208.9951171875</ele>
        <time>2010-09-19T07:43:56Z</time>
      </trkpt>
      <trkpt lat="46.39068" lon="5.97862">
        <ele>1209.4758300781</ele>
        <time>2010-09-19T07:43:58Z</time>
      </trkpt>
      <trkpt lat="46.39078" lon="5.97881">
        <ele>1211.8791503906</ele>
        <time>2010-09-19T07:44:06Z</time>
      </trkpt>
      <trkpt lat="46.39087" lon="5.97902">
        <ele>1212.8405761719</ele>
        <time>2010-09-19T07:44:13Z</time>
      </trkpt>
      <trkpt lat="46.39096" lon="5.97924">
        <ele>1214.7631835938</ele>
        <time>2010-09-19T07:44:20Z</time>
      </trkpt>
      <trkpt lat="46.391" lon="5.97949">
        <ele>1214.7631835938</ele>
        <time>2010-09-19T07:44:26Z</time>
      </trkpt>
      <trkpt lat="46.39103" lon="5.97966">
        <ele>1215.2438964844</ele>
        <time>2010-09-19T07:44:30Z</time>
      </trkpt>
      <trkpt lat="46.39109" lon="5.97985">
        <ele>1216.205078125</ele>
        <time>2010-09-19T07:44:36Z</time>
      </trkpt>
      <trkpt lat="46.3912" lon="5.98001">
        <ele>1215.724609375</ele>
        <time>2010-09-19T07:44:41Z</time>
      </trkpt>
      <trkpt lat="46.39128" lon="5.9801">
        <ele>1216.205078125</ele>
        <time>2010-09-19T07:44:45Z</time>
      </trkpt>
      <trkpt lat="46.39139" lon="5.98025">
        <ele>1217.1665039062</ele>
        <time>2010-09-19T07:44:50Z</time>
      </trkpt>
      <trkpt lat="46.39152" lon="5.98047">
        <ele>1217.6469726562</ele>
        <time>2010-09-19T07:44:56Z</time>
      </trkpt>
      <trkpt lat="46.39163" lon="5.98067">
        <ele>1218.6083984375</ele>
        <time>2010-09-19T07:45:02Z</time>
      </trkpt>
      <trkpt lat="46.39176" lon="5.98089">
        <ele>1218.6083984375</ele>
        <time>2010-09-19T07:45:07Z</time>
      </trkpt>
      <trkpt lat="46.39191" lon="5.9811">
        <ele>1218.6083984375</ele>
        <time>2010-09-19T07:45:12Z</time>
      </trkpt>
      <trkpt lat="46.39207" lon="5.98137">
        <ele>1218.6083984375</ele>
        <time>2010-09-19T07:45:18Z</time>
      </trkpt>
      <trkpt lat="46.39219" lon="5.98153">
        <ele>1217.6469726562</ele>
        <time>2010-09-19T07:45:22Z</time>
      </trkpt>
      <trkpt lat="46.39235" lon="5.98177">
        <ele>1217.1665039062</ele>
        <time>2010-09-19T07:45:26Z</time>
      </trkpt>
      <trkpt lat="46.39253" lon="5.98204">
        <ele>1215.724609375</ele>
        <time>2010-09-19T07:45:31Z</time>
      </trkpt>
      <trkpt lat="46.39262" lon="5.98214">
        <ele>1215.724609375</ele>
        <time>2010-09-19T07:45:33Z</time>
      </trkpt>
      <trkpt lat="46.39272" lon="5.98233">
        <ele>1214.7631835938</ele>
        <time>2010-09-19T07:45:36Z</time>
      </trkpt>
      <trkpt lat="46.39283" lon="5.98249">
        <ele>1214.2824707031</ele>
        <time>2010-09-19T07:45:39Z</time>
      </trkpt>
      <trkpt lat="46.39303" lon="5.98273">
        <ele>1213.3212890625</ele>
        <time>2010-09-19T07:45:44Z</time>
      </trkpt>
      <trkpt lat="46.39321" lon="5.98292">
        <ele>1211.8791503906</ele>
        <time>2010-09-19T07:45:49Z</time>
      </trkpt>
      <trkpt lat="46.39341" lon="5.98315">
        <ele>1208.5144042969</ele>
        <time>2010-09-19T07:45:54Z</time>
      </trkpt>
      <trkpt lat="46.39353" lon="5.98334">
        <ele>1207.5532226562</ele>
        <time>2010-09-19T07:45:57Z</time>
      </trkpt>
      <trkpt lat="46.39365" lon="5.98347">
        <ele>1206.591796875</ele>
        <time>2010-09-19T07:46:00Z</time>
      </trkpt>
      <trkpt lat="46.39371" lon="5.98351">
        <ele>1205.6306152344</ele>
        <time>2010-09-19T07:46:03Z</time>
      </trkpt>
      <trkpt lat="46.39375" lon="5.98353">
        <ele>1205.1499023438</ele>
        <time>2010-09-19T07:46:08Z</time>
      </trkpt>
      <trkpt lat="46.39379" lon="5.98356">
        <ele>1205.6306152344</ele>
        <time>2010-09-19T07:46:13Z</time>
      </trkpt>
      <trkpt lat="46.39387" lon="5.98368">
        <ele>1205.6306152344</ele>
        <time>2010-09-19T07:46:18Z</time>
      </trkpt>
      <trkpt lat="46.39398" lon="5.98379">
        <ele>1205.6306152344</ele>
        <time>2010-09-19T07:46:22Z</time>
      </trkpt>
      <trkpt lat="46.39421" lon="5.98412">
        <ele>1206.1110839844</ele>
        <time>2010-09-19T07:46:29Z</time>
      </trkpt>
      <trkpt lat="46.39436" lon="5.98437">
        <ele>1207.0725097656</ele>
        <time>2010-09-19T07:46:35Z</time>
      </trkpt>
      <trkpt lat="46.39457" lon="5.98469">
        <ele>1208.5144042969</ele>
        <time>2010-09-19T07:46:45Z</time>
      </trkpt>
      <trkpt lat="46.39476" lon="5.98496">
        <ele>1209.9562988281</ele>
        <time>2010-09-19T07:46:54Z</time>
      </trkpt>
      <trkpt lat="46.3949" lon="5.98515">
        <ele>1211.3984375</ele>
        <time>2010-09-19T07:47:01Z</time>
      </trkpt>
      <trkpt lat="46.39503" lon="5.98532">
        <ele>1211.8791503906</ele>
        <time>2010-09-19T07:47:08Z</time>
      </trkpt>
      <trkpt lat="46.39513" lon="5.9855">
        <ele>1212.8405761719</ele>
        <time>2010-09-19T07:47:15Z</time>
      </trkpt>
      <trkpt lat="46.39522" lon="5.98565">
        <ele>1213.3212890625</ele>
        <time>2010-09-19T07:47:20Z</time>
      </trkpt>
      <trkpt lat="46.39538" lon="5.98593">
        <ele>1213.3212890625</ele>
        <time>2010-09-19T07:47:29Z</time>
      </trkpt>
      <trkpt lat="46.39553" lon="5.98616">
        <ele>1213.8017578125</ele>
        <time>2010-09-19T07:47:37Z</time>
      </trkpt>
      <trkpt lat="46.39566" lon="5.98638">
        <ele>1213.8017578125</ele>
        <time>2010-09-19T07:47:44Z</time>
      </trkpt>
      <trkpt lat="46.39581" lon="5.9866">
        <ele>1214.2824707031</ele>
        <time>2010-09-19T07:47:52Z</time>
      </trkpt>
      <trkpt lat="46.39593" lon="5.9868">
        <ele>1216.205078125</ele>
        <time>2010-09-19T07:48:00Z</time>
      </trkpt>
      <trkpt lat="46.39606" lon="5.98702">
        <ele>1217.1665039062</ele>
        <time>2010-09-19T07:48:09Z</time>
      </trkpt>
      <trkpt lat="46.39608" lon="5.98703">
        <ele>1216.6857910156</ele>
        <time>2010-09-19T07:48:10Z</time>
      </trkpt>
      <trkpt lat="46.39611" lon="5.9872">
        <ele>1217.6469726562</ele>
        <time>2010-09-19T07:48:15Z</time>
      </trkpt>
      <trkpt lat="46.39613" lon="5.98722">
        <ele>1218.1276855469</ele>
        <time>2010-09-19T07:48:16Z</time>
      </trkpt>
      <trkpt lat="46.39626" lon="5.98749">
        <ele>1219.0891113281</ele>
        <time>2010-09-19T07:48:25Z</time>
      </trkpt>
      <trkpt lat="46.39637" lon="5.98771">
        <ele>1220.0502929688</ele>
        <time>2010-09-19T07:48:34Z</time>
      </trkpt>
      <trkpt lat="46.39644" lon="5.98784">
        <ele>1220.5310058594</ele>
        <time>2010-09-19T07:48:40Z</time>
      </trkpt>
      <trkpt lat="46.39648" lon="5.98793">
        <ele>1221.01171875</ele>
        <time>2010-09-19T07:48:44Z</time>
      </trkpt>
      <trkpt lat="46.39657" lon="5.98803">
        <ele>1221.4921875</ele>
        <time>2010-09-19T07:48:51Z</time>
      </trkpt>
      <trkpt lat="46.39667" lon="5.98816">
        <ele>1222.9343261719</ele>
        <time>2010-09-19T07:48:58Z</time>
      </trkpt>
      <trkpt lat="46.39679" lon="5.98833">
        <ele>1224.3762207031</ele>
        <time>2010-09-19T07:49:07Z</time>
      </trkpt>
      <trkpt lat="46.39687" lon="5.98845">
        <ele>1225.8181152344</ele>
        <time>2010-09-19T07:49:14Z</time>
      </trkpt>
      <trkpt lat="46.39694" lon="5.98858">
        <ele>1226.7795410156</ele>
        <time>2010-09-19T07:49:22Z</time>
      </trkpt>
      <trkpt lat="46.39701" lon="5.9887">
        <ele>1228.2216796875</ele>
        <time>2010-09-19T07:49:30Z</time>
      </trkpt>
      <trkpt lat="46.3971" lon="5.98885">
        <ele>1230.1442871094</ele>
        <time>2010-09-19T07:49:38Z</time>
      </trkpt>
      <trkpt lat="46.39721" lon="5.98899">
        <ele>1231.5861816406</ele>
        <time>2010-09-19T07:49:47Z</time>
      </trkpt>
      <trkpt lat="46.39732" lon="5.98921">
        <ele>1233.0280761719</ele>
        <time>2010-09-19T07:49:56Z</time>
      </trkpt>
      <trkpt lat="46.39743" lon="5.9894">
        <ele>1234.4702148438</ele>
        <time>2010-09-19T07:50:05Z</time>
      </trkpt>
      <trkpt lat="46.39751" lon="5.98953">
        <ele>1235.4313964844</ele>
        <time>2010-09-19T07:50:12Z</time>
      </trkpt>
      <trkpt lat="46.39762" lon="5.98975">
        <ele>1236.3928222656</ele>
        <time>2010-09-19T07:50:21Z</time>
      </trkpt>
      <trkpt lat="46.39774" lon="5.98996">
        <ele>1236.3928222656</ele>
        <time>2010-09-19T07:50:28Z</time>
      </trkpt>
      <trkpt lat="46.39789" lon="5.99024">
        <ele>1235.912109375</ele>
        <time>2010-09-19T07:50:35Z</time>
      </trkpt>
      <trkpt lat="46.39806" lon="5.99059">
        <ele>1236.8732910156</ele>
        <time>2010-09-19T07:50:44Z</time>
      </trkpt>
      <trkpt lat="46.39817" lon="5.99085">
        <ele>1237.8347167969</ele>
        <time>2010-09-19T07:50:52Z</time>
      </trkpt>
      <trkpt lat="46.39833" lon="5.9912">
        <ele>1238.3154296875</ele>
        <time>2010-09-19T07:51:02Z</time>
      </trkpt>
      <trkpt lat="46.39851" lon="5.99152">
        <ele>1237.8347167969</ele>
        <time>2010-09-19T07:51:10Z</time>
      </trkpt>
      <trkpt lat="46.39865" lon="5.99178">
        <ele>1237.3540039062</ele>
        <time>2010-09-19T07:51:17Z</time>
      </trkpt>
      <trkpt lat="46.3988" lon="5.99205">
        <ele>1236.8732910156</ele>
        <time>2010-09-19T07:51:24Z</time>
      </trkpt>
      <trkpt lat="46.39903" lon="5.99241">
        <ele>1236.3928222656</ele>
        <time>2010-09-19T07:51:33Z</time>
      </trkpt>
      <trkpt lat="46.3992" lon="5.99263">
        <ele>1233.9895019531</ele>
        <time>2010-09-19T07:51:38Z</time>
      </trkpt>
      <trkpt lat="46.39933" lon="5.99276">
        <ele>1233.9895019531</ele>
        <time>2010-09-19T07:51:41Z</time>
      </trkpt>
      <trkpt lat="46.39954" lon="5.9928">
        <ele>1233.9895019531</ele>
        <time>2010-09-19T07:51:46Z</time>
      </trkpt>
      <trkpt lat="46.39963" lon="5.99276">
        <ele>1236.3928222656</ele>
        <time>2010-09-19T07:51:51Z</time>
      </trkpt>
      <trkpt lat="46.39973" lon="5.99276">
        <ele>1237.3540039062</ele>
        <time>2010-09-19T07:51:58Z</time>
      </trkpt>
      <trkpt lat="46.39973" lon="5.99287">
        <ele>1236.8732910156</ele>
        <time>2010-09-19T07:52:01Z</time>
      </trkpt>
      <trkpt lat="46.39969" lon="5.99313">
        <ele>1238.3154296875</ele>
        <time>2010-09-19T07:52:10Z</time>
      </trkpt>
      <trkpt lat="46.39972" lon="5.99342">
        <ele>1239.7573242188</ele>
        <time>2010-09-19T07:52:19Z</time>
      </trkpt>
      <trkpt lat="46.39979" lon="5.99369">
        <ele>1240.7185058594</ele>
        <time>2010-09-19T07:52:28Z</time>
      </trkpt>
      <trkpt lat="46.39991" lon="5.99397">
        <ele>1242.6413574219</ele>
        <time>2010-09-19T07:52:38Z</time>
      </trkpt>
      <trkpt lat="46.40004" lon="5.99418">
        <ele>1243.6025390625</ele>
        <time>2010-09-19T07:52:47Z</time>
      </trkpt>
      <trkpt lat="46.40015" lon="5.99424">
        <ele>1245.0446777344</ele>
        <time>2010-09-19T07:52:54Z</time>
      </trkpt>
      <trkpt lat="46.40028" lon="5.99434">
        <ele>1246.4868164062</ele>
        <time>2010-09-19T07:53:02Z</time>
      </trkpt>
      <trkpt lat="46.40038" lon="5.99445">
        <ele>1247.9287109375</ele>
        <time>2010-09-19T07:53:09Z</time>
      </trkpt>
      <trkpt lat="46.40045" lon="5.99458">
        <ele>1249.3706054688</ele>
        <time>2010-09-19T07:53:16Z</time>
      </trkpt>
      <trkpt lat="46.40055" lon="5.99475">
        <ele>1250.33203125</ele>
        <time>2010-09-19T07:53:25Z</time>
      </trkpt>
      <trkpt lat="46.40068" lon="5.99493">
        <ele>1251.7739257812</ele>
        <time>2010-09-19T07:53:35Z</time>
      </trkpt>
      <trkpt lat="46.4008" lon="5.99507">
        <ele>1253.6965332031</ele>
        <time>2010-09-19T07:53:43Z</time>
      </trkpt>
      <trkpt lat="46.40092" lon="5.99515">
        <ele>1254.1772460938</ele>
        <time>2010-09-19T07:53:49Z</time>
      </trkpt>
      <trkpt lat="46.40107" lon="5.99521">
        <ele>1254.6577148438</ele>
        <time>2010-09-19T07:53:57Z</time>
      </trkpt>
      <trkpt lat="46.4012" lon="5.99526">
        <ele>1255.619140625</ele>
        <time>2010-09-19T07:54:04Z</time>
      </trkpt>
      <trkpt lat="46.40137" lon="5.99537">
        <ele>1256.5803222656</ele>
        <time>2010-09-19T07:54:14Z</time>
      </trkpt>
      <trkpt lat="46.40151" lon="5.99544">
        <ele>1257.5417480469</ele>
        <time>2010-09-19T07:54:22Z</time>
      </trkpt>
      <trkpt lat="46.40157" lon="5.99548">
        <ele>1258.5029296875</ele>
        <time>2010-09-19T07:54:26Z</time>
      </trkpt>
      <trkpt lat="46.40172" lon="5.99558">
        <ele>1260.42578125</ele>
        <time>2010-09-19T07:54:36Z</time>
      </trkpt>
      <trkpt lat="46.40183" lon="5.99564">
        <ele>1263.3098144531</ele>
        <time>2010-09-19T07:54:44Z</time>
      </trkpt>
      <trkpt lat="46.40184" lon="5.99565">
        <ele>1263.3098144531</ele>
        <time>2010-09-19T07:54:45Z</time>
      </trkpt>
      <trkpt lat="46.40201" lon="5.99576">
        <ele>1264.7517089844</ele>
        <time>2010-09-19T07:54:57Z</time>
      </trkpt>
      <trkpt lat="46.40213" lon="5.99584">
        <ele>1266.1936035156</ele>
        <time>2010-09-19T07:55:06Z</time>
      </trkpt>
      <trkpt lat="46.40226" lon="5.99592">
        <ele>1266.6743164062</ele>
        <time>2010-09-19T07:55:13Z</time>
      </trkpt>
      <trkpt lat="46.40244" lon="5.99592">
        <ele>1268.5969238281</ele>
        <time>2010-09-19T07:55:21Z</time>
      </trkpt>
      <trkpt lat="46.40264" lon="5.99597">
        <ele>1269.0776367188</ele>
        <time>2010-09-19T07:55:30Z</time>
      </trkpt>
      <trkpt lat="46.4028" lon="5.99608">
        <ele>1270.0388183594</ele>
        <time>2010-09-19T07:55:38Z</time>
      </trkpt>
      <trkpt lat="46.40298" lon="5.99626">
        <ele>1271.0002441406</ele>
        <time>2010-09-19T07:55:48Z</time>
      </trkpt>
      <trkpt lat="46.40316" lon="5.9964">
        <ele>1270.51953125</ele>
        <time>2010-09-19T07:55:55Z</time>
      </trkpt>
      <trkpt lat="46.40335" lon="5.99659">
        <ele>1270.51953125</ele>
        <time>2010-09-19T07:56:03Z</time>
      </trkpt>
      <trkpt lat="46.40349" lon="5.99673">
        <ele>1270.0388183594</ele>
        <time>2010-09-19T07:56:10Z</time>
      </trkpt>
      <trkpt lat="46.40366" lon="5.99685">
        <ele>1270.0388183594</ele>
        <time>2010-09-19T07:56:17Z</time>
      </trkpt>
      <trkpt lat="46.40368" lon="5.99684">
        <ele>1269.5583496094</ele>
        <time>2010-09-19T07:56:21Z</time>
      </trkpt>
      <trkpt lat="46.40368" lon="5.99686">
        <ele>1269.5583496094</ele>
        <time>2010-09-19T07:56:27Z</time>
      </trkpt>
      <trkpt lat="46.40377" lon="5.99702">
        <ele>1268.5969238281</ele>
        <time>2010-09-19T07:56:33Z</time>
      </trkpt>
      <trkpt lat="46.40395" lon="5.99724">
        <ele>1267.6354980469</ele>
        <time>2010-09-19T07:56:39Z</time>
      </trkpt>
      <trkpt lat="46.40416" lon="5.99748">
        <ele>1267.6354980469</ele>
        <time>2010-09-19T07:56:46Z</time>
      </trkpt>
      <trkpt lat="46.40429" lon="5.99759">
        <ele>1269.0776367188</ele>
        <time>2010-09-19T07:56:53Z</time>
      </trkpt>
      <trkpt lat="46.40444" lon="5.9977">
        <ele>1270.0388183594</ele>
        <time>2010-09-19T07:57:02Z</time>
      </trkpt>
      <trkpt lat="46.40455" lon="5.99777">
        <ele>1271.9614257812</ele>
        <time>2010-09-19T07:57:10Z</time>
      </trkpt>
      <trkpt lat="46.40469" lon="5.99786">
        <ele>1272.9228515625</ele>
        <time>2010-09-19T07:57:19Z</time>
      </trkpt>
      <trkpt lat="46.4048" lon="5.998">
        <ele>1274.3647460938</ele>
        <time>2010-09-19T07:57:29Z</time>
      </trkpt>
      <trkpt lat="46.40491" lon="5.9981">
        <ele>1273.8840332031</ele>
        <time>2010-09-19T07:57:36Z</time>
      </trkpt>
      <trkpt lat="46.40501" lon="5.99815">
        <ele>1275.3259277344</ele>
        <time>2010-09-19T07:57:42Z</time>
      </trkpt>
      <trkpt lat="46.40515" lon="5.99823">
        <ele>1276.2875976562</ele>
        <time>2010-09-19T07:57:51Z</time>
      </trkpt>
      <trkpt lat="46.40529" lon="5.99832">
        <ele>1278.6909179688</ele>
        <time>2010-09-19T07:58:02Z</time>
      </trkpt>
      <trkpt lat="46.40542" lon="5.99839">
        <ele>1280.1328125</ele>
        <time>2010-09-19T07:58:12Z</time>
      </trkpt>
      <trkpt lat="46.40545" lon="5.99844">
        <ele>1281.5747070312</ele>
        <time>2010-09-19T07:58:18Z</time>
      </trkpt>
      <trkpt lat="46.40546" lon="5.9985">
        <ele>1283.4973144531</ele>
        <time>2010-09-19T07:58:26Z</time>
      </trkpt>
      <trkpt lat="46.40548" lon="5.99857">
        <ele>1284.4587402344</ele>
        <time>2010-09-19T07:58:33Z</time>
      </trkpt>
      <trkpt lat="46.4055" lon="5.99864">
        <ele>1285.9006347656</ele>
        <time>2010-09-19T07:58:41Z</time>
      </trkpt>
      <trkpt lat="46.40554" lon="5.99872">
        <ele>1287.3425292969</ele>
        <time>2010-09-19T07:58:50Z</time>
      </trkpt>
      <trkpt lat="46.40556" lon="5.99879">
        <ele>1289.2651367188</ele>
        <time>2010-09-19T07:58:59Z</time>
      </trkpt>
      <trkpt lat="46.40558" lon="5.99883">
        <ele>1290.70703125</ele>
        <time>2010-09-19T07:59:06Z</time>
      </trkpt>
      <trkpt lat="46.4056" lon="5.99888">
        <ele>1292.6301269531</ele>
        <time>2010-09-19T07:59:14Z</time>
      </trkpt>
      <trkpt lat="46.4056" lon="5.99892">
        <ele>1293.5913085938</ele>
        <time>2010-09-19T07:59:20Z</time>
      </trkpt>
      <trkpt lat="46.4056" lon="5.99898">
        <ele>1295.033203125</ele>
        <time>2010-09-19T07:59:27Z</time>
      </trkpt>
      <trkpt lat="46.40561" lon="5.99901">
        <ele>1295.033203125</ele>
        <time>2010-09-19T07:59:32Z</time>
      </trkpt>
      <trkpt lat="46.40562" lon="5.99905">
        <ele>1296.4753417969</ele>
        <time>2010-09-19T07:59:39Z</time>
      </trkpt>
      <trkpt lat="46.40565" lon="5.99907">
        <ele>1297.4365234375</ele>
        <time>2010-09-19T07:59:47Z</time>
      </trkpt>
      <trkpt lat="46.40569" lon="5.99911">
        <ele>1298.8784179688</ele>
        <time>2010-09-19T07:59:54Z</time>
      </trkpt>
      <trkpt lat="46.40572" lon="5.99912">
        <ele>1299.83984375</ele>
        <time>2010-09-19T07:59:59Z</time>
      </trkpt>
      <trkpt lat="46.40573" lon="5.99916">
        <ele>1300.8010253906</ele>
        <time>2010-09-19T08:00:06Z</time>
      </trkpt>
      <trkpt lat="46.40577" lon="5.99917">
        <ele>1302.2429199219</ele>
        <time>2010-09-19T08:00:14Z</time>
      </trkpt>
      <trkpt lat="46.4058" lon="5.99919">
        <ele>1303.6850585938</ele>
        <time>2010-09-19T08:00:21Z</time>
      </trkpt>
      <trkpt lat="46.40584" lon="5.99923">
        <ele>1305.6076660156</ele>
        <time>2010-09-19T08:00:30Z</time>
      </trkpt>
      <trkpt lat="46.40587" lon="5.99927">
        <ele>1307.0495605469</ele>
        <time>2010-09-19T08:00:38Z</time>
      </trkpt>
      <trkpt lat="46.4059" lon="5.9993">
        <ele>1308.4916992188</ele>
        <time>2010-09-19T08:00:43Z</time>
      </trkpt>
      <trkpt lat="46.40595" lon="5.99936">
        <ele>1310.4143066406</ele>
        <time>2010-09-19T08:00:51Z</time>
      </trkpt>
      <trkpt lat="46.40598" lon="5.99941">
        <ele>1311.8564453125</ele>
        <time>2010-09-19T08:01:00Z</time>
      </trkpt>
      <trkpt lat="46.40601" lon="5.99948">
        <ele>1312.8176269531</ele>
        <time>2010-09-19T08:01:07Z</time>
      </trkpt>
      <trkpt lat="46.40604" lon="5.99955">
        <ele>1314.740234375</ele>
        <time>2010-09-19T08:01:16Z</time>
      </trkpt>
      <trkpt lat="46.40607" lon="5.99962">
        <ele>1315.7016601562</ele>
        <time>2010-09-19T08:01:23Z</time>
      </trkpt>
      <trkpt lat="46.4061" lon="5.99968">
        <ele>1316.6628417969</ele>
        <time>2010-09-19T08:01:30Z</time>
      </trkpt>
      <trkpt lat="46.40616" lon="5.99975">
        <ele>1317.6240234375</ele>
        <time>2010-09-19T08:01:40Z</time>
      </trkpt>
      <trkpt lat="46.40622" lon="5.9998">
        <ele>1319.546875</ele>
        <time>2010-09-19T08:01:49Z</time>
      </trkpt>
      <trkpt lat="46.40626" lon="5.99984">
        <ele>1320.5080566406</ele>
        <time>2010-09-19T08:01:57Z</time>
      </trkpt>
      <trkpt lat="46.40627" lon="5.9999">
        <ele>1321.4692382812</ele>
        <time>2010-09-19T08:02:03Z</time>
      </trkpt>
      <trkpt lat="46.40626" lon="5.99995">
        <ele>1321.4692382812</ele>
        <time>2010-09-19T08:02:07Z</time>
      </trkpt>
      <trkpt lat="46.40619" lon="6.00001">
        <ele>1321.9499511719</ele>
        <time>2010-09-19T08:02:15Z</time>
      </trkpt>
      <trkpt lat="46.40605" lon="6.00001">
        <ele>1322.9113769531</ele>
        <time>2010-09-19T08:02:22Z</time>
      </trkpt>
      <trkpt lat="46.40591" lon="6.00002">
        <ele>1323.8725585938</ele>
        <time>2010-09-19T08:02:29Z</time>
      </trkpt>
      <trkpt lat="46.40577" lon="6.00006">
        <ele>1324.353515625</ele>
        <time>2010-09-19T08:02:36Z</time>
      </trkpt>
      <trkpt lat="46.4056" lon="6.0001">
        <ele>1325.3146972656</ele>
        <time>2010-09-19T08:02:44Z</time>
      </trkpt>
      <trkpt lat="46.40545" lon="6.00011">
        <ele>1326.7568359375</ele>
        <time>2010-09-19T08:02:51Z</time>
      </trkpt>
      <trkpt lat="46.40521" lon="6.00009">
        <ele>1329.1599121094</ele>
        <time>2010-09-19T08:03:03Z</time>
      </trkpt>
      <trkpt lat="46.40503" lon="6.00006">
        <ele>1330.6020507812</ele>
        <time>2010-09-19T08:03:12Z</time>
      </trkpt>
      <trkpt lat="46.40484" lon="6.00001">
        <ele>1332.0439453125</ele>
        <time>2010-09-19T08:03:21Z</time>
      </trkpt>
      <trkpt lat="46.40469" lon="5.99996">
        <ele>1333.0051269531</ele>
        <time>2010-09-19T08:03:28Z</time>
      </trkpt>
      <trkpt lat="46.4045" lon="5.99996">
        <ele>1333.0051269531</ele>
        <time>2010-09-19T08:03:36Z</time>
      </trkpt>
      <trkpt lat="46.4043" lon="6.00004">
        <ele>1333.4858398438</ele>
        <time>2010-09-19T08:03:43Z</time>
      </trkpt>
      <trkpt lat="46.4041" lon="6.00017">
        <ele>1334.447265625</ele>
        <time>2010-09-19T08:03:51Z</time>
      </trkpt>
      <trkpt lat="46.40393" lon="6.0002">
        <ele>1334.9279785156</ele>
        <time>2010-09-19T08:03:58Z</time>
      </trkpt>
      <trkpt lat="46.40375" lon="6.00021">
        <ele>1335.8891601562</ele>
        <time>2010-09-19T08:04:05Z</time>
      </trkpt>
      <trkpt lat="46.40354" lon="6.00018">
        <ele>1336.3698730469</ele>
        <time>2010-09-19T08:04:13Z</time>
      </trkpt>
      <trkpt lat="46.40324" lon="6.00013">
        <ele>1338.2924804688</ele>
        <time>2010-09-19T08:04:24Z</time>
      </trkpt>
      <trkpt lat="46.40304" lon="6.00015">
        <ele>1339.734375</ele>
        <time>2010-09-19T08:04:32Z</time>
      </trkpt>
      <trkpt lat="46.40286" lon="6.00025">
        <ele>1341.6572265625</ele>
        <time>2010-09-19T08:04:41Z</time>
      </trkpt>
      <trkpt lat="46.40267" lon="6.0004">
        <ele>1343.5798339844</ele>
        <time>2010-09-19T08:04:52Z</time>
      </trkpt>
      <trkpt lat="46.40253" lon="6.00055">
        <ele>1345.0217285156</ele>
        <time>2010-09-19T08:05:01Z</time>
      </trkpt>
      <trkpt lat="46.40243" lon="6.00067">
        <ele>1345.5024414062</ele>
        <time>2010-09-19T08:05:08Z</time>
      </trkpt>
      <trkpt lat="46.40236" lon="6.00076">
        <ele>1347.4250488281</ele>
        <time>2010-09-19T08:05:14Z</time>
      </trkpt>
      <trkpt lat="46.40224" lon="6.00099">
        <ele>1349.8283691406</ele>
        <time>2010-09-19T08:05:25Z</time>
      </trkpt>
      <trkpt lat="46.40212" lon="6.0012">
        <ele>1351.2702636719</ele>
        <time>2010-09-19T08:05:35Z</time>
      </trkpt>
      <trkpt lat="46.40205" lon="6.00136">
        <ele>1353.1928710938</ele>
        <time>2010-09-19T08:05:43Z</time>
      </trkpt>
      <trkpt lat="46.40197" lon="6.00147">
        <ele>1353.6735839844</ele>
        <time>2010-09-19T08:05:50Z</time>
      </trkpt>
      <trkpt lat="46.40187" lon="6.00165">
        <ele>1356.0769042969</ele>
        <time>2010-09-19T08:06:00Z</time>
      </trkpt>
      <trkpt lat="46.40186" lon="6.00169">
        <ele>1357.0383300781</ele>
        <time>2010-09-19T08:06:02Z</time>
      </trkpt>
      <trkpt lat="46.40176" lon="6.00188">
        <ele>1358.9609375</ele>
        <time>2010-09-19T08:06:12Z</time>
      </trkpt>
      <trkpt lat="46.40169" lon="6.00202">
        <ele>1359.9221191406</ele>
        <time>2010-09-19T08:06:20Z</time>
      </trkpt>
      <trkpt lat="46.40163" lon="6.0022">
        <ele>1361.3642578125</ele>
        <time>2010-09-19T08:06:28Z</time>
      </trkpt>
      <trkpt lat="46.40157" lon="6.00236">
        <ele>1362.3254394531</ele>
        <time>2010-09-19T08:06:34Z</time>
      </trkpt>
      <trkpt lat="46.40146" lon="6.00259">
        <ele>1360.4028320312</ele>
        <time>2010-09-19T08:06:40Z</time>
      </trkpt>
      <trkpt lat="46.40129" lon="6.0029">
        <ele>1357.5190429688</ele>
        <time>2010-09-19T08:06:46Z</time>
      </trkpt>
      <trkpt lat="46.40114" lon="6.00316">
        <ele>1356.5576171875</ele>
        <time>2010-09-19T08:06:51Z</time>
      </trkpt>
      <trkpt lat="46.40102" lon="6.00353">
        <ele>1353.1928710938</ele>
        <time>2010-09-19T08:06:56Z</time>
      </trkpt>
      <trkpt lat="46.40099" lon="6.00362">
        <ele>1352.7121582031</ele>
        <time>2010-09-19T08:06:57Z</time>
      </trkpt>
      <trkpt lat="46.40091" lon="6.0038">
        <ele>1352.2314453125</ele>
        <time>2010-09-19T08:06:59Z</time>
      </trkpt>
      <trkpt lat="46.40075" lon="6.00392">
        <ele>1350.7895507812</ele>
        <time>2010-09-19T08:07:02Z</time>
      </trkpt>
      <trkpt lat="46.40055" lon="6.00395">
        <ele>1349.34765625</ele>
        <time>2010-09-19T08:07:05Z</time>
      </trkpt>
      <trkpt lat="46.40032" lon="6.00411">
        <ele>1347.9057617188</ele>
        <time>2010-09-19T08:07:09Z</time>
      </trkpt>
      <trkpt lat="46.40027" lon="6.00416">
        <ele>1347.9057617188</ele>
        <time>2010-09-19T08:07:10Z</time>
      </trkpt>
      <trkpt lat="46.40006" lon="6.0043">
        <ele>1346.4638671875</ele>
        <time>2010-09-19T08:07:16Z</time>
      </trkpt>
      <trkpt lat="46.39999" lon="6.00448">
        <ele>1345.9831542969</ele>
        <time>2010-09-19T08:07:20Z</time>
      </trkpt>
      <trkpt lat="46.40001" lon="6.00475">
        <ele>1345.5024414062</ele>
        <time>2010-09-19T08:07:25Z</time>
      </trkpt>
      <trkpt lat="46.40003" lon="6.00487">
        <ele>1345.0217285156</ele>
        <time>2010-09-19T08:07:29Z</time>
      </trkpt>
      <trkpt lat="46.40004" lon="6.00501">
        <ele>1344.541015625</ele>
        <time>2010-09-19T08:07:34Z</time>
      </trkpt>
      <trkpt lat="46.40006" lon="6.00526">
        <ele>1345.9831542969</ele>
        <time>2010-09-19T08:07:42Z</time>
      </trkpt>
      <trkpt lat="46.40006" lon="6.0055">
        <ele>1346.9443359375</ele>
        <time>2010-09-19T08:07:49Z</time>
      </trkpt>
      <trkpt lat="46.40006" lon="6.00576">
        <ele>1345.0217285156</ele>
        <time>2010-09-19T08:07:53Z</time>
      </trkpt>
      <trkpt lat="46.40007" lon="6.00607">
        <ele>1344.541015625</ele>
        <time>2010-09-19T08:07:58Z</time>
      </trkpt>
      <trkpt lat="46.40008" lon="6.00631">
        <ele>1345.5024414062</ele>
        <time>2010-09-19T08:08:02Z</time>
      </trkpt>
      <trkpt lat="46.40006" lon="6.00648">
        <ele>1345.0217285156</ele>
        <time>2010-09-19T08:08:05Z</time>
      </trkpt>
      <trkpt lat="46.40004" lon="6.00679">
        <ele>1347.4250488281</ele>
        <time>2010-09-19T08:08:11Z</time>
      </trkpt>
      <trkpt lat="46.40006" lon="6.00709">
        <ele>1345.9831542969</ele>
        <time>2010-09-19T08:08:16Z</time>
      </trkpt>
      <trkpt lat="46.40015" lon="6.0074">
        <ele>1345.5024414062</ele>
        <time>2010-09-19T08:08:21Z</time>
      </trkpt>
      <trkpt lat="46.40025" lon="6.00798">
        <ele>1344.541015625</ele>
        <time>2010-09-19T08:08:30Z</time>
      </trkpt>
      <trkpt lat="46.40026" lon="6.00805">
        <ele>1344.060546875</ele>
        <time>2010-09-19T08:08:31Z</time>
      </trkpt>
      <trkpt lat="46.40032" lon="6.0084">
        <ele>1341.6572265625</ele>
        <time>2010-09-19T08:08:35Z</time>
      </trkpt>
      <trkpt lat="46.40036" lon="6.00848">
        <ele>1342.1379394531</ele>
        <time>2010-09-19T08:08:36Z</time>
      </trkpt>
      <trkpt lat="46.4006" lon="6.00883">
        <ele>1343.0991210938</ele>
        <time>2010-09-19T08:08:43Z</time>
      </trkpt>
      <trkpt lat="46.40081" lon="6.00916">
        <ele>1344.060546875</ele>
        <time>2010-09-19T08:08:51Z</time>
      </trkpt>
      <trkpt lat="46.40099" lon="6.00932">
        <ele>1345.9831542969</ele>
        <time>2010-09-19T08:08:57Z</time>
      </trkpt>
      <trkpt lat="46.40123" lon="6.00941">
        <ele>1346.9443359375</ele>
        <time>2010-09-19T08:09:04Z</time>
      </trkpt>
      <trkpt lat="46.40143" lon="6.00945">
        <ele>1347.4250488281</ele>
        <time>2010-09-19T08:09:10Z</time>
      </trkpt>
      <trkpt lat="46.40161" lon="6.00953">
        <ele>1348.8669433594</ele>
        <time>2010-09-19T08:09:16Z</time>
      </trkpt>
      <trkpt lat="46.40181" lon="6.00966">
        <ele>1350.3090820312</ele>
        <time>2010-09-19T08:09:22Z</time>
      </trkpt>
      <trkpt lat="46.40195" lon="6.00983">
        <ele>1351.2702636719</ele>
        <time>2010-09-19T08:09:28Z</time>
      </trkpt>
      <trkpt lat="46.40206" lon="6.01004">
        <ele>1352.7121582031</ele>
        <time>2010-09-19T08:09:34Z</time>
      </trkpt>
      <trkpt lat="46.40221" lon="6.01026">
        <ele>1353.6735839844</ele>
        <time>2010-09-19T08:09:41Z</time>
      </trkpt>
      <trkpt lat="46.4024" lon="6.01041">
        <ele>1354.154296875</ele>
        <time>2010-09-19T08:09:48Z</time>
      </trkpt>
      <trkpt lat="46.40266" lon="6.01054">
        <ele>1355.5961914062</ele>
        <time>2010-09-19T08:09:57Z</time>
      </trkpt>
      <trkpt lat="46.40285" lon="6.01076">
        <ele>1357.0383300781</ele>
        <time>2010-09-19T08:10:05Z</time>
      </trkpt>
      <trkpt lat="46.40301" lon="6.01114">
        <ele>1357.9997558594</ele>
        <time>2010-09-19T08:10:13Z</time>
      </trkpt>
      <trkpt lat="46.40311" lon="6.01142">
        <ele>1357.9997558594</ele>
        <time>2010-09-19T08:10:18Z</time>
      </trkpt>
      <trkpt lat="46.40316" lon="6.01154">
        <ele>1357.9997558594</ele>
        <time>2010-09-19T08:10:20Z</time>
      </trkpt>
      <trkpt lat="46.40325" lon="6.01183">
        <ele>1358.9609375</ele>
        <time>2010-09-19T08:10:25Z</time>
      </trkpt>
      <trkpt lat="46.40335" lon="6.01232">
        <ele>1358.9609375</ele>
        <time>2010-09-19T08:10:33Z</time>
      </trkpt>
      <trkpt lat="46.40339" lon="6.01258">
        <ele>1358.9609375</ele>
        <time>2010-09-19T08:10:37Z</time>
      </trkpt>
      <trkpt lat="46.40337" lon="6.01309">
        <ele>1358.9609375</ele>
        <time>2010-09-19T08:10:44Z</time>
      </trkpt>
      <trkpt lat="46.40338" lon="6.01364">
        <ele>1358.9609375</ele>
        <time>2010-09-19T08:10:51Z</time>
      </trkpt>
      <trkpt lat="46.40339" lon="6.01371">
        <ele>1358.9609375</ele>
        <time>2010-09-19T08:10:52Z</time>
      </trkpt>
      <trkpt lat="46.40344" lon="6.01406">
        <ele>1359.4416503906</ele>
        <time>2010-09-19T08:10:57Z</time>
      </trkpt>
      <trkpt lat="46.40346" lon="6.01412">
        <ele>1359.4416503906</ele>
        <time>2010-09-19T08:10:58Z</time>
      </trkpt>
      <trkpt lat="46.40356" lon="6.01437">
        <ele>1359.4416503906</ele>
        <time>2010-09-19T08:11:02Z</time>
      </trkpt>
      <trkpt lat="46.40381" lon="6.0149">
        <ele>1360.8835449219</ele>
        <time>2010-09-19T08:11:11Z</time>
      </trkpt>
      <trkpt lat="46.40392" lon="6.01523">
        <ele>1360.8835449219</ele>
        <time>2010-09-19T08:11:16Z</time>
      </trkpt>
      <trkpt lat="46.40399" lon="6.0155">
        <ele>1360.8835449219</ele>
        <time>2010-09-19T08:11:20Z</time>
      </trkpt>
      <trkpt lat="46.40422" lon="6.01608">
        <ele>1360.8835449219</ele>
        <time>2010-09-19T08:11:29Z</time>
      </trkpt>
      <trkpt lat="46.40437" lon="6.01641">
        <ele>1361.3642578125</ele>
        <time>2010-09-19T08:11:35Z</time>
      </trkpt>
      <trkpt lat="46.40455" lon="6.01676">
        <ele>1362.3254394531</ele>
        <time>2010-09-19T08:11:42Z</time>
      </trkpt>
      <trkpt lat="46.40465" lon="6.01696">
        <ele>1362.8061523438</ele>
        <time>2010-09-19T08:11:46Z</time>
      </trkpt>
      <trkpt lat="46.40468" lon="6.0172">
        <ele>1362.8061523438</ele>
        <time>2010-09-19T08:11:50Z</time>
      </trkpt>
      <trkpt lat="46.40467" lon="6.01769">
        <ele>1360.8835449219</ele>
        <time>2010-09-19T08:11:57Z</time>
      </trkpt>
      <trkpt lat="46.40467" lon="6.01777">
        <ele>1360.4028320312</ele>
        <time>2010-09-19T08:11:58Z</time>
      </trkpt>
      <trkpt lat="46.4047" lon="6.01795">
        <ele>1360.4028320312</ele>
        <time>2010-09-19T08:12:00Z</time>
      </trkpt>
      <trkpt lat="46.40477" lon="6.0182">
        <ele>1359.4416503906</ele>
        <time>2010-09-19T08:12:03Z</time>
      </trkpt>
      <trkpt lat="46.40476" lon="6.0185">
        <ele>1359.4416503906</ele>
        <time>2010-09-19T08:12:07Z</time>
      </trkpt>
      <trkpt lat="46.40461" lon="6.0191">
        <ele>1357.5190429688</ele>
        <time>2010-09-19T08:12:14Z</time>
      </trkpt>
      <trkpt lat="46.40443" lon="6.01963">
        <ele>1357.5190429688</ele>
        <time>2010-09-19T08:12:21Z</time>
      </trkpt>
      <trkpt lat="46.40439" lon="6.01994">
        <ele>1357.0383300781</ele>
        <time>2010-09-19T08:12:25Z</time>
      </trkpt>
      <trkpt lat="46.4044" lon="6.02028">
        <ele>1354.634765625</ele>
        <time>2010-09-19T08:12:29Z</time>
      </trkpt>
      <trkpt lat="46.40439" lon="6.02088">
        <ele>1353.6735839844</ele>
        <time>2010-09-19T08:12:36Z</time>
      </trkpt>
      <trkpt lat="46.40445" lon="6.02129">
        <ele>1353.1928710938</ele>
        <time>2010-09-19T08:12:41Z</time>
      </trkpt>
      <trkpt lat="46.40458" lon="6.02174">
        <ele>1354.154296875</ele>
        <time>2010-09-19T08:12:48Z</time>
      </trkpt>
      <trkpt lat="46.40467" lon="6.0219">
        <ele>1355.5961914062</ele>
        <time>2010-09-19T08:12:52Z</time>
      </trkpt>
      <trkpt lat="46.40484" lon="6.02205">
        <ele>1357.5190429688</ele>
        <time>2010-09-19T08:12:59Z</time>
      </trkpt>
      <trkpt lat="46.40495" lon="6.02222">
        <ele>1357.5190429688</ele>
        <time>2010-09-19T08:13:04Z</time>
      </trkpt>
      <trkpt lat="46.40494" lon="6.02232">
        <ele>1357.9997558594</ele>
        <time>2010-09-19T08:13:06Z</time>
      </trkpt>
      <trkpt lat="46.40479" lon="6.02267">
        <ele>1355.5961914062</ele>
        <time>2010-09-19T08:13:12Z</time>
      </trkpt>
      <trkpt lat="46.40472" lon="6.02295">
        <ele>1354.634765625</ele>
        <time>2010-09-19T08:13:16Z</time>
      </trkpt>
      <trkpt lat="46.40471" lon="6.02312">
        <ele>1353.6735839844</ele>
        <time>2010-09-19T08:13:18Z</time>
      </trkpt>
      <trkpt lat="46.40462" lon="6.02354">
        <ele>1349.34765625</ele>
        <time>2010-09-19T08:13:23Z</time>
      </trkpt>
      <trkpt lat="46.40441" lon="6.02384">
        <ele>1347.4250488281</ele>
        <time>2010-09-19T08:13:27Z</time>
      </trkpt>
      <trkpt lat="46.40434" lon="6.02388">
        <ele>1346.4638671875</ele>
        <time>2010-09-19T08:13:28Z</time>
      </trkpt>
      <trkpt lat="46.40418" lon="6.02398">
        <ele>1345.0217285156</ele>
        <time>2010-09-19T08:13:30Z</time>
      </trkpt>
      <trkpt lat="46.40393" lon="6.02408">
        <ele>1342.6186523438</ele>
        <time>2010-09-19T08:13:33Z</time>
      </trkpt>
      <trkpt lat="46.40366" lon="6.02404">
        <ele>1337.8117675781</ele>
        <time>2010-09-19T08:13:36Z</time>
      </trkpt>
      <trkpt lat="46.4035" lon="6.02394">
        <ele>1334.447265625</ele>
        <time>2010-09-19T08:13:38Z</time>
      </trkpt>
      <trkpt lat="46.40339" lon="6.02375">
        <ele>1332.5246582031</ele>
        <time>2010-09-19T08:13:41Z</time>
      </trkpt>
      <trkpt lat="46.40339" lon="6.02368">
        <ele>1331.5632324219</ele>
        <time>2010-09-19T08:13:42Z</time>
      </trkpt>
      <trkpt lat="46.40337" lon="6.02335">
        <ele>1332.0439453125</ele>
        <time>2010-09-19T08:13:47Z</time>
      </trkpt>
      <trkpt lat="46.40334" lon="6.0233">
        <ele>1332.0439453125</ele>
        <time>2010-09-19T08:13:48Z</time>
      </trkpt>
      <trkpt lat="46.40327" lon="6.0232">
        <ele>1331.0827636719</ele>
        <time>2010-09-19T08:13:50Z</time>
      </trkpt>
      <trkpt lat="46.40311" lon="6.02308">
        <ele>1330.1213378906</ele>
        <time>2010-09-19T08:13:54Z</time>
      </trkpt>
      <trkpt lat="46.40301" lon="6.02301">
        <ele>1329.640625</ele>
        <time>2010-09-19T08:13:56Z</time>
      </trkpt>
      <trkpt lat="46.40284" lon="6.02292">
        <ele>1328.1987304688</ele>
        <time>2010-09-19T08:13:59Z</time>
      </trkpt>
      <trkpt lat="46.40268" lon="6.02277">
        <ele>1326.2761230469</ele>
        <time>2010-09-19T08:14:02Z</time>
      </trkpt>
      <trkpt lat="46.40258" lon="6.02265">
        <ele>1324.353515625</ele>
        <time>2010-09-19T08:14:04Z</time>
      </trkpt>
      <trkpt lat="46.4024" lon="6.02237">
        <ele>1321.9499511719</ele>
        <time>2010-09-19T08:14:08Z</time>
      </trkpt>
      <trkpt lat="46.40234" lon="6.02226">
        <ele>1320.5080566406</ele>
        <time>2010-09-19T08:14:10Z</time>
      </trkpt>
      <trkpt lat="46.40213" lon="6.02196">
        <ele>1318.5854492188</ele>
        <time>2010-09-19T08:14:16Z</time>
      </trkpt>
      <trkpt lat="46.402" lon="6.02178">
        <ele>1316.1821289062</ele>
        <time>2010-09-19T08:14:19Z</time>
      </trkpt>
      <trkpt lat="46.40173" lon="6.02149">
        <ele>1313.2983398438</ele>
        <time>2010-09-19T08:14:24Z</time>
      </trkpt>
      <trkpt lat="46.40164" lon="6.02137">
        <ele>1312.3369140625</ele>
        <time>2010-09-19T08:14:26Z</time>
      </trkpt>
      <trkpt lat="46.4016" lon="6.02131">
        <ele>1311.8564453125</ele>
        <time>2010-09-19T08:14:27Z</time>
      </trkpt>
      <trkpt lat="46.4015" lon="6.02112">
        <ele>1309.93359375</ele>
        <time>2010-09-19T08:14:30Z</time>
      </trkpt>
      <trkpt lat="46.4015" lon="6.02088">
        <ele>1308.4916992188</ele>
        <time>2010-09-19T08:14:33Z</time>
      </trkpt>
      <trkpt lat="46.40152" lon="6.02057">
        <ele>1306.5688476562</ele>
        <time>2010-09-19T08:14:37Z</time>
      </trkpt>
      <trkpt lat="46.40145" lon="6.02023">
        <ele>1304.6462402344</ele>
        <time>2010-09-19T08:14:42Z</time>
      </trkpt>
      <trkpt lat="46.40127" lon="6.01989">
        <ele>1304.1657714844</ele>
        <time>2010-09-19T08:14:47Z</time>
      </trkpt>
      <trkpt lat="46.40115" lon="6.01971">
        <ele>1303.6850585938</ele>
        <time>2010-09-19T08:14:50Z</time>
      </trkpt>
      <trkpt lat="46.40099" lon="6.01946">
        <ele>1303.2043457031</ele>
        <time>2010-09-19T08:14:54Z</time>
      </trkpt>
      <trkpt lat="46.40089" lon="6.01921">
        <ele>1302.7236328125</ele>
        <time>2010-09-19T08:14:58Z</time>
      </trkpt>
      <trkpt lat="46.40081" lon="6.01893">
        <ele>1301.7624511719</ele>
        <time>2010-09-19T08:15:02Z</time>
      </trkpt>
      <trkpt lat="46.40074" lon="6.01879">
        <ele>1300.8010253906</ele>
        <time>2010-09-19T08:15:04Z</time>
      </trkpt>
      <trkpt lat="46.40062" lon="6.01862">
        <ele>1299.3591308594</ele>
        <time>2010-09-19T08:15:07Z</time>
      </trkpt>
      <trkpt lat="46.40054" lon="6.01852">
        <ele>1298.3977050781</ele>
        <time>2010-09-19T08:15:09Z</time>
      </trkpt>
      <trkpt lat="46.40035" lon="6.01828">
        <ele>1296.9558105469</ele>
        <time>2010-09-19T08:15:14Z</time>
      </trkpt>
      <trkpt lat="46.40015" lon="6.01799">
        <ele>1294.0720214844</ele>
        <time>2010-09-19T08:15:19Z</time>
      </trkpt>
      <trkpt lat="46.40004" lon="6.01783">
        <ele>1293.1105957031</ele>
        <time>2010-09-19T08:15:22Z</time>
      </trkpt>
      <trkpt lat="46.39991" lon="6.01755">
        <ele>1292.1494140625</ele>
        <time>2010-09-19T08:15:27Z</time>
      </trkpt>
      <trkpt lat="46.39989" lon="6.0175">
        <ele>1292.1494140625</ele>
        <time>2010-09-19T08:15:28Z</time>
      </trkpt>
      <trkpt lat="46.39974" lon="6.01731">
        <ele>1289.7458496094</ele>
        <time>2010-09-19T08:15:32Z</time>
      </trkpt>
      <trkpt lat="46.39966" lon="6.01719">
        <ele>1288.7846679688</ele>
        <time>2010-09-19T08:15:34Z</time>
      </trkpt>
      <trkpt lat="46.39959" lon="6.01705">
        <ele>1288.3039550781</ele>
        <time>2010-09-19T08:15:36Z</time>
      </trkpt>
      <trkpt lat="46.39939" lon="6.01673">
        <ele>1282.5361328125</ele>
        <time>2010-09-19T08:15:41Z</time>
      </trkpt>
      <trkpt lat="46.39934" lon="6.01666">
        <ele>1283.0166015625</ele>
        <time>2010-09-19T08:15:42Z</time>
      </trkpt>
      <trkpt lat="46.39923" lon="6.0165">
        <ele>1282.0554199219</ele>
        <time>2010-09-19T08:15:44Z</time>
      </trkpt>
      <trkpt lat="46.3991" lon="6.01625">
        <ele>1280.6135253906</ele>
        <time>2010-09-19T08:15:47Z</time>
      </trkpt>
      <trkpt lat="46.39896" lon="6.01607">
        <ele>1279.6520996094</ele>
        <time>2010-09-19T08:15:50Z</time>
      </trkpt>
      <trkpt lat="46.39883" lon="6.01591">
        <ele>1279.1713867188</ele>
        <time>2010-09-19T08:15:53Z</time>
      </trkpt>
      <trkpt lat="46.39855" lon="6.01557">
        <ele>1277.7294921875</ele>
        <time>2010-09-19T08:16:00Z</time>
      </trkpt>
      <trkpt lat="46.39832" lon="6.0152">
        <ele>1275.3259277344</ele>
        <time>2010-09-19T08:16:06Z</time>
      </trkpt>
      <trkpt lat="46.39823" lon="6.01507">
        <ele>1273.8840332031</ele>
        <time>2010-09-19T08:16:08Z</time>
      </trkpt>
      <trkpt lat="46.39809" lon="6.01477">
        <ele>1272.9228515625</ele>
        <time>2010-09-19T08:16:12Z</time>
      </trkpt>
      <trkpt lat="46.39783" lon="6.01432">
        <ele>1271.9614257812</ele>
        <time>2010-09-19T08:16:19Z</time>
      </trkpt>
      <trkpt lat="46.39766" lon="6.01401">
        <ele>1269.5583496094</ele>
        <time>2010-09-19T08:16:24Z</time>
      </trkpt>
      <trkpt lat="46.39747" lon="6.01374">
        <ele>1269.0776367188</ele>
        <time>2010-09-19T08:16:29Z</time>
      </trkpt>
      <trkpt lat="46.39732" lon="6.01357">
        <ele>1268.5969238281</ele>
        <time>2010-09-19T08:16:33Z</time>
      </trkpt>
      <trkpt lat="46.39714" lon="6.01341">
        <ele>1267.6354980469</ele>
        <time>2010-09-19T08:16:38Z</time>
      </trkpt>
      <trkpt lat="46.39688" lon="6.01311">
        <ele>1266.1936035156</ele>
        <time>2010-09-19T08:16:45Z</time>
      </trkpt>
      <trkpt lat="46.3966" lon="6.01279">
        <ele>1264.7517089844</ele>
        <time>2010-09-19T08:16:53Z</time>
      </trkpt>
      <trkpt lat="46.39637" lon="6.01252">
        <ele>1263.7902832031</ele>
        <time>2010-09-19T08:17:00Z</time>
      </trkpt>
      <trkpt lat="46.3961" lon="6.01221">
        <ele>1263.3098144531</ele>
        <time>2010-09-19T08:17:07Z</time>
      </trkpt>
      <trkpt lat="46.39577" lon="6.01178">
        <ele>1261.3872070312</ele>
        <time>2010-09-19T08:17:16Z</time>
      </trkpt>
      <trkpt lat="46.3955" lon="6.01137">
        <ele>1261.3872070312</ele>
        <time>2010-09-19T08:17:24Z</time>
      </trkpt>
      <trkpt lat="46.39525" lon="6.01102">
        <ele>1259.4643554688</ele>
        <time>2010-09-19T08:17:31Z</time>
      </trkpt>
      <trkpt lat="46.39493" lon="6.01057">
        <ele>1258.9836425781</ele>
        <time>2010-09-19T08:17:40Z</time>
      </trkpt>
      <trkpt lat="46.39481" lon="6.01036">
        <ele>1258.5029296875</ele>
        <time>2010-09-19T08:17:44Z</time>
      </trkpt>
      <trkpt lat="46.39472" lon="6.01022">
        <ele>1258.5029296875</ele>
        <time>2010-09-19T08:17:47Z</time>
      </trkpt>
      <trkpt lat="46.39446" lon="6.00979">
        <ele>1258.9836425781</ele>
        <time>2010-09-19T08:17:56Z</time>
      </trkpt>
      <trkpt lat="46.39424" lon="6.00944">
        <ele>1258.5029296875</ele>
        <time>2010-09-19T08:18:04Z</time>
      </trkpt>
      <trkpt lat="46.39403" lon="6.00903">
        <ele>1258.5029296875</ele>
        <time>2010-09-19T08:18:12Z</time>
      </trkpt>
      <trkpt lat="46.39387" lon="6.00871">
        <ele>1258.0224609375</ele>
        <time>2010-09-19T08:18:18Z</time>
      </trkpt>
      <trkpt lat="46.39361" lon="6.00826">
        <ele>1257.5417480469</ele>
        <time>2010-09-19T08:18:27Z</time>
      </trkpt>
      <trkpt lat="46.39346" lon="6.00795">
        <ele>1258.5029296875</ele>
        <time>2010-09-19T08:18:33Z</time>
      </trkpt>
      <trkpt lat="46.39331" lon="6.0078">
        <ele>1258.9836425781</ele>
        <time>2010-09-19T08:18:38Z</time>
      </trkpt>
      <trkpt lat="46.39316" lon="6.00763">
        <ele>1260.42578125</ele>
        <time>2010-09-19T08:18:45Z</time>
      </trkpt>
      <trkpt lat="46.39302" lon="6.00735">
        <ele>1259.9448242188</ele>
        <time>2010-09-19T08:18:52Z</time>
      </trkpt>
      <trkpt lat="46.39287" lon="6.00713">
        <ele>1260.42578125</ele>
        <time>2010-09-19T08:18:59Z</time>
      </trkpt>
      <trkpt lat="46.39272" lon="6.00703">
        <ele>1261.3872070312</ele>
        <time>2010-09-19T08:19:06Z</time>
      </trkpt>
      <trkpt lat="46.3925" lon="6.00697">
        <ele>1262.3483886719</ele>
        <time>2010-09-19T08:19:15Z</time>
      </trkpt>
      <trkpt lat="46.39231" lon="6.007">
        <ele>1264.7517089844</ele>
        <time>2010-09-19T08:19:23Z</time>
      </trkpt>
      <trkpt lat="46.39214" lon="6.00705">
        <ele>1266.6743164062</ele>
        <time>2010-09-19T08:19:31Z</time>
      </trkpt>
      <trkpt lat="46.39193" lon="6.00711">
        <ele>1265.7131347656</ele>
        <time>2010-09-19T08:19:39Z</time>
      </trkpt>
      <trkpt lat="46.39177" lon="6.00715">
        <ele>1267.6354980469</ele>
        <time>2010-09-19T08:19:45Z</time>
      </trkpt>
      <trkpt lat="46.39156" lon="6.00717">
        <ele>1269.0776367188</ele>
        <time>2010-09-19T08:19:53Z</time>
      </trkpt>
      <trkpt lat="46.39139" lon="6.0072">
        <ele>1269.5583496094</ele>
        <time>2010-09-19T08:20:01Z</time>
      </trkpt>
      <trkpt lat="46.39123" lon="6.00726">
        <ele>1269.0776367188</ele>
        <time>2010-09-19T08:20:06Z</time>
      </trkpt>
      <trkpt lat="46.39101" lon="6.00736">
        <ele>1269.5583496094</ele>
        <time>2010-09-19T08:20:14Z</time>
      </trkpt>
      <trkpt lat="46.39088" lon="6.00733">
        <ele>1271.0002441406</ele>
        <time>2010-09-19T08:20:20Z</time>
      </trkpt>
      <trkpt lat="46.3908" lon="6.0072">
        <ele>1272.4421386719</ele>
        <time>2010-09-19T08:20:26Z</time>
      </trkpt>
      <trkpt lat="46.39073" lon="6.00689">
        <ele>1274.3647460938</ele>
        <time>2010-09-19T08:20:35Z</time>
      </trkpt>
      <trkpt lat="46.3907" lon="6.00681">
        <ele>1274.3647460938</ele>
        <time>2010-09-19T08:20:38Z</time>
      </trkpt>
      <trkpt lat="46.39059" lon="6.00683">
        <ele>1273.8840332031</ele>
        <time>2010-09-19T08:20:42Z</time>
      </trkpt>
      <trkpt lat="46.39038" lon="6.00692">
        <ele>1271.4807128906</ele>
        <time>2010-09-19T08:20:47Z</time>
      </trkpt>
      <trkpt lat="46.39033" lon="6.00689">
        <ele>1271.9614257812</ele>
        <time>2010-09-19T08:20:48Z</time>
      </trkpt>
      <trkpt lat="46.39016" lon="6.00679">
        <ele>1271.9614257812</ele>
        <time>2010-09-19T08:20:53Z</time>
      </trkpt>
      <trkpt lat="46.39003" lon="6.00682">
        <ele>1273.4035644531</ele>
        <time>2010-09-19T08:20:58Z</time>
      </trkpt>
      <trkpt lat="46.38987" lon="6.00684">
        <ele>1274.3647460938</ele>
        <time>2010-09-19T08:21:04Z</time>
      </trkpt>
      <trkpt lat="46.38969" lon="6.00675">
        <ele>1273.8840332031</ele>
        <time>2010-09-19T08:21:10Z</time>
      </trkpt>
      <trkpt lat="46.38947" lon="6.0067">
        <ele>1274.8454589844</ele>
        <time>2010-09-19T08:21:17Z</time>
      </trkpt>
      <trkpt lat="46.38929" lon="6.0067">
        <ele>1275.806640625</ele>
        <time>2010-09-19T08:21:23Z</time>
      </trkpt>
      <trkpt lat="46.3891" lon="6.00658">
        <ele>1275.3259277344</ele>
        <time>2010-09-19T08:21:30Z</time>
      </trkpt>
      <trkpt lat="46.389" lon="6.0065">
        <ele>1274.8454589844</ele>
        <time>2010-09-19T08:21:33Z</time>
      </trkpt>
      <trkpt lat="46.38887" lon="6.0064">
        <ele>1272.4421386719</ele>
        <time>2010-09-19T08:21:36Z</time>
      </trkpt>
      <trkpt lat="46.38865" lon="6.0061">
        <ele>1271.4807128906</ele>
        <time>2010-09-19T08:21:41Z</time>
      </trkpt>
      <trkpt lat="46.38846" lon="6.00591">
        <ele>1272.9228515625</ele>
        <time>2010-09-19T08:21:47Z</time>
      </trkpt>
      <trkpt lat="46.38842" lon="6.00589">
        <ele>1272.9228515625</ele>
        <time>2010-09-19T08:21:48Z</time>
      </trkpt>
      <trkpt lat="46.38825" lon="6.00583">
        <ele>1272.4421386719</ele>
        <time>2010-09-19T08:21:52Z</time>
      </trkpt>
      <trkpt lat="46.38797" lon="6.00576">
        <ele>1271.4807128906</ele>
        <time>2010-09-19T08:21:58Z</time>
      </trkpt>
      <trkpt lat="46.38776" lon="6.0058">
        <ele>1272.4421386719</ele>
        <time>2010-09-19T08:22:04Z</time>
      </trkpt>
      <trkpt lat="46.3877" lon="6.00582">
        <ele>1272.4421386719</ele>
        <time>2010-09-19T08:22:06Z</time>
      </trkpt>
      <trkpt lat="46.38755" lon="6.00574">
        <ele>1270.51953125</ele>
        <time>2010-09-19T08:22:10Z</time>
      </trkpt>
      <trkpt lat="46.38732" lon="6.00549">
        <ele>1267.1550292969</ele>
        <time>2010-09-19T08:22:15Z</time>
      </trkpt>
      <trkpt lat="46.38727" lon="6.00544">
        <ele>1267.1550292969</ele>
        <time>2010-09-19T08:22:16Z</time>
      </trkpt>
      <trkpt lat="46.38722" lon="6.00539">
        <ele>1266.6743164062</ele>
        <time>2010-09-19T08:22:17Z</time>
      </trkpt>
      <trkpt lat="46.38708" lon="6.00531">
        <ele>1267.1550292969</ele>
        <time>2010-09-19T08:22:20Z</time>
      </trkpt>
      <trkpt lat="46.38687" lon="6.00506">
        <ele>1267.1550292969</ele>
        <time>2010-09-19T08:22:26Z</time>
      </trkpt>
      <trkpt lat="46.38681" lon="6.00494">
        <ele>1265.7131347656</ele>
        <time>2010-09-19T08:22:28Z</time>
      </trkpt>
      <trkpt lat="46.38673" lon="6.00482">
        <ele>1264.7517089844</ele>
        <time>2010-09-19T08:22:30Z</time>
      </trkpt>
      <trkpt lat="46.38668" lon="6.00476">
        <ele>1264.2709960938</ele>
        <time>2010-09-19T08:22:31Z</time>
      </trkpt>
      <trkpt lat="46.38654" lon="6.00441">
        <ele>1264.7517089844</ele>
        <time>2010-09-19T08:22:36Z</time>
      </trkpt>
      <trkpt lat="46.38646" lon="6.00409">
        <ele>1264.7517089844</ele>
        <time>2010-09-19T08:22:41Z</time>
      </trkpt>
      <trkpt lat="46.38637" lon="6.00395">
        <ele>1264.2709960938</ele>
        <time>2010-09-19T08:22:44Z</time>
      </trkpt>
      <trkpt lat="46.38616" lon="6.00374">
        <ele>1266.6743164062</ele>
        <time>2010-09-19T08:22:51Z</time>
      </trkpt>
      <trkpt lat="46.38612" lon="6.00371">
        <ele>1267.6354980469</ele>
        <time>2010-09-19T08:22:53Z</time>
      </trkpt>
      <trkpt lat="46.386" lon="6.00359">
        <ele>1268.5969238281</ele>
        <time>2010-09-19T08:22:59Z</time>
      </trkpt>
      <trkpt lat="46.38585" lon="6.0035">
        <ele>1269.5583496094</ele>
        <time>2010-09-19T08:23:05Z</time>
      </trkpt>
      <trkpt lat="46.38572" lon="6.00336">
        <ele>1270.51953125</ele>
        <time>2010-09-19T08:23:11Z</time>
      </trkpt>
      <trkpt lat="46.38559" lon="6.00313">
        <ele>1272.4421386719</ele>
        <time>2010-09-19T08:23:19Z</time>
      </trkpt>
      <trkpt lat="46.38551" lon="6.00292">
        <ele>1273.8840332031</ele>
        <time>2010-09-19T08:23:26Z</time>
      </trkpt>
      <trkpt lat="46.3854" lon="6.00279">
        <ele>1274.8454589844</ele>
        <time>2010-09-19T08:23:32Z</time>
      </trkpt>
      <trkpt lat="46.38528" lon="6.0026">
        <ele>1274.8454589844</ele>
        <time>2010-09-19T08:23:38Z</time>
      </trkpt>
      <trkpt lat="46.38517" lon="6.00225">
        <ele>1275.3259277344</ele>
        <time>2010-09-19T08:23:45Z</time>
      </trkpt>
      <trkpt lat="46.38508" lon="6.00178">
        <ele>1275.3259277344</ele>
        <time>2010-09-19T08:23:53Z</time>
      </trkpt>
      <trkpt lat="46.38499" lon="6.0015">
        <ele>1276.2875976562</ele>
        <time>2010-09-19T08:23:59Z</time>
      </trkpt>
      <trkpt lat="46.3849" lon="6.00128">
        <ele>1277.7294921875</ele>
        <time>2010-09-19T08:24:05Z</time>
      </trkpt>
      <trkpt lat="46.38474" lon="6.00107">
        <ele>1278.6909179688</ele>
        <time>2010-09-19T08:24:12Z</time>
      </trkpt>
      <trkpt lat="46.38465" lon="6.00097">
        <ele>1278.6909179688</ele>
        <time>2010-09-19T08:24:15Z</time>
      </trkpt>
      <trkpt lat="46.38436" lon="6.00086">
        <ele>1276.7683105469</ele>
        <time>2010-09-19T08:24:22Z</time>
      </trkpt>
      <trkpt lat="46.38404" lon="6.00079">
        <ele>1275.806640625</ele>
        <time>2010-09-19T08:24:29Z</time>
      </trkpt>
      <trkpt lat="46.38396" lon="6.00075">
        <ele>1275.806640625</ele>
        <time>2010-09-19T08:24:31Z</time>
      </trkpt>
      <trkpt lat="46.3836" lon="6.00069">
        <ele>1275.3259277344</ele>
        <time>2010-09-19T08:24:39Z</time>
      </trkpt>
      <trkpt lat="46.38348" lon="6.00069">
        <ele>1275.806640625</ele>
        <time>2010-09-19T08:24:43Z</time>
      </trkpt>
      <trkpt lat="46.38334" lon="6.00063">
        <ele>1274.3647460938</ele>
        <time>2010-09-19T08:24:47Z</time>
      </trkpt>
      <trkpt lat="46.38319" lon="6.00065">
        <ele>1274.3647460938</ele>
        <time>2010-09-19T08:24:51Z</time>
      </trkpt>
      <trkpt lat="46.38314" lon="6.00077">
        <ele>1275.3259277344</ele>
        <time>2010-09-19T08:24:55Z</time>
      </trkpt>
      <trkpt lat="46.38314" lon="6.00084">
        <ele>1275.3259277344</ele>
        <time>2010-09-19T08:24:57Z</time>
      </trkpt>
      <trkpt lat="46.38308" lon="6.0011">
        <ele>1277.7294921875</ele>
        <time>2010-09-19T08:25:05Z</time>
      </trkpt>
      <trkpt lat="46.38302" lon="6.00121">
        <ele>1278.6909179688</ele>
        <time>2010-09-19T08:25:10Z</time>
      </trkpt>
      <trkpt lat="46.38302" lon="6.00153">
        <ele>1280.6135253906</ele>
        <time>2010-09-19T08:25:20Z</time>
      </trkpt>
      <trkpt lat="46.38304" lon="6.00192">
        <ele>1283.0166015625</ele>
        <time>2010-09-19T08:25:32Z</time>
      </trkpt>
      <trkpt lat="46.38304" lon="6.00218">
        <ele>1283.9780273438</ele>
        <time>2010-09-19T08:25:40Z</time>
      </trkpt>
      <trkpt lat="46.38305" lon="6.00243">
        <ele>1284.939453125</ele>
        <time>2010-09-19T08:25:47Z</time>
      </trkpt>
      <trkpt lat="46.38306" lon="6.00274">
        <ele>1285.419921875</ele>
        <time>2010-09-19T08:25:56Z</time>
      </trkpt>
      <trkpt lat="46.38305" lon="6.00308">
        <ele>1287.8232421875</ele>
        <time>2010-09-19T08:26:06Z</time>
      </trkpt>
      <trkpt lat="46.38301" lon="6.00333">
        <ele>1288.7846679688</ele>
        <time>2010-09-19T08:26:14Z</time>
      </trkpt>
      <trkpt lat="46.38289" lon="6.00369">
        <ele>1289.7458496094</ele>
        <time>2010-09-19T08:26:26Z</time>
      </trkpt>
      <trkpt lat="46.38284" lon="6.00384">
        <ele>1290.70703125</ele>
        <time>2010-09-19T08:26:32Z</time>
      </trkpt>
      <trkpt lat="46.38277" lon="6.004">
        <ele>1291.6684570312</ele>
        <time>2010-09-19T08:26:39Z</time>
      </trkpt>
      <trkpt lat="46.38266" lon="6.00411">
        <ele>1292.6301269531</ele>
        <time>2010-09-19T08:26:45Z</time>
      </trkpt>
      <trkpt lat="46.3825" lon="6.00416">
        <ele>1293.5913085938</ele>
        <time>2010-09-19T08:26:51Z</time>
      </trkpt>
      <trkpt lat="46.38231" lon="6.00413">
        <ele>1295.033203125</ele>
        <time>2010-09-19T08:26:59Z</time>
      </trkpt>
      <trkpt lat="46.38213" lon="6.00407">
        <ele>1296.9558105469</ele>
        <time>2010-09-19T08:27:07Z</time>
      </trkpt>
      <trkpt lat="46.38193" lon="6.00408">
        <ele>1297.9172363281</ele>
        <time>2010-09-19T08:27:15Z</time>
      </trkpt>
      <trkpt lat="46.3818" lon="6.00423">
        <ele>1296.4753417969</ele>
        <time>2010-09-19T08:27:21Z</time>
      </trkpt>
      <trkpt lat="46.3817" lon="6.0044">
        <ele>1296.9558105469</ele>
        <time>2010-09-19T08:27:27Z</time>
      </trkpt>
      <trkpt lat="46.38165" lon="6.00445">
        <ele>1299.3591308594</ele>
        <time>2010-09-19T08:27:32Z</time>
      </trkpt>
      <trkpt lat="46.38158" lon="6.00451">
        <ele>1300.8010253906</ele>
        <time>2010-09-19T08:27:38Z</time>
      </trkpt>
      <trkpt lat="46.38152" lon="6.00455">
        <ele>1301.7624511719</ele>
        <time>2010-09-19T08:27:44Z</time>
      </trkpt>
      <trkpt lat="46.38141" lon="6.00469">
        <ele>1301.7624511719</ele>
        <time>2010-09-19T08:27:50Z</time>
      </trkpt>
      <trkpt lat="46.3814" lon="6.00472">
        <ele>1301.2817382812</ele>
        <time>2010-09-19T08:27:51Z</time>
      </trkpt>
      <trkpt lat="46.38126" lon="6.00491">
        <ele>1300.8010253906</ele>
        <time>2010-09-19T08:27:55Z</time>
      </trkpt>
      <trkpt lat="46.38103" lon="6.00504">
        <ele>1298.3977050781</ele>
        <time>2010-09-19T08:28:01Z</time>
      </trkpt>
      <trkpt lat="46.38099" lon="6.00504">
        <ele>1298.3977050781</ele>
        <time>2010-09-19T08:28:02Z</time>
      </trkpt>
      <trkpt lat="46.38077" lon="6.00511">
        <ele>1298.8784179688</ele>
        <time>2010-09-19T08:28:08Z</time>
      </trkpt>
      <trkpt lat="46.38058" lon="6.00517">
        <ele>1298.8784179688</ele>
        <time>2010-09-19T08:28:13Z</time>
      </trkpt>
      <trkpt lat="46.38045" lon="6.0052">
        <ele>1298.3977050781</ele>
        <time>2010-09-19T08:28:16Z</time>
      </trkpt>
      <trkpt lat="46.38025" lon="6.00511">
        <ele>1297.4365234375</ele>
        <time>2010-09-19T08:28:20Z</time>
      </trkpt>
      <trkpt lat="46.38007" lon="6.00494">
        <ele>1298.3977050781</ele>
        <time>2010-09-19T08:28:25Z</time>
      </trkpt>
      <trkpt lat="46.37997" lon="6.00483">
        <ele>1298.3977050781</ele>
        <time>2010-09-19T08:28:28Z</time>
      </trkpt>
      <trkpt lat="46.37989" lon="6.00475">
        <ele>1297.4365234375</ele>
        <time>2010-09-19T08:28:30Z</time>
      </trkpt>
      <trkpt lat="46.37981" lon="6.00464">
        <ele>1296.9558105469</ele>
        <time>2010-09-19T08:28:32Z</time>
      </trkpt>
      <trkpt lat="46.37973" lon="6.00448">
        <ele>1295.9946289062</ele>
        <time>2010-09-19T08:28:34Z</time>
      </trkpt>
      <trkpt lat="46.37956" lon="6.00403">
        <ele>1295.9946289062</ele>
        <time>2010-09-19T08:28:40Z</time>
      </trkpt>
      <trkpt lat="46.37939" lon="6.0037">
        <ele>1295.033203125</ele>
        <time>2010-09-19T08:28:44Z</time>
      </trkpt>
      <trkpt lat="46.37934" lon="6.00363">
        <ele>1293.5913085938</ele>
        <time>2010-09-19T08:28:45Z</time>
      </trkpt>
      <trkpt lat="46.37916" lon="6.00338">
        <ele>1288.7846679688</ele>
        <time>2010-09-19T08:28:49Z</time>
      </trkpt>
      <trkpt lat="46.37908" lon="6.00325">
        <ele>1286.8618164062</ele>
        <time>2010-09-19T08:28:51Z</time>
      </trkpt>
      <trkpt lat="46.37892" lon="6.00287">
        <ele>1283.9780273438</ele>
        <time>2010-09-19T08:28:55Z</time>
      </trkpt>
      <trkpt lat="46.37886" lon="6.00262">
        <ele>1283.0166015625</ele>
        <time>2010-09-19T08:28:57Z</time>
      </trkpt>
      <trkpt lat="46.37882" lon="6.00218">
        <ele>1279.1713867188</ele>
        <time>2010-09-19T08:29:01Z</time>
      </trkpt>
      <trkpt lat="46.37879" lon="6.00198">
        <ele>1277.7294921875</ele>
        <time>2010-09-19T08:29:03Z</time>
      </trkpt>
      <trkpt lat="46.37862" lon="6.00173">
        <ele>1275.806640625</ele>
        <time>2010-09-19T08:29:07Z</time>
      </trkpt>
      <trkpt lat="46.3784" lon="6.00153">
        <ele>1273.4035644531</ele>
        <time>2010-09-19T08:29:12Z</time>
      </trkpt>
      <trkpt lat="46.37837" lon="6.00142">
        <ele>1274.3647460938</ele>
        <time>2010-09-19T08:29:14Z</time>
      </trkpt>
      <trkpt lat="46.37821" lon="6.0012">
        <ele>1273.8840332031</ele>
        <time>2010-09-19T08:29:20Z</time>
      </trkpt>
      <trkpt lat="46.37815" lon="6.00104">
        <ele>1272.4421386719</ele>
        <time>2010-09-19T08:29:23Z</time>
      </trkpt>
      <trkpt lat="46.37807" lon="6.00081">
        <ele>1270.0388183594</ele>
        <time>2010-09-19T08:29:28Z</time>
      </trkpt>
      <trkpt lat="46.378" lon="6.00059">
        <ele>1267.6354980469</ele>
        <time>2010-09-19T08:29:33Z</time>
      </trkpt>
      <trkpt lat="46.37791" lon="6.00042">
        <ele>1266.6743164062</ele>
        <time>2010-09-19T08:29:37Z</time>
      </trkpt>
      <trkpt lat="46.37782" lon="6.00021">
        <ele>1264.7517089844</ele>
        <time>2010-09-19T08:29:41Z</time>
      </trkpt>
      <trkpt lat="46.37773" lon="6.00005">
        <ele>1263.3098144531</ele>
        <time>2010-09-19T08:29:45Z</time>
      </trkpt>
      <trkpt lat="46.37762" lon="5.99997">
        <ele>1261.3872070312</ele>
        <time>2010-09-19T08:29:48Z</time>
      </trkpt>
      <trkpt lat="46.37747" lon="5.99974">
        <ele>1258.9836425781</ele>
        <time>2010-09-19T08:29:52Z</time>
      </trkpt>
      <trkpt lat="46.3774" lon="5.99947">
        <ele>1257.0610351562</ele>
        <time>2010-09-19T08:29:55Z</time>
      </trkpt>
      <trkpt lat="46.37731" lon="5.99927">
        <ele>1253.6965332031</ele>
        <time>2010-09-19T08:29:58Z</time>
      </trkpt>
      <trkpt lat="46.3772" lon="5.99915">
        <ele>1251.7739257812</ele>
        <time>2010-09-19T08:30:00Z</time>
      </trkpt>
      <trkpt lat="46.37699" lon="5.99898">
        <ele>1250.33203125</ele>
        <time>2010-09-19T08:30:03Z</time>
      </trkpt>
      <trkpt lat="46.3768" lon="5.99891">
        <ele>1252.7351074219</ele>
        <time>2010-09-19T08:30:07Z</time>
      </trkpt>
      <trkpt lat="46.37675" lon="5.9989">
        <ele>1252.7351074219</ele>
        <time>2010-09-19T08:30:08Z</time>
      </trkpt>
      <trkpt lat="46.37667" lon="5.99888">
        <ele>1252.7351074219</ele>
        <time>2010-09-19T08:30:10Z</time>
      </trkpt>
      <trkpt lat="46.37642" lon="5.99864">
        <ele>1251.2932128906</ele>
        <time>2010-09-19T08:30:16Z</time>
      </trkpt>
      <trkpt lat="46.37621" lon="5.99836">
        <ele>1250.8125</ele>
        <time>2010-09-19T08:30:21Z</time>
      </trkpt>
      <trkpt lat="46.37602" lon="5.99808">
        <ele>1249.3706054688</ele>
        <time>2010-09-19T08:30:25Z</time>
      </trkpt>
      <trkpt lat="46.37593" lon="5.99792">
        <ele>1248.4091796875</ele>
        <time>2010-09-19T08:30:27Z</time>
      </trkpt>
      <trkpt lat="46.37582" lon="5.99768">
        <ele>1246.4868164062</ele>
        <time>2010-09-19T08:30:30Z</time>
      </trkpt>
      <trkpt lat="46.37576" lon="5.9975">
        <ele>1244.5639648438</ele>
        <time>2010-09-19T08:30:32Z</time>
      </trkpt>
      <trkpt lat="46.37577" lon="5.99707">
        <ele>1243.1218261719</ele>
        <time>2010-09-19T08:30:36Z</time>
      </trkpt>
      <trkpt lat="46.3758" lon="5.99699">
        <ele>1243.1218261719</ele>
        <time>2010-09-19T08:30:37Z</time>
      </trkpt>
      <trkpt lat="46.37587" lon="5.99684">
        <ele>1243.1218261719</ele>
        <time>2010-09-19T08:30:39Z</time>
      </trkpt>
      <trkpt lat="46.37616" lon="5.99627">
        <ele>1240.7185058594</ele>
        <time>2010-09-19T08:30:47Z</time>
      </trkpt>
      <trkpt lat="46.37632" lon="5.99601">
        <ele>1236.8732910156</ele>
        <time>2010-09-19T08:30:50Z</time>
      </trkpt>
      <trkpt lat="46.3765" lon="5.99573">
        <ele>1235.4313964844</ele>
        <time>2010-09-19T08:30:53Z</time>
      </trkpt>
      <trkpt lat="46.37664" lon="5.9954">
        <ele>1234.4702148438</ele>
        <time>2010-09-19T08:30:57Z</time>
      </trkpt>
      <trkpt lat="46.37668" lon="5.99518">
        <ele>1236.3928222656</ele>
        <time>2010-09-19T08:31:01Z</time>
      </trkpt>
      <trkpt lat="46.37673" lon="5.99481">
        <ele>1238.3154296875</ele>
        <time>2010-09-19T08:31:09Z</time>
      </trkpt>
      <trkpt lat="46.37683" lon="5.99456">
        <ele>1239.7573242188</ele>
        <time>2010-09-19T08:31:16Z</time>
      </trkpt>
      <trkpt lat="46.37695" lon="5.99431">
        <ele>1238.3154296875</ele>
        <time>2010-09-19T08:31:21Z</time>
      </trkpt>
      <trkpt lat="46.37718" lon="5.99386">
        <ele>1238.3154296875</ele>
        <time>2010-09-19T08:31:30Z</time>
      </trkpt>
      <trkpt lat="46.37721" lon="5.99381">
        <ele>1238.3154296875</ele>
        <time>2010-09-19T08:31:31Z</time>
      </trkpt>
      <trkpt lat="46.37747" lon="5.99351">
        <ele>1236.8732910156</ele>
        <time>2010-09-19T08:31:38Z</time>
      </trkpt>
      <trkpt lat="46.37758" lon="5.99339">
        <ele>1237.8347167969</ele>
        <time>2010-09-19T08:31:41Z</time>
      </trkpt>
      <trkpt lat="46.37789" lon="5.99324">
        <ele>1234.9509277344</ele>
        <time>2010-09-19T08:31:47Z</time>
      </trkpt>
      <trkpt lat="46.37808" lon="5.99313">
        <ele>1236.3928222656</ele>
        <time>2010-09-19T08:31:52Z</time>
      </trkpt>
      <trkpt lat="46.37828" lon="5.99282">
        <ele>1236.8732910156</ele>
        <time>2010-09-19T08:32:00Z</time>
      </trkpt>
      <trkpt lat="46.3783" lon="5.99277">
        <ele>1235.912109375</ele>
        <time>2010-09-19T08:32:01Z</time>
      </trkpt>
      <trkpt lat="46.37851" lon="5.99224">
        <ele>1236.8732910156</ele>
        <time>2010-09-19T08:32:10Z</time>
      </trkpt>
      <trkpt lat="46.37854" lon="5.99214">
        <ele>1237.3540039062</ele>
        <time>2010-09-19T08:32:12Z</time>
      </trkpt>
      <trkpt lat="46.37875" lon="5.99181">
        <ele>1237.8347167969</ele>
        <time>2010-09-19T08:32:19Z</time>
      </trkpt>
      <trkpt lat="46.37894" lon="5.99148">
        <ele>1237.8347167969</ele>
        <time>2010-09-19T08:32:26Z</time>
      </trkpt>
      <trkpt lat="46.37913" lon="5.99131">
        <ele>1239.2766113281</ele>
        <time>2010-09-19T08:32:32Z</time>
      </trkpt>
      <trkpt lat="46.37924" lon="5.99115">
        <ele>1240.2380371094</ele>
        <time>2010-09-19T08:32:38Z</time>
      </trkpt>
      <trkpt lat="46.37932" lon="5.99091">
        <ele>1242.1606445312</ele>
        <time>2010-09-19T08:32:46Z</time>
      </trkpt>
      <trkpt lat="46.37939" lon="5.99067">
        <ele>1244.0834960938</ele>
        <time>2010-09-19T08:32:55Z</time>
      </trkpt>
      <trkpt lat="46.37938" lon="5.99047">
        <ele>1246.0061035156</ele>
        <time>2010-09-19T08:33:02Z</time>
      </trkpt>
      <trkpt lat="46.37928" lon="5.99029">
        <ele>1246.4868164062</ele>
        <time>2010-09-19T08:33:09Z</time>
      </trkpt>
      <trkpt lat="46.37919" lon="5.99004">
        <ele>1246.4868164062</ele>
        <time>2010-09-19T08:33:15Z</time>
      </trkpt>
      <trkpt lat="46.37907" lon="5.98968">
        <ele>1246.4868164062</ele>
        <time>2010-09-19T08:33:22Z</time>
      </trkpt>
      <trkpt lat="46.379" lon="5.98942">
        <ele>1245.525390625</ele>
        <time>2010-09-19T08:33:26Z</time>
      </trkpt>
      <trkpt lat="46.379" lon="5.98906">
        <ele>1242.6413574219</ele>
        <time>2010-09-19T08:33:30Z</time>
      </trkpt>
      <trkpt lat="46.37913" lon="5.98862">
        <ele>1243.6025390625</ele>
        <time>2010-09-19T08:33:36Z</time>
      </trkpt>
      <trkpt lat="46.37926" lon="5.98828">
        <ele>1243.1218261719</ele>
        <time>2010-09-19T08:33:43Z</time>
      </trkpt>
      <trkpt lat="46.37928" lon="5.98817">
        <ele>1242.6413574219</ele>
        <time>2010-09-19T08:33:45Z</time>
      </trkpt>
      <trkpt lat="46.37917" lon="5.98798">
        <ele>1241.6799316406</ele>
        <time>2010-09-19T08:33:49Z</time>
      </trkpt>
      <trkpt lat="46.37912" lon="5.98794">
        <ele>1241.6799316406</ele>
        <time>2010-09-19T08:33:50Z</time>
      </trkpt>
      <trkpt lat="46.37898" lon="5.98786">
        <ele>1240.2380371094</ele>
        <time>2010-09-19T08:33:53Z</time>
      </trkpt>
      <trkpt lat="46.37889" lon="5.98788">
        <ele>1239.2766113281</ele>
        <time>2010-09-19T08:33:55Z</time>
      </trkpt>
      <trkpt lat="46.37864" lon="5.98785">
        <ele>1237.8347167969</ele>
        <time>2010-09-19T08:34:00Z</time>
      </trkpt>
      <trkpt lat="46.37851" lon="5.98777">
        <ele>1237.3540039062</ele>
        <time>2010-09-19T08:34:03Z</time>
      </trkpt>
      <trkpt lat="46.37837" lon="5.98765">
        <ele>1235.4313964844</ele>
        <time>2010-09-19T08:34:08Z</time>
      </trkpt>
      <trkpt lat="46.37829" lon="5.9876">
        <ele>1235.4313964844</ele>
        <time>2010-09-19T08:34:13Z</time>
      </trkpt>
      <trkpt lat="46.3782" lon="5.98758">
        <ele>1234.4702148438</ele>
        <time>2010-09-19T08:34:19Z</time>
      </trkpt>
      <trkpt lat="46.37812" lon="5.98755">
        <ele>1232.0668945312</ele>
        <time>2010-09-19T08:34:23Z</time>
      </trkpt>
      <trkpt lat="46.37802" lon="5.98747">
        <ele>1228.2216796875</ele>
        <time>2010-09-19T08:34:27Z</time>
      </trkpt>
      <trkpt lat="46.37795" lon="5.98742">
        <ele>1227.2602539062</ele>
        <time>2010-09-19T08:34:29Z</time>
      </trkpt>
      <trkpt lat="46.37776" lon="5.98723">
        <ele>1223.4150390625</ele>
        <time>2010-09-19T08:34:33Z</time>
      </trkpt>
      <trkpt lat="46.37757" lon="5.98707">
        <ele>1218.1276855469</ele>
        <time>2010-09-19T08:34:36Z</time>
      </trkpt>
      <trkpt lat="46.37735" lon="5.98676">
        <ele>1213.3212890625</ele>
        <time>2010-09-19T08:34:40Z</time>
      </trkpt>
      <trkpt lat="46.37729" lon="5.98638">
        <ele>1210.9177246094</ele>
        <time>2010-09-19T08:34:44Z</time>
      </trkpt>
      <trkpt lat="46.37728" lon="5.98628">
        <ele>1210.9177246094</ele>
        <time>2010-09-19T08:34:45Z</time>
      </trkpt>
      <trkpt lat="46.3772" lon="5.98603">
        <ele>1209.9562988281</ele>
        <time>2010-09-19T08:34:48Z</time>
      </trkpt>
      <trkpt lat="46.37714" lon="5.98587">
        <ele>1209.9562988281</ele>
        <time>2010-09-19T08:34:50Z</time>
      </trkpt>
      <trkpt lat="46.37712" lon="5.98545">
        <ele>1208.9951171875</ele>
        <time>2010-09-19T08:34:55Z</time>
      </trkpt>
      <trkpt lat="46.3772" lon="5.98481">
        <ele>1207.5532226562</ele>
        <time>2010-09-19T08:35:03Z</time>
      </trkpt>
      <trkpt lat="46.37719" lon="5.98442">
        <ele>1206.591796875</ele>
        <time>2010-09-19T08:35:07Z</time>
      </trkpt>
      <trkpt lat="46.3772" lon="5.98423">
        <ele>1205.6306152344</ele>
        <time>2010-09-19T08:35:09Z</time>
      </trkpt>
      <trkpt lat="46.37713" lon="5.98381">
        <ele>1203.7080078125</ele>
        <time>2010-09-19T08:35:13Z</time>
      </trkpt>
      <trkpt lat="46.37709" lon="5.98326">
        <ele>1204.1887207031</ele>
        <time>2010-09-19T08:35:19Z</time>
      </trkpt>
      <trkpt lat="46.37709" lon="5.98301">
        <ele>1206.1110839844</ele>
        <time>2010-09-19T08:35:23Z</time>
      </trkpt>
      <trkpt lat="46.37704" lon="5.98261">
        <ele>1206.1110839844</ele>
        <time>2010-09-19T08:35:30Z</time>
      </trkpt>
      <trkpt lat="46.37703" lon="5.98249">
        <ele>1207.0725097656</ele>
        <time>2010-09-19T08:35:32Z</time>
      </trkpt>
      <trkpt lat="46.37703" lon="5.98243">
        <ele>1206.591796875</ele>
        <time>2010-09-19T08:35:33Z</time>
      </trkpt>
      <trkpt lat="46.37705" lon="5.98199">
        <ele>1209.4758300781</ele>
        <time>2010-09-19T08:35:40Z</time>
      </trkpt>
      <trkpt lat="46.37705" lon="5.98173">
        <ele>1208.9951171875</ele>
        <time>2010-09-19T08:35:44Z</time>
      </trkpt>
      <trkpt lat="46.37704" lon="5.98159">
        <ele>1208.5144042969</ele>
        <time>2010-09-19T08:35:46Z</time>
      </trkpt>
      <trkpt lat="46.37695" lon="5.98122">
        <ele>1207.0725097656</ele>
        <time>2010-09-19T08:35:51Z</time>
      </trkpt>
      <trkpt lat="46.37692" lon="5.98114">
        <ele>1206.591796875</ele>
        <time>2010-09-19T08:35:52Z</time>
      </trkpt>
      <trkpt lat="46.37674" lon="5.98086">
        <ele>1205.1499023438</ele>
        <time>2010-09-19T08:35:56Z</time>
      </trkpt>
      <trkpt lat="46.37663" lon="5.98073">
        <ele>1204.1887207031</ele>
        <time>2010-09-19T08:35:58Z</time>
      </trkpt>
      <trkpt lat="46.37646" lon="5.98044">
        <ele>1201.3046875</ele>
        <time>2010-09-19T08:36:02Z</time>
      </trkpt>
      <trkpt lat="46.37632" lon="5.98016">
        <ele>1196.9787597656</ele>
        <time>2010-09-19T08:36:06Z</time>
      </trkpt>
      <trkpt lat="46.37617" lon="5.97979">
        <ele>1192.6528320312</ele>
        <time>2010-09-19T08:36:10Z</time>
      </trkpt>
      <trkpt lat="46.37613" lon="5.97971">
        <ele>1191.69140625</ele>
        <time>2010-09-19T08:36:11Z</time>
      </trkpt>
      <trkpt lat="46.37597" lon="5.97946">
        <ele>1189.7687988281</ele>
        <time>2010-09-19T08:36:14Z</time>
      </trkpt>
      <trkpt lat="46.37587" lon="5.9793">
        <ele>1188.3269042969</ele>
        <time>2010-09-19T08:36:16Z</time>
      </trkpt>
      <trkpt lat="46.37566" lon="5.9789">
        <ele>1184.9624023438</ele>
        <time>2010-09-19T08:36:21Z</time>
      </trkpt>
      <trkpt lat="46.37539" lon="5.97858">
        <ele>1181.59765625</ele>
        <time>2010-09-19T08:36:26Z</time>
      </trkpt>
      <trkpt lat="46.37504" lon="5.97814">
        <ele>1178.7136230469</ele>
        <time>2010-09-19T08:36:33Z</time>
      </trkpt>
      <trkpt lat="46.37495" lon="5.97803">
        <ele>1177.7521972656</ele>
        <time>2010-09-19T08:36:35Z</time>
      </trkpt>
      <trkpt lat="46.37491" lon="5.97799">
        <ele>1177.2717285156</ele>
        <time>2010-09-19T08:36:36Z</time>
      </trkpt>
      <trkpt lat="46.37478" lon="5.97775">
        <ele>1174.8684082031</ele>
        <time>2010-09-19T08:36:40Z</time>
      </trkpt>
      <trkpt lat="46.37474" lon="5.97758">
        <ele>1173.4265136719</ele>
        <time>2010-09-19T08:36:42Z</time>
      </trkpt>
      <trkpt lat="46.37469" lon="5.97722">
        <ele>1171.984375</ele>
        <time>2010-09-19T08:36:46Z</time>
      </trkpt>
      <trkpt lat="46.3747" lon="5.97705">
        <ele>1171.984375</ele>
        <time>2010-09-19T08:36:48Z</time>
      </trkpt>
      <trkpt lat="46.37465" lon="5.97688">
        <ele>1171.0231933594</ele>
        <time>2010-09-19T08:36:52Z</time>
      </trkpt>
      <trkpt lat="46.3746" lon="5.97693">
        <ele>1171.0231933594</ele>
        <time>2010-09-19T08:36:55Z</time>
      </trkpt>
      <trkpt lat="46.37459" lon="5.97695">
        <ele>1171.0231933594</ele>
        <time>2010-09-19T08:36:56Z</time>
      </trkpt>
      <trkpt lat="46.37451" lon="5.97716">
        <ele>1174.8684082031</ele>
        <time>2010-09-19T08:37:04Z</time>
      </trkpt>
      <trkpt lat="46.37444" lon="5.9771">
        <ele>1175.8295898438</ele>
        <time>2010-09-19T08:37:09Z</time>
      </trkpt>
      <trkpt lat="46.37445" lon="5.97705">
        <ele>1176.3103027344</ele>
        <time>2010-09-19T08:37:11Z</time>
      </trkpt>
      <trkpt lat="46.37445" lon="5.97683">
        <ele>1175.8295898438</ele>
        <time>2010-09-19T08:37:18Z</time>
      </trkpt>
      <trkpt lat="46.37447" lon="5.97679">
        <ele>1175.8295898438</ele>
        <time>2010-09-19T08:37:20Z</time>
      </trkpt>
      <trkpt lat="46.37447" lon="5.97672">
        <ele>1175.3488769531</ele>
        <time>2010-09-19T08:37:24Z</time>
      </trkpt>
      <trkpt lat="46.37444" lon="5.97667">
        <ele>1175.3488769531</ele>
        <time>2010-09-19T08:37:29Z</time>
      </trkpt>
      <trkpt lat="46.37444" lon="5.97655">
        <ele>1174.8684082031</ele>
        <time>2010-09-19T08:37:34Z</time>
      </trkpt>
      <trkpt lat="46.37445" lon="5.9765">
        <ele>1175.3488769531</ele>
        <time>2010-09-19T08:37:36Z</time>
      </trkpt>
      <trkpt lat="46.37445" lon="5.97646">
        <ele>1174.8684082031</ele>
        <time>2010-09-19T08:37:38Z</time>
      </trkpt>
      <trkpt lat="46.37443" lon="5.97635">
        <ele>1173.9069824219</ele>
        <time>2010-09-19T08:37:44Z</time>
      </trkpt>
      <trkpt lat="46.37444" lon="5.97634">
        <ele>1174.3876953125</ele>
        <time>2010-09-19T08:37:54Z</time>
      </trkpt>
      <trkpt lat="46.37446" lon="5.97636">
        <ele>1174.8684082031</ele>
        <time>2010-09-19T08:40:47Z</time>
      </trkpt>
      <trkpt lat="46.37445" lon="5.97635">
        <ele>1174.8684082031</ele>
        <time>2010-09-19T08:41:02Z</time>
      </trkpt>
      <trkpt lat="46.37446" lon="5.97636">
        <ele>1174.8684082031</ele>
        <time>2010-09-19T08:43:35Z</time>
      </trkpt>
      <trkpt lat="46.37434" lon="5.97641">
        <ele>1175.8295898438</ele>
        <time>2010-09-19T08:43:41Z</time>
      </trkpt>
      <trkpt lat="46.37419" lon="5.97651">
        <ele>1175.8295898438</ele>
        <time>2010-09-19T08:43:47Z</time>
      </trkpt>
      <trkpt lat="46.37413" lon="5.97668">
        <ele>1177.7521972656</ele>
        <time>2010-09-19T08:43:52Z</time>
      </trkpt>
      <trkpt lat="46.37404" lon="5.97684">
        <ele>1179.6748046875</ele>
        <time>2010-09-19T08:43:59Z</time>
      </trkpt>
      <trkpt lat="46.37397" lon="5.97699">
        <ele>1181.59765625</ele>
        <time>2010-09-19T08:44:06Z</time>
      </trkpt>
      <trkpt lat="46.37389" lon="5.97716">
        <ele>1183.5202636719</ele>
        <time>2010-09-19T08:44:13Z</time>
      </trkpt>
      <trkpt lat="46.37384" lon="5.9773">
        <ele>1184.9624023438</ele>
        <time>2010-09-19T08:44:19Z</time>
      </trkpt>
      <trkpt lat="46.37374" lon="5.9775">
        <ele>1186.404296875</ele>
        <time>2010-09-19T08:44:28Z</time>
      </trkpt>
      <trkpt lat="46.37367" lon="5.97765">
        <ele>1187.8461914062</ele>
        <time>2010-09-19T08:44:35Z</time>
      </trkpt>
      <trkpt lat="46.37361" lon="5.97779">
        <ele>1188.8076171875</ele>
        <time>2010-09-19T08:44:42Z</time>
      </trkpt>
      <trkpt lat="46.37353" lon="5.9779">
        <ele>1190.7299804688</ele>
        <time>2010-09-19T08:44:49Z</time>
      </trkpt>
      <trkpt lat="46.37342" lon="5.97803">
        <ele>1192.6528320312</ele>
        <time>2010-09-19T08:44:57Z</time>
      </trkpt>
      <trkpt lat="46.37331" lon="5.97811">
        <ele>1194.5751953125</ele>
        <time>2010-09-19T08:45:05Z</time>
      </trkpt>
      <trkpt lat="46.37317" lon="5.97818">
        <ele>1196.9787597656</ele>
        <time>2010-09-19T08:45:13Z</time>
      </trkpt>
      <trkpt lat="46.37311" lon="5.9782">
        <ele>1197.4594726562</ele>
        <time>2010-09-19T08:45:16Z</time>
      </trkpt>
      <trkpt lat="46.37302" lon="5.97814">
        <ele>1197.4594726562</ele>
        <time>2010-09-19T08:45:20Z</time>
      </trkpt>
      <trkpt lat="46.37287" lon="5.97802">
        <ele>1195.5366210938</ele>
        <time>2010-09-19T08:45:24Z</time>
      </trkpt>
      <trkpt lat="46.3727" lon="5.9779">
        <ele>1195.0559082031</ele>
        <time>2010-09-19T08:45:29Z</time>
      </trkpt>
      <trkpt lat="46.37259" lon="5.97796">
        <ele>1193.6140136719</ele>
        <time>2010-09-19T08:45:33Z</time>
      </trkpt>
      <trkpt lat="46.37256" lon="5.978">
        <ele>1192.6528320312</ele>
        <time>2010-09-19T08:45:34Z</time>
      </trkpt>
      <trkpt lat="46.37249" lon="5.97808">
        <ele>1191.2106933594</ele>
        <time>2010-09-19T08:45:36Z</time>
      </trkpt>
      <trkpt lat="46.37233" lon="5.97836">
        <ele>1189.2880859375</ele>
        <time>2010-09-19T08:45:41Z</time>
      </trkpt>
      <trkpt lat="46.37226" lon="5.97868">
        <ele>1189.7687988281</ele>
        <time>2010-09-19T08:45:46Z</time>
      </trkpt>
      <trkpt lat="46.37225" lon="5.97903">
        <ele>1189.2880859375</ele>
        <time>2010-09-19T08:45:53Z</time>
      </trkpt>
      <trkpt lat="46.37225" lon="5.97941">
        <ele>1189.7687988281</ele>
        <time>2010-09-19T08:46:01Z</time>
      </trkpt>
      <trkpt lat="46.37222" lon="5.97976">
        <ele>1189.7687988281</ele>
        <time>2010-09-19T08:46:09Z</time>
      </trkpt>
      <trkpt lat="46.37215" lon="5.97992">
        <ele>1189.7687988281</ele>
        <time>2010-09-19T08:46:15Z</time>
      </trkpt>
      <trkpt lat="46.37214" lon="5.97992">
        <ele>1189.7687988281</ele>
        <time>2010-09-19T08:46:20Z</time>
      </trkpt>
      <trkpt lat="46.37214" lon="5.97992">
        <ele>1190.2495117188</ele>
        <time>2010-09-19T08:46:21Z</time>
      </trkpt>
      <trkpt lat="46.37209" lon="5.9799">
        <ele>1191.69140625</ele>
        <time>2010-09-19T08:46:28Z</time>
      </trkpt>
      <trkpt lat="46.3721" lon="5.97988">
        <ele>1192.6528320312</ele>
        <time>2010-09-19T08:46:33Z</time>
      </trkpt>
      <trkpt lat="46.37206" lon="5.9799">
        <ele>1194.5751953125</ele>
        <time>2010-09-19T08:46:40Z</time>
      </trkpt>
      <trkpt lat="46.37203" lon="5.97991">
        <ele>1195.5366210938</ele>
        <time>2010-09-19T08:46:46Z</time>
      </trkpt>
      <trkpt lat="46.372" lon="5.97993">
        <ele>1196.9787597656</ele>
        <time>2010-09-19T08:46:55Z</time>
      </trkpt>
      <trkpt lat="46.37196" lon="5.97993">
        <ele>1197.9401855469</ele>
        <time>2010-09-19T08:47:02Z</time>
      </trkpt>
      <trkpt lat="46.37192" lon="5.97992">
        <ele>1199.8627929688</ele>
        <time>2010-09-19T08:47:08Z</time>
      </trkpt>
      <trkpt lat="46.37189" lon="5.97987">
        <ele>1200.8239746094</ele>
        <time>2010-09-19T08:47:14Z</time>
      </trkpt>
      <trkpt lat="46.37189" lon="5.97986">
        <ele>1201.3046875</ele>
        <time>2010-09-19T08:47:15Z</time>
      </trkpt>
      <trkpt lat="46.37185" lon="5.97983">
        <ele>1202.2658691406</ele>
        <time>2010-09-19T08:47:20Z</time>
      </trkpt>
      <trkpt lat="46.37178" lon="5.97978">
        <ele>1202.2658691406</ele>
        <time>2010-09-19T08:47:26Z</time>
      </trkpt>
      <trkpt lat="46.37174" lon="5.97968">
        <ele>1202.7465820312</ele>
        <time>2010-09-19T08:47:32Z</time>
      </trkpt>
      <trkpt lat="46.37173" lon="5.97966">
        <ele>1203.2272949219</ele>
        <time>2010-09-19T08:47:33Z</time>
      </trkpt>
      <trkpt lat="46.37164" lon="5.97954">
        <ele>1205.1499023438</ele>
        <time>2010-09-19T08:47:41Z</time>
      </trkpt>
      <trkpt lat="46.37158" lon="5.97939">
        <ele>1206.591796875</ele>
        <time>2010-09-19T08:47:47Z</time>
      </trkpt>
      <trkpt lat="46.37151" lon="5.97929">
        <ele>1207.0725097656</ele>
        <time>2010-09-19T08:47:53Z</time>
      </trkpt>
      <trkpt lat="46.37138" lon="5.9792">
        <ele>1205.1499023438</ele>
        <time>2010-09-19T08:47:59Z</time>
      </trkpt>
      <trkpt lat="46.37131" lon="5.97913">
        <ele>1201.7854003906</ele>
        <time>2010-09-19T08:48:02Z</time>
      </trkpt>
      <trkpt lat="46.37124" lon="5.97906">
        <ele>1200.8239746094</ele>
        <time>2010-09-19T08:48:04Z</time>
      </trkpt>
      <trkpt lat="46.37109" lon="5.97895">
        <ele>1199.3820800781</ele>
        <time>2010-09-19T08:48:08Z</time>
      </trkpt>
      <trkpt lat="46.37096" lon="5.97885">
        <ele>1198.9013671875</ele>
        <time>2010-09-19T08:48:12Z</time>
      </trkpt>
      <trkpt lat="46.37082" lon="5.9786">
        <ele>1196.9787597656</ele>
        <time>2010-09-19T08:48:17Z</time>
      </trkpt>
      <trkpt lat="46.37071" lon="5.97854">
        <ele>1194.5751953125</ele>
        <time>2010-09-19T08:48:20Z</time>
      </trkpt>
      <trkpt lat="46.37062" lon="5.97859">
        <ele>1193.1333007812</ele>
        <time>2010-09-19T08:48:22Z</time>
      </trkpt>
      <trkpt lat="46.37045" lon="5.97865">
        <ele>1194.0947265625</ele>
        <time>2010-09-19T08:48:27Z</time>
      </trkpt>
      <trkpt lat="46.37032" lon="5.97855">
        <ele>1194.0947265625</ele>
        <time>2010-09-19T08:48:31Z</time>
      </trkpt>
      <trkpt lat="46.37024" lon="5.9784">
        <ele>1193.6140136719</ele>
        <time>2010-09-19T08:48:36Z</time>
      </trkpt>
      <trkpt lat="46.37022" lon="5.97836">
        <ele>1194.5751953125</ele>
        <time>2010-09-19T08:48:41Z</time>
      </trkpt>
      <trkpt lat="46.3702" lon="5.97835">
        <ele>1194.5751953125</ele>
        <time>2010-09-19T08:48:43Z</time>
      </trkpt>
      <trkpt lat="46.37014" lon="5.97829">
        <ele>1196.017578125</ele>
        <time>2010-09-19T08:48:47Z</time>
      </trkpt>
      <trkpt lat="46.37005" lon="5.97816">
        <ele>1197.9401855469</ele>
        <time>2010-09-19T08:48:54Z</time>
      </trkpt>
      <trkpt lat="46.37002" lon="5.97812">
        <ele>1198.9013671875</ele>
        <time>2010-09-19T08:48:56Z</time>
      </trkpt>
      <trkpt lat="46.36995" lon="5.97804">
        <ele>1199.3820800781</ele>
        <time>2010-09-19T08:49:02Z</time>
      </trkpt>
      <trkpt lat="46.36991" lon="5.97801">
        <ele>1199.8627929688</ele>
        <time>2010-09-19T08:49:05Z</time>
      </trkpt>
      <trkpt lat="46.36976" lon="5.97802">
        <ele>1200.8239746094</ele>
        <time>2010-09-19T08:49:13Z</time>
      </trkpt>
      <trkpt lat="46.36968" lon="5.97803">
        <ele>1201.7854003906</ele>
        <time>2010-09-19T08:49:18Z</time>
      </trkpt>
      <trkpt lat="46.36966" lon="5.97804">
        <ele>1202.2658691406</ele>
        <time>2010-09-19T08:49:19Z</time>
      </trkpt>
      <trkpt lat="46.36959" lon="5.97806">
        <ele>1202.7465820312</ele>
        <time>2010-09-19T08:49:26Z</time>
      </trkpt>
      <trkpt lat="46.36949" lon="5.97808">
        <ele>1203.7080078125</ele>
        <time>2010-09-19T08:49:31Z</time>
      </trkpt>
      <trkpt lat="46.36942" lon="5.9781">
        <ele>1204.1887207031</ele>
        <time>2010-09-19T08:49:36Z</time>
      </trkpt>
      <trkpt lat="46.36937" lon="5.97811">
        <ele>1204.6691894531</ele>
        <time>2010-09-19T08:49:41Z</time>
      </trkpt>
      <trkpt lat="46.36931" lon="5.97813">
        <ele>1205.1499023438</ele>
        <time>2010-09-19T08:49:45Z</time>
      </trkpt>
      <trkpt lat="46.36922" lon="5.97814">
        <ele>1205.6306152344</ele>
        <time>2010-09-19T08:49:53Z</time>
      </trkpt>
      <trkpt lat="46.36915" lon="5.97817">
        <ele>1204.6691894531</ele>
        <time>2010-09-19T08:49:58Z</time>
      </trkpt>
      <trkpt lat="46.36911" lon="5.97818">
        <ele>1206.1110839844</ele>
        <time>2010-09-19T08:50:01Z</time>
      </trkpt>
      <trkpt lat="46.36902" lon="5.97822">
        <ele>1207.5532226562</ele>
        <time>2010-09-19T08:50:07Z</time>
      </trkpt>
      <trkpt lat="46.369" lon="5.97823">
        <ele>1208.0339355469</ele>
        <time>2010-09-19T08:50:09Z</time>
      </trkpt>
      <trkpt lat="46.36898" lon="5.97825">
        <ele>1208.5144042969</ele>
        <time>2010-09-19T08:50:12Z</time>
      </trkpt>
      <trkpt lat="46.36886" lon="5.97837">
        <ele>1208.9951171875</ele>
        <time>2010-09-19T08:50:19Z</time>
      </trkpt>
      <trkpt lat="46.36875" lon="5.97852">
        <ele>1208.0339355469</ele>
        <time>2010-09-19T08:50:24Z</time>
      </trkpt>
      <trkpt lat="46.36864" lon="5.97869">
        <ele>1208.5144042969</ele>
        <time>2010-09-19T08:50:29Z</time>
      </trkpt>
      <trkpt lat="46.36859" lon="5.97878">
        <ele>1208.5144042969</ele>
        <time>2010-09-19T08:50:32Z</time>
      </trkpt>
      <trkpt lat="46.36855" lon="5.97887">
        <ele>1209.9562988281</ele>
        <time>2010-09-19T08:50:38Z</time>
      </trkpt>
      <trkpt lat="46.36849" lon="5.97893">
        <ele>1211.3984375</ele>
        <time>2010-09-19T08:50:45Z</time>
      </trkpt>
      <trkpt lat="46.36839" lon="5.97898">
        <ele>1213.3212890625</ele>
        <time>2010-09-19T08:50:53Z</time>
      </trkpt>
      <trkpt lat="46.36835" lon="5.979">
        <ele>1213.8017578125</ele>
        <time>2010-09-19T08:50:57Z</time>
      </trkpt>
      <trkpt lat="46.36831" lon="5.97902">
        <ele>1214.7631835938</ele>
        <time>2010-09-19T08:51:04Z</time>
      </trkpt>
      <trkpt lat="46.36828" lon="5.97906">
        <ele>1215.2438964844</ele>
        <time>2010-09-19T08:51:09Z</time>
      </trkpt>
      <trkpt lat="46.36827" lon="5.97909">
        <ele>1215.724609375</ele>
        <time>2010-09-19T08:51:11Z</time>
      </trkpt>
      <trkpt lat="46.36818" lon="5.9792">
        <ele>1216.6857910156</ele>
        <time>2010-09-19T08:51:19Z</time>
      </trkpt>
      <trkpt lat="46.3681" lon="5.97923">
        <ele>1217.1665039062</ele>
        <time>2010-09-19T08:51:24Z</time>
      </trkpt>
      <trkpt lat="46.36798" lon="5.97928">
        <ele>1216.6857910156</ele>
        <time>2010-09-19T08:51:29Z</time>
      </trkpt>
      <trkpt lat="46.36786" lon="5.97942">
        <ele>1215.724609375</ele>
        <time>2010-09-19T08:51:33Z</time>
      </trkpt>
      <trkpt lat="46.36776" lon="5.97962">
        <ele>1212.8405761719</ele>
        <time>2010-09-19T08:51:36Z</time>
      </trkpt>
      <trkpt lat="46.3676" lon="5.97986">
        <ele>1208.9951171875</ele>
        <time>2010-09-19T08:51:41Z</time>
      </trkpt>
      <trkpt lat="46.36746" lon="5.97984">
        <ele>1208.0339355469</ele>
        <time>2010-09-19T08:51:45Z</time>
      </trkpt>
      <trkpt lat="46.36743" lon="5.97972">
        <ele>1208.5144042969</ele>
        <time>2010-09-19T08:51:49Z</time>
      </trkpt>
      <trkpt lat="46.36744" lon="5.97966">
        <ele>1208.9951171875</ele>
        <time>2010-09-19T08:51:52Z</time>
      </trkpt>
      <trkpt lat="46.36745" lon="5.9796">
        <ele>1208.9951171875</ele>
        <time>2010-09-19T08:51:54Z</time>
      </trkpt>
      <trkpt lat="46.36747" lon="5.97948">
        <ele>1209.4758300781</ele>
        <time>2010-09-19T08:51:58Z</time>
      </trkpt>
      <trkpt lat="46.36749" lon="5.97937">
        <ele>1210.4370117188</ele>
        <time>2010-09-19T08:52:02Z</time>
      </trkpt>
      <trkpt lat="46.36751" lon="5.97911">
        <ele>1210.4370117188</ele>
        <time>2010-09-19T08:52:09Z</time>
      </trkpt>
      <trkpt lat="46.36752" lon="5.97886">
        <ele>1206.591796875</ele>
        <time>2010-09-19T08:52:14Z</time>
      </trkpt>
      <trkpt lat="46.36752" lon="5.97879">
        <ele>1205.6306152344</ele>
        <time>2010-09-19T08:52:15Z</time>
      </trkpt>
      <trkpt lat="46.36754" lon="5.97854">
        <ele>1201.3046875</ele>
        <time>2010-09-19T08:52:19Z</time>
      </trkpt>
      <trkpt lat="46.36756" lon="5.97835">
        <ele>1199.3820800781</ele>
        <time>2010-09-19T08:52:23Z</time>
      </trkpt>
      <trkpt lat="46.36765" lon="5.97834">
        <ele>1199.8627929688</ele>
        <time>2010-09-19T08:52:29Z</time>
      </trkpt>
      <trkpt lat="46.36769" lon="5.97834">
        <ele>1200.8239746094</ele>
        <time>2010-09-19T08:52:36Z</time>
      </trkpt>
      <trkpt lat="46.36763" lon="5.97834">
        <ele>1202.2658691406</ele>
        <time>2010-09-19T08:52:44Z</time>
      </trkpt>
      <trkpt lat="46.36761" lon="5.97834">
        <ele>1204.1887207031</ele>
        <time>2010-09-19T08:52:51Z</time>
      </trkpt>
      <trkpt lat="46.36755" lon="5.97828">
        <ele>1205.1499023438</ele>
        <time>2010-09-19T08:52:59Z</time>
      </trkpt>
      <trkpt lat="46.36751" lon="5.97821">
        <ele>1207.0725097656</ele>
        <time>2010-09-19T08:53:06Z</time>
      </trkpt>
      <trkpt lat="46.36745" lon="5.97815">
        <ele>1208.5144042969</ele>
        <time>2010-09-19T08:53:15Z</time>
      </trkpt>
      <trkpt lat="46.36739" lon="5.97813">
        <ele>1209.9562988281</ele>
        <time>2010-09-19T08:53:22Z</time>
      </trkpt>
      <trkpt lat="46.36733" lon="5.9781">
        <ele>1210.9177246094</ele>
        <time>2010-09-19T08:53:29Z</time>
      </trkpt>
      <trkpt lat="46.36731" lon="5.9781">
        <ele>1211.3984375</ele>
        <time>2010-09-19T08:53:32Z</time>
      </trkpt>
      <trkpt lat="46.36725" lon="5.97804">
        <ele>1210.9177246094</ele>
        <time>2010-09-19T08:53:36Z</time>
      </trkpt>
      <trkpt lat="46.36714" lon="5.97792">
        <ele>1207.0725097656</ele>
        <time>2010-09-19T08:53:41Z</time>
      </trkpt>
      <trkpt lat="46.367" lon="5.97773">
        <ele>1204.1887207031</ele>
        <time>2010-09-19T08:53:48Z</time>
      </trkpt>
      <trkpt lat="46.36695" lon="5.97763">
        <ele>1202.2658691406</ele>
        <time>2010-09-19T08:53:53Z</time>
      </trkpt>
      <trkpt lat="46.36696" lon="5.97759">
        <ele>1202.2658691406</ele>
        <time>2010-09-19T08:54:01Z</time>
      </trkpt>
      <trkpt lat="46.36694" lon="5.97759">
        <ele>1202.2658691406</ele>
        <time>2010-09-19T08:54:11Z</time>
      </trkpt>
      <trkpt lat="46.36691" lon="5.9776">
        <ele>1202.7465820312</ele>
        <time>2010-09-19T08:54:23Z</time>
      </trkpt>
      <trkpt lat="46.36688" lon="5.97752">
        <ele>1200.3435058594</ele>
        <time>2010-09-19T08:54:27Z</time>
      </trkpt>
      <trkpt lat="46.36685" lon="5.97745">
        <ele>1198.4206542969</ele>
        <time>2010-09-19T08:54:30Z</time>
      </trkpt>
      <trkpt lat="46.36677" lon="5.97718">
        <ele>1193.6140136719</ele>
        <time>2010-09-19T08:54:34Z</time>
      </trkpt>
      <trkpt lat="46.36676" lon="5.97701">
        <ele>1193.6140136719</ele>
        <time>2010-09-19T08:54:36Z</time>
      </trkpt>
      <trkpt lat="46.3667" lon="5.97664">
        <ele>1190.2495117188</ele>
        <time>2010-09-19T08:54:41Z</time>
      </trkpt>
      <trkpt lat="46.36663" lon="5.97641">
        <ele>1186.404296875</ele>
        <time>2010-09-19T08:54:44Z</time>
      </trkpt>
      <trkpt lat="46.3666" lon="5.97631">
        <ele>1184.9624023438</ele>
        <time>2010-09-19T08:54:45Z</time>
      </trkpt>
      <trkpt lat="46.36655" lon="5.97612">
        <ele>1181.59765625</ele>
        <time>2010-09-19T08:54:47Z</time>
      </trkpt>
      <trkpt lat="46.36651" lon="5.976">
        <ele>1180.1557617188</ele>
        <time>2010-09-19T08:54:49Z</time>
      </trkpt>
      <trkpt lat="46.36645" lon="5.976">
        <ele>1179.6748046875</ele>
        <time>2010-09-19T08:54:52Z</time>
      </trkpt>
      <trkpt lat="46.36642" lon="5.97609">
        <ele>1180.6364746094</ele>
        <time>2010-09-19T08:54:55Z</time>
      </trkpt>
      <trkpt lat="46.36639" lon="5.97644">
        <ele>1180.6364746094</ele>
        <time>2010-09-19T08:55:01Z</time>
      </trkpt>
      <trkpt lat="46.36635" lon="5.97687">
        <ele>1179.6748046875</ele>
        <time>2010-09-19T08:55:06Z</time>
      </trkpt>
      <trkpt lat="46.36621" lon="5.97735">
        <ele>1179.1940917969</ele>
        <time>2010-09-19T08:55:12Z</time>
      </trkpt>
      <trkpt lat="46.3661" lon="5.97765">
        <ele>1179.1940917969</ele>
        <time>2010-09-19T08:55:16Z</time>
      </trkpt>
      <trkpt lat="46.36593" lon="5.97812">
        <ele>1178.2329101562</ele>
        <time>2010-09-19T08:55:22Z</time>
      </trkpt>
      <trkpt lat="46.36573" lon="5.97838">
        <ele>1177.2717285156</ele>
        <time>2010-09-19T08:55:26Z</time>
      </trkpt>
      <trkpt lat="46.36557" lon="5.97835">
        <ele>1177.7521972656</ele>
        <time>2010-09-19T08:55:29Z</time>
      </trkpt>
      <trkpt lat="46.3653" lon="5.9781">
        <ele>1178.2329101562</ele>
        <time>2010-09-19T08:55:35Z</time>
      </trkpt>
      <trkpt lat="46.36507" lon="5.97784">
        <ele>1177.2717285156</ele>
        <time>2010-09-19T08:55:40Z</time>
      </trkpt>
      <trkpt lat="46.36478" lon="5.97745">
        <ele>1176.791015625</ele>
        <time>2010-09-19T08:55:46Z</time>
      </trkpt>
      <trkpt lat="46.3645" lon="5.97704">
        <ele>1176.3103027344</ele>
        <time>2010-09-19T08:55:52Z</time>
      </trkpt>
      <trkpt lat="46.36424" lon="5.97666">
        <ele>1176.3103027344</ele>
        <time>2010-09-19T08:55:58Z</time>
      </trkpt>
      <trkpt lat="46.36396" lon="5.97632">
        <ele>1175.3488769531</ele>
        <time>2010-09-19T08:56:04Z</time>
      </trkpt>
      <trkpt lat="46.36361" lon="5.97594">
        <ele>1172.9458007812</ele>
        <time>2010-09-19T08:56:10Z</time>
      </trkpt>
      <trkpt lat="46.36322" lon="5.97559">
        <ele>1172.4650878906</ele>
        <time>2010-09-19T08:56:16Z</time>
      </trkpt>
      <trkpt lat="46.36306" lon="5.97546">
        <ele>1172.9458007812</ele>
        <time>2010-09-19T08:56:19Z</time>
      </trkpt>
      <trkpt lat="46.36282" lon="5.97514">
        <ele>1175.8295898438</ele>
        <time>2010-09-19T08:56:25Z</time>
      </trkpt>
      <trkpt lat="46.36279" lon="5.97508">
        <ele>1176.3103027344</ele>
        <time>2010-09-19T08:56:26Z</time>
      </trkpt>
      <trkpt lat="46.36266" lon="5.97485">
        <ele>1177.2717285156</ele>
        <time>2010-09-19T08:56:31Z</time>
      </trkpt>
      <trkpt lat="46.3625" lon="5.9747">
        <ele>1177.2717285156</ele>
        <time>2010-09-19T08:56:36Z</time>
      </trkpt>
      <trkpt lat="46.36222" lon="5.97465">
        <ele>1176.791015625</ele>
        <time>2010-09-19T08:56:41Z</time>
      </trkpt>
      <trkpt lat="46.3619" lon="5.97439">
        <ele>1174.3876953125</ele>
        <time>2010-09-19T08:56:46Z</time>
      </trkpt>
      <trkpt lat="46.36186" lon="5.97433">
        <ele>1175.3488769531</ele>
        <time>2010-09-19T08:56:47Z</time>
      </trkpt>
      <trkpt lat="46.36164" lon="5.9739">
        <ele>1175.8295898438</ele>
        <time>2010-09-19T08:56:53Z</time>
      </trkpt>
      <trkpt lat="46.36155" lon="5.97377">
        <ele>1175.8295898438</ele>
        <time>2010-09-19T08:56:55Z</time>
      </trkpt>
      <trkpt lat="46.36148" lon="5.97362">
        <ele>1175.8295898438</ele>
        <time>2010-09-19T08:56:57Z</time>
      </trkpt>
      <trkpt lat="46.36136" lon="5.97338">
        <ele>1177.2717285156</ele>
        <time>2010-09-19T08:57:01Z</time>
      </trkpt>
      <trkpt lat="46.36114" lon="5.97324">
        <ele>1177.2717285156</ele>
        <time>2010-09-19T08:57:06Z</time>
      </trkpt>
      <trkpt lat="46.36076" lon="5.97313">
        <ele>1177.2717285156</ele>
        <time>2010-09-19T08:57:13Z</time>
      </trkpt>
      <trkpt lat="46.36071" lon="5.9731">
        <ele>1177.2717285156</ele>
        <time>2010-09-19T08:57:14Z</time>
      </trkpt>
      <trkpt lat="46.36053" lon="5.97299">
        <ele>1177.7521972656</ele>
        <time>2010-09-19T08:57:18Z</time>
      </trkpt>
      <trkpt lat="46.36032" lon="5.97285">
        <ele>1178.7136230469</ele>
        <time>2010-09-19T08:57:24Z</time>
      </trkpt>
      <trkpt lat="46.36016" lon="5.97275">
        <ele>1179.6748046875</ele>
        <time>2010-09-19T08:57:30Z</time>
      </trkpt>
      <trkpt lat="46.36005" lon="5.97261">
        <ele>1181.59765625</ele>
        <time>2010-09-19T08:57:36Z</time>
      </trkpt>
      <trkpt lat="46.36" lon="5.97252">
        <ele>1183.0395507812</ele>
        <time>2010-09-19T08:57:40Z</time>
      </trkpt>
      <trkpt lat="46.35984" lon="5.97238">
        <ele>1183.5202636719</ele>
        <time>2010-09-19T08:57:48Z</time>
      </trkpt>
      <trkpt lat="46.35972" lon="5.97223">
        <ele>1185.4428710938</ele>
        <time>2010-09-19T08:57:54Z</time>
      </trkpt>
      <trkpt lat="46.3596" lon="5.9721">
        <ele>1186.884765625</ele>
        <time>2010-09-19T08:58:00Z</time>
      </trkpt>
      <trkpt lat="46.35951" lon="5.972">
        <ele>1187.8461914062</ele>
        <time>2010-09-19T08:58:05Z</time>
      </trkpt>
      <trkpt lat="46.35941" lon="5.97189">
        <ele>1189.2880859375</ele>
        <time>2010-09-19T08:58:10Z</time>
      </trkpt>
      <trkpt lat="46.35928" lon="5.97179">
        <ele>1188.8076171875</ele>
        <time>2010-09-19T08:58:14Z</time>
      </trkpt>
      <trkpt lat="46.35921" lon="5.9717">
        <ele>1188.8076171875</ele>
        <time>2010-09-19T08:58:16Z</time>
      </trkpt>
      <trkpt lat="46.35904" lon="5.97152">
        <ele>1188.3269042969</ele>
        <time>2010-09-19T08:58:21Z</time>
      </trkpt>
      <trkpt lat="46.3588" lon="5.9712">
        <ele>1191.2106933594</ele>
        <time>2010-09-19T08:58:31Z</time>
      </trkpt>
      <trkpt lat="46.35867" lon="5.97106">
        <ele>1191.2106933594</ele>
        <time>2010-09-19T08:58:37Z</time>
      </trkpt>
      <trkpt lat="46.35855" lon="5.9709">
        <ele>1192.6528320312</ele>
        <time>2010-09-19T08:58:43Z</time>
      </trkpt>
      <trkpt lat="46.35843" lon="5.97079">
        <ele>1193.1333007812</ele>
        <time>2010-09-19T08:58:48Z</time>
      </trkpt>
      <trkpt lat="46.3583" lon="5.9707">
        <ele>1194.5751953125</ele>
        <time>2010-09-19T08:58:53Z</time>
      </trkpt>
      <trkpt lat="46.35818" lon="5.97058">
        <ele>1196.017578125</ele>
        <time>2010-09-19T08:58:58Z</time>
      </trkpt>
      <trkpt lat="46.35813" lon="5.97052">
        <ele>1196.9787597656</ele>
        <time>2010-09-19T08:59:01Z</time>
      </trkpt>
      <trkpt lat="46.35807" lon="5.97044">
        <ele>1197.4594726562</ele>
        <time>2010-09-19T08:59:05Z</time>
      </trkpt>
      <trkpt lat="46.35792" lon="5.97022">
        <ele>1199.3820800781</ele>
        <time>2010-09-19T08:59:13Z</time>
      </trkpt>
      <trkpt lat="46.35783" lon="5.97007">
        <ele>1200.3435058594</ele>
        <time>2010-09-19T08:59:19Z</time>
      </trkpt>
      <trkpt lat="46.35773" lon="5.96994">
        <ele>1202.7465820312</ele>
        <time>2010-09-19T08:59:25Z</time>
      </trkpt>
      <trkpt lat="46.35762" lon="5.96976">
        <ele>1204.1887207031</ele>
        <time>2010-09-19T08:59:32Z</time>
      </trkpt>
      <trkpt lat="46.35748" lon="5.96956">
        <ele>1203.7080078125</ele>
        <time>2010-09-19T08:59:38Z</time>
      </trkpt>
      <trkpt lat="46.35725" lon="5.96931">
        <ele>1201.3046875</ele>
        <time>2010-09-19T08:59:44Z</time>
      </trkpt>
      <trkpt lat="46.35701" lon="5.96912">
        <ele>1199.3820800781</ele>
        <time>2010-09-19T08:59:48Z</time>
      </trkpt>
      <trkpt lat="46.35672" lon="5.96891">
        <ele>1197.9401855469</ele>
        <time>2010-09-19T08:59:53Z</time>
      </trkpt>
      <trkpt lat="46.35633" lon="5.96872">
        <ele>1196.017578125</ele>
        <time>2010-09-19T08:59:58Z</time>
      </trkpt>
      <trkpt lat="46.35612" lon="5.96864">
        <ele>1195.0559082031</ele>
        <time>2010-09-19T09:00:01Z</time>
      </trkpt>
      <trkpt lat="46.35572" lon="5.9684">
        <ele>1193.1333007812</ele>
        <time>2010-09-19T09:00:07Z</time>
      </trkpt>
      <trkpt lat="46.35538" lon="5.96816">
        <ele>1189.7687988281</ele>
        <time>2010-09-19T09:00:11Z</time>
      </trkpt>
      <trkpt lat="46.35522" lon="5.96804">
        <ele>1188.8076171875</ele>
        <time>2010-09-19T09:00:13Z</time>
      </trkpt>
      <trkpt lat="46.35504" lon="5.96794">
        <ele>1187.8461914062</ele>
        <time>2010-09-19T09:00:15Z</time>
      </trkpt>
      <trkpt lat="46.35466" lon="5.96785">
        <ele>1185.9235839844</ele>
        <time>2010-09-19T09:00:19Z</time>
      </trkpt>
      <trkpt lat="46.35434" lon="5.96778">
        <ele>1183.0395507812</ele>
        <time>2010-09-19T09:00:22Z</time>
      </trkpt>
      <trkpt lat="46.3541" lon="5.96754">
        <ele>1184.4816894531</ele>
        <time>2010-09-19T09:00:26Z</time>
      </trkpt>
      <trkpt lat="46.35402" lon="5.96742">
        <ele>1184.9624023438</ele>
        <time>2010-09-19T09:00:28Z</time>
      </trkpt>
      <trkpt lat="46.35374" lon="5.96709">
        <ele>1187.8461914062</ele>
        <time>2010-09-19T09:00:35Z</time>
      </trkpt>
      <trkpt lat="46.35353" lon="5.96688">
        <ele>1187.3654785156</ele>
        <time>2010-09-19T09:00:40Z</time>
      </trkpt>
      <trkpt lat="46.35334" lon="5.96661">
        <ele>1188.3269042969</ele>
        <time>2010-09-19T09:00:46Z</time>
      </trkpt>
      <trkpt lat="46.35322" lon="5.9664">
        <ele>1190.2495117188</ele>
        <time>2010-09-19T09:00:52Z</time>
      </trkpt>
      <trkpt lat="46.35307" lon="5.9662">
        <ele>1190.2495117188</ele>
        <time>2010-09-19T09:00:59Z</time>
      </trkpt>
      <trkpt lat="46.35299" lon="5.96611">
        <ele>1192.6528320312</ele>
        <time>2010-09-19T09:01:05Z</time>
      </trkpt>
      <trkpt lat="46.35294" lon="5.96605">
        <ele>1194.0947265625</ele>
        <time>2010-09-19T09:01:10Z</time>
      </trkpt>
      <trkpt lat="46.35285" lon="5.96594">
        <ele>1195.5366210938</ele>
        <time>2010-09-19T09:01:16Z</time>
      </trkpt>
      <trkpt lat="46.35279" lon="5.96587">
        <ele>1196.4982910156</ele>
        <time>2010-09-19T09:01:21Z</time>
      </trkpt>
      <trkpt lat="46.35275" lon="5.96583">
        <ele>1197.9401855469</ele>
        <time>2010-09-19T09:01:24Z</time>
      </trkpt>
      <trkpt lat="46.35266" lon="5.96574">
        <ele>1199.8627929688</ele>
        <time>2010-09-19T09:01:31Z</time>
      </trkpt>
      <trkpt lat="46.35261" lon="5.96569">
        <ele>1200.8239746094</ele>
        <time>2010-09-19T09:01:35Z</time>
      </trkpt>
      <trkpt lat="46.35252" lon="5.96558">
        <ele>1203.2272949219</ele>
        <time>2010-09-19T09:01:42Z</time>
      </trkpt>
      <trkpt lat="46.35242" lon="5.96547">
        <ele>1203.7080078125</ele>
        <time>2010-09-19T09:01:49Z</time>
      </trkpt>
      <trkpt lat="46.35232" lon="5.96536">
        <ele>1205.1499023438</ele>
        <time>2010-09-19T09:01:56Z</time>
      </trkpt>
      <trkpt lat="46.35226" lon="5.96529">
        <ele>1206.1110839844</ele>
        <time>2010-09-19T09:02:00Z</time>
      </trkpt>
      <trkpt lat="46.35221" lon="5.96524">
        <ele>1207.0725097656</ele>
        <time>2010-09-19T09:02:03Z</time>
      </trkpt>
      <trkpt lat="46.35217" lon="5.96517">
        <ele>1207.5532226562</ele>
        <time>2010-09-19T09:02:07Z</time>
      </trkpt>
      <trkpt lat="46.35211" lon="5.96493">
        <ele>1208.5144042969</ele>
        <time>2010-09-19T09:02:16Z</time>
      </trkpt>
      <trkpt lat="46.3521" lon="5.9647">
        <ele>1210.4370117188</ele>
        <time>2010-09-19T09:02:25Z</time>
      </trkpt>
      <trkpt lat="46.35208" lon="5.96459">
        <ele>1211.8791503906</ele>
        <time>2010-09-19T09:02:30Z</time>
      </trkpt>
      <trkpt lat="46.35205" lon="5.96443">
        <ele>1213.8017578125</ele>
        <time>2010-09-19T09:02:39Z</time>
      </trkpt>
      <trkpt lat="46.35203" lon="5.96428">
        <ele>1216.205078125</ele>
        <time>2010-09-19T09:02:46Z</time>
      </trkpt>
      <trkpt lat="46.35204" lon="5.96404">
        <ele>1218.1276855469</ele>
        <time>2010-09-19T09:02:55Z</time>
      </trkpt>
      <trkpt lat="46.35201" lon="5.96385">
        <ele>1218.6083984375</ele>
        <time>2010-09-19T09:03:02Z</time>
      </trkpt>
      <trkpt lat="46.35194" lon="5.96374">
        <ele>1220.0502929688</ele>
        <time>2010-09-19T09:03:07Z</time>
      </trkpt>
      <trkpt lat="46.35188" lon="5.9636">
        <ele>1221.01171875</ele>
        <time>2010-09-19T09:03:13Z</time>
      </trkpt>
      <trkpt lat="46.35179" lon="5.96334">
        <ele>1221.4921875</ele>
        <time>2010-09-19T09:03:21Z</time>
      </trkpt>
      <trkpt lat="46.35162" lon="5.96316">
        <ele>1221.4921875</ele>
        <time>2010-09-19T09:03:27Z</time>
      </trkpt>
      <trkpt lat="46.3515" lon="5.9631">
        <ele>1222.4536132812</ele>
        <time>2010-09-19T09:03:33Z</time>
      </trkpt>
      <trkpt lat="46.3514" lon="5.96305">
        <ele>1224.3762207031</ele>
        <time>2010-09-19T09:03:39Z</time>
      </trkpt>
      <trkpt lat="46.35127" lon="5.96297">
        <ele>1226.298828125</ele>
        <time>2010-09-19T09:03:45Z</time>
      </trkpt>
      <trkpt lat="46.35116" lon="5.96287">
        <ele>1226.7795410156</ele>
        <time>2010-09-19T09:03:50Z</time>
      </trkpt>
      <trkpt lat="46.35101" lon="5.96271">
        <ele>1227.7407226562</ele>
        <time>2010-09-19T09:03:57Z</time>
      </trkpt>
      <trkpt lat="46.35092" lon="5.96262">
        <ele>1229.1828613281</ele>
        <time>2010-09-19T09:04:02Z</time>
      </trkpt>
      <trkpt lat="46.35081" lon="5.96252">
        <ele>1229.6635742188</ele>
        <time>2010-09-19T09:04:07Z</time>
      </trkpt>
      <trkpt lat="46.35061" lon="5.96231">
        <ele>1230.625</ele>
        <time>2010-09-19T09:04:17Z</time>
      </trkpt>
      <trkpt lat="46.35044" lon="5.96214">
        <ele>1230.625</ele>
        <time>2010-09-19T09:04:24Z</time>
      </trkpt>
      <trkpt lat="46.35026" lon="5.96191">
        <ele>1229.1828613281</ele>
        <time>2010-09-19T09:04:31Z</time>
      </trkpt>
      <trkpt lat="46.35015" lon="5.96177">
        <ele>1228.7023925781</ele>
        <time>2010-09-19T09:04:36Z</time>
      </trkpt>
      <trkpt lat="46.3501" lon="5.96169">
        <ele>1231.1057128906</ele>
        <time>2010-09-19T09:04:42Z</time>
      </trkpt>
      <trkpt lat="46.35009" lon="5.96168">
        <ele>1231.1057128906</ele>
        <time>2010-09-19T09:04:43Z</time>
      </trkpt>
      <trkpt lat="46.35003" lon="5.96158">
        <ele>1233.0280761719</ele>
        <time>2010-09-19T09:04:49Z</time>
      </trkpt>
      <trkpt lat="46.34999" lon="5.96142">
        <ele>1233.5087890625</ele>
        <time>2010-09-19T09:04:56Z</time>
      </trkpt>
      <trkpt lat="46.34996" lon="5.96125">
        <ele>1234.9509277344</ele>
        <time>2010-09-19T09:05:03Z</time>
      </trkpt>
      <trkpt lat="46.34992" lon="5.96113">
        <ele>1235.4313964844</ele>
        <time>2010-09-19T09:05:09Z</time>
      </trkpt>
      <trkpt lat="46.34985" lon="5.96102">
        <ele>1237.8347167969</ele>
        <time>2010-09-19T09:05:16Z</time>
      </trkpt>
      <trkpt lat="46.34982" lon="5.96102">
        <ele>1238.3154296875</ele>
        <time>2010-09-19T09:05:18Z</time>
      </trkpt>
      <trkpt lat="46.34972" lon="5.96106">
        <ele>1239.2766113281</ele>
        <time>2010-09-19T09:05:26Z</time>
      </trkpt>
      <trkpt lat="46.34962" lon="5.96103">
        <ele>1240.7185058594</ele>
        <time>2010-09-19T09:05:32Z</time>
      </trkpt>
      <trkpt lat="46.34951" lon="5.96092">
        <ele>1242.6413574219</ele>
        <time>2010-09-19T09:05:39Z</time>
      </trkpt>
      <trkpt lat="46.3495" lon="5.96085">
        <ele>1244.0834960938</ele>
        <time>2010-09-19T09:05:43Z</time>
      </trkpt>
      <trkpt lat="46.34952" lon="5.96072">
        <ele>1244.0834960938</ele>
        <time>2010-09-19T09:05:50Z</time>
      </trkpt>
      <trkpt lat="46.34953" lon="5.96066">
        <ele>1245.0446777344</ele>
        <time>2010-09-19T09:05:53Z</time>
      </trkpt>
      <trkpt lat="46.34951" lon="5.96054">
        <ele>1246.0061035156</ele>
        <time>2010-09-19T09:06:00Z</time>
      </trkpt>
      <trkpt lat="46.3495" lon="5.96053">
        <ele>1246.9672851562</ele>
        <time>2010-09-19T09:06:01Z</time>
      </trkpt>
      <trkpt lat="46.34948" lon="5.96049">
        <ele>1246.9672851562</ele>
        <time>2010-09-19T09:06:04Z</time>
      </trkpt>
      <trkpt lat="46.34945" lon="5.96041">
        <ele>1247.4479980469</ele>
        <time>2010-09-19T09:06:09Z</time>
      </trkpt>
      <trkpt lat="46.34943" lon="5.96038">
        <ele>1247.9287109375</ele>
        <time>2010-09-19T09:06:11Z</time>
      </trkpt>
      <trkpt lat="46.34942" lon="5.96034">
        <ele>1247.9287109375</ele>
        <time>2010-09-19T09:06:17Z</time>
      </trkpt>
      <trkpt lat="46.3494" lon="5.96029">
        <ele>1248.8898925781</ele>
        <time>2010-09-19T09:06:23Z</time>
      </trkpt>
      <trkpt lat="46.34937" lon="5.96024">
        <ele>1249.8513183594</ele>
        <time>2010-09-19T09:06:31Z</time>
      </trkpt>
      <trkpt lat="46.34935" lon="5.96016">
        <ele>1249.8513183594</ele>
        <time>2010-09-19T09:06:37Z</time>
      </trkpt>
      <trkpt lat="46.34933" lon="5.96006">
        <ele>1250.8125</ele>
        <time>2010-09-19T09:06:43Z</time>
      </trkpt>
      <trkpt lat="46.34934" lon="5.96002">
        <ele>1250.8125</ele>
        <time>2010-09-19T09:06:47Z</time>
      </trkpt>
      <trkpt lat="46.34933" lon="5.95992">
        <ele>1251.2932128906</ele>
        <time>2010-09-19T09:06:54Z</time>
      </trkpt>
      <trkpt lat="46.34931" lon="5.95988">
        <ele>1250.8125</ele>
        <time>2010-09-19T09:07:00Z</time>
      </trkpt>
      <trkpt lat="46.34929" lon="5.95983">
        <ele>1251.2932128906</ele>
        <time>2010-09-19T09:07:05Z</time>
      </trkpt>
      <trkpt lat="46.34927" lon="5.95978">
        <ele>1250.8125</ele>
        <time>2010-09-19T09:07:08Z</time>
      </trkpt>
      <trkpt lat="46.34927" lon="5.95967">
        <ele>1251.2932128906</ele>
        <time>2010-09-19T09:07:15Z</time>
      </trkpt>
      <trkpt lat="46.34924" lon="5.95956">
        <ele>1250.33203125</ele>
        <time>2010-09-19T09:07:22Z</time>
      </trkpt>
      <trkpt lat="46.34923" lon="5.95953">
        <ele>1250.33203125</ele>
        <time>2010-09-19T09:07:27Z</time>
      </trkpt>
      <trkpt lat="46.3492" lon="5.95947">
        <ele>1251.7739257812</ele>
        <time>2010-09-19T09:07:35Z</time>
      </trkpt>
      <trkpt lat="46.34918" lon="5.95938">
        <ele>1252.7351074219</ele>
        <time>2010-09-19T09:07:43Z</time>
      </trkpt>
      <trkpt lat="46.34916" lon="5.95929">
        <ele>1253.6965332031</ele>
        <time>2010-09-19T09:07:51Z</time>
      </trkpt>
      <trkpt lat="46.34915" lon="5.95925">
        <ele>1254.1772460938</ele>
        <time>2010-09-19T09:07:55Z</time>
      </trkpt>
      <trkpt lat="46.34914" lon="5.95911">
        <ele>1254.1772460938</ele>
        <time>2010-09-19T09:08:03Z</time>
      </trkpt>
      <trkpt lat="46.34912" lon="5.95892">
        <ele>1253.6965332031</ele>
        <time>2010-09-19T09:08:08Z</time>
      </trkpt>
      <trkpt lat="46.34912" lon="5.95877">
        <ele>1254.1772460938</ele>
        <time>2010-09-19T09:08:13Z</time>
      </trkpt>
      <trkpt lat="46.34914" lon="5.9587">
        <ele>1254.1772460938</ele>
        <time>2010-09-19T09:08:16Z</time>
      </trkpt>
      <trkpt lat="46.34912" lon="5.9586">
        <ele>1254.1772460938</ele>
        <time>2010-09-19T09:08:21Z</time>
      </trkpt>
      <trkpt lat="46.34913" lon="5.9584">
        <ele>1254.6577148438</ele>
        <time>2010-09-19T09:08:28Z</time>
      </trkpt>
      <trkpt lat="46.34916" lon="5.95823">
        <ele>1253.2158203125</ele>
        <time>2010-09-19T09:08:32Z</time>
      </trkpt>
      <trkpt lat="46.34917" lon="5.95808">
        <ele>1253.2158203125</ele>
        <time>2010-09-19T09:08:38Z</time>
      </trkpt>
      <trkpt lat="46.34919" lon="5.95793">
        <ele>1253.6965332031</ele>
        <time>2010-09-19T09:08:45Z</time>
      </trkpt>
      <trkpt lat="46.34921" lon="5.95783">
        <ele>1253.6965332031</ele>
        <time>2010-09-19T09:08:52Z</time>
      </trkpt>
      <trkpt lat="46.34924" lon="5.95779">
        <ele>1254.1772460938</ele>
        <time>2010-09-19T09:08:58Z</time>
      </trkpt>
      <trkpt lat="46.34927" lon="5.95773">
        <ele>1254.1772460938</ele>
        <time>2010-09-19T09:09:04Z</time>
      </trkpt>
      <trkpt lat="46.34931" lon="5.95768">
        <ele>1255.1384277344</ele>
        <time>2010-09-19T09:09:11Z</time>
      </trkpt>
      <trkpt lat="46.34932" lon="5.95763">
        <ele>1256.099609375</ele>
        <time>2010-09-19T09:09:16Z</time>
      </trkpt>
      <trkpt lat="46.34933" lon="5.95759">
        <ele>1256.5803222656</ele>
        <time>2010-09-19T09:09:22Z</time>
      </trkpt>
      <trkpt lat="46.34934" lon="5.95756">
        <ele>1256.5803222656</ele>
        <time>2010-09-19T09:09:25Z</time>
      </trkpt>
      <trkpt lat="46.34933" lon="5.95749">
        <ele>1257.0610351562</ele>
        <time>2010-09-19T09:09:29Z</time>
      </trkpt>
      <trkpt lat="46.34931" lon="5.95744">
        <ele>1257.5417480469</ele>
        <time>2010-09-19T09:09:34Z</time>
      </trkpt>
      <trkpt lat="46.34927" lon="5.95737">
        <ele>1258.5029296875</ele>
        <time>2010-09-19T09:09:39Z</time>
      </trkpt>
      <trkpt lat="46.3493" lon="5.95731">
        <ele>1259.9448242188</ele>
        <time>2010-09-19T09:09:45Z</time>
      </trkpt>
      <trkpt lat="46.34932" lon="5.95726">
        <ele>1260.9064941406</ele>
        <time>2010-09-19T09:09:53Z</time>
      </trkpt>
      <trkpt lat="46.3493" lon="5.95723">
        <ele>1261.3872070312</ele>
        <time>2010-09-19T09:09:58Z</time>
      </trkpt>
      <trkpt lat="46.34928" lon="5.95721">
        <ele>1262.3483886719</ele>
        <time>2010-09-19T09:10:04Z</time>
      </trkpt>
      <trkpt lat="46.34924" lon="5.95715">
        <ele>1263.3098144531</ele>
        <time>2010-09-19T09:10:12Z</time>
      </trkpt>
      <trkpt lat="46.34923" lon="5.95705">
        <ele>1263.7902832031</ele>
        <time>2010-09-19T09:10:19Z</time>
      </trkpt>
      <trkpt lat="46.34921" lon="5.95696">
        <ele>1265.232421875</ele>
        <time>2010-09-19T09:10:26Z</time>
      </trkpt>
      <trkpt lat="46.34921" lon="5.95688">
        <ele>1265.7131347656</ele>
        <time>2010-09-19T09:10:33Z</time>
      </trkpt>
      <trkpt lat="46.34922" lon="5.95685">
        <ele>1266.6743164062</ele>
        <time>2010-09-19T09:10:40Z</time>
      </trkpt>
      <trkpt lat="46.34919" lon="5.95683">
        <ele>1267.1550292969</ele>
        <time>2010-09-19T09:10:44Z</time>
      </trkpt>
      <trkpt lat="46.34906" lon="5.95674">
        <ele>1266.1936035156</ele>
        <time>2010-09-19T09:10:51Z</time>
      </trkpt>
      <trkpt lat="46.34895" lon="5.95658">
        <ele>1264.7517089844</ele>
        <time>2010-09-19T09:10:55Z</time>
      </trkpt>
      <trkpt lat="46.3489" lon="5.95643">
        <ele>1264.2709960938</ele>
        <time>2010-09-19T09:10:58Z</time>
      </trkpt>
      <trkpt lat="46.34895" lon="5.95614">
        <ele>1262.8291015625</ele>
        <time>2010-09-19T09:11:03Z</time>
      </trkpt>
      <trkpt lat="46.34902" lon="5.95596">
        <ele>1263.7902832031</ele>
        <time>2010-09-19T09:11:08Z</time>
      </trkpt>
      <trkpt lat="46.34898" lon="5.95568">
        <ele>1265.232421875</ele>
        <time>2010-09-19T09:11:16Z</time>
      </trkpt>
      <trkpt lat="46.34896" lon="5.95565">
        <ele>1264.7517089844</ele>
        <time>2010-09-19T09:11:20Z</time>
      </trkpt>
      <trkpt lat="46.34894" lon="5.9556">
        <ele>1265.232421875</ele>
        <time>2010-09-19T09:11:27Z</time>
      </trkpt>
      <trkpt lat="46.3489" lon="5.95554">
        <ele>1265.232421875</ele>
        <time>2010-09-19T09:11:35Z</time>
      </trkpt>
      <trkpt lat="46.34884" lon="5.95551">
        <ele>1265.7131347656</ele>
        <time>2010-09-19T09:11:40Z</time>
      </trkpt>
      <trkpt lat="46.34879" lon="5.95548">
        <ele>1265.7131347656</ele>
        <time>2010-09-19T09:11:46Z</time>
      </trkpt>
      <trkpt lat="46.34874" lon="5.95546">
        <ele>1267.1550292969</ele>
        <time>2010-09-19T09:11:50Z</time>
      </trkpt>
      <trkpt lat="46.34871" lon="5.95546">
        <ele>1268.1162109375</ele>
        <time>2010-09-19T09:11:52Z</time>
      </trkpt>
      <trkpt lat="46.3487" lon="5.95546">
        <ele>1267.6354980469</ele>
        <time>2010-09-19T09:11:53Z</time>
      </trkpt>
      <trkpt lat="46.34861" lon="5.95547">
        <ele>1267.6354980469</ele>
        <time>2010-09-19T09:11:59Z</time>
      </trkpt>
      <trkpt lat="46.34848" lon="5.95551">
        <ele>1267.1550292969</ele>
        <time>2010-09-19T09:12:04Z</time>
      </trkpt>
      <trkpt lat="46.34843" lon="5.95549">
        <ele>1267.1550292969</ele>
        <time>2010-09-19T09:12:06Z</time>
      </trkpt>
      <trkpt lat="46.34834" lon="5.95552">
        <ele>1268.5969238281</ele>
        <time>2010-09-19T09:12:12Z</time>
      </trkpt>
      <trkpt lat="46.34822" lon="5.95551">
        <ele>1268.1162109375</ele>
        <time>2010-09-19T09:12:18Z</time>
      </trkpt>
      <trkpt lat="46.34821" lon="5.9555">
        <ele>1268.5969238281</ele>
        <time>2010-09-19T09:12:19Z</time>
      </trkpt>
      <trkpt lat="46.34809" lon="5.95538">
        <ele>1270.0388183594</ele>
        <time>2010-09-19T09:12:26Z</time>
      </trkpt>
      <trkpt lat="46.34798" lon="5.95517">
        <ele>1268.1162109375</ele>
        <time>2010-09-19T09:12:32Z</time>
      </trkpt>
      <trkpt lat="46.3479" lon="5.95485">
        <ele>1266.6743164062</ele>
        <time>2010-09-19T09:12:37Z</time>
      </trkpt>
      <trkpt lat="46.3479" lon="5.95471">
        <ele>1266.1936035156</ele>
        <time>2010-09-19T09:12:39Z</time>
      </trkpt>
      <trkpt lat="46.34792" lon="5.95458">
        <ele>1265.232421875</ele>
        <time>2010-09-19T09:12:41Z</time>
      </trkpt>
      <trkpt lat="46.34805" lon="5.95429">
        <ele>1264.7517089844</ele>
        <time>2010-09-19T09:12:47Z</time>
      </trkpt>
      <trkpt lat="46.34811" lon="5.95411">
        <ele>1265.7131347656</ele>
        <time>2010-09-19T09:12:53Z</time>
      </trkpt>
      <trkpt lat="46.34813" lon="5.95402">
        <ele>1265.232421875</ele>
        <time>2010-09-19T09:12:56Z</time>
      </trkpt>
      <trkpt lat="46.34814" lon="5.9539">
        <ele>1266.1936035156</ele>
        <time>2010-09-19T09:13:02Z</time>
      </trkpt>
      <trkpt lat="46.34818" lon="5.95377">
        <ele>1267.1550292969</ele>
        <time>2010-09-19T09:13:08Z</time>
      </trkpt>
      <trkpt lat="46.34825" lon="5.95366">
        <ele>1267.1550292969</ele>
        <time>2010-09-19T09:13:13Z</time>
      </trkpt>
      <trkpt lat="46.34832" lon="5.95351">
        <ele>1266.6743164062</ele>
        <time>2010-09-19T09:13:18Z</time>
      </trkpt>
      <trkpt lat="46.34834" lon="5.95335">
        <ele>1266.1936035156</ele>
        <time>2010-09-19T09:13:22Z</time>
      </trkpt>
      <trkpt lat="46.3483" lon="5.95312">
        <ele>1266.6743164062</ele>
        <time>2010-09-19T09:13:28Z</time>
      </trkpt>
      <trkpt lat="46.34826" lon="5.95296">
        <ele>1266.6743164062</ele>
        <time>2010-09-19T09:13:32Z</time>
      </trkpt>
      <trkpt lat="46.34813" lon="5.95278">
        <ele>1266.6743164062</ele>
        <time>2010-09-19T09:13:38Z</time>
      </trkpt>
      <trkpt lat="46.34801" lon="5.95266">
        <ele>1267.1550292969</ele>
        <time>2010-09-19T09:13:44Z</time>
      </trkpt>
      <trkpt lat="46.34789" lon="5.95251">
        <ele>1267.1550292969</ele>
        <time>2010-09-19T09:13:50Z</time>
      </trkpt>
      <trkpt lat="46.34781" lon="5.95239">
        <ele>1266.1936035156</ele>
        <time>2010-09-19T09:13:53Z</time>
      </trkpt>
      <trkpt lat="46.34769" lon="5.95222">
        <ele>1266.1936035156</ele>
        <time>2010-09-19T09:13:58Z</time>
      </trkpt>
      <trkpt lat="46.3476" lon="5.95212">
        <ele>1268.1162109375</ele>
        <time>2010-09-19T09:14:05Z</time>
      </trkpt>
      <trkpt lat="46.3475" lon="5.95195">
        <ele>1269.0776367188</ele>
        <time>2010-09-19T09:14:14Z</time>
      </trkpt>
      <trkpt lat="46.34746" lon="5.95188">
        <ele>1268.1162109375</ele>
        <time>2010-09-19T09:14:16Z</time>
      </trkpt>
      <trkpt lat="46.34734" lon="5.9517">
        <ele>1267.1550292969</ele>
        <time>2010-09-19T09:14:20Z</time>
      </trkpt>
      <trkpt lat="46.34724" lon="5.95157">
        <ele>1268.5969238281</ele>
        <time>2010-09-19T09:14:26Z</time>
      </trkpt>
      <trkpt lat="46.34718" lon="5.95149">
        <ele>1269.0776367188</ele>
        <time>2010-09-19T09:14:32Z</time>
      </trkpt>
      <trkpt lat="46.34708" lon="5.95137">
        <ele>1270.0388183594</ele>
        <time>2010-09-19T09:14:40Z</time>
      </trkpt>
      <trkpt lat="46.34707" lon="5.95136">
        <ele>1270.0388183594</ele>
        <time>2010-09-19T09:14:41Z</time>
      </trkpt>
      <trkpt lat="46.34699" lon="5.95126">
        <ele>1269.5583496094</ele>
        <time>2010-09-19T09:14:48Z</time>
      </trkpt>
      <trkpt lat="46.34692" lon="5.95109">
        <ele>1267.6354980469</ele>
        <time>2010-09-19T09:14:53Z</time>
      </trkpt>
      <trkpt lat="46.34686" lon="5.9509">
        <ele>1267.1550292969</ele>
        <time>2010-09-19T09:14:58Z</time>
      </trkpt>
      <trkpt lat="46.34678" lon="5.95063">
        <ele>1265.7131347656</ele>
        <time>2010-09-19T09:15:04Z</time>
      </trkpt>
      <trkpt lat="46.34676" lon="5.95037">
        <ele>1262.3483886719</ele>
        <time>2010-09-19T09:15:08Z</time>
      </trkpt>
      <trkpt lat="46.34676" lon="5.95019">
        <ele>1260.9064941406</ele>
        <time>2010-09-19T09:15:10Z</time>
      </trkpt>
      <trkpt lat="46.34678" lon="5.95001">
        <ele>1261.3872070312</ele>
        <time>2010-09-19T09:15:12Z</time>
      </trkpt>
      <trkpt lat="46.34688" lon="5.94967">
        <ele>1259.9448242188</ele>
        <time>2010-09-19T09:15:17Z</time>
      </trkpt>
      <trkpt lat="46.34701" lon="5.94945">
        <ele>1260.42578125</ele>
        <time>2010-09-19T09:15:21Z</time>
      </trkpt>
      <trkpt lat="46.34704" lon="5.9494">
        <ele>1260.9064941406</ele>
        <time>2010-09-19T09:15:22Z</time>
      </trkpt>
      <trkpt lat="46.3472" lon="5.94906">
        <ele>1259.9448242188</ele>
        <time>2010-09-19T09:15:29Z</time>
      </trkpt>
      <trkpt lat="46.3473" lon="5.94868">
        <ele>1259.9448242188</ele>
        <time>2010-09-19T09:15:35Z</time>
      </trkpt>
      <trkpt lat="46.3474" lon="5.9485">
        <ele>1260.42578125</ele>
        <time>2010-09-19T09:15:40Z</time>
      </trkpt>
      <trkpt lat="46.34756" lon="5.9483">
        <ele>1261.3872070312</ele>
        <time>2010-09-19T09:15:47Z</time>
      </trkpt>
      <trkpt lat="46.34763" lon="5.94814">
        <ele>1263.3098144531</ele>
        <time>2010-09-19T09:15:52Z</time>
      </trkpt>
      <trkpt lat="46.34773" lon="5.94787">
        <ele>1262.8291015625</ele>
        <time>2010-09-19T09:16:00Z</time>
      </trkpt>
      <trkpt lat="46.34775" lon="5.94777">
        <ele>1262.3483886719</ele>
        <time>2010-09-19T09:16:02Z</time>
      </trkpt>
      <trkpt lat="46.34775" lon="5.94756">
        <ele>1260.9064941406</ele>
        <time>2010-09-19T09:16:05Z</time>
      </trkpt>
      <trkpt lat="46.34774" lon="5.94748">
        <ele>1260.9064941406</ele>
        <time>2010-09-19T09:16:06Z</time>
      </trkpt>
      <trkpt lat="46.34766" lon="5.9471">
        <ele>1260.42578125</ele>
        <time>2010-09-19T09:16:12Z</time>
      </trkpt>
      <trkpt lat="46.34758" lon="5.94693">
        <ele>1259.9448242188</ele>
        <time>2010-09-19T09:16:16Z</time>
      </trkpt>
      <trkpt lat="46.34747" lon="5.94668">
        <ele>1260.42578125</ele>
        <time>2010-09-19T09:16:22Z</time>
      </trkpt>
      <trkpt lat="46.34746" lon="5.94638">
        <ele>1261.3872070312</ele>
        <time>2010-09-19T09:16:29Z</time>
      </trkpt>
      <trkpt lat="46.34754" lon="5.94605">
        <ele>1263.3098144531</ele>
        <time>2010-09-19T09:16:38Z</time>
      </trkpt>
      <trkpt lat="46.34767" lon="5.9457">
        <ele>1265.232421875</ele>
        <time>2010-09-19T09:16:48Z</time>
      </trkpt>
      <trkpt lat="46.34781" lon="5.94537">
        <ele>1267.6354980469</ele>
        <time>2010-09-19T09:16:58Z</time>
      </trkpt>
      <trkpt lat="46.34798" lon="5.94507">
        <ele>1267.1550292969</ele>
        <time>2010-09-19T09:17:07Z</time>
      </trkpt>
      <trkpt lat="46.34812" lon="5.94472">
        <ele>1267.6354980469</ele>
        <time>2010-09-19T09:17:16Z</time>
      </trkpt>
      <trkpt lat="46.34817" lon="5.94445">
        <ele>1269.5583496094</ele>
        <time>2010-09-19T09:17:23Z</time>
      </trkpt>
      <trkpt lat="46.34822" lon="5.94414">
        <ele>1268.5969238281</ele>
        <time>2010-09-19T09:17:30Z</time>
      </trkpt>
      <trkpt lat="46.34842" lon="5.9437">
        <ele>1266.6743164062</ele>
        <time>2010-09-19T09:17:36Z</time>
      </trkpt>
      <trkpt lat="46.34847" lon="5.94362">
        <ele>1265.232421875</ele>
        <time>2010-09-19T09:17:37Z</time>
      </trkpt>
      <trkpt lat="46.34879" lon="5.94322">
        <ele>1265.232421875</ele>
        <time>2010-09-19T09:17:43Z</time>
      </trkpt>
      <trkpt lat="46.34888" lon="5.94304">
        <ele>1266.6743164062</ele>
        <time>2010-09-19T09:17:46Z</time>
      </trkpt>
      <trkpt lat="46.34883" lon="5.94283">
        <ele>1265.7131347656</ele>
        <time>2010-09-19T09:17:50Z</time>
      </trkpt>
      <trkpt lat="46.3488" lon="5.94277">
        <ele>1265.7131347656</ele>
        <time>2010-09-19T09:17:51Z</time>
      </trkpt>
      <trkpt lat="46.34843" lon="5.94229">
        <ele>1264.7517089844</ele>
        <time>2010-09-19T09:17:59Z</time>
      </trkpt>
      <trkpt lat="46.34798" lon="5.9419">
        <ele>1263.3098144531</ele>
        <time>2010-09-19T09:18:07Z</time>
      </trkpt>
      <trkpt lat="46.34746" lon="5.94147">
        <ele>1261.3872070312</ele>
        <time>2010-09-19T09:18:16Z</time>
      </trkpt>
      <trkpt lat="46.347" lon="5.94107">
        <ele>1259.9448242188</ele>
        <time>2010-09-19T09:18:23Z</time>
      </trkpt>
      <trkpt lat="46.34643" lon="5.94053">
        <ele>1258.5029296875</ele>
        <time>2010-09-19T09:18:31Z</time>
      </trkpt>
      <trkpt lat="46.34582" lon="5.94002">
        <ele>1256.099609375</ele>
        <time>2010-09-19T09:18:39Z</time>
      </trkpt>
      <trkpt lat="46.3451" lon="5.93936">
        <ele>1253.6965332031</ele>
        <time>2010-09-19T09:18:49Z</time>
      </trkpt>
      <trkpt lat="46.34467" lon="5.93884">
        <ele>1251.7739257812</ele>
        <time>2010-09-19T09:18:56Z</time>
      </trkpt>
      <trkpt lat="46.34433" lon="5.93829">
        <ele>1251.7739257812</ele>
        <time>2010-09-19T09:19:03Z</time>
      </trkpt>
      <trkpt lat="46.34396" lon="5.93784">
        <ele>1251.7739257812</ele>
        <time>2010-09-19T09:19:10Z</time>
      </trkpt>
      <trkpt lat="46.34375" lon="5.93761">
        <ele>1250.8125</ele>
        <time>2010-09-19T09:19:14Z</time>
      </trkpt>
      <trkpt lat="46.3436" lon="5.93758">
        <ele>1249.8513183594</ele>
        <time>2010-09-19T09:19:17Z</time>
      </trkpt>
      <trkpt lat="46.34354" lon="5.9377">
        <ele>1248.4091796875</ele>
        <time>2010-09-19T09:19:19Z</time>
      </trkpt>
      <trkpt lat="46.34353" lon="5.93779">
        <ele>1248.4091796875</ele>
        <time>2010-09-19T09:19:20Z</time>
      </trkpt>
      <trkpt lat="46.34343" lon="5.9385">
        <ele>1246.9672851562</ele>
        <time>2010-09-19T09:19:28Z</time>
      </trkpt>
      <trkpt lat="46.34342" lon="5.93859">
        <ele>1246.9672851562</ele>
        <time>2010-09-19T09:19:29Z</time>
      </trkpt>
      <trkpt lat="46.34346" lon="5.93908">
        <ele>1244.5639648438</ele>
        <time>2010-09-19T09:19:34Z</time>
      </trkpt>
      <trkpt lat="46.34348" lon="5.93919">
        <ele>1244.5639648438</ele>
        <time>2010-09-19T09:19:35Z</time>
      </trkpt>
      <trkpt lat="46.34344" lon="5.93963">
        <ele>1244.5639648438</ele>
        <time>2010-09-19T09:19:39Z</time>
      </trkpt>
      <trkpt lat="46.34329" lon="5.94001">
        <ele>1243.1218261719</ele>
        <time>2010-09-19T09:19:43Z</time>
      </trkpt>
      <trkpt lat="46.34307" lon="5.94071">
        <ele>1242.1606445312</ele>
        <time>2010-09-19T09:19:51Z</time>
      </trkpt>
      <trkpt lat="46.3428" lon="5.94127">
        <ele>1241.19921875</ele>
        <time>2010-09-19T09:19:58Z</time>
      </trkpt>
      <trkpt lat="46.34245" lon="5.94172">
        <ele>1240.7185058594</ele>
        <time>2010-09-19T09:20:05Z</time>
      </trkpt>
      <trkpt lat="46.34224" lon="5.94195">
        <ele>1240.7185058594</ele>
        <time>2010-09-19T09:20:09Z</time>
      </trkpt>
      <trkpt lat="46.342" lon="5.94207">
        <ele>1241.19921875</ele>
        <time>2010-09-19T09:20:13Z</time>
      </trkpt>
      <trkpt lat="46.3417" lon="5.94212">
        <ele>1240.2380371094</ele>
        <time>2010-09-19T09:20:18Z</time>
      </trkpt>
      <trkpt lat="46.34142" lon="5.9423">
        <ele>1240.2380371094</ele>
        <time>2010-09-19T09:20:23Z</time>
      </trkpt>
      <trkpt lat="46.34128" lon="5.94247">
        <ele>1240.2380371094</ele>
        <time>2010-09-19T09:20:26Z</time>
      </trkpt>
      <trkpt lat="46.34108" lon="5.94291">
        <ele>1240.2380371094</ele>
        <time>2010-09-19T09:20:32Z</time>
      </trkpt>
      <trkpt lat="46.34094" lon="5.9433">
        <ele>1239.7573242188</ele>
        <time>2010-09-19T09:20:37Z</time>
      </trkpt>
      <trkpt lat="46.3409" lon="5.94338">
        <ele>1239.2766113281</ele>
        <time>2010-09-19T09:20:38Z</time>
      </trkpt>
      <trkpt lat="46.34063" lon="5.94374">
        <ele>1240.2380371094</ele>
        <time>2010-09-19T09:20:44Z</time>
      </trkpt>
      <trkpt lat="46.34045" lon="5.94398">
        <ele>1239.2766113281</ele>
        <time>2010-09-19T09:20:48Z</time>
      </trkpt>
      <trkpt lat="46.34042" lon="5.94406">
        <ele>1239.7573242188</ele>
        <time>2010-09-19T09:20:49Z</time>
      </trkpt>
      <trkpt lat="46.34026" lon="5.94454">
        <ele>1239.7573242188</ele>
        <time>2010-09-19T09:20:55Z</time>
      </trkpt>
      <trkpt lat="46.34003" lon="5.94486">
        <ele>1239.7573242188</ele>
        <time>2010-09-19T09:21:01Z</time>
      </trkpt>
      <trkpt lat="46.33975" lon="5.94509">
        <ele>1240.7185058594</ele>
        <time>2010-09-19T09:21:07Z</time>
      </trkpt>
      <trkpt lat="46.33953" lon="5.9451">
        <ele>1240.7185058594</ele>
        <time>2010-09-19T09:21:11Z</time>
      </trkpt>
      <trkpt lat="46.33912" lon="5.945">
        <ele>1240.7185058594</ele>
        <time>2010-09-19T09:21:18Z</time>
      </trkpt>
      <trkpt lat="46.339" lon="5.94497">
        <ele>1240.7185058594</ele>
        <time>2010-09-19T09:21:20Z</time>
      </trkpt>
      <trkpt lat="46.33879" lon="5.945">
        <ele>1241.19921875</ele>
        <time>2010-09-19T09:21:24Z</time>
      </trkpt>
      <trkpt lat="46.33861" lon="5.94519">
        <ele>1240.7185058594</ele>
        <time>2010-09-19T09:21:28Z</time>
      </trkpt>
      <trkpt lat="46.33838" lon="5.94535">
        <ele>1240.7185058594</ele>
        <time>2010-09-19T09:21:33Z</time>
      </trkpt>
      <trkpt lat="46.33813" lon="5.94539">
        <ele>1240.7185058594</ele>
        <time>2010-09-19T09:21:38Z</time>
      </trkpt>
      <trkpt lat="46.33784" lon="5.94546">
        <ele>1242.1606445312</ele>
        <time>2010-09-19T09:21:45Z</time>
      </trkpt>
      <trkpt lat="46.33761" lon="5.94552">
        <ele>1244.0834960938</ele>
        <time>2010-09-19T09:21:52Z</time>
      </trkpt>
      <trkpt lat="46.33741" lon="5.94551">
        <ele>1244.5639648438</ele>
        <time>2010-09-19T09:21:58Z</time>
      </trkpt>
      <trkpt lat="46.33738" lon="5.94551">
        <ele>1244.0834960938</ele>
        <time>2010-09-19T09:21:59Z</time>
      </trkpt>
      <trkpt lat="46.3372" lon="5.94569">
        <ele>1243.6025390625</ele>
        <time>2010-09-19T09:22:04Z</time>
      </trkpt>
      <trkpt lat="46.33706" lon="5.94593">
        <ele>1243.1218261719</ele>
        <time>2010-09-19T09:22:08Z</time>
      </trkpt>
      <trkpt lat="46.33685" lon="5.94618">
        <ele>1241.6799316406</ele>
        <time>2010-09-19T09:22:13Z</time>
      </trkpt>
      <trkpt lat="46.33676" lon="5.9465">
        <ele>1241.6799316406</ele>
        <time>2010-09-19T09:22:18Z</time>
      </trkpt>
      <trkpt lat="46.33673" lon="5.94665">
        <ele>1241.19921875</ele>
        <time>2010-09-19T09:22:20Z</time>
      </trkpt>
      <trkpt lat="46.3367" lon="5.94681">
        <ele>1240.7185058594</ele>
        <time>2010-09-19T09:22:22Z</time>
      </trkpt>
      <trkpt lat="46.33653" lon="5.94719">
        <ele>1238.7961425781</ele>
        <time>2010-09-19T09:22:27Z</time>
      </trkpt>
      <trkpt lat="46.33647" lon="5.94744">
        <ele>1238.3154296875</ele>
        <time>2010-09-19T09:22:30Z</time>
      </trkpt>
      <trkpt lat="46.33649" lon="5.94771">
        <ele>1237.8347167969</ele>
        <time>2010-09-19T09:22:33Z</time>
      </trkpt>
      <trkpt lat="46.33652" lon="5.94808">
        <ele>1235.4313964844</ele>
        <time>2010-09-19T09:22:37Z</time>
      </trkpt>
      <trkpt lat="46.33648" lon="5.94822">
        <ele>1235.4313964844</ele>
        <time>2010-09-19T09:22:40Z</time>
      </trkpt>
      <trkpt lat="46.33642" lon="5.94814">
        <ele>1234.9509277344</ele>
        <time>2010-09-19T09:22:42Z</time>
      </trkpt>
      <trkpt lat="46.3364" lon="5.94797">
        <ele>1233.9895019531</ele>
        <time>2010-09-19T09:22:44Z</time>
      </trkpt>
      <trkpt lat="46.3363" lon="5.94745">
        <ele>1230.625</ele>
        <time>2010-09-19T09:22:49Z</time>
      </trkpt>
      <trkpt lat="46.33628" lon="5.94721">
        <ele>1228.2216796875</ele>
        <time>2010-09-19T09:22:51Z</time>
      </trkpt>
      <trkpt lat="46.33632" lon="5.94661">
        <ele>1224.3762207031</ele>
        <time>2010-09-19T09:22:55Z</time>
      </trkpt>
      <trkpt lat="46.33631" lon="5.94608">
        <ele>1222.4536132812</ele>
        <time>2010-09-19T09:22:59Z</time>
      </trkpt>
      <trkpt lat="46.33621" lon="5.94585">
        <ele>1220.5310058594</ele>
        <time>2010-09-19T09:23:03Z</time>
      </trkpt>
      <trkpt lat="46.33604" lon="5.94596">
        <ele>1219.0891113281</ele>
        <time>2010-09-19T09:23:06Z</time>
      </trkpt>
      <trkpt lat="46.33598" lon="5.94601">
        <ele>1217.6469726562</ele>
        <time>2010-09-19T09:23:07Z</time>
      </trkpt>
      <trkpt lat="46.33583" lon="5.94606">
        <ele>1217.1665039062</ele>
        <time>2010-09-19T09:23:09Z</time>
      </trkpt>
      <trkpt lat="46.33545" lon="5.94616">
        <ele>1211.8791503906</ele>
        <time>2010-09-19T09:23:13Z</time>
      </trkpt>
      <trkpt lat="46.33504" lon="5.94625">
        <ele>1209.4758300781</ele>
        <time>2010-09-19T09:23:17Z</time>
      </trkpt>
      <trkpt lat="46.33485" lon="5.94629">
        <ele>1208.0339355469</ele>
        <time>2010-09-19T09:23:19Z</time>
      </trkpt>
      <trkpt lat="46.33451" lon="5.94632">
        <ele>1204.6691894531</ele>
        <time>2010-09-19T09:23:23Z</time>
      </trkpt>
      <trkpt lat="46.33426" lon="5.94629">
        <ele>1202.7465820312</ele>
        <time>2010-09-19T09:23:26Z</time>
      </trkpt>
      <trkpt lat="46.33389" lon="5.94627">
        <ele>1200.3435058594</ele>
        <time>2010-09-19T09:23:30Z</time>
      </trkpt>
      <trkpt lat="46.33381" lon="5.94626">
        <ele>1199.8627929688</ele>
        <time>2010-09-19T09:23:31Z</time>
      </trkpt>
      <trkpt lat="46.33362" lon="5.94622">
        <ele>1198.9013671875</ele>
        <time>2010-09-19T09:23:33Z</time>
      </trkpt>
      <trkpt lat="46.33345" lon="5.94618">
        <ele>1196.9787597656</ele>
        <time>2010-09-19T09:23:35Z</time>
      </trkpt>
      <trkpt lat="46.33298" lon="5.94618">
        <ele>1194.0947265625</ele>
        <time>2010-09-19T09:23:40Z</time>
      </trkpt>
      <trkpt lat="46.33279" lon="5.9462">
        <ele>1193.1333007812</ele>
        <time>2010-09-19T09:23:42Z</time>
      </trkpt>
      <trkpt lat="46.33224" lon="5.94616">
        <ele>1189.7687988281</ele>
        <time>2010-09-19T09:23:48Z</time>
      </trkpt>
      <trkpt lat="46.33217" lon="5.94614">
        <ele>1189.7687988281</ele>
        <time>2010-09-19T09:23:49Z</time>
      </trkpt>
      <trkpt lat="46.33193" lon="5.94602">
        <ele>1185.4428710938</ele>
        <time>2010-09-19T09:23:52Z</time>
      </trkpt>
      <trkpt lat="46.33146" lon="5.94594">
        <ele>1182.5590820312</ele>
        <time>2010-09-19T09:23:57Z</time>
      </trkpt>
      <trkpt lat="46.33129" lon="5.94593">
        <ele>1182.0783691406</ele>
        <time>2010-09-19T09:23:59Z</time>
      </trkpt>
      <trkpt lat="46.33101" lon="5.94574">
        <ele>1179.1940917969</ele>
        <time>2010-09-19T09:24:03Z</time>
      </trkpt>
      <trkpt lat="46.33088" lon="5.94561">
        <ele>1179.6748046875</ele>
        <time>2010-09-19T09:24:05Z</time>
      </trkpt>
      <trkpt lat="46.3307" lon="5.94533">
        <ele>1181.59765625</ele>
        <time>2010-09-19T09:24:09Z</time>
      </trkpt>
      <trkpt lat="46.33049" lon="5.94514">
        <ele>1180.6364746094</ele>
        <time>2010-09-19T09:24:15Z</time>
      </trkpt>
      <trkpt lat="46.33035" lon="5.94505">
        <ele>1179.6748046875</ele>
        <time>2010-09-19T09:24:18Z</time>
      </trkpt>
      <trkpt lat="46.33016" lon="5.94505">
        <ele>1178.2329101562</ele>
        <time>2010-09-19T09:24:22Z</time>
      </trkpt>
      <trkpt lat="46.32996" lon="5.9449">
        <ele>1176.791015625</ele>
        <time>2010-09-19T09:24:27Z</time>
      </trkpt>
      <trkpt lat="46.32983" lon="5.94477">
        <ele>1175.3488769531</ele>
        <time>2010-09-19T09:24:31Z</time>
      </trkpt>
      <trkpt lat="46.32976" lon="5.94473">
        <ele>1173.9069824219</ele>
        <time>2010-09-19T09:24:33Z</time>
      </trkpt>
      <trkpt lat="46.32961" lon="5.94464">
        <ele>1170.0617675781</ele>
        <time>2010-09-19T09:24:37Z</time>
      </trkpt>
      <trkpt lat="46.32958" lon="5.94462">
        <ele>1169.5812988281</ele>
        <time>2010-09-19T09:24:38Z</time>
      </trkpt>
      <trkpt lat="46.32952" lon="5.94458">
        <ele>1168.6198730469</ele>
        <time>2010-09-19T09:24:40Z</time>
      </trkpt>
      <trkpt lat="46.32936" lon="5.9445">
        <ele>1166.2165527344</ele>
        <time>2010-09-19T09:24:44Z</time>
      </trkpt>
      <trkpt lat="46.32928" lon="5.94443">
        <ele>1165.2553710938</ele>
        <time>2010-09-19T09:24:46Z</time>
      </trkpt>
      <trkpt lat="46.32917" lon="5.94434">
        <ele>1161.890625</ele>
        <time>2010-09-19T09:24:49Z</time>
      </trkpt>
      <trkpt lat="46.32903" lon="5.94425">
        <ele>1158.0454101562</ele>
        <time>2010-09-19T09:24:54Z</time>
      </trkpt>
      <trkpt lat="46.32898" lon="5.94421">
        <ele>1155.6420898438</ele>
        <time>2010-09-19T09:24:58Z</time>
      </trkpt>
      <trkpt lat="46.32895" lon="5.94417">
        <ele>1153.7194824219</ele>
        <time>2010-09-19T09:25:01Z</time>
      </trkpt>
      <trkpt lat="46.32891" lon="5.94414">
        <ele>1152.27734375</ele>
        <time>2010-09-19T09:25:05Z</time>
      </trkpt>
      <trkpt lat="46.32888" lon="5.94414">
        <ele>1150.3549804688</ele>
        <time>2010-09-19T09:25:07Z</time>
      </trkpt>
      <trkpt lat="46.32883" lon="5.94421">
        <ele>1148.4321289062</ele>
        <time>2010-09-19T09:25:13Z</time>
      </trkpt>
      <trkpt lat="46.32882" lon="5.94422">
        <ele>1148.4321289062</ele>
        <time>2010-09-19T09:25:14Z</time>
      </trkpt>
      <trkpt lat="46.32883" lon="5.94423">
        <ele>1148.4321289062</ele>
        <time>2010-09-19T09:25:20Z</time>
      </trkpt>
      <trkpt lat="46.32883" lon="5.94424">
        <ele>1147.470703125</ele>
        <time>2010-09-19T09:25:29Z</time>
      </trkpt>
      <trkpt lat="46.32881" lon="5.94421">
        <ele>1146.0288085938</ele>
        <time>2010-09-19T09:25:33Z</time>
      </trkpt>
      <trkpt lat="46.32875" lon="5.94414">
        <ele>1142.18359375</ele>
        <time>2010-09-19T09:25:39Z</time>
      </trkpt>
      <trkpt lat="46.32871" lon="5.94411">
        <ele>1141.2221679688</ele>
        <time>2010-09-19T09:25:45Z</time>
      </trkpt>
      <trkpt lat="46.32871" lon="5.94411">
        <ele>1140.7414550781</ele>
        <time>2010-09-19T09:25:46Z</time>
      </trkpt>
      <trkpt lat="46.3287" lon="5.9441">
        <ele>1140.2609863281</ele>
        <time>2010-09-19T09:25:47Z</time>
      </trkpt>
      <trkpt lat="46.32862" lon="5.94405">
        <ele>1137.8576660156</ele>
        <time>2010-09-19T09:25:51Z</time>
      </trkpt>
      <trkpt lat="46.32856" lon="5.94401">
        <ele>1135.4543457031</ele>
        <time>2010-09-19T09:25:55Z</time>
      </trkpt>
      <trkpt lat="46.32847" lon="5.94397">
        <ele>1132.08984375</ele>
        <time>2010-09-19T09:25:59Z</time>
      </trkpt>
      <trkpt lat="46.32841" lon="5.94393">
        <ele>1128.7250976562</ele>
        <time>2010-09-19T09:26:02Z</time>
      </trkpt>
      <trkpt lat="46.32834" lon="5.94386">
        <ele>1125.8410644531</ele>
        <time>2010-09-19T09:26:06Z</time>
      </trkpt>
      <trkpt lat="46.32827" lon="5.94382">
        <ele>1123.9184570312</ele>
        <time>2010-09-19T09:26:09Z</time>
      </trkpt>
      <trkpt lat="46.32824" lon="5.94381">
        <ele>1122.4765625</ele>
        <time>2010-09-19T09:26:11Z</time>
      </trkpt>
      <trkpt lat="46.32816" lon="5.94384">
        <ele>1120.0732421875</ele>
        <time>2010-09-19T09:26:15Z</time>
      </trkpt>
      <trkpt lat="46.32814" lon="5.94384">
        <ele>1118.6313476562</ele>
        <time>2010-09-19T09:26:17Z</time>
      </trkpt>
      <trkpt lat="46.3281" lon="5.94386">
        <ele>1115.7473144531</ele>
        <time>2010-09-19T09:26:20Z</time>
      </trkpt>
      <trkpt lat="46.32794" lon="5.94388">
        <ele>1109.4987792969</ele>
        <time>2010-09-19T09:26:25Z</time>
      </trkpt>
      <trkpt lat="46.3278" lon="5.94391">
        <ele>1104.6921386719</ele>
        <time>2010-09-19T09:26:30Z</time>
      </trkpt>
      <trkpt lat="46.32774" lon="5.94391">
        <ele>1103.2502441406</ele>
        <time>2010-09-19T09:26:33Z</time>
      </trkpt>
      <trkpt lat="46.32762" lon="5.94386">
        <ele>1099.4047851562</ele>
        <time>2010-09-19T09:26:37Z</time>
      </trkpt>
      <trkpt lat="46.32752" lon="5.94384">
        <ele>1096.0402832031</ele>
        <time>2010-09-19T09:26:40Z</time>
      </trkpt>
      <trkpt lat="46.3275" lon="5.94379">
        <ele>1095.0788574219</ele>
        <time>2010-09-19T09:26:44Z</time>
      </trkpt>
      <trkpt lat="46.3275" lon="5.94378">
        <ele>1094.1176757812</ele>
        <time>2010-09-19T09:26:45Z</time>
      </trkpt>
      <trkpt lat="46.32747" lon="5.9437">
        <ele>1091.7143554688</ele>
        <time>2010-09-19T09:26:50Z</time>
      </trkpt>
      <trkpt lat="46.32746" lon="5.94357">
        <ele>1088.3498535156</ele>
        <time>2010-09-19T09:26:54Z</time>
      </trkpt>
      <trkpt lat="46.32745" lon="5.94352">
        <ele>1088.3498535156</ele>
        <time>2010-09-19T09:26:55Z</time>
      </trkpt>
      <trkpt lat="46.32736" lon="5.94337">
        <ele>1084.5046386719</ele>
        <time>2010-09-19T09:26:59Z</time>
      </trkpt>
      <trkpt lat="46.32718" lon="5.94333">
        <ele>1081.6203613281</ele>
        <time>2010-09-19T09:27:03Z</time>
      </trkpt>
      <trkpt lat="46.32703" lon="5.9433">
        <ele>1078.7365722656</ele>
        <time>2010-09-19T09:27:06Z</time>
      </trkpt>
      <trkpt lat="46.32689" lon="5.94315">
        <ele>1075.3718261719</ele>
        <time>2010-09-19T09:27:11Z</time>
      </trkpt>
      <trkpt lat="46.32684" lon="5.94303">
        <ele>1073.4494628906</ele>
        <time>2010-09-19T09:27:14Z</time>
      </trkpt>
      <trkpt lat="46.32681" lon="5.94281">
        <ele>1073.9299316406</ele>
        <time>2010-09-19T09:27:20Z</time>
      </trkpt>
      <trkpt lat="46.32677" lon="5.94261">
        <ele>1072.4880371094</ele>
        <time>2010-09-19T09:27:25Z</time>
      </trkpt>
      <trkpt lat="46.32676" lon="5.94259">
        <ele>1072.4880371094</ele>
        <time>2010-09-19T09:27:26Z</time>
      </trkpt>
      <trkpt lat="46.32657" lon="5.94235">
        <ele>1072.0073242188</ele>
        <time>2010-09-19T09:27:32Z</time>
      </trkpt>
      <trkpt lat="46.32653" lon="5.94228">
        <ele>1071.5266113281</ele>
        <time>2010-09-19T09:27:33Z</time>
      </trkpt>
      <trkpt lat="46.32629" lon="5.94198">
        <ele>1071.5266113281</ele>
        <time>2010-09-19T09:27:38Z</time>
      </trkpt>
      <trkpt lat="46.32611" lon="5.94185">
        <ele>1070.5654296875</ele>
        <time>2010-09-19T09:27:42Z</time>
      </trkpt>
      <trkpt lat="46.32592" lon="5.94182">
        <ele>1066.7199707031</ele>
        <time>2010-09-19T09:27:46Z</time>
      </trkpt>
      <trkpt lat="46.32567" lon="5.94203">
        <ele>1061.4328613281</ele>
        <time>2010-09-19T09:27:51Z</time>
      </trkpt>
      <trkpt lat="46.32563" lon="5.94205">
        <ele>1059.9907226562</ele>
        <time>2010-09-19T09:27:52Z</time>
      </trkpt>
      <trkpt lat="46.3253" lon="5.94211">
        <ele>1055.6650390625</ele>
        <time>2010-09-19T09:27:58Z</time>
      </trkpt>
      <trkpt lat="46.3252" lon="5.94211">
        <ele>1054.2231445312</ele>
        <time>2010-09-19T09:28:00Z</time>
      </trkpt>
      <trkpt lat="46.32515" lon="5.94211">
        <ele>1052.3002929688</ele>
        <time>2010-09-19T09:28:01Z</time>
      </trkpt>
      <trkpt lat="46.32491" lon="5.94223">
        <ele>1047.0129394531</ele>
        <time>2010-09-19T09:28:05Z</time>
      </trkpt>
      <trkpt lat="46.32488" lon="5.9423">
        <ele>1046.0517578125</ele>
        <time>2010-09-19T09:28:06Z</time>
      </trkpt>
      <trkpt lat="46.32475" lon="5.94248">
        <ele>1043.6484375</ele>
        <time>2010-09-19T09:28:09Z</time>
      </trkpt>
      <trkpt lat="46.32458" lon="5.94248">
        <ele>1043.1677246094</ele>
        <time>2010-09-19T09:28:12Z</time>
      </trkpt>
      <trkpt lat="46.32436" lon="5.94245">
        <ele>1042.6872558594</ele>
        <time>2010-09-19T09:28:16Z</time>
      </trkpt>
      <trkpt lat="46.32426" lon="5.94253">
        <ele>1040.7644042969</ele>
        <time>2010-09-19T09:28:19Z</time>
      </trkpt>
      <trkpt lat="46.32419" lon="5.94264">
        <ele>1038.8420410156</ele>
        <time>2010-09-19T09:28:22Z</time>
      </trkpt>
      <trkpt lat="46.32415" lon="5.94267">
        <ele>1038.361328125</ele>
        <time>2010-09-19T09:28:23Z</time>
      </trkpt>
      <trkpt lat="46.32393" lon="5.94292">
        <ele>1034.5158691406</ele>
        <time>2010-09-19T09:28:28Z</time>
      </trkpt>
      <trkpt lat="46.32381" lon="5.94311">
        <ele>1032.5932617188</ele>
        <time>2010-09-19T09:28:31Z</time>
      </trkpt>
      <trkpt lat="46.32375" lon="5.94321">
        <ele>1031.6318359375</ele>
        <time>2010-09-19T09:28:33Z</time>
      </trkpt>
      <trkpt lat="46.32365" lon="5.94342">
        <ele>1028.748046875</ele>
        <time>2010-09-19T09:28:38Z</time>
      </trkpt>
      <trkpt lat="46.32364" lon="5.94345">
        <ele>1028.2673339844</ele>
        <time>2010-09-19T09:28:39Z</time>
      </trkpt>
      <trkpt lat="46.3236" lon="5.94361">
        <ele>1025.8640136719</ele>
        <time>2010-09-19T09:28:43Z</time>
      </trkpt>
      <trkpt lat="46.32364" lon="5.94381">
        <ele>1021.5380859375</ele>
        <time>2010-09-19T09:28:49Z</time>
      </trkpt>
      <trkpt lat="46.32358" lon="5.94384">
        <ele>1022.4995117188</ele>
        <time>2010-09-19T09:28:55Z</time>
      </trkpt>
      <trkpt lat="46.3235" lon="5.94381">
        <ele>1022.9802246094</ele>
        <time>2010-09-19T09:29:00Z</time>
      </trkpt>
      <trkpt lat="46.32346" lon="5.94377">
        <ele>1022.4995117188</ele>
        <time>2010-09-19T09:29:03Z</time>
      </trkpt>
      <trkpt lat="46.32331" lon="5.94373">
        <ele>1022.0187988281</ele>
        <time>2010-09-19T09:29:08Z</time>
      </trkpt>
      <trkpt lat="46.32314" lon="5.94373">
        <ele>1021.0576171875</ele>
        <time>2010-09-19T09:29:12Z</time>
      </trkpt>
      <trkpt lat="46.32297" lon="5.94372">
        <ele>1017.6926269531</ele>
        <time>2010-09-19T09:29:16Z</time>
      </trkpt>
      <trkpt lat="46.32292" lon="5.94371">
        <ele>1017.6926269531</ele>
        <time>2010-09-19T09:29:17Z</time>
      </trkpt>
      <trkpt lat="46.32281" lon="5.9437">
        <ele>1017.2121582031</ele>
        <time>2010-09-19T09:29:19Z</time>
      </trkpt>
      <trkpt lat="46.32262" lon="5.94376">
        <ele>1013.8474121094</ele>
        <time>2010-09-19T09:29:23Z</time>
      </trkpt>
      <trkpt lat="46.32245" lon="5.9438">
        <ele>1012.4055175781</ele>
        <time>2010-09-19T09:29:27Z</time>
      </trkpt>
      <trkpt lat="46.32241" lon="5.94381">
        <ele>1012.4055175781</ele>
        <time>2010-09-19T09:29:28Z</time>
      </trkpt>
      <trkpt lat="46.32228" lon="5.94379">
        <ele>1011.9250488281</ele>
        <time>2010-09-19T09:29:30Z</time>
      </trkpt>
      <trkpt lat="46.32203" lon="5.94374">
        <ele>1009.041015625</ele>
        <time>2010-09-19T09:29:34Z</time>
      </trkpt>
      <trkpt lat="46.32184" lon="5.94364">
        <ele>1007.1184082031</ele>
        <time>2010-09-19T09:29:37Z</time>
      </trkpt>
      <trkpt lat="46.3217" lon="5.94362">
        <ele>1006.1569824219</ele>
        <time>2010-09-19T09:29:40Z</time>
      </trkpt>
      <trkpt lat="46.32167" lon="5.94365">
        <ele>1005.1958007812</ele>
        <time>2010-09-19T09:29:41Z</time>
      </trkpt>
      <trkpt lat="46.32155" lon="5.94383">
        <ele>1001.3503417969</ele>
        <time>2010-09-19T09:29:46Z</time>
      </trkpt>
      <trkpt lat="46.32154" lon="5.94385">
        <ele>1001.3503417969</ele>
        <time>2010-09-19T09:29:47Z</time>
      </trkpt>
      <trkpt lat="46.32149" lon="5.94392">
        <ele>999.427734375</ele>
        <time>2010-09-19T09:29:52Z</time>
      </trkpt>
      <trkpt lat="46.32143" lon="5.94398">
        <ele>996.5439453125</ele>
        <time>2010-09-19T09:29:56Z</time>
      </trkpt>
      <trkpt lat="46.3214" lon="5.94406">
        <ele>993.65991210938</ele>
        <time>2010-09-19T09:29:59Z</time>
      </trkpt>
      <trkpt lat="46.32135" lon="5.9441">
        <ele>994.140625</ele>
        <time>2010-09-19T09:30:01Z</time>
      </trkpt>
      <trkpt lat="46.32133" lon="5.9442">
        <ele>996.06323242188</ele>
        <time>2010-09-19T09:30:07Z</time>
      </trkpt>
      <trkpt lat="46.32129" lon="5.94427">
        <ele>997.50512695312</ele>
        <time>2010-09-19T09:30:13Z</time>
      </trkpt>
      <trkpt lat="46.3213" lon="5.94434">
        <ele>1000.3891601562</ele>
        <time>2010-09-19T09:30:19Z</time>
      </trkpt>
      <trkpt lat="46.32128" lon="5.94439">
        <ele>999.427734375</ele>
        <time>2010-09-19T09:30:26Z</time>
      </trkpt>
      <trkpt lat="46.32127" lon="5.94439">
        <ele>999.90844726562</ele>
        <time>2010-09-19T09:30:28Z</time>
      </trkpt>
      <trkpt lat="46.32116" lon="5.94441">
        <ele>997.50512695312</ele>
        <time>2010-09-19T09:30:34Z</time>
      </trkpt>
      <trkpt lat="46.32109" lon="5.94444">
        <ele>996.5439453125</ele>
        <time>2010-09-19T09:30:36Z</time>
      </trkpt>
      <trkpt lat="46.32101" lon="5.94445">
        <ele>995.58251953125</ele>
        <time>2010-09-19T09:30:38Z</time>
      </trkpt>
      <trkpt lat="46.32085" lon="5.94441">
        <ele>992.69873046875</ele>
        <time>2010-09-19T09:30:42Z</time>
      </trkpt>
      <trkpt lat="46.32072" lon="5.94435">
        <ele>991.25659179688</ele>
        <time>2010-09-19T09:30:45Z</time>
      </trkpt>
      <trkpt lat="46.3206" lon="5.94433">
        <ele>990.29541015625</ele>
        <time>2010-09-19T09:30:48Z</time>
      </trkpt>
      <trkpt lat="46.3205" lon="5.94432">
        <ele>986.93041992188</ele>
        <time>2010-09-19T09:30:50Z</time>
      </trkpt>
      <trkpt lat="46.32033" lon="5.9443">
        <ele>982.60473632812</ele>
        <time>2010-09-19T09:30:53Z</time>
      </trkpt>
      <trkpt lat="46.3201" lon="5.94425">
        <ele>980.20141601562</ele>
        <time>2010-09-19T09:30:57Z</time>
      </trkpt>
      <trkpt lat="46.32003" lon="5.94425">
        <ele>979.23999023438</ele>
        <time>2010-09-19T09:30:58Z</time>
      </trkpt>
      <trkpt lat="46.31993" lon="5.94424">
        <ele>978.27880859375</ele>
        <time>2010-09-19T09:31:00Z</time>
      </trkpt>
      <trkpt lat="46.31976" lon="5.94435">
        <ele>976.35620117188</ele>
        <time>2010-09-19T09:31:05Z</time>
      </trkpt>
      <trkpt lat="46.31964" lon="5.94448">
        <ele>972.51098632812</ele>
        <time>2010-09-19T09:31:08Z</time>
      </trkpt>
      <trkpt lat="46.31949" lon="5.94459">
        <ele>968.18481445312</ele>
        <time>2010-09-19T09:31:11Z</time>
      </trkpt>
      <trkpt lat="46.31932" lon="5.94464">
        <ele>963.85888671875</ele>
        <time>2010-09-19T09:31:14Z</time>
      </trkpt>
      <trkpt lat="46.31921" lon="5.94464">
        <ele>962.4169921875</ele>
        <time>2010-09-19T09:31:16Z</time>
      </trkpt>
      <trkpt lat="46.31916" lon="5.94463">
        <ele>962.4169921875</ele>
        <time>2010-09-19T09:31:17Z</time>
      </trkpt>
      <trkpt lat="46.31907" lon="5.9446">
        <ele>960.97509765625</ele>
        <time>2010-09-19T09:31:19Z</time>
      </trkpt>
      <trkpt lat="46.31902" lon="5.94459">
        <ele>960.013671875</ele>
        <time>2010-09-19T09:31:20Z</time>
      </trkpt>
      <trkpt lat="46.31889" lon="5.94452">
        <ele>958.09130859375</ele>
        <time>2010-09-19T09:31:23Z</time>
      </trkpt>
      <trkpt lat="46.31872" lon="5.94449">
        <ele>952.8037109375</ele>
        <time>2010-09-19T09:31:27Z</time>
      </trkpt>
      <trkpt lat="46.3186" lon="5.94463">
        <ele>950.40063476562</ele>
        <time>2010-09-19T09:31:31Z</time>
      </trkpt>
      <trkpt lat="46.31858" lon="5.94468">
        <ele>949.919921875</ele>
        <time>2010-09-19T09:31:32Z</time>
      </trkpt>
      <trkpt lat="46.31872" lon="5.94488">
        <ele>947.99731445312</ele>
        <time>2010-09-19T09:31:36Z</time>
      </trkpt>
      <trkpt lat="46.31876" lon="5.94493">
        <ele>948.95849609375</ele>
        <time>2010-09-19T09:31:37Z</time>
      </trkpt>
      <trkpt lat="46.31895" lon="5.94526">
        <ele>947.03588867188</ele>
        <time>2010-09-19T09:31:44Z</time>
      </trkpt>
      <trkpt lat="46.31904" lon="5.9454">
        <ele>945.11328125</ele>
        <time>2010-09-19T09:31:47Z</time>
      </trkpt>
      <trkpt lat="46.31923" lon="5.94565">
        <ele>941.74877929688</ele>
        <time>2010-09-19T09:31:53Z</time>
      </trkpt>
      <trkpt lat="46.31935" lon="5.94592">
        <ele>937.42260742188</ele>
        <time>2010-09-19T09:31:58Z</time>
      </trkpt>
      <trkpt lat="46.31944" lon="5.94615">
        <ele>935.01953125</ele>
        <time>2010-09-19T09:32:02Z</time>
      </trkpt>
      <trkpt lat="46.31958" lon="5.94645">
        <ele>933.0966796875</ele>
        <time>2010-09-19T09:32:07Z</time>
      </trkpt>
      <trkpt lat="46.31979" lon="5.94675">
        <ele>929.73217773438</ele>
        <time>2010-09-19T09:32:11Z</time>
      </trkpt>
      <trkpt lat="46.31993" lon="5.94702">
        <ele>925.88696289062</ele>
        <time>2010-09-19T09:32:14Z</time>
      </trkpt>
      <trkpt lat="46.32001" lon="5.94721">
        <ele>922.52221679688</ele>
        <time>2010-09-19T09:32:16Z</time>
      </trkpt>
      <trkpt lat="46.31997" lon="5.9475">
        <ele>919.63842773438</ele>
        <time>2010-09-19T09:32:20Z</time>
      </trkpt>
      <trkpt lat="46.3198" lon="5.94754">
        <ele>918.67700195312</ele>
        <time>2010-09-19T09:32:23Z</time>
      </trkpt>
      <trkpt lat="46.31969" lon="5.94753">
        <ele>917.23510742188</ele>
        <time>2010-09-19T09:32:25Z</time>
      </trkpt>
      <trkpt lat="46.31952" lon="5.94749">
        <ele>915.79321289062</ele>
        <time>2010-09-19T09:32:29Z</time>
      </trkpt>
      <trkpt lat="46.31938" lon="5.94753">
        <ele>914.35107421875</ele>
        <time>2010-09-19T09:32:32Z</time>
      </trkpt>
      <trkpt lat="46.31916" lon="5.94753">
        <ele>911.46728515625</ele>
        <time>2010-09-19T09:32:36Z</time>
      </trkpt>
      <trkpt lat="46.31896" lon="5.94744">
        <ele>909.54467773438</ele>
        <time>2010-09-19T09:32:39Z</time>
      </trkpt>
      <trkpt lat="46.31879" lon="5.94737">
        <ele>908.10278320312</ele>
        <time>2010-09-19T09:32:42Z</time>
      </trkpt>
      <trkpt lat="46.3186" lon="5.94734">
        <ele>906.1796875</ele>
        <time>2010-09-19T09:32:47Z</time>
      </trkpt>
      <trkpt lat="46.31851" lon="5.9473">
        <ele>906.1796875</ele>
        <time>2010-09-19T09:32:52Z</time>
      </trkpt>
      <trkpt lat="46.31848" lon="5.94729">
        <ele>905.21850585938</ele>
        <time>2010-09-19T09:32:54Z</time>
      </trkpt>
      <trkpt lat="46.3184" lon="5.94721">
        <ele>906.1796875</ele>
        <time>2010-09-19T09:33:00Z</time>
      </trkpt>
      <trkpt lat="46.31835" lon="5.94716">
        <ele>906.66040039062</ele>
        <time>2010-09-19T09:33:05Z</time>
      </trkpt>
      <trkpt lat="46.31834" lon="5.94716">
        <ele>906.66040039062</ele>
        <time>2010-09-19T09:33:07Z</time>
      </trkpt>
      <trkpt lat="46.31825" lon="5.9471">
        <ele>907.14111328125</ele>
        <time>2010-09-19T09:33:13Z</time>
      </trkpt>
      <trkpt lat="46.31821" lon="5.94705">
        <ele>908.58325195312</ele>
        <time>2010-09-19T09:33:18Z</time>
      </trkpt>
      <trkpt lat="46.31814" lon="5.94701">
        <ele>909.54467773438</ele>
        <time>2010-09-19T09:33:24Z</time>
      </trkpt>
      <trkpt lat="46.31812" lon="5.94696">
        <ele>910.505859375</ele>
        <time>2010-09-19T09:33:30Z</time>
      </trkpt>
      <trkpt lat="46.31808" lon="5.94695">
        <ele>910.02514648438</ele>
        <time>2010-09-19T09:33:34Z</time>
      </trkpt>
      <trkpt lat="46.31801" lon="5.94684">
        <ele>911.46728515625</ele>
        <time>2010-09-19T09:33:41Z</time>
      </trkpt>
      <trkpt lat="46.31797" lon="5.94676">
        <ele>912.42846679688</ele>
        <time>2010-09-19T09:33:47Z</time>
      </trkpt>
      <trkpt lat="46.31789" lon="5.94665">
        <ele>913.38989257812</ele>
        <time>2010-09-19T09:33:54Z</time>
      </trkpt>
      <trkpt lat="46.31782" lon="5.94656">
        <ele>913.87036132812</ele>
        <time>2010-09-19T09:34:00Z</time>
      </trkpt>
      <trkpt lat="46.31771" lon="5.94644">
        <ele>913.38989257812</ele>
        <time>2010-09-19T09:34:05Z</time>
      </trkpt>
      <trkpt lat="46.31756" lon="5.94627">
        <ele>912.9091796875</ele>
        <time>2010-09-19T09:34:11Z</time>
      </trkpt>
      <trkpt lat="46.31742" lon="5.94613">
        <ele>912.9091796875</ele>
        <time>2010-09-19T09:34:15Z</time>
      </trkpt>
      <trkpt lat="46.3172" lon="5.94594">
        <ele>910.505859375</ele>
        <time>2010-09-19T09:34:21Z</time>
      </trkpt>
      <trkpt lat="46.31693" lon="5.94571">
        <ele>908.10278320312</ele>
        <time>2010-09-19T09:34:26Z</time>
      </trkpt>
      <trkpt lat="46.31689" lon="5.94567">
        <ele>907.62182617188</ele>
        <time>2010-09-19T09:34:27Z</time>
      </trkpt>
      <trkpt lat="46.31675" lon="5.94556">
        <ele>906.66040039062</ele>
        <time>2010-09-19T09:34:32Z</time>
      </trkpt>
      <trkpt lat="46.3167" lon="5.9455">
        <ele>906.66040039062</ele>
        <time>2010-09-19T09:34:38Z</time>
      </trkpt>
      <trkpt lat="46.31667" lon="5.94543">
        <ele>907.14111328125</ele>
        <time>2010-09-19T09:34:44Z</time>
      </trkpt>
      <trkpt lat="46.31665" lon="5.94541">
        <ele>907.62182617188</ele>
        <time>2010-09-19T09:34:47Z</time>
      </trkpt>
      <trkpt lat="46.31655" lon="5.94531">
        <ele>907.62182617188</ele>
        <time>2010-09-19T09:34:54Z</time>
      </trkpt>
      <trkpt lat="46.31654" lon="5.94527">
        <ele>908.10278320312</ele>
        <time>2010-09-19T09:35:00Z</time>
      </trkpt>
      <trkpt lat="46.31648" lon="5.9452">
        <ele>908.58325195312</ele>
        <time>2010-09-19T09:35:06Z</time>
      </trkpt>
      <trkpt lat="46.31645" lon="5.94515">
        <ele>908.58325195312</ele>
        <time>2010-09-19T09:35:11Z</time>
      </trkpt>
      <trkpt lat="46.31636" lon="5.94505">
        <ele>910.02514648438</ele>
        <time>2010-09-19T09:35:21Z</time>
      </trkpt>
      <trkpt lat="46.31632" lon="5.94502">
        <ele>910.02514648438</ele>
        <time>2010-09-19T09:35:23Z</time>
      </trkpt>
      <trkpt lat="46.31626" lon="5.94499">
        <ele>909.06396484375</ele>
        <time>2010-09-19T09:35:28Z</time>
      </trkpt>
      <trkpt lat="46.31623" lon="5.94498">
        <ele>909.06396484375</ele>
        <time>2010-09-19T09:35:33Z</time>
      </trkpt>
      <trkpt lat="46.31618" lon="5.94494">
        <ele>909.54467773438</ele>
        <time>2010-09-19T09:35:37Z</time>
      </trkpt>
      <trkpt lat="46.31609" lon="5.94486">
        <ele>910.505859375</ele>
        <time>2010-09-19T09:35:42Z</time>
      </trkpt>
      <trkpt lat="46.316" lon="5.94478">
        <ele>911.46728515625</ele>
        <time>2010-09-19T09:35:48Z</time>
      </trkpt>
      <trkpt lat="46.31588" lon="5.94462">
        <ele>911.46728515625</ele>
        <time>2010-09-19T09:35:53Z</time>
      </trkpt>
      <trkpt lat="46.3157" lon="5.9445">
        <ele>910.505859375</ele>
        <time>2010-09-19T09:35:58Z</time>
      </trkpt>
      <trkpt lat="46.31548" lon="5.94432">
        <ele>909.06396484375</ele>
        <time>2010-09-19T09:36:04Z</time>
      </trkpt>
      <trkpt lat="46.3153" lon="5.94422">
        <ele>910.02514648438</ele>
        <time>2010-09-19T09:36:10Z</time>
      </trkpt>
      <trkpt lat="46.31513" lon="5.94411">
        <ele>908.58325195312</ele>
        <time>2010-09-19T09:36:15Z</time>
      </trkpt>
      <trkpt lat="46.31507" lon="5.94405">
        <ele>908.10278320312</ele>
        <time>2010-09-19T09:36:17Z</time>
      </trkpt>
      <trkpt lat="46.31491" lon="5.94383">
        <ele>904.73779296875</ele>
        <time>2010-09-19T09:36:21Z</time>
      </trkpt>
      <trkpt lat="46.31485" lon="5.94379">
        <ele>904.25732421875</ele>
        <time>2010-09-19T09:36:22Z</time>
      </trkpt>
      <trkpt lat="46.31445" lon="5.94359">
        <ele>900.412109375</ele>
        <time>2010-09-19T09:36:28Z</time>
      </trkpt>
      <trkpt lat="46.31438" lon="5.94353">
        <ele>900.412109375</ele>
        <time>2010-09-19T09:36:29Z</time>
      </trkpt>
      <trkpt lat="46.31409" lon="5.94337">
        <ele>898.0087890625</ele>
        <time>2010-09-19T09:36:33Z</time>
      </trkpt>
      <trkpt lat="46.31402" lon="5.94336">
        <ele>897.52807617188</ele>
        <time>2010-09-19T09:36:34Z</time>
      </trkpt>
      <trkpt lat="46.31374" lon="5.94338">
        <ele>898.0087890625</ele>
        <time>2010-09-19T09:36:39Z</time>
      </trkpt>
      <trkpt lat="46.31353" lon="5.94349">
        <ele>896.56689453125</ele>
        <time>2010-09-19T09:36:44Z</time>
      </trkpt>
      <trkpt lat="46.31347" lon="5.94339">
        <ele>896.08618164062</ele>
        <time>2010-09-19T09:36:47Z</time>
      </trkpt>
      <trkpt lat="46.31346" lon="5.94332">
        <ele>895.60546875</ele>
        <time>2010-09-19T09:36:48Z</time>
      </trkpt>
      <trkpt lat="46.31345" lon="5.94304">
        <ele>888.87622070312</ele>
        <time>2010-09-19T09:36:52Z</time>
      </trkpt>
      <trkpt lat="46.3133" lon="5.94293">
        <ele>887.91479492188</ele>
        <time>2010-09-19T09:36:56Z</time>
      </trkpt>
      <trkpt lat="46.31301" lon="5.94298">
        <ele>887.43408203125</ele>
        <time>2010-09-19T09:37:00Z</time>
      </trkpt>
      <trkpt lat="46.31284" lon="5.94291">
        <ele>885.51147460938</ele>
        <time>2010-09-19T09:37:03Z</time>
      </trkpt>
      <trkpt lat="46.31267" lon="5.94278">
        <ele>883.5888671875</ele>
        <time>2010-09-19T09:37:06Z</time>
      </trkpt>
      <trkpt lat="46.31237" lon="5.94254">
        <ele>881.18579101562</ele>
        <time>2010-09-19T09:37:11Z</time>
      </trkpt>
      <trkpt lat="46.31231" lon="5.94249">
        <ele>880.705078125</ele>
        <time>2010-09-19T09:37:12Z</time>
      </trkpt>
      <trkpt lat="46.31205" lon="5.94233">
        <ele>879.74365234375</ele>
        <time>2010-09-19T09:37:16Z</time>
      </trkpt>
      <trkpt lat="46.31179" lon="5.94225">
        <ele>879.26293945312</ele>
        <time>2010-09-19T09:37:20Z</time>
      </trkpt>
      <trkpt lat="46.31155" lon="5.94233">
        <ele>879.26293945312</ele>
        <time>2010-09-19T09:37:24Z</time>
      </trkpt>
      <trkpt lat="46.31145" lon="5.94248">
        <ele>879.26293945312</ele>
        <time>2010-09-19T09:37:26Z</time>
      </trkpt>
      <trkpt lat="46.31124" lon="5.94287">
        <ele>879.26293945312</ele>
        <time>2010-09-19T09:37:32Z</time>
      </trkpt>
      <trkpt lat="46.31109" lon="5.94288">
        <ele>880.705078125</ele>
        <time>2010-09-19T09:37:37Z</time>
      </trkpt>
      <trkpt lat="46.31084" lon="5.94282">
        <ele>880.705078125</ele>
        <time>2010-09-19T09:37:45Z</time>
      </trkpt>
      <trkpt lat="46.31054" lon="5.94266">
        <ele>880.22436523438</ele>
        <time>2010-09-19T09:37:54Z</time>
      </trkpt>
      <trkpt lat="46.31029" lon="5.94251">
        <ele>879.74365234375</ele>
        <time>2010-09-19T09:38:02Z</time>
      </trkpt>
      <trkpt lat="46.31019" lon="5.94257">
        <ele>880.22436523438</ele>
        <time>2010-09-19T09:38:06Z</time>
      </trkpt>
      <trkpt lat="46.31015" lon="5.94266">
        <ele>882.14697265625</ele>
        <time>2010-09-19T09:38:09Z</time>
      </trkpt>
      <trkpt lat="46.31018" lon="5.94289">
        <ele>883.5888671875</ele>
        <time>2010-09-19T09:38:17Z</time>
      </trkpt>
      <trkpt lat="46.31022" lon="5.94312">
        <ele>885.9921875</ele>
        <time>2010-09-19T09:38:26Z</time>
      </trkpt>
      <trkpt lat="46.31027" lon="5.9433">
        <ele>886.95336914062</ele>
        <time>2010-09-19T09:38:34Z</time>
      </trkpt>
      <trkpt lat="46.31031" lon="5.94345">
        <ele>888.87622070312</ele>
        <time>2010-09-19T09:38:41Z</time>
      </trkpt>
      <trkpt lat="46.31033" lon="5.9436">
        <ele>890.31811523438</ele>
        <time>2010-09-19T09:38:48Z</time>
      </trkpt>
      <trkpt lat="46.31032" lon="5.94379">
        <ele>891.279296875</ele>
        <time>2010-09-19T09:38:57Z</time>
      </trkpt>
      <trkpt lat="46.31024" lon="5.94386">
        <ele>891.279296875</ele>
        <time>2010-09-19T09:39:03Z</time>
      </trkpt>
      <trkpt lat="46.31005" lon="5.94397">
        <ele>893.68286132812</ele>
        <time>2010-09-19T09:39:14Z</time>
      </trkpt>
      <trkpt lat="46.30993" lon="5.94404">
        <ele>894.16357421875</ele>
        <time>2010-09-19T09:39:21Z</time>
      </trkpt>
      <trkpt lat="46.30976" lon="5.94413">
        <ele>895.12475585938</ele>
        <time>2010-09-19T09:39:30Z</time>
      </trkpt>
      <trkpt lat="46.30965" lon="5.9442">
        <ele>896.56689453125</ele>
        <time>2010-09-19T09:39:37Z</time>
      </trkpt>
      <trkpt lat="46.30949" lon="5.9443">
        <ele>897.52807617188</ele>
        <time>2010-09-19T09:39:46Z</time>
      </trkpt>
      <trkpt lat="46.30934" lon="5.94445">
        <ele>898.96997070312</ele>
        <time>2010-09-19T09:39:55Z</time>
      </trkpt>
      <trkpt lat="46.30925" lon="5.94448">
        <ele>898.0087890625</ele>
        <time>2010-09-19T09:39:58Z</time>
      </trkpt>
      <trkpt lat="46.30916" lon="5.94445">
        <ele>897.04736328125</ele>
        <time>2010-09-19T09:40:00Z</time>
      </trkpt>
      <trkpt lat="46.30907" lon="5.94442">
        <ele>895.60546875</ele>
        <time>2010-09-19T09:40:02Z</time>
      </trkpt>
      <trkpt lat="46.30888" lon="5.94439">
        <ele>895.12475585938</ele>
        <time>2010-09-19T09:40:07Z</time>
      </trkpt>
      <trkpt lat="46.30875" lon="5.94423">
        <ele>895.60546875</ele>
        <time>2010-09-19T09:40:12Z</time>
      </trkpt>
      <trkpt lat="46.30865" lon="5.94414">
        <ele>896.56689453125</ele>
        <time>2010-09-19T09:40:17Z</time>
      </trkpt>
      <trkpt lat="46.30861" lon="5.94411">
        <ele>898.0087890625</ele>
        <time>2010-09-19T09:40:19Z</time>
      </trkpt>
      <trkpt lat="46.30844" lon="5.94397">
        <ele>898.0087890625</ele>
        <time>2010-09-19T09:40:26Z</time>
      </trkpt>
      <trkpt lat="46.30824" lon="5.94379">
        <ele>897.04736328125</ele>
        <time>2010-09-19T09:40:33Z</time>
      </trkpt>
      <trkpt lat="46.30802" lon="5.94356">
        <ele>894.16357421875</ele>
        <time>2010-09-19T09:40:39Z</time>
      </trkpt>
      <trkpt lat="46.30795" lon="5.94348">
        <ele>891.279296875</ele>
        <time>2010-09-19T09:40:41Z</time>
      </trkpt>
      <trkpt lat="46.30785" lon="5.94338">
        <ele>890.31811523438</ele>
        <time>2010-09-19T09:40:43Z</time>
      </trkpt>
      <trkpt lat="46.30774" lon="5.94325">
        <ele>891.76000976562</ele>
        <time>2010-09-19T09:40:46Z</time>
      </trkpt>
      <trkpt lat="46.3077" lon="5.94318">
        <ele>892.24096679688</ele>
        <time>2010-09-19T09:40:48Z</time>
      </trkpt>
      <trkpt lat="46.30758" lon="5.94307">
        <ele>893.2021484375</ele>
        <time>2010-09-19T09:40:53Z</time>
      </trkpt>
      <trkpt lat="46.30745" lon="5.94311">
        <ele>893.68286132812</ele>
        <time>2010-09-19T09:40:58Z</time>
      </trkpt>
      <trkpt lat="46.3073" lon="5.94323">
        <ele>894.16357421875</ele>
        <time>2010-09-19T09:41:05Z</time>
      </trkpt>
      <trkpt lat="46.30721" lon="5.94338">
        <ele>895.12475585938</ele>
        <time>2010-09-19T09:41:11Z</time>
      </trkpt>
      <trkpt lat="46.30722" lon="5.94354">
        <ele>896.08618164062</ele>
        <time>2010-09-19T09:41:17Z</time>
      </trkpt>
      <trkpt lat="46.3073" lon="5.94375">
        <ele>896.56689453125</ele>
        <time>2010-09-19T09:41:25Z</time>
      </trkpt>
      <trkpt lat="46.30737" lon="5.94395">
        <ele>897.52807617188</ele>
        <time>2010-09-19T09:41:32Z</time>
      </trkpt>
      <trkpt lat="46.3074" lon="5.94415">
        <ele>899.45068359375</ele>
        <time>2010-09-19T09:41:39Z</time>
      </trkpt>
      <trkpt lat="46.30734" lon="5.94426">
        <ele>899.93139648438</ele>
        <time>2010-09-19T09:41:45Z</time>
      </trkpt>
      <trkpt lat="46.30719" lon="5.94429">
        <ele>900.892578125</ele>
        <time>2010-09-19T09:41:53Z</time>
      </trkpt>
      <trkpt lat="46.30703" lon="5.94426">
        <ele>901.85400390625</ele>
        <time>2010-09-19T09:42:01Z</time>
      </trkpt>
      <trkpt lat="46.30688" lon="5.94425">
        <ele>901.37329101562</ele>
        <time>2010-09-19T09:42:07Z</time>
      </trkpt>
      <trkpt lat="46.30669" lon="5.94423">
        <ele>902.81518554688</ele>
        <time>2010-09-19T09:42:16Z</time>
      </trkpt>
      <trkpt lat="46.30653" lon="5.94423">
        <ele>903.77661132812</ele>
        <time>2010-09-19T09:42:23Z</time>
      </trkpt>
      <trkpt lat="46.30637" lon="5.94419">
        <ele>903.77661132812</ele>
        <time>2010-09-19T09:42:30Z</time>
      </trkpt>
      <trkpt lat="46.3062" lon="5.94416">
        <ele>904.25732421875</ele>
        <time>2010-09-19T09:42:37Z</time>
      </trkpt>
      <trkpt lat="46.30608" lon="5.94414">
        <ele>905.21850585938</ele>
        <time>2010-09-19T09:42:43Z</time>
      </trkpt>
      <trkpt lat="46.30595" lon="5.94416">
        <ele>906.66040039062</ele>
        <time>2010-09-19T09:42:50Z</time>
      </trkpt>
      <trkpt lat="46.30583" lon="5.9442">
        <ele>907.14111328125</ele>
        <time>2010-09-19T09:42:56Z</time>
      </trkpt>
      <trkpt lat="46.3058" lon="5.94426">
        <ele>908.10278320312</ele>
        <time>2010-09-19T09:42:59Z</time>
      </trkpt>
      <trkpt lat="46.30586" lon="5.94433">
        <ele>909.06396484375</ele>
        <time>2010-09-19T09:43:04Z</time>
      </trkpt>
      <trkpt lat="46.30583" lon="5.94439">
        <ele>909.54467773438</ele>
        <time>2010-09-19T09:43:08Z</time>
      </trkpt>
      <trkpt lat="46.30583" lon="5.94441">
        <ele>909.06396484375</ele>
        <time>2010-09-19T09:43:15Z</time>
      </trkpt>
      <trkpt lat="46.30583" lon="5.94442">
        <ele>908.58325195312</ele>
        <time>2010-09-19T09:43:20Z</time>
      </trkpt>
      <trkpt lat="46.30584" lon="5.94442">
        <ele>908.10278320312</ele>
        <time>2010-09-19T09:48:57Z</time>
      </trkpt>
      <trkpt lat="46.30584" lon="5.94442">
        <ele>908.58325195312</ele>
        <time>2010-09-19T09:49:18Z</time>
      </trkpt>
      <trkpt lat="46.30585" lon="5.94442">
        <ele>908.10278320312</ele>
        <time>2010-09-19T09:49:44Z</time>
      </trkpt>
      <trkpt lat="46.30585" lon="5.94442">
        <ele>907.14111328125</ele>
        <time>2010-09-19T09:50:10Z</time>
      </trkpt>
      <trkpt lat="46.30584" lon="5.94442">
        <ele>908.10278320312</ele>
        <time>2010-09-19T09:50:24Z</time>
      </trkpt>
      <trkpt lat="46.30584" lon="5.94442">
        <ele>908.10278320312</ele>
        <time>2010-09-19T09:51:22Z</time>
      </trkpt>
      <trkpt lat="46.30584" lon="5.94443">
        <ele>908.10278320312</ele>
        <time>2010-09-19T09:53:08Z</time>
      </trkpt>
      <trkpt lat="46.30584" lon="5.94444">
        <ele>907.62182617188</ele>
        <time>2010-09-19T09:53:52Z</time>
      </trkpt>
      <trkpt lat="46.30584" lon="5.94443">
        <ele>907.14111328125</ele>
        <time>2010-09-19T09:54:21Z</time>
      </trkpt>
      <trkpt lat="46.30584" lon="5.94442">
        <ele>907.14111328125</ele>
        <time>2010-09-19T09:54:39Z</time>
      </trkpt>
      <trkpt lat="46.30582" lon="5.94431">
        <ele>907.14111328125</ele>
        <time>2010-09-19T09:54:44Z</time>
      </trkpt>
      <trkpt lat="46.30574" lon="5.94431">
        <ele>906.66040039062</ele>
        <time>2010-09-19T09:54:47Z</time>
      </trkpt>
      <trkpt lat="46.30568" lon="5.94432">
        <ele>906.66040039062</ele>
        <time>2010-09-19T09:54:50Z</time>
      </trkpt>
      <trkpt lat="46.30558" lon="5.94426">
        <ele>906.66040039062</ele>
        <time>2010-09-19T09:54:55Z</time>
      </trkpt>
      <trkpt lat="46.30534" lon="5.94409">
        <ele>907.14111328125</ele>
        <time>2010-09-19T09:55:02Z</time>
      </trkpt>
      <trkpt lat="46.30505" lon="5.94389">
        <ele>907.14111328125</ele>
        <time>2010-09-19T09:55:08Z</time>
      </trkpt>
      <trkpt lat="46.30489" lon="5.94377">
        <ele>906.66040039062</ele>
        <time>2010-09-19T09:55:12Z</time>
      </trkpt>
      <trkpt lat="46.30471" lon="5.94352">
        <ele>906.66040039062</ele>
        <time>2010-09-19T09:55:18Z</time>
      </trkpt>
      <trkpt lat="46.30461" lon="5.94335">
        <ele>906.1796875</ele>
        <time>2010-09-19T09:55:21Z</time>
      </trkpt>
      <trkpt lat="46.30449" lon="5.94317">
        <ele>904.73779296875</ele>
        <time>2010-09-19T09:55:24Z</time>
      </trkpt>
      <trkpt lat="46.3042" lon="5.94277">
        <ele>903.2958984375</ele>
        <time>2010-09-19T09:55:30Z</time>
      </trkpt>
      <trkpt lat="46.30396" lon="5.94237">
        <ele>901.37329101562</ele>
        <time>2010-09-19T09:55:35Z</time>
      </trkpt>
      <trkpt lat="46.30371" lon="5.94197">
        <ele>899.93139648438</ele>
        <time>2010-09-19T09:55:40Z</time>
      </trkpt>
      <trkpt lat="46.30351" lon="5.94162">
        <ele>900.412109375</ele>
        <time>2010-09-19T09:55:44Z</time>
      </trkpt>
      <trkpt lat="46.30326" lon="5.94116">
        <ele>899.93139648438</ele>
        <time>2010-09-19T09:55:49Z</time>
      </trkpt>
      <trkpt lat="46.30294" lon="5.94071">
        <ele>898.96997070312</ele>
        <time>2010-09-19T09:55:55Z</time>
      </trkpt>
      <trkpt lat="46.30288" lon="5.94065">
        <ele>898.96997070312</ele>
        <time>2010-09-19T09:55:56Z</time>
      </trkpt>
      <trkpt lat="46.30257" lon="5.94043">
        <ele>898.96997070312</ele>
        <time>2010-09-19T09:56:01Z</time>
      </trkpt>
      <trkpt lat="46.30202" lon="5.94014">
        <ele>898.0087890625</ele>
        <time>2010-09-19T09:56:09Z</time>
      </trkpt>
      <trkpt lat="46.30164" lon="5.93988">
        <ele>897.04736328125</ele>
        <time>2010-09-19T09:56:15Z</time>
      </trkpt>
      <trkpt lat="46.30157" lon="5.93958">
        <ele>896.08618164062</ele>
        <time>2010-09-19T09:56:18Z</time>
      </trkpt>
      <trkpt lat="46.30157" lon="5.93947">
        <ele>895.12475585938</ele>
        <time>2010-09-19T09:56:19Z</time>
      </trkpt>
      <trkpt lat="46.30142" lon="5.93885">
        <ele>892.24096679688</ele>
        <time>2010-09-19T09:56:24Z</time>
      </trkpt>
      <trkpt lat="46.30129" lon="5.93844">
        <ele>888.87622070312</ele>
        <time>2010-09-19T09:56:27Z</time>
      </trkpt>
      <trkpt lat="46.30114" lon="5.93785">
        <ele>885.9921875</ele>
        <time>2010-09-19T09:56:31Z</time>
      </trkpt>
      <trkpt lat="46.30105" lon="5.93737">
        <ele>882.62768554688</ele>
        <time>2010-09-19T09:56:34Z</time>
      </trkpt>
      <trkpt lat="46.30093" lon="5.93689">
        <ele>879.74365234375</ele>
        <time>2010-09-19T09:56:37Z</time>
      </trkpt>
      <trkpt lat="46.30089" lon="5.93673">
        <ele>879.26293945312</ele>
        <time>2010-09-19T09:56:38Z</time>
      </trkpt>
      <trkpt lat="46.30083" lon="5.93639">
        <ele>875.89819335938</ele>
        <time>2010-09-19T09:56:40Z</time>
      </trkpt>
      <trkpt lat="46.30071" lon="5.93567">
        <ele>873.01440429688</ele>
        <time>2010-09-19T09:56:44Z</time>
      </trkpt>
      <trkpt lat="46.3006" lon="5.93493">
        <ele>869.64990234375</ele>
        <time>2010-09-19T09:56:48Z</time>
      </trkpt>
      <trkpt lat="46.30051" lon="5.93438">
        <ele>866.28515625</ele>
        <time>2010-09-19T09:56:51Z</time>
      </trkpt>
      <trkpt lat="46.30032" lon="5.93375">
        <ele>865.32397460938</ele>
        <time>2010-09-19T09:56:55Z</time>
      </trkpt>
      <trkpt lat="46.30008" lon="5.93309">
        <ele>863.8818359375</ele>
        <time>2010-09-19T09:57:00Z</time>
      </trkpt>
      <trkpt lat="46.29987" lon="5.93236">
        <ele>864.36254882812</ele>
        <time>2010-09-19T09:57:06Z</time>
      </trkpt>
      <trkpt lat="46.29977" lon="5.93206">
        <ele>864.84326171875</ele>
        <time>2010-09-19T09:57:09Z</time>
      </trkpt>
      <trkpt lat="46.29976" lon="5.93167">
        <ele>864.36254882812</ele>
        <time>2010-09-19T09:57:13Z</time>
      </trkpt>
      <trkpt lat="46.29982" lon="5.93131">
        <ele>865.8046875</ele>
        <time>2010-09-19T09:57:17Z</time>
      </trkpt>
      <trkpt lat="46.29992" lon="5.93099">
        <ele>867.72705078125</ele>
        <time>2010-09-19T09:57:23Z</time>
      </trkpt>
      <trkpt lat="46.29994" lon="5.93092">
        <ele>868.6884765625</ele>
        <time>2010-09-19T09:57:25Z</time>
      </trkpt>
      <trkpt lat="46.29993" lon="5.93077">
        <ele>869.64990234375</ele>
        <time>2010-09-19T09:57:30Z</time>
      </trkpt>
      <trkpt lat="46.29985" lon="5.93056">
        <ele>870.61108398438</ele>
        <time>2010-09-19T09:57:37Z</time>
      </trkpt>
      <trkpt lat="46.29968" lon="5.93033">
        <ele>871.572265625</ele>
        <time>2010-09-19T09:57:45Z</time>
      </trkpt>
      <trkpt lat="46.29937" lon="5.93004">
        <ele>873.4951171875</ele>
        <time>2010-09-19T09:57:56Z</time>
      </trkpt>
      <trkpt lat="46.29913" lon="5.92984">
        <ele>874.45629882812</ele>
        <time>2010-09-19T09:58:05Z</time>
      </trkpt>
      <trkpt lat="46.29897" lon="5.92967">
        <ele>874.45629882812</ele>
        <time>2010-09-19T09:58:13Z</time>
      </trkpt>
      <trkpt lat="46.29884" lon="5.92949">
        <ele>874.93701171875</ele>
        <time>2010-09-19T09:58:20Z</time>
      </trkpt>
      <trkpt lat="46.29873" lon="5.92932">
        <ele>877.34057617188</ele>
        <time>2010-09-19T09:58:27Z</time>
      </trkpt>
      <trkpt lat="46.2986" lon="5.92912">
        <ele>878.3017578125</ele>
        <time>2010-09-19T09:58:35Z</time>
      </trkpt>
      <trkpt lat="46.29846" lon="5.92885">
        <ele>880.22436523438</ele>
        <time>2010-09-19T09:58:44Z</time>
      </trkpt>
      <trkpt lat="46.29835" lon="5.92859">
        <ele>881.66625976562</ele>
        <time>2010-09-19T09:58:52Z</time>
      </trkpt>
      <trkpt lat="46.29834" lon="5.92837">
        <ele>882.62768554688</ele>
        <time>2010-09-19T09:58:58Z</time>
      </trkpt>
      <trkpt lat="46.29844" lon="5.92826">
        <ele>883.10815429688</ele>
        <time>2010-09-19T09:59:03Z</time>
      </trkpt>
      <trkpt lat="46.29856" lon="5.92828">
        <ele>884.55029296875</ele>
        <time>2010-09-19T09:59:08Z</time>
      </trkpt>
      <trkpt lat="46.29877" lon="5.92833">
        <ele>887.43408203125</ele>
        <time>2010-09-19T09:59:18Z</time>
      </trkpt>
      <trkpt lat="46.29892" lon="5.92837">
        <ele>888.3955078125</ele>
        <time>2010-09-19T09:59:25Z</time>
      </trkpt>
      <trkpt lat="46.2991" lon="5.92844">
        <ele>889.83740234375</ele>
        <time>2010-09-19T09:59:33Z</time>
      </trkpt>
      <trkpt lat="46.29926" lon="5.92852">
        <ele>890.79858398438</ele>
        <time>2010-09-19T09:59:41Z</time>
      </trkpt>
      <trkpt lat="46.29944" lon="5.9286">
        <ele>893.2021484375</ele>
        <time>2010-09-19T09:59:51Z</time>
      </trkpt>
      <trkpt lat="46.29959" lon="5.92871">
        <ele>894.16357421875</ele>
        <time>2010-09-19T10:00:00Z</time>
      </trkpt>
      <trkpt lat="46.29969" lon="5.92886">
        <ele>896.08618164062</ele>
        <time>2010-09-19T10:00:08Z</time>
      </trkpt>
      <trkpt lat="46.29976" lon="5.92896">
        <ele>897.52807617188</ele>
        <time>2010-09-19T10:00:14Z</time>
      </trkpt>
      <trkpt lat="46.29987" lon="5.92906">
        <ele>898.96997070312</ele>
        <time>2010-09-19T10:00:21Z</time>
      </trkpt>
      <trkpt lat="46.30003" lon="5.92917">
        <ele>899.45068359375</ele>
        <time>2010-09-19T10:00:29Z</time>
      </trkpt>
      <trkpt lat="46.30019" lon="5.9292">
        <ele>899.93139648438</ele>
        <time>2010-09-19T10:00:36Z</time>
      </trkpt>
      <trkpt lat="46.30028" lon="5.92911">
        <ele>900.892578125</ele>
        <time>2010-09-19T10:00:41Z</time>
      </trkpt>
      <trkpt lat="46.3003" lon="5.92906">
        <ele>900.892578125</ele>
        <time>2010-09-19T10:00:43Z</time>
      </trkpt>
      <trkpt lat="46.3003" lon="5.92894">
        <ele>901.37329101562</ele>
        <time>2010-09-19T10:00:47Z</time>
      </trkpt>
      <trkpt lat="46.30018" lon="5.92875">
        <ele>903.2958984375</ele>
        <time>2010-09-19T10:00:55Z</time>
      </trkpt>
      <trkpt lat="46.30003" lon="5.92853">
        <ele>904.25732421875</ele>
        <time>2010-09-19T10:01:04Z</time>
      </trkpt>
      <trkpt lat="46.29993" lon="5.92837">
        <ele>904.73779296875</ele>
        <time>2010-09-19T10:01:11Z</time>
      </trkpt>
      <trkpt lat="46.2998" lon="5.92821">
        <ele>905.69921875</ele>
        <time>2010-09-19T10:01:19Z</time>
      </trkpt>
      <trkpt lat="46.29967" lon="5.92802">
        <ele>908.58325195312</ele>
        <time>2010-09-19T10:01:28Z</time>
      </trkpt>
      <trkpt lat="46.29958" lon="5.92789">
        <ele>909.54467773438</ele>
        <time>2010-09-19T10:01:35Z</time>
      </trkpt>
      <trkpt lat="46.29945" lon="5.92768">
        <ele>910.98657226562</ele>
        <time>2010-09-19T10:01:44Z</time>
      </trkpt>
      <trkpt lat="46.29929" lon="5.92746">
        <ele>912.42846679688</ele>
        <time>2010-09-19T10:01:54Z</time>
      </trkpt>
      <trkpt lat="46.29914" lon="5.9273">
        <ele>913.38989257812</ele>
        <time>2010-09-19T10:02:02Z</time>
      </trkpt>
      <trkpt lat="46.29899" lon="5.92718">
        <ele>914.83178710938</ele>
        <time>2010-09-19T10:02:10Z</time>
      </trkpt>
      <trkpt lat="46.29888" lon="5.92706">
        <ele>916.27368164062</ele>
        <time>2010-09-19T10:02:17Z</time>
      </trkpt>
      <trkpt lat="46.29876" lon="5.92692">
        <ele>919.15771484375</ele>
        <time>2010-09-19T10:02:26Z</time>
      </trkpt>
      <trkpt lat="46.29864" lon="5.92683">
        <ele>919.63842773438</ele>
        <time>2010-09-19T10:02:34Z</time>
      </trkpt>
      <trkpt lat="46.29856" lon="5.92671">
        <ele>920.599609375</ele>
        <time>2010-09-19T10:02:40Z</time>
      </trkpt>
      <trkpt lat="46.29846" lon="5.92655">
        <ele>922.04150390625</ele>
        <time>2010-09-19T10:02:48Z</time>
      </trkpt>
      <trkpt lat="46.29842" lon="5.92646">
        <ele>923.0029296875</ele>
        <time>2010-09-19T10:02:52Z</time>
      </trkpt>
      <trkpt lat="46.29833" lon="5.92631">
        <ele>924.92578125</ele>
        <time>2010-09-19T10:03:01Z</time>
      </trkpt>
      <trkpt lat="46.29826" lon="5.92622">
        <ele>925.88696289062</ele>
        <time>2010-09-19T10:03:08Z</time>
      </trkpt>
      <trkpt lat="46.29819" lon="5.92614">
        <ele>926.84838867188</ele>
        <time>2010-09-19T10:03:14Z</time>
      </trkpt>
      <trkpt lat="46.2981" lon="5.92605">
        <ele>927.3291015625</ele>
        <time>2010-09-19T10:03:20Z</time>
      </trkpt>
      <trkpt lat="46.29796" lon="5.92593">
        <ele>928.29028320312</ele>
        <time>2010-09-19T10:03:28Z</time>
      </trkpt>
      <trkpt lat="46.29786" lon="5.92585">
        <ele>929.73217773438</ele>
        <time>2010-09-19T10:03:35Z</time>
      </trkpt>
      <trkpt lat="46.29774" lon="5.92575">
        <ele>931.65478515625</ele>
        <time>2010-09-19T10:03:43Z</time>
      </trkpt>
      <trkpt lat="46.29762" lon="5.92561">
        <ele>933.0966796875</ele>
        <time>2010-09-19T10:03:51Z</time>
      </trkpt>
      <trkpt lat="46.29755" lon="5.92552">
        <ele>933.57739257812</ele>
        <time>2010-09-19T10:03:57Z</time>
      </trkpt>
      <trkpt lat="46.29749" lon="5.92545">
        <ele>935.01953125</ele>
        <time>2010-09-19T10:04:03Z</time>
      </trkpt>
      <trkpt lat="46.29743" lon="5.92538">
        <ele>935.98071289062</ele>
        <time>2010-09-19T10:04:08Z</time>
      </trkpt>
      <trkpt lat="46.29733" lon="5.92529">
        <ele>937.42260742188</ele>
        <time>2010-09-19T10:04:16Z</time>
      </trkpt>
      <trkpt lat="46.29724" lon="5.9252">
        <ele>938.38403320312</ele>
        <time>2010-09-19T10:04:23Z</time>
      </trkpt>
      <trkpt lat="46.29714" lon="5.92511">
        <ele>940.30688476562</ele>
        <time>2010-09-19T10:04:31Z</time>
      </trkpt>
      <trkpt lat="46.29712" lon="5.92507">
        <ele>940.78735351562</ele>
        <time>2010-09-19T10:04:33Z</time>
      </trkpt>
      <trkpt lat="46.29708" lon="5.92506">
        <ele>941.74877929688</ele>
        <time>2010-09-19T10:04:36Z</time>
      </trkpt>
      <trkpt lat="46.29699" lon="5.92494">
        <ele>943.19067382812</ele>
        <time>2010-09-19T10:04:45Z</time>
      </trkpt>
      <trkpt lat="46.29686" lon="5.92481">
        <ele>945.59399414062</ele>
        <time>2010-09-19T10:04:55Z</time>
      </trkpt>
      <trkpt lat="46.29684" lon="5.92479">
        <ele>945.59399414062</ele>
        <time>2010-09-19T10:04:57Z</time>
      </trkpt>
      <trkpt lat="46.29675" lon="5.92472">
        <ele>946.55541992188</ele>
        <time>2010-09-19T10:05:05Z</time>
      </trkpt>
      <trkpt lat="46.29661" lon="5.92464">
        <ele>948.95849609375</ele>
        <time>2010-09-19T10:05:16Z</time>
      </trkpt>
      <trkpt lat="46.2965" lon="5.92458">
        <ele>950.40063476562</ele>
        <time>2010-09-19T10:05:24Z</time>
      </trkpt>
      <trkpt lat="46.29641" lon="5.92452">
        <ele>951.84252929688</ele>
        <time>2010-09-19T10:05:30Z</time>
      </trkpt>
      <trkpt lat="46.29626" lon="5.92443">
        <ele>953.76513671875</ele>
        <time>2010-09-19T10:05:39Z</time>
      </trkpt>
      <trkpt lat="46.29613" lon="5.92437">
        <ele>955.68774414062</ele>
        <time>2010-09-19T10:05:48Z</time>
      </trkpt>
      <trkpt lat="46.29602" lon="5.9243">
        <ele>956.64916992188</ele>
        <time>2010-09-19T10:05:57Z</time>
      </trkpt>
      <trkpt lat="46.2959" lon="5.92421">
        <ele>958.09130859375</ele>
        <time>2010-09-19T10:06:05Z</time>
      </trkpt>
      <trkpt lat="46.29582" lon="5.92409">
        <ele>959.533203125</ele>
        <time>2010-09-19T10:06:13Z</time>
      </trkpt>
      <trkpt lat="46.29573" lon="5.92393">
        <ele>960.97509765625</ele>
        <time>2010-09-19T10:06:21Z</time>
      </trkpt>
      <trkpt lat="46.29568" lon="5.92383">
        <ele>962.89770507812</ele>
        <time>2010-09-19T10:06:27Z</time>
      </trkpt>
      <trkpt lat="46.29561" lon="5.92365">
        <ele>964.33959960938</ele>
        <time>2010-09-19T10:06:37Z</time>
      </trkpt>
      <trkpt lat="46.29556" lon="5.92355">
        <ele>964.8203125</ele>
        <time>2010-09-19T10:06:44Z</time>
      </trkpt>
      <trkpt lat="46.29549" lon="5.92343">
        <ele>965.78173828125</ele>
        <time>2010-09-19T10:06:51Z</time>
      </trkpt>
      <trkpt lat="46.29539" lon="5.92331">
        <ele>967.7041015625</ele>
        <time>2010-09-19T10:06:59Z</time>
      </trkpt>
      <trkpt lat="46.29529" lon="5.92316">
        <ele>969.626953125</ele>
        <time>2010-09-19T10:07:06Z</time>
      </trkpt>
      <trkpt lat="46.29523" lon="5.92306">
        <ele>972.0302734375</ele>
        <time>2010-09-19T10:07:12Z</time>
      </trkpt>
      <trkpt lat="46.29515" lon="5.92296">
        <ele>973.47241210938</ele>
        <time>2010-09-19T10:07:20Z</time>
      </trkpt>
      <trkpt lat="46.2951" lon="5.92291">
        <ele>975.39477539062</ele>
        <time>2010-09-19T10:07:25Z</time>
      </trkpt>
      <trkpt lat="46.29502" lon="5.92282">
        <ele>976.8369140625</ele>
        <time>2010-09-19T10:07:33Z</time>
      </trkpt>
      <trkpt lat="46.29496" lon="5.92273">
        <ele>977.79809570312</ele>
        <time>2010-09-19T10:07:41Z</time>
      </trkpt>
      <trkpt lat="46.2949" lon="5.92263">
        <ele>978.75952148438</ele>
        <time>2010-09-19T10:07:48Z</time>
      </trkpt>
      <trkpt lat="46.29485" lon="5.92254">
        <ele>979.720703125</ele>
        <time>2010-09-19T10:07:55Z</time>
      </trkpt>
      <trkpt lat="46.29477" lon="5.92245">
        <ele>981.16284179688</ele>
        <time>2010-09-19T10:08:02Z</time>
      </trkpt>
      <trkpt lat="46.29469" lon="5.92241">
        <ele>982.60473632812</ele>
        <time>2010-09-19T10:08:09Z</time>
      </trkpt>
      <trkpt lat="46.29459" lon="5.92236">
        <ele>985.00805664062</ele>
        <time>2010-09-19T10:08:16Z</time>
      </trkpt>
      <trkpt lat="46.29451" lon="5.92234">
        <ele>985.96923828125</ele>
        <time>2010-09-19T10:08:22Z</time>
      </trkpt>
      <trkpt lat="46.29443" lon="5.92226">
        <ele>987.4111328125</ele>
        <time>2010-09-19T10:08:29Z</time>
      </trkpt>
      <trkpt lat="46.29432" lon="5.92215">
        <ele>989.333984375</ele>
        <time>2010-09-19T10:08:38Z</time>
      </trkpt>
      <trkpt lat="46.29427" lon="5.92209">
        <ele>991.25659179688</ele>
        <time>2010-09-19T10:08:44Z</time>
      </trkpt>
      <trkpt lat="46.29416" lon="5.92204">
        <ele>992.21801757812</ele>
        <time>2010-09-19T10:08:53Z</time>
      </trkpt>
      <trkpt lat="46.2941" lon="5.92199">
        <ele>994.62109375</ele>
        <time>2010-09-19T10:09:00Z</time>
      </trkpt>
      <trkpt lat="46.29401" lon="5.92189">
        <ele>996.06323242188</ele>
        <time>2010-09-19T10:09:08Z</time>
      </trkpt>
      <trkpt lat="46.294" lon="5.92189">
        <ele>996.5439453125</ele>
        <time>2010-09-19T10:09:09Z</time>
      </trkpt>
      <trkpt lat="46.29389" lon="5.92176">
        <ele>998.46630859375</ele>
        <time>2010-09-19T10:09:18Z</time>
      </trkpt>
      <trkpt lat="46.29375" lon="5.92157">
        <ele>1000.3891601562</ele>
        <time>2010-09-19T10:09:28Z</time>
      </trkpt>
      <trkpt lat="46.29365" lon="5.92145">
        <ele>1000.8696289062</ele>
        <time>2010-09-19T10:09:35Z</time>
      </trkpt>
      <trkpt lat="46.29353" lon="5.92132">
        <ele>1001.8310546875</ele>
        <time>2010-09-19T10:09:43Z</time>
      </trkpt>
      <trkpt lat="46.29342" lon="5.92121">
        <ele>1004.2346191406</ele>
        <time>2010-09-19T10:09:52Z</time>
      </trkpt>
      <trkpt lat="46.29332" lon="5.9211">
        <ele>1004.7150878906</ele>
        <time>2010-09-19T10:09:58Z</time>
      </trkpt>
      <trkpt lat="46.29318" lon="5.92097">
        <ele>1005.6765136719</ele>
        <time>2010-09-19T10:10:06Z</time>
      </trkpt>
      <trkpt lat="46.29303" lon="5.92086">
        <ele>1006.1569824219</ele>
        <time>2010-09-19T10:10:14Z</time>
      </trkpt>
      <trkpt lat="46.2929" lon="5.92074">
        <ele>1007.1184082031</ele>
        <time>2010-09-19T10:10:21Z</time>
      </trkpt>
      <trkpt lat="46.29281" lon="5.92067">
        <ele>1007.5991210938</ele>
        <time>2010-09-19T10:10:26Z</time>
      </trkpt>
      <trkpt lat="46.2927" lon="5.92056">
        <ele>1009.041015625</ele>
        <time>2010-09-19T10:10:34Z</time>
      </trkpt>
      <trkpt lat="46.29261" lon="5.92048">
        <ele>1010.0021972656</ele>
        <time>2010-09-19T10:10:41Z</time>
      </trkpt>
      <trkpt lat="46.29251" lon="5.92043">
        <ele>1010.9636230469</ele>
        <time>2010-09-19T10:10:48Z</time>
      </trkpt>
      <trkpt lat="46.29244" lon="5.92038">
        <ele>1012.4055175781</ele>
        <time>2010-09-19T10:10:54Z</time>
      </trkpt>
      <trkpt lat="46.29237" lon="5.92032">
        <ele>1013.8474121094</ele>
        <time>2010-09-19T10:11:00Z</time>
      </trkpt>
      <trkpt lat="46.29227" lon="5.92016">
        <ele>1015.7702636719</ele>
        <time>2010-09-19T10:11:08Z</time>
      </trkpt>
      <trkpt lat="46.29221" lon="5.92007">
        <ele>1017.6926269531</ele>
        <time>2010-09-19T10:11:14Z</time>
      </trkpt>
      <trkpt lat="46.29214" lon="5.91998">
        <ele>1017.6926269531</ele>
        <time>2010-09-19T10:11:20Z</time>
      </trkpt>
      <trkpt lat="46.29206" lon="5.91981">
        <ele>1020.0961914062</ele>
        <time>2010-09-19T10:11:29Z</time>
      </trkpt>
      <trkpt lat="46.29201" lon="5.91973">
        <ele>1021.0576171875</ele>
        <time>2010-09-19T10:11:34Z</time>
      </trkpt>
      <trkpt lat="46.29192" lon="5.91962">
        <ele>1022.4995117188</ele>
        <time>2010-09-19T10:11:42Z</time>
      </trkpt>
      <trkpt lat="46.29185" lon="5.91955">
        <ele>1023.94140625</ele>
        <time>2010-09-19T10:11:48Z</time>
      </trkpt>
      <trkpt lat="46.29178" lon="5.91949">
        <ele>1025.3833007812</ele>
        <time>2010-09-19T10:11:55Z</time>
      </trkpt>
      <trkpt lat="46.29173" lon="5.91937">
        <ele>1026.8254394531</ele>
        <time>2010-09-19T10:12:03Z</time>
      </trkpt>
      <trkpt lat="46.2917" lon="5.91932">
        <ele>1027.3061523438</ele>
        <time>2010-09-19T10:12:06Z</time>
      </trkpt>
      <trkpt lat="46.29162" lon="5.91923">
        <ele>1027.7866210938</ele>
        <time>2010-09-19T10:12:13Z</time>
      </trkpt>
      <trkpt lat="46.29156" lon="5.91912">
        <ele>1028.748046875</ele>
        <time>2010-09-19T10:12:19Z</time>
      </trkpt>
      <trkpt lat="46.2915" lon="5.91899">
        <ele>1030.6706542969</ele>
        <time>2010-09-19T10:12:27Z</time>
      </trkpt>
      <trkpt lat="46.29144" lon="5.91892">
        <ele>1031.1513671875</ele>
        <time>2010-09-19T10:12:32Z</time>
      </trkpt>
      <trkpt lat="46.29137" lon="5.91882">
        <ele>1032.5932617188</ele>
        <time>2010-09-19T10:12:39Z</time>
      </trkpt>
      <trkpt lat="46.2913" lon="5.91872">
        <ele>1033.5544433594</ele>
        <time>2010-09-19T10:12:46Z</time>
      </trkpt>
      <trkpt lat="46.29123" lon="5.91863">
        <ele>1034.9965820312</ele>
        <time>2010-09-19T10:12:53Z</time>
      </trkpt>
      <trkpt lat="46.29119" lon="5.91858">
        <ele>1035.9577636719</ele>
        <time>2010-09-19T10:12:58Z</time>
      </trkpt>
      <trkpt lat="46.29118" lon="5.91856">
        <ele>1035.9577636719</ele>
        <time>2010-09-19T10:12:59Z</time>
      </trkpt>
      <trkpt lat="46.29112" lon="5.91845">
        <ele>1037.3999023438</ele>
        <time>2010-09-19T10:13:07Z</time>
      </trkpt>
      <trkpt lat="46.29105" lon="5.91836">
        <ele>1038.361328125</ele>
        <time>2010-09-19T10:13:13Z</time>
      </trkpt>
      <trkpt lat="46.29095" lon="5.91824">
        <ele>1039.8032226562</ele>
        <time>2010-09-19T10:13:21Z</time>
      </trkpt>
      <trkpt lat="46.29094" lon="5.91822">
        <ele>1039.8032226562</ele>
        <time>2010-09-19T10:13:22Z</time>
      </trkpt>
      <trkpt lat="46.29086" lon="5.91812">
        <ele>1040.7644042969</ele>
        <time>2010-09-19T10:13:28Z</time>
      </trkpt>
      <trkpt lat="46.29084" lon="5.91808">
        <ele>1041.2451171875</ele>
        <time>2010-09-19T10:13:30Z</time>
      </trkpt>
      <trkpt lat="46.29082" lon="5.91797">
        <ele>1041.7258300781</ele>
        <time>2010-09-19T10:13:36Z</time>
      </trkpt>
      <trkpt lat="46.29082" lon="5.91797">
        <ele>1042.2065429688</ele>
        <time>2010-09-19T10:13:37Z</time>
      </trkpt>
      <trkpt lat="46.29086" lon="5.91795">
        <ele>1042.6872558594</ele>
        <time>2010-09-19T10:13:41Z</time>
      </trkpt>
      <trkpt lat="46.29095" lon="5.918">
        <ele>1044.1291503906</ele>
        <time>2010-09-19T10:13:49Z</time>
      </trkpt>
      <trkpt lat="46.29103" lon="5.91806">
        <ele>1046.0517578125</ele>
        <time>2010-09-19T10:13:57Z</time>
      </trkpt>
      <trkpt lat="46.29112" lon="5.91813">
        <ele>1047.4936523438</ele>
        <time>2010-09-19T10:14:05Z</time>
      </trkpt>
      <trkpt lat="46.29117" lon="5.91817">
        <ele>1048.935546875</ele>
        <time>2010-09-19T10:14:11Z</time>
      </trkpt>
      <trkpt lat="46.29126" lon="5.91823">
        <ele>1050.8581542969</ele>
        <time>2010-09-19T10:14:19Z</time>
      </trkpt>
      <trkpt lat="46.29131" lon="5.91829">
        <ele>1051.8195800781</ele>
        <time>2010-09-19T10:14:25Z</time>
      </trkpt>
      <trkpt lat="46.2914" lon="5.91836">
        <ele>1053.7424316406</ele>
        <time>2010-09-19T10:14:32Z</time>
      </trkpt>
      <trkpt lat="46.29148" lon="5.91842">
        <ele>1054.7036132812</ele>
        <time>2010-09-19T10:14:38Z</time>
      </trkpt>
      <trkpt lat="46.29156" lon="5.91847">
        <ele>1055.6650390625</ele>
        <time>2010-09-19T10:14:44Z</time>
      </trkpt>
      <trkpt lat="46.29165" lon="5.91851">
        <ele>1056.6262207031</ele>
        <time>2010-09-19T10:14:50Z</time>
      </trkpt>
      <trkpt lat="46.29176" lon="5.91855">
        <ele>1057.5876464844</ele>
        <time>2010-09-19T10:14:57Z</time>
      </trkpt>
      <trkpt lat="46.29184" lon="5.9186">
        <ele>1059.0295410156</ele>
        <time>2010-09-19T10:15:03Z</time>
      </trkpt>
      <trkpt lat="46.29195" lon="5.91866">
        <ele>1059.9907226562</ele>
        <time>2010-09-19T10:15:10Z</time>
      </trkpt>
      <trkpt lat="46.29211" lon="5.91876">
        <ele>1061.9135742188</ele>
        <time>2010-09-19T10:15:19Z</time>
      </trkpt>
      <trkpt lat="46.29224" lon="5.91886">
        <ele>1062.8747558594</ele>
        <time>2010-09-19T10:15:28Z</time>
      </trkpt>
      <trkpt lat="46.29231" lon="5.91891">
        <ele>1063.8359375</ele>
        <time>2010-09-19T10:15:34Z</time>
      </trkpt>
      <trkpt lat="46.29241" lon="5.91899">
        <ele>1066.2392578125</ele>
        <time>2010-09-19T10:15:41Z</time>
      </trkpt>
      <trkpt lat="46.29252" lon="5.91908">
        <ele>1067.6811523438</ele>
        <time>2010-09-19T10:15:49Z</time>
      </trkpt>
      <trkpt lat="46.29262" lon="5.91915">
        <ele>1068.6428222656</ele>
        <time>2010-09-19T10:15:56Z</time>
      </trkpt>
      <trkpt lat="46.29267" lon="5.91919">
        <ele>1069.6042480469</ele>
        <time>2010-09-19T10:16:00Z</time>
      </trkpt>
      <trkpt lat="46.29274" lon="5.91924">
        <ele>1070.0847167969</ele>
        <time>2010-09-19T10:16:05Z</time>
      </trkpt>
      <trkpt lat="46.29284" lon="5.91931">
        <ele>1070.5654296875</ele>
        <time>2010-09-19T10:16:12Z</time>
      </trkpt>
      <trkpt lat="46.29295" lon="5.91937">
        <ele>1071.5266113281</ele>
        <time>2010-09-19T10:16:20Z</time>
      </trkpt>
      <trkpt lat="46.29303" lon="5.91941">
        <ele>1072.4880371094</ele>
        <time>2010-09-19T10:16:27Z</time>
      </trkpt>
      <trkpt lat="46.29313" lon="5.91945">
        <ele>1074.4106445312</ele>
        <time>2010-09-19T10:16:34Z</time>
      </trkpt>
      <trkpt lat="46.29327" lon="5.91947">
        <ele>1075.3718261719</ele>
        <time>2010-09-19T10:16:41Z</time>
      </trkpt>
      <trkpt lat="46.29341" lon="5.9195">
        <ele>1075.8525390625</ele>
        <time>2010-09-19T10:16:48Z</time>
      </trkpt>
      <trkpt lat="46.29354" lon="5.91953">
        <ele>1077.7751464844</ele>
        <time>2010-09-19T10:16:56Z</time>
      </trkpt>
      <trkpt lat="46.29357" lon="5.91954">
        <ele>1078.7365722656</ele>
        <time>2010-09-19T10:16:58Z</time>
      </trkpt>
      <trkpt lat="46.29369" lon="5.91958">
        <ele>1079.2170410156</ele>
        <time>2010-09-19T10:17:06Z</time>
      </trkpt>
      <trkpt lat="46.29378" lon="5.91962">
        <ele>1081.1398925781</ele>
        <time>2010-09-19T10:17:12Z</time>
      </trkpt>
      <trkpt lat="46.2939" lon="5.91964">
        <ele>1082.1010742188</ele>
        <time>2010-09-19T10:17:20Z</time>
      </trkpt>
      <trkpt lat="46.29398" lon="5.91964">
        <ele>1082.5817871094</ele>
        <time>2010-09-19T10:17:26Z</time>
      </trkpt>
      <trkpt lat="46.29402" lon="5.91962">
        <ele>1082.5817871094</ele>
        <time>2010-09-19T10:17:30Z</time>
      </trkpt>
      <trkpt lat="46.29406" lon="5.91955">
        <ele>1084.5046386719</ele>
        <time>2010-09-19T10:17:34Z</time>
      </trkpt>
      <trkpt lat="46.29404" lon="5.91947">
        <ele>1085.4658203125</ele>
        <time>2010-09-19T10:17:39Z</time>
      </trkpt>
      <trkpt lat="46.29395" lon="5.91944">
        <ele>1086.4272460938</ele>
        <time>2010-09-19T10:17:47Z</time>
      </trkpt>
      <trkpt lat="46.29391" lon="5.91944">
        <ele>1087.3884277344</ele>
        <time>2010-09-19T10:17:51Z</time>
      </trkpt>
      <trkpt lat="46.29379" lon="5.91938">
        <ele>1088.3498535156</ele>
        <time>2010-09-19T10:18:00Z</time>
      </trkpt>
      <trkpt lat="46.29367" lon="5.91931">
        <ele>1089.7917480469</ele>
        <time>2010-09-19T10:18:09Z</time>
      </trkpt>
      <trkpt lat="46.29356" lon="5.91923">
        <ele>1091.2336425781</ele>
        <time>2010-09-19T10:18:17Z</time>
      </trkpt>
      <trkpt lat="46.29344" lon="5.91913">
        <ele>1093.15625</ele>
        <time>2010-09-19T10:18:26Z</time>
      </trkpt>
      <trkpt lat="46.29335" lon="5.91905">
        <ele>1094.1176757812</ele>
        <time>2010-09-19T10:18:33Z</time>
      </trkpt>
      <trkpt lat="46.29329" lon="5.91901">
        <ele>1094.5981445312</ele>
        <time>2010-09-19T10:18:37Z</time>
      </trkpt>
      <trkpt lat="46.29316" lon="5.9189">
        <ele>1095.0788574219</ele>
        <time>2010-09-19T10:18:45Z</time>
      </trkpt>
      <trkpt lat="46.29303" lon="5.91879">
        <ele>1096.5209960938</ele>
        <time>2010-09-19T10:18:54Z</time>
      </trkpt>
      <trkpt lat="46.29289" lon="5.91867">
        <ele>1096.5209960938</ele>
        <time>2010-09-19T10:19:01Z</time>
      </trkpt>
      <trkpt lat="46.29267" lon="5.91847">
        <ele>1096.5209960938</ele>
        <time>2010-09-19T10:19:08Z</time>
      </trkpt>
      <trkpt lat="46.2926" lon="5.91841">
        <ele>1096.0402832031</ele>
        <time>2010-09-19T10:19:10Z</time>
      </trkpt>
      <trkpt lat="46.29245" lon="5.91829">
        <ele>1095.0788574219</ele>
        <time>2010-09-19T10:19:14Z</time>
      </trkpt>
      <trkpt lat="46.29218" lon="5.91803">
        <ele>1093.6369628906</ele>
        <time>2010-09-19T10:19:20Z</time>
      </trkpt>
      <trkpt lat="46.29191" lon="5.91769">
        <ele>1091.7143554688</ele>
        <time>2010-09-19T10:19:26Z</time>
      </trkpt>
      <trkpt lat="46.29162" lon="5.91738">
        <ele>1090.7529296875</ele>
        <time>2010-09-19T10:19:32Z</time>
      </trkpt>
      <trkpt lat="46.29157" lon="5.91733">
        <ele>1090.7529296875</ele>
        <time>2010-09-19T10:19:33Z</time>
      </trkpt>
      <trkpt lat="46.29142" lon="5.91715">
        <ele>1090.2724609375</ele>
        <time>2010-09-19T10:19:37Z</time>
      </trkpt>
      <trkpt lat="46.29121" lon="5.91697">
        <ele>1090.2724609375</ele>
        <time>2010-09-19T10:19:43Z</time>
      </trkpt>
      <trkpt lat="46.29112" lon="5.91689">
        <ele>1091.7143554688</ele>
        <time>2010-09-19T10:19:48Z</time>
      </trkpt>
      <trkpt lat="46.29103" lon="5.91681">
        <ele>1093.15625</ele>
        <time>2010-09-19T10:19:54Z</time>
      </trkpt>
      <trkpt lat="46.29099" lon="5.91677">
        <ele>1093.6369628906</ele>
        <time>2010-09-19T10:19:56Z</time>
      </trkpt>
      <trkpt lat="46.29091" lon="5.91672">
        <ele>1094.1176757812</ele>
        <time>2010-09-19T10:20:00Z</time>
      </trkpt>
      <trkpt lat="46.29078" lon="5.9166">
        <ele>1096.0402832031</ele>
        <time>2010-09-19T10:20:09Z</time>
      </trkpt>
      <trkpt lat="46.29068" lon="5.91652">
        <ele>1097.962890625</ele>
        <time>2010-09-19T10:20:16Z</time>
      </trkpt>
      <trkpt lat="46.29057" lon="5.91646">
        <ele>1098.443359375</ele>
        <time>2010-09-19T10:20:22Z</time>
      </trkpt>
      <trkpt lat="46.29043" lon="5.91638">
        <ele>1100.3664550781</ele>
        <time>2010-09-19T10:20:30Z</time>
      </trkpt>
      <trkpt lat="46.29031" lon="5.91629">
        <ele>1101.3276367188</ele>
        <time>2010-09-19T10:20:38Z</time>
      </trkpt>
      <trkpt lat="46.29021" lon="5.9162">
        <ele>1102.76953125</ele>
        <time>2010-09-19T10:20:46Z</time>
      </trkpt>
      <trkpt lat="46.29016" lon="5.91615">
        <ele>1103.7309570312</ele>
        <time>2010-09-19T10:20:50Z</time>
      </trkpt>
      <trkpt lat="46.29005" lon="5.91609">
        <ele>1104.6921386719</ele>
        <time>2010-09-19T10:20:58Z</time>
      </trkpt>
      <trkpt lat="46.28996" lon="5.91607">
        <ele>1105.6535644531</ele>
        <time>2010-09-19T10:21:04Z</time>
      </trkpt>
      <trkpt lat="46.28993" lon="5.91606">
        <ele>1106.1340332031</ele>
        <time>2010-09-19T10:21:07Z</time>
      </trkpt>
      <trkpt lat="46.28982" lon="5.91602">
        <ele>1107.576171875</ele>
        <time>2010-09-19T10:21:15Z</time>
      </trkpt>
      <trkpt lat="46.28971" lon="5.91599">
        <ele>1109.0180664062</ele>
        <time>2010-09-19T10:21:23Z</time>
      </trkpt>
      <trkpt lat="46.28963" lon="5.91591">
        <ele>1110.4599609375</ele>
        <time>2010-09-19T10:21:30Z</time>
      </trkpt>
      <trkpt lat="46.28956" lon="5.91576">
        <ele>1111.9020996094</ele>
        <time>2010-09-19T10:21:37Z</time>
      </trkpt>
      <trkpt lat="46.28948" lon="5.91569">
        <ele>1111.9020996094</ele>
        <time>2010-09-19T10:21:43Z</time>
      </trkpt>
      <trkpt lat="46.28941" lon="5.91568">
        <ele>1112.86328125</ele>
        <time>2010-09-19T10:21:48Z</time>
      </trkpt>
      <trkpt lat="46.2894" lon="5.91567">
        <ele>1113.3439941406</ele>
        <time>2010-09-19T10:21:49Z</time>
      </trkpt>
      <trkpt lat="46.28936" lon="5.9157">
        <ele>1114.3051757812</ele>
        <time>2010-09-19T10:21:53Z</time>
      </trkpt>
      <trkpt lat="46.2893" lon="5.91572">
        <ele>1114.7858886719</ele>
        <time>2010-09-19T10:21:57Z</time>
      </trkpt>
      <trkpt lat="46.28915" lon="5.91574">
        <ele>1115.7473144531</ele>
        <time>2010-09-19T10:22:05Z</time>
      </trkpt>
      <trkpt lat="46.28908" lon="5.91573">
        <ele>1116.7087402344</ele>
        <time>2010-09-19T10:22:11Z</time>
      </trkpt>
      <trkpt lat="46.289" lon="5.91573">
        <ele>1118.6313476562</ele>
        <time>2010-09-19T10:22:18Z</time>
      </trkpt>
      <trkpt lat="46.28888" lon="5.91573">
        <ele>1120.0732421875</ele>
        <time>2010-09-19T10:22:24Z</time>
      </trkpt>
      <trkpt lat="46.2888" lon="5.91573">
        <ele>1121.0346679688</ele>
        <time>2010-09-19T10:22:30Z</time>
      </trkpt>
      <trkpt lat="46.28875" lon="5.91571">
        <ele>1121.5151367188</ele>
        <time>2010-09-19T10:22:35Z</time>
      </trkpt>
      <trkpt lat="46.28864" lon="5.9157">
        <ele>1123.4379882812</ele>
        <time>2010-09-19T10:22:41Z</time>
      </trkpt>
      <trkpt lat="46.28854" lon="5.9157">
        <ele>1126.3217773438</ele>
        <time>2010-09-19T10:22:48Z</time>
      </trkpt>
      <trkpt lat="46.2884" lon="5.91565">
        <ele>1126.8024902344</ele>
        <time>2010-09-19T10:22:54Z</time>
      </trkpt>
      <trkpt lat="46.28828" lon="5.9156">
        <ele>1127.283203125</ele>
        <time>2010-09-19T10:22:59Z</time>
      </trkpt>
      <trkpt lat="46.28814" lon="5.91552">
        <ele>1127.283203125</ele>
        <time>2010-09-19T10:23:04Z</time>
      </trkpt>
      <trkpt lat="46.28798" lon="5.91547">
        <ele>1126.3217773438</ele>
        <time>2010-09-19T10:23:09Z</time>
      </trkpt>
      <trkpt lat="46.28794" lon="5.91545">
        <ele>1126.8024902344</ele>
        <time>2010-09-19T10:23:10Z</time>
      </trkpt>
      <trkpt lat="46.28785" lon="5.91541">
        <ele>1125.8410644531</ele>
        <time>2010-09-19T10:23:12Z</time>
      </trkpt>
      <trkpt lat="46.28759" lon="5.91522">
        <ele>1125.3603515625</ele>
        <time>2010-09-19T10:23:19Z</time>
      </trkpt>
      <trkpt lat="46.28748" lon="5.91516">
        <ele>1125.3603515625</ele>
        <time>2010-09-19T10:23:24Z</time>
      </trkpt>
      <trkpt lat="46.28735" lon="5.91512">
        <ele>1127.283203125</ele>
        <time>2010-09-19T10:23:30Z</time>
      </trkpt>
      <trkpt lat="46.2872" lon="5.91508">
        <ele>1129.6862792969</ele>
        <time>2010-09-19T10:23:38Z</time>
      </trkpt>
      <trkpt lat="46.28704" lon="5.91505">
        <ele>1131.1284179688</ele>
        <time>2010-09-19T10:23:47Z</time>
      </trkpt>
      <trkpt lat="46.28688" lon="5.91502">
        <ele>1132.08984375</ele>
        <time>2010-09-19T10:23:55Z</time>
      </trkpt>
      <trkpt lat="46.28673" lon="5.91498">
        <ele>1132.5705566406</ele>
        <time>2010-09-19T10:24:01Z</time>
      </trkpt>
      <trkpt lat="46.28651" lon="5.91485">
        <ele>1132.08984375</ele>
        <time>2010-09-19T10:24:08Z</time>
      </trkpt>
      <trkpt lat="46.28648" lon="5.91482">
        <ele>1131.6088867188</ele>
        <time>2010-09-19T10:24:09Z</time>
      </trkpt>
      <trkpt lat="46.28633" lon="5.91451">
        <ele>1130.1669921875</ele>
        <time>2010-09-19T10:24:14Z</time>
      </trkpt>
      <trkpt lat="46.28615" lon="5.91404">
        <ele>1129.2055664062</ele>
        <time>2010-09-19T10:24:20Z</time>
      </trkpt>
      <trkpt lat="46.28613" lon="5.91388">
        <ele>1129.2055664062</ele>
        <time>2010-09-19T10:24:22Z</time>
      </trkpt>
      <trkpt lat="46.28609" lon="5.91356">
        <ele>1128.2443847656</ele>
        <time>2010-09-19T10:24:25Z</time>
      </trkpt>
      <trkpt lat="46.28596" lon="5.91318">
        <ele>1127.283203125</ele>
        <time>2010-09-19T10:24:30Z</time>
      </trkpt>
      <trkpt lat="46.28574" lon="5.9128">
        <ele>1126.8024902344</ele>
        <time>2010-09-19T10:24:36Z</time>
      </trkpt>
      <trkpt lat="46.28559" lon="5.91259">
        <ele>1125.3603515625</ele>
        <time>2010-09-19T10:24:39Z</time>
      </trkpt>
      <trkpt lat="46.28529" lon="5.91227">
        <ele>1121.5151367188</ele>
        <time>2010-09-19T10:24:44Z</time>
      </trkpt>
      <trkpt lat="46.285" lon="5.91215">
        <ele>1118.6313476562</ele>
        <time>2010-09-19T10:24:48Z</time>
      </trkpt>
      <trkpt lat="46.28479" lon="5.9121">
        <ele>1118.1506347656</ele>
        <time>2010-09-19T10:24:51Z</time>
      </trkpt>
      <trkpt lat="46.28473" lon="5.91209">
        <ele>1117.189453125</ele>
        <time>2010-09-19T10:24:52Z</time>
      </trkpt>
      <trkpt lat="46.2846" lon="5.91208">
        <ele>1116.7087402344</ele>
        <time>2010-09-19T10:24:54Z</time>
      </trkpt>
      <trkpt lat="46.28447" lon="5.91209">
        <ele>1116.2280273438</ele>
        <time>2010-09-19T10:24:56Z</time>
      </trkpt>
      <trkpt lat="46.28429" lon="5.91215">
        <ele>1116.7087402344</ele>
        <time>2010-09-19T10:24:59Z</time>
      </trkpt>
      <trkpt lat="46.28416" lon="5.91229">
        <ele>1117.189453125</ele>
        <time>2010-09-19T10:25:03Z</time>
      </trkpt>
      <trkpt lat="46.28411" lon="5.91234">
        <ele>1118.6313476562</ele>
        <time>2010-09-19T10:25:06Z</time>
      </trkpt>
      <trkpt lat="46.28407" lon="5.91239">
        <ele>1119.5927734375</ele>
        <time>2010-09-19T10:25:09Z</time>
      </trkpt>
      <trkpt lat="46.28395" lon="5.91246">
        <ele>1120.5539550781</ele>
        <time>2010-09-19T10:25:16Z</time>
      </trkpt>
      <trkpt lat="46.28389" lon="5.9125">
        <ele>1121.0346679688</ele>
        <time>2010-09-19T10:25:21Z</time>
      </trkpt>
      <trkpt lat="46.28387" lon="5.91253">
        <ele>1121.5151367188</ele>
        <time>2010-09-19T10:25:23Z</time>
      </trkpt>
      <trkpt lat="46.28373" lon="5.91261">
        <ele>1122.9572753906</ele>
        <time>2010-09-19T10:25:29Z</time>
      </trkpt>
      <trkpt lat="46.28361" lon="5.91264">
        <ele>1124.8798828125</ele>
        <time>2010-09-19T10:25:35Z</time>
      </trkpt>
      <trkpt lat="46.28352" lon="5.91263">
        <ele>1125.8410644531</ele>
        <time>2010-09-19T10:25:40Z</time>
      </trkpt>
      <trkpt lat="46.28341" lon="5.9126">
        <ele>1126.3217773438</ele>
        <time>2010-09-19T10:25:46Z</time>
      </trkpt>
      <trkpt lat="46.28332" lon="5.91257">
        <ele>1127.283203125</ele>
        <time>2010-09-19T10:25:50Z</time>
      </trkpt>
      <trkpt lat="46.28318" lon="5.91251">
        <ele>1127.283203125</ele>
        <time>2010-09-19T10:25:55Z</time>
      </trkpt>
      <trkpt lat="46.28299" lon="5.91245">
        <ele>1128.2443847656</ele>
        <time>2010-09-19T10:26:01Z</time>
      </trkpt>
      <trkpt lat="46.28294" lon="5.91244">
        <ele>1127.763671875</ele>
        <time>2010-09-19T10:26:02Z</time>
      </trkpt>
      <trkpt lat="46.28279" lon="5.91235">
        <ele>1126.3217773438</ele>
        <time>2010-09-19T10:26:05Z</time>
      </trkpt>
      <trkpt lat="46.28264" lon="5.91226">
        <ele>1125.3603515625</ele>
        <time>2010-09-19T10:26:08Z</time>
      </trkpt>
      <trkpt lat="46.28243" lon="5.91205">
        <ele>1124.8798828125</ele>
        <time>2010-09-19T10:26:12Z</time>
      </trkpt>
      <trkpt lat="46.28238" lon="5.9119">
        <ele>1125.8410644531</ele>
        <time>2010-09-19T10:26:15Z</time>
      </trkpt>
      <trkpt lat="46.28231" lon="5.91178">
        <ele>1124.8798828125</ele>
        <time>2010-09-19T10:26:17Z</time>
      </trkpt>
      <trkpt lat="46.28217" lon="5.91158">
        <ele>1124.3991699219</ele>
        <time>2010-09-19T10:26:20Z</time>
      </trkpt>
      <trkpt lat="46.28207" lon="5.91148">
        <ele>1124.3991699219</ele>
        <time>2010-09-19T10:26:22Z</time>
      </trkpt>
      <trkpt lat="46.28186" lon="5.91133">
        <ele>1124.3991699219</ele>
        <time>2010-09-19T10:26:26Z</time>
      </trkpt>
      <trkpt lat="46.2817" lon="5.91121">
        <ele>1123.4379882812</ele>
        <time>2010-09-19T10:26:29Z</time>
      </trkpt>
      <trkpt lat="46.28158" lon="5.91114">
        <ele>1122.4765625</ele>
        <time>2010-09-19T10:26:31Z</time>
      </trkpt>
      <trkpt lat="46.28146" lon="5.91104">
        <ele>1121.9958496094</ele>
        <time>2010-09-19T10:26:33Z</time>
      </trkpt>
      <trkpt lat="46.28129" lon="5.91086">
        <ele>1119.5927734375</ele>
        <time>2010-09-19T10:26:36Z</time>
      </trkpt>
      <trkpt lat="46.28111" lon="5.91051">
        <ele>1118.1506347656</ele>
        <time>2010-09-19T10:26:40Z</time>
      </trkpt>
      <trkpt lat="46.28107" lon="5.91042">
        <ele>1118.1506347656</ele>
        <time>2010-09-19T10:26:41Z</time>
      </trkpt>
      <trkpt lat="46.28096" lon="5.91016">
        <ele>1119.1120605469</ele>
        <time>2010-09-19T10:26:45Z</time>
      </trkpt>
      <trkpt lat="46.28094" lon="5.91005">
        <ele>1119.5927734375</ele>
        <time>2010-09-19T10:26:48Z</time>
      </trkpt>
      <trkpt lat="46.28089" lon="5.90984">
        <ele>1121.9958496094</ele>
        <time>2010-09-19T10:26:57Z</time>
      </trkpt>
      <trkpt lat="46.28085" lon="5.90971">
        <ele>1123.4379882812</ele>
        <time>2010-09-19T10:27:04Z</time>
      </trkpt>
      <trkpt lat="46.2808" lon="5.90957">
        <ele>1124.3991699219</ele>
        <time>2010-09-19T10:27:10Z</time>
      </trkpt>
      <trkpt lat="46.28074" lon="5.90943">
        <ele>1124.8798828125</ele>
        <time>2010-09-19T10:27:16Z</time>
      </trkpt>
      <trkpt lat="46.28065" lon="5.90928">
        <ele>1125.3603515625</ele>
        <time>2010-09-19T10:27:23Z</time>
      </trkpt>
      <trkpt lat="46.28054" lon="5.90918">
        <ele>1126.8024902344</ele>
        <time>2010-09-19T10:27:30Z</time>
      </trkpt>
      <trkpt lat="46.28044" lon="5.90908">
        <ele>1128.7250976562</ele>
        <time>2010-09-19T10:27:37Z</time>
      </trkpt>
      <trkpt lat="46.28036" lon="5.90901">
        <ele>1130.6477050781</ele>
        <time>2010-09-19T10:27:43Z</time>
      </trkpt>
      <trkpt lat="46.28034" lon="5.90901">
        <ele>1130.1669921875</ele>
        <time>2010-09-19T10:27:44Z</time>
      </trkpt>
      <trkpt lat="46.28019" lon="5.90895">
        <ele>1131.6088867188</ele>
        <time>2010-09-19T10:27:52Z</time>
      </trkpt>
      <trkpt lat="46.28009" lon="5.90892">
        <ele>1132.5705566406</ele>
        <time>2010-09-19T10:27:57Z</time>
      </trkpt>
      <trkpt lat="46.28001" lon="5.90888">
        <ele>1134.0124511719</ele>
        <time>2010-09-19T10:28:02Z</time>
      </trkpt>
      <trkpt lat="46.27983" lon="5.90883">
        <ele>1135.4543457031</ele>
        <time>2010-09-19T10:28:10Z</time>
      </trkpt>
      <trkpt lat="46.2797" lon="5.90872">
        <ele>1135.9350585938</ele>
        <time>2010-09-19T10:28:18Z</time>
      </trkpt>
      <trkpt lat="46.27956" lon="5.90864">
        <ele>1137.8576660156</ele>
        <time>2010-09-19T10:28:26Z</time>
      </trkpt>
      <trkpt lat="46.27948" lon="5.90857">
        <ele>1139.2995605469</ele>
        <time>2010-09-19T10:28:33Z</time>
      </trkpt>
      <trkpt lat="46.27937" lon="5.90854">
        <ele>1141.2221679688</ele>
        <time>2010-09-19T10:28:41Z</time>
      </trkpt>
      <trkpt lat="46.27924" lon="5.90848">
        <ele>1142.18359375</ele>
        <time>2010-09-19T10:28:49Z</time>
      </trkpt>
      <trkpt lat="46.27914" lon="5.90842">
        <ele>1143.6254882812</ele>
        <time>2010-09-19T10:28:56Z</time>
      </trkpt>
      <trkpt lat="46.27903" lon="5.90833">
        <ele>1145.0673828125</ele>
        <time>2010-09-19T10:29:03Z</time>
      </trkpt>
      <trkpt lat="46.27893" lon="5.90825">
        <ele>1146.0288085938</ele>
        <time>2010-09-19T10:29:10Z</time>
      </trkpt>
      <trkpt lat="46.27884" lon="5.90818">
        <ele>1148.4321289062</ele>
        <time>2010-09-19T10:29:18Z</time>
      </trkpt>
      <trkpt lat="46.27872" lon="5.90813">
        <ele>1149.8742675781</ele>
        <time>2010-09-19T10:29:25Z</time>
      </trkpt>
      <trkpt lat="46.2786" lon="5.90806">
        <ele>1150.8354492188</ele>
        <time>2010-09-19T10:29:32Z</time>
      </trkpt>
      <trkpt lat="46.27849" lon="5.90798">
        <ele>1151.796875</ele>
        <time>2010-09-19T10:29:39Z</time>
      </trkpt>
      <trkpt lat="46.27838" lon="5.9079">
        <ele>1152.27734375</ele>
        <time>2010-09-19T10:29:46Z</time>
      </trkpt>
      <trkpt lat="46.27824" lon="5.90777">
        <ele>1154.2001953125</ele>
        <time>2010-09-19T10:29:55Z</time>
      </trkpt>
      <trkpt lat="46.27811" lon="5.90761">
        <ele>1156.6032714844</ele>
        <time>2010-09-19T10:30:04Z</time>
      </trkpt>
      <trkpt lat="46.278" lon="5.90753">
        <ele>1157.5646972656</ele>
        <time>2010-09-19T10:30:11Z</time>
      </trkpt>
      <trkpt lat="46.27789" lon="5.90748">
        <ele>1158.5258789062</ele>
        <time>2010-09-19T10:30:18Z</time>
      </trkpt>
      <trkpt lat="46.27776" lon="5.90743">
        <ele>1159.4873046875</ele>
        <time>2010-09-19T10:30:25Z</time>
      </trkpt>
      <trkpt lat="46.27768" lon="5.90739">
        <ele>1160.4484863281</ele>
        <time>2010-09-19T10:30:31Z</time>
      </trkpt>
      <trkpt lat="46.27759" lon="5.90731">
        <ele>1160.9291992188</ele>
        <time>2010-09-19T10:30:39Z</time>
      </trkpt>
      <trkpt lat="46.27752" lon="5.90719">
        <ele>1162.8518066406</ele>
        <time>2010-09-19T10:30:47Z</time>
      </trkpt>
      <trkpt lat="46.27745" lon="5.90712">
        <ele>1164.2939453125</ele>
        <time>2010-09-19T10:30:54Z</time>
      </trkpt>
      <trkpt lat="46.27741" lon="5.90705">
        <ele>1164.7746582031</ele>
        <time>2010-09-19T10:30:59Z</time>
      </trkpt>
      <trkpt lat="46.27735" lon="5.90695">
        <ele>1165.2553710938</ele>
        <time>2010-09-19T10:31:06Z</time>
      </trkpt>
      <trkpt lat="46.27734" lon="5.90694">
        <ele>1165.7360839844</ele>
        <time>2010-09-19T10:31:07Z</time>
      </trkpt>
      <trkpt lat="46.27726" lon="5.90683">
        <ele>1166.697265625</ele>
        <time>2010-09-19T10:31:14Z</time>
      </trkpt>
      <trkpt lat="46.27719" lon="5.90669">
        <ele>1168.6198730469</ele>
        <time>2010-09-19T10:31:21Z</time>
      </trkpt>
      <trkpt lat="46.27713" lon="5.90657">
        <ele>1170.5424804688</ele>
        <time>2010-09-19T10:31:27Z</time>
      </trkpt>
      <trkpt lat="46.27705" lon="5.90643">
        <ele>1171.984375</ele>
        <time>2010-09-19T10:31:35Z</time>
      </trkpt>
      <trkpt lat="46.27697" lon="5.90631">
        <ele>1174.3876953125</ele>
        <time>2010-09-19T10:31:42Z</time>
      </trkpt>
      <trkpt lat="46.27695" lon="5.90629">
        <ele>1174.8684082031</ele>
        <time>2010-09-19T10:31:43Z</time>
      </trkpt>
      <trkpt lat="46.27688" lon="5.90617">
        <ele>1175.8295898438</ele>
        <time>2010-09-19T10:31:49Z</time>
      </trkpt>
      <trkpt lat="46.27685" lon="5.90601">
        <ele>1176.3103027344</ele>
        <time>2010-09-19T10:31:56Z</time>
      </trkpt>
      <trkpt lat="46.27683" lon="5.90584">
        <ele>1177.2717285156</ele>
        <time>2010-09-19T10:32:04Z</time>
      </trkpt>
      <trkpt lat="46.27682" lon="5.90573">
        <ele>1178.7136230469</ele>
        <time>2010-09-19T10:32:10Z</time>
      </trkpt>
      <trkpt lat="46.27679" lon="5.90563">
        <ele>1179.1940917969</ele>
        <time>2010-09-19T10:32:16Z</time>
      </trkpt>
      <trkpt lat="46.27676" lon="5.90553">
        <ele>1180.1557617188</ele>
        <time>2010-09-19T10:32:22Z</time>
      </trkpt>
      <trkpt lat="46.27667" lon="5.90542">
        <ele>1182.0783691406</ele>
        <time>2010-09-19T10:32:28Z</time>
      </trkpt>
      <trkpt lat="46.27657" lon="5.90533">
        <ele>1182.5590820312</ele>
        <time>2010-09-19T10:32:34Z</time>
      </trkpt>
      <trkpt lat="46.27652" lon="5.90529">
        <ele>1183.5202636719</ele>
        <time>2010-09-19T10:32:38Z</time>
      </trkpt>
      <trkpt lat="46.2765" lon="5.90528">
        <ele>1183.5202636719</ele>
        <time>2010-09-19T10:32:40Z</time>
      </trkpt>
      <trkpt lat="46.27643" lon="5.90521">
        <ele>1184.9624023438</ele>
        <time>2010-09-19T10:32:47Z</time>
      </trkpt>
      <trkpt lat="46.27639" lon="5.90518">
        <ele>1185.9235839844</ele>
        <time>2010-09-19T10:32:52Z</time>
      </trkpt>
      <trkpt lat="46.2763" lon="5.90518">
        <ele>1186.884765625</ele>
        <time>2010-09-19T10:32:59Z</time>
      </trkpt>
      <trkpt lat="46.2762" lon="5.90519">
        <ele>1188.3269042969</ele>
        <time>2010-09-19T10:33:05Z</time>
      </trkpt>
      <trkpt lat="46.27612" lon="5.90519">
        <ele>1188.8076171875</ele>
        <time>2010-09-19T10:33:10Z</time>
      </trkpt>
      <trkpt lat="46.27603" lon="5.90511">
        <ele>1188.8076171875</ele>
        <time>2010-09-19T10:33:17Z</time>
      </trkpt>
      <trkpt lat="46.27593" lon="5.90502">
        <ele>1189.7687988281</ele>
        <time>2010-09-19T10:33:25Z</time>
      </trkpt>
      <trkpt lat="46.27585" lon="5.90492">
        <ele>1191.2106933594</ele>
        <time>2010-09-19T10:33:33Z</time>
      </trkpt>
      <trkpt lat="46.27579" lon="5.90485">
        <ele>1192.1721191406</ele>
        <time>2010-09-19T10:33:39Z</time>
      </trkpt>
      <trkpt lat="46.2758" lon="5.90476">
        <ele>1193.1333007812</ele>
        <time>2010-09-19T10:33:43Z</time>
      </trkpt>
      <trkpt lat="46.27588" lon="5.90468">
        <ele>1194.5751953125</ele>
        <time>2010-09-19T10:33:49Z</time>
      </trkpt>
      <trkpt lat="46.27598" lon="5.90477">
        <ele>1195.5366210938</ele>
        <time>2010-09-19T10:33:55Z</time>
      </trkpt>
      <trkpt lat="46.27606" lon="5.90483">
        <ele>1196.017578125</ele>
        <time>2010-09-19T10:33:59Z</time>
      </trkpt>
      <trkpt lat="46.27617" lon="5.90485">
        <ele>1196.017578125</ele>
        <time>2010-09-19T10:34:04Z</time>
      </trkpt>
      <trkpt lat="46.27624" lon="5.90483">
        <ele>1196.4982910156</ele>
        <time>2010-09-19T10:34:08Z</time>
      </trkpt>
      <trkpt lat="46.2763" lon="5.90475">
        <ele>1196.4982910156</ele>
        <time>2010-09-19T10:34:14Z</time>
      </trkpt>
      <trkpt lat="46.27635" lon="5.90461">
        <ele>1199.3820800781</ele>
        <time>2010-09-19T10:34:23Z</time>
      </trkpt>
      <trkpt lat="46.27632" lon="5.90449">
        <ele>1200.8239746094</ele>
        <time>2010-09-19T10:34:30Z</time>
      </trkpt>
      <trkpt lat="46.27628" lon="5.90439">
        <ele>1201.7854003906</ele>
        <time>2010-09-19T10:34:36Z</time>
      </trkpt>
      <trkpt lat="46.27626" lon="5.90419">
        <ele>1202.7465820312</ele>
        <time>2010-09-19T10:34:44Z</time>
      </trkpt>
      <trkpt lat="46.27628" lon="5.90406">
        <ele>1203.7080078125</ele>
        <time>2010-09-19T10:34:50Z</time>
      </trkpt>
      <trkpt lat="46.27627" lon="5.90391">
        <ele>1205.6306152344</ele>
        <time>2010-09-19T10:34:58Z</time>
      </trkpt>
      <trkpt lat="46.27626" lon="5.90389">
        <ele>1205.1499023438</ele>
        <time>2010-09-19T10:34:59Z</time>
      </trkpt>
      <trkpt lat="46.27625" lon="5.90377">
        <ele>1206.591796875</ele>
        <time>2010-09-19T10:35:04Z</time>
      </trkpt>
      <trkpt lat="46.27617" lon="5.90362">
        <ele>1208.0339355469</ele>
        <time>2010-09-19T10:35:12Z</time>
      </trkpt>
      <trkpt lat="46.2761" lon="5.90351">
        <ele>1208.9951171875</ele>
        <time>2010-09-19T10:35:19Z</time>
      </trkpt>
      <trkpt lat="46.27601" lon="5.9034">
        <ele>1209.9562988281</ele>
        <time>2010-09-19T10:35:26Z</time>
      </trkpt>
      <trkpt lat="46.2759" lon="5.90324">
        <ele>1210.9177246094</ele>
        <time>2010-09-19T10:35:35Z</time>
      </trkpt>
      <trkpt lat="46.27581" lon="5.90314">
        <ele>1211.8791503906</ele>
        <time>2010-09-19T10:35:41Z</time>
      </trkpt>
      <trkpt lat="46.27571" lon="5.90305">
        <ele>1212.8405761719</ele>
        <time>2010-09-19T10:35:48Z</time>
      </trkpt>
      <trkpt lat="46.27562" lon="5.90296">
        <ele>1213.8017578125</ele>
        <time>2010-09-19T10:35:55Z</time>
      </trkpt>
      <trkpt lat="46.27555" lon="5.9029">
        <ele>1215.724609375</ele>
        <time>2010-09-19T10:36:01Z</time>
      </trkpt>
      <trkpt lat="46.27549" lon="5.90283">
        <ele>1216.205078125</ele>
        <time>2010-09-19T10:36:07Z</time>
      </trkpt>
      <trkpt lat="46.27541" lon="5.90272">
        <ele>1217.1665039062</ele>
        <time>2010-09-19T10:36:14Z</time>
      </trkpt>
      <trkpt lat="46.27534" lon="5.9026">
        <ele>1218.6083984375</ele>
        <time>2010-09-19T10:36:22Z</time>
      </trkpt>
      <trkpt lat="46.2753" lon="5.90247">
        <ele>1221.01171875</ele>
        <time>2010-09-19T10:36:29Z</time>
      </trkpt>
      <trkpt lat="46.27521" lon="5.90235">
        <ele>1222.4536132812</ele>
        <time>2010-09-19T10:36:36Z</time>
      </trkpt>
      <trkpt lat="46.27512" lon="5.90224">
        <ele>1222.9343261719</ele>
        <time>2010-09-19T10:36:43Z</time>
      </trkpt>
      <trkpt lat="46.27505" lon="5.90213">
        <ele>1223.8955078125</ele>
        <time>2010-09-19T10:36:50Z</time>
      </trkpt>
      <trkpt lat="46.27502" lon="5.90205">
        <ele>1223.8955078125</ele>
        <time>2010-09-19T10:36:55Z</time>
      </trkpt>
      <trkpt lat="46.27495" lon="5.90185">
        <ele>1224.8569335938</ele>
        <time>2010-09-19T10:37:03Z</time>
      </trkpt>
      <trkpt lat="46.27486" lon="5.9017">
        <ele>1225.3374023438</ele>
        <time>2010-09-19T10:37:10Z</time>
      </trkpt>
      <trkpt lat="46.27485" lon="5.90164">
        <ele>1225.8181152344</ele>
        <time>2010-09-19T10:37:13Z</time>
      </trkpt>
      <trkpt lat="46.27476" lon="5.90151">
        <ele>1227.2602539062</ele>
        <time>2010-09-19T10:37:21Z</time>
      </trkpt>
      <trkpt lat="46.2747" lon="5.90138">
        <ele>1227.7407226562</ele>
        <time>2010-09-19T10:37:28Z</time>
      </trkpt>
      <trkpt lat="46.27463" lon="5.90122">
        <ele>1229.6635742188</ele>
        <time>2010-09-19T10:37:37Z</time>
      </trkpt>
      <trkpt lat="46.27456" lon="5.90109">
        <ele>1231.5861816406</ele>
        <time>2010-09-19T10:37:44Z</time>
      </trkpt>
      <trkpt lat="46.27448" lon="5.90093">
        <ele>1233.0280761719</ele>
        <time>2010-09-19T10:37:53Z</time>
      </trkpt>
      <trkpt lat="46.27441" lon="5.90081">
        <ele>1234.4702148438</ele>
        <time>2010-09-19T10:38:00Z</time>
      </trkpt>
      <trkpt lat="46.27437" lon="5.90066">
        <ele>1236.3928222656</ele>
        <time>2010-09-19T10:38:07Z</time>
      </trkpt>
      <trkpt lat="46.27433" lon="5.9005">
        <ele>1236.8732910156</ele>
        <time>2010-09-19T10:38:14Z</time>
      </trkpt>
      <trkpt lat="46.27428" lon="5.90033">
        <ele>1237.8347167969</ele>
        <time>2010-09-19T10:38:21Z</time>
      </trkpt>
      <trkpt lat="46.27423" lon="5.90021">
        <ele>1238.3154296875</ele>
        <time>2010-09-19T10:38:27Z</time>
      </trkpt>
      <trkpt lat="46.27422" lon="5.90009">
        <ele>1238.3154296875</ele>
        <time>2010-09-19T10:38:31Z</time>
      </trkpt>
      <trkpt lat="46.27419" lon="5.89994">
        <ele>1238.3154296875</ele>
        <time>2010-09-19T10:38:36Z</time>
      </trkpt>
      <trkpt lat="46.27411" lon="5.89977">
        <ele>1239.2766113281</ele>
        <time>2010-09-19T10:38:43Z</time>
      </trkpt>
      <trkpt lat="46.27403" lon="5.89961">
        <ele>1241.6799316406</ele>
        <time>2010-09-19T10:38:50Z</time>
      </trkpt>
      <trkpt lat="46.27399" lon="5.89936">
        <ele>1243.1218261719</ele>
        <time>2010-09-19T10:38:59Z</time>
      </trkpt>
      <trkpt lat="46.27391" lon="5.89917">
        <ele>1244.0834960938</ele>
        <time>2010-09-19T10:39:07Z</time>
      </trkpt>
      <trkpt lat="46.27387" lon="5.89908">
        <ele>1245.525390625</ele>
        <time>2010-09-19T10:39:11Z</time>
      </trkpt>
      <trkpt lat="46.27381" lon="5.89898">
        <ele>1246.9672851562</ele>
        <time>2010-09-19T10:39:17Z</time>
      </trkpt>
      <trkpt lat="46.27372" lon="5.89892">
        <ele>1247.9287109375</ele>
        <time>2010-09-19T10:39:23Z</time>
      </trkpt>
      <trkpt lat="46.27362" lon="5.89878">
        <ele>1249.3706054688</ele>
        <time>2010-09-19T10:39:32Z</time>
      </trkpt>
      <trkpt lat="46.27359" lon="5.89858">
        <ele>1250.8125</ele>
        <time>2010-09-19T10:39:41Z</time>
      </trkpt>
      <trkpt lat="46.27361" lon="5.89838">
        <ele>1251.7739257812</ele>
        <time>2010-09-19T10:39:49Z</time>
      </trkpt>
      <trkpt lat="46.27362" lon="5.8982">
        <ele>1252.7351074219</ele>
        <time>2010-09-19T10:39:57Z</time>
      </trkpt>
      <trkpt lat="46.27365" lon="5.89806">
        <ele>1254.6577148438</ele>
        <time>2010-09-19T10:40:04Z</time>
      </trkpt>
      <trkpt lat="46.2737" lon="5.89793">
        <ele>1255.619140625</ele>
        <time>2010-09-19T10:40:11Z</time>
      </trkpt>
      <trkpt lat="46.27372" lon="5.89775">
        <ele>1256.099609375</ele>
        <time>2010-09-19T10:40:18Z</time>
      </trkpt>
      <trkpt lat="46.27368" lon="5.89758">
        <ele>1257.0610351562</ele>
        <time>2010-09-19T10:40:24Z</time>
      </trkpt>
      <trkpt lat="46.27366" lon="5.89742">
        <ele>1258.0224609375</ele>
        <time>2010-09-19T10:40:31Z</time>
      </trkpt>
      <trkpt lat="46.2736" lon="5.8973">
        <ele>1258.5029296875</ele>
        <time>2010-09-19T10:40:38Z</time>
      </trkpt>
      <trkpt lat="46.27357" lon="5.89721">
        <ele>1258.9836425781</ele>
        <time>2010-09-19T10:40:42Z</time>
      </trkpt>
      <trkpt lat="46.27355" lon="5.89711">
        <ele>1259.9448242188</ele>
        <time>2010-09-19T10:40:46Z</time>
      </trkpt>
      <trkpt lat="46.27357" lon="5.89695">
        <ele>1260.9064941406</ele>
        <time>2010-09-19T10:40:54Z</time>
      </trkpt>
      <trkpt lat="46.27359" lon="5.89686">
        <ele>1261.8679199219</ele>
        <time>2010-09-19T10:40:59Z</time>
      </trkpt>
      <trkpt lat="46.27364" lon="5.89672">
        <ele>1261.8679199219</ele>
        <time>2010-09-19T10:41:05Z</time>
      </trkpt>
      <trkpt lat="46.27365" lon="5.8967">
        <ele>1261.8679199219</ele>
        <time>2010-09-19T10:41:06Z</time>
      </trkpt>
      <trkpt lat="46.27367" lon="5.8966">
        <ele>1262.3483886719</ele>
        <time>2010-09-19T10:41:11Z</time>
      </trkpt>
      <trkpt lat="46.27373" lon="5.89646">
        <ele>1263.3098144531</ele>
        <time>2010-09-19T10:41:18Z</time>
      </trkpt>
      <trkpt lat="46.27379" lon="5.89625">
        <ele>1263.7902832031</ele>
        <time>2010-09-19T10:41:25Z</time>
      </trkpt>
      <trkpt lat="46.27386" lon="5.89607">
        <ele>1264.2709960938</ele>
        <time>2010-09-19T10:41:30Z</time>
      </trkpt>
      <trkpt lat="46.27395" lon="5.89576">
        <ele>1264.2709960938</ele>
        <time>2010-09-19T10:41:38Z</time>
      </trkpt>
      <trkpt lat="46.27404" lon="5.8955">
        <ele>1263.7902832031</ele>
        <time>2010-09-19T10:41:44Z</time>
      </trkpt>
      <trkpt lat="46.27412" lon="5.89526">
        <ele>1263.7902832031</ele>
        <time>2010-09-19T10:41:50Z</time>
      </trkpt>
      <trkpt lat="46.27418" lon="5.89508">
        <ele>1264.2709960938</ele>
        <time>2010-09-19T10:41:55Z</time>
      </trkpt>
      <trkpt lat="46.27423" lon="5.8948">
        <ele>1265.232421875</ele>
        <time>2010-09-19T10:42:03Z</time>
      </trkpt>
      <trkpt lat="46.27422" lon="5.89451">
        <ele>1266.6743164062</ele>
        <time>2010-09-19T10:42:12Z</time>
      </trkpt>
      <trkpt lat="46.27423" lon="5.89438">
        <ele>1267.1550292969</ele>
        <time>2010-09-19T10:42:18Z</time>
      </trkpt>
      <trkpt lat="46.27423" lon="5.89435">
        <ele>1267.6354980469</ele>
        <time>2010-09-19T10:42:20Z</time>
      </trkpt>
      <trkpt lat="46.27432" lon="5.89425">
        <ele>1266.6743164062</ele>
        <time>2010-09-19T10:42:28Z</time>
      </trkpt>
      <trkpt lat="46.27438" lon="5.89422">
        <ele>1266.1936035156</ele>
        <time>2010-09-19T10:42:30Z</time>
      </trkpt>
      <trkpt lat="46.27457" lon="5.89395">
        <ele>1263.7902832031</ele>
        <time>2010-09-19T10:42:35Z</time>
      </trkpt>
      <trkpt lat="46.27464" lon="5.89377">
        <ele>1263.3098144531</ele>
        <time>2010-09-19T10:42:37Z</time>
      </trkpt>
      <trkpt lat="46.27466" lon="5.89342">
        <ele>1262.3483886719</ele>
        <time>2010-09-19T10:42:41Z</time>
      </trkpt>
      <trkpt lat="46.27455" lon="5.89309">
        <ele>1260.9064941406</ele>
        <time>2010-09-19T10:42:45Z</time>
      </trkpt>
      <trkpt lat="46.27452" lon="5.8929">
        <ele>1260.42578125</ele>
        <time>2010-09-19T10:42:47Z</time>
      </trkpt>
      <trkpt lat="46.27456" lon="5.89262">
        <ele>1258.0224609375</ele>
        <time>2010-09-19T10:42:50Z</time>
      </trkpt>
      <trkpt lat="46.27467" lon="5.89218">
        <ele>1255.619140625</ele>
        <time>2010-09-19T10:42:54Z</time>
      </trkpt>
      <trkpt lat="46.27471" lon="5.89198">
        <ele>1256.5803222656</ele>
        <time>2010-09-19T10:42:56Z</time>
      </trkpt>
      <trkpt lat="46.27485" lon="5.89169">
        <ele>1255.619140625</ele>
        <time>2010-09-19T10:43:00Z</time>
      </trkpt>
      <trkpt lat="46.27501" lon="5.89161">
        <ele>1255.619140625</ele>
        <time>2010-09-19T10:43:03Z</time>
      </trkpt>
      <trkpt lat="46.27522" lon="5.89141">
        <ele>1254.1772460938</ele>
        <time>2010-09-19T10:43:08Z</time>
      </trkpt>
      <trkpt lat="46.27518" lon="5.89124">
        <ele>1254.1772460938</ele>
        <time>2010-09-19T10:43:11Z</time>
      </trkpt>
      <trkpt lat="46.2751" lon="5.89108">
        <ele>1256.5803222656</ele>
        <time>2010-09-19T10:43:17Z</time>
      </trkpt>
      <trkpt lat="46.2751" lon="5.8909">
        <ele>1258.5029296875</ele>
        <time>2010-09-19T10:43:24Z</time>
      </trkpt>
      <trkpt lat="46.2751" lon="5.89088">
        <ele>1258.5029296875</ele>
        <time>2010-09-19T10:43:25Z</time>
      </trkpt>
      <trkpt lat="46.27516" lon="5.89075">
        <ele>1260.9064941406</ele>
        <time>2010-09-19T10:43:31Z</time>
      </trkpt>
      <trkpt lat="46.27522" lon="5.89057">
        <ele>1261.8679199219</ele>
        <time>2010-09-19T10:43:39Z</time>
      </trkpt>
      <trkpt lat="46.27525" lon="5.89039">
        <ele>1262.3483886719</ele>
        <time>2010-09-19T10:43:46Z</time>
      </trkpt>
      <trkpt lat="46.27528" lon="5.89024">
        <ele>1263.3098144531</ele>
        <time>2010-09-19T10:43:52Z</time>
      </trkpt>
      <trkpt lat="46.27521" lon="5.89002">
        <ele>1264.7517089844</ele>
        <time>2010-09-19T10:44:00Z</time>
      </trkpt>
      <trkpt lat="46.27511" lon="5.88988">
        <ele>1265.232421875</ele>
        <time>2010-09-19T10:44:06Z</time>
      </trkpt>
      <trkpt lat="46.27498" lon="5.8897">
        <ele>1264.7517089844</ele>
        <time>2010-09-19T10:44:12Z</time>
      </trkpt>
      <trkpt lat="46.27483" lon="5.88947">
        <ele>1262.8291015625</ele>
        <time>2010-09-19T10:44:17Z</time>
      </trkpt>
      <trkpt lat="46.27458" lon="5.88908">
        <ele>1261.3872070312</ele>
        <time>2010-09-19T10:44:23Z</time>
      </trkpt>
      <trkpt lat="46.27427" lon="5.88881">
        <ele>1258.0224609375</ele>
        <time>2010-09-19T10:44:28Z</time>
      </trkpt>
      <trkpt lat="46.27405" lon="5.88863">
        <ele>1256.5803222656</ele>
        <time>2010-09-19T10:44:31Z</time>
      </trkpt>
      <trkpt lat="46.27368" lon="5.88834">
        <ele>1257.5417480469</ele>
        <time>2010-09-19T10:44:37Z</time>
      </trkpt>
      <trkpt lat="46.27338" lon="5.88815">
        <ele>1257.0610351562</ele>
        <time>2010-09-19T10:44:43Z</time>
      </trkpt>
      <trkpt lat="46.27308" lon="5.88798">
        <ele>1259.4643554688</ele>
        <time>2010-09-19T10:44:50Z</time>
      </trkpt>
      <trkpt lat="46.27304" lon="5.88795">
        <ele>1259.4643554688</ele>
        <time>2010-09-19T10:44:51Z</time>
      </trkpt>
      <trkpt lat="46.27267" lon="5.8877">
        <ele>1260.9064941406</ele>
        <time>2010-09-19T10:45:01Z</time>
      </trkpt>
      <trkpt lat="46.27243" lon="5.88751">
        <ele>1262.8291015625</ele>
        <time>2010-09-19T10:45:09Z</time>
      </trkpt>
      <trkpt lat="46.27225" lon="5.8875">
        <ele>1261.8679199219</ele>
        <time>2010-09-19T10:45:13Z</time>
      </trkpt>
      <trkpt lat="46.27204" lon="5.88755">
        <ele>1261.3872070312</ele>
        <time>2010-09-19T10:45:17Z</time>
      </trkpt>
      <trkpt lat="46.27195" lon="5.8876">
        <ele>1261.8679199219</ele>
        <time>2010-09-19T10:45:19Z</time>
      </trkpt>
      <trkpt lat="46.27171" lon="5.88762">
        <ele>1261.8679199219</ele>
        <time>2010-09-19T10:45:24Z</time>
      </trkpt>
      <trkpt lat="46.27149" lon="5.88753">
        <ele>1263.7902832031</ele>
        <time>2010-09-19T10:45:30Z</time>
      </trkpt>
      <trkpt lat="46.27134" lon="5.88742">
        <ele>1265.232421875</ele>
        <time>2010-09-19T10:45:37Z</time>
      </trkpt>
      <trkpt lat="46.27122" lon="5.8873">
        <ele>1266.1936035156</ele>
        <time>2010-09-19T10:45:44Z</time>
      </trkpt>
      <trkpt lat="46.27112" lon="5.88722">
        <ele>1267.1550292969</ele>
        <time>2010-09-19T10:45:51Z</time>
      </trkpt>
      <trkpt lat="46.27099" lon="5.8871">
        <ele>1268.5969238281</ele>
        <time>2010-09-19T10:46:00Z</time>
      </trkpt>
      <trkpt lat="46.27084" lon="5.88696">
        <ele>1271.0002441406</ele>
        <time>2010-09-19T10:46:10Z</time>
      </trkpt>
      <trkpt lat="46.2707" lon="5.88683">
        <ele>1272.4421386719</ele>
        <time>2010-09-19T10:46:20Z</time>
      </trkpt>
      <trkpt lat="46.2706" lon="5.88671">
        <ele>1273.4035644531</ele>
        <time>2010-09-19T10:46:28Z</time>
      </trkpt>
      <trkpt lat="46.27047" lon="5.88659">
        <ele>1274.8454589844</ele>
        <time>2010-09-19T10:46:37Z</time>
      </trkpt>
      <trkpt lat="46.27038" lon="5.88651">
        <ele>1275.806640625</ele>
        <time>2010-09-19T10:46:44Z</time>
      </trkpt>
      <trkpt lat="46.27025" lon="5.8864">
        <ele>1276.7683105469</ele>
        <time>2010-09-19T10:46:53Z</time>
      </trkpt>
      <trkpt lat="46.27015" lon="5.88631">
        <ele>1278.2102050781</ele>
        <time>2010-09-19T10:47:01Z</time>
      </trkpt>
      <trkpt lat="46.27009" lon="5.88622">
        <ele>1280.6135253906</ele>
        <time>2010-09-19T10:47:08Z</time>
      </trkpt>
      <trkpt lat="46.27003" lon="5.8861">
        <ele>1281.0942382812</ele>
        <time>2010-09-19T10:47:15Z</time>
      </trkpt>
      <trkpt lat="46.26995" lon="5.88603">
        <ele>1282.0554199219</ele>
        <time>2010-09-19T10:47:21Z</time>
      </trkpt>
      <trkpt lat="46.26985" lon="5.88592">
        <ele>1284.4587402344</ele>
        <time>2010-09-19T10:47:30Z</time>
      </trkpt>
      <trkpt lat="46.26978" lon="5.88582">
        <ele>1286.3813476562</ele>
        <time>2010-09-19T10:47:37Z</time>
      </trkpt>
      <trkpt lat="46.26969" lon="5.88572">
        <ele>1287.3425292969</ele>
        <time>2010-09-19T10:47:46Z</time>
      </trkpt>
      <trkpt lat="46.2696" lon="5.88562">
        <ele>1288.7846679688</ele>
        <time>2010-09-19T10:47:55Z</time>
      </trkpt>
      <trkpt lat="46.26952" lon="5.88555">
        <ele>1291.1877441406</ele>
        <time>2010-09-19T10:48:03Z</time>
      </trkpt>
      <trkpt lat="46.26943" lon="5.88547">
        <ele>1291.6684570312</ele>
        <time>2010-09-19T10:48:11Z</time>
      </trkpt>
      <trkpt lat="46.2694" lon="5.88544">
        <ele>1292.6301269531</ele>
        <time>2010-09-19T10:48:14Z</time>
      </trkpt>
      <trkpt lat="46.2693" lon="5.88538">
        <ele>1294.5524902344</ele>
        <time>2010-09-19T10:48:22Z</time>
      </trkpt>
      <trkpt lat="46.26922" lon="5.88527">
        <ele>1296.9558105469</ele>
        <time>2010-09-19T10:48:31Z</time>
      </trkpt>
      <trkpt lat="46.26921" lon="5.88521">
        <ele>1296.9558105469</ele>
        <time>2010-09-19T10:48:34Z</time>
      </trkpt>
      <trkpt lat="46.26911" lon="5.88509">
        <ele>1297.9172363281</ele>
        <time>2010-09-19T10:48:43Z</time>
      </trkpt>
      <trkpt lat="46.26901" lon="5.88495">
        <ele>1300.3205566406</ele>
        <time>2010-09-19T10:48:53Z</time>
      </trkpt>
      <trkpt lat="46.26891" lon="5.8848">
        <ele>1301.7624511719</ele>
        <time>2010-09-19T10:49:03Z</time>
      </trkpt>
      <trkpt lat="46.26884" lon="5.88467">
        <ele>1302.2429199219</ele>
        <time>2010-09-19T10:49:11Z</time>
      </trkpt>
      <trkpt lat="46.26876" lon="5.88449">
        <ele>1304.1657714844</ele>
        <time>2010-09-19T10:49:21Z</time>
      </trkpt>
      <trkpt lat="46.26868" lon="5.88431">
        <ele>1305.126953125</ele>
        <time>2010-09-19T10:49:31Z</time>
      </trkpt>
      <trkpt lat="46.26863" lon="5.88419">
        <ele>1307.0495605469</ele>
        <time>2010-09-19T10:49:38Z</time>
      </trkpt>
      <trkpt lat="46.26856" lon="5.88402">
        <ele>1309.453125</ele>
        <time>2010-09-19T10:49:48Z</time>
      </trkpt>
      <trkpt lat="46.26849" lon="5.88387">
        <ele>1310.8950195312</ele>
        <time>2010-09-19T10:49:57Z</time>
      </trkpt>
      <trkpt lat="46.26842" lon="5.88374">
        <ele>1312.8176269531</ele>
        <time>2010-09-19T10:50:05Z</time>
      </trkpt>
      <trkpt lat="46.26834" lon="5.88362">
        <ele>1314.740234375</ele>
        <time>2010-09-19T10:50:14Z</time>
      </trkpt>
      <trkpt lat="46.26827" lon="5.88347">
        <ele>1315.2209472656</ele>
        <time>2010-09-19T10:50:23Z</time>
      </trkpt>
      <trkpt lat="46.2682" lon="5.88335">
        <ele>1317.1435546875</ele>
        <time>2010-09-19T10:50:31Z</time>
      </trkpt>
      <trkpt lat="46.26813" lon="5.88325">
        <ele>1318.5854492188</ele>
        <time>2010-09-19T10:50:39Z</time>
      </trkpt>
      <trkpt lat="46.26806" lon="5.88311">
        <ele>1320.5080566406</ele>
        <time>2010-09-19T10:50:48Z</time>
      </trkpt>
      <trkpt lat="46.26799" lon="5.88296">
        <ele>1322.4306640625</ele>
        <time>2010-09-19T10:50:57Z</time>
      </trkpt>
      <trkpt lat="46.26791" lon="5.88277">
        <ele>1324.8342285156</ele>
        <time>2010-09-19T10:51:06Z</time>
      </trkpt>
      <trkpt lat="46.26784" lon="5.88263">
        <ele>1326.2761230469</ele>
        <time>2010-09-19T10:51:14Z</time>
      </trkpt>
      <trkpt lat="46.26778" lon="5.88252">
        <ele>1327.2375488281</ele>
        <time>2010-09-19T10:51:21Z</time>
      </trkpt>
      <trkpt lat="46.26772" lon="5.8824">
        <ele>1328.1987304688</ele>
        <time>2010-09-19T10:51:28Z</time>
      </trkpt>
      <trkpt lat="46.26767" lon="5.88226">
        <ele>1328.6794433594</ele>
        <time>2010-09-19T10:51:35Z</time>
      </trkpt>
      <trkpt lat="46.26757" lon="5.88211">
        <ele>1329.640625</ele>
        <time>2010-09-19T10:51:43Z</time>
      </trkpt>
      <trkpt lat="46.26749" lon="5.88198">
        <ele>1330.6020507812</ele>
        <time>2010-09-19T10:51:50Z</time>
      </trkpt>
      <trkpt lat="46.26741" lon="5.88181">
        <ele>1331.5632324219</ele>
        <time>2010-09-19T10:51:57Z</time>
      </trkpt>
      <trkpt lat="46.26732" lon="5.88152">
        <ele>1332.0439453125</ele>
        <time>2010-09-19T10:52:06Z</time>
      </trkpt>
      <trkpt lat="46.26731" lon="5.8813">
        <ele>1333.0051269531</ele>
        <time>2010-09-19T10:52:13Z</time>
      </trkpt>
      <trkpt lat="46.2673" lon="5.88106">
        <ele>1333.9665527344</ele>
        <time>2010-09-19T10:52:21Z</time>
      </trkpt>
      <trkpt lat="46.2673" lon="5.88081">
        <ele>1336.3698730469</ele>
        <time>2010-09-19T10:52:30Z</time>
      </trkpt>
      <trkpt lat="46.2673" lon="5.88054">
        <ele>1337.8117675781</ele>
        <time>2010-09-19T10:52:39Z</time>
      </trkpt>
      <trkpt lat="46.26728" lon="5.88034">
        <ele>1337.8117675781</ele>
        <time>2010-09-19T10:52:46Z</time>
      </trkpt>
      <trkpt lat="46.2672" lon="5.8801">
        <ele>1338.7731933594</ele>
        <time>2010-09-19T10:52:55Z</time>
      </trkpt>
      <trkpt lat="46.26711" lon="5.87992">
        <ele>1338.7731933594</ele>
        <time>2010-09-19T10:53:03Z</time>
      </trkpt>
      <trkpt lat="46.26701" lon="5.87977">
        <ele>1340.6958007812</ele>
        <time>2010-09-19T10:53:10Z</time>
      </trkpt>
      <trkpt lat="46.26693" lon="5.87963">
        <ele>1342.1379394531</ele>
        <time>2010-09-19T10:53:17Z</time>
      </trkpt>
      <trkpt lat="46.26685" lon="5.8795">
        <ele>1343.5798339844</ele>
        <time>2010-09-19T10:53:24Z</time>
      </trkpt>
      <trkpt lat="46.2668" lon="5.87937">
        <ele>1344.060546875</ele>
        <time>2010-09-19T10:53:31Z</time>
      </trkpt>
      <trkpt lat="46.26671" lon="5.87922">
        <ele>1345.9831542969</ele>
        <time>2010-09-19T10:53:38Z</time>
      </trkpt>
      <trkpt lat="46.26659" lon="5.87905">
        <ele>1346.4638671875</ele>
        <time>2010-09-19T10:53:47Z</time>
      </trkpt>
      <trkpt lat="46.26652" lon="5.87891">
        <ele>1347.9057617188</ele>
        <time>2010-09-19T10:53:54Z</time>
      </trkpt>
      <trkpt lat="46.26645" lon="5.87868">
        <ele>1349.34765625</ele>
        <time>2010-09-19T10:54:03Z</time>
      </trkpt>
      <trkpt lat="46.26643" lon="5.87851">
        <ele>1349.8283691406</ele>
        <time>2010-09-19T10:54:10Z</time>
      </trkpt>
      <trkpt lat="46.26644" lon="5.87835">
        <ele>1350.7895507812</ele>
        <time>2010-09-19T10:54:17Z</time>
      </trkpt>
      <trkpt lat="46.26645" lon="5.87814">
        <ele>1352.2314453125</ele>
        <time>2010-09-19T10:54:25Z</time>
      </trkpt>
      <trkpt lat="46.26645" lon="5.87798">
        <ele>1353.1928710938</ele>
        <time>2010-09-19T10:54:32Z</time>
      </trkpt>
      <trkpt lat="46.26654" lon="5.87788">
        <ele>1353.1928710938</ele>
        <time>2010-09-19T10:54:38Z</time>
      </trkpt>
      <trkpt lat="46.26674" lon="5.87789">
        <ele>1352.7121582031</ele>
        <time>2010-09-19T10:54:44Z</time>
      </trkpt>
      <trkpt lat="46.26678" lon="5.8779">
        <ele>1352.7121582031</ele>
        <time>2010-09-19T10:54:45Z</time>
      </trkpt>
      <trkpt lat="46.26687" lon="5.8779">
        <ele>1352.2314453125</ele>
        <time>2010-09-19T10:54:47Z</time>
      </trkpt>
      <trkpt lat="46.26702" lon="5.87784">
        <ele>1350.3090820312</ele>
        <time>2010-09-19T10:54:50Z</time>
      </trkpt>
      <trkpt lat="46.26712" lon="5.87763">
        <ele>1348.3862304688</ele>
        <time>2010-09-19T10:54:53Z</time>
      </trkpt>
      <trkpt lat="46.26712" lon="5.87753">
        <ele>1347.9057617188</ele>
        <time>2010-09-19T10:54:54Z</time>
      </trkpt>
      <trkpt lat="46.26712" lon="5.87711">
        <ele>1344.541015625</ele>
        <time>2010-09-19T10:54:58Z</time>
      </trkpt>
      <trkpt lat="46.26699" lon="5.87669">
        <ele>1340.6958007812</ele>
        <time>2010-09-19T10:55:02Z</time>
      </trkpt>
      <trkpt lat="46.26688" lon="5.87653">
        <ele>1339.2536621094</ele>
        <time>2010-09-19T10:55:04Z</time>
      </trkpt>
      <trkpt lat="46.26669" lon="5.87618">
        <ele>1334.9279785156</ele>
        <time>2010-09-19T10:55:08Z</time>
      </trkpt>
      <trkpt lat="46.26647" lon="5.87588">
        <ele>1332.5246582031</ele>
        <time>2010-09-19T10:55:12Z</time>
      </trkpt>
      <trkpt lat="46.26642" lon="5.8758">
        <ele>1330.1213378906</ele>
        <time>2010-09-19T10:55:13Z</time>
      </trkpt>
      <trkpt lat="46.2664" lon="5.87558">
        <ele>1327.7180175781</ele>
        <time>2010-09-19T10:55:16Z</time>
      </trkpt>
      <trkpt lat="46.2665" lon="5.87536">
        <ele>1325.3146972656</ele>
        <time>2010-09-19T10:55:19Z</time>
      </trkpt>
      <trkpt lat="46.26652" lon="5.87518">
        <ele>1324.8342285156</ele>
        <time>2010-09-19T10:55:21Z</time>
      </trkpt>
      <trkpt lat="46.2664" lon="5.875">
        <ele>1324.8342285156</ele>
        <time>2010-09-19T10:55:24Z</time>
      </trkpt>
      <trkpt lat="46.26631" lon="5.8748">
        <ele>1323.3920898438</ele>
        <time>2010-09-19T10:55:27Z</time>
      </trkpt>
      <trkpt lat="46.26624" lon="5.8743">
        <ele>1320.02734375</ele>
        <time>2010-09-19T10:55:32Z</time>
      </trkpt>
      <trkpt lat="46.2662" lon="5.87395">
        <ele>1317.6240234375</ele>
        <time>2010-09-19T10:55:35Z</time>
      </trkpt>
      <trkpt lat="46.26614" lon="5.8734">
        <ele>1314.2595214844</ele>
        <time>2010-09-19T10:55:40Z</time>
      </trkpt>
      <trkpt lat="46.26599" lon="5.87319">
        <ele>1312.8176269531</ele>
        <time>2010-09-19T10:55:43Z</time>
      </trkpt>
      <trkpt lat="46.2658" lon="5.87271">
        <ele>1311.8564453125</ele>
        <time>2010-09-19T10:55:49Z</time>
      </trkpt>
      <trkpt lat="46.26562" lon="5.87247">
        <ele>1310.4143066406</ele>
        <time>2010-09-19T10:55:53Z</time>
      </trkpt>
      <trkpt lat="46.26544" lon="5.87225">
        <ele>1309.453125</ele>
        <time>2010-09-19T10:55:57Z</time>
      </trkpt>
      <trkpt lat="46.26542" lon="5.87204">
        <ele>1307.5302734375</ele>
        <time>2010-09-19T10:55:59Z</time>
      </trkpt>
      <trkpt lat="46.26541" lon="5.87181">
        <ele>1306.5688476562</ele>
        <time>2010-09-19T10:56:01Z</time>
      </trkpt>
      <trkpt lat="46.2653" lon="5.8714">
        <ele>1304.1657714844</ele>
        <time>2010-09-19T10:56:05Z</time>
      </trkpt>
      <trkpt lat="46.26527" lon="5.8713">
        <ele>1303.2043457031</ele>
        <time>2010-09-19T10:56:06Z</time>
      </trkpt>
      <trkpt lat="46.26518" lon="5.87085">
        <ele>1300.8010253906</ele>
        <time>2010-09-19T10:56:10Z</time>
      </trkpt>
      <trkpt lat="46.26511" lon="5.87047">
        <ele>1297.4365234375</ele>
        <time>2010-09-19T10:56:13Z</time>
      </trkpt>
      <trkpt lat="46.26509" lon="5.87034">
        <ele>1296.9558105469</ele>
        <time>2010-09-19T10:56:14Z</time>
      </trkpt>
      <trkpt lat="46.26502" lon="5.87008">
        <ele>1295.5139160156</ele>
        <time>2010-09-19T10:56:16Z</time>
      </trkpt>
      <trkpt lat="46.26494" lon="5.86978">
        <ele>1293.5913085938</ele>
        <time>2010-09-19T10:56:19Z</time>
      </trkpt>
      <trkpt lat="46.26492" lon="5.8697">
        <ele>1294.0720214844</ele>
        <time>2010-09-19T10:56:20Z</time>
      </trkpt>
      <trkpt lat="46.2649" lon="5.86962">
        <ele>1293.5913085938</ele>
        <time>2010-09-19T10:56:21Z</time>
      </trkpt>
      <trkpt lat="46.26493" lon="5.86939">
        <ele>1291.6684570312</ele>
        <time>2010-09-19T10:56:25Z</time>
      </trkpt>
      <trkpt lat="46.26501" lon="5.86931">
        <ele>1291.6684570312</ele>
        <time>2010-09-19T10:56:29Z</time>
      </trkpt>
      <trkpt lat="46.26509" lon="5.86925">
        <ele>1291.6684570312</ele>
        <time>2010-09-19T10:56:35Z</time>
      </trkpt>
      <trkpt lat="46.26515" lon="5.86924">
        <ele>1292.1494140625</ele>
        <time>2010-09-19T10:56:41Z</time>
      </trkpt>
      <trkpt lat="46.2652" lon="5.86917">
        <ele>1293.1105957031</ele>
        <time>2010-09-19T10:56:48Z</time>
      </trkpt>
      <trkpt lat="46.2652" lon="5.86915">
        <ele>1292.6301269531</ele>
        <time>2010-09-19T10:56:53Z</time>
      </trkpt>
      <trkpt lat="46.26521" lon="5.86909">
        <ele>1292.6301269531</ele>
        <time>2010-09-19T10:56:59Z</time>
      </trkpt>
      <trkpt lat="46.26521" lon="5.86899">
        <ele>1292.6301269531</ele>
        <time>2010-09-19T10:57:07Z</time>
      </trkpt>
      <trkpt lat="46.2652" lon="5.86893">
        <ele>1292.6301269531</ele>
        <time>2010-09-19T10:57:13Z</time>
      </trkpt>
      <trkpt lat="46.26522" lon="5.86892">
        <ele>1293.5913085938</ele>
        <time>2010-09-19T10:57:20Z</time>
      </trkpt>
      <trkpt lat="46.26523" lon="5.86889">
        <ele>1292.6301269531</ele>
        <time>2010-09-19T10:57:24Z</time>
      </trkpt>
      <trkpt lat="46.26517" lon="5.86897">
        <ele>1294.5524902344</ele>
        <time>2010-09-19T11:05:03Z</time>
      </trkpt>
      <trkpt lat="46.26515" lon="5.86897">
        <ele>1294.0720214844</ele>
        <time>2010-09-19T11:05:10Z</time>
      </trkpt>
      <trkpt lat="46.26513" lon="5.86898">
        <ele>1293.1105957031</ele>
        <time>2010-09-19T11:05:16Z</time>
      </trkpt>
      <trkpt lat="46.2651" lon="5.86895">
        <ele>1293.1105957031</ele>
        <time>2010-09-19T11:05:19Z</time>
      </trkpt>
      <trkpt lat="46.26505" lon="5.86888">
        <ele>1293.1105957031</ele>
        <time>2010-09-19T11:05:24Z</time>
      </trkpt>
      <trkpt lat="46.26504" lon="5.86886">
        <ele>1293.1105957031</ele>
        <time>2010-09-19T11:05:29Z</time>
      </trkpt>
      <trkpt lat="46.26502" lon="5.86881">
        <ele>1292.6301269531</ele>
        <time>2010-09-19T11:06:05Z</time>
      </trkpt>
      <trkpt lat="46.2649" lon="5.86868">
        <ele>1292.6301269531</ele>
        <time>2010-09-19T11:06:11Z</time>
      </trkpt>
      <trkpt lat="46.26473" lon="5.86845">
        <ele>1291.6684570312</ele>
        <time>2010-09-19T11:06:17Z</time>
      </trkpt>
      <trkpt lat="46.26453" lon="5.86825">
        <ele>1291.1877441406</ele>
        <time>2010-09-19T11:06:23Z</time>
      </trkpt>
      <trkpt lat="46.26433" lon="5.86809">
        <ele>1291.6684570312</ele>
        <time>2010-09-19T11:06:29Z</time>
      </trkpt>
      <trkpt lat="46.26422" lon="5.86791">
        <ele>1291.6684570312</ele>
        <time>2010-09-19T11:06:34Z</time>
      </trkpt>
      <trkpt lat="46.26414" lon="5.86775">
        <ele>1291.6684570312</ele>
        <time>2010-09-19T11:06:38Z</time>
      </trkpt>
      <trkpt lat="46.26405" lon="5.86743">
        <ele>1292.6301269531</ele>
        <time>2010-09-19T11:06:44Z</time>
      </trkpt>
      <trkpt lat="46.26403" lon="5.86705">
        <ele>1293.5913085938</ele>
        <time>2010-09-19T11:06:51Z</time>
      </trkpt>
      <trkpt lat="46.26402" lon="5.86676">
        <ele>1293.1105957031</ele>
        <time>2010-09-19T11:06:56Z</time>
      </trkpt>
      <trkpt lat="46.26397" lon="5.86652">
        <ele>1293.5913085938</ele>
        <time>2010-09-19T11:07:01Z</time>
      </trkpt>
      <trkpt lat="46.2639" lon="5.86633">
        <ele>1295.033203125</ele>
        <time>2010-09-19T11:07:06Z</time>
      </trkpt>
      <trkpt lat="46.26381" lon="5.86617">
        <ele>1295.033203125</ele>
        <time>2010-09-19T11:07:12Z</time>
      </trkpt>
      <trkpt lat="46.26374" lon="5.86609">
        <ele>1295.9946289062</ele>
        <time>2010-09-19T11:07:15Z</time>
      </trkpt>
      <trkpt lat="46.26366" lon="5.86596">
        <ele>1297.4365234375</ele>
        <time>2010-09-19T11:07:19Z</time>
      </trkpt>
      <trkpt lat="46.26357" lon="5.8658">
        <ele>1298.3977050781</ele>
        <time>2010-09-19T11:07:25Z</time>
      </trkpt>
      <trkpt lat="46.26344" lon="5.86559">
        <ele>1299.3591308594</ele>
        <time>2010-09-19T11:07:33Z</time>
      </trkpt>
      <trkpt lat="46.26339" lon="5.8654">
        <ele>1300.3205566406</ele>
        <time>2010-09-19T11:07:39Z</time>
      </trkpt>
      <trkpt lat="46.26337" lon="5.86525">
        <ele>1301.2817382812</ele>
        <time>2010-09-19T11:07:44Z</time>
      </trkpt>
      <trkpt lat="46.2633" lon="5.86495">
        <ele>1302.7236328125</ele>
        <time>2010-09-19T11:07:52Z</time>
      </trkpt>
      <trkpt lat="46.26325" lon="5.86473">
        <ele>1304.1657714844</ele>
        <time>2010-09-19T11:07:59Z</time>
      </trkpt>
      <trkpt lat="46.26327" lon="5.86457">
        <ele>1305.126953125</ele>
        <time>2010-09-19T11:08:04Z</time>
      </trkpt>
      <trkpt lat="46.26336" lon="5.86434">
        <ele>1305.6076660156</ele>
        <time>2010-09-19T11:08:10Z</time>
      </trkpt>
      <trkpt lat="46.2634" lon="5.86416">
        <ele>1305.126953125</ele>
        <time>2010-09-19T11:08:14Z</time>
      </trkpt>
      <trkpt lat="46.26338" lon="5.86385">
        <ele>1305.6076660156</ele>
        <time>2010-09-19T11:08:19Z</time>
      </trkpt>
      <trkpt lat="46.26324" lon="5.8633">
        <ele>1304.1657714844</ele>
        <time>2010-09-19T11:08:28Z</time>
      </trkpt>
      <trkpt lat="46.26321" lon="5.86325">
        <ele>1304.1657714844</ele>
        <time>2010-09-19T11:08:31Z</time>
      </trkpt>
      <trkpt lat="46.26321" lon="5.86326">
        <ele>1304.6462402344</ele>
        <time>2010-09-19T11:08:59Z</time>
      </trkpt>
      <trkpt lat="46.26321" lon="5.86318">
        <ele>1304.6462402344</ele>
        <time>2010-09-19T11:09:20Z</time>
      </trkpt>
      <trkpt lat="46.2632" lon="5.86318">
        <ele>1305.126953125</ele>
        <time>2010-09-19T11:09:21Z</time>
      </trkpt>
      <trkpt lat="46.2631" lon="5.86307">
        <ele>1304.6462402344</ele>
        <time>2010-09-19T11:09:26Z</time>
      </trkpt>
      <trkpt lat="46.26303" lon="5.86298">
        <ele>1304.1657714844</ele>
        <time>2010-09-19T11:09:28Z</time>
      </trkpt>
      <trkpt lat="46.26296" lon="5.86288">
        <ele>1304.6462402344</ele>
        <time>2010-09-19T11:09:30Z</time>
      </trkpt>
      <trkpt lat="46.2629" lon="5.86275">
        <ele>1304.1657714844</ele>
        <time>2010-09-19T11:09:32Z</time>
      </trkpt>
      <trkpt lat="46.26286" lon="5.86261">
        <ele>1304.6462402344</ele>
        <time>2010-09-19T11:09:34Z</time>
      </trkpt>
      <trkpt lat="46.26271" lon="5.86238">
        <ele>1304.6462402344</ele>
        <time>2010-09-19T11:09:38Z</time>
      </trkpt>
      <trkpt lat="46.2625" lon="5.8622">
        <ele>1304.1657714844</ele>
        <time>2010-09-19T11:09:42Z</time>
      </trkpt>
      <trkpt lat="46.26239" lon="5.86212">
        <ele>1303.6850585938</ele>
        <time>2010-09-19T11:09:44Z</time>
      </trkpt>
      <trkpt lat="46.26225" lon="5.86187">
        <ele>1303.2043457031</ele>
        <time>2010-09-19T11:09:48Z</time>
      </trkpt>
      <trkpt lat="46.26224" lon="5.86178">
        <ele>1302.7236328125</ele>
        <time>2010-09-19T11:09:49Z</time>
      </trkpt>
      <trkpt lat="46.26222" lon="5.86159">
        <ele>1302.7236328125</ele>
        <time>2010-09-19T11:09:51Z</time>
      </trkpt>
      <trkpt lat="46.2623" lon="5.86104">
        <ele>1300.8010253906</ele>
        <time>2010-09-19T11:09:56Z</time>
      </trkpt>
      <trkpt lat="46.26244" lon="5.86067">
        <ele>1300.3205566406</ele>
        <time>2010-09-19T11:10:00Z</time>
      </trkpt>
      <trkpt lat="46.26246" lon="5.86048">
        <ele>1299.3591308594</ele>
        <time>2010-09-19T11:10:02Z</time>
      </trkpt>
      <trkpt lat="46.2625" lon="5.86018">
        <ele>1299.3591308594</ele>
        <time>2010-09-19T11:10:05Z</time>
      </trkpt>
      <trkpt lat="46.26233" lon="5.85998">
        <ele>1299.3591308594</ele>
        <time>2010-09-19T11:10:09Z</time>
      </trkpt>
      <trkpt lat="46.26214" lon="5.85996">
        <ele>1298.3977050781</ele>
        <time>2010-09-19T11:10:11Z</time>
      </trkpt>
      <trkpt lat="46.26171" lon="5.85968">
        <ele>1295.9946289062</ele>
        <time>2010-09-19T11:10:17Z</time>
      </trkpt>
      <trkpt lat="46.26163" lon="5.85948">
        <ele>1295.9946289062</ele>
        <time>2010-09-19T11:10:19Z</time>
      </trkpt>
      <trkpt lat="46.26146" lon="5.85899">
        <ele>1293.1105957031</ele>
        <time>2010-09-19T11:10:24Z</time>
      </trkpt>
      <trkpt lat="46.26128" lon="5.85836">
        <ele>1290.70703125</ele>
        <time>2010-09-19T11:10:30Z</time>
      </trkpt>
      <trkpt lat="46.26109" lon="5.85772">
        <ele>1289.2651367188</ele>
        <time>2010-09-19T11:10:36Z</time>
      </trkpt>
      <trkpt lat="46.26101" lon="5.85755">
        <ele>1287.8232421875</ele>
        <time>2010-09-19T11:10:38Z</time>
      </trkpt>
      <trkpt lat="46.26096" lon="5.85749">
        <ele>1287.8232421875</ele>
        <time>2010-09-19T11:10:39Z</time>
      </trkpt>
      <trkpt lat="46.26074" lon="5.8574">
        <ele>1286.3813476562</ele>
        <time>2010-09-19T11:10:42Z</time>
      </trkpt>
      <trkpt lat="46.26065" lon="5.8574">
        <ele>1285.9006347656</ele>
        <time>2010-09-19T11:10:43Z</time>
      </trkpt>
      <trkpt lat="46.26018" lon="5.85731">
        <ele>1283.9780273438</ele>
        <time>2010-09-19T11:10:49Z</time>
      </trkpt>
      <trkpt lat="46.25996" lon="5.85703">
        <ele>1284.939453125</ele>
        <time>2010-09-19T11:10:53Z</time>
      </trkpt>
      <trkpt lat="46.25997" lon="5.85676">
        <ele>1285.419921875</ele>
        <time>2010-09-19T11:10:57Z</time>
      </trkpt>
      <trkpt lat="46.26001" lon="5.85648">
        <ele>1286.3813476562</ele>
        <time>2010-09-19T11:11:02Z</time>
      </trkpt>
      <trkpt lat="46.25997" lon="5.8562">
        <ele>1287.3425292969</ele>
        <time>2010-09-19T11:11:08Z</time>
      </trkpt>
      <trkpt lat="46.2599" lon="5.85593">
        <ele>1288.3039550781</ele>
        <time>2010-09-19T11:11:15Z</time>
      </trkpt>
      <trkpt lat="46.25989" lon="5.8557">
        <ele>1289.2651367188</ele>
        <time>2010-09-19T11:11:21Z</time>
      </trkpt>
      <trkpt lat="46.25996" lon="5.85548">
        <ele>1290.2265625</ele>
        <time>2010-09-19T11:11:27Z</time>
      </trkpt>
      <trkpt lat="46.25988" lon="5.85521">
        <ele>1291.6684570312</ele>
        <time>2010-09-19T11:11:34Z</time>
      </trkpt>
      <trkpt lat="46.25977" lon="5.85504">
        <ele>1291.6684570312</ele>
        <time>2010-09-19T11:11:39Z</time>
      </trkpt>
      <trkpt lat="46.25962" lon="5.8549">
        <ele>1292.1494140625</ele>
        <time>2010-09-19T11:11:45Z</time>
      </trkpt>
      <trkpt lat="46.25948" lon="5.85488">
        <ele>1293.1105957031</ele>
        <time>2010-09-19T11:11:50Z</time>
      </trkpt>
      <trkpt lat="46.25925" lon="5.85488">
        <ele>1294.0720214844</ele>
        <time>2010-09-19T11:11:58Z</time>
      </trkpt>
      <trkpt lat="46.25909" lon="5.85487">
        <ele>1294.5524902344</ele>
        <time>2010-09-19T11:12:04Z</time>
      </trkpt>
      <trkpt lat="46.25891" lon="5.85484">
        <ele>1295.9946289062</ele>
        <time>2010-09-19T11:12:10Z</time>
      </trkpt>
      <trkpt lat="46.25876" lon="5.85482">
        <ele>1295.9946289062</ele>
        <time>2010-09-19T11:12:15Z</time>
      </trkpt>
      <trkpt lat="46.25864" lon="5.85474">
        <ele>1295.9946289062</ele>
        <time>2010-09-19T11:12:19Z</time>
      </trkpt>
      <trkpt lat="46.25852" lon="5.8546">
        <ele>1296.9558105469</ele>
        <time>2010-09-19T11:12:24Z</time>
      </trkpt>
      <trkpt lat="46.25842" lon="5.85442">
        <ele>1297.4365234375</ele>
        <time>2010-09-19T11:12:29Z</time>
      </trkpt>
      <trkpt lat="46.25825" lon="5.85413">
        <ele>1298.3977050781</ele>
        <time>2010-09-19T11:12:38Z</time>
      </trkpt>
      <trkpt lat="46.25808" lon="5.85393">
        <ele>1299.3591308594</ele>
        <time>2010-09-19T11:12:46Z</time>
      </trkpt>
      <trkpt lat="46.25789" lon="5.85371">
        <ele>1300.3205566406</ele>
        <time>2010-09-19T11:12:55Z</time>
      </trkpt>
      <trkpt lat="46.25772" lon="5.85356">
        <ele>1300.8010253906</ele>
        <time>2010-09-19T11:13:02Z</time>
      </trkpt>
      <trkpt lat="46.25758" lon="5.85344">
        <ele>1301.7624511719</ele>
        <time>2010-09-19T11:13:08Z</time>
      </trkpt>
      <trkpt lat="46.25746" lon="5.85333">
        <ele>1302.2429199219</ele>
        <time>2010-09-19T11:13:14Z</time>
      </trkpt>
      <trkpt lat="46.25732" lon="5.85322">
        <ele>1303.6850585938</ele>
        <time>2010-09-19T11:13:20Z</time>
      </trkpt>
      <trkpt lat="46.25728" lon="5.85317">
        <ele>1303.2043457031</ele>
        <time>2010-09-19T11:13:22Z</time>
      </trkpt>
      <trkpt lat="46.25719" lon="5.85297">
        <ele>1304.6462402344</ele>
        <time>2010-09-19T11:13:28Z</time>
      </trkpt>
      <trkpt lat="46.25711" lon="5.8528">
        <ele>1305.126953125</ele>
        <time>2010-09-19T11:13:33Z</time>
      </trkpt>
      <trkpt lat="46.25702" lon="5.85263">
        <ele>1305.126953125</ele>
        <time>2010-09-19T11:13:38Z</time>
      </trkpt>
      <trkpt lat="46.25692" lon="5.85243">
        <ele>1305.6076660156</ele>
        <time>2010-09-19T11:13:43Z</time>
      </trkpt>
      <trkpt lat="46.25677" lon="5.85218">
        <ele>1306.5688476562</ele>
        <time>2010-09-19T11:13:50Z</time>
      </trkpt>
      <trkpt lat="46.25661" lon="5.85203">
        <ele>1307.5302734375</ele>
        <time>2010-09-19T11:13:56Z</time>
      </trkpt>
      <trkpt lat="46.25639" lon="5.85191">
        <ele>1308.0112304688</ele>
        <time>2010-09-19T11:14:03Z</time>
      </trkpt>
      <trkpt lat="46.25623" lon="5.85181">
        <ele>1308.4916992188</ele>
        <time>2010-09-19T11:14:09Z</time>
      </trkpt>
      <trkpt lat="46.25602" lon="5.85163">
        <ele>1309.93359375</ele>
        <time>2010-09-19T11:14:17Z</time>
      </trkpt>
      <trkpt lat="46.25586" lon="5.85145">
        <ele>1309.93359375</ele>
        <time>2010-09-19T11:14:24Z</time>
      </trkpt>
      <trkpt lat="46.25563" lon="5.85123">
        <ele>1311.3757324219</ele>
        <time>2010-09-19T11:14:32Z</time>
      </trkpt>
      <trkpt lat="46.25546" lon="5.85112">
        <ele>1311.8564453125</ele>
        <time>2010-09-19T11:14:38Z</time>
      </trkpt>
      <trkpt lat="46.25531" lon="5.85107">
        <ele>1312.8176269531</ele>
        <time>2010-09-19T11:14:43Z</time>
      </trkpt>
      <trkpt lat="46.25515" lon="5.85103">
        <ele>1312.8176269531</ele>
        <time>2010-09-19T11:14:48Z</time>
      </trkpt>
      <trkpt lat="46.25495" lon="5.85097">
        <ele>1313.7788085938</ele>
        <time>2010-09-19T11:14:54Z</time>
      </trkpt>
      <trkpt lat="46.25473" lon="5.85089">
        <ele>1314.2595214844</ele>
        <time>2010-09-19T11:15:01Z</time>
      </trkpt>
      <trkpt lat="46.25449" lon="5.85077">
        <ele>1314.2595214844</ele>
        <time>2010-09-19T11:15:09Z</time>
      </trkpt>
      <trkpt lat="46.25428" lon="5.85069">
        <ele>1315.2209472656</ele>
        <time>2010-09-19T11:15:17Z</time>
      </trkpt>
      <trkpt lat="46.25412" lon="5.85062">
        <ele>1316.6628417969</ele>
        <time>2010-09-19T11:15:24Z</time>
      </trkpt>
      <trkpt lat="46.25399" lon="5.85054">
        <ele>1317.1435546875</ele>
        <time>2010-09-19T11:15:31Z</time>
      </trkpt>
      <trkpt lat="46.25396" lon="5.85056">
        <ele>1317.1435546875</ele>
        <time>2010-09-19T11:15:36Z</time>
      </trkpt>
      <trkpt lat="46.25404" lon="5.85058">
        <ele>1317.1435546875</ele>
        <time>2010-09-19T11:16:12Z</time>
      </trkpt>
      <trkpt lat="46.25394" lon="5.85061">
        <ele>1318.5854492188</ele>
        <time>2010-09-19T11:16:30Z</time>
      </trkpt>
      <trkpt lat="46.25396" lon="5.85062">
        <ele>1317.6240234375</ele>
        <time>2010-09-19T11:16:39Z</time>
      </trkpt>
      <trkpt lat="46.25393" lon="5.85053">
        <ele>1318.1047363281</ele>
        <time>2010-09-19T11:16:44Z</time>
      </trkpt>
      <trkpt lat="46.25375" lon="5.85035">
        <ele>1318.5854492188</ele>
        <time>2010-09-19T11:16:50Z</time>
      </trkpt>
      <trkpt lat="46.25356" lon="5.85011">
        <ele>1317.6240234375</ele>
        <time>2010-09-19T11:16:56Z</time>
      </trkpt>
      <trkpt lat="46.25348" lon="5.85004">
        <ele>1317.1435546875</ele>
        <time>2010-09-19T11:16:58Z</time>
      </trkpt>
      <trkpt lat="46.25322" lon="5.84968">
        <ele>1313.7788085938</ele>
        <time>2010-09-19T11:17:05Z</time>
      </trkpt>
      <trkpt lat="46.25318" lon="5.84962">
        <ele>1313.2983398438</ele>
        <time>2010-09-19T11:17:06Z</time>
      </trkpt>
      <trkpt lat="46.25314" lon="5.84956">
        <ele>1312.8176269531</ele>
        <time>2010-09-19T11:17:07Z</time>
      </trkpt>
      <trkpt lat="46.25301" lon="5.84936">
        <ele>1311.8564453125</ele>
        <time>2010-09-19T11:17:10Z</time>
      </trkpt>
      <trkpt lat="46.25277" lon="5.84908">
        <ele>1308.4916992188</ele>
        <time>2010-09-19T11:17:15Z</time>
      </trkpt>
      <trkpt lat="46.25238" lon="5.84853">
        <ele>1304.6462402344</ele>
        <time>2010-09-19T11:17:22Z</time>
      </trkpt>
      <trkpt lat="46.25199" lon="5.848">
        <ele>1302.2429199219</ele>
        <time>2010-09-19T11:17:29Z</time>
      </trkpt>
      <trkpt lat="46.25168" lon="5.84759">
        <ele>1300.3205566406</ele>
        <time>2010-09-19T11:17:35Z</time>
      </trkpt>
      <trkpt lat="46.25158" lon="5.84716">
        <ele>1300.3205566406</ele>
        <time>2010-09-19T11:17:40Z</time>
      </trkpt>
      <trkpt lat="46.25163" lon="5.84688">
        <ele>1298.8784179688</ele>
        <time>2010-09-19T11:17:43Z</time>
      </trkpt>
      <trkpt lat="46.25169" lon="5.84648">
        <ele>1296.4753417969</ele>
        <time>2010-09-19T11:17:47Z</time>
      </trkpt>
      <trkpt lat="46.25177" lon="5.84593">
        <ele>1295.033203125</ele>
        <time>2010-09-19T11:17:52Z</time>
      </trkpt>
      <trkpt lat="46.25164" lon="5.84555">
        <ele>1294.0720214844</ele>
        <time>2010-09-19T11:17:56Z</time>
      </trkpt>
      <trkpt lat="46.2516" lon="5.84548">
        <ele>1293.5913085938</ele>
        <time>2010-09-19T11:17:57Z</time>
      </trkpt>
      <trkpt lat="46.25148" lon="5.84525">
        <ele>1292.6301269531</ele>
        <time>2010-09-19T11:18:00Z</time>
      </trkpt>
      <trkpt lat="46.25128" lon="5.84495">
        <ele>1291.1877441406</ele>
        <time>2010-09-19T11:18:05Z</time>
      </trkpt>
      <trkpt lat="46.25123" lon="5.8449">
        <ele>1291.1877441406</ele>
        <time>2010-09-19T11:18:06Z</time>
      </trkpt>
      <trkpt lat="46.25099" lon="5.84471">
        <ele>1289.7458496094</ele>
        <time>2010-09-19T11:18:10Z</time>
      </trkpt>
      <trkpt lat="46.25068" lon="5.84445">
        <ele>1287.8232421875</ele>
        <time>2010-09-19T11:18:15Z</time>
      </trkpt>
      <trkpt lat="46.25026" lon="5.84411">
        <ele>1285.419921875</ele>
        <time>2010-09-19T11:18:21Z</time>
      </trkpt>
      <trkpt lat="46.24993" lon="5.84368">
        <ele>1282.5361328125</ele>
        <time>2010-09-19T11:18:26Z</time>
      </trkpt>
      <trkpt lat="46.24973" lon="5.84326">
        <ele>1281.5747070312</ele>
        <time>2010-09-19T11:18:31Z</time>
      </trkpt>
      <trkpt lat="46.24967" lon="5.84317">
        <ele>1281.0942382812</ele>
        <time>2010-09-19T11:18:32Z</time>
      </trkpt>
      <trkpt lat="46.24934" lon="5.84284">
        <ele>1279.6520996094</ele>
        <time>2010-09-19T11:18:37Z</time>
      </trkpt>
      <trkpt lat="46.2492" lon="5.84261">
        <ele>1278.2102050781</ele>
        <time>2010-09-19T11:18:40Z</time>
      </trkpt>
      <trkpt lat="46.24915" lon="5.84233">
        <ele>1277.2490234375</ele>
        <time>2010-09-19T11:18:43Z</time>
      </trkpt>
      <trkpt lat="46.24899" lon="5.84203">
        <ele>1275.806640625</ele>
        <time>2010-09-19T11:18:47Z</time>
      </trkpt>
      <trkpt lat="46.24893" lon="5.84197">
        <ele>1274.8454589844</ele>
        <time>2010-09-19T11:18:48Z</time>
      </trkpt>
      <trkpt lat="46.24857" lon="5.84158">
        <ele>1270.0388183594</ele>
        <time>2010-09-19T11:18:53Z</time>
      </trkpt>
      <trkpt lat="46.24837" lon="5.8413">
        <ele>1267.1550292969</ele>
        <time>2010-09-19T11:18:56Z</time>
      </trkpt>
      <trkpt lat="46.24815" lon="5.84103">
        <ele>1264.7517089844</ele>
        <time>2010-09-19T11:18:59Z</time>
      </trkpt>
      <trkpt lat="46.24807" lon="5.84096">
        <ele>1263.7902832031</ele>
        <time>2010-09-19T11:19:00Z</time>
      </trkpt>
      <trkpt lat="46.24783" lon="5.84085">
        <ele>1261.3872070312</ele>
        <time>2010-09-19T11:19:03Z</time>
      </trkpt>
      <trkpt lat="46.24775" lon="5.84081">
        <ele>1259.9448242188</ele>
        <time>2010-09-19T11:19:04Z</time>
      </trkpt>
      <trkpt lat="46.24757" lon="5.84057">
        <ele>1258.0224609375</ele>
        <time>2010-09-19T11:19:07Z</time>
      </trkpt>
      <trkpt lat="46.24743" lon="5.84025">
        <ele>1255.619140625</ele>
        <time>2010-09-19T11:19:10Z</time>
      </trkpt>
      <trkpt lat="46.24727" lon="5.84001">
        <ele>1251.7739257812</ele>
        <time>2010-09-19T11:19:13Z</time>
      </trkpt>
      <trkpt lat="46.24722" lon="5.83994">
        <ele>1251.7739257812</ele>
        <time>2010-09-19T11:19:14Z</time>
      </trkpt>
      <trkpt lat="46.24695" lon="5.83967">
        <ele>1247.4479980469</ele>
        <time>2010-09-19T11:19:19Z</time>
      </trkpt>
      <trkpt lat="46.24668" lon="5.83964">
        <ele>1246.0061035156</ele>
        <time>2010-09-19T11:19:23Z</time>
      </trkpt>
      <trkpt lat="46.24661" lon="5.83964">
        <ele>1245.0446777344</ele>
        <time>2010-09-19T11:19:24Z</time>
      </trkpt>
      <trkpt lat="46.24646" lon="5.83962">
        <ele>1243.6025390625</ele>
        <time>2010-09-19T11:19:26Z</time>
      </trkpt>
      <trkpt lat="46.2463" lon="5.83955">
        <ele>1242.1606445312</ele>
        <time>2010-09-19T11:19:28Z</time>
      </trkpt>
      <trkpt lat="46.24614" lon="5.83944">
        <ele>1241.19921875</ele>
        <time>2010-09-19T11:19:30Z</time>
      </trkpt>
      <trkpt lat="46.24578" lon="5.83906">
        <ele>1236.3928222656</ele>
        <time>2010-09-19T11:19:35Z</time>
      </trkpt>
      <trkpt lat="46.24554" lon="5.83893">
        <ele>1233.5087890625</ele>
        <time>2010-09-19T11:19:38Z</time>
      </trkpt>
      <trkpt lat="46.2453" lon="5.83881">
        <ele>1231.5861816406</ele>
        <time>2010-09-19T11:19:41Z</time>
      </trkpt>
      <trkpt lat="46.24494" lon="5.83872">
        <ele>1227.2602539062</ele>
        <time>2010-09-19T11:19:45Z</time>
      </trkpt>
      <trkpt lat="46.24458" lon="5.83862">
        <ele>1223.8955078125</ele>
        <time>2010-09-19T11:19:49Z</time>
      </trkpt>
      <trkpt lat="46.24426" lon="5.83827">
        <ele>1220.0502929688</ele>
        <time>2010-09-19T11:19:53Z</time>
      </trkpt>
      <trkpt lat="46.24396" lon="5.83799">
        <ele>1217.6469726562</ele>
        <time>2010-09-19T11:19:57Z</time>
      </trkpt>
      <trkpt lat="46.24389" lon="5.83796">
        <ele>1217.1665039062</ele>
        <time>2010-09-19T11:19:58Z</time>
      </trkpt>
      <trkpt lat="46.24346" lon="5.83792">
        <ele>1211.8791503906</ele>
        <time>2010-09-19T11:20:03Z</time>
      </trkpt>
      <trkpt lat="46.24321" lon="5.83812">
        <ele>1207.5532226562</ele>
        <time>2010-09-19T11:20:07Z</time>
      </trkpt>
      <trkpt lat="46.24293" lon="5.8382">
        <ele>1204.1887207031</ele>
        <time>2010-09-19T11:20:11Z</time>
      </trkpt>
      <trkpt lat="46.24287" lon="5.83814">
        <ele>1204.1887207031</ele>
        <time>2010-09-19T11:20:12Z</time>
      </trkpt>
      <trkpt lat="46.24274" lon="5.83788">
        <ele>1203.2272949219</ele>
        <time>2010-09-19T11:20:15Z</time>
      </trkpt>
      <trkpt lat="46.24271" lon="5.83767">
        <ele>1202.2658691406</ele>
        <time>2010-09-19T11:20:17Z</time>
      </trkpt>
      <trkpt lat="46.2426" lon="5.83722">
        <ele>1198.4206542969</ele>
        <time>2010-09-19T11:20:21Z</time>
      </trkpt>
      <trkpt lat="46.24252" lon="5.83702">
        <ele>1197.4594726562</ele>
        <time>2010-09-19T11:20:23Z</time>
      </trkpt>
      <trkpt lat="46.24239" lon="5.83675">
        <ele>1193.6140136719</ele>
        <time>2010-09-19T11:20:26Z</time>
      </trkpt>
      <trkpt lat="46.24216" lon="5.83645">
        <ele>1190.7299804688</ele>
        <time>2010-09-19T11:20:30Z</time>
      </trkpt>
      <trkpt lat="46.24211" lon="5.83637">
        <ele>1190.2495117188</ele>
        <time>2010-09-19T11:20:31Z</time>
      </trkpt>
      <trkpt lat="46.24199" lon="5.83606">
        <ele>1187.8461914062</ele>
        <time>2010-09-19T11:20:34Z</time>
      </trkpt>
      <trkpt lat="46.24178" lon="5.83561">
        <ele>1184.0009765625</ele>
        <time>2010-09-19T11:20:39Z</time>
      </trkpt>
      <trkpt lat="46.24168" lon="5.83542">
        <ele>1182.0783691406</ele>
        <time>2010-09-19T11:20:41Z</time>
      </trkpt>
      <trkpt lat="46.24155" lon="5.83509">
        <ele>1179.6748046875</ele>
        <time>2010-09-19T11:20:44Z</time>
      </trkpt>
      <trkpt lat="46.2413" lon="5.83491">
        <ele>1176.791015625</ele>
        <time>2010-09-19T11:20:48Z</time>
      </trkpt>
      <trkpt lat="46.24122" lon="5.83491">
        <ele>1175.8295898438</ele>
        <time>2010-09-19T11:20:49Z</time>
      </trkpt>
      <trkpt lat="46.24104" lon="5.83491">
        <ele>1174.3876953125</ele>
        <time>2010-09-19T11:20:51Z</time>
      </trkpt>
      <trkpt lat="46.24076" lon="5.83479">
        <ele>1171.5036621094</ele>
        <time>2010-09-19T11:20:54Z</time>
      </trkpt>
      <trkpt lat="46.24049" lon="5.83465">
        <ele>1168.1391601562</ele>
        <time>2010-09-19T11:20:57Z</time>
      </trkpt>
      <trkpt lat="46.2401" lon="5.83454">
        <ele>1166.2165527344</ele>
        <time>2010-09-19T11:21:01Z</time>
      </trkpt>
      <trkpt lat="46.23977" lon="5.83448">
        <ele>1166.697265625</ele>
        <time>2010-09-19T11:21:05Z</time>
      </trkpt>
      <trkpt lat="46.23956" lon="5.8344">
        <ele>1167.6584472656</ele>
        <time>2010-09-19T11:21:08Z</time>
      </trkpt>
      <trkpt lat="46.23944" lon="5.83432">
        <ele>1167.1779785156</ele>
        <time>2010-09-19T11:21:10Z</time>
      </trkpt>
      <trkpt lat="46.23932" lon="5.83406">
        <ele>1168.1391601562</ele>
        <time>2010-09-19T11:21:14Z</time>
      </trkpt>
      <trkpt lat="46.23938" lon="5.83383">
        <ele>1168.1391601562</ele>
        <time>2010-09-19T11:21:17Z</time>
      </trkpt>
      <trkpt lat="46.23941" lon="5.83377">
        <ele>1168.1391601562</ele>
        <time>2010-09-19T11:21:18Z</time>
      </trkpt>
      <trkpt lat="46.23971" lon="5.83346">
        <ele>1169.1005859375</ele>
        <time>2010-09-19T11:21:25Z</time>
      </trkpt>
      <trkpt lat="46.23986" lon="5.8333">
        <ele>1169.5812988281</ele>
        <time>2010-09-19T11:21:29Z</time>
      </trkpt>
      <trkpt lat="46.23994" lon="5.83316">
        <ele>1170.5424804688</ele>
        <time>2010-09-19T11:21:32Z</time>
      </trkpt>
      <trkpt lat="46.23996" lon="5.83287">
        <ele>1170.5424804688</ele>
        <time>2010-09-19T11:21:37Z</time>
      </trkpt>
      <trkpt lat="46.23981" lon="5.83266">
        <ele>1171.0231933594</ele>
        <time>2010-09-19T11:21:42Z</time>
      </trkpt>
      <trkpt lat="46.23963" lon="5.83252">
        <ele>1170.5424804688</ele>
        <time>2010-09-19T11:21:46Z</time>
      </trkpt>
      <trkpt lat="46.23951" lon="5.83234">
        <ele>1169.5812988281</ele>
        <time>2010-09-19T11:21:49Z</time>
      </trkpt>
      <trkpt lat="46.23931" lon="5.83193">
        <ele>1168.1391601562</ele>
        <time>2010-09-19T11:21:54Z</time>
      </trkpt>
      <trkpt lat="46.23927" lon="5.83184">
        <ele>1167.1779785156</ele>
        <time>2010-09-19T11:21:55Z</time>
      </trkpt>
      <trkpt lat="46.2392" lon="5.83165">
        <ele>1166.697265625</ele>
        <time>2010-09-19T11:21:57Z</time>
      </trkpt>
      <trkpt lat="46.23917" lon="5.83117">
        <ele>1165.2553710938</ele>
        <time>2010-09-19T11:22:02Z</time>
      </trkpt>
      <trkpt lat="46.23921" lon="5.83088">
        <ele>1164.2939453125</ele>
        <time>2010-09-19T11:22:05Z</time>
      </trkpt>
      <trkpt lat="46.23922" lon="5.83078">
        <ele>1163.8129882812</ele>
        <time>2010-09-19T11:22:06Z</time>
      </trkpt>
      <trkpt lat="46.23918" lon="5.83046">
        <ele>1161.890625</ele>
        <time>2010-09-19T11:22:09Z</time>
      </trkpt>
      <trkpt lat="46.23898" lon="5.83016">
        <ele>1160.4484863281</ele>
        <time>2010-09-19T11:22:13Z</time>
      </trkpt>
      <trkpt lat="46.23868" lon="5.82958">
        <ele>1158.0454101562</ele>
        <time>2010-09-19T11:22:19Z</time>
      </trkpt>
      <trkpt lat="46.23862" lon="5.8295">
        <ele>1157.083984375</ele>
        <time>2010-09-19T11:22:20Z</time>
      </trkpt>
      <trkpt lat="46.23848" lon="5.82921">
        <ele>1156.1225585938</ele>
        <time>2010-09-19T11:22:23Z</time>
      </trkpt>
      <trkpt lat="46.23843" lon="5.82902">
        <ele>1154.6806640625</ele>
        <time>2010-09-19T11:22:25Z</time>
      </trkpt>
      <trkpt lat="46.23835" lon="5.82871">
        <ele>1153.7194824219</ele>
        <time>2010-09-19T11:22:28Z</time>
      </trkpt>
      <trkpt lat="46.23829" lon="5.82834">
        <ele>1152.7580566406</ele>
        <time>2010-09-19T11:22:31Z</time>
      </trkpt>
      <trkpt lat="46.23825" lon="5.82774">
        <ele>1151.3161621094</ele>
        <time>2010-09-19T11:22:36Z</time>
      </trkpt>
      <trkpt lat="46.23822" lon="5.82731">
        <ele>1149.8742675781</ele>
        <time>2010-09-19T11:22:40Z</time>
      </trkpt>
      <trkpt lat="46.23796" lon="5.82706">
        <ele>1148.4321289062</ele>
        <time>2010-09-19T11:22:44Z</time>
      </trkpt>
      <trkpt lat="46.23783" lon="5.82689">
        <ele>1146.9899902344</ele>
        <time>2010-09-19T11:22:46Z</time>
      </trkpt>
      <trkpt lat="46.23773" lon="5.8267">
        <ele>1146.5095214844</ele>
        <time>2010-09-19T11:22:48Z</time>
      </trkpt>
      <trkpt lat="46.23767" lon="5.82647">
        <ele>1145.5480957031</ele>
        <time>2010-09-19T11:22:50Z</time>
      </trkpt>
      <trkpt lat="46.2377" lon="5.82611">
        <ele>1145.0673828125</ele>
        <time>2010-09-19T11:22:53Z</time>
      </trkpt>
      <trkpt lat="46.2377" lon="5.82575">
        <ele>1143.6254882812</ele>
        <time>2010-09-19T11:22:56Z</time>
      </trkpt>
      <trkpt lat="46.23758" lon="5.82533">
        <ele>1142.18359375</ele>
        <time>2010-09-19T11:23:00Z</time>
      </trkpt>
      <trkpt lat="46.23741" lon="5.825">
        <ele>1143.1447753906</ele>
        <time>2010-09-19T11:23:05Z</time>
      </trkpt>
      <trkpt lat="46.23735" lon="5.82494">
        <ele>1144.1062011719</ele>
        <time>2010-09-19T11:23:07Z</time>
      </trkpt>
      <trkpt lat="46.23721" lon="5.82476">
        <ele>1145.5480957031</ele>
        <time>2010-09-19T11:23:13Z</time>
      </trkpt>
      <trkpt lat="46.23709" lon="5.82461">
        <ele>1146.5095214844</ele>
        <time>2010-09-19T11:23:18Z</time>
      </trkpt>
      <trkpt lat="46.23693" lon="5.82438">
        <ele>1147.9514160156</ele>
        <time>2010-09-19T11:23:25Z</time>
      </trkpt>
      <trkpt lat="46.23682" lon="5.82418">
        <ele>1148.9128417969</ele>
        <time>2010-09-19T11:23:30Z</time>
      </trkpt>
      <trkpt lat="46.23668" lon="5.82382">
        <ele>1150.3549804688</ele>
        <time>2010-09-19T11:23:38Z</time>
      </trkpt>
      <trkpt lat="46.23662" lon="5.82353">
        <ele>1151.3161621094</ele>
        <time>2010-09-19T11:23:45Z</time>
      </trkpt>
      <trkpt lat="46.23664" lon="5.82328">
        <ele>1153.2387695312</ele>
        <time>2010-09-19T11:23:52Z</time>
      </trkpt>
      <trkpt lat="46.23668" lon="5.82303">
        <ele>1154.6806640625</ele>
        <time>2010-09-19T11:23:59Z</time>
      </trkpt>
      <trkpt lat="46.23668" lon="5.8229">
        <ele>1156.1225585938</ele>
        <time>2010-09-19T11:24:03Z</time>
      </trkpt>
      <trkpt lat="46.2367" lon="5.82259">
        <ele>1157.083984375</ele>
        <time>2010-09-19T11:24:11Z</time>
      </trkpt>
      <trkpt lat="46.23672" lon="5.82236">
        <ele>1157.083984375</ele>
        <time>2010-09-19T11:24:17Z</time>
      </trkpt>
      <trkpt lat="46.23673" lon="5.82217">
        <ele>1158.0454101562</ele>
        <time>2010-09-19T11:24:22Z</time>
      </trkpt>
      <trkpt lat="46.23676" lon="5.82195">
        <ele>1158.5258789062</ele>
        <time>2010-09-19T11:24:28Z</time>
      </trkpt>
      <trkpt lat="46.23677" lon="5.82174">
        <ele>1159.4873046875</ele>
        <time>2010-09-19T11:24:34Z</time>
      </trkpt>
      <trkpt lat="46.23672" lon="5.82151">
        <ele>1160.4484863281</ele>
        <time>2010-09-19T11:24:40Z</time>
      </trkpt>
      <trkpt lat="46.23661" lon="5.82129">
        <ele>1160.9291992188</ele>
        <time>2010-09-19T11:24:46Z</time>
      </trkpt>
      <trkpt lat="46.23642" lon="5.82107">
        <ele>1161.890625</ele>
        <time>2010-09-19T11:24:53Z</time>
      </trkpt>
      <trkpt lat="46.23626" lon="5.82079">
        <ele>1161.890625</ele>
        <time>2010-09-19T11:25:00Z</time>
      </trkpt>
      <trkpt lat="46.23623" lon="5.82048">
        <ele>1162.37109375</ele>
        <time>2010-09-19T11:25:06Z</time>
      </trkpt>
      <trkpt lat="46.23623" lon="5.82012">
        <ele>1163.3325195312</ele>
        <time>2010-09-19T11:25:13Z</time>
      </trkpt>
      <trkpt lat="46.23625" lon="5.81987">
        <ele>1163.3325195312</ele>
        <time>2010-09-19T11:25:18Z</time>
      </trkpt>
      <trkpt lat="46.23626" lon="5.81951">
        <ele>1163.8129882812</ele>
        <time>2010-09-19T11:25:25Z</time>
      </trkpt>
      <trkpt lat="46.23626" lon="5.81919">
        <ele>1164.7746582031</ele>
        <time>2010-09-19T11:25:31Z</time>
      </trkpt>
      <trkpt lat="46.23621" lon="5.81889">
        <ele>1165.7360839844</ele>
        <time>2010-09-19T11:25:37Z</time>
      </trkpt>
      <trkpt lat="46.23611" lon="5.81867">
        <ele>1166.2165527344</ele>
        <time>2010-09-19T11:25:42Z</time>
      </trkpt>
      <trkpt lat="46.23597" lon="5.81839">
        <ele>1166.697265625</ele>
        <time>2010-09-19T11:25:48Z</time>
      </trkpt>
      <trkpt lat="46.23595" lon="5.81834">
        <ele>1166.697265625</ele>
        <time>2010-09-19T11:25:49Z</time>
      </trkpt>
      <trkpt lat="46.23592" lon="5.81814">
        <ele>1165.2553710938</ele>
        <time>2010-09-19T11:25:52Z</time>
      </trkpt>
      <trkpt lat="46.23592" lon="5.81806">
        <ele>1165.2553710938</ele>
        <time>2010-09-19T11:25:53Z</time>
      </trkpt>
      <trkpt lat="46.23582" lon="5.81777">
        <ele>1164.7746582031</ele>
        <time>2010-09-19T11:25:57Z</time>
      </trkpt>
      <trkpt lat="46.23572" lon="5.81755">
        <ele>1163.3325195312</ele>
        <time>2010-09-19T11:26:00Z</time>
      </trkpt>
      <trkpt lat="46.23558" lon="5.81721">
        <ele>1161.890625</ele>
        <time>2010-09-19T11:26:04Z</time>
      </trkpt>
      <trkpt lat="46.23533" lon="5.8169">
        <ele>1160.4484863281</ele>
        <time>2010-09-19T11:26:09Z</time>
      </trkpt>
      <trkpt lat="46.23513" lon="5.81673">
        <ele>1159.4873046875</ele>
        <time>2010-09-19T11:26:12Z</time>
      </trkpt>
      <trkpt lat="46.23487" lon="5.81625">
        <ele>1157.5646972656</ele>
        <time>2010-09-19T11:26:17Z</time>
      </trkpt>
      <trkpt lat="46.23464" lon="5.81551">
        <ele>1154.6806640625</ele>
        <time>2010-09-19T11:26:24Z</time>
      </trkpt>
      <trkpt lat="46.23456" lon="5.81531">
        <ele>1153.2387695312</ele>
        <time>2010-09-19T11:26:26Z</time>
      </trkpt>
      <trkpt lat="46.23452" lon="5.81522">
        <ele>1153.2387695312</ele>
        <time>2010-09-19T11:26:27Z</time>
      </trkpt>
      <trkpt lat="46.23441" lon="5.8147">
        <ele>1154.2001953125</ele>
        <time>2010-09-19T11:26:32Z</time>
      </trkpt>
      <trkpt lat="46.2344" lon="5.81441">
        <ele>1154.6806640625</ele>
        <time>2010-09-19T11:26:35Z</time>
      </trkpt>
      <trkpt lat="46.23436" lon="5.8139">
        <ele>1155.6420898438</ele>
        <time>2010-09-19T11:26:41Z</time>
      </trkpt>
      <trkpt lat="46.23431" lon="5.81367">
        <ele>1157.083984375</ele>
        <time>2010-09-19T11:26:44Z</time>
      </trkpt>
      <trkpt lat="46.23427" lon="5.81354">
        <ele>1157.083984375</ele>
        <time>2010-09-19T11:26:46Z</time>
      </trkpt>
      <trkpt lat="46.23415" lon="5.81329">
        <ele>1158.0454101562</ele>
        <time>2010-09-19T11:26:50Z</time>
      </trkpt>
      <trkpt lat="46.234" lon="5.8131">
        <ele>1159.0065917969</ele>
        <time>2010-09-19T11:26:54Z</time>
      </trkpt>
      <trkpt lat="46.23387" lon="5.8129">
        <ele>1159.9677734375</ele>
        <time>2010-09-19T11:26:58Z</time>
      </trkpt>
      <trkpt lat="46.23371" lon="5.81273">
        <ele>1159.9677734375</ele>
        <time>2010-09-19T11:27:02Z</time>
      </trkpt>
      <trkpt lat="46.23363" lon="5.81266">
        <ele>1160.4484863281</ele>
        <time>2010-09-19T11:27:04Z</time>
      </trkpt>
      <trkpt lat="46.23347" lon="5.81255">
        <ele>1160.4484863281</ele>
        <time>2010-09-19T11:27:08Z</time>
      </trkpt>
      <trkpt lat="46.23325" lon="5.81244">
        <ele>1161.890625</ele>
        <time>2010-09-19T11:27:13Z</time>
      </trkpt>
      <trkpt lat="46.23316" lon="5.81237">
        <ele>1161.890625</ele>
        <time>2010-09-19T11:27:15Z</time>
      </trkpt>
      <trkpt lat="46.23306" lon="5.81221">
        <ele>1162.37109375</ele>
        <time>2010-09-19T11:27:18Z</time>
      </trkpt>
      <trkpt lat="46.23295" lon="5.81193">
        <ele>1162.8518066406</ele>
        <time>2010-09-19T11:27:23Z</time>
      </trkpt>
      <trkpt lat="46.23291" lon="5.81166">
        <ele>1163.3325195312</ele>
        <time>2010-09-19T11:27:27Z</time>
      </trkpt>
      <trkpt lat="46.23285" lon="5.81121">
        <ele>1164.2939453125</ele>
        <time>2010-09-19T11:27:34Z</time>
      </trkpt>
      <trkpt lat="46.23281" lon="5.81111">
        <ele>1164.7746582031</ele>
        <time>2010-09-19T11:27:36Z</time>
      </trkpt>
      <trkpt lat="46.23276" lon="5.81101">
        <ele>1164.7746582031</ele>
        <time>2010-09-19T11:27:38Z</time>
      </trkpt>
      <trkpt lat="46.23264" lon="5.81083">
        <ele>1165.2553710938</ele>
        <time>2010-09-19T11:27:42Z</time>
      </trkpt>
      <trkpt lat="46.23253" lon="5.81045">
        <ele>1166.2165527344</ele>
        <time>2010-09-19T11:27:48Z</time>
      </trkpt>
      <trkpt lat="46.23255" lon="5.8102">
        <ele>1166.2165527344</ele>
        <time>2010-09-19T11:27:52Z</time>
      </trkpt>
      <trkpt lat="46.23266" lon="5.80993">
        <ele>1167.6584472656</ele>
        <time>2010-09-19T11:27:58Z</time>
      </trkpt>
      <trkpt lat="46.23284" lon="5.80985">
        <ele>1168.1391601562</ele>
        <time>2010-09-19T11:28:03Z</time>
      </trkpt>
      <trkpt lat="46.23301" lon="5.80972">
        <ele>1167.6584472656</ele>
        <time>2010-09-19T11:28:08Z</time>
      </trkpt>
      <trkpt lat="46.2331" lon="5.80951">
        <ele>1169.1005859375</ele>
        <time>2010-09-19T11:28:13Z</time>
      </trkpt>
      <trkpt lat="46.2331" lon="5.8093">
        <ele>1170.5424804688</ele>
        <time>2010-09-19T11:28:18Z</time>
      </trkpt>
      <trkpt lat="46.23303" lon="5.80913">
        <ele>1171.984375</ele>
        <time>2010-09-19T11:28:23Z</time>
      </trkpt>
      <trkpt lat="46.23288" lon="5.80894">
        <ele>1172.9458007812</ele>
        <time>2010-09-19T11:28:30Z</time>
      </trkpt>
      <trkpt lat="46.2328" lon="5.80878">
        <ele>1172.9458007812</ele>
        <time>2010-09-19T11:28:35Z</time>
      </trkpt>
      <trkpt lat="46.23277" lon="5.80864">
        <ele>1173.9069824219</ele>
        <time>2010-09-19T11:28:39Z</time>
      </trkpt>
      <trkpt lat="46.23279" lon="5.80845">
        <ele>1176.3103027344</ele>
        <time>2010-09-19T11:28:45Z</time>
      </trkpt>
      <trkpt lat="46.23283" lon="5.80828">
        <ele>1176.791015625</ele>
        <time>2010-09-19T11:28:50Z</time>
      </trkpt>
      <trkpt lat="46.23283" lon="5.80812">
        <ele>1177.7521972656</ele>
        <time>2010-09-19T11:28:55Z</time>
      </trkpt>
      <trkpt lat="46.23283" lon="5.80788">
        <ele>1178.2329101562</ele>
        <time>2010-09-19T11:29:01Z</time>
      </trkpt>
      <trkpt lat="46.2329" lon="5.80767">
        <ele>1179.6748046875</ele>
        <time>2010-09-19T11:29:07Z</time>
      </trkpt>
      <trkpt lat="46.23296" lon="5.80753">
        <ele>1180.1557617188</ele>
        <time>2010-09-19T11:29:12Z</time>
      </trkpt>
      <trkpt lat="46.23305" lon="5.80736">
        <ele>1181.1171875</ele>
        <time>2010-09-19T11:29:18Z</time>
      </trkpt>
      <trkpt lat="46.23315" lon="5.80716">
        <ele>1182.0783691406</ele>
        <time>2010-09-19T11:29:24Z</time>
      </trkpt>
      <trkpt lat="46.23323" lon="5.80703">
        <ele>1183.0395507812</ele>
        <time>2010-09-19T11:29:29Z</time>
      </trkpt>
      <trkpt lat="46.23333" lon="5.80687">
        <ele>1184.0009765625</ele>
        <time>2010-09-19T11:29:35Z</time>
      </trkpt>
      <trkpt lat="46.23341" lon="5.80693">
        <ele>1184.0009765625</ele>
        <time>2010-09-19T11:29:39Z</time>
      </trkpt>
      <trkpt lat="46.23348" lon="5.80711">
        <ele>1184.9624023438</ele>
        <time>2010-09-19T11:29:44Z</time>
      </trkpt>
      <trkpt lat="46.2335" lon="5.80715">
        <ele>1184.4816894531</ele>
        <time>2010-09-19T11:29:45Z</time>
      </trkpt>
      <trkpt lat="46.23368" lon="5.80735">
        <ele>1183.5202636719</ele>
        <time>2010-09-19T11:29:51Z</time>
      </trkpt>
      <trkpt lat="46.23384" lon="5.80745">
        <ele>1183.5202636719</ele>
        <time>2010-09-19T11:29:55Z</time>
      </trkpt>
      <trkpt lat="46.23392" lon="5.80749">
        <ele>1183.0395507812</ele>
        <time>2010-09-19T11:29:57Z</time>
      </trkpt>
      <trkpt lat="46.2341" lon="5.80747">
        <ele>1182.5590820312</ele>
        <time>2010-09-19T11:30:01Z</time>
      </trkpt>
      <trkpt lat="46.23436" lon="5.80746">
        <ele>1182.0783691406</ele>
        <time>2010-09-19T11:30:06Z</time>
      </trkpt>
      <trkpt lat="46.23462" lon="5.80744">
        <ele>1181.59765625</ele>
        <time>2010-09-19T11:30:11Z</time>
      </trkpt>
      <trkpt lat="46.23476" lon="5.80743">
        <ele>1181.59765625</ele>
        <time>2010-09-19T11:30:14Z</time>
      </trkpt>
      <trkpt lat="46.23486" lon="5.80739">
        <ele>1181.59765625</ele>
        <time>2010-09-19T11:30:16Z</time>
      </trkpt>
      <trkpt lat="46.23524" lon="5.80743">
        <ele>1181.59765625</ele>
        <time>2010-09-19T11:30:23Z</time>
      </trkpt>
      <trkpt lat="46.23528" lon="5.80743">
        <ele>1181.59765625</ele>
        <time>2010-09-19T11:30:24Z</time>
      </trkpt>
      <trkpt lat="46.23543" lon="5.80743">
        <ele>1181.59765625</ele>
        <time>2010-09-19T11:30:27Z</time>
      </trkpt>
      <trkpt lat="46.23563" lon="5.80744">
        <ele>1182.5590820312</ele>
        <time>2010-09-19T11:30:32Z</time>
      </trkpt>
      <trkpt lat="46.23575" lon="5.80742">
        <ele>1182.0783691406</ele>
        <time>2010-09-19T11:30:36Z</time>
      </trkpt>
      <trkpt lat="46.23593" lon="5.80744">
        <ele>1181.59765625</ele>
        <time>2010-09-19T11:30:40Z</time>
      </trkpt>
      <trkpt lat="46.23602" lon="5.80749">
        <ele>1181.59765625</ele>
        <time>2010-09-19T11:30:42Z</time>
      </trkpt>
      <trkpt lat="46.23623" lon="5.80766">
        <ele>1181.1171875</ele>
        <time>2010-09-19T11:30:47Z</time>
      </trkpt>
      <trkpt lat="46.23627" lon="5.8077">
        <ele>1181.1171875</ele>
        <time>2010-09-19T11:30:48Z</time>
      </trkpt>
      <trkpt lat="46.23655" lon="5.80793">
        <ele>1181.1171875</ele>
        <time>2010-09-19T11:30:55Z</time>
      </trkpt>
      <trkpt lat="46.23674" lon="5.80794">
        <ele>1182.5590820312</ele>
        <time>2010-09-19T11:31:03Z</time>
      </trkpt>
      <trkpt lat="46.23685" lon="5.80795">
        <ele>1184.0009765625</ele>
        <time>2010-09-19T11:31:08Z</time>
      </trkpt>
      <trkpt lat="46.23697" lon="5.80799">
        <ele>1185.4428710938</ele>
        <time>2010-09-19T11:31:15Z</time>
      </trkpt>
      <trkpt lat="46.23712" lon="5.808">
        <ele>1186.404296875</ele>
        <time>2010-09-19T11:31:23Z</time>
      </trkpt>
      <trkpt lat="46.23716" lon="5.80801">
        <ele>1187.3654785156</ele>
        <time>2010-09-19T11:31:26Z</time>
      </trkpt>
      <trkpt lat="46.23727" lon="5.80798">
        <ele>1187.8461914062</ele>
        <time>2010-09-19T11:31:33Z</time>
      </trkpt>
      <trkpt lat="46.23736" lon="5.80796">
        <ele>1189.7687988281</ele>
        <time>2010-09-19T11:31:38Z</time>
      </trkpt>
      <trkpt lat="46.23742" lon="5.80795">
        <ele>1190.2495117188</ele>
        <time>2010-09-19T11:31:42Z</time>
      </trkpt>
      <trkpt lat="46.23749" lon="5.80794">
        <ele>1190.7299804688</ele>
        <time>2010-09-19T11:31:48Z</time>
      </trkpt>
      <trkpt lat="46.23761" lon="5.80789">
        <ele>1192.1721191406</ele>
        <time>2010-09-19T11:31:55Z</time>
      </trkpt>
      <trkpt lat="46.23766" lon="5.80786">
        <ele>1192.1721191406</ele>
        <time>2010-09-19T11:31:58Z</time>
      </trkpt>
      <trkpt lat="46.23779" lon="5.80774">
        <ele>1194.5751953125</ele>
        <time>2010-09-19T11:32:06Z</time>
      </trkpt>
      <trkpt lat="46.23788" lon="5.80765">
        <ele>1195.0559082031</ele>
        <time>2010-09-19T11:32:13Z</time>
      </trkpt>
      <trkpt lat="46.23795" lon="5.8076">
        <ele>1195.5366210938</ele>
        <time>2010-09-19T11:32:18Z</time>
      </trkpt>
      <trkpt lat="46.23809" lon="5.80747">
        <ele>1196.9787597656</ele>
        <time>2010-09-19T11:32:26Z</time>
      </trkpt>
      <trkpt lat="46.2382" lon="5.80733">
        <ele>1197.4594726562</ele>
        <time>2010-09-19T11:32:33Z</time>
      </trkpt>
      <trkpt lat="46.2383" lon="5.80721">
        <ele>1197.9401855469</ele>
        <time>2010-09-19T11:32:40Z</time>
      </trkpt>
      <trkpt lat="46.23842" lon="5.80707">
        <ele>1199.3820800781</ele>
        <time>2010-09-19T11:32:49Z</time>
      </trkpt>
      <trkpt lat="46.23843" lon="5.80704">
        <ele>1199.3820800781</ele>
        <time>2010-09-19T11:32:51Z</time>
      </trkpt>
      <trkpt lat="46.2384" lon="5.80687">
        <ele>1199.3820800781</ele>
        <time>2010-09-19T11:32:57Z</time>
      </trkpt>
      <trkpt lat="46.23836" lon="5.80675">
        <ele>1200.8239746094</ele>
        <time>2010-09-19T11:33:02Z</time>
      </trkpt>
      <trkpt lat="46.2383" lon="5.80669">
        <ele>1200.3435058594</ele>
        <time>2010-09-19T11:33:06Z</time>
      </trkpt>
      <trkpt lat="46.23816" lon="5.8066">
        <ele>1202.2658691406</ele>
        <time>2010-09-19T11:33:14Z</time>
      </trkpt>
      <trkpt lat="46.23802" lon="5.80649">
        <ele>1201.7854003906</ele>
        <time>2010-09-19T11:33:21Z</time>
      </trkpt>
      <trkpt lat="46.23796" lon="5.80648">
        <ele>1200.8239746094</ele>
        <time>2010-09-19T11:33:23Z</time>
      </trkpt>
      <trkpt lat="46.2378" lon="5.80641">
        <ele>1199.3820800781</ele>
        <time>2010-09-19T11:33:27Z</time>
      </trkpt>
      <trkpt lat="46.23771" lon="5.80624">
        <ele>1198.4206542969</ele>
        <time>2010-09-19T11:33:30Z</time>
      </trkpt>
      <trkpt lat="46.23765" lon="5.80615">
        <ele>1197.9401855469</ele>
        <time>2010-09-19T11:33:32Z</time>
      </trkpt>
      <trkpt lat="46.23751" lon="5.80599">
        <ele>1196.9787597656</ele>
        <time>2010-09-19T11:33:36Z</time>
      </trkpt>
      <trkpt lat="46.23742" lon="5.80584">
        <ele>1196.017578125</ele>
        <time>2010-09-19T11:33:39Z</time>
      </trkpt>
      <trkpt lat="46.23725" lon="5.80565">
        <ele>1194.5751953125</ele>
        <time>2010-09-19T11:33:44Z</time>
      </trkpt>
      <trkpt lat="46.2372" lon="5.80555">
        <ele>1194.0947265625</ele>
        <time>2010-09-19T11:33:46Z</time>
      </trkpt>
      <trkpt lat="46.23705" lon="5.80537">
        <ele>1192.6528320312</ele>
        <time>2010-09-19T11:33:50Z</time>
      </trkpt>
      <trkpt lat="46.23694" lon="5.80519">
        <ele>1192.1721191406</ele>
        <time>2010-09-19T11:33:54Z</time>
      </trkpt>
      <trkpt lat="46.2369" lon="5.80505">
        <ele>1192.6528320312</ele>
        <time>2010-09-19T11:33:58Z</time>
      </trkpt>
      <trkpt lat="46.23684" lon="5.80477">
        <ele>1193.1333007812</ele>
        <time>2010-09-19T11:34:04Z</time>
      </trkpt>
      <trkpt lat="46.23672" lon="5.80451">
        <ele>1191.69140625</ele>
        <time>2010-09-19T11:34:08Z</time>
      </trkpt>
      <trkpt lat="46.23667" lon="5.80437">
        <ele>1191.2106933594</ele>
        <time>2010-09-19T11:34:10Z</time>
      </trkpt>
      <trkpt lat="46.2366" lon="5.8041">
        <ele>1192.1721191406</ele>
        <time>2010-09-19T11:34:15Z</time>
      </trkpt>
      <trkpt lat="46.23651" lon="5.80394">
        <ele>1191.69140625</ele>
        <time>2010-09-19T11:34:19Z</time>
      </trkpt>
      <trkpt lat="46.23636" lon="5.80378">
        <ele>1192.1721191406</ele>
        <time>2010-09-19T11:34:24Z</time>
      </trkpt>
      <trkpt lat="46.23625" lon="5.8036">
        <ele>1192.1721191406</ele>
        <time>2010-09-19T11:34:29Z</time>
      </trkpt>
      <trkpt lat="46.2361" lon="5.80353">
        <ele>1192.6528320312</ele>
        <time>2010-09-19T11:34:34Z</time>
      </trkpt>
      <trkpt lat="46.23601" lon="5.80348">
        <ele>1193.6140136719</ele>
        <time>2010-09-19T11:34:37Z</time>
      </trkpt>
      <trkpt lat="46.2358" lon="5.80339">
        <ele>1193.6140136719</ele>
        <time>2010-09-19T11:34:45Z</time>
      </trkpt>
      <trkpt lat="46.23565" lon="5.80342">
        <ele>1193.1333007812</ele>
        <time>2010-09-19T11:34:50Z</time>
      </trkpt>
      <trkpt lat="46.2354" lon="5.80335">
        <ele>1193.6140136719</ele>
        <time>2010-09-19T11:34:56Z</time>
      </trkpt>
      <trkpt lat="46.23525" lon="5.80332">
        <ele>1194.5751953125</ele>
        <time>2010-09-19T11:35:00Z</time>
      </trkpt>
      <trkpt lat="46.23521" lon="5.80332">
        <ele>1194.0947265625</ele>
        <time>2010-09-19T11:35:01Z</time>
      </trkpt>
      <trkpt lat="46.23513" lon="5.80328">
        <ele>1193.1333007812</ele>
        <time>2010-09-19T11:35:03Z</time>
      </trkpt>
      <trkpt lat="46.23498" lon="5.80316">
        <ele>1191.69140625</ele>
        <time>2010-09-19T11:35:07Z</time>
      </trkpt>
      <trkpt lat="46.23496" lon="5.80305">
        <ele>1191.69140625</ele>
        <time>2010-09-19T11:35:09Z</time>
      </trkpt>
      <trkpt lat="46.23492" lon="5.8028">
        <ele>1189.7687988281</ele>
        <time>2010-09-19T11:35:13Z</time>
      </trkpt>
      <trkpt lat="46.23491" lon="5.80272">
        <ele>1189.2880859375</ele>
        <time>2010-09-19T11:35:14Z</time>
      </trkpt>
      <trkpt lat="46.23483" lon="5.80238">
        <ele>1189.2880859375</ele>
        <time>2010-09-19T11:35:18Z</time>
      </trkpt>
      <trkpt lat="46.23469" lon="5.80204">
        <ele>1189.2880859375</ele>
        <time>2010-09-19T11:35:24Z</time>
      </trkpt>
      <trkpt lat="46.2347" lon="5.80187">
        <ele>1189.2880859375</ele>
        <time>2010-09-19T11:35:27Z</time>
      </trkpt>
      <trkpt lat="46.23481" lon="5.80161">
        <ele>1188.8076171875</ele>
        <time>2010-09-19T11:35:32Z</time>
      </trkpt>
      <trkpt lat="46.23481" lon="5.80141">
        <ele>1188.8076171875</ele>
        <time>2010-09-19T11:35:36Z</time>
      </trkpt>
      <trkpt lat="46.23482" lon="5.8013">
        <ele>1188.8076171875</ele>
        <time>2010-09-19T11:35:38Z</time>
      </trkpt>
      <trkpt lat="46.23475" lon="5.80108">
        <ele>1187.8461914062</ele>
        <time>2010-09-19T11:35:43Z</time>
      </trkpt>
      <trkpt lat="46.23471" lon="5.80087">
        <ele>1186.884765625</ele>
        <time>2010-09-19T11:35:47Z</time>
      </trkpt>
      <trkpt lat="46.23463" lon="5.80058">
        <ele>1184.9624023438</ele>
        <time>2010-09-19T11:35:53Z</time>
      </trkpt>
      <trkpt lat="46.23459" lon="5.80043">
        <ele>1184.0009765625</ele>
        <time>2010-09-19T11:35:56Z</time>
      </trkpt>
      <trkpt lat="46.23461" lon="5.80028">
        <ele>1182.5590820312</ele>
        <time>2010-09-19T11:36:00Z</time>
      </trkpt>
      <trkpt lat="46.23464" lon="5.80019">
        <ele>1181.1171875</ele>
        <time>2010-09-19T11:36:02Z</time>
      </trkpt>
      <trkpt lat="46.23475" lon="5.79982">
        <ele>1178.2329101562</ele>
        <time>2010-09-19T11:36:08Z</time>
      </trkpt>
      <trkpt lat="46.23481" lon="5.79949">
        <ele>1175.8295898438</ele>
        <time>2010-09-19T11:36:13Z</time>
      </trkpt>
      <trkpt lat="46.23484" lon="5.79918">
        <ele>1172.9458007812</ele>
        <time>2010-09-19T11:36:18Z</time>
      </trkpt>
      <trkpt lat="46.23489" lon="5.79898">
        <ele>1171.984375</ele>
        <time>2010-09-19T11:36:21Z</time>
      </trkpt>
      <trkpt lat="46.23491" lon="5.79883">
        <ele>1171.0231933594</ele>
        <time>2010-09-19T11:36:23Z</time>
      </trkpt>
      <trkpt lat="46.23491" lon="5.7986">
        <ele>1168.6198730469</ele>
        <time>2010-09-19T11:36:26Z</time>
      </trkpt>
      <trkpt lat="46.23492" lon="5.79844">
        <ele>1167.1779785156</ele>
        <time>2010-09-19T11:36:28Z</time>
      </trkpt>
      <trkpt lat="46.23496" lon="5.79809">
        <ele>1163.8129882812</ele>
        <time>2010-09-19T11:36:33Z</time>
      </trkpt>
      <trkpt lat="46.23502" lon="5.79784">
        <ele>1162.37109375</ele>
        <time>2010-09-19T11:36:36Z</time>
      </trkpt>
      <trkpt lat="46.23502" lon="5.79752">
        <ele>1163.3325195312</ele>
        <time>2010-09-19T11:36:41Z</time>
      </trkpt>
      <trkpt lat="46.23499" lon="5.79745">
        <ele>1164.2939453125</ele>
        <time>2010-09-19T11:36:43Z</time>
      </trkpt>
      <trkpt lat="46.23489" lon="5.79704">
        <ele>1163.8129882812</ele>
        <time>2010-09-19T11:36:52Z</time>
      </trkpt>
      <trkpt lat="46.23485" lon="5.79675">
        <ele>1164.7746582031</ele>
        <time>2010-09-19T11:36:58Z</time>
      </trkpt>
      <trkpt lat="46.23479" lon="5.79655">
        <ele>1165.2553710938</ele>
        <time>2010-09-19T11:37:05Z</time>
      </trkpt>
      <trkpt lat="46.23477" lon="5.79636">
        <ele>1165.2553710938</ele>
        <time>2010-09-19T11:37:11Z</time>
      </trkpt>
      <trkpt lat="46.23473" lon="5.79623">
        <ele>1164.2939453125</ele>
        <time>2010-09-19T11:37:15Z</time>
      </trkpt>
      <trkpt lat="46.23469" lon="5.79609">
        <ele>1163.8129882812</ele>
        <time>2010-09-19T11:37:20Z</time>
      </trkpt>
      <trkpt lat="46.23466" lon="5.79594">
        <ele>1164.2939453125</ele>
        <time>2010-09-19T11:37:25Z</time>
      </trkpt>
      <trkpt lat="46.23458" lon="5.79579">
        <ele>1164.7746582031</ele>
        <time>2010-09-19T11:37:31Z</time>
      </trkpt>
      <trkpt lat="46.23461" lon="5.79554">
        <ele>1165.7360839844</ele>
        <time>2010-09-19T11:37:38Z</time>
      </trkpt>
      <trkpt lat="46.23462" lon="5.79535">
        <ele>1166.697265625</ele>
        <time>2010-09-19T11:37:44Z</time>
      </trkpt>
      <trkpt lat="46.23465" lon="5.79505">
        <ele>1167.6584472656</ele>
        <time>2010-09-19T11:37:53Z</time>
      </trkpt>
      <trkpt lat="46.23462" lon="5.79481">
        <ele>1168.1391601562</ele>
        <time>2010-09-19T11:38:00Z</time>
      </trkpt>
      <trkpt lat="46.2345" lon="5.79462">
        <ele>1168.6198730469</ele>
        <time>2010-09-19T11:38:06Z</time>
      </trkpt>
      <trkpt lat="46.23432" lon="5.79443">
        <ele>1169.5812988281</ele>
        <time>2010-09-19T11:38:14Z</time>
      </trkpt>
      <trkpt lat="46.23422" lon="5.79429">
        <ele>1169.1005859375</ele>
        <time>2010-09-19T11:38:20Z</time>
      </trkpt>
      <trkpt lat="46.23419" lon="5.79425">
        <ele>1169.5812988281</ele>
        <time>2010-09-19T11:38:22Z</time>
      </trkpt>
      <trkpt lat="46.2341" lon="5.79415">
        <ele>1169.5812988281</ele>
        <time>2010-09-19T11:38:27Z</time>
      </trkpt>
      <trkpt lat="46.23399" lon="5.79407">
        <ele>1171.0231933594</ele>
        <time>2010-09-19T11:38:32Z</time>
      </trkpt>
      <trkpt lat="46.23396" lon="5.79396">
        <ele>1171.5036621094</ele>
        <time>2010-09-19T11:38:37Z</time>
      </trkpt>
      <trkpt lat="46.23395" lon="5.79381">
        <ele>1172.4650878906</ele>
        <time>2010-09-19T11:38:45Z</time>
      </trkpt>
      <trkpt lat="46.23395" lon="5.79379">
        <ele>1172.9458007812</ele>
        <time>2010-09-19T11:38:49Z</time>
      </trkpt>
      <trkpt lat="46.23396" lon="5.79374">
        <ele>1173.9069824219</ele>
        <time>2010-09-19T11:38:55Z</time>
      </trkpt>
      <trkpt lat="46.23397" lon="5.79365">
        <ele>1174.8684082031</ele>
        <time>2010-09-19T11:39:03Z</time>
      </trkpt>
      <trkpt lat="46.23398" lon="5.79358">
        <ele>1175.8295898438</ele>
        <time>2010-09-19T11:39:10Z</time>
      </trkpt>
      <trkpt lat="46.23398" lon="5.7935">
        <ele>1177.2717285156</ele>
        <time>2010-09-19T11:39:18Z</time>
      </trkpt>
      <trkpt lat="46.23399" lon="5.79344">
        <ele>1178.7136230469</ele>
        <time>2010-09-19T11:39:26Z</time>
      </trkpt>
      <trkpt lat="46.23402" lon="5.79337">
        <ele>1178.7136230469</ele>
        <time>2010-09-19T11:39:32Z</time>
      </trkpt>
      <trkpt lat="46.23405" lon="5.79332">
        <ele>1179.6748046875</ele>
        <time>2010-09-19T11:39:37Z</time>
      </trkpt>
      <trkpt lat="46.23408" lon="5.79322">
        <ele>1177.7521972656</ele>
        <time>2010-09-19T11:39:42Z</time>
      </trkpt>
      <trkpt lat="46.23409" lon="5.79315">
        <ele>1176.791015625</ele>
        <time>2010-09-19T11:39:44Z</time>
      </trkpt>
      <trkpt lat="46.23409" lon="5.79308">
        <ele>1175.8295898438</ele>
        <time>2010-09-19T11:39:46Z</time>
      </trkpt>
      <trkpt lat="46.23411" lon="5.79285">
        <ele>1174.3876953125</ele>
        <time>2010-09-19T11:39:51Z</time>
      </trkpt>
      <trkpt lat="46.23418" lon="5.79269">
        <ele>1172.4650878906</ele>
        <time>2010-09-19T11:39:55Z</time>
      </trkpt>
      <trkpt lat="46.23421" lon="5.79266">
        <ele>1172.4650878906</ele>
        <time>2010-09-19T11:39:56Z</time>
      </trkpt>
      <trkpt lat="46.23428" lon="5.79259">
        <ele>1171.0231933594</ele>
        <time>2010-09-19T11:39:58Z</time>
      </trkpt>
      <trkpt lat="46.23448" lon="5.79249">
        <ele>1166.697265625</ele>
        <time>2010-09-19T11:40:01Z</time>
      </trkpt>
      <trkpt lat="46.23471" lon="5.79234">
        <ele>1164.7746582031</ele>
        <time>2010-09-19T11:40:04Z</time>
      </trkpt>
      <trkpt lat="46.23481" lon="5.79218">
        <ele>1163.8129882812</ele>
        <time>2010-09-19T11:40:06Z</time>
      </trkpt>
      <trkpt lat="46.23495" lon="5.79192">
        <ele>1162.8518066406</ele>
        <time>2010-09-19T11:40:09Z</time>
      </trkpt>
      <trkpt lat="46.23518" lon="5.79155">
        <ele>1159.4873046875</ele>
        <time>2010-09-19T11:40:13Z</time>
      </trkpt>
      <trkpt lat="46.23529" lon="5.79131">
        <ele>1158.0454101562</ele>
        <time>2010-09-19T11:40:16Z</time>
      </trkpt>
      <trkpt lat="46.23539" lon="5.79103">
        <ele>1157.083984375</ele>
        <time>2010-09-19T11:40:20Z</time>
      </trkpt>
      <trkpt lat="46.23547" lon="5.79087">
        <ele>1157.083984375</ele>
        <time>2010-09-19T11:40:23Z</time>
      </trkpt>
      <trkpt lat="46.23555" lon="5.79071">
        <ele>1157.5646972656</ele>
        <time>2010-09-19T11:40:28Z</time>
      </trkpt>
      <trkpt lat="46.23564" lon="5.7906">
        <ele>1157.083984375</ele>
        <time>2010-09-19T11:40:33Z</time>
      </trkpt>
      <trkpt lat="46.23573" lon="5.79048">
        <ele>1157.083984375</ele>
        <time>2010-09-19T11:40:36Z</time>
      </trkpt>
      <trkpt lat="46.23587" lon="5.79031">
        <ele>1155.6420898438</ele>
        <time>2010-09-19T11:40:40Z</time>
      </trkpt>
      <trkpt lat="46.23591" lon="5.79026">
        <ele>1154.2001953125</ele>
        <time>2010-09-19T11:40:41Z</time>
      </trkpt>
      <trkpt lat="46.23613" lon="5.79002">
        <ele>1150.8354492188</ele>
        <time>2010-09-19T11:40:46Z</time>
      </trkpt>
      <trkpt lat="46.23621" lon="5.78985">
        <ele>1146.9899902344</ele>
        <time>2010-09-19T11:40:49Z</time>
      </trkpt>
      <trkpt lat="46.23623" lon="5.78968">
        <ele>1146.0288085938</ele>
        <time>2010-09-19T11:40:51Z</time>
      </trkpt>
      <trkpt lat="46.23627" lon="5.78939">
        <ele>1142.6643066406</ele>
        <time>2010-09-19T11:40:55Z</time>
      </trkpt>
      <trkpt lat="46.2362" lon="5.78909">
        <ele>1139.7802734375</ele>
        <time>2010-09-19T11:41:00Z</time>
      </trkpt>
      <trkpt lat="46.2362" lon="5.78902">
        <ele>1138.8190917969</ele>
        <time>2010-09-19T11:41:01Z</time>
      </trkpt>
      <trkpt lat="46.23623" lon="5.78887">
        <ele>1137.8576660156</ele>
        <time>2010-09-19T11:41:03Z</time>
      </trkpt>
      <trkpt lat="46.23631" lon="5.78849">
        <ele>1134.4931640625</ele>
        <time>2010-09-19T11:41:07Z</time>
      </trkpt>
      <trkpt lat="46.23634" lon="5.78837">
        <ele>1134.4931640625</ele>
        <time>2010-09-19T11:41:08Z</time>
      </trkpt>
      <trkpt lat="46.23648" lon="5.78785">
        <ele>1131.6088867188</ele>
        <time>2010-09-19T11:41:12Z</time>
      </trkpt>
      <trkpt lat="46.23652" lon="5.78746">
        <ele>1127.763671875</ele>
        <time>2010-09-19T11:41:15Z</time>
      </trkpt>
      <trkpt lat="46.2364" lon="5.78697">
        <ele>1121.9958496094</ele>
        <time>2010-09-19T11:41:19Z</time>
      </trkpt>
      <trkpt lat="46.23642" lon="5.78655">
        <ele>1117.669921875</ele>
        <time>2010-09-19T11:41:23Z</time>
      </trkpt>
      <trkpt lat="46.23661" lon="5.7864">
        <ele>1115.7473144531</ele>
        <time>2010-09-19T11:41:26Z</time>
      </trkpt>
      <trkpt lat="46.23669" lon="5.78639">
        <ele>1115.2666015625</ele>
        <time>2010-09-19T11:41:27Z</time>
      </trkpt>
      <trkpt lat="46.23703" lon="5.78619">
        <ele>1110.4599609375</ele>
        <time>2010-09-19T11:41:32Z</time>
      </trkpt>
      <trkpt lat="46.23706" lon="5.78601">
        <ele>1108.5373535156</ele>
        <time>2010-09-19T11:41:34Z</time>
      </trkpt>
      <trkpt lat="46.23707" lon="5.78589">
        <ele>1108.0568847656</ele>
        <time>2010-09-19T11:41:35Z</time>
      </trkpt>
      <trkpt lat="46.23704" lon="5.78565">
        <ele>1104.2116699219</ele>
        <time>2010-09-19T11:41:37Z</time>
      </trkpt>
      <trkpt lat="46.23683" lon="5.78507">
        <ele>1098.9240722656</ele>
        <time>2010-09-19T11:41:41Z</time>
      </trkpt>
      <trkpt lat="46.23654" lon="5.78473">
        <ele>1093.6369628906</ele>
        <time>2010-09-19T11:41:44Z</time>
      </trkpt>
      <trkpt lat="46.23628" lon="5.7844">
        <ele>1090.7529296875</ele>
        <time>2010-09-19T11:41:47Z</time>
      </trkpt>
      <trkpt lat="46.23597" lon="5.78421">
        <ele>1086.4272460938</ele>
        <time>2010-09-19T11:41:50Z</time>
      </trkpt>
      <trkpt lat="46.23587" lon="5.78414">
        <ele>1085.4658203125</ele>
        <time>2010-09-19T11:41:51Z</time>
      </trkpt>
      <trkpt lat="46.23573" lon="5.78392">
        <ele>1082.5817871094</ele>
        <time>2010-09-19T11:41:53Z</time>
      </trkpt>
      <trkpt lat="46.23555" lon="5.78353">
        <ele>1080.1784667969</ele>
        <time>2010-09-19T11:41:56Z</time>
      </trkpt>
      <trkpt lat="46.23542" lon="5.78328">
        <ele>1078.255859375</ele>
        <time>2010-09-19T11:41:58Z</time>
      </trkpt>
      <trkpt lat="46.23516" lon="5.78304">
        <ele>1073.9299316406</ele>
        <time>2010-09-19T11:42:01Z</time>
      </trkpt>
      <trkpt lat="46.23509" lon="5.78296">
        <ele>1073.4494628906</ele>
        <time>2010-09-19T11:42:02Z</time>
      </trkpt>
      <trkpt lat="46.23491" lon="5.78272">
        <ele>1073.4494628906</ele>
        <time>2010-09-19T11:42:05Z</time>
      </trkpt>
      <trkpt lat="46.23472" lon="5.78262">
        <ele>1074.8913574219</ele>
        <time>2010-09-19T11:42:09Z</time>
      </trkpt>
      <trkpt lat="46.23452" lon="5.78253">
        <ele>1075.3718261719</ele>
        <time>2010-09-19T11:42:15Z</time>
      </trkpt>
      <trkpt lat="46.23441" lon="5.78246">
        <ele>1075.8525390625</ele>
        <time>2010-09-19T11:42:20Z</time>
      </trkpt>
      <trkpt lat="46.2343" lon="5.7824">
        <ele>1076.3332519531</ele>
        <time>2010-09-19T11:42:24Z</time>
      </trkpt>
      <trkpt lat="46.23425" lon="5.78236">
        <ele>1076.3332519531</ele>
        <time>2010-09-19T11:42:26Z</time>
      </trkpt>
      <trkpt lat="46.23402" lon="5.78225">
        <ele>1075.3718261719</ele>
        <time>2010-09-19T11:42:32Z</time>
      </trkpt>
      <trkpt lat="46.2338" lon="5.78211">
        <ele>1075.8525390625</ele>
        <time>2010-09-19T11:42:38Z</time>
      </trkpt>
      <trkpt lat="46.23362" lon="5.78204">
        <ele>1074.4106445312</ele>
        <time>2010-09-19T11:42:42Z</time>
      </trkpt>
      <trkpt lat="46.23347" lon="5.78196">
        <ele>1072.4880371094</ele>
        <time>2010-09-19T11:42:45Z</time>
      </trkpt>
      <trkpt lat="46.23336" lon="5.78191">
        <ele>1073.4494628906</ele>
        <time>2010-09-19T11:42:48Z</time>
      </trkpt>
      <trkpt lat="46.23319" lon="5.78181">
        <ele>1073.9299316406</ele>
        <time>2010-09-19T11:42:53Z</time>
      </trkpt>
      <trkpt lat="46.23303" lon="5.78177">
        <ele>1074.8913574219</ele>
        <time>2010-09-19T11:42:57Z</time>
      </trkpt>
      <trkpt lat="46.23288" lon="5.78168">
        <ele>1075.3718261719</ele>
        <time>2010-09-19T11:43:01Z</time>
      </trkpt>
      <trkpt lat="46.23264" lon="5.78155">
        <ele>1075.3718261719</ele>
        <time>2010-09-19T11:43:07Z</time>
      </trkpt>
      <trkpt lat="46.23256" lon="5.78152">
        <ele>1075.8525390625</ele>
        <time>2010-09-19T11:43:09Z</time>
      </trkpt>
      <trkpt lat="46.23233" lon="5.78143">
        <ele>1075.8525390625</ele>
        <time>2010-09-19T11:43:15Z</time>
      </trkpt>
      <trkpt lat="46.23217" lon="5.78142">
        <ele>1076.3332519531</ele>
        <time>2010-09-19T11:43:19Z</time>
      </trkpt>
      <trkpt lat="46.23207" lon="5.78146">
        <ele>1077.2946777344</ele>
        <time>2010-09-19T11:43:23Z</time>
      </trkpt>
      <trkpt lat="46.23197" lon="5.78151">
        <ele>1077.7751464844</ele>
        <time>2010-09-19T11:43:28Z</time>
      </trkpt>
      <trkpt lat="46.23184" lon="5.78156">
        <ele>1079.2170410156</ele>
        <time>2010-09-19T11:43:35Z</time>
      </trkpt>
      <trkpt lat="46.23171" lon="5.78154">
        <ele>1079.2170410156</ele>
        <time>2010-09-19T11:43:40Z</time>
      </trkpt>
      <trkpt lat="46.23153" lon="5.78157">
        <ele>1080.1784667969</ele>
        <time>2010-09-19T11:43:48Z</time>
      </trkpt>
      <trkpt lat="46.23144" lon="5.78155">
        <ele>1081.1398925781</ele>
        <time>2010-09-19T11:43:53Z</time>
      </trkpt>
      <trkpt lat="46.23135" lon="5.78152">
        <ele>1082.1010742188</ele>
        <time>2010-09-19T11:43:58Z</time>
      </trkpt>
      <trkpt lat="46.23123" lon="5.78147">
        <ele>1082.1010742188</ele>
        <time>2010-09-19T11:44:05Z</time>
      </trkpt>
      <trkpt lat="46.2311" lon="5.78142">
        <ele>1082.5817871094</ele>
        <time>2010-09-19T11:44:11Z</time>
      </trkpt>
      <trkpt lat="46.23099" lon="5.78136">
        <ele>1083.54296875</ele>
        <time>2010-09-19T11:44:17Z</time>
      </trkpt>
      <trkpt lat="46.23086" lon="5.7813">
        <ele>1084.5046386719</ele>
        <time>2010-09-19T11:44:24Z</time>
      </trkpt>
      <trkpt lat="46.23076" lon="5.78126">
        <ele>1085.4658203125</ele>
        <time>2010-09-19T11:44:30Z</time>
      </trkpt>
      <trkpt lat="46.23067" lon="5.78125">
        <ele>1086.9077148438</ele>
        <time>2010-09-19T11:44:36Z</time>
      </trkpt>
      <trkpt lat="46.23064" lon="5.78124">
        <ele>1086.9077148438</ele>
        <time>2010-09-19T11:44:38Z</time>
      </trkpt>
      <trkpt lat="46.23052" lon="5.78122">
        <ele>1087.3884277344</ele>
        <time>2010-09-19T11:44:45Z</time>
      </trkpt>
      <trkpt lat="46.23044" lon="5.78121">
        <ele>1087.869140625</ele>
        <time>2010-09-19T11:44:50Z</time>
      </trkpt>
      <trkpt lat="46.23036" lon="5.78121">
        <ele>1088.3498535156</ele>
        <time>2010-09-19T11:44:56Z</time>
      </trkpt>
      <trkpt lat="46.23034" lon="5.78121">
        <ele>1088.3498535156</ele>
        <time>2010-09-19T11:44:57Z</time>
      </trkpt>
      <trkpt lat="46.23026" lon="5.7812">
        <ele>1089.3110351562</ele>
        <time>2010-09-19T11:45:02Z</time>
      </trkpt>
      <trkpt lat="46.23015" lon="5.78118">
        <ele>1090.2724609375</ele>
        <time>2010-09-19T11:45:09Z</time>
      </trkpt>
      <trkpt lat="46.23005" lon="5.78115">
        <ele>1090.7529296875</ele>
        <time>2010-09-19T11:45:15Z</time>
      </trkpt>
      <trkpt lat="46.22997" lon="5.78112">
        <ele>1091.7143554688</ele>
        <time>2010-09-19T11:45:21Z</time>
      </trkpt>
      <trkpt lat="46.22987" lon="5.78106">
        <ele>1090.7529296875</ele>
        <time>2010-09-19T11:45:26Z</time>
      </trkpt>
      <trkpt lat="46.22983" lon="5.78103">
        <ele>1089.7917480469</ele>
        <time>2010-09-19T11:45:27Z</time>
      </trkpt>
      <trkpt lat="46.22975" lon="5.78096">
        <ele>1089.3110351562</ele>
        <time>2010-09-19T11:45:29Z</time>
      </trkpt>
      <trkpt lat="46.22953" lon="5.78082">
        <ele>1088.8305664062</ele>
        <time>2010-09-19T11:45:34Z</time>
      </trkpt>
      <trkpt lat="46.22934" lon="5.78073">
        <ele>1087.869140625</ele>
        <time>2010-09-19T11:45:38Z</time>
      </trkpt>
      <trkpt lat="46.22913" lon="5.78064">
        <ele>1087.869140625</ele>
        <time>2010-09-19T11:45:43Z</time>
      </trkpt>
      <trkpt lat="46.2291" lon="5.78064">
        <ele>1087.3884277344</ele>
        <time>2010-09-19T11:45:44Z</time>
      </trkpt>
      <trkpt lat="46.22886" lon="5.78057">
        <ele>1086.9077148438</ele>
        <time>2010-09-19T11:45:50Z</time>
      </trkpt>
      <trkpt lat="46.2288" lon="5.78057">
        <ele>1086.4272460938</ele>
        <time>2010-09-19T11:45:51Z</time>
      </trkpt>
      <trkpt lat="46.22855" lon="5.78052">
        <ele>1086.4272460938</ele>
        <time>2010-09-19T11:45:56Z</time>
      </trkpt>
      <trkpt lat="46.2283" lon="5.78043">
        <ele>1085.9465332031</ele>
        <time>2010-09-19T11:46:02Z</time>
      </trkpt>
      <trkpt lat="46.22814" lon="5.78041">
        <ele>1088.3498535156</ele>
        <time>2010-09-19T11:46:07Z</time>
      </trkpt>
      <trkpt lat="46.22796" lon="5.78035">
        <ele>1088.8305664062</ele>
        <time>2010-09-19T11:46:13Z</time>
      </trkpt>
      <trkpt lat="46.22779" lon="5.78028">
        <ele>1088.8305664062</ele>
        <time>2010-09-19T11:46:21Z</time>
      </trkpt>
      <trkpt lat="46.22766" lon="5.78021">
        <ele>1088.8305664062</ele>
        <time>2010-09-19T11:46:26Z</time>
      </trkpt>
      <trkpt lat="46.22751" lon="5.78012">
        <ele>1089.3110351562</ele>
        <time>2010-09-19T11:46:32Z</time>
      </trkpt>
      <trkpt lat="46.2274" lon="5.78009">
        <ele>1091.2336425781</ele>
        <time>2010-09-19T11:46:37Z</time>
      </trkpt>
      <trkpt lat="46.22729" lon="5.78007">
        <ele>1092.1950683594</ele>
        <time>2010-09-19T11:46:42Z</time>
      </trkpt>
      <trkpt lat="46.22715" lon="5.77999">
        <ele>1092.1950683594</ele>
        <time>2010-09-19T11:46:47Z</time>
      </trkpt>
      <trkpt lat="46.22699" lon="5.77982">
        <ele>1091.7143554688</ele>
        <time>2010-09-19T11:46:52Z</time>
      </trkpt>
      <trkpt lat="46.22686" lon="5.77969">
        <ele>1090.7529296875</ele>
        <time>2010-09-19T11:46:55Z</time>
      </trkpt>
      <trkpt lat="46.22662" lon="5.77954">
        <ele>1088.3498535156</ele>
        <time>2010-09-19T11:46:59Z</time>
      </trkpt>
      <trkpt lat="46.22618" lon="5.77943">
        <ele>1083.54296875</ele>
        <time>2010-09-19T11:47:04Z</time>
      </trkpt>
      <trkpt lat="46.22582" lon="5.77935">
        <ele>1079.6977539062</ele>
        <time>2010-09-19T11:47:08Z</time>
      </trkpt>
      <trkpt lat="46.22553" lon="5.77929">
        <ele>1076.3332519531</ele>
        <time>2010-09-19T11:47:12Z</time>
      </trkpt>
      <trkpt lat="46.22535" lon="5.77924">
        <ele>1074.8913574219</ele>
        <time>2010-09-19T11:47:15Z</time>
      </trkpt>
      <trkpt lat="46.22515" lon="5.77919">
        <ele>1072.4880371094</ele>
        <time>2010-09-19T11:47:19Z</time>
      </trkpt>
      <trkpt lat="46.22499" lon="5.77914">
        <ele>1071.0461425781</ele>
        <time>2010-09-19T11:47:24Z</time>
      </trkpt>
      <trkpt lat="46.2249" lon="5.77911">
        <ele>1069.1235351562</ele>
        <time>2010-09-19T11:47:26Z</time>
      </trkpt>
      <trkpt lat="46.22479" lon="5.77897">
        <ele>1067.2006835938</ele>
        <time>2010-09-19T11:47:29Z</time>
      </trkpt>
      <trkpt lat="46.22474" lon="5.77873">
        <ele>1063.8359375</ele>
        <time>2010-09-19T11:47:32Z</time>
      </trkpt>
      <trkpt lat="46.22472" lon="5.7786">
        <ele>1062.3940429688</ele>
        <time>2010-09-19T11:47:34Z</time>
      </trkpt>
      <trkpt lat="46.22471" lon="5.77845">
        <ele>1060.4714355469</ele>
        <time>2010-09-19T11:47:37Z</time>
      </trkpt>
      <trkpt lat="46.22473" lon="5.77826">
        <ele>1060.4714355469</ele>
        <time>2010-09-19T11:47:41Z</time>
      </trkpt>
      <trkpt lat="46.22474" lon="5.77787">
        <ele>1058.068359375</ele>
        <time>2010-09-19T11:47:46Z</time>
      </trkpt>
      <trkpt lat="46.22474" lon="5.77778">
        <ele>1057.1069335938</ele>
        <time>2010-09-19T11:47:47Z</time>
      </trkpt>
      <trkpt lat="46.22478" lon="5.77736">
        <ele>1053.7424316406</ele>
        <time>2010-09-19T11:47:52Z</time>
      </trkpt>
      <trkpt lat="46.22495" lon="5.77695">
        <ele>1048.935546875</ele>
        <time>2010-09-19T11:47:57Z</time>
      </trkpt>
      <trkpt lat="46.22513" lon="5.77665">
        <ele>1044.6096191406</ele>
        <time>2010-09-19T11:48:01Z</time>
      </trkpt>
      <trkpt lat="46.2253" lon="5.77642">
        <ele>1040.2839355469</ele>
        <time>2010-09-19T11:48:04Z</time>
      </trkpt>
      <trkpt lat="46.22535" lon="5.77634">
        <ele>1038.8420410156</ele>
        <time>2010-09-19T11:48:05Z</time>
      </trkpt>
      <trkpt lat="46.22556" lon="5.77613">
        <ele>1034.03515625</ele>
        <time>2010-09-19T11:48:09Z</time>
      </trkpt>
      <trkpt lat="46.22561" lon="5.77612">
        <ele>1034.03515625</ele>
        <time>2010-09-19T11:48:10Z</time>
      </trkpt>
      <trkpt lat="46.22575" lon="5.776">
        <ele>1031.1513671875</ele>
        <time>2010-09-19T11:48:13Z</time>
      </trkpt>
      <trkpt lat="46.22585" lon="5.77585">
        <ele>1027.3061523438</ele>
        <time>2010-09-19T11:48:16Z</time>
      </trkpt>
      <trkpt lat="46.22584" lon="5.77579">
        <ele>1027.3061523438</ele>
        <time>2010-09-19T11:48:17Z</time>
      </trkpt>
      <trkpt lat="46.22583" lon="5.77564">
        <ele>1025.8640136719</ele>
        <time>2010-09-19T11:48:19Z</time>
      </trkpt>
      <trkpt lat="46.22591" lon="5.77547">
        <ele>1023.94140625</ele>
        <time>2010-09-19T11:48:21Z</time>
      </trkpt>
      <trkpt lat="46.22604" lon="5.77536">
        <ele>1022.0187988281</ele>
        <time>2010-09-19T11:48:23Z</time>
      </trkpt>
      <trkpt lat="46.22617" lon="5.7753">
        <ele>1021.5380859375</ele>
        <time>2010-09-19T11:48:25Z</time>
      </trkpt>
      <trkpt lat="46.22635" lon="5.77522">
        <ele>1022.0187988281</ele>
        <time>2010-09-19T11:48:29Z</time>
      </trkpt>
      <trkpt lat="46.22643" lon="5.77519">
        <ele>1022.0187988281</ele>
        <time>2010-09-19T11:48:31Z</time>
      </trkpt>
      <trkpt lat="46.22655" lon="5.77507">
        <ele>1021.5380859375</ele>
        <time>2010-09-19T11:48:34Z</time>
      </trkpt>
      <trkpt lat="46.22672" lon="5.77495">
        <ele>1021.0576171875</ele>
        <time>2010-09-19T11:48:38Z</time>
      </trkpt>
      <trkpt lat="46.22681" lon="5.77491">
        <ele>1020.0961914062</ele>
        <time>2010-09-19T11:48:40Z</time>
      </trkpt>
      <trkpt lat="46.22691" lon="5.7747">
        <ele>1018.1733398438</ele>
        <time>2010-09-19T11:48:44Z</time>
      </trkpt>
      <trkpt lat="46.22687" lon="5.77445">
        <ele>1014.8088378906</ele>
        <time>2010-09-19T11:48:47Z</time>
      </trkpt>
      <trkpt lat="46.22682" lon="5.7744">
        <ele>1015.2895507812</ele>
        <time>2010-09-19T11:48:48Z</time>
      </trkpt>
      <trkpt lat="46.22671" lon="5.77415">
        <ele>1012.8862304688</ele>
        <time>2010-09-19T11:48:53Z</time>
      </trkpt>
      <trkpt lat="46.22666" lon="5.77408">
        <ele>1012.4055175781</ele>
        <time>2010-09-19T11:48:55Z</time>
      </trkpt>
      <trkpt lat="46.22659" lon="5.77407">
        <ele>1012.4055175781</ele>
        <time>2010-09-19T11:49:00Z</time>
      </trkpt>
      <trkpt lat="46.22655" lon="5.77411">
        <ele>1012.4055175781</ele>
        <time>2010-09-19T11:49:06Z</time>
      </trkpt>
      <trkpt lat="46.22653" lon="5.7741">
        <ele>1012.4055175781</ele>
        <time>2010-09-19T11:49:11Z</time>
      </trkpt>
      <trkpt lat="46.22655" lon="5.77409">
        <ele>1012.4055175781</ele>
        <time>2010-09-19T11:49:16Z</time>
      </trkpt>
      <trkpt lat="46.22653" lon="5.77409">
        <ele>1011.9250488281</ele>
        <time>2010-09-19T11:49:21Z</time>
      </trkpt>
      <trkpt lat="46.22654" lon="5.77411">
        <ele>1011.4443359375</ele>
        <time>2010-09-19T11:49:23Z</time>
      </trkpt>
      <trkpt lat="46.22653" lon="5.77414">
        <ele>1011.4443359375</ele>
        <time>2010-09-19T11:49:28Z</time>
      </trkpt>
      <trkpt lat="46.22656" lon="5.77407">
        <ele>1011.9250488281</ele>
        <time>2010-09-19T11:49:41Z</time>
      </trkpt>
      <trkpt lat="46.22658" lon="5.77406">
        <ele>1011.9250488281</ele>
        <time>2010-09-19T11:49:45Z</time>
      </trkpt>
      <trkpt lat="46.2266" lon="5.77408">
        <ele>1011.9250488281</ele>
        <time>2010-09-19T11:50:02Z</time>
      </trkpt>
      <trkpt lat="46.22662" lon="5.77412">
        <ele>1012.8862304688</ele>
        <time>2010-09-19T11:50:08Z</time>
      </trkpt>
      <trkpt lat="46.22661" lon="5.77408">
        <ele>1012.4055175781</ele>
        <time>2010-09-19T11:50:25Z</time>
      </trkpt>
      <trkpt lat="46.2266" lon="5.77411">
        <ele>1012.4055175781</ele>
        <time>2010-09-19T11:50:39Z</time>
      </trkpt>
      <trkpt lat="46.22657" lon="5.77403">
        <ele>1011.9250488281</ele>
        <time>2010-09-19T11:50:51Z</time>
      </trkpt>
      <trkpt lat="46.22657" lon="5.77403">
        <ele>1012.4055175781</ele>
        <time>2010-09-19T11:51:07Z</time>
      </trkpt>
      <trkpt lat="46.22659" lon="5.77406">
        <ele>1012.4055175781</ele>
        <time>2010-09-19T11:51:13Z</time>
      </trkpt>
      <trkpt lat="46.22661" lon="5.77411">
        <ele>1012.8862304688</ele>
        <time>2010-09-19T11:51:19Z</time>
      </trkpt>
      <trkpt lat="46.22662" lon="5.77409">
        <ele>1012.8862304688</ele>
        <time>2010-09-19T11:51:26Z</time>
      </trkpt>
      <trkpt lat="46.22662" lon="5.7741">
        <ele>1011.9250488281</ele>
        <time>2010-09-19T11:51:38Z</time>
      </trkpt>
      <trkpt lat="46.22666" lon="5.77402">
        <ele>1012.8862304688</ele>
        <time>2010-09-19T11:52:01Z</time>
      </trkpt>
      <trkpt lat="46.2266" lon="5.77401">
        <ele>1012.8862304688</ele>
        <time>2010-09-19T11:52:07Z</time>
      </trkpt>
      <trkpt lat="46.22654" lon="5.77402">
        <ele>1012.8862304688</ele>
        <time>2010-09-19T11:52:15Z</time>
      </trkpt>
      <trkpt lat="46.22654" lon="5.77402">
        <ele>1012.4055175781</ele>
        <time>2010-09-19T11:52:18Z</time>
      </trkpt>
      <trkpt lat="46.2265" lon="5.77401">
        <ele>1013.3669433594</ele>
        <time>2010-09-19T11:52:24Z</time>
      </trkpt>
      <trkpt lat="46.22649" lon="5.77402">
        <ele>1013.3669433594</ele>
        <time>2010-09-19T11:52:25Z</time>
      </trkpt>
      <trkpt lat="46.22646" lon="5.77406">
        <ele>1012.8862304688</ele>
        <time>2010-09-19T11:52:28Z</time>
      </trkpt>
      <trkpt lat="46.22641" lon="5.77411">
        <ele>1012.8862304688</ele>
        <time>2010-09-19T11:52:35Z</time>
      </trkpt>
      <trkpt lat="46.22643" lon="5.77411">
        <ele>1012.4055175781</ele>
        <time>2010-09-19T11:52:41Z</time>
      </trkpt>
      <trkpt lat="46.22646" lon="5.77408">
        <ele>1011.9250488281</ele>
        <time>2010-09-19T11:52:47Z</time>
      </trkpt>
      <trkpt lat="46.22646" lon="5.77404">
        <ele>1012.8862304688</ele>
        <time>2010-09-19T11:52:54Z</time>
      </trkpt>
      <trkpt lat="46.22648" lon="5.77403">
        <ele>1012.8862304688</ele>
        <time>2010-09-19T11:52:59Z</time>
      </trkpt>
      <trkpt lat="46.2265" lon="5.77404">
        <ele>1012.4055175781</ele>
        <time>2010-09-19T11:53:04Z</time>
      </trkpt>
      <trkpt lat="46.22652" lon="5.77409">
        <ele>1012.8862304688</ele>
        <time>2010-09-19T11:53:10Z</time>
      </trkpt>
      <trkpt lat="46.22654" lon="5.7741">
        <ele>1013.3669433594</ele>
        <time>2010-09-19T11:53:17Z</time>
      </trkpt>
      <trkpt lat="46.22652" lon="5.77407">
        <ele>1012.8862304688</ele>
        <time>2010-09-19T11:53:22Z</time>
      </trkpt>
      <trkpt lat="46.22654" lon="5.77405">
        <ele>1012.8862304688</ele>
        <time>2010-09-19T11:53:24Z</time>
      </trkpt>
      <trkpt lat="46.22658" lon="5.77399">
        <ele>1012.8862304688</ele>
        <time>2010-09-19T11:53:28Z</time>
      </trkpt>
      <trkpt lat="46.22671" lon="5.7739">
        <ele>1011.9250488281</ele>
        <time>2010-09-19T11:53:33Z</time>
      </trkpt>
      <trkpt lat="46.22705" lon="5.77394">
        <ele>1010.0021972656</ele>
        <time>2010-09-19T11:53:40Z</time>
      </trkpt>
      <trkpt lat="46.22752" lon="5.77404">
        <ele>1007.5991210938</ele>
        <time>2010-09-19T11:53:48Z</time>
      </trkpt>
      <trkpt lat="46.22795" lon="5.77413">
        <ele>1007.1184082031</ele>
        <time>2010-09-19T11:53:55Z</time>
      </trkpt>
      <trkpt lat="46.22827" lon="5.77425">
        <ele>1006.6376953125</ele>
        <time>2010-09-19T11:54:00Z</time>
      </trkpt>
      <trkpt lat="46.22852" lon="5.77418">
        <ele>1004.7150878906</ele>
        <time>2010-09-19T11:54:04Z</time>
      </trkpt>
      <trkpt lat="46.22884" lon="5.77391">
        <ele>1002.7922363281</ele>
        <time>2010-09-19T11:54:09Z</time>
      </trkpt>
      <trkpt lat="46.22891" lon="5.77386">
        <ele>1001.8310546875</ele>
        <time>2010-09-19T11:54:10Z</time>
      </trkpt>
      <trkpt lat="46.22927" lon="5.77361">
        <ele>998.46630859375</ele>
        <time>2010-09-19T11:54:15Z</time>
      </trkpt>
      <trkpt lat="46.22935" lon="5.77356">
        <ele>997.50512695312</ele>
        <time>2010-09-19T11:54:16Z</time>
      </trkpt>
      <trkpt lat="46.22978" lon="5.77314">
        <ele>994.62109375</ele>
        <time>2010-09-19T11:54:22Z</time>
      </trkpt>
      <trkpt lat="46.22999" lon="5.77289">
        <ele>992.21801757812</ele>
        <time>2010-09-19T11:54:25Z</time>
      </trkpt>
      <trkpt lat="46.23032" lon="5.7727">
        <ele>989.333984375</ele>
        <time>2010-09-19T11:54:29Z</time>
      </trkpt>
      <trkpt lat="46.23042" lon="5.7727">
        <ele>989.333984375</ele>
        <time>2010-09-19T11:54:30Z</time>
      </trkpt>
      <trkpt lat="46.23051" lon="5.7727">
        <ele>988.853515625</ele>
        <time>2010-09-19T11:54:31Z</time>
      </trkpt>
      <trkpt lat="46.23098" lon="5.77283">
        <ele>985.48852539062</ele>
        <time>2010-09-19T11:54:36Z</time>
      </trkpt>
      <trkpt lat="46.23107" lon="5.77288">
        <ele>985.00805664062</ele>
        <time>2010-09-19T11:54:37Z</time>
      </trkpt>
      <trkpt lat="46.23155" lon="5.77305">
        <ele>981.16284179688</ele>
        <time>2010-09-19T11:54:42Z</time>
      </trkpt>
      <trkpt lat="46.23191" lon="5.77326">
        <ele>977.79809570312</ele>
        <time>2010-09-19T11:54:46Z</time>
      </trkpt>
      <trkpt lat="46.23206" lon="5.77333">
        <ele>976.35620117188</ele>
        <time>2010-09-19T11:54:48Z</time>
      </trkpt>
      <trkpt lat="46.2322" lon="5.77333">
        <ele>975.39477539062</ele>
        <time>2010-09-19T11:54:50Z</time>
      </trkpt>
      <trkpt lat="46.23228" lon="5.77317">
        <ele>973.95288085938</ele>
        <time>2010-09-19T11:54:52Z</time>
      </trkpt>
      <trkpt lat="46.23223" lon="5.77299">
        <ele>972.99169921875</ele>
        <time>2010-09-19T11:54:54Z</time>
      </trkpt>
      <trkpt lat="46.23207" lon="5.77291">
        <ele>970.58813476562</ele>
        <time>2010-09-19T11:54:56Z</time>
      </trkpt>
      <trkpt lat="46.23182" lon="5.77279">
        <ele>969.626953125</ele>
        <time>2010-09-19T11:54:59Z</time>
      </trkpt>
      <trkpt lat="46.23148" lon="5.77251">
        <ele>967.2236328125</ele>
        <time>2010-09-19T11:55:03Z</time>
      </trkpt>
      <trkpt lat="46.2314" lon="5.77243">
        <ele>966.74291992188</ele>
        <time>2010-09-19T11:55:04Z</time>
      </trkpt>
      <trkpt lat="46.23126" lon="5.77224">
        <ele>965.30102539062</ele>
        <time>2010-09-19T11:55:06Z</time>
      </trkpt>
      <trkpt lat="46.23093" lon="5.77188">
        <ele>961.9365234375</ele>
        <time>2010-09-19T11:55:10Z</time>
      </trkpt>
      <trkpt lat="46.23077" lon="5.77174">
        <ele>960.013671875</ele>
        <time>2010-09-19T11:55:12Z</time>
      </trkpt>
      <trkpt lat="46.23063" lon="5.77142">
        <ele>955.68774414062</ele>
        <time>2010-09-19T11:55:16Z</time>
      </trkpt>
      <trkpt lat="46.23074" lon="5.77133">
        <ele>953.76513671875</ele>
        <time>2010-09-19T11:55:18Z</time>
      </trkpt>
      <trkpt lat="46.2308" lon="5.77135">
        <ele>953.76513671875</ele>
        <time>2010-09-19T11:55:19Z</time>
      </trkpt>
      <trkpt lat="46.23097" lon="5.77153">
        <ele>952.8037109375</ele>
        <time>2010-09-19T11:55:22Z</time>
      </trkpt>
      <trkpt lat="46.2312" lon="5.7717">
        <ele>951.84252929688</ele>
        <time>2010-09-19T11:55:26Z</time>
      </trkpt>
      <trkpt lat="46.23126" lon="5.77161">
        <ele>950.40063476562</ele>
        <time>2010-09-19T11:55:28Z</time>
      </trkpt>
      <trkpt lat="46.23125" lon="5.77146">
        <ele>948.95849609375</ele>
        <time>2010-09-19T11:55:30Z</time>
      </trkpt>
      <trkpt lat="46.23117" lon="5.7712">
        <ele>947.03588867188</ele>
        <time>2010-09-19T11:55:33Z</time>
      </trkpt>
      <trkpt lat="46.23087" lon="5.77094">
        <ele>944.15209960938</ele>
        <time>2010-09-19T11:55:37Z</time>
      </trkpt>
      <trkpt lat="46.23073" lon="5.77083">
        <ele>944.15209960938</ele>
        <time>2010-09-19T11:55:39Z</time>
      </trkpt>
      <trkpt lat="46.2305" lon="5.77059">
        <ele>942.71020507812</ele>
        <time>2010-09-19T11:55:43Z</time>
      </trkpt>
      <trkpt lat="46.23043" lon="5.77054">
        <ele>943.19067382812</ele>
        <time>2010-09-19T11:55:44Z</time>
      </trkpt>
      <trkpt lat="46.23016" lon="5.77024">
        <ele>941.74877929688</ele>
        <time>2010-09-19T11:55:49Z</time>
      </trkpt>
      <trkpt lat="46.22996" lon="5.76996">
        <ele>938.86474609375</ele>
        <time>2010-09-19T11:55:53Z</time>
      </trkpt>
      <trkpt lat="46.22991" lon="5.76971">
        <ele>936.94189453125</ele>
        <time>2010-09-19T11:55:56Z</time>
      </trkpt>
      <trkpt lat="46.22987" lon="5.76935">
        <ele>934.05810546875</ele>
        <time>2010-09-19T11:56:00Z</time>
      </trkpt>
      <trkpt lat="46.22988" lon="5.769">
        <ele>930.69360351562</ele>
        <time>2010-09-19T11:56:04Z</time>
      </trkpt>
      <trkpt lat="46.22979" lon="5.76867">
        <ele>927.3291015625</ele>
        <time>2010-09-19T11:56:08Z</time>
      </trkpt>
      <trkpt lat="46.22958" lon="5.76844">
        <ele>924.44506835938</ele>
        <time>2010-09-19T11:56:12Z</time>
      </trkpt>
      <trkpt lat="46.22941" lon="5.76815">
        <ele>920.11889648438</ele>
        <time>2010-09-19T11:56:16Z</time>
      </trkpt>
      <trkpt lat="46.22934" lon="5.76801">
        <ele>918.1962890625</ele>
        <time>2010-09-19T11:56:18Z</time>
      </trkpt>
      <trkpt lat="46.22929" lon="5.76786">
        <ele>917.23510742188</ele>
        <time>2010-09-19T11:56:20Z</time>
      </trkpt>
      <trkpt lat="46.2292" lon="5.76764">
        <ele>915.3125</ele>
        <time>2010-09-19T11:56:23Z</time>
      </trkpt>
      <trkpt lat="46.22911" lon="5.76743">
        <ele>911.46728515625</ele>
        <time>2010-09-19T11:56:26Z</time>
      </trkpt>
      <trkpt lat="46.22906" lon="5.76732">
        <ele>910.02514648438</ele>
        <time>2010-09-19T11:56:28Z</time>
      </trkpt>
      <trkpt lat="46.22893" lon="5.76706">
        <ele>906.1796875</ele>
        <time>2010-09-19T11:56:33Z</time>
      </trkpt>
      <trkpt lat="46.22892" lon="5.76684">
        <ele>902.33447265625</ele>
        <time>2010-09-19T11:56:37Z</time>
      </trkpt>
      <trkpt lat="46.22893" lon="5.76666">
        <ele>898.4892578125</ele>
        <time>2010-09-19T11:56:40Z</time>
      </trkpt>
      <trkpt lat="46.2289" lon="5.76642">
        <ele>896.08618164062</ele>
        <time>2010-09-19T11:56:44Z</time>
      </trkpt>
      <trkpt lat="46.22888" lon="5.76623">
        <ele>892.7216796875</ele>
        <time>2010-09-19T11:56:48Z</time>
      </trkpt>
      <trkpt lat="46.22889" lon="5.76614">
        <ele>889.83740234375</ele>
        <time>2010-09-19T11:56:50Z</time>
      </trkpt>
      <trkpt lat="46.22884" lon="5.76594">
        <ele>886.47290039062</ele>
        <time>2010-09-19T11:56:54Z</time>
      </trkpt>
      <trkpt lat="46.22883" lon="5.76583">
        <ele>883.5888671875</ele>
        <time>2010-09-19T11:56:56Z</time>
      </trkpt>
      <trkpt lat="46.22879" lon="5.76556">
        <ele>880.22436523438</ele>
        <time>2010-09-19T11:57:00Z</time>
      </trkpt>
      <trkpt lat="46.22875" lon="5.7654">
        <ele>875.89819335938</ele>
        <time>2010-09-19T11:57:03Z</time>
      </trkpt>
      <trkpt lat="46.22866" lon="5.76529">
        <ele>872.05297851562</ele>
        <time>2010-09-19T11:57:06Z</time>
      </trkpt>
      <trkpt lat="46.22857" lon="5.76509">
        <ele>867.72705078125</ele>
        <time>2010-09-19T11:57:10Z</time>
      </trkpt>
      <trkpt lat="46.22851" lon="5.76495">
        <ele>864.36254882812</ele>
        <time>2010-09-19T11:57:12Z</time>
      </trkpt>
      <trkpt lat="46.22842" lon="5.76481">
        <ele>860.998046875</ele>
        <time>2010-09-19T11:57:15Z</time>
      </trkpt>
      <trkpt lat="46.22832" lon="5.76459">
        <ele>857.15258789062</ele>
        <time>2010-09-19T11:57:19Z</time>
      </trkpt>
      <trkpt lat="46.22831" lon="5.76454">
        <ele>856.671875</ele>
        <time>2010-09-19T11:57:20Z</time>
      </trkpt>
      <trkpt lat="46.22831" lon="5.76447">
        <ele>855.71069335938</ele>
        <time>2010-09-19T11:57:22Z</time>
      </trkpt>
      <trkpt lat="46.2284" lon="5.76441">
        <ele>853.30737304688</ele>
        <time>2010-09-19T11:57:26Z</time>
      </trkpt>
      <trkpt lat="46.22844" lon="5.76439">
        <ele>851.86547851562</ele>
        <time>2010-09-19T11:57:27Z</time>
      </trkpt>
      <trkpt lat="46.22857" lon="5.76433">
        <ele>848.02026367188</ele>
        <time>2010-09-19T11:57:31Z</time>
      </trkpt>
      <trkpt lat="46.2286" lon="5.7643">
        <ele>846.57836914062</ele>
        <time>2010-09-19T11:57:34Z</time>
      </trkpt>
      <trkpt lat="46.22868" lon="5.76423">
        <ele>843.21337890625</ele>
        <time>2010-09-19T11:57:39Z</time>
      </trkpt>
      <trkpt lat="46.22876" lon="5.76418">
        <ele>840.32958984375</ele>
        <time>2010-09-19T11:57:42Z</time>
      </trkpt>
      <trkpt lat="46.22887" lon="5.76412">
        <ele>837.92626953125</ele>
        <time>2010-09-19T11:57:45Z</time>
      </trkpt>
      <trkpt lat="46.22895" lon="5.7641">
        <ele>836.484375</ele>
        <time>2010-09-19T11:57:47Z</time>
      </trkpt>
      <trkpt lat="46.22903" lon="5.76406">
        <ele>834.0810546875</ele>
        <time>2010-09-19T11:57:49Z</time>
      </trkpt>
      <trkpt lat="46.22924" lon="5.76406">
        <ele>830.71655273438</ele>
        <time>2010-09-19T11:57:54Z</time>
      </trkpt>
      <trkpt lat="46.2293" lon="5.764">
        <ele>827.83227539062</ele>
        <time>2010-09-19T11:57:57Z</time>
      </trkpt>
      <trkpt lat="46.2293" lon="5.76396">
        <ele>827.83227539062</ele>
        <time>2010-09-19T11:57:58Z</time>
      </trkpt>
      <trkpt lat="46.22925" lon="5.76381">
        <ele>823.50659179688</ele>
        <time>2010-09-19T11:58:01Z</time>
      </trkpt>
      <trkpt lat="46.22912" lon="5.76361">
        <ele>819.66137695312</ele>
        <time>2010-09-19T11:58:05Z</time>
      </trkpt>
      <trkpt lat="46.22908" lon="5.76356">
        <ele>819.1806640625</ele>
        <time>2010-09-19T11:58:06Z</time>
      </trkpt>
      <trkpt lat="46.22895" lon="5.76342">
        <ele>815.33544921875</ele>
        <time>2010-09-19T11:58:10Z</time>
      </trkpt>
      <trkpt lat="46.22882" lon="5.76325">
        <ele>811.00927734375</ele>
        <time>2010-09-19T11:58:14Z</time>
      </trkpt>
      <trkpt lat="46.22871" lon="5.76317">
        <ele>808.60595703125</ele>
        <time>2010-09-19T11:58:17Z</time>
      </trkpt>
      <trkpt lat="46.22865" lon="5.7631">
        <ele>807.1640625</ele>
        <time>2010-09-19T11:58:20Z</time>
      </trkpt>
      <trkpt lat="46.22855" lon="5.76302">
        <ele>803.79956054688</ele>
        <time>2010-09-19T11:58:25Z</time>
      </trkpt>
      <trkpt lat="46.22852" lon="5.763">
        <ele>803.79956054688</ele>
        <time>2010-09-19T11:58:26Z</time>
      </trkpt>
      <trkpt lat="46.22847" lon="5.76296">
        <ele>802.357421875</ele>
        <time>2010-09-19T11:58:29Z</time>
      </trkpt>
      <trkpt lat="46.22844" lon="5.76294">
        <ele>801.876953125</ele>
        <time>2010-09-19T11:58:31Z</time>
      </trkpt>
      <trkpt lat="46.22841" lon="5.76292">
        <ele>799.95434570312</ele>
        <time>2010-09-19T11:58:35Z</time>
      </trkpt>
      <trkpt lat="46.2284" lon="5.76292">
        <ele>800.43505859375</ele>
        <time>2010-09-19T11:58:37Z</time>
      </trkpt>
      <trkpt lat="46.22833" lon="5.76297">
        <ele>797.0703125</ele>
        <time>2010-09-19T11:58:43Z</time>
      </trkpt>
      <trkpt lat="46.22826" lon="5.763">
        <ele>794.18627929688</ele>
        <time>2010-09-19T11:58:48Z</time>
      </trkpt>
      <trkpt lat="46.22823" lon="5.76303">
        <ele>793.70556640625</ele>
        <time>2010-09-19T11:58:50Z</time>
      </trkpt>
      <trkpt lat="46.2282" lon="5.76298">
        <ele>792.263671875</ele>
        <time>2010-09-19T11:58:53Z</time>
      </trkpt>
      <trkpt lat="46.22815" lon="5.76288">
        <ele>791.78295898438</ele>
        <time>2010-09-19T11:58:57Z</time>
      </trkpt>
      <trkpt lat="46.22818" lon="5.7628">
        <ele>791.30224609375</ele>
        <time>2010-09-19T11:59:01Z</time>
      </trkpt>
      <trkpt lat="46.22824" lon="5.76271">
        <ele>792.74438476562</ele>
        <time>2010-09-19T11:59:06Z</time>
      </trkpt>
      <trkpt lat="46.22826" lon="5.76267">
        <ele>793.22485351562</ele>
        <time>2010-09-19T11:59:09Z</time>
      </trkpt>
      <trkpt lat="46.22827" lon="5.76257">
        <ele>793.22485351562</ele>
        <time>2010-09-19T11:59:12Z</time>
      </trkpt>
      <trkpt lat="46.22833" lon="5.76242">
        <ele>790.82153320312</ele>
        <time>2010-09-19T11:59:16Z</time>
      </trkpt>
      <trkpt lat="46.22836" lon="5.76218">
        <ele>786.97631835938</ele>
        <time>2010-09-19T11:59:21Z</time>
      </trkpt>
      <trkpt lat="46.22831" lon="5.76201">
        <ele>782.65063476562</ele>
        <time>2010-09-19T11:59:27Z</time>
      </trkpt>
      <trkpt lat="46.22827" lon="5.76189">
        <ele>779.28564453125</ele>
        <time>2010-09-19T11:59:31Z</time>
      </trkpt>
      <trkpt lat="46.22824" lon="5.76181">
        <ele>777.84375</ele>
        <time>2010-09-19T11:59:34Z</time>
      </trkpt>
      <trkpt lat="46.22818" lon="5.76173">
        <ele>774.9599609375</ele>
        <time>2010-09-19T11:59:38Z</time>
      </trkpt>
      <trkpt lat="46.2281" lon="5.76159">
        <ele>770.63403320312</ele>
        <time>2010-09-19T11:59:41Z</time>
      </trkpt>
      <trkpt lat="46.228" lon="5.76138">
        <ele>766.78881835938</ele>
        <time>2010-09-19T11:59:45Z</time>
      </trkpt>
      <trkpt lat="46.22791" lon="5.76122">
        <ele>763.42407226562</ele>
        <time>2010-09-19T11:59:49Z</time>
      </trkpt>
      <trkpt lat="46.22784" lon="5.76109">
        <ele>760.05932617188</ele>
        <time>2010-09-19T11:59:53Z</time>
      </trkpt>
      <trkpt lat="46.22774" lon="5.76099">
        <ele>757.17553710938</ele>
        <time>2010-09-19T11:59:57Z</time>
      </trkpt>
      <trkpt lat="46.22762" lon="5.76086">
        <ele>754.29174804688</ele>
        <time>2010-09-19T12:00:01Z</time>
      </trkpt>
      <trkpt lat="46.22753" lon="5.76068">
        <ele>753.33032226562</ele>
        <time>2010-09-19T12:00:05Z</time>
      </trkpt>
      <trkpt lat="46.22746" lon="5.76052">
        <ele>749.9658203125</ele>
        <time>2010-09-19T12:00:08Z</time>
      </trkpt>
      <trkpt lat="46.22735" lon="5.76034">
        <ele>746.60107421875</ele>
        <time>2010-09-19T12:00:11Z</time>
      </trkpt>
      <trkpt lat="46.22722" lon="5.76015">
        <ele>743.236328125</ele>
        <time>2010-09-19T12:00:15Z</time>
      </trkpt>
      <trkpt lat="46.22711" lon="5.75992">
        <ele>738.42993164062</ele>
        <time>2010-09-19T12:00:18Z</time>
      </trkpt>
      <trkpt lat="46.22701" lon="5.75975">
        <ele>734.58471679688</ele>
        <time>2010-09-19T12:00:20Z</time>
      </trkpt>
      <trkpt lat="46.22689" lon="5.75956">
        <ele>730.7392578125</ele>
        <time>2010-09-19T12:00:22Z</time>
      </trkpt>
      <trkpt lat="46.22672" lon="5.75933">
        <ele>724.97143554688</ele>
        <time>2010-09-19T12:00:25Z</time>
      </trkpt>
      <trkpt lat="46.22656" lon="5.75915">
        <ele>721.12622070312</ele>
        <time>2010-09-19T12:00:28Z</time>
      </trkpt>
      <trkpt lat="46.22645" lon="5.75898">
        <ele>716.31958007812</ele>
        <time>2010-09-19T12:00:31Z</time>
      </trkpt>
      <trkpt lat="46.22635" lon="5.75886">
        <ele>713.916015625</ele>
        <time>2010-09-19T12:00:33Z</time>
      </trkpt>
      <trkpt lat="46.22609" lon="5.75859">
        <ele>707.66772460938</ele>
        <time>2010-09-19T12:00:38Z</time>
      </trkpt>
      <trkpt lat="46.22599" lon="5.7585">
        <ele>704.30322265625</ele>
        <time>2010-09-19T12:00:40Z</time>
      </trkpt>
      <trkpt lat="46.2259" lon="5.75842">
        <ele>702.38037109375</ele>
        <time>2010-09-19T12:00:42Z</time>
      </trkpt>
      <trkpt lat="46.22578" lon="5.75829">
        <ele>697.09301757812</ele>
        <time>2010-09-19T12:00:46Z</time>
      </trkpt>
      <trkpt lat="46.22569" lon="5.75818">
        <ele>692.28662109375</ele>
        <time>2010-09-19T12:00:49Z</time>
      </trkpt>
      <trkpt lat="46.2256" lon="5.75811">
        <ele>688.44140625</ele>
        <time>2010-09-19T12:00:51Z</time>
      </trkpt>
      <trkpt lat="46.22543" lon="5.758">
        <ele>684.11547851562</ele>
        <time>2010-09-19T12:00:54Z</time>
      </trkpt>
      <trkpt lat="46.22533" lon="5.75793">
        <ele>681.2314453125</ele>
        <time>2010-09-19T12:00:56Z</time>
      </trkpt>
      <trkpt lat="46.22528" lon="5.75789">
        <ele>679.78930664062</ele>
        <time>2010-09-19T12:00:57Z</time>
      </trkpt>
      <trkpt lat="46.22511" lon="5.75779">
        <ele>675.94409179688</ele>
        <time>2010-09-19T12:01:00Z</time>
      </trkpt>
      <trkpt lat="46.22504" lon="5.75775">
        <ele>674.98291015625</ele>
        <time>2010-09-19T12:01:01Z</time>
      </trkpt>
      <trkpt lat="46.22481" lon="5.75756">
        <ele>669.69580078125</ele>
        <time>2010-09-19T12:01:06Z</time>
      </trkpt>
      <trkpt lat="46.22466" lon="5.75742">
        <ele>666.8115234375</ele>
        <time>2010-09-19T12:01:10Z</time>
      </trkpt>
      <trkpt lat="46.22456" lon="5.75731">
        <ele>663.92749023438</ele>
        <time>2010-09-19T12:01:13Z</time>
      </trkpt>
      <trkpt lat="46.22455" lon="5.75729">
        <ele>663.92749023438</ele>
        <time>2010-09-19T12:01:14Z</time>
      </trkpt>
      <trkpt lat="46.22451" lon="5.7572">
        <ele>662.48559570312</ele>
        <time>2010-09-19T12:01:19Z</time>
      </trkpt>
      <trkpt lat="46.22449" lon="5.75707">
        <ele>659.12109375</ele>
        <time>2010-09-19T12:01:23Z</time>
      </trkpt>
      <trkpt lat="46.22446" lon="5.75697">
        <ele>657.19848632812</ele>
        <time>2010-09-19T12:01:25Z</time>
      </trkpt>
      <trkpt lat="46.22427" lon="5.75679">
        <ele>656.23706054688</ele>
        <time>2010-09-19T12:01:29Z</time>
      </trkpt>
      <trkpt lat="46.224" lon="5.75659">
        <ele>653.833984375</ele>
        <time>2010-09-19T12:01:34Z</time>
      </trkpt>
      <trkpt lat="46.22387" lon="5.75649">
        <ele>651.9111328125</ele>
        <time>2010-09-19T12:01:36Z</time>
      </trkpt>
      <trkpt lat="46.22375" lon="5.7564">
        <ele>650.94970703125</ele>
        <time>2010-09-19T12:01:38Z</time>
      </trkpt>
      <trkpt lat="46.22341" lon="5.75616">
        <ele>649.02709960938</ele>
        <time>2010-09-19T12:01:43Z</time>
      </trkpt>
      <trkpt lat="46.22304" lon="5.75582">
        <ele>646.14331054688</ele>
        <time>2010-09-19T12:01:48Z</time>
      </trkpt>
      <trkpt lat="46.22293" lon="5.75572">
        <ele>644.701171875</ele>
        <time>2010-09-19T12:01:50Z</time>
      </trkpt>
      <trkpt lat="46.2226" lon="5.75539">
        <ele>642.77880859375</ele>
        <time>2010-09-19T12:01:55Z</time>
      </trkpt>
      <trkpt lat="46.22248" lon="5.75531">
        <ele>641.33666992188</ele>
        <time>2010-09-19T12:01:57Z</time>
      </trkpt>
      <trkpt lat="46.2222" lon="5.75507">
        <ele>638.93359375</ele>
        <time>2010-09-19T12:02:01Z</time>
      </trkpt>
      <trkpt lat="46.22214" lon="5.755">
        <ele>637.97216796875</ele>
        <time>2010-09-19T12:02:02Z</time>
      </trkpt>
      <trkpt lat="46.22187" lon="5.75473">
        <ele>636.5302734375</ele>
        <time>2010-09-19T12:02:06Z</time>
      </trkpt>
      <trkpt lat="46.22174" lon="5.75458">
        <ele>635.08813476562</ele>
        <time>2010-09-19T12:02:08Z</time>
      </trkpt>
      <trkpt lat="46.22149" lon="5.75424">
        <ele>633.64599609375</ele>
        <time>2010-09-19T12:02:12Z</time>
      </trkpt>
      <trkpt lat="46.22136" lon="5.7541">
        <ele>632.68481445312</ele>
        <time>2010-09-19T12:02:14Z</time>
      </trkpt>
      <trkpt lat="46.22104" lon="5.75374">
        <ele>629.32006835938</ele>
        <time>2010-09-19T12:02:19Z</time>
      </trkpt>
      <trkpt lat="46.22069" lon="5.7535">
        <ele>627.39770507812</ele>
        <time>2010-09-19T12:02:23Z</time>
      </trkpt>
      <trkpt lat="46.22053" lon="5.75342">
        <ele>624.99438476562</ele>
        <time>2010-09-19T12:02:25Z</time>
      </trkpt>
      <trkpt lat="46.22038" lon="5.75319">
        <ele>622.1103515625</ele>
        <time>2010-09-19T12:02:29Z</time>
      </trkpt>
      <trkpt lat="46.22034" lon="5.75312">
        <ele>621.62963867188</ele>
        <time>2010-09-19T12:02:30Z</time>
      </trkpt>
      <trkpt lat="46.22015" lon="5.75287">
        <ele>620.18774414062</ele>
        <time>2010-09-19T12:02:34Z</time>
      </trkpt>
      <trkpt lat="46.22001" lon="5.75276">
        <ele>618.74560546875</ele>
        <time>2010-09-19T12:02:36Z</time>
      </trkpt>
      <trkpt lat="46.21988" lon="5.75266">
        <ele>616.82299804688</ele>
        <time>2010-09-19T12:02:38Z</time>
      </trkpt>
      <trkpt lat="46.21967" lon="5.75246">
        <ele>615.38110351562</ele>
        <time>2010-09-19T12:02:41Z</time>
      </trkpt>
      <trkpt lat="46.21938" lon="5.75229">
        <ele>614.900390625</ele>
        <time>2010-09-19T12:02:45Z</time>
      </trkpt>
      <trkpt lat="46.21903" lon="5.75215">
        <ele>612.97778320312</ele>
        <time>2010-09-19T12:02:50Z</time>
      </trkpt>
      <trkpt lat="46.21888" lon="5.75206">
        <ele>611.05517578125</ele>
        <time>2010-09-19T12:02:52Z</time>
      </trkpt>
      <trkpt lat="46.21854" lon="5.75194">
        <ele>610.09375</ele>
        <time>2010-09-19T12:02:56Z</time>
      </trkpt>
      <trkpt lat="46.21814" lon="5.7519">
        <ele>609.13256835938</ele>
        <time>2010-09-19T12:03:01Z</time>
      </trkpt>
      <trkpt lat="46.21778" lon="5.75189">
        <ele>608.65185546875</ele>
        <time>2010-09-19T12:03:06Z</time>
      </trkpt>
      <trkpt lat="46.21745" lon="5.75191">
        <ele>608.65185546875</ele>
        <time>2010-09-19T12:03:11Z</time>
      </trkpt>
      <trkpt lat="46.21729" lon="5.7519">
        <ele>609.61328125</ele>
        <time>2010-09-19T12:03:15Z</time>
      </trkpt>
      <trkpt lat="46.21714" lon="5.75186">
        <ele>610.09375</ele>
        <time>2010-09-19T12:03:19Z</time>
      </trkpt>
      <trkpt lat="46.2168" lon="5.75181">
        <ele>609.13256835938</ele>
        <time>2010-09-19T12:03:26Z</time>
      </trkpt>
      <trkpt lat="46.21654" lon="5.75176">
        <ele>608.65185546875</ele>
        <time>2010-09-19T12:03:31Z</time>
      </trkpt>
      <trkpt lat="46.21629" lon="5.7517">
        <ele>608.65185546875</ele>
        <time>2010-09-19T12:03:36Z</time>
      </trkpt>
      <trkpt lat="46.21601" lon="5.75169">
        <ele>609.13256835938</ele>
        <time>2010-09-19T12:03:42Z</time>
      </trkpt>
      <trkpt lat="46.21573" lon="5.75167">
        <ele>610.09375</ele>
        <time>2010-09-19T12:03:49Z</time>
      </trkpt>
      <trkpt lat="46.21546" lon="5.75176">
        <ele>610.57446289062</ele>
        <time>2010-09-19T12:03:56Z</time>
      </trkpt>
      <trkpt lat="46.21542" lon="5.75178">
        <ele>610.09375</ele>
        <time>2010-09-19T12:03:57Z</time>
      </trkpt>
      <trkpt lat="46.21522" lon="5.75189">
        <ele>608.65185546875</ele>
        <time>2010-09-19T12:04:01Z</time>
      </trkpt>
      <trkpt lat="46.215" lon="5.75201">
        <ele>607.2099609375</ele>
        <time>2010-09-19T12:04:05Z</time>
      </trkpt>
      <trkpt lat="46.21488" lon="5.75205">
        <ele>607.69067382812</ele>
        <time>2010-09-19T12:04:07Z</time>
      </trkpt>
      <trkpt lat="46.21464" lon="5.75211">
        <ele>608.17138671875</ele>
        <time>2010-09-19T12:04:12Z</time>
      </trkpt>
      <trkpt lat="46.21437" lon="5.75214">
        <ele>608.65185546875</ele>
        <time>2010-09-19T12:04:18Z</time>
      </trkpt>
      <trkpt lat="46.21429" lon="5.75215">
        <ele>608.65185546875</ele>
        <time>2010-09-19T12:04:20Z</time>
      </trkpt>
      <trkpt lat="46.21394" lon="5.75225">
        <ele>606.24853515625</ele>
        <time>2010-09-19T12:04:27Z</time>
      </trkpt>
      <trkpt lat="46.21354" lon="5.75237">
        <ele>605.76806640625</ele>
        <time>2010-09-19T12:04:34Z</time>
      </trkpt>
      <trkpt lat="46.21326" lon="5.75242">
        <ele>606.24853515625</ele>
        <time>2010-09-19T12:04:40Z</time>
      </trkpt>
      <trkpt lat="46.21305" lon="5.75245">
        <ele>606.72924804688</ele>
        <time>2010-09-19T12:04:44Z</time>
      </trkpt>
      <trkpt lat="46.21269" lon="5.75254">
        <ele>606.24853515625</ele>
        <time>2010-09-19T12:04:51Z</time>
      </trkpt>
      <trkpt lat="46.21234" lon="5.75267">
        <ele>603.84521484375</ele>
        <time>2010-09-19T12:04:58Z</time>
      </trkpt>
      <trkpt lat="46.21202" lon="5.75286">
        <ele>602.40307617188</ele>
        <time>2010-09-19T12:05:04Z</time>
      </trkpt>
      <trkpt lat="46.21175" lon="5.75304">
        <ele>603.36450195312</ele>
        <time>2010-09-19T12:05:10Z</time>
      </trkpt>
      <trkpt lat="46.21146" lon="5.7532">
        <ele>604.806640625</ele>
        <time>2010-09-19T12:05:17Z</time>
      </trkpt>
      <trkpt lat="46.21129" lon="5.75334">
        <ele>605.28735351562</ele>
        <time>2010-09-19T12:05:22Z</time>
      </trkpt>
      <trkpt lat="46.21099" lon="5.75363">
        <ele>603.36450195312</ele>
        <time>2010-09-19T12:05:28Z</time>
      </trkpt>
      <trkpt lat="46.21072" lon="5.75384">
        <ele>603.36450195312</ele>
        <time>2010-09-19T12:05:33Z</time>
      </trkpt>
      <trkpt lat="46.21069" lon="5.75385">
        <ele>603.36450195312</ele>
        <time>2010-09-19T12:05:34Z</time>
      </trkpt>
      <trkpt lat="46.21052" lon="5.75397">
        <ele>604.326171875</ele>
        <time>2010-09-19T12:05:39Z</time>
      </trkpt>
      <trkpt lat="46.21045" lon="5.75403">
        <ele>604.326171875</ele>
        <time>2010-09-19T12:05:41Z</time>
      </trkpt>
      <trkpt lat="46.21027" lon="5.75415">
        <ele>603.84521484375</ele>
        <time>2010-09-19T12:05:46Z</time>
      </trkpt>
      <trkpt lat="46.2101" lon="5.75428">
        <ele>602.8837890625</ele>
        <time>2010-09-19T12:05:50Z</time>
      </trkpt>
      <trkpt lat="46.20994" lon="5.75442">
        <ele>602.40307617188</ele>
        <time>2010-09-19T12:05:55Z</time>
      </trkpt>
      <trkpt lat="46.20979" lon="5.75455">
        <ele>602.40307617188</ele>
        <time>2010-09-19T12:06:00Z</time>
      </trkpt>
      <trkpt lat="46.20961" lon="5.7547">
        <ele>602.40307617188</ele>
        <time>2010-09-19T12:06:06Z</time>
      </trkpt>
      <trkpt lat="46.20946" lon="5.75484">
        <ele>602.40307617188</ele>
        <time>2010-09-19T12:06:10Z</time>
      </trkpt>
      <trkpt lat="46.20931" lon="5.755">
        <ele>603.36450195312</ele>
        <time>2010-09-19T12:06:15Z</time>
      </trkpt>
      <trkpt lat="46.20917" lon="5.7551">
        <ele>604.326171875</ele>
        <time>2010-09-19T12:06:20Z</time>
      </trkpt>
      <trkpt lat="46.20904" lon="5.75523">
        <ele>604.806640625</ele>
        <time>2010-09-19T12:06:24Z</time>
      </trkpt>
      <trkpt lat="46.20893" lon="5.75536">
        <ele>604.806640625</ele>
        <time>2010-09-19T12:06:27Z</time>
      </trkpt>
      <trkpt lat="46.20877" lon="5.75558">
        <ele>606.24853515625</ele>
        <time>2010-09-19T12:06:33Z</time>
      </trkpt>
      <trkpt lat="46.20873" lon="5.75562">
        <ele>606.72924804688</ele>
        <time>2010-09-19T12:06:35Z</time>
      </trkpt>
      <trkpt lat="46.20863" lon="5.75579">
        <ele>607.2099609375</ele>
        <time>2010-09-19T12:06:42Z</time>
      </trkpt>
      <trkpt lat="46.20854" lon="5.75588">
        <ele>608.17138671875</ele>
        <time>2010-09-19T12:06:48Z</time>
      </trkpt>
      <trkpt lat="46.20845" lon="5.75596">
        <ele>610.57446289062</ele>
        <time>2010-09-19T12:06:56Z</time>
      </trkpt>
      <trkpt lat="46.20843" lon="5.75598">
        <ele>611.05517578125</ele>
        <time>2010-09-19T12:06:59Z</time>
      </trkpt>
      <trkpt lat="46.20839" lon="5.75605">
        <ele>611.53588867188</ele>
        <time>2010-09-19T12:07:04Z</time>
      </trkpt>
      <trkpt lat="46.20838" lon="5.75613">
        <ele>612.97778320312</ele>
        <time>2010-09-19T12:07:09Z</time>
      </trkpt>
      <trkpt lat="46.20834" lon="5.75614">
        <ele>612.97778320312</ele>
        <time>2010-09-19T12:07:12Z</time>
      </trkpt>
      <trkpt lat="46.20825" lon="5.75624">
        <ele>614.41967773438</ele>
        <time>2010-09-19T12:07:19Z</time>
      </trkpt>
      <trkpt lat="46.20823" lon="5.75629">
        <ele>615.38110351562</ele>
        <time>2010-09-19T12:07:22Z</time>
      </trkpt>
      <trkpt lat="46.20823" lon="5.75637">
        <ele>615.86181640625</ele>
        <time>2010-09-19T12:07:25Z</time>
      </trkpt>
      <trkpt lat="46.20816" lon="5.75648">
        <ele>615.86181640625</ele>
        <time>2010-09-19T12:07:30Z</time>
      </trkpt>
      <trkpt lat="46.20812" lon="5.75649">
        <ele>616.82299804688</ele>
        <time>2010-09-19T12:07:36Z</time>
      </trkpt>
      <trkpt lat="46.20813" lon="5.75643">
        <ele>617.3037109375</ele>
        <time>2010-09-19T12:07:41Z</time>
      </trkpt>
      <trkpt lat="46.20811" lon="5.75622">
        <ele>616.82299804688</ele>
        <time>2010-09-19T12:07:46Z</time>
      </trkpt>
      <trkpt lat="46.20804" lon="5.75596">
        <ele>615.86181640625</ele>
        <time>2010-09-19T12:07:51Z</time>
      </trkpt>
      <trkpt lat="46.20795" lon="5.75589">
        <ele>616.34228515625</ele>
        <time>2010-09-19T12:07:55Z</time>
      </trkpt>
      <trkpt lat="46.20781" lon="5.75593">
        <ele>616.82299804688</ele>
        <time>2010-09-19T12:07:59Z</time>
      </trkpt>
      <trkpt lat="46.2077" lon="5.75599">
        <ele>617.7841796875</ele>
        <time>2010-09-19T12:08:03Z</time>
      </trkpt>
      <trkpt lat="46.20758" lon="5.75607">
        <ele>618.26489257812</ele>
        <time>2010-09-19T12:08:08Z</time>
      </trkpt>
      <trkpt lat="46.20743" lon="5.75614">
        <ele>618.26489257812</ele>
        <time>2010-09-19T12:08:13Z</time>
      </trkpt>
      <trkpt lat="46.2073" lon="5.75615">
        <ele>619.22631835938</ele>
        <time>2010-09-19T12:08:17Z</time>
      </trkpt>
      <trkpt lat="46.20706" lon="5.75617">
        <ele>619.70703125</ele>
        <time>2010-09-19T12:08:23Z</time>
      </trkpt>
      <trkpt lat="46.20686" lon="5.75618">
        <ele>619.70703125</ele>
        <time>2010-09-19T12:08:28Z</time>
      </trkpt>
      <trkpt lat="46.2067" lon="5.75616">
        <ele>619.70703125</ele>
        <time>2010-09-19T12:08:32Z</time>
      </trkpt>
      <trkpt lat="46.20653" lon="5.75593">
        <ele>616.82299804688</ele>
        <time>2010-09-19T12:08:36Z</time>
      </trkpt>
      <trkpt lat="46.20638" lon="5.75552">
        <ele>612.0166015625</ele>
        <time>2010-09-19T12:08:40Z</time>
      </trkpt>
      <trkpt lat="46.20629" lon="5.7553">
        <ele>609.13256835938</ele>
        <time>2010-09-19T12:08:42Z</time>
      </trkpt>
      <trkpt lat="46.20602" lon="5.75479">
        <ele>603.84521484375</ele>
        <time>2010-09-19T12:08:46Z</time>
      </trkpt>
      <trkpt lat="46.20581" lon="5.75444">
        <ele>600.48071289062</ele>
        <time>2010-09-19T12:08:49Z</time>
      </trkpt>
      <trkpt lat="46.20554" lon="5.75397">
        <ele>597.11596679688</ele>
        <time>2010-09-19T12:08:53Z</time>
      </trkpt>
      <trkpt lat="46.20531" lon="5.75344">
        <ele>593.75146484375</ele>
        <time>2010-09-19T12:08:57Z</time>
      </trkpt>
      <trkpt lat="46.20504" lon="5.75302">
        <ele>592.79028320312</ele>
        <time>2010-09-19T12:09:01Z</time>
      </trkpt>
      <trkpt lat="46.20491" lon="5.75289">
        <ele>591.34814453125</ele>
        <time>2010-09-19T12:09:03Z</time>
      </trkpt>
      <trkpt lat="46.20473" lon="5.75271">
        <ele>590.86743164062</ele>
        <time>2010-09-19T12:09:07Z</time>
      </trkpt>
      <trkpt lat="46.20461" lon="5.7526">
        <ele>590.38696289062</ele>
        <time>2010-09-19T12:09:12Z</time>
      </trkpt>
      <trkpt lat="46.2044" lon="5.75237">
        <ele>588.94506835938</ele>
        <time>2010-09-19T12:09:18Z</time>
      </trkpt>
      <trkpt lat="46.20414" lon="5.75206">
        <ele>589.42553710938</ele>
        <time>2010-09-19T12:09:25Z</time>
      </trkpt>
      <trkpt lat="46.20388" lon="5.75175">
        <ele>589.90625</ele>
        <time>2010-09-19T12:09:33Z</time>
      </trkpt>
      <trkpt lat="46.20368" lon="5.75151">
        <ele>590.38696289062</ele>
        <time>2010-09-19T12:09:40Z</time>
      </trkpt>
      <trkpt lat="46.20358" lon="5.75134">
        <ele>591.82885742188</ele>
        <time>2010-09-19T12:09:46Z</time>
      </trkpt>
      <trkpt lat="46.20346" lon="5.75113">
        <ele>592.79028320312</ele>
        <time>2010-09-19T12:09:53Z</time>
      </trkpt>
      <trkpt lat="46.20333" lon="5.75097">
        <ele>593.75146484375</ele>
        <time>2010-09-19T12:10:00Z</time>
      </trkpt>
      <trkpt lat="46.20321" lon="5.75086">
        <ele>595.193359375</ele>
        <time>2010-09-19T12:10:08Z</time>
      </trkpt>
      <trkpt lat="46.20309" lon="5.75078">
        <ele>595.67407226562</ele>
        <time>2010-09-19T12:10:14Z</time>
      </trkpt>
      <trkpt lat="46.20297" lon="5.75073">
        <ele>597.11596679688</ele>
        <time>2010-09-19T12:10:21Z</time>
      </trkpt>
      <trkpt lat="46.20284" lon="5.75069">
        <ele>599.03857421875</ele>
        <time>2010-09-19T12:10:29Z</time>
      </trkpt>
      <trkpt lat="46.20271" lon="5.75063">
        <ele>600</ele>
        <time>2010-09-19T12:10:38Z</time>
      </trkpt>
      <trkpt lat="46.20262" lon="5.75059">
        <ele>601.44189453125</ele>
        <time>2010-09-19T12:10:45Z</time>
      </trkpt>
      <trkpt lat="46.20252" lon="5.75055">
        <ele>602.40307617188</ele>
        <time>2010-09-19T12:10:54Z</time>
      </trkpt>
      <trkpt lat="46.2024" lon="5.75055">
        <ele>603.36450195312</ele>
        <time>2010-09-19T12:11:00Z</time>
      </trkpt>
      <trkpt lat="46.20231" lon="5.75057">
        <ele>604.326171875</ele>
        <time>2010-09-19T12:11:07Z</time>
      </trkpt>
      <trkpt lat="46.20226" lon="5.75058">
        <ele>605.76806640625</ele>
        <time>2010-09-19T12:11:12Z</time>
      </trkpt>
      <trkpt lat="46.20222" lon="5.75057">
        <ele>606.24853515625</ele>
        <time>2010-09-19T12:11:16Z</time>
      </trkpt>
      <trkpt lat="46.20213" lon="5.75052">
        <ele>608.17138671875</ele>
        <time>2010-09-19T12:11:22Z</time>
      </trkpt>
      <trkpt lat="46.20202" lon="5.75048">
        <ele>608.65185546875</ele>
        <time>2010-09-19T12:11:27Z</time>
      </trkpt>
      <trkpt lat="46.2019" lon="5.75041">
        <ele>609.13256835938</ele>
        <time>2010-09-19T12:11:33Z</time>
      </trkpt>
      <trkpt lat="46.2017" lon="5.75024">
        <ele>609.13256835938</ele>
        <time>2010-09-19T12:11:41Z</time>
      </trkpt>
      <trkpt lat="46.20151" lon="5.75005">
        <ele>610.09375</ele>
        <time>2010-09-19T12:11:49Z</time>
      </trkpt>
      <trkpt lat="46.20133" lon="5.7499">
        <ele>610.09375</ele>
        <time>2010-09-19T12:11:56Z</time>
      </trkpt>
      <trkpt lat="46.20115" lon="5.74976">
        <ele>609.61328125</ele>
        <time>2010-09-19T12:12:02Z</time>
      </trkpt>
      <trkpt lat="46.2009" lon="5.74954">
        <ele>609.61328125</ele>
        <time>2010-09-19T12:12:11Z</time>
      </trkpt>
      <trkpt lat="46.20065" lon="5.74932">
        <ele>610.09375</ele>
        <time>2010-09-19T12:12:20Z</time>
      </trkpt>
      <trkpt lat="46.2004" lon="5.74912">
        <ele>610.57446289062</ele>
        <time>2010-09-19T12:12:28Z</time>
      </trkpt>
      <trkpt lat="46.20023" lon="5.74899">
        <ele>611.05517578125</ele>
        <time>2010-09-19T12:12:34Z</time>
      </trkpt>
      <trkpt lat="46.20005" lon="5.74891">
        <ele>611.53588867188</ele>
        <time>2010-09-19T12:12:41Z</time>
      </trkpt>
      <trkpt lat="46.19988" lon="5.74895">
        <ele>611.53588867188</ele>
        <time>2010-09-19T12:12:46Z</time>
      </trkpt>
      <trkpt lat="46.19986" lon="5.74896">
        <ele>611.05517578125</ele>
        <time>2010-09-19T12:12:47Z</time>
      </trkpt>
      <trkpt lat="46.19982" lon="5.74885">
        <ele>612.0166015625</ele>
        <time>2010-09-19T12:12:52Z</time>
      </trkpt>
      <trkpt lat="46.19984" lon="5.74881">
        <ele>612.0166015625</ele>
        <time>2010-09-19T12:12:53Z</time>
      </trkpt>
      <trkpt lat="46.19986" lon="5.74862">
        <ele>612.4970703125</ele>
        <time>2010-09-19T12:12:59Z</time>
      </trkpt>
      <trkpt lat="46.19969" lon="5.74852">
        <ele>613.45849609375</ele>
        <time>2010-09-19T12:13:06Z</time>
      </trkpt>
      <trkpt lat="46.1996" lon="5.74847">
        <ele>613.93896484375</ele>
        <time>2010-09-19T12:13:10Z</time>
      </trkpt>
      <trkpt lat="46.19943" lon="5.7484">
        <ele>613.45849609375</ele>
        <time>2010-09-19T12:13:17Z</time>
      </trkpt>
      <trkpt lat="46.19928" lon="5.74832">
        <ele>612.97778320312</ele>
        <time>2010-09-19T12:13:21Z</time>
      </trkpt>
      <trkpt lat="46.19905" lon="5.74823">
        <ele>612.97778320312</ele>
        <time>2010-09-19T12:13:26Z</time>
      </trkpt>
      <trkpt lat="46.19884" lon="5.74811">
        <ele>612.4970703125</ele>
        <time>2010-09-19T12:13:31Z</time>
      </trkpt>
      <trkpt lat="46.19867" lon="5.748">
        <ele>614.900390625</ele>
        <time>2010-09-19T12:13:36Z</time>
      </trkpt>
      <trkpt lat="46.19851" lon="5.74788">
        <ele>614.41967773438</ele>
        <time>2010-09-19T12:13:41Z</time>
      </trkpt>
      <trkpt lat="46.19831" lon="5.74776">
        <ele>614.900390625</ele>
        <time>2010-09-19T12:13:47Z</time>
      </trkpt>
      <trkpt lat="46.19815" lon="5.74766">
        <ele>614.900390625</ele>
        <time>2010-09-19T12:13:52Z</time>
      </trkpt>
      <trkpt lat="46.19802" lon="5.74758">
        <ele>614.900390625</ele>
        <time>2010-09-19T12:13:56Z</time>
      </trkpt>
      <trkpt lat="46.19783" lon="5.74749">
        <ele>614.900390625</ele>
        <time>2010-09-19T12:14:02Z</time>
      </trkpt>
      <trkpt lat="46.19759" lon="5.7474">
        <ele>615.86181640625</ele>
        <time>2010-09-19T12:14:09Z</time>
      </trkpt>
      <trkpt lat="46.19744" lon="5.74732">
        <ele>615.86181640625</ele>
        <time>2010-09-19T12:14:13Z</time>
      </trkpt>
      <trkpt lat="46.19722" lon="5.74714">
        <ele>615.38110351562</ele>
        <time>2010-09-19T12:14:19Z</time>
      </trkpt>
      <trkpt lat="46.19702" lon="5.74703">
        <ele>615.86181640625</ele>
        <time>2010-09-19T12:14:24Z</time>
      </trkpt>
      <trkpt lat="46.19686" lon="5.747">
        <ele>614.41967773438</ele>
        <time>2010-09-19T12:14:29Z</time>
      </trkpt>
      <trkpt lat="46.19675" lon="5.74702">
        <ele>613.93896484375</ele>
        <time>2010-09-19T12:14:31Z</time>
      </trkpt>
      <trkpt lat="46.19659" lon="5.74684">
        <ele>613.93896484375</ele>
        <time>2010-09-19T12:14:35Z</time>
      </trkpt>
      <trkpt lat="46.1965" lon="5.74672">
        <ele>615.38110351562</ele>
        <time>2010-09-19T12:14:38Z</time>
      </trkpt>
      <trkpt lat="46.19635" lon="5.74656">
        <ele>614.900390625</ele>
        <time>2010-09-19T12:14:43Z</time>
      </trkpt>
      <trkpt lat="46.19616" lon="5.74635">
        <ele>613.93896484375</ele>
        <time>2010-09-19T12:14:49Z</time>
      </trkpt>
      <trkpt lat="46.19598" lon="5.74619">
        <ele>613.45849609375</ele>
        <time>2010-09-19T12:14:53Z</time>
      </trkpt>
      <trkpt lat="46.19573" lon="5.74602">
        <ele>613.93896484375</ele>
        <time>2010-09-19T12:14:58Z</time>
      </trkpt>
      <trkpt lat="46.19554" lon="5.74592">
        <ele>613.45849609375</ele>
        <time>2010-09-19T12:15:02Z</time>
      </trkpt>
      <trkpt lat="46.1954" lon="5.74585">
        <ele>614.41967773438</ele>
        <time>2010-09-19T12:15:05Z</time>
      </trkpt>
      <trkpt lat="46.19535" lon="5.74578">
        <ele>613.45849609375</ele>
        <time>2010-09-19T12:15:07Z</time>
      </trkpt>
      <trkpt lat="46.19522" lon="5.7455">
        <ele>609.13256835938</ele>
        <time>2010-09-19T12:15:11Z</time>
      </trkpt>
      <trkpt lat="46.19515" lon="5.7453">
        <ele>607.69067382812</ele>
        <time>2010-09-19T12:15:13Z</time>
      </trkpt>
      <trkpt lat="46.19501" lon="5.74504">
        <ele>605.76806640625</ele>
        <time>2010-09-19T12:15:16Z</time>
      </trkpt>
      <trkpt lat="46.19494" lon="5.74499">
        <ele>606.24853515625</ele>
        <time>2010-09-19T12:15:17Z</time>
      </trkpt>
      <trkpt lat="46.19487" lon="5.74496">
        <ele>605.76806640625</ele>
        <time>2010-09-19T12:15:18Z</time>
      </trkpt>
      <trkpt lat="46.19436" lon="5.74469">
        <ele>602.8837890625</ele>
        <time>2010-09-19T12:15:25Z</time>
      </trkpt>
      <trkpt lat="46.19422" lon="5.74458">
        <ele>601.44189453125</ele>
        <time>2010-09-19T12:15:27Z</time>
      </trkpt>
      <trkpt lat="46.19399" lon="5.74423">
        <ele>599.51928710938</ele>
        <time>2010-09-19T12:15:31Z</time>
      </trkpt>
      <trkpt lat="46.19374" lon="5.74371">
        <ele>596.15478515625</ele>
        <time>2010-09-19T12:15:36Z</time>
      </trkpt>
      <trkpt lat="46.19344" lon="5.74303">
        <ele>593.27075195312</ele>
        <time>2010-09-19T12:15:42Z</time>
      </trkpt>
      <trkpt lat="46.19317" lon="5.74246">
        <ele>588.94506835938</ele>
        <time>2010-09-19T12:15:47Z</time>
      </trkpt>
      <trkpt lat="46.19316" lon="5.74209">
        <ele>587.9833984375</ele>
        <time>2010-09-19T12:15:51Z</time>
      </trkpt>
      <trkpt lat="46.19322" lon="5.74205">
        <ele>587.50268554688</ele>
        <time>2010-09-19T12:15:52Z</time>
      </trkpt>
      <trkpt lat="46.1934" lon="5.74195">
        <ele>586.54150390625</ele>
        <time>2010-09-19T12:15:55Z</time>
      </trkpt>
      <trkpt lat="46.19351" lon="5.7418">
        <ele>584.61889648438</ele>
        <time>2010-09-19T12:15:57Z</time>
      </trkpt>
      <trkpt lat="46.19362" lon="5.74163">
        <ele>582.6962890625</ele>
        <time>2010-09-19T12:15:59Z</time>
      </trkpt>
      <trkpt lat="46.19376" lon="5.74134">
        <ele>578.85107421875</ele>
        <time>2010-09-19T12:16:02Z</time>
      </trkpt>
      <trkpt lat="46.1939" lon="5.74109">
        <ele>575.005859375</ele>
        <time>2010-09-19T12:16:05Z</time>
      </trkpt>
      <trkpt lat="46.19413" lon="5.74103">
        <ele>571.64086914062</ele>
        <time>2010-09-19T12:16:08Z</time>
      </trkpt>
      <trkpt lat="46.19414" lon="5.74131">
        <ele>569.71850585938</ele>
        <time>2010-09-19T12:16:10Z</time>
      </trkpt>
      <trkpt lat="46.19413" lon="5.74158">
        <ele>567.31518554688</ele>
        <time>2010-09-19T12:16:12Z</time>
      </trkpt>
      <trkpt lat="46.19415" lon="5.74194">
        <ele>563.95043945312</ele>
        <time>2010-09-19T12:16:15Z</time>
      </trkpt>
      <trkpt lat="46.19415" lon="5.74208">
        <ele>562.50854492188</ele>
        <time>2010-09-19T12:16:16Z</time>
      </trkpt>
      <trkpt lat="46.19434" lon="5.74235">
        <ele>557.7021484375</ele>
        <time>2010-09-19T12:16:19Z</time>
      </trkpt>
      <trkpt lat="46.19439" lon="5.74239">
        <ele>554.81787109375</ele>
        <time>2010-09-19T12:16:21Z</time>
      </trkpt>
      <trkpt lat="46.19449" lon="5.7424">
        <ele>551.45336914062</ele>
        <time>2010-09-19T12:16:24Z</time>
      </trkpt>
      <trkpt lat="46.1946" lon="5.74226">
        <ele>549.05004882812</ele>
        <time>2010-09-19T12:16:26Z</time>
      </trkpt>
      <trkpt lat="46.19463" lon="5.74179">
        <ele>542.80151367188</ele>
        <time>2010-09-19T12:16:31Z</time>
      </trkpt>
      <trkpt lat="46.19468" lon="5.74146">
        <ele>540.39831542969</ele>
        <time>2010-09-19T12:16:33Z</time>
      </trkpt>
      <trkpt lat="46.19473" lon="5.74117">
        <ele>538.47570800781</ele>
        <time>2010-09-19T12:16:35Z</time>
      </trkpt>
      <trkpt lat="46.19497" lon="5.7411">
        <ele>536.07238769531</ele>
        <time>2010-09-19T12:16:38Z</time>
      </trkpt>
      <trkpt lat="46.19535" lon="5.74108">
        <ele>537.03369140625</ele>
        <time>2010-09-19T12:16:43Z</time>
      </trkpt>
      <trkpt lat="46.19554" lon="5.74111">
        <ele>538.47570800781</ele>
        <time>2010-09-19T12:16:47Z</time>
      </trkpt>
      <trkpt lat="46.19577" lon="5.74133">
        <ele>538.95629882812</ele>
        <time>2010-09-19T12:16:52Z</time>
      </trkpt>
      <trkpt lat="46.19582" lon="5.74154">
        <ele>539.43688964844</ele>
        <time>2010-09-19T12:16:57Z</time>
      </trkpt>
      <trkpt lat="46.19581" lon="5.74173">
        <ele>540.87890625</ele>
        <time>2010-09-19T12:17:02Z</time>
      </trkpt>
      <trkpt lat="46.19584" lon="5.74191">
        <ele>541.84020996094</ele>
        <time>2010-09-19T12:17:07Z</time>
      </trkpt>
      <trkpt lat="46.19585" lon="5.74205">
        <ele>542.80151367188</ele>
        <time>2010-09-19T12:17:12Z</time>
      </trkpt>
      <trkpt lat="46.19587" lon="5.74227">
        <ele>545.20483398438</ele>
        <time>2010-09-19T12:17:20Z</time>
      </trkpt>
      <trkpt lat="46.19586" lon="5.74236">
        <ele>544.72424316406</ele>
        <time>2010-09-19T12:17:23Z</time>
      </trkpt>
      <trkpt lat="46.19587" lon="5.74245">
        <ele>545.685546875</ele>
        <time>2010-09-19T12:17:27Z</time>
      </trkpt>
      <trkpt lat="46.19591" lon="5.74256">
        <ele>546.64685058594</ele>
        <time>2010-09-19T12:17:33Z</time>
      </trkpt>
      <trkpt lat="46.19599" lon="5.74258">
        <ele>547.12744140625</ele>
        <time>2010-09-19T12:17:39Z</time>
      </trkpt>
      <trkpt lat="46.19603" lon="5.74257">
        <ele>548.0888671875</ele>
        <time>2010-09-19T12:17:41Z</time>
      </trkpt>
      <trkpt lat="46.19608" lon="5.74245">
        <ele>549.05004882812</ele>
        <time>2010-09-19T12:17:47Z</time>
      </trkpt>
      <trkpt lat="46.19604" lon="5.74235">
        <ele>549.05004882812</ele>
        <time>2010-09-19T12:17:52Z</time>
      </trkpt>
      <trkpt lat="46.19603" lon="5.74233">
        <ele>550.01147460938</ele>
        <time>2010-09-19T12:17:53Z</time>
      </trkpt>
      <trkpt lat="46.19593" lon="5.74213">
        <ele>551.45336914062</ele>
        <time>2010-09-19T12:18:01Z</time>
      </trkpt>
      <trkpt lat="46.19588" lon="5.74201">
        <ele>551.93408203125</ele>
        <time>2010-09-19T12:18:05Z</time>
      </trkpt>
      <trkpt lat="46.1959" lon="5.74174">
        <ele>553.85668945312</ele>
        <time>2010-09-19T12:18:14Z</time>
      </trkpt>
      <trkpt lat="46.19596" lon="5.74155">
        <ele>555.29858398438</ele>
        <time>2010-09-19T12:18:21Z</time>
      </trkpt>
      <trkpt lat="46.19606" lon="5.74125">
        <ele>556.74072265625</ele>
        <time>2010-09-19T12:18:31Z</time>
      </trkpt>
      <trkpt lat="46.19616" lon="5.74109">
        <ele>558.66333007812</ele>
        <time>2010-09-19T12:18:37Z</time>
      </trkpt>
      <trkpt lat="46.19633" lon="5.74085">
        <ele>560.5859375</ele>
        <time>2010-09-19T12:18:47Z</time>
      </trkpt>
      <trkpt lat="46.19643" lon="5.74066">
        <ele>562.02807617188</ele>
        <time>2010-09-19T12:18:54Z</time>
      </trkpt>
      <trkpt lat="46.19653" lon="5.74049">
        <ele>562.50854492188</ele>
        <time>2010-09-19T12:19:01Z</time>
      </trkpt>
      <trkpt lat="46.19662" lon="5.74035">
        <ele>563.46997070312</ele>
        <time>2010-09-19T12:19:07Z</time>
      </trkpt>
      <trkpt lat="46.19672" lon="5.74022">
        <ele>563.95043945312</ele>
        <time>2010-09-19T12:19:13Z</time>
      </trkpt>
      <trkpt lat="46.19674" lon="5.7402">
        <ele>563.95043945312</ele>
        <time>2010-09-19T12:19:14Z</time>
      </trkpt>
      <trkpt lat="46.19688" lon="5.74008">
        <ele>564.91186523438</ele>
        <time>2010-09-19T12:19:20Z</time>
      </trkpt>
      <trkpt lat="46.19696" lon="5.74002">
        <ele>565.87329101562</ele>
        <time>2010-09-19T12:19:23Z</time>
      </trkpt>
      <trkpt lat="46.19712" lon="5.73991">
        <ele>566.83447265625</ele>
        <time>2010-09-19T12:19:29Z</time>
      </trkpt>
      <trkpt lat="46.19731" lon="5.7398">
        <ele>568.75708007812</ele>
        <time>2010-09-19T12:19:36Z</time>
      </trkpt>
      <trkpt lat="46.19744" lon="5.73971">
        <ele>568.75708007812</ele>
        <time>2010-09-19T12:19:42Z</time>
      </trkpt>
      <trkpt lat="46.1976" lon="5.73965">
        <ele>570.19897460938</ele>
        <time>2010-09-19T12:19:48Z</time>
      </trkpt>
      <trkpt lat="46.19772" lon="5.73959">
        <ele>570.6796875</ele>
        <time>2010-09-19T12:19:53Z</time>
      </trkpt>
      <trkpt lat="46.19772" lon="5.73957">
        <ele>570.6796875</ele>
        <time>2010-09-19T12:19:54Z</time>
      </trkpt>
      <trkpt lat="46.19778" lon="5.73939">
        <ele>572.12182617188</ele>
        <time>2010-09-19T12:20:04Z</time>
      </trkpt>
      <trkpt lat="46.19783" lon="5.73926">
        <ele>573.56396484375</ele>
        <time>2010-09-19T12:20:11Z</time>
      </trkpt>
      <trkpt lat="46.19793" lon="5.73907">
        <ele>574.52514648438</ele>
        <time>2010-09-19T12:20:19Z</time>
      </trkpt>
      <trkpt lat="46.19796" lon="5.73904">
        <ele>575.96704101562</ele>
        <time>2010-09-19T12:20:22Z</time>
      </trkpt>
      <trkpt lat="46.19798" lon="5.739">
        <ele>574.52514648438</ele>
        <time>2010-09-19T12:20:28Z</time>
      </trkpt>
      <trkpt lat="46.19796" lon="5.73901">
        <ele>573.56396484375</ele>
        <time>2010-09-19T12:20:47Z</time>
      </trkpt>
      <trkpt lat="46.1979" lon="5.73901">
        <ele>574.52514648438</ele>
        <time>2010-09-19T12:21:37Z</time>
      </trkpt>
      <trkpt lat="46.19782" lon="5.739">
        <ele>574.04443359375</ele>
        <time>2010-09-19T12:21:45Z</time>
      </trkpt>
      <trkpt lat="46.19788" lon="5.73901">
        <ele>574.52514648438</ele>
        <time>2010-09-19T12:22:02Z</time>
      </trkpt>
      <trkpt lat="46.19791" lon="5.73903">
        <ele>574.04443359375</ele>
        <time>2010-09-19T12:22:37Z</time>
      </trkpt>
      <trkpt lat="46.19781" lon="5.73901">
        <ele>573.56396484375</ele>
        <time>2010-09-19T12:22:42Z</time>
      </trkpt>
      <trkpt lat="46.19779" lon="5.73902">
        <ele>574.04443359375</ele>
        <time>2010-09-19T12:22:47Z</time>
      </trkpt>
      <trkpt lat="46.19792" lon="5.73915">
        <ele>575.005859375</ele>
        <time>2010-09-19T12:22:53Z</time>
      </trkpt>
      <trkpt lat="46.19802" lon="5.73927">
        <ele>575.005859375</ele>
        <time>2010-09-19T12:22:56Z</time>
      </trkpt>
      <trkpt lat="46.19804" lon="5.73942">
        <ele>575.96704101562</ele>
        <time>2010-09-19T12:23:01Z</time>
      </trkpt>
      <trkpt lat="46.19758" lon="5.73943">
        <ele>576.92846679688</ele>
        <time>2010-09-19T12:23:06Z</time>
      </trkpt>
      <trkpt lat="46.19741" lon="5.73957">
        <ele>577.8896484375</ele>
        <time>2010-09-19T12:23:12Z</time>
      </trkpt>
      <trkpt lat="46.1973" lon="5.73971">
        <ele>579.33154296875</ele>
        <time>2010-09-19T12:23:18Z</time>
      </trkpt>
      <trkpt lat="46.19723" lon="5.73989">
        <ele>579.81225585938</ele>
        <time>2010-09-19T12:23:24Z</time>
      </trkpt>
      <trkpt lat="46.19718" lon="5.74009">
        <ele>581.25439453125</ele>
        <time>2010-09-19T12:23:30Z</time>
      </trkpt>
      <trkpt lat="46.19713" lon="5.74031">
        <ele>581.73486328125</ele>
        <time>2010-09-19T12:23:36Z</time>
      </trkpt>
      <trkpt lat="46.19709" lon="5.74053">
        <ele>583.65747070312</ele>
        <time>2010-09-19T12:23:42Z</time>
      </trkpt>
      <trkpt lat="46.19702" lon="5.74082">
        <ele>584.61889648438</ele>
        <time>2010-09-19T12:23:50Z</time>
      </trkpt>
      <trkpt lat="46.19698" lon="5.74103">
        <ele>586.06079101562</ele>
        <time>2010-09-19T12:23:56Z</time>
      </trkpt>
      <trkpt lat="46.19695" lon="5.74123">
        <ele>587.50268554688</ele>
        <time>2010-09-19T12:24:02Z</time>
      </trkpt>
      <trkpt lat="46.19686" lon="5.74147">
        <ele>588.46435546875</ele>
        <time>2010-09-19T12:24:10Z</time>
      </trkpt>
      <trkpt lat="46.19681" lon="5.74167">
        <ele>590.38696289062</ele>
        <time>2010-09-19T12:24:17Z</time>
      </trkpt>
      <trkpt lat="46.19672" lon="5.74189">
        <ele>591.34814453125</ele>
        <time>2010-09-19T12:24:24Z</time>
      </trkpt>
      <trkpt lat="46.19675" lon="5.74201">
        <ele>592.79028320312</ele>
        <time>2010-09-19T12:24:28Z</time>
      </trkpt>
      <trkpt lat="46.19677" lon="5.74202">
        <ele>592.79028320312</ele>
        <time>2010-09-19T12:24:29Z</time>
      </trkpt>
      <trkpt lat="46.19679" lon="5.74203">
        <ele>592.79028320312</ele>
        <time>2010-09-19T12:24:30Z</time>
      </trkpt>
      <trkpt lat="46.19688" lon="5.74188">
        <ele>593.75146484375</ele>
        <time>2010-09-19T12:24:36Z</time>
      </trkpt>
      <trkpt lat="46.19691" lon="5.74173">
        <ele>594.71264648438</ele>
        <time>2010-09-19T12:24:41Z</time>
      </trkpt>
      <trkpt lat="46.197" lon="5.74145">
        <ele>595.67407226562</ele>
        <time>2010-09-19T12:24:49Z</time>
      </trkpt>
      <trkpt lat="46.1971" lon="5.74117">
        <ele>596.63549804688</ele>
        <time>2010-09-19T12:24:58Z</time>
      </trkpt>
      <trkpt lat="46.19717" lon="5.74096">
        <ele>598.07739257812</ele>
        <time>2010-09-19T12:25:05Z</time>
      </trkpt>
      <trkpt lat="46.19723" lon="5.7408">
        <ele>599.03857421875</ele>
        <time>2010-09-19T12:25:11Z</time>
      </trkpt>
      <trkpt lat="46.19732" lon="5.74063">
        <ele>600</ele>
        <time>2010-09-19T12:25:18Z</time>
      </trkpt>
      <trkpt lat="46.19735" lon="5.74058">
        <ele>600.48071289062</ele>
        <time>2010-09-19T12:25:20Z</time>
      </trkpt>
      <trkpt lat="46.19743" lon="5.74046">
        <ele>600.96118164062</ele>
        <time>2010-09-19T12:25:26Z</time>
      </trkpt>
      <trkpt lat="46.19751" lon="5.74028">
        <ele>602.40307617188</ele>
        <time>2010-09-19T12:25:32Z</time>
      </trkpt>
      <trkpt lat="46.19757" lon="5.74012">
        <ele>603.36450195312</ele>
        <time>2010-09-19T12:25:38Z</time>
      </trkpt>
      <trkpt lat="46.1977" lon="5.73998">
        <ele>603.84521484375</ele>
        <time>2010-09-19T12:25:45Z</time>
      </trkpt>
      <trkpt lat="46.19783" lon="5.73988">
        <ele>604.806640625</ele>
        <time>2010-09-19T12:25:52Z</time>
      </trkpt>
      <trkpt lat="46.19791" lon="5.73978">
        <ele>605.28735351562</ele>
        <time>2010-09-19T12:25:59Z</time>
      </trkpt>
      <trkpt lat="46.19803" lon="5.73971">
        <ele>607.2099609375</ele>
        <time>2010-09-19T12:26:06Z</time>
      </trkpt>
      <trkpt lat="46.1981" lon="5.73967">
        <ele>607.69067382812</ele>
        <time>2010-09-19T12:26:11Z</time>
      </trkpt>
      <trkpt lat="46.19826" lon="5.73965">
        <ele>608.17138671875</ele>
        <time>2010-09-19T12:26:18Z</time>
      </trkpt>
      <trkpt lat="46.1984" lon="5.73963">
        <ele>609.13256835938</ele>
        <time>2010-09-19T12:26:24Z</time>
      </trkpt>
      <trkpt lat="46.19854" lon="5.73963">
        <ele>610.57446289062</ele>
        <time>2010-09-19T12:26:30Z</time>
      </trkpt>
      <trkpt lat="46.19866" lon="5.73963">
        <ele>611.53588867188</ele>
        <time>2010-09-19T12:26:35Z</time>
      </trkpt>
      <trkpt lat="46.19882" lon="5.73959">
        <ele>612.4970703125</ele>
        <time>2010-09-19T12:26:42Z</time>
      </trkpt>
      <trkpt lat="46.19899" lon="5.73958">
        <ele>613.45849609375</ele>
        <time>2010-09-19T12:26:49Z</time>
      </trkpt>
      <trkpt lat="46.19914" lon="5.73956">
        <ele>614.41967773438</ele>
        <time>2010-09-19T12:26:56Z</time>
      </trkpt>
      <trkpt lat="46.19928" lon="5.73957">
        <ele>614.900390625</ele>
        <time>2010-09-19T12:27:02Z</time>
      </trkpt>
      <trkpt lat="46.19941" lon="5.73959">
        <ele>615.86181640625</ele>
        <time>2010-09-19T12:27:08Z</time>
      </trkpt>
      <trkpt lat="46.19953" lon="5.7396">
        <ele>616.82299804688</ele>
        <time>2010-09-19T12:27:13Z</time>
      </trkpt>
      <trkpt lat="46.1997" lon="5.7396">
        <ele>617.7841796875</ele>
        <time>2010-09-19T12:27:19Z</time>
      </trkpt>
      <trkpt lat="46.19991" lon="5.73956">
        <ele>619.22631835938</ele>
        <time>2010-09-19T12:27:26Z</time>
      </trkpt>
      <trkpt lat="46.20004" lon="5.73952">
        <ele>621.14916992188</ele>
        <time>2010-09-19T12:27:31Z</time>
      </trkpt>
      <trkpt lat="46.20026" lon="5.73947">
        <ele>622.1103515625</ele>
        <time>2010-09-19T12:27:39Z</time>
      </trkpt>
      <trkpt lat="46.2004" lon="5.73945">
        <ele>623.07177734375</ele>
        <time>2010-09-19T12:27:45Z</time>
      </trkpt>
      <trkpt lat="46.20056" lon="5.73943">
        <ele>623.55249023438</ele>
        <time>2010-09-19T12:27:51Z</time>
      </trkpt>
      <trkpt lat="46.20076" lon="5.7394">
        <ele>624.513671875</ele>
        <time>2010-09-19T12:27:59Z</time>
      </trkpt>
      <trkpt lat="46.20096" lon="5.73937">
        <ele>626.9169921875</ele>
        <time>2010-09-19T12:28:07Z</time>
      </trkpt>
      <trkpt lat="46.20106" lon="5.73933">
        <ele>627.39770507812</ele>
        <time>2010-09-19T12:28:12Z</time>
      </trkpt>
      <trkpt lat="46.20122" lon="5.73928">
        <ele>629.32006835938</ele>
        <time>2010-09-19T12:28:19Z</time>
      </trkpt>
      <trkpt lat="46.20136" lon="5.73922">
        <ele>630.28149414062</ele>
        <time>2010-09-19T12:28:25Z</time>
      </trkpt>
      <trkpt lat="46.20151" lon="5.73915">
        <ele>631.72338867188</ele>
        <time>2010-09-19T12:28:32Z</time>
      </trkpt>
      <trkpt lat="46.20163" lon="5.7391">
        <ele>633.16528320312</ele>
        <time>2010-09-19T12:28:37Z</time>
      </trkpt>
      <trkpt lat="46.20173" lon="5.7391">
        <ele>633.64599609375</ele>
        <time>2010-09-19T12:28:41Z</time>
      </trkpt>
      <trkpt lat="46.20185" lon="5.73908">
        <ele>634.607421875</ele>
        <time>2010-09-19T12:28:46Z</time>
      </trkpt>
      <trkpt lat="46.20199" lon="5.73893">
        <ele>636.04956054688</ele>
        <time>2010-09-19T12:28:53Z</time>
      </trkpt>
      <trkpt lat="46.20206" lon="5.73876">
        <ele>637.49145507812</ele>
        <time>2010-09-19T12:28:59Z</time>
      </trkpt>
      <trkpt lat="46.20211" lon="5.73858">
        <ele>637.49145507812</ele>
        <time>2010-09-19T12:29:05Z</time>
      </trkpt>
      <trkpt lat="46.20219" lon="5.73846">
        <ele>638.45288085938</ele>
        <time>2010-09-19T12:29:10Z</time>
      </trkpt>
      <trkpt lat="46.2023" lon="5.73829">
        <ele>639.4140625</ele>
        <time>2010-09-19T12:29:18Z</time>
      </trkpt>
      <trkpt lat="46.2023" lon="5.73826">
        <ele>639.4140625</ele>
        <time>2010-09-19T12:29:19Z</time>
      </trkpt>
      <trkpt lat="46.20235" lon="5.73819">
        <ele>641.8173828125</ele>
        <time>2010-09-19T12:29:22Z</time>
      </trkpt>
      <trkpt lat="46.20239" lon="5.73814">
        <ele>642.29809570312</ele>
        <time>2010-09-19T12:29:24Z</time>
      </trkpt>
      <trkpt lat="46.20256" lon="5.73796">
        <ele>642.77880859375</ele>
        <time>2010-09-19T12:29:32Z</time>
      </trkpt>
      <trkpt lat="46.20265" lon="5.73783">
        <ele>643.73999023438</ele>
        <time>2010-09-19T12:29:38Z</time>
      </trkpt>
      <trkpt lat="46.20275" lon="5.73773">
        <ele>645.18188476562</ele>
        <time>2010-09-19T12:29:43Z</time>
      </trkpt>
      <trkpt lat="46.20287" lon="5.7376">
        <ele>646.14331054688</ele>
        <time>2010-09-19T12:29:49Z</time>
      </trkpt>
      <trkpt lat="46.20301" lon="5.73745">
        <ele>647.1044921875</ele>
        <time>2010-09-19T12:29:56Z</time>
      </trkpt>
      <trkpt lat="46.20312" lon="5.73725">
        <ele>649.02709960938</ele>
        <time>2010-09-19T12:30:04Z</time>
      </trkpt>
      <trkpt lat="46.20317" lon="5.73715">
        <ele>649.5078125</ele>
        <time>2010-09-19T12:30:08Z</time>
      </trkpt>
      <trkpt lat="46.20332" lon="5.73699">
        <ele>650.94970703125</ele>
        <time>2010-09-19T12:30:17Z</time>
      </trkpt>
      <trkpt lat="46.20341" lon="5.73687">
        <ele>651.9111328125</ele>
        <time>2010-09-19T12:30:23Z</time>
      </trkpt>
      <trkpt lat="46.20353" lon="5.7367">
        <ele>653.833984375</ele>
        <time>2010-09-19T12:30:31Z</time>
      </trkpt>
      <trkpt lat="46.20366" lon="5.73659">
        <ele>654.31469726562</ele>
        <time>2010-09-19T12:30:37Z</time>
      </trkpt>
      <trkpt lat="46.20377" lon="5.73643">
        <ele>655.27587890625</ele>
        <time>2010-09-19T12:30:45Z</time>
      </trkpt>
      <trkpt lat="46.20387" lon="5.73636">
        <ele>657.67919921875</ele>
        <time>2010-09-19T12:30:52Z</time>
      </trkpt>
      <trkpt lat="46.20401" lon="5.73625">
        <ele>658.64038085938</ele>
        <time>2010-09-19T12:30:59Z</time>
      </trkpt>
      <trkpt lat="46.20412" lon="5.73616">
        <ele>660.08227539062</ele>
        <time>2010-09-19T12:31:05Z</time>
      </trkpt>
      <trkpt lat="46.20417" lon="5.73614">
        <ele>659.60180664062</ele>
        <time>2010-09-19T12:31:07Z</time>
      </trkpt>
      <trkpt lat="46.2043" lon="5.73602">
        <ele>661.04370117188</ele>
        <time>2010-09-19T12:31:14Z</time>
      </trkpt>
      <trkpt lat="46.20433" lon="5.736">
        <ele>660.56298828125</ele>
        <time>2010-09-19T12:31:15Z</time>
      </trkpt>
      <trkpt lat="46.20444" lon="5.73596">
        <ele>662.00512695312</ele>
        <time>2010-09-19T12:31:20Z</time>
      </trkpt>
      <trkpt lat="46.20448" lon="5.73598">
        <ele>662.96630859375</ele>
        <time>2010-09-19T12:31:22Z</time>
      </trkpt>
      <trkpt lat="46.20455" lon="5.7361">
        <ele>664.408203125</ele>
        <time>2010-09-19T12:31:27Z</time>
      </trkpt>
      <trkpt lat="46.20457" lon="5.73629">
        <ele>664.88891601562</ele>
        <time>2010-09-19T12:31:32Z</time>
      </trkpt>
      <trkpt lat="46.20454" lon="5.73646">
        <ele>665.85034179688</ele>
        <time>2010-09-19T12:31:37Z</time>
      </trkpt>
      <trkpt lat="46.20445" lon="5.73657">
        <ele>666.33081054688</ele>
        <time>2010-09-19T12:31:42Z</time>
      </trkpt>
      <trkpt lat="46.20432" lon="5.73666">
        <ele>666.8115234375</ele>
        <time>2010-09-19T12:31:48Z</time>
      </trkpt>
      <trkpt lat="46.20428" lon="5.73673">
        <ele>667.29223632812</ele>
        <time>2010-09-19T12:31:52Z</time>
      </trkpt>
      <trkpt lat="46.20427" lon="5.73675">
        <ele>667.29223632812</ele>
        <time>2010-09-19T12:31:53Z</time>
      </trkpt>
      <trkpt lat="46.20419" lon="5.73683">
        <ele>667.77270507812</ele>
        <time>2010-09-19T12:31:57Z</time>
      </trkpt>
      <trkpt lat="46.20404" lon="5.73691">
        <ele>668.25366210938</ele>
        <time>2010-09-19T12:32:03Z</time>
      </trkpt>
      <trkpt lat="46.2039" lon="5.73701">
        <ele>669.21508789062</ele>
        <time>2010-09-19T12:32:08Z</time>
      </trkpt>
      <trkpt lat="46.20379" lon="5.73717">
        <ele>669.69580078125</ele>
        <time>2010-09-19T12:32:13Z</time>
      </trkpt>
      <trkpt lat="46.20373" lon="5.73734">
        <ele>670.65698242188</ele>
        <time>2010-09-19T12:32:18Z</time>
      </trkpt>
      <trkpt lat="46.20366" lon="5.7375">
        <ele>671.1376953125</ele>
        <time>2010-09-19T12:32:23Z</time>
      </trkpt>
      <trkpt lat="46.2036" lon="5.73762">
        <ele>671.6181640625</ele>
        <time>2010-09-19T12:32:27Z</time>
      </trkpt>
      <trkpt lat="46.20353" lon="5.7378">
        <ele>672.57958984375</ele>
        <time>2010-09-19T12:32:33Z</time>
      </trkpt>
      <trkpt lat="46.20345" lon="5.73797">
        <ele>673.541015625</ele>
        <time>2010-09-19T12:32:39Z</time>
      </trkpt>
      <trkpt lat="46.20332" lon="5.73809">
        <ele>673.541015625</ele>
        <time>2010-09-19T12:32:45Z</time>
      </trkpt>
      <trkpt lat="46.2032" lon="5.73826">
        <ele>674.98291015625</ele>
        <time>2010-09-19T12:32:51Z</time>
      </trkpt>
      <trkpt lat="46.20312" lon="5.73845">
        <ele>675.94409179688</ele>
        <time>2010-09-19T12:32:57Z</time>
      </trkpt>
      <trkpt lat="46.20305" lon="5.73865">
        <ele>676.90551757812</ele>
        <time>2010-09-19T12:33:03Z</time>
      </trkpt>
      <trkpt lat="46.20298" lon="5.73895">
        <ele>677.38623046875</ele>
        <time>2010-09-19T12:33:11Z</time>
      </trkpt>
      <trkpt lat="46.2029" lon="5.73916">
        <ele>678.828125</ele>
        <time>2010-09-19T12:33:18Z</time>
      </trkpt>
      <trkpt lat="46.20282" lon="5.73932">
        <ele>680.27001953125</ele>
        <time>2010-09-19T12:33:24Z</time>
      </trkpt>
      <trkpt lat="46.20274" lon="5.73949">
        <ele>680.27001953125</ele>
        <time>2010-09-19T12:33:29Z</time>
      </trkpt>
      <trkpt lat="46.20266" lon="5.73969">
        <ele>681.7119140625</ele>
        <time>2010-09-19T12:33:34Z</time>
      </trkpt>
      <trkpt lat="46.20258" lon="5.73991">
        <ele>683.15380859375</ele>
        <time>2010-09-19T12:33:39Z</time>
      </trkpt>
      <trkpt lat="46.20253" lon="5.7401">
        <ele>683.63452148438</ele>
        <time>2010-09-19T12:33:44Z</time>
      </trkpt>
      <trkpt lat="46.20253" lon="5.74012">
        <ele>684.11547851562</ele>
        <time>2010-09-19T12:33:45Z</time>
      </trkpt>
      <trkpt lat="46.20243" lon="5.74024">
        <ele>684.59619140625</ele>
        <time>2010-09-19T12:33:51Z</time>
      </trkpt>
      <trkpt lat="46.20231" lon="5.74038">
        <ele>685.55737304688</ele>
        <time>2010-09-19T12:33:57Z</time>
      </trkpt>
      <trkpt lat="46.20221" lon="5.74048">
        <ele>686.0380859375</ele>
        <time>2010-09-19T12:34:02Z</time>
      </trkpt>
      <trkpt lat="46.20207" lon="5.74059">
        <ele>686.99926757812</ele>
        <time>2010-09-19T12:34:08Z</time>
      </trkpt>
      <trkpt lat="46.20193" lon="5.74066">
        <ele>688.44140625</ele>
        <time>2010-09-19T12:34:13Z</time>
      </trkpt>
      <trkpt lat="46.20174" lon="5.74079">
        <ele>689.88330078125</ele>
        <time>2010-09-19T12:34:20Z</time>
      </trkpt>
      <trkpt lat="46.2016" lon="5.74091">
        <ele>690.84448242188</ele>
        <time>2010-09-19T12:34:25Z</time>
      </trkpt>
      <trkpt lat="46.20147" lon="5.74101">
        <ele>692.28662109375</ele>
        <time>2010-09-19T12:34:30Z</time>
      </trkpt>
      <trkpt lat="46.20127" lon="5.74118">
        <ele>693.24780273438</ele>
        <time>2010-09-19T12:34:37Z</time>
      </trkpt>
      <trkpt lat="46.20116" lon="5.74129">
        <ele>695.17041015625</ele>
        <time>2010-09-19T12:34:41Z</time>
      </trkpt>
      <trkpt lat="46.20101" lon="5.74149">
        <ele>695.65112304688</ele>
        <time>2010-09-19T12:34:46Z</time>
      </trkpt>
      <trkpt lat="46.20107" lon="5.74165">
        <ele>696.61254882812</ele>
        <time>2010-09-19T12:34:50Z</time>
      </trkpt>
      <trkpt lat="46.2012" lon="5.74174">
        <ele>697.57373046875</ele>
        <time>2010-09-19T12:34:55Z</time>
      </trkpt>
      <trkpt lat="46.20139" lon="5.74181">
        <ele>699.015625</ele>
        <time>2010-09-19T12:35:02Z</time>
      </trkpt>
      <trkpt lat="46.2016" lon="5.74189">
        <ele>699.49633789062</ele>
        <time>2010-09-19T12:35:10Z</time>
      </trkpt>
      <trkpt lat="46.20184" lon="5.74194">
        <ele>701.41918945312</ele>
        <time>2010-09-19T12:35:19Z</time>
      </trkpt>
      <trkpt lat="46.20205" lon="5.74196">
        <ele>702.38037109375</ele>
        <time>2010-09-19T12:35:27Z</time>
      </trkpt>
      <trkpt lat="46.20222" lon="5.74199">
        <ele>703.82250976562</ele>
        <time>2010-09-19T12:35:34Z</time>
      </trkpt>
      <trkpt lat="46.20236" lon="5.74202">
        <ele>704.78369140625</ele>
        <time>2010-09-19T12:35:41Z</time>
      </trkpt>
      <trkpt lat="46.20255" lon="5.74205">
        <ele>706.2255859375</ele>
        <time>2010-09-19T12:35:48Z</time>
      </trkpt>
      <trkpt lat="46.20277" lon="5.74207">
        <ele>707.66772460938</ele>
        <time>2010-09-19T12:35:57Z</time>
      </trkpt>
      <trkpt lat="46.20297" lon="5.74211">
        <ele>709.10961914062</ele>
        <time>2010-09-19T12:36:04Z</time>
      </trkpt>
      <trkpt lat="46.20316" lon="5.74215">
        <ele>711.0322265625</ele>
        <time>2010-09-19T12:36:11Z</time>
      </trkpt>
      <trkpt lat="46.20332" lon="5.74218">
        <ele>711.99365234375</ele>
        <time>2010-09-19T12:36:18Z</time>
      </trkpt>
      <trkpt lat="46.20349" lon="5.74221">
        <ele>713.916015625</ele>
        <time>2010-09-19T12:36:25Z</time>
      </trkpt>
      <trkpt lat="46.2037" lon="5.74225">
        <ele>714.87744140625</ele>
        <time>2010-09-19T12:36:34Z</time>
      </trkpt>
      <trkpt lat="46.20382" lon="5.74228">
        <ele>715.8388671875</ele>
        <time>2010-09-19T12:36:40Z</time>
      </trkpt>
      <trkpt lat="46.20398" lon="5.74231">
        <ele>716.31958007812</ele>
        <time>2010-09-19T12:36:47Z</time>
      </trkpt>
      <trkpt lat="46.20426" lon="5.74236">
        <ele>717.76147460938</ele>
        <time>2010-09-19T12:36:57Z</time>
      </trkpt>
      <trkpt lat="46.20445" lon="5.7424">
        <ele>718.72290039062</ele>
        <time>2010-09-19T12:37:06Z</time>
      </trkpt>
      <trkpt lat="46.20461" lon="5.74244">
        <ele>719.68432617188</ele>
        <time>2010-09-19T12:37:13Z</time>
      </trkpt>
      <trkpt lat="46.20476" lon="5.74247">
        <ele>720.16479492188</ele>
        <time>2010-09-19T12:37:20Z</time>
      </trkpt>
      <trkpt lat="46.20495" lon="5.74251">
        <ele>721.60668945312</ele>
        <time>2010-09-19T12:37:27Z</time>
      </trkpt>
      <trkpt lat="46.20512" lon="5.74255">
        <ele>722.08740234375</ele>
        <time>2010-09-19T12:37:33Z</time>
      </trkpt>
      <trkpt lat="46.20528" lon="5.74257">
        <ele>723.52954101562</ele>
        <time>2010-09-19T12:37:40Z</time>
      </trkpt>
      <trkpt lat="46.2053" lon="5.74257">
        <ele>723.52954101562</ele>
        <time>2010-09-19T12:37:41Z</time>
      </trkpt>
      <trkpt lat="46.20541" lon="5.74258">
        <ele>725.45190429688</ele>
        <time>2010-09-19T12:37:48Z</time>
      </trkpt>
      <trkpt lat="46.20551" lon="5.74259">
        <ele>726.41333007812</ele>
        <time>2010-09-19T12:37:54Z</time>
      </trkpt>
      <trkpt lat="46.2056" lon="5.74261">
        <ele>727.37475585938</ele>
        <time>2010-09-19T12:37:59Z</time>
      </trkpt>
      <trkpt lat="46.20578" lon="5.74264">
        <ele>728.3359375</ele>
        <time>2010-09-19T12:38:06Z</time>
      </trkpt>
      <trkpt lat="46.20596" lon="5.74262">
        <ele>730.25854492188</ele>
        <time>2010-09-19T12:38:12Z</time>
      </trkpt>
      <trkpt lat="46.20614" lon="5.74252">
        <ele>730.7392578125</ele>
        <time>2010-09-19T12:38:19Z</time>
      </trkpt>
      <trkpt lat="46.2063" lon="5.74232">
        <ele>731.21997070312</ele>
        <time>2010-09-19T12:38:28Z</time>
      </trkpt>
      <trkpt lat="46.20643" lon="5.74216">
        <ele>732.18139648438</ele>
        <time>2010-09-19T12:38:35Z</time>
      </trkpt>
      <trkpt lat="46.20654" lon="5.74199">
        <ele>733.62329101562</ele>
        <time>2010-09-19T12:38:42Z</time>
      </trkpt>
      <trkpt lat="46.20665" lon="5.74183">
        <ele>734.58471679688</ele>
        <time>2010-09-19T12:38:49Z</time>
      </trkpt>
      <trkpt lat="46.20673" lon="5.74169">
        <ele>735.0654296875</ele>
        <time>2010-09-19T12:38:54Z</time>
      </trkpt>
      <trkpt lat="46.20683" lon="5.74154">
        <ele>737.46850585938</ele>
        <time>2010-09-19T12:39:00Z</time>
      </trkpt>
      <trkpt lat="46.20694" lon="5.74135">
        <ele>737.94921875</ele>
        <time>2010-09-19T12:39:07Z</time>
      </trkpt>
      <trkpt lat="46.20707" lon="5.74112">
        <ele>738.42993164062</ele>
        <time>2010-09-19T12:39:15Z</time>
      </trkpt>
      <trkpt lat="46.2072" lon="5.74093">
        <ele>738.91064453125</ele>
        <time>2010-09-19T12:39:23Z</time>
      </trkpt>
      <trkpt lat="46.20726" lon="5.74084">
        <ele>740.3525390625</ele>
        <time>2010-09-19T12:39:27Z</time>
      </trkpt>
      <trkpt lat="46.20736" lon="5.74085">
        <ele>740.8330078125</ele>
        <time>2010-09-19T12:39:31Z</time>
      </trkpt>
      <trkpt lat="46.20753" lon="5.741">
        <ele>742.27514648438</ele>
        <time>2010-09-19T12:39:40Z</time>
      </trkpt>
      <trkpt lat="46.20766" lon="5.74109">
        <ele>742.755859375</ele>
        <time>2010-09-19T12:39:48Z</time>
      </trkpt>
      <trkpt lat="46.20779" lon="5.74117">
        <ele>744.19775390625</ele>
        <time>2010-09-19T12:39:56Z</time>
      </trkpt>
      <trkpt lat="46.20784" lon="5.74119">
        <ele>745.15893554688</ele>
        <time>2010-09-19T12:39:59Z</time>
      </trkpt>
      <trkpt lat="46.20793" lon="5.74119">
        <ele>746.60107421875</ele>
        <time>2010-09-19T12:40:05Z</time>
      </trkpt>
      <trkpt lat="46.20803" lon="5.74116">
        <ele>748.52368164062</ele>
        <time>2010-09-19T12:40:11Z</time>
      </trkpt>
      <trkpt lat="46.20812" lon="5.74112">
        <ele>749.00439453125</ele>
        <time>2010-09-19T12:40:17Z</time>
      </trkpt>
      <trkpt lat="46.20826" lon="5.74107">
        <ele>752.36889648438</ele>
        <time>2010-09-19T12:40:23Z</time>
      </trkpt>
      <trkpt lat="46.20828" lon="5.74106">
        <ele>752.849609375</ele>
        <time>2010-09-19T12:40:24Z</time>
      </trkpt>
      <trkpt lat="46.20832" lon="5.74102">
        <ele>754.29174804688</ele>
        <time>2010-09-19T12:40:27Z</time>
      </trkpt>
      <trkpt lat="46.20842" lon="5.74095">
        <ele>754.29174804688</ele>
        <time>2010-09-19T12:40:35Z</time>
      </trkpt>
      <trkpt lat="46.2085" lon="5.74088">
        <ele>755.73364257812</ele>
        <time>2010-09-19T12:40:43Z</time>
      </trkpt>
      <trkpt lat="46.20855" lon="5.74083">
        <ele>757.65625</ele>
        <time>2010-09-19T12:40:48Z</time>
      </trkpt>
      <trkpt lat="46.2086" lon="5.74078">
        <ele>759.09814453125</ele>
        <time>2010-09-19T12:40:55Z</time>
      </trkpt>
      <trkpt lat="46.20864" lon="5.74078">
        <ele>761.02075195312</ele>
        <time>2010-09-19T12:40:58Z</time>
      </trkpt>
      <trkpt lat="46.20875" lon="5.74087">
        <ele>762.46264648438</ele>
        <time>2010-09-19T12:41:06Z</time>
      </trkpt>
      <trkpt lat="46.20882" lon="5.74096">
        <ele>764.8662109375</ele>
        <time>2010-09-19T12:41:13Z</time>
      </trkpt>
      <trkpt lat="46.20888" lon="5.74102">
        <ele>766.30810546875</ele>
        <time>2010-09-19T12:41:20Z</time>
      </trkpt>
      <trkpt lat="46.20895" lon="5.74105">
        <ele>766.78881835938</ele>
        <time>2010-09-19T12:41:26Z</time>
      </trkpt>
      <trkpt lat="46.209" lon="5.74106">
        <ele>767.75</ele>
        <time>2010-09-19T12:41:31Z</time>
      </trkpt>
      <trkpt lat="46.20901" lon="5.74107">
        <ele>768.23071289062</ele>
        <time>2010-09-19T12:41:33Z</time>
      </trkpt>
      <trkpt lat="46.20915" lon="5.74101">
        <ele>770.1533203125</ele>
        <time>2010-09-19T12:41:43Z</time>
      </trkpt>
      <trkpt lat="46.20923" lon="5.74093">
        <ele>770.63403320312</ele>
        <time>2010-09-19T12:41:49Z</time>
      </trkpt>
      <trkpt lat="46.20928" lon="5.74082">
        <ele>771.59521484375</ele>
        <time>2010-09-19T12:41:55Z</time>
      </trkpt>
      <trkpt lat="46.20931" lon="5.74071">
        <ele>771.59521484375</ele>
        <time>2010-09-19T12:42:00Z</time>
      </trkpt>
      <trkpt lat="46.20942" lon="5.74064">
        <ele>772.07592773438</ele>
        <time>2010-09-19T12:42:07Z</time>
      </trkpt>
      <trkpt lat="46.20943" lon="5.74062">
        <ele>771.59521484375</ele>
        <time>2010-09-19T12:42:08Z</time>
      </trkpt>
      <trkpt lat="46.20946" lon="5.7405">
        <ele>771.59521484375</ele>
        <time>2010-09-19T12:42:14Z</time>
      </trkpt>
      <trkpt lat="46.20947" lon="5.74048">
        <ele>771.11474609375</ele>
        <time>2010-09-19T12:42:17Z</time>
      </trkpt>
      <trkpt lat="46.20952" lon="5.74041">
        <ele>771.59521484375</ele>
        <time>2010-09-19T12:42:22Z</time>
      </trkpt>
      <trkpt lat="46.20951" lon="5.74042">
        <ele>771.59521484375</ele>
        <time>2010-09-19T12:42:27Z</time>
      </trkpt>
      <trkpt lat="46.20953" lon="5.74039">
        <ele>770.63403320312</ele>
        <time>2010-09-19T12:42:44Z</time>
      </trkpt>
      <trkpt lat="46.20953" lon="5.74039">
        <ele>770.1533203125</ele>
        <time>2010-09-19T12:42:52Z</time>
      </trkpt>
      <trkpt lat="46.20953" lon="5.74035">
        <ele>770.1533203125</ele>
        <time>2010-09-19T12:43:31Z</time>
      </trkpt>
      <trkpt lat="46.20951" lon="5.74043">
        <ele>770.1533203125</ele>
        <time>2010-09-19T12:43:36Z</time>
      </trkpt>
      <trkpt lat="46.20952" lon="5.74047">
        <ele>770.63403320312</ele>
        <time>2010-09-19T12:43:42Z</time>
      </trkpt>
      <trkpt lat="46.20955" lon="5.74046">
        <ele>770.63403320312</ele>
        <time>2010-09-19T12:43:49Z</time>
      </trkpt>
      <trkpt lat="46.20956" lon="5.74042">
        <ele>770.1533203125</ele>
        <time>2010-09-19T12:43:55Z</time>
      </trkpt>
      <trkpt lat="46.20958" lon="5.74042">
        <ele>771.11474609375</ele>
        <time>2010-09-19T12:44:00Z</time>
      </trkpt>
      <trkpt lat="46.20956" lon="5.74042">
        <ele>771.11474609375</ele>
        <time>2010-09-19T12:44:35Z</time>
      </trkpt>
      <trkpt lat="46.20954" lon="5.74045">
        <ele>770.1533203125</ele>
        <time>2010-09-19T12:44:51Z</time>
      </trkpt>
      <trkpt lat="46.20959" lon="5.74045">
        <ele>770.1533203125</ele>
        <time>2010-09-19T12:46:08Z</time>
      </trkpt>
      <trkpt lat="46.20961" lon="5.74049">
        <ele>769.6728515625</ele>
        <time>2010-09-19T12:46:28Z</time>
      </trkpt>
      <trkpt lat="46.20955" lon="5.74049">
        <ele>770.63403320312</ele>
        <time>2010-09-19T12:46:50Z</time>
      </trkpt>
      <trkpt lat="46.20954" lon="5.74042">
        <ele>770.1533203125</ele>
        <time>2010-09-19T12:47:18Z</time>
      </trkpt>
      <trkpt lat="46.20958" lon="5.7404">
        <ele>770.1533203125</ele>
        <time>2010-09-19T12:47:28Z</time>
      </trkpt>
      <trkpt lat="46.20954" lon="5.7404">
        <ele>769.6728515625</ele>
        <time>2010-09-19T12:47:35Z</time>
      </trkpt>
      <trkpt lat="46.20953" lon="5.74042">
        <ele>770.1533203125</ele>
        <time>2010-09-19T12:47:40Z</time>
      </trkpt>
      <trkpt lat="46.20953" lon="5.7404">
        <ele>769.6728515625</ele>
        <time>2010-09-19T12:47:50Z</time>
      </trkpt>
      <trkpt lat="46.20956" lon="5.74038">
        <ele>769.6728515625</ele>
        <time>2010-09-19T12:48:00Z</time>
      </trkpt>
      <trkpt lat="46.20956" lon="5.74035">
        <ele>770.1533203125</ele>
        <time>2010-09-19T12:48:11Z</time>
      </trkpt>
      <trkpt lat="46.20957" lon="5.74036">
        <ele>770.63403320312</ele>
        <time>2010-09-19T12:48:16Z</time>
      </trkpt>
      <trkpt lat="46.20956" lon="5.74036">
        <ele>769.6728515625</ele>
        <time>2010-09-19T12:48:30Z</time>
      </trkpt>
      <trkpt lat="46.20956" lon="5.74032">
        <ele>770.1533203125</ele>
        <time>2010-09-19T12:48:44Z</time>
      </trkpt>
      <trkpt lat="46.20956" lon="5.74033">
        <ele>769.6728515625</ele>
        <time>2010-09-19T12:48:55Z</time>
      </trkpt>
      <trkpt lat="46.20954" lon="5.74039">
        <ele>769.6728515625</ele>
        <time>2010-09-19T12:49:00Z</time>
      </trkpt>
      <trkpt lat="46.20953" lon="5.74039">
        <ele>769.19213867188</ele>
        <time>2010-09-19T12:49:06Z</time>
      </trkpt>
      <trkpt lat="46.20958" lon="5.74042">
        <ele>769.6728515625</ele>
        <time>2010-09-19T12:49:17Z</time>
      </trkpt>
      <trkpt lat="46.20959" lon="5.74041">
        <ele>769.6728515625</ele>
        <time>2010-09-19T12:49:27Z</time>
      </trkpt>
      <trkpt lat="46.20961" lon="5.74044">
        <ele>770.1533203125</ele>
        <time>2010-09-19T12:49:33Z</time>
      </trkpt>
      <trkpt lat="46.20961" lon="5.74045">
        <ele>770.1533203125</ele>
        <time>2010-09-19T12:49:43Z</time>
      </trkpt>
      <trkpt lat="46.20958" lon="5.7404">
        <ele>769.6728515625</ele>
        <time>2010-09-19T12:49:54Z</time>
      </trkpt>
      <trkpt lat="46.20957" lon="5.7404">
        <ele>768.71142578125</ele>
        <time>2010-09-19T12:50:05Z</time>
      </trkpt>
      <trkpt lat="46.20956" lon="5.74042">
        <ele>768.71142578125</ele>
        <time>2010-09-19T12:50:14Z</time>
      </trkpt>
      <trkpt lat="46.20952" lon="5.74038">
        <ele>768.71142578125</ele>
        <time>2010-09-19T12:50:27Z</time>
      </trkpt>
      <trkpt lat="46.20955" lon="5.7404">
        <ele>768.71142578125</ele>
        <time>2010-09-19T12:50:31Z</time>
      </trkpt>
      <trkpt lat="46.20958" lon="5.74042">
        <ele>768.71142578125</ele>
        <time>2010-09-19T12:50:34Z</time>
      </trkpt>
      <trkpt lat="46.20959" lon="5.74049">
        <ele>769.19213867188</ele>
        <time>2010-09-19T12:50:39Z</time>
      </trkpt>
      <trkpt lat="46.2096" lon="5.74054">
        <ele>768.71142578125</ele>
        <time>2010-09-19T12:50:46Z</time>
      </trkpt>
      <trkpt lat="46.20959" lon="5.74052">
        <ele>769.6728515625</ele>
        <time>2010-09-19T12:50:54Z</time>
      </trkpt>
      <trkpt lat="46.20955" lon="5.7405">
        <ele>770.1533203125</ele>
        <time>2010-09-19T12:50:59Z</time>
      </trkpt>
      <trkpt lat="46.20953" lon="5.74052">
        <ele>770.1533203125</ele>
        <time>2010-09-19T12:51:06Z</time>
      </trkpt>
      <trkpt lat="46.20954" lon="5.74051">
        <ele>769.6728515625</ele>
        <time>2010-09-19T12:51:13Z</time>
      </trkpt>
      <trkpt lat="46.20954" lon="5.74053">
        <ele>769.6728515625</ele>
        <time>2010-09-19T12:51:32Z</time>
      </trkpt>
      <trkpt lat="46.20952" lon="5.74052">
        <ele>769.6728515625</ele>
        <time>2010-09-19T12:51:45Z</time>
      </trkpt>
      <trkpt lat="46.20951" lon="5.74052">
        <ele>769.6728515625</ele>
        <time>2010-09-19T12:51:55Z</time>
      </trkpt>
      <trkpt lat="46.2095" lon="5.74048">
        <ele>770.1533203125</ele>
        <time>2010-09-19T12:52:09Z</time>
      </trkpt>
      <trkpt lat="46.2095" lon="5.74047">
        <ele>770.1533203125</ele>
        <time>2010-09-19T12:52:23Z</time>
      </trkpt>
      <trkpt lat="46.20953" lon="5.74043">
        <ele>768.71142578125</ele>
        <time>2010-09-19T12:52:35Z</time>
      </trkpt>
      <trkpt lat="46.20955" lon="5.74045">
        <ele>769.19213867188</ele>
        <time>2010-09-19T12:52:38Z</time>
      </trkpt>
      <trkpt lat="46.20951" lon="5.74053">
        <ele>769.19213867188</ele>
        <time>2010-09-19T12:52:43Z</time>
      </trkpt>
      <trkpt lat="46.20951" lon="5.74055">
        <ele>769.19213867188</ele>
        <time>2010-09-19T12:52:44Z</time>
      </trkpt>
      <trkpt lat="46.20951" lon="5.74063">
        <ele>769.19213867188</ele>
        <time>2010-09-19T12:52:50Z</time>
      </trkpt>
      <trkpt lat="46.20954" lon="5.74064">
        <ele>769.19213867188</ele>
        <time>2010-09-19T12:52:53Z</time>
      </trkpt>
      <trkpt lat="46.20959" lon="5.74063">
        <ele>769.19213867188</ele>
        <time>2010-09-19T12:52:59Z</time>
      </trkpt>
      <trkpt lat="46.20966" lon="5.74063">
        <ele>769.6728515625</ele>
        <time>2010-09-19T12:53:06Z</time>
      </trkpt>
      <trkpt lat="46.20967" lon="5.74063">
        <ele>769.6728515625</ele>
        <time>2010-09-19T12:53:08Z</time>
      </trkpt>
      <trkpt lat="46.20975" lon="5.74064">
        <ele>769.6728515625</ele>
        <time>2010-09-19T12:53:13Z</time>
      </trkpt>
      <trkpt lat="46.20985" lon="5.74064">
        <ele>770.1533203125</ele>
        <time>2010-09-19T12:53:17Z</time>
      </trkpt>
      <trkpt lat="46.21005" lon="5.74085">
        <ele>771.11474609375</ele>
        <time>2010-09-19T12:53:25Z</time>
      </trkpt>
      <trkpt lat="46.21021" lon="5.74093">
        <ele>773.03735351562</ele>
        <time>2010-09-19T12:53:30Z</time>
      </trkpt>
      <trkpt lat="46.21034" lon="5.74095">
        <ele>773.99853515625</ele>
        <time>2010-09-19T12:53:34Z</time>
      </trkpt>
      <trkpt lat="46.21055" lon="5.74089">
        <ele>775.4404296875</ele>
        <time>2010-09-19T12:53:40Z</time>
      </trkpt>
      <trkpt lat="46.21078" lon="5.74078">
        <ele>776.40185546875</ele>
        <time>2010-09-19T12:53:47Z</time>
      </trkpt>
      <trkpt lat="46.21098" lon="5.74061">
        <ele>778.32446289062</ele>
        <time>2010-09-19T12:53:54Z</time>
      </trkpt>
      <trkpt lat="46.21124" lon="5.74039">
        <ele>779.76635742188</ele>
        <time>2010-09-19T12:54:03Z</time>
      </trkpt>
      <trkpt lat="46.2114" lon="5.74023">
        <ele>780.24731445312</ele>
        <time>2010-09-19T12:54:10Z</time>
      </trkpt>
      <trkpt lat="46.21153" lon="5.74012">
        <ele>781.20874023438</ele>
        <time>2010-09-19T12:54:16Z</time>
      </trkpt>
      <trkpt lat="46.21172" lon="5.73996">
        <ele>782.65063476562</ele>
        <time>2010-09-19T12:54:24Z</time>
      </trkpt>
      <trkpt lat="46.21189" lon="5.73973">
        <ele>784.5732421875</ele>
        <time>2010-09-19T12:54:33Z</time>
      </trkpt>
      <trkpt lat="46.2121" lon="5.73942">
        <ele>787.45703125</ele>
        <time>2010-09-19T12:54:44Z</time>
      </trkpt>
      <trkpt lat="46.21228" lon="5.73927">
        <ele>787.45703125</ele>
        <time>2010-09-19T12:54:51Z</time>
      </trkpt>
      <trkpt lat="46.21241" lon="5.73923">
        <ele>788.41845703125</ele>
        <time>2010-09-19T12:54:56Z</time>
      </trkpt>
      <trkpt lat="46.21265" lon="5.73919">
        <ele>789.37963867188</ele>
        <time>2010-09-19T12:55:04Z</time>
      </trkpt>
      <trkpt lat="46.21292" lon="5.73922">
        <ele>790.82153320312</ele>
        <time>2010-09-19T12:55:13Z</time>
      </trkpt>
      <trkpt lat="46.21316" lon="5.73928">
        <ele>791.78295898438</ele>
        <time>2010-09-19T12:55:21Z</time>
      </trkpt>
      <trkpt lat="46.21341" lon="5.7394">
        <ele>792.74438476562</ele>
        <time>2010-09-19T12:55:28Z</time>
      </trkpt>
      <trkpt lat="46.21376" lon="5.73947">
        <ele>792.74438476562</ele>
        <time>2010-09-19T12:55:37Z</time>
      </trkpt>
      <trkpt lat="46.21404" lon="5.73953">
        <ele>793.70556640625</ele>
        <time>2010-09-19T12:55:44Z</time>
      </trkpt>
      <trkpt lat="46.21429" lon="5.73968">
        <ele>794.66674804688</ele>
        <time>2010-09-19T12:55:51Z</time>
      </trkpt>
      <trkpt lat="46.21449" lon="5.73987">
        <ele>795.1474609375</ele>
        <time>2010-09-19T12:55:57Z</time>
      </trkpt>
      <trkpt lat="46.21474" lon="5.74015">
        <ele>797.0703125</ele>
        <time>2010-09-19T12:56:05Z</time>
      </trkpt>
      <trkpt lat="46.21495" lon="5.74038">
        <ele>798.51220703125</ele>
        <time>2010-09-19T12:56:13Z</time>
      </trkpt>
      <trkpt lat="46.21513" lon="5.74054">
        <ele>798.03173828125</ele>
        <time>2010-09-19T12:56:19Z</time>
      </trkpt>
      <trkpt lat="46.21534" lon="5.74061">
        <ele>798.51220703125</ele>
        <time>2010-09-19T12:56:25Z</time>
      </trkpt>
      <trkpt lat="46.21542" lon="5.74059">
        <ele>798.03173828125</ele>
        <time>2010-09-19T12:56:27Z</time>
      </trkpt>
      <trkpt lat="46.21567" lon="5.7406">
        <ele>796.10913085938</ele>
        <time>2010-09-19T12:56:31Z</time>
      </trkpt>
      <trkpt lat="46.21574" lon="5.74065">
        <ele>796.10913085938</ele>
        <time>2010-09-19T12:56:32Z</time>
      </trkpt>
      <trkpt lat="46.21585" lon="5.74072">
        <ele>796.10913085938</ele>
        <time>2010-09-19T12:56:34Z</time>
      </trkpt>
      <trkpt lat="46.2161" lon="5.74087">
        <ele>797.0703125</ele>
        <time>2010-09-19T12:56:40Z</time>
      </trkpt>
      <trkpt lat="46.21624" lon="5.74092">
        <ele>798.51220703125</ele>
        <time>2010-09-19T12:56:44Z</time>
      </trkpt>
      <trkpt lat="46.21639" lon="5.74097">
        <ele>799.95434570312</ele>
        <time>2010-09-19T12:56:49Z</time>
      </trkpt>
      <trkpt lat="46.21655" lon="5.74095">
        <ele>799.4736328125</ele>
        <time>2010-09-19T12:56:54Z</time>
      </trkpt>
      <trkpt lat="46.21674" lon="5.74085">
        <ele>797.55102539062</ele>
        <time>2010-09-19T12:56:58Z</time>
      </trkpt>
      <trkpt lat="46.21679" lon="5.74082">
        <ele>797.0703125</ele>
        <time>2010-09-19T12:56:59Z</time>
      </trkpt>
      <trkpt lat="46.21701" lon="5.74076">
        <ele>796.58984375</ele>
        <time>2010-09-19T12:57:03Z</time>
      </trkpt>
      <trkpt lat="46.2173" lon="5.74071">
        <ele>797.0703125</ele>
        <time>2010-09-19T12:57:09Z</time>
      </trkpt>
      <trkpt lat="46.21758" lon="5.74064">
        <ele>795.62817382812</ele>
        <time>2010-09-19T12:57:14Z</time>
      </trkpt>
      <trkpt lat="46.21777" lon="5.74063">
        <ele>794.18627929688</ele>
        <time>2010-09-19T12:57:17Z</time>
      </trkpt>
      <trkpt lat="46.21804" lon="5.74064">
        <ele>793.70556640625</ele>
        <time>2010-09-19T12:57:21Z</time>
      </trkpt>
      <trkpt lat="46.2183" lon="5.74058">
        <ele>794.18627929688</ele>
        <time>2010-09-19T12:57:26Z</time>
      </trkpt>
      <trkpt lat="46.21841" lon="5.74053">
        <ele>795.62817382812</ele>
        <time>2010-09-19T12:57:30Z</time>
      </trkpt>
      <trkpt lat="46.21851" lon="5.74048">
        <ele>796.10913085938</ele>
        <time>2010-09-19T12:57:34Z</time>
      </trkpt>
      <trkpt lat="46.21862" lon="5.74034">
        <ele>797.0703125</ele>
        <time>2010-09-19T12:57:40Z</time>
      </trkpt>
      <trkpt lat="46.21875" lon="5.74036">
        <ele>797.0703125</ele>
        <time>2010-09-19T12:57:45Z</time>
      </trkpt>
      <trkpt lat="46.21896" lon="5.74036">
        <ele>797.55102539062</ele>
        <time>2010-09-19T12:57:52Z</time>
      </trkpt>
      <trkpt lat="46.21912" lon="5.74033">
        <ele>796.58984375</ele>
        <time>2010-09-19T12:57:57Z</time>
      </trkpt>
      <trkpt lat="46.21921" lon="5.74032">
        <ele>795.62817382812</ele>
        <time>2010-09-19T12:57:59Z</time>
      </trkpt>
      <trkpt lat="46.21926" lon="5.74031">
        <ele>795.1474609375</ele>
        <time>2010-09-19T12:58:00Z</time>
      </trkpt>
      <trkpt lat="46.21964" lon="5.74028">
        <ele>794.18627929688</ele>
        <time>2010-09-19T12:58:06Z</time>
      </trkpt>
      <trkpt lat="46.21991" lon="5.74029">
        <ele>794.18627929688</ele>
        <time>2010-09-19T12:58:11Z</time>
      </trkpt>
      <trkpt lat="46.22003" lon="5.7403">
        <ele>794.18627929688</ele>
        <time>2010-09-19T12:58:14Z</time>
      </trkpt>
      <trkpt lat="46.22039" lon="5.74031">
        <ele>793.70556640625</ele>
        <time>2010-09-19T12:58:21Z</time>
      </trkpt>
      <trkpt lat="46.22065" lon="5.74033">
        <ele>795.1474609375</ele>
        <time>2010-09-19T12:58:26Z</time>
      </trkpt>
      <trkpt lat="46.2209" lon="5.74032">
        <ele>796.10913085938</ele>
        <time>2010-09-19T12:58:31Z</time>
      </trkpt>
      <trkpt lat="46.22109" lon="5.74033">
        <ele>797.0703125</ele>
        <time>2010-09-19T12:58:36Z</time>
      </trkpt>
      <trkpt lat="46.22126" lon="5.74036">
        <ele>796.58984375</ele>
        <time>2010-09-19T12:58:40Z</time>
      </trkpt>
      <trkpt lat="46.22138" lon="5.74036">
        <ele>795.62817382812</ele>
        <time>2010-09-19T12:58:42Z</time>
      </trkpt>
      <trkpt lat="46.22163" lon="5.74032">
        <ele>796.58984375</ele>
        <time>2010-09-19T12:58:46Z</time>
      </trkpt>
      <trkpt lat="46.2219" lon="5.74026">
        <ele>797.55102539062</ele>
        <time>2010-09-19T12:58:52Z</time>
      </trkpt>
      <trkpt lat="46.22211" lon="5.74022">
        <ele>798.51220703125</ele>
        <time>2010-09-19T12:58:57Z</time>
      </trkpt>
      <trkpt lat="46.22231" lon="5.74018">
        <ele>798.99291992188</ele>
        <time>2010-09-19T12:59:03Z</time>
      </trkpt>
      <trkpt lat="46.22248" lon="5.74015">
        <ele>798.99291992188</ele>
        <time>2010-09-19T12:59:07Z</time>
      </trkpt>
      <trkpt lat="46.22268" lon="5.74011">
        <ele>800.43505859375</ele>
        <time>2010-09-19T12:59:13Z</time>
      </trkpt>
      <trkpt lat="46.22289" lon="5.74007">
        <ele>801.39624023438</ele>
        <time>2010-09-19T12:59:20Z</time>
      </trkpt>
      <trkpt lat="46.22308" lon="5.74005">
        <ele>801.39624023438</ele>
        <time>2010-09-19T12:59:27Z</time>
      </trkpt>
      <trkpt lat="46.22329" lon="5.74004">
        <ele>800.91552734375</ele>
        <time>2010-09-19T12:59:33Z</time>
      </trkpt>
      <trkpt lat="46.2235" lon="5.74005">
        <ele>801.39624023438</ele>
        <time>2010-09-19T12:59:38Z</time>
      </trkpt>
      <trkpt lat="46.22378" lon="5.74006">
        <ele>801.876953125</ele>
        <time>2010-09-19T12:59:44Z</time>
      </trkpt>
      <trkpt lat="46.22406" lon="5.74004">
        <ele>801.39624023438</ele>
        <time>2010-09-19T12:59:50Z</time>
      </trkpt>
      <trkpt lat="46.22435" lon="5.73999">
        <ele>799.95434570312</ele>
        <time>2010-09-19T12:59:55Z</time>
      </trkpt>
      <trkpt lat="46.22459" lon="5.74003">
        <ele>801.876953125</ele>
        <time>2010-09-19T13:00:00Z</time>
      </trkpt>
      <trkpt lat="46.22474" lon="5.74009">
        <ele>802.357421875</ele>
        <time>2010-09-19T13:00:04Z</time>
      </trkpt>
      <trkpt lat="46.22491" lon="5.7402">
        <ele>801.876953125</ele>
        <time>2010-09-19T13:00:09Z</time>
      </trkpt>
      <trkpt lat="46.22511" lon="5.74041">
        <ele>801.876953125</ele>
        <time>2010-09-19T13:00:15Z</time>
      </trkpt>
      <trkpt lat="46.22517" lon="5.74048">
        <ele>801.876953125</ele>
        <time>2010-09-19T13:00:17Z</time>
      </trkpt>
      <trkpt lat="46.22533" lon="5.74061">
        <ele>801.876953125</ele>
        <time>2010-09-19T13:00:21Z</time>
      </trkpt>
      <trkpt lat="46.22549" lon="5.74068">
        <ele>802.357421875</ele>
        <time>2010-09-19T13:00:26Z</time>
      </trkpt>
      <trkpt lat="46.22559" lon="5.74065">
        <ele>803.79956054688</ele>
        <time>2010-09-19T13:00:33Z</time>
      </trkpt>
      <trkpt lat="46.22569" lon="5.74058">
        <ele>805.72216796875</ele>
        <time>2010-09-19T13:00:39Z</time>
      </trkpt>
      <trkpt lat="46.2258" lon="5.7405">
        <ele>807.1640625</ele>
        <time>2010-09-19T13:00:47Z</time>
      </trkpt>
      <trkpt lat="46.22589" lon="5.74045">
        <ele>809.08666992188</ele>
        <time>2010-09-19T13:00:55Z</time>
      </trkpt>
      <trkpt lat="46.226" lon="5.74047">
        <ele>809.5673828125</ele>
        <time>2010-09-19T13:01:01Z</time>
      </trkpt>
      <trkpt lat="46.22613" lon="5.74046">
        <ele>810.0478515625</ele>
        <time>2010-09-19T13:01:06Z</time>
      </trkpt>
      <trkpt lat="46.22628" lon="5.74052">
        <ele>810.52856445312</ele>
        <time>2010-09-19T13:01:11Z</time>
      </trkpt>
      <trkpt lat="46.22641" lon="5.74068">
        <ele>811.970703125</ele>
        <time>2010-09-19T13:01:17Z</time>
      </trkpt>
      <trkpt lat="46.22653" lon="5.74085">
        <ele>812.45141601562</ele>
        <time>2010-09-19T13:01:23Z</time>
      </trkpt>
      <trkpt lat="46.22668" lon="5.74104">
        <ele>812.93212890625</ele>
        <time>2010-09-19T13:01:30Z</time>
      </trkpt>
      <trkpt lat="46.22692" lon="5.74133">
        <ele>814.85473632812</ele>
        <time>2010-09-19T13:01:40Z</time>
      </trkpt>
      <trkpt lat="46.22715" lon="5.74154">
        <ele>815.81616210938</ele>
        <time>2010-09-19T13:01:49Z</time>
      </trkpt>
      <trkpt lat="46.22738" lon="5.74175">
        <ele>816.29663085938</ele>
        <time>2010-09-19T13:01:58Z</time>
      </trkpt>
      <trkpt lat="46.22764" lon="5.742">
        <ele>817.25805664062</ele>
        <time>2010-09-19T13:02:07Z</time>
      </trkpt>
      <trkpt lat="46.22793" lon="5.7422">
        <ele>817.73852539062</ele>
        <time>2010-09-19T13:02:16Z</time>
      </trkpt>
      <trkpt lat="46.22813" lon="5.7422">
        <ele>819.1806640625</ele>
        <time>2010-09-19T13:02:22Z</time>
      </trkpt>
      <trkpt lat="46.2284" lon="5.7421">
        <ele>819.66137695312</ele>
        <time>2010-09-19T13:02:30Z</time>
      </trkpt>
      <trkpt lat="46.22866" lon="5.74188">
        <ele>820.62255859375</ele>
        <time>2010-09-19T13:02:39Z</time>
      </trkpt>
      <trkpt lat="46.2289" lon="5.74168">
        <ele>822.54516601562</ele>
        <time>2010-09-19T13:02:48Z</time>
      </trkpt>
      <trkpt lat="46.22905" lon="5.74144">
        <ele>823.50659179688</ele>
        <time>2010-09-19T13:02:56Z</time>
      </trkpt>
      <trkpt lat="46.22917" lon="5.74113">
        <ele>825.42895507812</ele>
        <time>2010-09-19T13:03:05Z</time>
      </trkpt>
      <trkpt lat="46.22927" lon="5.7408">
        <ele>828.31323242188</ele>
        <time>2010-09-19T13:03:14Z</time>
      </trkpt>
      <trkpt lat="46.22939" lon="5.74068">
        <ele>829.2744140625</ele>
        <time>2010-09-19T13:03:20Z</time>
      </trkpt>
      <trkpt lat="46.22951" lon="5.74076">
        <ele>830.23583984375</ele>
        <time>2010-09-19T13:03:25Z</time>
      </trkpt>
      <trkpt lat="46.22964" lon="5.74091">
        <ele>831.677734375</ele>
        <time>2010-09-19T13:03:31Z</time>
      </trkpt>
      <trkpt lat="46.22982" lon="5.74114">
        <ele>832.15844726562</ele>
        <time>2010-09-19T13:03:40Z</time>
      </trkpt>
      <trkpt lat="46.22995" lon="5.7413">
        <ele>832.63916015625</ele>
        <time>2010-09-19T13:03:46Z</time>
      </trkpt>
      <trkpt lat="46.23019" lon="5.74158">
        <ele>834.0810546875</ele>
        <time>2010-09-19T13:03:56Z</time>
      </trkpt>
      <trkpt lat="46.23042" lon="5.74183">
        <ele>834.0810546875</ele>
        <time>2010-09-19T13:04:05Z</time>
      </trkpt>
      <trkpt lat="46.23065" lon="5.74208">
        <ele>834.0810546875</ele>
        <time>2010-09-19T13:04:13Z</time>
      </trkpt>
      <trkpt lat="46.23096" lon="5.74222">
        <ele>833.60034179688</ele>
        <time>2010-09-19T13:04:21Z</time>
      </trkpt>
      <trkpt lat="46.23122" lon="5.74226">
        <ele>835.04248046875</ele>
        <time>2010-09-19T13:04:28Z</time>
      </trkpt>
      <trkpt lat="46.23138" lon="5.74233">
        <ele>835.04248046875</ele>
        <time>2010-09-19T13:04:33Z</time>
      </trkpt>
      <trkpt lat="46.2316" lon="5.74242">
        <ele>836.484375</ele>
        <time>2010-09-19T13:04:39Z</time>
      </trkpt>
      <trkpt lat="46.23172" lon="5.74247">
        <ele>837.44555664062</ele>
        <time>2010-09-19T13:04:43Z</time>
      </trkpt>
      <trkpt lat="46.23197" lon="5.74261">
        <ele>839.3681640625</ele>
        <time>2010-09-19T13:04:51Z</time>
      </trkpt>
      <trkpt lat="46.23217" lon="5.74277">
        <ele>839.84887695312</ele>
        <time>2010-09-19T13:04:58Z</time>
      </trkpt>
      <trkpt lat="46.23238" lon="5.74298">
        <ele>840.32958984375</ele>
        <time>2010-09-19T13:05:05Z</time>
      </trkpt>
      <trkpt lat="46.23241" lon="5.743">
        <ele>840.32958984375</ele>
        <time>2010-09-19T13:05:06Z</time>
      </trkpt>
      <trkpt lat="46.2327" lon="5.74307">
        <ele>839.3681640625</ele>
        <time>2010-09-19T13:05:12Z</time>
      </trkpt>
      <trkpt lat="46.23276" lon="5.74308">
        <ele>838.40698242188</ele>
        <time>2010-09-19T13:05:13Z</time>
      </trkpt>
      <trkpt lat="46.23305" lon="5.74306">
        <ele>836.484375</ele>
        <time>2010-09-19T13:05:17Z</time>
      </trkpt>
      <trkpt lat="46.23338" lon="5.74309">
        <ele>837.44555664062</ele>
        <time>2010-09-19T13:05:22Z</time>
      </trkpt>
      <trkpt lat="46.23364" lon="5.74326">
        <ele>837.44555664062</ele>
        <time>2010-09-19T13:05:27Z</time>
      </trkpt>
      <trkpt lat="46.23376" lon="5.74335">
        <ele>837.92626953125</ele>
        <time>2010-09-19T13:05:30Z</time>
      </trkpt>
      <trkpt lat="46.23386" lon="5.74326">
        <ele>837.92626953125</ele>
        <time>2010-09-19T13:05:34Z</time>
      </trkpt>
      <trkpt lat="46.23384" lon="5.74316">
        <ele>837.92626953125</ele>
        <time>2010-09-19T13:05:36Z</time>
      </trkpt>
      <trkpt lat="46.23376" lon="5.74287">
        <ele>838.40698242188</ele>
        <time>2010-09-19T13:05:42Z</time>
      </trkpt>
      <trkpt lat="46.23377" lon="5.74268">
        <ele>837.92626953125</ele>
        <time>2010-09-19T13:05:46Z</time>
      </trkpt>
      <trkpt lat="46.23373" lon="5.74246">
        <ele>838.8876953125</ele>
        <time>2010-09-19T13:05:51Z</time>
      </trkpt>
      <trkpt lat="46.23372" lon="5.74222">
        <ele>839.3681640625</ele>
        <time>2010-09-19T13:05:57Z</time>
      </trkpt>
      <trkpt lat="46.2337" lon="5.74209">
        <ele>839.3681640625</ele>
        <time>2010-09-19T13:06:00Z</time>
      </trkpt>
      <trkpt lat="46.23369" lon="5.74188">
        <ele>840.32958984375</ele>
        <time>2010-09-19T13:06:05Z</time>
      </trkpt>
      <trkpt lat="46.23371" lon="5.74176">
        <ele>840.32958984375</ele>
        <time>2010-09-19T13:06:08Z</time>
      </trkpt>
      <trkpt lat="46.23376" lon="5.74153">
        <ele>841.29077148438</ele>
        <time>2010-09-19T13:06:13Z</time>
      </trkpt>
      <trkpt lat="46.23376" lon="5.74132">
        <ele>841.771484375</ele>
        <time>2010-09-19T13:06:18Z</time>
      </trkpt>
      <trkpt lat="46.23378" lon="5.74112">
        <ele>842.25219726562</ele>
        <time>2010-09-19T13:06:23Z</time>
      </trkpt>
      <trkpt lat="46.2338" lon="5.74098">
        <ele>842.73291015625</ele>
        <time>2010-09-19T13:06:28Z</time>
      </trkpt>
      <trkpt lat="46.2338" lon="5.74093">
        <ele>843.21337890625</ele>
        <time>2010-09-19T13:06:30Z</time>
      </trkpt>
      <trkpt lat="46.23383" lon="5.7408">
        <ele>843.69409179688</ele>
        <time>2010-09-19T13:06:36Z</time>
      </trkpt>
      <trkpt lat="46.23388" lon="5.74066">
        <ele>845.13623046875</ele>
        <time>2010-09-19T13:06:42Z</time>
      </trkpt>
      <trkpt lat="46.23393" lon="5.74044">
        <ele>846.09765625</ele>
        <time>2010-09-19T13:06:52Z</time>
      </trkpt>
      <trkpt lat="46.23394" lon="5.74028">
        <ele>846.57836914062</ele>
        <time>2010-09-19T13:06:59Z</time>
      </trkpt>
      <trkpt lat="46.23388" lon="5.74011">
        <ele>846.57836914062</ele>
        <time>2010-09-19T13:07:07Z</time>
      </trkpt>
      <trkpt lat="46.23386" lon="5.74005">
        <ele>846.57836914062</ele>
        <time>2010-09-19T13:07:10Z</time>
      </trkpt>
      <trkpt lat="46.23381" lon="5.73993">
        <ele>847.53955078125</ele>
        <time>2010-09-19T13:07:16Z</time>
      </trkpt>
      <trkpt lat="46.23386" lon="5.73985">
        <ele>848.02026367188</ele>
        <time>2010-09-19T13:07:21Z</time>
      </trkpt>
      <trkpt lat="46.23394" lon="5.73977">
        <ele>848.50073242188</ele>
        <time>2010-09-19T13:07:26Z</time>
      </trkpt>
      <trkpt lat="46.23407" lon="5.73965">
        <ele>849.94287109375</ele>
        <time>2010-09-19T13:07:33Z</time>
      </trkpt>
      <trkpt lat="46.2342" lon="5.73959">
        <ele>851.86547851562</ele>
        <time>2010-09-19T13:07:39Z</time>
      </trkpt>
      <trkpt lat="46.23439" lon="5.73956">
        <ele>851.86547851562</ele>
        <time>2010-09-19T13:07:47Z</time>
      </trkpt>
      <trkpt lat="46.23463" lon="5.73961">
        <ele>852.34594726562</ele>
        <time>2010-09-19T13:07:56Z</time>
      </trkpt>
      <trkpt lat="46.23476" lon="5.73962">
        <ele>852.82666015625</ele>
        <time>2010-09-19T13:08:02Z</time>
      </trkpt>
      <trkpt lat="46.23496" lon="5.73967">
        <ele>854.26879882812</ele>
        <time>2010-09-19T13:08:11Z</time>
      </trkpt>
      <trkpt lat="46.2351" lon="5.73974">
        <ele>855.22998046875</ele>
        <time>2010-09-19T13:08:18Z</time>
      </trkpt>
      <trkpt lat="46.23523" lon="5.73982">
        <ele>855.71069335938</ele>
        <time>2010-09-19T13:08:25Z</time>
      </trkpt>
      <trkpt lat="46.23541" lon="5.73991">
        <ele>858.11401367188</ele>
        <time>2010-09-19T13:08:34Z</time>
      </trkpt>
      <trkpt lat="46.23555" lon="5.73998">
        <ele>859.0751953125</ele>
        <time>2010-09-19T13:08:42Z</time>
      </trkpt>
      <trkpt lat="46.23568" lon="5.74005">
        <ele>860.998046875</ele>
        <time>2010-09-19T13:08:50Z</time>
      </trkpt>
      <trkpt lat="46.23579" lon="5.7401">
        <ele>861.47875976562</ele>
        <time>2010-09-19T13:08:57Z</time>
      </trkpt>
      <trkpt lat="46.2359" lon="5.74017">
        <ele>862.92065429688</ele>
        <time>2010-09-19T13:09:04Z</time>
      </trkpt>
      <trkpt lat="46.23602" lon="5.74024">
        <ele>862.92065429688</ele>
        <time>2010-09-19T13:09:11Z</time>
      </trkpt>
      <trkpt lat="46.23618" lon="5.74032">
        <ele>864.36254882812</ele>
        <time>2010-09-19T13:09:20Z</time>
      </trkpt>
      <trkpt lat="46.23633" lon="5.74038">
        <ele>865.32397460938</ele>
        <time>2010-09-19T13:09:28Z</time>
      </trkpt>
      <trkpt lat="46.2365" lon="5.74039">
        <ele>866.76586914062</ele>
        <time>2010-09-19T13:09:37Z</time>
      </trkpt>
      <trkpt lat="46.2366" lon="5.74038">
        <ele>867.72705078125</ele>
        <time>2010-09-19T13:09:43Z</time>
      </trkpt>
      <trkpt lat="46.23677" lon="5.74041">
        <ele>869.16918945312</ele>
        <time>2010-09-19T13:09:53Z</time>
      </trkpt>
      <trkpt lat="46.23684" lon="5.74046">
        <ele>870.13037109375</ele>
        <time>2010-09-19T13:09:58Z</time>
      </trkpt>
      <trkpt lat="46.23693" lon="5.74051">
        <ele>870.13037109375</ele>
        <time>2010-09-19T13:10:03Z</time>
      </trkpt>
      <trkpt lat="46.23703" lon="5.74053">
        <ele>871.091796875</ele>
        <time>2010-09-19T13:10:09Z</time>
      </trkpt>
      <trkpt lat="46.23715" lon="5.74051">
        <ele>871.572265625</ele>
        <time>2010-09-19T13:10:16Z</time>
      </trkpt>
      <trkpt lat="46.23726" lon="5.74053">
        <ele>872.05297851562</ele>
        <time>2010-09-19T13:10:22Z</time>
      </trkpt>
      <trkpt lat="46.23738" lon="5.74068">
        <ele>872.53369140625</ele>
        <time>2010-09-19T13:10:29Z</time>
      </trkpt>
      <trkpt lat="46.23746" lon="5.74077">
        <ele>872.53369140625</ele>
        <time>2010-09-19T13:10:34Z</time>
      </trkpt>
      <trkpt lat="46.23757" lon="5.74091">
        <ele>872.53369140625</ele>
        <time>2010-09-19T13:10:41Z</time>
      </trkpt>
      <trkpt lat="46.23767" lon="5.74103">
        <ele>872.05297851562</ele>
        <time>2010-09-19T13:10:46Z</time>
      </trkpt>
      <trkpt lat="46.23779" lon="5.74118">
        <ele>871.572265625</ele>
        <time>2010-09-19T13:10:50Z</time>
      </trkpt>
      <trkpt lat="46.2379" lon="5.74136">
        <ele>872.05297851562</ele>
        <time>2010-09-19T13:10:56Z</time>
      </trkpt>
      <trkpt lat="46.23803" lon="5.74158">
        <ele>871.572265625</ele>
        <time>2010-09-19T13:11:02Z</time>
      </trkpt>
      <trkpt lat="46.23816" lon="5.74175">
        <ele>872.05297851562</ele>
        <time>2010-09-19T13:11:09Z</time>
      </trkpt>
      <trkpt lat="46.23826" lon="5.74185">
        <ele>873.01440429688</ele>
        <time>2010-09-19T13:11:14Z</time>
      </trkpt>
      <trkpt lat="46.23838" lon="5.74195">
        <ele>873.9755859375</ele>
        <time>2010-09-19T13:11:20Z</time>
      </trkpt>
      <trkpt lat="46.23843" lon="5.74198">
        <ele>873.9755859375</ele>
        <time>2010-09-19T13:11:22Z</time>
      </trkpt>
      <trkpt lat="46.23849" lon="5.74196">
        <ele>874.93701171875</ele>
        <time>2010-09-19T13:11:26Z</time>
      </trkpt>
      <trkpt lat="46.23853" lon="5.74184">
        <ele>875.89819335938</ele>
        <time>2010-09-19T13:11:31Z</time>
      </trkpt>
      <trkpt lat="46.23853" lon="5.74175">
        <ele>875.89819335938</ele>
        <time>2010-09-19T13:11:35Z</time>
      </trkpt>
      <trkpt lat="46.23852" lon="5.74166">
        <ele>876.37915039062</ele>
        <time>2010-09-19T13:11:38Z</time>
      </trkpt>
      <trkpt lat="46.23858" lon="5.74145">
        <ele>876.85986328125</ele>
        <time>2010-09-19T13:11:45Z</time>
      </trkpt>
      <trkpt lat="46.23858" lon="5.74136">
        <ele>877.82104492188</ele>
        <time>2010-09-19T13:11:50Z</time>
      </trkpt>
      <trkpt lat="46.23861" lon="5.7412">
        <ele>878.3017578125</ele>
        <time>2010-09-19T13:11:57Z</time>
      </trkpt>
      <trkpt lat="46.23864" lon="5.74108">
        <ele>879.74365234375</ele>
        <time>2010-09-19T13:12:03Z</time>
      </trkpt>
      <trkpt lat="46.23865" lon="5.74104">
        <ele>879.74365234375</ele>
        <time>2010-09-19T13:12:05Z</time>
      </trkpt>
      <trkpt lat="46.23871" lon="5.7409">
        <ele>881.18579101562</ele>
        <time>2010-09-19T13:12:12Z</time>
      </trkpt>
      <trkpt lat="46.23876" lon="5.74078">
        <ele>880.705078125</ele>
        <time>2010-09-19T13:12:18Z</time>
      </trkpt>
      <trkpt lat="46.23879" lon="5.74065">
        <ele>882.14697265625</ele>
        <time>2010-09-19T13:12:25Z</time>
      </trkpt>
      <trkpt lat="46.23886" lon="5.74049">
        <ele>881.66625976562</ele>
        <time>2010-09-19T13:12:31Z</time>
      </trkpt>
      <trkpt lat="46.23895" lon="5.74033">
        <ele>881.66625976562</ele>
        <time>2010-09-19T13:12:35Z</time>
      </trkpt>
      <trkpt lat="46.23898" lon="5.74031">
        <ele>880.705078125</ele>
        <time>2010-09-19T13:12:36Z</time>
      </trkpt>
      <trkpt lat="46.23902" lon="5.74022">
        <ele>880.22436523438</ele>
        <time>2010-09-19T13:12:38Z</time>
      </trkpt>
      <trkpt lat="46.23912" lon="5.73997">
        <ele>880.22436523438</ele>
        <time>2010-09-19T13:12:42Z</time>
      </trkpt>
      <trkpt lat="46.23915" lon="5.73993">
        <ele>880.705078125</ele>
        <time>2010-09-19T13:12:45Z</time>
      </trkpt>
      <trkpt lat="46.23915" lon="5.73974">
        <ele>881.18579101562</ele>
        <time>2010-09-19T13:12:52Z</time>
      </trkpt>
      <trkpt lat="46.23912" lon="5.73957">
        <ele>881.18579101562</ele>
        <time>2010-09-19T13:12:58Z</time>
      </trkpt>
      <trkpt lat="46.23911" lon="5.7393">
        <ele>879.74365234375</ele>
        <time>2010-09-19T13:13:04Z</time>
      </trkpt>
      <trkpt lat="46.23913" lon="5.73917">
        <ele>880.22436523438</ele>
        <time>2010-09-19T13:13:08Z</time>
      </trkpt>
      <trkpt lat="46.23919" lon="5.73902">
        <ele>878.3017578125</ele>
        <time>2010-09-19T13:13:11Z</time>
      </trkpt>
      <trkpt lat="46.2393" lon="5.73882">
        <ele>878.3017578125</ele>
        <time>2010-09-19T13:13:15Z</time>
      </trkpt>
      <trkpt lat="46.23936" lon="5.73867">
        <ele>878.3017578125</ele>
        <time>2010-09-19T13:13:19Z</time>
      </trkpt>
      <trkpt lat="46.23943" lon="5.73849">
        <ele>877.82104492188</ele>
        <time>2010-09-19T13:13:23Z</time>
      </trkpt>
      <trkpt lat="46.23948" lon="5.73833">
        <ele>878.3017578125</ele>
        <time>2010-09-19T13:13:28Z</time>
      </trkpt>
      <trkpt lat="46.23947" lon="5.73817">
        <ele>878.78247070312</ele>
        <time>2010-09-19T13:13:33Z</time>
      </trkpt>
      <trkpt lat="46.23951" lon="5.73792">
        <ele>879.26293945312</ele>
        <time>2010-09-19T13:13:39Z</time>
      </trkpt>
      <trkpt lat="46.2396" lon="5.7377">
        <ele>878.78247070312</ele>
        <time>2010-09-19T13:13:45Z</time>
      </trkpt>
      <trkpt lat="46.2396" lon="5.73765">
        <ele>879.26293945312</ele>
        <time>2010-09-19T13:13:46Z</time>
      </trkpt>
      <trkpt lat="46.23956" lon="5.73754">
        <ele>877.34057617188</ele>
        <time>2010-09-19T13:13:50Z</time>
      </trkpt>
      <trkpt lat="46.23959" lon="5.73741">
        <ele>877.82104492188</ele>
        <time>2010-09-19T13:13:54Z</time>
      </trkpt>
      <trkpt lat="46.23967" lon="5.73744">
        <ele>878.3017578125</ele>
        <time>2010-09-19T13:13:59Z</time>
      </trkpt>
      <trkpt lat="46.23972" lon="5.73758">
        <ele>877.82104492188</ele>
        <time>2010-09-19T13:14:03Z</time>
      </trkpt>
      <trkpt lat="46.23985" lon="5.73768">
        <ele>877.82104492188</ele>
        <time>2010-09-19T13:14:09Z</time>
      </trkpt>
      <trkpt lat="46.23995" lon="5.73782">
        <ele>878.3017578125</ele>
        <time>2010-09-19T13:14:15Z</time>
      </trkpt>
      <trkpt lat="46.24" lon="5.73789">
        <ele>878.3017578125</ele>
        <time>2010-09-19T13:14:18Z</time>
      </trkpt>
      <trkpt lat="46.2401" lon="5.73806">
        <ele>878.78247070312</ele>
        <time>2010-09-19T13:14:24Z</time>
      </trkpt>
      <trkpt lat="46.24015" lon="5.73815">
        <ele>879.26293945312</ele>
        <time>2010-09-19T13:14:28Z</time>
      </trkpt>
      <trkpt lat="46.24029" lon="5.73827">
        <ele>880.22436523438</ele>
        <time>2010-09-19T13:14:35Z</time>
      </trkpt>
      <trkpt lat="46.24039" lon="5.73838">
        <ele>879.74365234375</ele>
        <time>2010-09-19T13:14:42Z</time>
      </trkpt>
      <trkpt lat="46.24042" lon="5.73844">
        <ele>880.22436523438</ele>
        <time>2010-09-19T13:14:44Z</time>
      </trkpt>
      <trkpt lat="46.24054" lon="5.73856">
        <ele>880.705078125</ele>
        <time>2010-09-19T13:14:50Z</time>
      </trkpt>
      <trkpt lat="46.2406" lon="5.73867">
        <ele>880.705078125</ele>
        <time>2010-09-19T13:14:55Z</time>
      </trkpt>
      <trkpt lat="46.24061" lon="5.73873">
        <ele>880.705078125</ele>
        <time>2010-09-19T13:14:57Z</time>
      </trkpt>
      <trkpt lat="46.24068" lon="5.73886">
        <ele>881.66625976562</ele>
        <time>2010-09-19T13:15:03Z</time>
      </trkpt>
      <trkpt lat="46.24078" lon="5.73898">
        <ele>882.14697265625</ele>
        <time>2010-09-19T13:15:09Z</time>
      </trkpt>
      <trkpt lat="46.24087" lon="5.73908">
        <ele>882.62768554688</ele>
        <time>2010-09-19T13:15:14Z</time>
      </trkpt>
      <trkpt lat="46.24088" lon="5.73911">
        <ele>882.14697265625</ele>
        <time>2010-09-19T13:15:15Z</time>
      </trkpt>
      <trkpt lat="46.24098" lon="5.73924">
        <ele>882.62768554688</ele>
        <time>2010-09-19T13:15:21Z</time>
      </trkpt>
      <trkpt lat="46.24106" lon="5.73932">
        <ele>883.5888671875</ele>
        <time>2010-09-19T13:15:26Z</time>
      </trkpt>
      <trkpt lat="46.24112" lon="5.73939">
        <ele>884.06958007812</ele>
        <time>2010-09-19T13:15:30Z</time>
      </trkpt>
      <trkpt lat="46.24116" lon="5.73942">
        <ele>883.5888671875</ele>
        <time>2010-09-19T13:15:32Z</time>
      </trkpt>
      <trkpt lat="46.24128" lon="5.73954">
        <ele>884.55029296875</ele>
        <time>2010-09-19T13:15:39Z</time>
      </trkpt>
      <trkpt lat="46.24142" lon="5.73965">
        <ele>885.9921875</ele>
        <time>2010-09-19T13:15:47Z</time>
      </trkpt>
      <trkpt lat="46.24143" lon="5.73967">
        <ele>885.51147460938</ele>
        <time>2010-09-19T13:15:48Z</time>
      </trkpt>
      <trkpt lat="46.24154" lon="5.73977">
        <ele>885.9921875</ele>
        <time>2010-09-19T13:15:55Z</time>
      </trkpt>
      <trkpt lat="46.24162" lon="5.73987">
        <ele>886.95336914062</ele>
        <time>2010-09-19T13:16:02Z</time>
      </trkpt>
      <trkpt lat="46.24167" lon="5.73994">
        <ele>887.43408203125</ele>
        <time>2010-09-19T13:16:07Z</time>
      </trkpt>
      <trkpt lat="46.24168" lon="5.73997">
        <ele>887.43408203125</ele>
        <time>2010-09-19T13:16:09Z</time>
      </trkpt>
      <trkpt lat="46.24178" lon="5.74003">
        <ele>887.91479492188</ele>
        <time>2010-09-19T13:16:16Z</time>
      </trkpt>
      <trkpt lat="46.24188" lon="5.74011">
        <ele>888.3955078125</ele>
        <time>2010-09-19T13:16:22Z</time>
      </trkpt>
      <trkpt lat="46.24196" lon="5.7402">
        <ele>888.87622070312</ele>
        <time>2010-09-19T13:16:27Z</time>
      </trkpt>
      <trkpt lat="46.24204" lon="5.74032">
        <ele>889.35668945312</ele>
        <time>2010-09-19T13:16:33Z</time>
      </trkpt>
      <trkpt lat="46.24212" lon="5.74052">
        <ele>889.35668945312</ele>
        <time>2010-09-19T13:16:39Z</time>
      </trkpt>
      <trkpt lat="46.24222" lon="5.74073">
        <ele>889.35668945312</ele>
        <time>2010-09-19T13:16:46Z</time>
      </trkpt>
      <trkpt lat="46.24227" lon="5.74087">
        <ele>889.83740234375</ele>
        <time>2010-09-19T13:16:51Z</time>
      </trkpt>
      <trkpt lat="46.24235" lon="5.74106">
        <ele>890.31811523438</ele>
        <time>2010-09-19T13:16:58Z</time>
      </trkpt>
      <trkpt lat="46.24241" lon="5.74113">
        <ele>890.31811523438</ele>
        <time>2010-09-19T13:17:02Z</time>
      </trkpt>
      <trkpt lat="46.24243" lon="5.74118">
        <ele>890.31811523438</ele>
        <time>2010-09-19T13:17:04Z</time>
      </trkpt>
      <trkpt lat="46.2425" lon="5.74125">
        <ele>890.79858398438</ele>
        <time>2010-09-19T13:17:09Z</time>
      </trkpt>
      <trkpt lat="46.24261" lon="5.74135">
        <ele>891.76000976562</ele>
        <time>2010-09-19T13:17:16Z</time>
      </trkpt>
      <trkpt lat="46.24269" lon="5.74147">
        <ele>892.24096679688</ele>
        <time>2010-09-19T13:17:22Z</time>
      </trkpt>
      <trkpt lat="46.24279" lon="5.74153">
        <ele>892.24096679688</ele>
        <time>2010-09-19T13:17:27Z</time>
      </trkpt>
      <trkpt lat="46.24291" lon="5.74167">
        <ele>892.7216796875</ele>
        <time>2010-09-19T13:17:34Z</time>
      </trkpt>
      <trkpt lat="46.24295" lon="5.7417">
        <ele>893.2021484375</ele>
        <time>2010-09-19T13:17:36Z</time>
      </trkpt>
      <trkpt lat="46.24304" lon="5.74178">
        <ele>894.64404296875</ele>
        <time>2010-09-19T13:17:43Z</time>
      </trkpt>
      <trkpt lat="46.24308" lon="5.7418">
        <ele>895.12475585938</ele>
        <time>2010-09-19T13:17:48Z</time>
      </trkpt>
      <trkpt lat="46.24318" lon="5.74185">
        <ele>895.60546875</ele>
        <time>2010-09-19T13:17:54Z</time>
      </trkpt>
      <trkpt lat="46.24329" lon="5.74191">
        <ele>896.08618164062</ele>
        <time>2010-09-19T13:18:00Z</time>
      </trkpt>
      <trkpt lat="46.2434" lon="5.74198">
        <ele>896.56689453125</ele>
        <time>2010-09-19T13:18:06Z</time>
      </trkpt>
      <trkpt lat="46.2435" lon="5.74205">
        <ele>897.04736328125</ele>
        <time>2010-09-19T13:18:13Z</time>
      </trkpt>
      <trkpt lat="46.24354" lon="5.74205">
        <ele>898.0087890625</ele>
        <time>2010-09-19T13:18:18Z</time>
      </trkpt>
      <trkpt lat="46.24362" lon="5.74207">
        <ele>898.0087890625</ele>
        <time>2010-09-19T13:18:23Z</time>
      </trkpt>
      <trkpt lat="46.24371" lon="5.74205">
        <ele>899.93139648438</ele>
        <time>2010-09-19T13:18:30Z</time>
      </trkpt>
      <trkpt lat="46.24375" lon="5.74204">
        <ele>899.93139648438</ele>
        <time>2010-09-19T13:18:32Z</time>
      </trkpt>
      <trkpt lat="46.24382" lon="5.74201">
        <ele>901.37329101562</ele>
        <time>2010-09-19T13:18:40Z</time>
      </trkpt>
      <trkpt lat="46.24391" lon="5.74203">
        <ele>902.33447265625</ele>
        <time>2010-09-19T13:18:46Z</time>
      </trkpt>
      <trkpt lat="46.24397" lon="5.74204">
        <ele>903.2958984375</ele>
        <time>2010-09-19T13:18:51Z</time>
      </trkpt>
      <trkpt lat="46.24408" lon="5.74206">
        <ele>903.2958984375</ele>
        <time>2010-09-19T13:18:58Z</time>
      </trkpt>
      <trkpt lat="46.24415" lon="5.74206">
        <ele>904.25732421875</ele>
        <time>2010-09-19T13:19:03Z</time>
      </trkpt>
      <trkpt lat="46.24429" lon="5.74206">
        <ele>906.1796875</ele>
        <time>2010-09-19T13:19:12Z</time>
      </trkpt>
      <trkpt lat="46.24437" lon="5.74207">
        <ele>907.14111328125</ele>
        <time>2010-09-19T13:19:17Z</time>
      </trkpt>
      <trkpt lat="46.24447" lon="5.74208">
        <ele>907.62182617188</ele>
        <time>2010-09-19T13:19:24Z</time>
      </trkpt>
      <trkpt lat="46.24458" lon="5.74205">
        <ele>908.10278320312</ele>
        <time>2010-09-19T13:19:32Z</time>
      </trkpt>
      <trkpt lat="46.2447" lon="5.74202">
        <ele>909.06396484375</ele>
        <time>2010-09-19T13:19:40Z</time>
      </trkpt>
      <trkpt lat="46.24479" lon="5.74198">
        <ele>910.98657226562</ele>
        <time>2010-09-19T13:19:48Z</time>
      </trkpt>
      <trkpt lat="46.2449" lon="5.74194">
        <ele>911.94799804688</ele>
        <time>2010-09-19T13:19:56Z</time>
      </trkpt>
      <trkpt lat="46.24498" lon="5.74192">
        <ele>912.9091796875</ele>
        <time>2010-09-19T13:20:03Z</time>
      </trkpt>
      <trkpt lat="46.24506" lon="5.7419">
        <ele>913.38989257812</ele>
        <time>2010-09-19T13:20:10Z</time>
      </trkpt>
      <trkpt lat="46.24514" lon="5.74189">
        <ele>914.83178710938</ele>
        <time>2010-09-19T13:20:17Z</time>
      </trkpt>
      <trkpt lat="46.24523" lon="5.7419">
        <ele>915.79321289062</ele>
        <time>2010-09-19T13:20:24Z</time>
      </trkpt>
      <trkpt lat="46.24532" lon="5.7419">
        <ele>916.75439453125</ele>
        <time>2010-09-19T13:20:31Z</time>
      </trkpt>
      <trkpt lat="46.24535" lon="5.7419">
        <ele>917.23510742188</ele>
        <time>2010-09-19T13:20:35Z</time>
      </trkpt>
      <trkpt lat="46.24538" lon="5.74189">
        <ele>917.71557617188</ele>
        <time>2010-09-19T13:20:38Z</time>
      </trkpt>
      <trkpt lat="46.24548" lon="5.74189">
        <ele>918.67700195312</ele>
        <time>2010-09-19T13:20:44Z</time>
      </trkpt>
      <trkpt lat="46.24558" lon="5.7419">
        <ele>920.599609375</ele>
        <time>2010-09-19T13:20:51Z</time>
      </trkpt>
      <trkpt lat="46.24566" lon="5.74191">
        <ele>921.08032226562</ele>
        <time>2010-09-19T13:20:57Z</time>
      </trkpt>
      <trkpt lat="46.24575" lon="5.74195">
        <ele>921.56079101562</ele>
        <time>2010-09-19T13:21:03Z</time>
      </trkpt>
      <trkpt lat="46.24585" lon="5.74199">
        <ele>922.52221679688</ele>
        <time>2010-09-19T13:21:09Z</time>
      </trkpt>
      <trkpt lat="46.24596" lon="5.74202">
        <ele>923.48364257812</ele>
        <time>2010-09-19T13:21:15Z</time>
      </trkpt>
      <trkpt lat="46.24604" lon="5.74203">
        <ele>923.96411132812</ele>
        <time>2010-09-19T13:21:20Z</time>
      </trkpt>
      <trkpt lat="46.24614" lon="5.74203">
        <ele>924.92578125</ele>
        <time>2010-09-19T13:21:28Z</time>
      </trkpt>
      <trkpt lat="46.24624" lon="5.74207">
        <ele>925.88696289062</ele>
        <time>2010-09-19T13:21:35Z</time>
      </trkpt>
      <trkpt lat="46.2463" lon="5.7421">
        <ele>926.36767578125</ele>
        <time>2010-09-19T13:21:40Z</time>
      </trkpt>
      <trkpt lat="46.24637" lon="5.7421">
        <ele>927.3291015625</ele>
        <time>2010-09-19T13:21:45Z</time>
      </trkpt>
      <trkpt lat="46.24644" lon="5.74208">
        <ele>928.29028320312</ele>
        <time>2010-09-19T13:21:50Z</time>
      </trkpt>
      <trkpt lat="46.24652" lon="5.7421">
        <ele>928.29028320312</ele>
        <time>2010-09-19T13:21:54Z</time>
      </trkpt>
      <trkpt lat="46.24661" lon="5.7421">
        <ele>929.25146484375</ele>
        <time>2010-09-19T13:22:01Z</time>
      </trkpt>
      <trkpt lat="46.2467" lon="5.74211">
        <ele>930.69360351562</ele>
        <time>2010-09-19T13:22:07Z</time>
      </trkpt>
      <trkpt lat="46.24682" lon="5.74211">
        <ele>931.17431640625</ele>
        <time>2010-09-19T13:22:15Z</time>
      </trkpt>
      <trkpt lat="46.24693" lon="5.74212">
        <ele>932.13549804688</ele>
        <time>2010-09-19T13:22:22Z</time>
      </trkpt>
      <trkpt lat="46.24704" lon="5.74215">
        <ele>932.6162109375</ele>
        <time>2010-09-19T13:22:29Z</time>
      </trkpt>
      <trkpt lat="46.24709" lon="5.74216">
        <ele>933.57739257812</ele>
        <time>2010-09-19T13:22:32Z</time>
      </trkpt>
      <trkpt lat="46.24715" lon="5.74219">
        <ele>933.57739257812</ele>
        <time>2010-09-19T13:22:36Z</time>
      </trkpt>
      <trkpt lat="46.24726" lon="5.74224">
        <ele>934.05810546875</ele>
        <time>2010-09-19T13:22:43Z</time>
      </trkpt>
      <trkpt lat="46.24732" lon="5.74225">
        <ele>934.05810546875</ele>
        <time>2010-09-19T13:22:48Z</time>
      </trkpt>
      <trkpt lat="46.24744" lon="5.7423">
        <ele>935.01953125</ele>
        <time>2010-09-19T13:22:55Z</time>
      </trkpt>
      <trkpt lat="46.24757" lon="5.74238">
        <ele>935.98071289062</ele>
        <time>2010-09-19T13:23:03Z</time>
      </trkpt>
      <trkpt lat="46.24767" lon="5.74245">
        <ele>935.98071289062</ele>
        <time>2010-09-19T13:23:09Z</time>
      </trkpt>
      <trkpt lat="46.24774" lon="5.74251">
        <ele>936.94189453125</ele>
        <time>2010-09-19T13:23:14Z</time>
      </trkpt>
      <trkpt lat="46.24783" lon="5.74261">
        <ele>937.42260742188</ele>
        <time>2010-09-19T13:23:19Z</time>
      </trkpt>
      <trkpt lat="46.24792" lon="5.74272">
        <ele>937.9033203125</ele>
        <time>2010-09-19T13:23:25Z</time>
      </trkpt>
      <trkpt lat="46.24799" lon="5.74283">
        <ele>937.9033203125</ele>
        <time>2010-09-19T13:23:31Z</time>
      </trkpt>
      <trkpt lat="46.24808" lon="5.74299">
        <ele>937.9033203125</ele>
        <time>2010-09-19T13:23:38Z</time>
      </trkpt>
      <trkpt lat="46.24818" lon="5.74315">
        <ele>937.9033203125</ele>
        <time>2010-09-19T13:23:45Z</time>
      </trkpt>
      <trkpt lat="46.24827" lon="5.7433">
        <ele>938.86474609375</ele>
        <time>2010-09-19T13:23:51Z</time>
      </trkpt>
      <trkpt lat="46.24828" lon="5.74332">
        <ele>938.38403320312</ele>
        <time>2010-09-19T13:23:52Z</time>
      </trkpt>
      <trkpt lat="46.24846" lon="5.7435">
        <ele>939.82592773438</ele>
        <time>2010-09-19T13:24:01Z</time>
      </trkpt>
      <trkpt lat="46.24854" lon="5.7435">
        <ele>940.30688476562</ele>
        <time>2010-09-19T13:24:06Z</time>
      </trkpt>
      <trkpt lat="46.24862" lon="5.74353">
        <ele>940.30688476562</ele>
        <time>2010-09-19T13:24:11Z</time>
      </trkpt>
      <trkpt lat="46.24872" lon="5.74354">
        <ele>940.78735351562</ele>
        <time>2010-09-19T13:24:17Z</time>
      </trkpt>
      <trkpt lat="46.24881" lon="5.74351">
        <ele>940.78735351562</ele>
        <time>2010-09-19T13:24:23Z</time>
      </trkpt>
      <trkpt lat="46.24892" lon="5.74349">
        <ele>942.2294921875</ele>
        <time>2010-09-19T13:24:30Z</time>
      </trkpt>
      <trkpt lat="46.249" lon="5.74346">
        <ele>943.19067382812</ele>
        <time>2010-09-19T13:24:36Z</time>
      </trkpt>
      <trkpt lat="46.2491" lon="5.74344">
        <ele>943.67138671875</ele>
        <time>2010-09-19T13:24:43Z</time>
      </trkpt>
      <trkpt lat="46.24918" lon="5.74345">
        <ele>943.67138671875</ele>
        <time>2010-09-19T13:24:48Z</time>
      </trkpt>
      <trkpt lat="46.24927" lon="5.74346">
        <ele>944.63256835938</ele>
        <time>2010-09-19T13:24:53Z</time>
      </trkpt>
      <trkpt lat="46.24937" lon="5.74347">
        <ele>944.15209960938</ele>
        <time>2010-09-19T13:24:58Z</time>
      </trkpt>
      <trkpt lat="46.24946" lon="5.74348">
        <ele>944.15209960938</ele>
        <time>2010-09-19T13:25:03Z</time>
      </trkpt>
      <trkpt lat="46.24952" lon="5.74348">
        <ele>944.63256835938</ele>
        <time>2010-09-19T13:25:06Z</time>
      </trkpt>
      <trkpt lat="46.24966" lon="5.74348">
        <ele>945.59399414062</ele>
        <time>2010-09-19T13:25:14Z</time>
      </trkpt>
      <trkpt lat="46.24978" lon="5.74353">
        <ele>946.07470703125</ele>
        <time>2010-09-19T13:25:20Z</time>
      </trkpt>
      <trkpt lat="46.24981" lon="5.74353">
        <ele>945.59399414062</ele>
        <time>2010-09-19T13:25:21Z</time>
      </trkpt>
      <trkpt lat="46.24987" lon="5.74355">
        <ele>945.11328125</ele>
        <time>2010-09-19T13:25:25Z</time>
      </trkpt>
      <trkpt lat="46.25" lon="5.74358">
        <ele>946.07470703125</ele>
        <time>2010-09-19T13:25:32Z</time>
      </trkpt>
      <trkpt lat="46.25014" lon="5.74347">
        <ele>945.11328125</ele>
        <time>2010-09-19T13:25:39Z</time>
      </trkpt>
      <trkpt lat="46.25024" lon="5.74334">
        <ele>944.15209960938</ele>
        <time>2010-09-19T13:25:43Z</time>
      </trkpt>
      <trkpt lat="46.25038" lon="5.74313">
        <ele>943.19067382812</ele>
        <time>2010-09-19T13:25:48Z</time>
      </trkpt>
      <trkpt lat="46.2505" lon="5.74297">
        <ele>942.71020507812</ele>
        <time>2010-09-19T13:25:52Z</time>
      </trkpt>
      <trkpt lat="46.25064" lon="5.74274">
        <ele>941.74877929688</ele>
        <time>2010-09-19T13:25:57Z</time>
      </trkpt>
      <trkpt lat="46.25073" lon="5.74251">
        <ele>940.30688476562</ele>
        <time>2010-09-19T13:26:01Z</time>
      </trkpt>
      <trkpt lat="46.25079" lon="5.74239">
        <ele>939.82592773438</ele>
        <time>2010-09-19T13:26:03Z</time>
      </trkpt>
      <trkpt lat="46.2509" lon="5.74212">
        <ele>938.38403320312</ele>
        <time>2010-09-19T13:26:08Z</time>
      </trkpt>
      <trkpt lat="46.25109" lon="5.74173">
        <ele>939.34521484375</ele>
        <time>2010-09-19T13:26:15Z</time>
      </trkpt>
      <trkpt lat="46.25124" lon="5.74142">
        <ele>939.34521484375</ele>
        <time>2010-09-19T13:26:22Z</time>
      </trkpt>
      <trkpt lat="46.25128" lon="5.74125">
        <ele>938.86474609375</ele>
        <time>2010-09-19T13:26:25Z</time>
      </trkpt>
      <trkpt lat="46.25131" lon="5.74087">
        <ele>936.46142578125</ele>
        <time>2010-09-19T13:26:30Z</time>
      </trkpt>
      <trkpt lat="46.25128" lon="5.74043">
        <ele>934.05810546875</ele>
        <time>2010-09-19T13:26:35Z</time>
      </trkpt>
      <trkpt lat="46.25129" lon="5.74026">
        <ele>933.0966796875</ele>
        <time>2010-09-19T13:26:38Z</time>
      </trkpt>
      <trkpt lat="46.2513" lon="5.74004">
        <ele>932.6162109375</ele>
        <time>2010-09-19T13:26:43Z</time>
      </trkpt>
      <trkpt lat="46.25132" lon="5.73983">
        <ele>933.0966796875</ele>
        <time>2010-09-19T13:26:48Z</time>
      </trkpt>
      <trkpt lat="46.25134" lon="5.73967">
        <ele>932.6162109375</ele>
        <time>2010-09-19T13:26:52Z</time>
      </trkpt>
      <trkpt lat="46.25135" lon="5.73946">
        <ele>932.6162109375</ele>
        <time>2010-09-19T13:26:57Z</time>
      </trkpt>
      <trkpt lat="46.2514" lon="5.73916">
        <ele>931.17431640625</ele>
        <time>2010-09-19T13:27:03Z</time>
      </trkpt>
      <trkpt lat="46.25142" lon="5.73907">
        <ele>930.69360351562</ele>
        <time>2010-09-19T13:27:05Z</time>
      </trkpt>
      <trkpt lat="46.25146" lon="5.73887">
        <ele>929.25146484375</ele>
        <time>2010-09-19T13:27:10Z</time>
      </trkpt>
      <trkpt lat="46.25147" lon="5.7388">
        <ele>929.25146484375</ele>
        <time>2010-09-19T13:27:11Z</time>
      </trkpt>
      <trkpt lat="46.25156" lon="5.73844">
        <ele>927.3291015625</ele>
        <time>2010-09-19T13:27:16Z</time>
      </trkpt>
      <trkpt lat="46.25166" lon="5.73792">
        <ele>926.36767578125</ele>
        <time>2010-09-19T13:27:22Z</time>
      </trkpt>
      <trkpt lat="46.25171" lon="5.73776">
        <ele>924.44506835938</ele>
        <time>2010-09-19T13:27:24Z</time>
      </trkpt>
      <trkpt lat="46.25174" lon="5.73768">
        <ele>923.96411132812</ele>
        <time>2010-09-19T13:27:25Z</time>
      </trkpt>
      <trkpt lat="46.25185" lon="5.73733">
        <ele>923.0029296875</ele>
        <time>2010-09-19T13:27:30Z</time>
      </trkpt>
      <trkpt lat="46.25188" lon="5.73733">
        <ele>923.0029296875</ele>
        <time>2010-09-19T13:27:31Z</time>
      </trkpt>
      <trkpt lat="46.25198" lon="5.73737">
        <ele>923.0029296875</ele>
        <time>2010-09-19T13:27:33Z</time>
      </trkpt>
      <trkpt lat="46.25241" lon="5.73733">
        <ele>921.56079101562</ele>
        <time>2010-09-19T13:27:42Z</time>
      </trkpt>
      <trkpt lat="46.25285" lon="5.73729">
        <ele>920.599609375</ele>
        <time>2010-09-19T13:27:51Z</time>
      </trkpt>
      <trkpt lat="46.25319" lon="5.7372">
        <ele>920.599609375</ele>
        <time>2010-09-19T13:27:58Z</time>
      </trkpt>
      <trkpt lat="46.2534" lon="5.73716">
        <ele>919.63842773438</ele>
        <time>2010-09-19T13:28:02Z</time>
      </trkpt>
      <trkpt lat="46.25377" lon="5.73726">
        <ele>918.67700195312</ele>
        <time>2010-09-19T13:28:10Z</time>
      </trkpt>
      <trkpt lat="46.25415" lon="5.73734">
        <ele>918.67700195312</ele>
        <time>2010-09-19T13:28:18Z</time>
      </trkpt>
      <trkpt lat="46.25452" lon="5.73743">
        <ele>918.1962890625</ele>
        <time>2010-09-19T13:28:26Z</time>
      </trkpt>
      <trkpt lat="46.25469" lon="5.73762">
        <ele>917.71557617188</ele>
        <time>2010-09-19T13:28:31Z</time>
      </trkpt>
      <trkpt lat="46.25485" lon="5.73796">
        <ele>918.1962890625</ele>
        <time>2010-09-19T13:28:38Z</time>
      </trkpt>
      <trkpt lat="46.25499" lon="5.73834">
        <ele>918.1962890625</ele>
        <time>2010-09-19T13:28:46Z</time>
      </trkpt>
      <trkpt lat="46.25514" lon="5.73869">
        <ele>918.67700195312</ele>
        <time>2010-09-19T13:28:54Z</time>
      </trkpt>
      <trkpt lat="46.25519" lon="5.73893">
        <ele>918.67700195312</ele>
        <time>2010-09-19T13:29:00Z</time>
      </trkpt>
      <trkpt lat="46.25529" lon="5.7393">
        <ele>918.67700195312</ele>
        <time>2010-09-19T13:29:08Z</time>
      </trkpt>
      <trkpt lat="46.25543" lon="5.73958">
        <ele>919.15771484375</ele>
        <time>2010-09-19T13:29:15Z</time>
      </trkpt>
      <trkpt lat="46.25555" lon="5.73966">
        <ele>919.63842773438</ele>
        <time>2010-09-19T13:29:20Z</time>
      </trkpt>
      <trkpt lat="46.25571" lon="5.73975">
        <ele>920.599609375</ele>
        <time>2010-09-19T13:29:27Z</time>
      </trkpt>
      <trkpt lat="46.2558" lon="5.73979">
        <ele>922.04150390625</ele>
        <time>2010-09-19T13:29:31Z</time>
      </trkpt>
      <trkpt lat="46.2559" lon="5.73985">
        <ele>922.52221679688</ele>
        <time>2010-09-19T13:29:38Z</time>
      </trkpt>
      <trkpt lat="46.25597" lon="5.7399">
        <ele>923.48364257812</ele>
        <time>2010-09-19T13:29:44Z</time>
      </trkpt>
      <trkpt lat="46.25602" lon="5.73995">
        <ele>923.96411132812</ele>
        <time>2010-09-19T13:29:49Z</time>
      </trkpt>
      <trkpt lat="46.25607" lon="5.74004">
        <ele>925.40625</ele>
        <time>2010-09-19T13:29:55Z</time>
      </trkpt>
      <trkpt lat="46.25609" lon="5.74007">
        <ele>925.88696289062</ele>
        <time>2010-09-19T13:29:58Z</time>
      </trkpt>
      <trkpt lat="46.25613" lon="5.74016">
        <ele>926.36767578125</ele>
        <time>2010-09-19T13:30:04Z</time>
      </trkpt>
      <trkpt lat="46.2562" lon="5.74025">
        <ele>926.84838867188</ele>
        <time>2010-09-19T13:30:11Z</time>
      </trkpt>
      <trkpt lat="46.25624" lon="5.74032">
        <ele>926.84838867188</ele>
        <time>2010-09-19T13:30:17Z</time>
      </trkpt>
      <trkpt lat="46.2563" lon="5.74036">
        <ele>928.29028320312</ele>
        <time>2010-09-19T13:30:24Z</time>
      </trkpt>
      <trkpt lat="46.25639" lon="5.74041">
        <ele>929.73217773438</ele>
        <time>2010-09-19T13:30:32Z</time>
      </trkpt>
      <trkpt lat="46.25642" lon="5.74042">
        <ele>930.212890625</ele>
        <time>2010-09-19T13:30:35Z</time>
      </trkpt>
      <trkpt lat="46.25649" lon="5.74047">
        <ele>931.65478515625</ele>
        <time>2010-09-19T13:30:43Z</time>
      </trkpt>
      <trkpt lat="46.25654" lon="5.74049">
        <ele>932.13549804688</ele>
        <time>2010-09-19T13:30:48Z</time>
      </trkpt>
      <trkpt lat="46.25658" lon="5.74051">
        <ele>932.6162109375</ele>
        <time>2010-09-19T13:30:52Z</time>
      </trkpt>
      <trkpt lat="46.25666" lon="5.74054">
        <ele>933.57739257812</ele>
        <time>2010-09-19T13:30:57Z</time>
      </trkpt>
      <trkpt lat="46.25668" lon="5.74054">
        <ele>934.05810546875</ele>
        <time>2010-09-19T13:30:58Z</time>
      </trkpt>
      <trkpt lat="46.25671" lon="5.74056">
        <ele>934.05810546875</ele>
        <time>2010-09-19T13:31:00Z</time>
      </trkpt>
      <trkpt lat="46.25676" lon="5.74059">
        <ele>934.53881835938</ele>
        <time>2010-09-19T13:31:05Z</time>
      </trkpt>
      <trkpt lat="46.25679" lon="5.74061">
        <ele>935.01953125</ele>
        <time>2010-09-19T13:31:09Z</time>
      </trkpt>
      <trkpt lat="46.25687" lon="5.74067">
        <ele>935.98071289062</ele>
        <time>2010-09-19T13:31:16Z</time>
      </trkpt>
      <trkpt lat="46.25693" lon="5.74073">
        <ele>935.98071289062</ele>
        <time>2010-09-19T13:31:22Z</time>
      </trkpt>
      <trkpt lat="46.257" lon="5.74078">
        <ele>936.46142578125</ele>
        <time>2010-09-19T13:31:27Z</time>
      </trkpt>
      <trkpt lat="46.25707" lon="5.74082">
        <ele>936.94189453125</ele>
        <time>2010-09-19T13:31:32Z</time>
      </trkpt>
      <trkpt lat="46.25713" lon="5.74088">
        <ele>937.42260742188</ele>
        <time>2010-09-19T13:31:39Z</time>
      </trkpt>
      <trkpt lat="46.25719" lon="5.74091">
        <ele>938.38403320312</ele>
        <time>2010-09-19T13:31:45Z</time>
      </trkpt>
      <trkpt lat="46.25724" lon="5.74096">
        <ele>938.86474609375</ele>
        <time>2010-09-19T13:31:50Z</time>
      </trkpt>
      <trkpt lat="46.25729" lon="5.741">
        <ele>939.82592773438</ele>
        <time>2010-09-19T13:31:56Z</time>
      </trkpt>
      <trkpt lat="46.25735" lon="5.74104">
        <ele>939.82592773438</ele>
        <time>2010-09-19T13:32:01Z</time>
      </trkpt>
      <trkpt lat="46.25737" lon="5.74106">
        <ele>939.82592773438</ele>
        <time>2010-09-19T13:32:02Z</time>
      </trkpt>
      <trkpt lat="46.25749" lon="5.7411">
        <ele>940.30688476562</ele>
        <time>2010-09-19T13:32:09Z</time>
      </trkpt>
      <trkpt lat="46.25758" lon="5.74116">
        <ele>940.78735351562</ele>
        <time>2010-09-19T13:32:15Z</time>
      </trkpt>
      <trkpt lat="46.25765" lon="5.74119">
        <ele>941.74877929688</ele>
        <time>2010-09-19T13:32:19Z</time>
      </trkpt>
      <trkpt lat="46.25774" lon="5.74127">
        <ele>942.71020507812</ele>
        <time>2010-09-19T13:32:24Z</time>
      </trkpt>
      <trkpt lat="46.25777" lon="5.74131">
        <ele>943.19067382812</ele>
        <time>2010-09-19T13:32:28Z</time>
      </trkpt>
      <trkpt lat="46.25785" lon="5.74137">
        <ele>942.71020507812</ele>
        <time>2010-09-19T13:32:32Z</time>
      </trkpt>
      <trkpt lat="46.25796" lon="5.74157">
        <ele>941.26806640625</ele>
        <time>2010-09-19T13:32:37Z</time>
      </trkpt>
      <trkpt lat="46.25804" lon="5.7417">
        <ele>941.74877929688</ele>
        <time>2010-09-19T13:32:41Z</time>
      </trkpt>
      <trkpt lat="46.25813" lon="5.74189">
        <ele>940.78735351562</ele>
        <time>2010-09-19T13:32:45Z</time>
      </trkpt>
      <trkpt lat="46.25821" lon="5.74208">
        <ele>941.26806640625</ele>
        <time>2010-09-19T13:32:50Z</time>
      </trkpt>
      <trkpt lat="46.25829" lon="5.7422">
        <ele>941.74877929688</ele>
        <time>2010-09-19T13:32:54Z</time>
      </trkpt>
      <trkpt lat="46.25836" lon="5.7423">
        <ele>942.2294921875</ele>
        <time>2010-09-19T13:33:00Z</time>
      </trkpt>
      <trkpt lat="46.25847" lon="5.74239">
        <ele>942.2294921875</ele>
        <time>2010-09-19T13:33:04Z</time>
      </trkpt>
      <trkpt lat="46.25857" lon="5.74247">
        <ele>942.71020507812</ele>
        <time>2010-09-19T13:33:09Z</time>
      </trkpt>
      <trkpt lat="46.25865" lon="5.74249">
        <ele>944.15209960938</ele>
        <time>2010-09-19T13:33:14Z</time>
      </trkpt>
      <trkpt lat="46.25876" lon="5.74253">
        <ele>944.63256835938</ele>
        <time>2010-09-19T13:33:21Z</time>
      </trkpt>
      <trkpt lat="46.25887" lon="5.74254">
        <ele>946.07470703125</ele>
        <time>2010-09-19T13:33:29Z</time>
      </trkpt>
      <trkpt lat="46.25892" lon="5.74252">
        <ele>946.55541992188</ele>
        <time>2010-09-19T13:33:34Z</time>
      </trkpt>
      <trkpt lat="46.25904" lon="5.74246">
        <ele>947.99731445312</ele>
        <time>2010-09-19T13:33:41Z</time>
      </trkpt>
      <trkpt lat="46.25919" lon="5.7424">
        <ele>950.40063476562</ele>
        <time>2010-09-19T13:33:49Z</time>
      </trkpt>
      <trkpt lat="46.25927" lon="5.74237">
        <ele>949.919921875</ele>
        <time>2010-09-19T13:33:54Z</time>
      </trkpt>
      <trkpt lat="46.25938" lon="5.74231">
        <ele>951.36181640625</ele>
        <time>2010-09-19T13:34:01Z</time>
      </trkpt>
      <trkpt lat="46.25953" lon="5.74225">
        <ele>950.88110351562</ele>
        <time>2010-09-19T13:34:08Z</time>
      </trkpt>
      <trkpt lat="46.25965" lon="5.74223">
        <ele>952.32299804688</ele>
        <time>2010-09-19T13:34:14Z</time>
      </trkpt>
      <trkpt lat="46.25974" lon="5.74223">
        <ele>952.8037109375</ele>
        <time>2010-09-19T13:34:20Z</time>
      </trkpt>
      <trkpt lat="46.25983" lon="5.74226">
        <ele>953.76513671875</ele>
        <time>2010-09-19T13:34:26Z</time>
      </trkpt>
      <trkpt lat="46.25992" lon="5.74228">
        <ele>955.20703125</ele>
        <time>2010-09-19T13:34:33Z</time>
      </trkpt>
      <trkpt lat="46.25999" lon="5.74233">
        <ele>956.64916992188</ele>
        <time>2010-09-19T13:34:39Z</time>
      </trkpt>
      <trkpt lat="46.26006" lon="5.74239">
        <ele>958.09130859375</ele>
        <time>2010-09-19T13:34:45Z</time>
      </trkpt>
      <trkpt lat="46.26012" lon="5.74242">
        <ele>959.05249023438</ele>
        <time>2010-09-19T13:34:50Z</time>
      </trkpt>
      <trkpt lat="46.26013" lon="5.74243">
        <ele>959.533203125</ele>
        <time>2010-09-19T13:34:51Z</time>
      </trkpt>
      <trkpt lat="46.2602" lon="5.74244">
        <ele>960.49438476562</ele>
        <time>2010-09-19T13:34:56Z</time>
      </trkpt>
      <trkpt lat="46.26027" lon="5.74243">
        <ele>960.49438476562</ele>
        <time>2010-09-19T13:35:00Z</time>
      </trkpt>
      <trkpt lat="46.26038" lon="5.74244">
        <ele>961.45581054688</ele>
        <time>2010-09-19T13:35:08Z</time>
      </trkpt>
      <trkpt lat="46.26047" lon="5.74247">
        <ele>962.4169921875</ele>
        <time>2010-09-19T13:35:14Z</time>
      </trkpt>
      <trkpt lat="46.26057" lon="5.74247">
        <ele>962.89770507812</ele>
        <time>2010-09-19T13:35:22Z</time>
      </trkpt>
      <trkpt lat="46.26064" lon="5.74252">
        <ele>963.37841796875</ele>
        <time>2010-09-19T13:35:29Z</time>
      </trkpt>
      <trkpt lat="46.26071" lon="5.74258">
        <ele>964.33959960938</ele>
        <time>2010-09-19T13:35:35Z</time>
      </trkpt>
      <trkpt lat="46.26075" lon="5.7426">
        <ele>965.30102539062</ele>
        <time>2010-09-19T13:35:40Z</time>
      </trkpt>
      <trkpt lat="46.26079" lon="5.74264">
        <ele>965.78173828125</ele>
        <time>2010-09-19T13:35:46Z</time>
      </trkpt>
      <trkpt lat="46.26082" lon="5.74267">
        <ele>966.26220703125</ele>
        <time>2010-09-19T13:35:52Z</time>
      </trkpt>
      <trkpt lat="46.26084" lon="5.7427">
        <ele>967.2236328125</ele>
        <time>2010-09-19T13:35:59Z</time>
      </trkpt>
      <trkpt lat="46.26088" lon="5.74274">
        <ele>969.626953125</ele>
        <time>2010-09-19T13:36:06Z</time>
      </trkpt>
      <trkpt lat="46.26093" lon="5.74276">
        <ele>970.58813476562</ele>
        <time>2010-09-19T13:36:12Z</time>
      </trkpt>
      <trkpt lat="46.26096" lon="5.7428">
        <ele>971.06884765625</ele>
        <time>2010-09-19T13:36:19Z</time>
      </trkpt>
      <trkpt lat="46.26099" lon="5.74283">
        <ele>972.51098632812</ele>
        <time>2010-09-19T13:36:25Z</time>
      </trkpt>
      <trkpt lat="46.26102" lon="5.74285">
        <ele>972.99169921875</ele>
        <time>2010-09-19T13:36:30Z</time>
      </trkpt>
      <trkpt lat="46.26107" lon="5.74291">
        <ele>972.99169921875</ele>
        <time>2010-09-19T13:36:37Z</time>
      </trkpt>
      <trkpt lat="46.2611" lon="5.74293">
        <ele>973.47241210938</ele>
        <time>2010-09-19T13:36:40Z</time>
      </trkpt>
      <trkpt lat="46.26117" lon="5.74299">
        <ele>974.43359375</ele>
        <time>2010-09-19T13:36:47Z</time>
      </trkpt>
      <trkpt lat="46.26122" lon="5.74304">
        <ele>975.39477539062</ele>
        <time>2010-09-19T13:36:52Z</time>
      </trkpt>
      <trkpt lat="46.26129" lon="5.74311">
        <ele>975.87548828125</ele>
        <time>2010-09-19T13:37:00Z</time>
      </trkpt>
      <trkpt lat="46.26133" lon="5.74316">
        <ele>975.39477539062</ele>
        <time>2010-09-19T13:37:06Z</time>
      </trkpt>
      <trkpt lat="46.26139" lon="5.74322">
        <ele>976.35620117188</ele>
        <time>2010-09-19T13:37:14Z</time>
      </trkpt>
      <trkpt lat="46.26146" lon="5.74328">
        <ele>977.79809570312</ele>
        <time>2010-09-19T13:37:23Z</time>
      </trkpt>
      <trkpt lat="46.2615" lon="5.74331">
        <ele>979.23999023438</ele>
        <time>2010-09-19T13:37:30Z</time>
      </trkpt>
      <trkpt lat="46.26155" lon="5.74335">
        <ele>980.20141601562</ele>
        <time>2010-09-19T13:37:37Z</time>
      </trkpt>
      <trkpt lat="46.26161" lon="5.74338">
        <ele>981.16284179688</ele>
        <time>2010-09-19T13:37:44Z</time>
      </trkpt>
      <trkpt lat="46.26167" lon="5.74342">
        <ele>982.1240234375</ele>
        <time>2010-09-19T13:37:52Z</time>
      </trkpt>
      <trkpt lat="46.26172" lon="5.74348">
        <ele>982.60473632812</ele>
        <time>2010-09-19T13:38:01Z</time>
      </trkpt>
      <trkpt lat="46.26175" lon="5.74354">
        <ele>982.60473632812</ele>
        <time>2010-09-19T13:38:12Z</time>
      </trkpt>
      <trkpt lat="46.26179" lon="5.7436">
        <ele>982.60473632812</ele>
        <time>2010-09-19T13:38:19Z</time>
      </trkpt>
      <trkpt lat="46.26184" lon="5.74371">
        <ele>982.1240234375</ele>
        <time>2010-09-19T13:38:23Z</time>
      </trkpt>
      <trkpt lat="46.26185" lon="5.74373">
        <ele>982.1240234375</ele>
        <time>2010-09-19T13:38:24Z</time>
      </trkpt>
      <trkpt lat="46.26187" lon="5.7439">
        <ele>982.1240234375</ele>
        <time>2010-09-19T13:38:30Z</time>
      </trkpt>
      <trkpt lat="46.26189" lon="5.74399">
        <ele>982.60473632812</ele>
        <time>2010-09-19T13:38:34Z</time>
      </trkpt>
      <trkpt lat="46.2619" lon="5.74403">
        <ele>982.60473632812</ele>
        <time>2010-09-19T13:38:35Z</time>
      </trkpt>
      <trkpt lat="46.26196" lon="5.74423">
        <ele>984.04663085938</ele>
        <time>2010-09-19T13:38:42Z</time>
      </trkpt>
      <trkpt lat="46.26196" lon="5.74425">
        <ele>984.04663085938</ele>
        <time>2010-09-19T13:38:43Z</time>
      </trkpt>
      <trkpt lat="46.26199" lon="5.7444">
        <ele>984.04663085938</ele>
        <time>2010-09-19T13:38:47Z</time>
      </trkpt>
      <trkpt lat="46.26204" lon="5.74478">
        <ele>982.60473632812</ele>
        <time>2010-09-19T13:38:54Z</time>
      </trkpt>
      <trkpt lat="46.26211" lon="5.74501">
        <ele>982.60473632812</ele>
        <time>2010-09-19T13:38:58Z</time>
      </trkpt>
      <trkpt lat="46.26219" lon="5.74525">
        <ele>983.08520507812</ele>
        <time>2010-09-19T13:39:03Z</time>
      </trkpt>
      <trkpt lat="46.26226" lon="5.74546">
        <ele>983.56591796875</ele>
        <time>2010-09-19T13:39:08Z</time>
      </trkpt>
      <trkpt lat="46.26234" lon="5.74571">
        <ele>984.52734375</ele>
        <time>2010-09-19T13:39:13Z</time>
      </trkpt>
      <trkpt lat="46.26237" lon="5.74587">
        <ele>985.00805664062</ele>
        <time>2010-09-19T13:39:18Z</time>
      </trkpt>
      <trkpt lat="46.26241" lon="5.74608">
        <ele>985.00805664062</ele>
        <time>2010-09-19T13:39:23Z</time>
      </trkpt>
      <trkpt lat="46.26246" lon="5.74627">
        <ele>985.48852539062</ele>
        <time>2010-09-19T13:39:27Z</time>
      </trkpt>
      <trkpt lat="46.26254" lon="5.74649">
        <ele>985.48852539062</ele>
        <time>2010-09-19T13:39:32Z</time>
      </trkpt>
      <trkpt lat="46.26264" lon="5.74674">
        <ele>985.96923828125</ele>
        <time>2010-09-19T13:39:38Z</time>
      </trkpt>
      <trkpt lat="46.26271" lon="5.74699">
        <ele>986.44995117188</ele>
        <time>2010-09-19T13:39:44Z</time>
      </trkpt>
      <trkpt lat="46.26276" lon="5.74714">
        <ele>986.93041992188</ele>
        <time>2010-09-19T13:39:48Z</time>
      </trkpt>
      <trkpt lat="46.26281" lon="5.74728">
        <ele>987.4111328125</ele>
        <time>2010-09-19T13:39:52Z</time>
      </trkpt>
      <trkpt lat="46.26292" lon="5.74743">
        <ele>988.37280273438</ele>
        <time>2010-09-19T13:39:58Z</time>
      </trkpt>
      <trkpt lat="46.26295" lon="5.74747">
        <ele>988.37280273438</ele>
        <time>2010-09-19T13:40:00Z</time>
      </trkpt>
      <trkpt lat="46.26303" lon="5.74756">
        <ele>989.81469726562</ele>
        <time>2010-09-19T13:40:05Z</time>
      </trkpt>
      <trkpt lat="46.26308" lon="5.74761">
        <ele>990.29541015625</ele>
        <time>2010-09-19T13:40:11Z</time>
      </trkpt>
      <trkpt lat="46.26315" lon="5.74765">
        <ele>991.7373046875</ele>
        <time>2010-09-19T13:40:16Z</time>
      </trkpt>
      <trkpt lat="46.26325" lon="5.74772">
        <ele>993.17919921875</ele>
        <time>2010-09-19T13:40:23Z</time>
      </trkpt>
      <trkpt lat="46.26335" lon="5.74776">
        <ele>995.10180664062</ele>
        <time>2010-09-19T13:40:30Z</time>
      </trkpt>
      <trkpt lat="46.26345" lon="5.74781">
        <ele>997.0244140625</ele>
        <time>2010-09-19T13:40:38Z</time>
      </trkpt>
      <trkpt lat="46.26354" lon="5.74787">
        <ele>998.46630859375</ele>
        <time>2010-09-19T13:40:45Z</time>
      </trkpt>
      <trkpt lat="46.2636" lon="5.74795">
        <ele>999.90844726562</ele>
        <time>2010-09-19T13:40:52Z</time>
      </trkpt>
      <trkpt lat="46.26367" lon="5.74803">
        <ele>1001.8310546875</ele>
        <time>2010-09-19T13:41:00Z</time>
      </trkpt>
      <trkpt lat="46.26371" lon="5.74809">
        <ele>1002.7922363281</ele>
        <time>2010-09-19T13:41:07Z</time>
      </trkpt>
      <trkpt lat="46.26376" lon="5.74815">
        <ele>1004.2346191406</ele>
        <time>2010-09-19T13:41:14Z</time>
      </trkpt>
      <trkpt lat="46.26379" lon="5.74824">
        <ele>1006.1569824219</ele>
        <time>2010-09-19T13:41:22Z</time>
      </trkpt>
      <trkpt lat="46.26383" lon="5.74833">
        <ele>1006.1569824219</ele>
        <time>2010-09-19T13:41:28Z</time>
      </trkpt>
      <trkpt lat="46.26388" lon="5.74841">
        <ele>1009.041015625</ele>
        <time>2010-09-19T13:41:37Z</time>
      </trkpt>
      <trkpt lat="46.26394" lon="5.74849">
        <ele>1010.0021972656</ele>
        <time>2010-09-19T13:41:43Z</time>
      </trkpt>
      <trkpt lat="46.26395" lon="5.7485">
        <ele>1010.0021972656</ele>
        <time>2010-09-19T13:41:45Z</time>
      </trkpt>
      <trkpt lat="46.26403" lon="5.74853">
        <ele>1011.9250488281</ele>
        <time>2010-09-19T13:41:53Z</time>
      </trkpt>
      <trkpt lat="46.2641" lon="5.74851">
        <ele>1012.8862304688</ele>
        <time>2010-09-19T13:42:01Z</time>
      </trkpt>
      <trkpt lat="46.26415" lon="5.74845">
        <ele>1013.8474121094</ele>
        <time>2010-09-19T13:42:09Z</time>
      </trkpt>
      <trkpt lat="46.26419" lon="5.7484">
        <ele>1013.8474121094</ele>
        <time>2010-09-19T13:42:15Z</time>
      </trkpt>
      <trkpt lat="46.26427" lon="5.74835">
        <ele>1015.2895507812</ele>
        <time>2010-09-19T13:42:23Z</time>
      </trkpt>
      <trkpt lat="46.26434" lon="5.74831">
        <ele>1016.2507324219</ele>
        <time>2010-09-19T13:42:31Z</time>
      </trkpt>
      <trkpt lat="46.26439" lon="5.7483">
        <ele>1016.2507324219</ele>
        <time>2010-09-19T13:42:37Z</time>
      </trkpt>
      <trkpt lat="46.26445" lon="5.74828">
        <ele>1017.2121582031</ele>
        <time>2010-09-19T13:42:45Z</time>
      </trkpt>
      <trkpt lat="46.26447" lon="5.74827">
        <ele>1017.2121582031</ele>
        <time>2010-09-19T13:42:47Z</time>
      </trkpt>
      <trkpt lat="46.26453" lon="5.74829">
        <ele>1018.1733398438</ele>
        <time>2010-09-19T13:42:54Z</time>
      </trkpt>
      <trkpt lat="46.26457" lon="5.74832">
        <ele>1019.134765625</ele>
        <time>2010-09-19T13:43:00Z</time>
      </trkpt>
      <trkpt lat="46.26459" lon="5.74834">
        <ele>1019.6154785156</ele>
        <time>2010-09-19T13:43:04Z</time>
      </trkpt>
      <trkpt lat="46.26464" lon="5.74844">
        <ele>1020.0961914062</ele>
        <time>2010-09-19T13:43:12Z</time>
      </trkpt>
      <trkpt lat="46.26464" lon="5.74859">
        <ele>1019.134765625</ele>
        <time>2010-09-19T13:43:17Z</time>
      </trkpt>
      <trkpt lat="46.26464" lon="5.74863">
        <ele>1018.6540527344</ele>
        <time>2010-09-19T13:43:18Z</time>
      </trkpt>
      <trkpt lat="46.26458" lon="5.74891">
        <ele>1017.6926269531</ele>
        <time>2010-09-19T13:43:24Z</time>
      </trkpt>
      <trkpt lat="46.26456" lon="5.74902">
        <ele>1017.2121582031</ele>
        <time>2010-09-19T13:43:26Z</time>
      </trkpt>
      <trkpt lat="46.26453" lon="5.74922">
        <ele>1015.2895507812</ele>
        <time>2010-09-19T13:43:29Z</time>
      </trkpt>
      <trkpt lat="46.2645" lon="5.74946">
        <ele>1013.3669433594</ele>
        <time>2010-09-19T13:43:32Z</time>
      </trkpt>
      <trkpt lat="46.26447" lon="5.7496">
        <ele>1011.4443359375</ele>
        <time>2010-09-19T13:43:34Z</time>
      </trkpt>
      <trkpt lat="46.2644" lon="5.74988">
        <ele>1009.041015625</ele>
        <time>2010-09-19T13:43:38Z</time>
      </trkpt>
      <trkpt lat="46.26431" lon="5.75012">
        <ele>1006.6376953125</ele>
        <time>2010-09-19T13:43:42Z</time>
      </trkpt>
      <trkpt lat="46.26424" lon="5.75026">
        <ele>1005.1958007812</ele>
        <time>2010-09-19T13:43:44Z</time>
      </trkpt>
      <trkpt lat="46.26412" lon="5.75052">
        <ele>1002.3115234375</ele>
        <time>2010-09-19T13:43:48Z</time>
      </trkpt>
      <trkpt lat="46.26406" lon="5.75078">
        <ele>1000.8696289062</ele>
        <time>2010-09-19T13:43:52Z</time>
      </trkpt>
      <trkpt lat="46.26414" lon="5.75111">
        <ele>998.46630859375</ele>
        <time>2010-09-19T13:43:57Z</time>
      </trkpt>
      <trkpt lat="46.26426" lon="5.75126">
        <ele>998.94702148438</ele>
        <time>2010-09-19T13:44:01Z</time>
      </trkpt>
      <trkpt lat="46.26445" lon="5.75128">
        <ele>999.427734375</ele>
        <time>2010-09-19T13:44:05Z</time>
      </trkpt>
      <trkpt lat="46.26471" lon="5.75121">
        <ele>999.90844726562</ele>
        <time>2010-09-19T13:44:11Z</time>
      </trkpt>
      <trkpt lat="46.26485" lon="5.75114">
        <ele>1000.3891601562</ele>
        <time>2010-09-19T13:44:14Z</time>
      </trkpt>
      <trkpt lat="46.26497" lon="5.75105">
        <ele>1000.3891601562</ele>
        <time>2010-09-19T13:44:17Z</time>
      </trkpt>
      <trkpt lat="46.26509" lon="5.75092">
        <ele>1001.3503417969</ele>
        <time>2010-09-19T13:44:20Z</time>
      </trkpt>
      <trkpt lat="46.2653" lon="5.75064">
        <ele>1000.8696289062</ele>
        <time>2010-09-19T13:44:26Z</time>
      </trkpt>
      <trkpt lat="46.26551" lon="5.75055">
        <ele>998.94702148438</ele>
        <time>2010-09-19T13:44:30Z</time>
      </trkpt>
      <trkpt lat="46.26565" lon="5.75053">
        <ele>998.46630859375</ele>
        <time>2010-09-19T13:44:32Z</time>
      </trkpt>
      <trkpt lat="46.26572" lon="5.75054">
        <ele>997.98583984375</ele>
        <time>2010-09-19T13:44:33Z</time>
      </trkpt>
      <trkpt lat="46.26589" lon="5.75073">
        <ele>996.06323242188</ele>
        <time>2010-09-19T13:44:36Z</time>
      </trkpt>
      <trkpt lat="46.26593" lon="5.75083">
        <ele>996.06323242188</ele>
        <time>2010-09-19T13:44:37Z</time>
      </trkpt>
      <trkpt lat="46.266" lon="5.7514">
        <ele>993.65991210938</ele>
        <time>2010-09-19T13:44:42Z</time>
      </trkpt>
      <trkpt lat="46.2661" lon="5.75177">
        <ele>992.69873046875</ele>
        <time>2010-09-19T13:44:45Z</time>
      </trkpt>
      <trkpt lat="46.26628" lon="5.75225">
        <ele>990.29541015625</ele>
        <time>2010-09-19T13:44:49Z</time>
      </trkpt>
      <trkpt lat="46.26635" lon="5.7525">
        <ele>989.333984375</ele>
        <time>2010-09-19T13:44:51Z</time>
      </trkpt>
      <trkpt lat="46.26649" lon="5.75292">
        <ele>988.37280273438</ele>
        <time>2010-09-19T13:44:55Z</time>
      </trkpt>
      <trkpt lat="46.26655" lon="5.75314">
        <ele>987.89184570312</ele>
        <time>2010-09-19T13:44:57Z</time>
      </trkpt>
      <trkpt lat="46.26664" lon="5.75375">
        <ele>985.48852539062</ele>
        <time>2010-09-19T13:45:02Z</time>
      </trkpt>
      <trkpt lat="46.2667" lon="5.75413">
        <ele>985.00805664062</ele>
        <time>2010-09-19T13:45:05Z</time>
      </trkpt>
      <trkpt lat="46.26688" lon="5.75453">
        <ele>983.08520507812</ele>
        <time>2010-09-19T13:45:09Z</time>
      </trkpt>
      <trkpt lat="46.26714" lon="5.75443">
        <ele>982.1240234375</ele>
        <time>2010-09-19T13:45:12Z</time>
      </trkpt>
      <trkpt lat="46.26723" lon="5.75423">
        <ele>981.16284179688</ele>
        <time>2010-09-19T13:45:14Z</time>
      </trkpt>
      <trkpt lat="46.26723" lon="5.75397">
        <ele>981.16284179688</ele>
        <time>2010-09-19T13:45:16Z</time>
      </trkpt>
      <trkpt lat="46.26726" lon="5.75316">
        <ele>978.75952148438</ele>
        <time>2010-09-19T13:45:22Z</time>
      </trkpt>
      <trkpt lat="46.26734" lon="5.75287">
        <ele>977.31762695312</ele>
        <time>2010-09-19T13:45:24Z</time>
      </trkpt>
      <trkpt lat="46.26749" lon="5.75237">
        <ele>976.8369140625</ele>
        <time>2010-09-19T13:45:28Z</time>
      </trkpt>
      <trkpt lat="46.26772" lon="5.75184">
        <ele>975.87548828125</ele>
        <time>2010-09-19T13:45:33Z</time>
      </trkpt>
      <trkpt lat="46.26794" lon="5.75141">
        <ele>976.35620117188</ele>
        <time>2010-09-19T13:45:38Z</time>
      </trkpt>
      <trkpt lat="46.26814" lon="5.75115">
        <ele>976.35620117188</ele>
        <time>2010-09-19T13:45:42Z</time>
      </trkpt>
      <trkpt lat="46.2684" lon="5.7508">
        <ele>975.39477539062</ele>
        <time>2010-09-19T13:45:47Z</time>
      </trkpt>
      <trkpt lat="46.26869" lon="5.75036">
        <ele>975.39477539062</ele>
        <time>2010-09-19T13:45:53Z</time>
      </trkpt>
      <trkpt lat="46.26879" lon="5.75024">
        <ele>975.39477539062</ele>
        <time>2010-09-19T13:45:55Z</time>
      </trkpt>
      <trkpt lat="46.26901" lon="5.7501">
        <ele>974.91430664062</ele>
        <time>2010-09-19T13:45:59Z</time>
      </trkpt>
      <trkpt lat="46.26922" lon="5.75">
        <ele>973.47241210938</ele>
        <time>2010-09-19T13:46:02Z</time>
      </trkpt>
      <trkpt lat="46.26928" lon="5.74994">
        <ele>972.99169921875</ele>
        <time>2010-09-19T13:46:03Z</time>
      </trkpt>
      <trkpt lat="46.26952" lon="5.74967">
        <ele>972.0302734375</ele>
        <time>2010-09-19T13:46:07Z</time>
      </trkpt>
      <trkpt lat="46.26975" lon="5.74919">
        <ele>970.107421875</ele>
        <time>2010-09-19T13:46:12Z</time>
      </trkpt>
      <trkpt lat="46.27" lon="5.74869">
        <ele>968.66552734375</ele>
        <time>2010-09-19T13:46:17Z</time>
      </trkpt>
      <trkpt lat="46.27015" lon="5.7484">
        <ele>967.2236328125</ele>
        <time>2010-09-19T13:46:20Z</time>
      </trkpt>
      <trkpt lat="46.27033" lon="5.74813">
        <ele>965.78173828125</ele>
        <time>2010-09-19T13:46:23Z</time>
      </trkpt>
      <trkpt lat="46.27063" lon="5.74762">
        <ele>963.85888671875</ele>
        <time>2010-09-19T13:46:28Z</time>
      </trkpt>
      <trkpt lat="46.27095" lon="5.74694">
        <ele>961.45581054688</ele>
        <time>2010-09-19T13:46:34Z</time>
      </trkpt>
      <trkpt lat="46.27107" lon="5.74666">
        <ele>960.013671875</ele>
        <time>2010-09-19T13:46:37Z</time>
      </trkpt>
      <trkpt lat="46.27109" lon="5.74659">
        <ele>960.013671875</ele>
        <time>2010-09-19T13:46:38Z</time>
      </trkpt>
      <trkpt lat="46.2712" lon="5.74639">
        <ele>955.20703125</ele>
        <time>2010-09-19T13:46:42Z</time>
      </trkpt>
      <trkpt lat="46.27138" lon="5.74631">
        <ele>952.8037109375</ele>
        <time>2010-09-19T13:46:46Z</time>
      </trkpt>
      <trkpt lat="46.27163" lon="5.74632">
        <ele>947.03588867188</ele>
        <time>2010-09-19T13:46:50Z</time>
      </trkpt>
      <trkpt lat="46.27181" lon="5.74637">
        <ele>944.15209960938</ele>
        <time>2010-09-19T13:46:53Z</time>
      </trkpt>
      <trkpt lat="46.27193" lon="5.74641">
        <ele>941.26806640625</ele>
        <time>2010-09-19T13:46:55Z</time>
      </trkpt>
      <trkpt lat="46.27212" lon="5.74652">
        <ele>937.42260742188</ele>
        <time>2010-09-19T13:46:59Z</time>
      </trkpt>
      <trkpt lat="46.2723" lon="5.74668">
        <ele>934.05810546875</ele>
        <time>2010-09-19T13:47:04Z</time>
      </trkpt>
      <trkpt lat="46.27241" lon="5.74677">
        <ele>930.212890625</ele>
        <time>2010-09-19T13:47:08Z</time>
      </trkpt>
      <trkpt lat="46.27249" lon="5.74681">
        <ele>926.84838867188</ele>
        <time>2010-09-19T13:47:11Z</time>
      </trkpt>
      <trkpt lat="46.27252" lon="5.74684">
        <ele>925.88696289062</ele>
        <time>2010-09-19T13:47:12Z</time>
      </trkpt>
      <trkpt lat="46.27268" lon="5.74696">
        <ele>922.52221679688</ele>
        <time>2010-09-19T13:47:16Z</time>
      </trkpt>
      <trkpt lat="46.27274" lon="5.747">
        <ele>919.15771484375</ele>
        <time>2010-09-19T13:47:18Z</time>
      </trkpt>
      <trkpt lat="46.27288" lon="5.74707">
        <ele>916.27368164062</ele>
        <time>2010-09-19T13:47:21Z</time>
      </trkpt>
      <trkpt lat="46.27309" lon="5.74717">
        <ele>912.42846679688</ele>
        <time>2010-09-19T13:47:25Z</time>
      </trkpt>
      <trkpt lat="46.27314" lon="5.74718">
        <ele>911.94799804688</ele>
        <time>2010-09-19T13:47:26Z</time>
      </trkpt>
      <trkpt lat="46.27331" lon="5.74716">
        <ele>907.62182617188</ele>
        <time>2010-09-19T13:47:30Z</time>
      </trkpt>
      <trkpt lat="46.27343" lon="5.74713">
        <ele>904.73779296875</ele>
        <time>2010-09-19T13:47:33Z</time>
      </trkpt>
      <trkpt lat="46.27358" lon="5.74711">
        <ele>899.45068359375</ele>
        <time>2010-09-19T13:47:37Z</time>
      </trkpt>
      <trkpt lat="46.27373" lon="5.74712">
        <ele>896.56689453125</ele>
        <time>2010-09-19T13:47:41Z</time>
      </trkpt>
      <trkpt lat="46.27386" lon="5.74714">
        <ele>892.7216796875</ele>
        <time>2010-09-19T13:47:45Z</time>
      </trkpt>
      <trkpt lat="46.27402" lon="5.74715">
        <ele>888.87622070312</ele>
        <time>2010-09-19T13:47:49Z</time>
      </trkpt>
      <trkpt lat="46.27417" lon="5.74714">
        <ele>885.9921875</ele>
        <time>2010-09-19T13:47:53Z</time>
      </trkpt>
      <trkpt lat="46.27433" lon="5.74715">
        <ele>883.10815429688</ele>
        <time>2010-09-19T13:47:57Z</time>
      </trkpt>
      <trkpt lat="46.2744" lon="5.74719">
        <ele>881.66625976562</ele>
        <time>2010-09-19T13:47:59Z</time>
      </trkpt>
      <trkpt lat="46.27454" lon="5.74727">
        <ele>875.89819335938</ele>
        <time>2010-09-19T13:48:02Z</time>
      </trkpt>
      <trkpt lat="46.27457" lon="5.7473">
        <ele>875.89819335938</ele>
        <time>2010-09-19T13:48:03Z</time>
      </trkpt>
      <trkpt lat="46.2747" lon="5.74737">
        <ele>872.53369140625</ele>
        <time>2010-09-19T13:48:06Z</time>
      </trkpt>
      <trkpt lat="46.27481" lon="5.74744">
        <ele>870.61108398438</ele>
        <time>2010-09-19T13:48:09Z</time>
      </trkpt>
      <trkpt lat="46.27494" lon="5.74752">
        <ele>867.24658203125</ele>
        <time>2010-09-19T13:48:12Z</time>
      </trkpt>
      <trkpt lat="46.27507" lon="5.74757">
        <ele>866.28515625</ele>
        <time>2010-09-19T13:48:15Z</time>
      </trkpt>
      <trkpt lat="46.27525" lon="5.74759">
        <ele>863.4013671875</ele>
        <time>2010-09-19T13:48:18Z</time>
      </trkpt>
      <trkpt lat="46.27547" lon="5.74762">
        <ele>860.998046875</ele>
        <time>2010-09-19T13:48:21Z</time>
      </trkpt>
      <trkpt lat="46.27592" lon="5.74753">
        <ele>856.19116210938</ele>
        <time>2010-09-19T13:48:27Z</time>
      </trkpt>
      <trkpt lat="46.27614" lon="5.74741">
        <ele>855.22998046875</ele>
        <time>2010-09-19T13:48:30Z</time>
      </trkpt>
      <trkpt lat="46.27621" lon="5.74712">
        <ele>855.71069335938</ele>
        <time>2010-09-19T13:48:34Z</time>
      </trkpt>
      <trkpt lat="46.27607" lon="5.74666">
        <ele>856.671875</ele>
        <time>2010-09-19T13:48:40Z</time>
      </trkpt>
      <trkpt lat="46.27604" lon="5.74626">
        <ele>857.63330078125</ele>
        <time>2010-09-19T13:48:45Z</time>
      </trkpt>
      <trkpt lat="46.27609" lon="5.74558">
        <ele>857.15258789062</ele>
        <time>2010-09-19T13:48:53Z</time>
      </trkpt>
      <trkpt lat="46.27612" lon="5.74541">
        <ele>856.671875</ele>
        <time>2010-09-19T13:48:55Z</time>
      </trkpt>
      <trkpt lat="46.27636" lon="5.74489">
        <ele>854.74926757812</ele>
        <time>2010-09-19T13:49:01Z</time>
      </trkpt>
      <trkpt lat="46.27663" lon="5.74436">
        <ele>854.74926757812</ele>
        <time>2010-09-19T13:49:08Z</time>
      </trkpt>
      <trkpt lat="46.27694" lon="5.74377">
        <ele>854.26879882812</ele>
        <time>2010-09-19T13:49:16Z</time>
      </trkpt>
      <trkpt lat="46.27705" lon="5.74338">
        <ele>854.74926757812</ele>
        <time>2010-09-19T13:49:21Z</time>
      </trkpt>
      <trkpt lat="46.27701" lon="5.74309">
        <ele>855.22998046875</ele>
        <time>2010-09-19T13:49:25Z</time>
      </trkpt>
      <trkpt lat="46.27698" lon="5.74306">
        <ele>855.71069335938</ele>
        <time>2010-09-19T13:49:26Z</time>
      </trkpt>
      <trkpt lat="46.27679" lon="5.74284">
        <ele>856.671875</ele>
        <time>2010-09-19T13:49:35Z</time>
      </trkpt>
      <trkpt lat="46.27662" lon="5.74267">
        <ele>856.671875</ele>
        <time>2010-09-19T13:49:41Z</time>
      </trkpt>
      <trkpt lat="46.27649" lon="5.74255">
        <ele>857.15258789062</ele>
        <time>2010-09-19T13:49:47Z</time>
      </trkpt>
      <trkpt lat="46.27637" lon="5.74247">
        <ele>857.15258789062</ele>
        <time>2010-09-19T13:49:52Z</time>
      </trkpt>
      <trkpt lat="46.27619" lon="5.74234">
        <ele>857.15258789062</ele>
        <time>2010-09-19T13:49:57Z</time>
      </trkpt>
      <trkpt lat="46.27594" lon="5.7421">
        <ele>857.15258789062</ele>
        <time>2010-09-19T13:50:04Z</time>
      </trkpt>
      <trkpt lat="46.27571" lon="5.74182">
        <ele>855.71069335938</ele>
        <time>2010-09-19T13:50:10Z</time>
      </trkpt>
      <trkpt lat="46.27565" lon="5.74174">
        <ele>855.71069335938</ele>
        <time>2010-09-19T13:50:12Z</time>
      </trkpt>
      <trkpt lat="46.27549" lon="5.74163">
        <ele>854.26879882812</ele>
        <time>2010-09-19T13:50:16Z</time>
      </trkpt>
      <trkpt lat="46.27532" lon="5.74136">
        <ele>854.26879882812</ele>
        <time>2010-09-19T13:50:21Z</time>
      </trkpt>
      <trkpt lat="46.27521" lon="5.74104">
        <ele>852.82666015625</ele>
        <time>2010-09-19T13:50:26Z</time>
      </trkpt>
      <trkpt lat="46.27506" lon="5.74085">
        <ele>851.384765625</ele>
        <time>2010-09-19T13:50:30Z</time>
      </trkpt>
      <trkpt lat="46.27483" lon="5.74071">
        <ele>848.9814453125</ele>
        <time>2010-09-19T13:50:34Z</time>
      </trkpt>
      <trkpt lat="46.27458" lon="5.74052">
        <ele>848.9814453125</ele>
        <time>2010-09-19T13:50:39Z</time>
      </trkpt>
      <trkpt lat="46.27441" lon="5.74035">
        <ele>848.9814453125</ele>
        <time>2010-09-19T13:50:44Z</time>
      </trkpt>
      <trkpt lat="46.27445" lon="5.74012">
        <ele>848.02026367188</ele>
        <time>2010-09-19T13:50:48Z</time>
      </trkpt>
      <trkpt lat="46.27451" lon="5.74">
        <ele>847.05883789062</ele>
        <time>2010-09-19T13:50:50Z</time>
      </trkpt>
      <trkpt lat="46.27454" lon="5.73985">
        <ele>846.57836914062</ele>
        <time>2010-09-19T13:50:52Z</time>
      </trkpt>
      <trkpt lat="46.27456" lon="5.73966">
        <ele>845.61694335938</ele>
        <time>2010-09-19T13:50:54Z</time>
      </trkpt>
      <trkpt lat="46.2746" lon="5.73946">
        <ele>843.69409179688</ele>
        <time>2010-09-19T13:50:56Z</time>
      </trkpt>
      <trkpt lat="46.2747" lon="5.73926">
        <ele>842.73291015625</ele>
        <time>2010-09-19T13:50:59Z</time>
      </trkpt>
      <trkpt lat="46.27485" lon="5.73927">
        <ele>842.25219726562</ele>
        <time>2010-09-19T13:51:02Z</time>
      </trkpt>
      <trkpt lat="46.27508" lon="5.73926">
        <ele>842.25219726562</ele>
        <time>2010-09-19T13:51:06Z</time>
      </trkpt>
      <trkpt lat="46.27552" lon="5.73913">
        <ele>842.25219726562</ele>
        <time>2010-09-19T13:51:14Z</time>
      </trkpt>
      <trkpt lat="46.27597" lon="5.73892">
        <ele>842.25219726562</ele>
        <time>2010-09-19T13:51:23Z</time>
      </trkpt>
      <trkpt lat="46.27638" lon="5.73867">
        <ele>842.25219726562</ele>
        <time>2010-09-19T13:51:32Z</time>
      </trkpt>
      <trkpt lat="46.27664" lon="5.73843">
        <ele>841.771484375</ele>
        <time>2010-09-19T13:51:39Z</time>
      </trkpt>
      <trkpt lat="46.27679" lon="5.7383">
        <ele>843.21337890625</ele>
        <time>2010-09-19T13:51:45Z</time>
      </trkpt>
      <trkpt lat="46.27696" lon="5.73819">
        <ele>845.61694335938</ele>
        <time>2010-09-19T13:51:52Z</time>
      </trkpt>
      <trkpt lat="46.27711" lon="5.73812">
        <ele>847.05883789062</ele>
        <time>2010-09-19T13:51:58Z</time>
      </trkpt>
      <trkpt lat="46.27732" lon="5.73796">
        <ele>848.9814453125</ele>
        <time>2010-09-19T13:52:09Z</time>
      </trkpt>
      <trkpt lat="46.27745" lon="5.73781">
        <ele>849.46215820312</ele>
        <time>2010-09-19T13:52:16Z</time>
      </trkpt>
      <trkpt lat="46.27758" lon="5.73758">
        <ele>850.90405273438</ele>
        <time>2010-09-19T13:52:24Z</time>
      </trkpt>
      <trkpt lat="46.27768" lon="5.73744">
        <ele>848.9814453125</ele>
        <time>2010-09-19T13:52:28Z</time>
      </trkpt>
      <trkpt lat="46.27786" lon="5.73745">
        <ele>848.02026367188</ele>
        <time>2010-09-19T13:52:32Z</time>
      </trkpt>
      <trkpt lat="46.27797" lon="5.7375">
        <ele>848.50073242188</ele>
        <time>2010-09-19T13:52:34Z</time>
      </trkpt>
      <trkpt lat="46.27823" lon="5.73769">
        <ele>848.02026367188</ele>
        <time>2010-09-19T13:52:41Z</time>
      </trkpt>
      <trkpt lat="46.2783" lon="5.73774">
        <ele>848.50073242188</ele>
        <time>2010-09-19T13:52:43Z</time>
      </trkpt>
      <trkpt lat="46.27857" lon="5.73785">
        <ele>849.46215820312</ele>
        <time>2010-09-19T13:52:50Z</time>
      </trkpt>
      <trkpt lat="46.27885" lon="5.73793">
        <ele>851.384765625</ele>
        <time>2010-09-19T13:52:58Z</time>
      </trkpt>
      <trkpt lat="46.27904" lon="5.73799">
        <ele>850.90405273438</ele>
        <time>2010-09-19T13:53:03Z</time>
      </trkpt>
      <trkpt lat="46.27927" lon="5.73805">
        <ele>848.9814453125</ele>
        <time>2010-09-19T13:53:07Z</time>
      </trkpt>
      <trkpt lat="46.27965" lon="5.73808">
        <ele>848.9814453125</ele>
        <time>2010-09-19T13:53:13Z</time>
      </trkpt>
      <trkpt lat="46.27987" lon="5.73808">
        <ele>849.94287109375</ele>
        <time>2010-09-19T13:53:18Z</time>
      </trkpt>
      <trkpt lat="46.28008" lon="5.73815">
        <ele>851.384765625</ele>
        <time>2010-09-19T13:53:24Z</time>
      </trkpt>
      <trkpt lat="46.28021" lon="5.73832">
        <ele>850.42358398438</ele>
        <time>2010-09-19T13:53:29Z</time>
      </trkpt>
      <trkpt lat="46.2804" lon="5.73866">
        <ele>851.384765625</ele>
        <time>2010-09-19T13:53:36Z</time>
      </trkpt>
      <trkpt lat="46.28047" lon="5.73885">
        <ele>851.384765625</ele>
        <time>2010-09-19T13:53:40Z</time>
      </trkpt>
      <trkpt lat="46.28047" lon="5.73904">
        <ele>850.90405273438</ele>
        <time>2010-09-19T13:53:43Z</time>
      </trkpt>
      <trkpt lat="46.28054" lon="5.73929">
        <ele>850.42358398438</ele>
        <time>2010-09-19T13:53:47Z</time>
      </trkpt>
      <trkpt lat="46.28077" lon="5.73947">
        <ele>849.46215820312</ele>
        <time>2010-09-19T13:53:52Z</time>
      </trkpt>
      <trkpt lat="46.28082" lon="5.73947">
        <ele>849.46215820312</ele>
        <time>2010-09-19T13:53:53Z</time>
      </trkpt>
      <trkpt lat="46.28102" lon="5.73949">
        <ele>849.46215820312</ele>
        <time>2010-09-19T13:53:58Z</time>
      </trkpt>
      <trkpt lat="46.28122" lon="5.73955">
        <ele>851.86547851562</ele>
        <time>2010-09-19T13:54:04Z</time>
      </trkpt>
      <trkpt lat="46.2814" lon="5.73948">
        <ele>852.34594726562</ele>
        <time>2010-09-19T13:54:10Z</time>
      </trkpt>
      <trkpt lat="46.28164" lon="5.73944">
        <ele>852.82666015625</ele>
        <time>2010-09-19T13:54:18Z</time>
      </trkpt>
      <trkpt lat="46.28204" lon="5.73939">
        <ele>855.22998046875</ele>
        <time>2010-09-19T13:54:30Z</time>
      </trkpt>
      <trkpt lat="46.28235" lon="5.73928">
        <ele>855.71069335938</ele>
        <time>2010-09-19T13:54:39Z</time>
      </trkpt>
      <trkpt lat="46.28264" lon="5.73919">
        <ele>855.22998046875</ele>
        <time>2010-09-19T13:54:46Z</time>
      </trkpt>
      <trkpt lat="46.28269" lon="5.73919">
        <ele>855.71069335938</ele>
        <time>2010-09-19T13:54:47Z</time>
      </trkpt>
      <trkpt lat="46.283" lon="5.73921">
        <ele>853.7880859375</ele>
        <time>2010-09-19T13:54:53Z</time>
      </trkpt>
      <trkpt lat="46.28327" lon="5.73919">
        <ele>851.384765625</ele>
        <time>2010-09-19T13:54:57Z</time>
      </trkpt>
      <trkpt lat="46.2835" lon="5.73919">
        <ele>849.94287109375</ele>
        <time>2010-09-19T13:55:00Z</time>
      </trkpt>
      <trkpt lat="46.28382" lon="5.73936">
        <ele>849.94287109375</ele>
        <time>2010-09-19T13:55:05Z</time>
      </trkpt>
      <trkpt lat="46.28397" lon="5.73955">
        <ele>851.384765625</ele>
        <time>2010-09-19T13:55:09Z</time>
      </trkpt>
      <trkpt lat="46.28407" lon="5.7396">
        <ele>853.30737304688</ele>
        <time>2010-09-19T13:55:12Z</time>
      </trkpt>
      <trkpt lat="46.28415" lon="5.73953">
        <ele>853.30737304688</ele>
        <time>2010-09-19T13:55:15Z</time>
      </trkpt>
      <trkpt lat="46.28427" lon="5.73929">
        <ele>851.86547851562</ele>
        <time>2010-09-19T13:55:22Z</time>
      </trkpt>
      <trkpt lat="46.2843" lon="5.73919">
        <ele>850.42358398438</ele>
        <time>2010-09-19T13:55:24Z</time>
      </trkpt>
      <trkpt lat="46.28434" lon="5.73904">
        <ele>848.50073242188</ele>
        <time>2010-09-19T13:55:27Z</time>
      </trkpt>
      <trkpt lat="46.28425" lon="5.73897">
        <ele>846.57836914062</ele>
        <time>2010-09-19T13:55:30Z</time>
      </trkpt>
      <trkpt lat="46.2842" lon="5.73887">
        <ele>845.61694335938</ele>
        <time>2010-09-19T13:55:33Z</time>
      </trkpt>
      <trkpt lat="46.28423" lon="5.73878">
        <ele>845.13623046875</ele>
        <time>2010-09-19T13:55:35Z</time>
      </trkpt>
      <trkpt lat="46.28434" lon="5.73853">
        <ele>840.81005859375</ele>
        <time>2010-09-19T13:55:40Z</time>
      </trkpt>
      <trkpt lat="46.28441" lon="5.73828">
        <ele>836.484375</ele>
        <time>2010-09-19T13:55:44Z</time>
      </trkpt>
      <trkpt lat="46.28447" lon="5.73812">
        <ele>834.56176757812</ele>
        <time>2010-09-19T13:55:48Z</time>
      </trkpt>
      <trkpt lat="46.28448" lon="5.73809">
        <ele>834.0810546875</ele>
        <time>2010-09-19T13:55:49Z</time>
      </trkpt>
      <trkpt lat="46.28449" lon="5.73807">
        <ele>834.0810546875</ele>
        <time>2010-09-19T13:55:50Z</time>
      </trkpt>
      <trkpt lat="46.28452" lon="5.73804">
        <ele>833.60034179688</ele>
        <time>2010-09-19T13:55:56Z</time>
      </trkpt>
      <trkpt lat="46.28456" lon="5.73801">
        <ele>832.15844726562</ele>
        <time>2010-09-19T13:56:02Z</time>
      </trkpt>
      <trkpt lat="46.28459" lon="5.73797">
        <ele>831.197265625</ele>
        <time>2010-09-19T13:56:09Z</time>
      </trkpt>
      <trkpt lat="46.2846" lon="5.73797">
        <ele>830.71655273438</ele>
        <time>2010-09-19T13:56:10Z</time>
      </trkpt>
      <trkpt lat="46.28466" lon="5.73796">
        <ele>829.2744140625</ele>
        <time>2010-09-19T13:56:14Z</time>
      </trkpt>
      <trkpt lat="46.28471" lon="5.73796">
        <ele>828.31323242188</ele>
        <time>2010-09-19T13:56:16Z</time>
      </trkpt>
      <trkpt lat="46.28476" lon="5.73796">
        <ele>826.87109375</ele>
        <time>2010-09-19T13:56:18Z</time>
      </trkpt>
      <trkpt lat="46.28489" lon="5.73788">
        <ele>823.98706054688</ele>
        <time>2010-09-19T13:56:22Z</time>
      </trkpt>
      <trkpt lat="46.285" lon="5.73781">
        <ele>820.62255859375</ele>
        <time>2010-09-19T13:56:26Z</time>
      </trkpt>
      <trkpt lat="46.28504" lon="5.73782">
        <ele>819.66137695312</ele>
        <time>2010-09-19T13:56:28Z</time>
      </trkpt>
      <trkpt lat="46.28514" lon="5.73777">
        <ele>817.25805664062</ele>
        <time>2010-09-19T13:56:33Z</time>
      </trkpt>
      <trkpt lat="46.28518" lon="5.73775">
        <ele>816.29663085938</ele>
        <time>2010-09-19T13:56:34Z</time>
      </trkpt>
      <trkpt lat="46.28532" lon="5.73764">
        <ele>812.93212890625</ele>
        <time>2010-09-19T13:56:38Z</time>
      </trkpt>
      <trkpt lat="46.28538" lon="5.73758">
        <ele>811.48999023438</ele>
        <time>2010-09-19T13:56:40Z</time>
      </trkpt>
      <trkpt lat="46.28552" lon="5.73748">
        <ele>808.12548828125</ele>
        <time>2010-09-19T13:56:43Z</time>
      </trkpt>
      <trkpt lat="46.28573" lon="5.73728">
        <ele>803.79956054688</ele>
        <time>2010-09-19T13:56:47Z</time>
      </trkpt>
      <trkpt lat="46.28579" lon="5.73724">
        <ele>802.83813476562</ele>
        <time>2010-09-19T13:56:48Z</time>
      </trkpt>
      <trkpt lat="46.28598" lon="5.73714">
        <ele>798.99291992188</ele>
        <time>2010-09-19T13:56:51Z</time>
      </trkpt>
      <trkpt lat="46.28622" lon="5.73694">
        <ele>795.62817382812</ele>
        <time>2010-09-19T13:56:55Z</time>
      </trkpt>
      <trkpt lat="46.28635" lon="5.73697">
        <ele>794.18627929688</ele>
        <time>2010-09-19T13:56:57Z</time>
      </trkpt>
      <trkpt lat="46.28653" lon="5.73697">
        <ele>793.22485351562</ele>
        <time>2010-09-19T13:57:00Z</time>
      </trkpt>
      <trkpt lat="46.28683" lon="5.73697">
        <ele>788.89916992188</ele>
        <time>2010-09-19T13:57:05Z</time>
      </trkpt>
      <trkpt lat="46.28687" lon="5.73694">
        <ele>788.41845703125</ele>
        <time>2010-09-19T13:57:06Z</time>
      </trkpt>
      <trkpt lat="46.28703" lon="5.73683">
        <ele>786.97631835938</ele>
        <time>2010-09-19T13:57:09Z</time>
      </trkpt>
      <trkpt lat="46.28721" lon="5.73679">
        <ele>785.53442382812</ele>
        <time>2010-09-19T13:57:12Z</time>
      </trkpt>
      <trkpt lat="46.28733" lon="5.73677">
        <ele>783.61181640625</ele>
        <time>2010-09-19T13:57:14Z</time>
      </trkpt>
      <trkpt lat="46.28741" lon="5.73666">
        <ele>782.65063476562</ele>
        <time>2010-09-19T13:57:17Z</time>
      </trkpt>
      <trkpt lat="46.28734" lon="5.7365">
        <ele>782.169921875</ele>
        <time>2010-09-19T13:57:20Z</time>
      </trkpt>
      <trkpt lat="46.28724" lon="5.73644">
        <ele>782.169921875</ele>
        <time>2010-09-19T13:57:22Z</time>
      </trkpt>
      <trkpt lat="46.28683" lon="5.73626">
        <ele>782.65063476562</ele>
        <time>2010-09-19T13:57:29Z</time>
      </trkpt>
      <trkpt lat="46.28659" lon="5.73597">
        <ele>783.13110351562</ele>
        <time>2010-09-19T13:57:35Z</time>
      </trkpt>
      <trkpt lat="46.2864" lon="5.73562">
        <ele>785.05395507812</ele>
        <time>2010-09-19T13:57:42Z</time>
      </trkpt>
      <trkpt lat="46.28635" lon="5.73548">
        <ele>786.49584960938</ele>
        <time>2010-09-19T13:57:45Z</time>
      </trkpt>
      <trkpt lat="46.28629" lon="5.73525">
        <ele>786.49584960938</ele>
        <time>2010-09-19T13:57:50Z</time>
      </trkpt>
      <trkpt lat="46.28625" lon="5.73506">
        <ele>786.49584960938</ele>
        <time>2010-09-19T13:57:56Z</time>
      </trkpt>
      <trkpt lat="46.28624" lon="5.73501">
        <ele>786.97631835938</ele>
        <time>2010-09-19T13:58:01Z</time>
      </trkpt>
      <trkpt lat="46.28622" lon="5.73494">
        <ele>786.01513671875</ele>
        <time>2010-09-19T13:58:08Z</time>
      </trkpt>
      <trkpt lat="46.28621" lon="5.7349">
        <ele>786.97631835938</ele>
        <time>2010-09-19T13:58:14Z</time>
      </trkpt>
      <trkpt lat="46.28618" lon="5.73482">
        <ele>786.97631835938</ele>
        <time>2010-09-19T13:58:20Z</time>
      </trkpt>
      <trkpt lat="46.28617" lon="5.73477">
        <ele>786.97631835938</ele>
        <time>2010-09-19T13:58:22Z</time>
      </trkpt>
      <trkpt lat="46.28614" lon="5.7347">
        <ele>787.45703125</ele>
        <time>2010-09-19T13:58:27Z</time>
      </trkpt>
      <trkpt lat="46.28614" lon="5.73463">
        <ele>787.45703125</ele>
        <time>2010-09-19T13:58:33Z</time>
      </trkpt>
      <trkpt lat="46.28614" lon="5.73463">
        <ele>786.97631835938</ele>
        <time>2010-09-19T13:58:36Z</time>
      </trkpt>
      <trkpt lat="46.28614" lon="5.73465">
        <ele>786.49584960938</ele>
        <time>2010-09-19T13:58:39Z</time>
      </trkpt>
      <trkpt lat="46.28609" lon="5.73456">
        <ele>786.01513671875</ele>
        <time>2010-09-19T13:58:45Z</time>
      </trkpt>
      <trkpt lat="46.28609" lon="5.73455">
        <ele>786.49584960938</ele>
        <time>2010-09-19T13:58:51Z</time>
      </trkpt>
      <trkpt lat="46.2861" lon="5.73457">
        <ele>785.05395507812</ele>
        <time>2010-09-19T13:59:06Z</time>
      </trkpt>
      <trkpt lat="46.28612" lon="5.73459">
        <ele>785.53442382812</ele>
        <time>2010-09-19T13:59:08Z</time>
      </trkpt>
      <trkpt lat="46.28614" lon="5.73467">
        <ele>785.53442382812</ele>
        <time>2010-09-19T13:59:14Z</time>
      </trkpt>
      <trkpt lat="46.28616" lon="5.7347">
        <ele>785.53442382812</ele>
        <time>2010-09-19T13:59:21Z</time>
      </trkpt>
      <trkpt lat="46.28618" lon="5.73474">
        <ele>786.49584960938</ele>
        <time>2010-09-19T13:59:27Z</time>
      </trkpt>
      <trkpt lat="46.28618" lon="5.73477">
        <ele>786.01513671875</ele>
        <time>2010-09-19T13:59:36Z</time>
      </trkpt>
      <trkpt lat="46.2862" lon="5.73481">
        <ele>785.53442382812</ele>
        <time>2010-09-19T13:59:41Z</time>
      </trkpt>
      <trkpt lat="46.28622" lon="5.73483">
        <ele>786.01513671875</ele>
        <time>2010-09-19T13:59:46Z</time>
      </trkpt>
      <trkpt lat="46.28622" lon="5.73484">
        <ele>786.49584960938</ele>
        <time>2010-09-19T13:59:48Z</time>
      </trkpt>
      <trkpt lat="46.28624" lon="5.73486">
        <ele>786.01513671875</ele>
        <time>2010-09-19T13:59:56Z</time>
      </trkpt>
      <trkpt lat="46.28624" lon="5.73487">
        <ele>786.01513671875</ele>
        <time>2010-09-19T14:00:08Z</time>
      </trkpt>
      <trkpt lat="46.28625" lon="5.73489">
        <ele>786.01513671875</ele>
        <time>2010-09-19T14:00:33Z</time>
      </trkpt>
      <trkpt lat="46.28622" lon="5.7349">
        <ele>786.01513671875</ele>
        <time>2010-09-19T14:00:43Z</time>
      </trkpt>
      <trkpt lat="46.2862" lon="5.73492">
        <ele>786.01513671875</ele>
        <time>2010-09-19T14:00:49Z</time>
      </trkpt>
      <trkpt lat="46.28621" lon="5.73492">
        <ele>786.49584960938</ele>
        <time>2010-09-19T14:00:58Z</time>
      </trkpt>
      <trkpt lat="46.28622" lon="5.73493">
        <ele>786.01513671875</ele>
        <time>2010-09-19T14:01:06Z</time>
      </trkpt>
      <trkpt lat="46.28622" lon="5.73496">
        <ele>787.93774414062</ele>
        <time>2010-09-19T14:01:12Z</time>
      </trkpt>
      <trkpt lat="46.28623" lon="5.73497">
        <ele>787.93774414062</ele>
        <time>2010-09-19T14:01:28Z</time>
      </trkpt>
      <trkpt lat="46.28622" lon="5.73495">
        <ele>787.45703125</ele>
        <time>2010-09-19T14:01:53Z</time>
      </trkpt>
      <trkpt lat="46.28621" lon="5.73492">
        <ele>786.49584960938</ele>
        <time>2010-09-19T14:01:58Z</time>
      </trkpt>
      <trkpt lat="46.28622" lon="5.73489">
        <ele>786.49584960938</ele>
        <time>2010-09-19T14:02:04Z</time>
      </trkpt>
      <trkpt lat="46.28623" lon="5.73487">
        <ele>786.01513671875</ele>
        <time>2010-09-19T14:02:11Z</time>
      </trkpt>
      <trkpt lat="46.28624" lon="5.73485">
        <ele>786.01513671875</ele>
        <time>2010-09-19T14:02:21Z</time>
      </trkpt>
      <trkpt lat="46.28623" lon="5.73483">
        <ele>786.01513671875</ele>
        <time>2010-09-19T14:02:29Z</time>
      </trkpt>
      <trkpt lat="46.2862" lon="5.73481">
        <ele>786.01513671875</ele>
        <time>2010-09-19T14:02:34Z</time>
      </trkpt>
      <trkpt lat="46.28619" lon="5.73481">
        <ele>785.53442382812</ele>
        <time>2010-09-19T14:02:40Z</time>
      </trkpt>
      <trkpt lat="46.28618" lon="5.7348">
        <ele>786.01513671875</ele>
        <time>2010-09-19T14:02:55Z</time>
      </trkpt>
      <trkpt lat="46.28619" lon="5.7348">
        <ele>786.01513671875</ele>
        <time>2010-09-19T14:03:05Z</time>
      </trkpt>
      <trkpt lat="46.28621" lon="5.7348">
        <ele>786.01513671875</ele>
        <time>2010-09-19T14:03:16Z</time>
      </trkpt>
      <trkpt lat="46.28623" lon="5.73482">
        <ele>786.01513671875</ele>
        <time>2010-09-19T14:03:22Z</time>
      </trkpt>
      <trkpt lat="46.28624" lon="5.73483">
        <ele>786.01513671875</ele>
        <time>2010-09-19T14:03:28Z</time>
      </trkpt>
      <trkpt lat="46.28622" lon="5.7348">
        <ele>786.01513671875</ele>
        <time>2010-09-19T14:03:35Z</time>
      </trkpt>
      <trkpt lat="46.28621" lon="5.73477">
        <ele>786.01513671875</ele>
        <time>2010-09-19T14:03:43Z</time>
      </trkpt>
      <trkpt lat="46.28619" lon="5.73471">
        <ele>786.01513671875</ele>
        <time>2010-09-19T14:03:51Z</time>
      </trkpt>
      <trkpt lat="46.28618" lon="5.73466">
        <ele>786.49584960938</ele>
        <time>2010-09-19T14:03:58Z</time>
      </trkpt>
      <trkpt lat="46.28616" lon="5.73464">
        <ele>787.45703125</ele>
        <time>2010-09-19T14:04:04Z</time>
      </trkpt>
      <trkpt lat="46.28616" lon="5.73463">
        <ele>787.45703125</ele>
        <time>2010-09-19T14:04:16Z</time>
      </trkpt>
      <trkpt lat="46.28615" lon="5.73463">
        <ele>787.45703125</ele>
        <time>2010-09-19T14:04:17Z</time>
      </trkpt>
      <trkpt lat="46.28609" lon="5.73455">
        <ele>787.45703125</ele>
        <time>2010-09-19T14:04:24Z</time>
      </trkpt>
      <trkpt lat="46.28602" lon="5.73447">
        <ele>786.97631835938</ele>
        <time>2010-09-19T14:04:30Z</time>
      </trkpt>
      <trkpt lat="46.28588" lon="5.73435">
        <ele>785.53442382812</ele>
        <time>2010-09-19T14:04:37Z</time>
      </trkpt>
      <trkpt lat="46.28567" lon="5.73427">
        <ele>786.49584960938</ele>
        <time>2010-09-19T14:04:43Z</time>
      </trkpt>
      <trkpt lat="46.28531" lon="5.73423">
        <ele>786.01513671875</ele>
        <time>2010-09-19T14:04:51Z</time>
      </trkpt>
      <trkpt lat="46.28521" lon="5.73421">
        <ele>786.49584960938</ele>
        <time>2010-09-19T14:04:53Z</time>
      </trkpt>
      <trkpt lat="46.285" lon="5.73403">
        <ele>787.45703125</ele>
        <time>2010-09-19T14:04:58Z</time>
      </trkpt>
      <trkpt lat="46.28476" lon="5.7336">
        <ele>787.45703125</ele>
        <time>2010-09-19T14:05:05Z</time>
      </trkpt>
      <trkpt lat="46.28455" lon="5.73339">
        <ele>788.89916992188</ele>
        <time>2010-09-19T14:05:11Z</time>
      </trkpt>
      <trkpt lat="46.28437" lon="5.73316">
        <ele>789.37963867188</ele>
        <time>2010-09-19T14:05:17Z</time>
      </trkpt>
      <trkpt lat="46.28435" lon="5.73312">
        <ele>788.89916992188</ele>
        <time>2010-09-19T14:05:18Z</time>
      </trkpt>
      <trkpt lat="46.28426" lon="5.7328">
        <ele>787.93774414062</ele>
        <time>2010-09-19T14:05:23Z</time>
      </trkpt>
      <trkpt lat="46.28426" lon="5.73271">
        <ele>787.45703125</ele>
        <time>2010-09-19T14:05:24Z</time>
      </trkpt>
      <trkpt lat="46.28428" lon="5.73233">
        <ele>783.13110351562</ele>
        <time>2010-09-19T14:05:28Z</time>
      </trkpt>
      <trkpt lat="46.2843" lon="5.73224">
        <ele>781.68920898438</ele>
        <time>2010-09-19T14:05:29Z</time>
      </trkpt>
      <trkpt lat="46.28436" lon="5.73202">
        <ele>778.32446289062</ele>
        <time>2010-09-19T14:05:33Z</time>
      </trkpt>
      <trkpt lat="46.28436" lon="5.73182">
        <ele>777.84375</ele>
        <time>2010-09-19T14:05:38Z</time>
      </trkpt>
      <trkpt lat="46.28442" lon="5.73168">
        <ele>778.32446289062</ele>
        <time>2010-09-19T14:05:42Z</time>
      </trkpt>
      <trkpt lat="46.28455" lon="5.73144">
        <ele>780.72802734375</ele>
        <time>2010-09-19T14:05:50Z</time>
      </trkpt>
      <trkpt lat="46.28469" lon="5.73126">
        <ele>782.65063476562</ele>
        <time>2010-09-19T14:05:59Z</time>
      </trkpt>
      <trkpt lat="46.2848" lon="5.73111">
        <ele>784.5732421875</ele>
        <time>2010-09-19T14:06:07Z</time>
      </trkpt>
      <trkpt lat="46.28488" lon="5.7309">
        <ele>786.01513671875</ele>
        <time>2010-09-19T14:06:16Z</time>
      </trkpt>
      <trkpt lat="46.28495" lon="5.73071">
        <ele>786.97631835938</ele>
        <time>2010-09-19T14:06:24Z</time>
      </trkpt>
      <trkpt lat="46.28506" lon="5.73053">
        <ele>788.41845703125</ele>
        <time>2010-09-19T14:06:32Z</time>
      </trkpt>
      <trkpt lat="46.28524" lon="5.73031">
        <ele>789.37963867188</ele>
        <time>2010-09-19T14:06:40Z</time>
      </trkpt>
      <trkpt lat="46.28548" lon="5.73013">
        <ele>789.37963867188</ele>
        <time>2010-09-19T14:06:48Z</time>
      </trkpt>
      <trkpt lat="46.28569" lon="5.72998">
        <ele>789.8603515625</ele>
        <time>2010-09-19T14:06:55Z</time>
      </trkpt>
      <trkpt lat="46.28588" lon="5.72988">
        <ele>790.34106445312</ele>
        <time>2010-09-19T14:07:01Z</time>
      </trkpt>
      <trkpt lat="46.28613" lon="5.72974">
        <ele>790.82153320312</ele>
        <time>2010-09-19T14:07:09Z</time>
      </trkpt>
      <trkpt lat="46.28628" lon="5.72957">
        <ele>790.34106445312</ele>
        <time>2010-09-19T14:07:14Z</time>
      </trkpt>
      <trkpt lat="46.2865" lon="5.72938">
        <ele>790.34106445312</ele>
        <time>2010-09-19T14:07:21Z</time>
      </trkpt>
      <trkpt lat="46.28666" lon="5.7293">
        <ele>790.34106445312</ele>
        <time>2010-09-19T14:07:26Z</time>
      </trkpt>
      <trkpt lat="46.28666" lon="5.72913">
        <ele>790.34106445312</ele>
        <time>2010-09-19T14:07:30Z</time>
      </trkpt>
      <trkpt lat="46.28665" lon="5.72908">
        <ele>790.34106445312</ele>
        <time>2010-09-19T14:07:31Z</time>
      </trkpt>
      <trkpt lat="46.28659" lon="5.72882">
        <ele>789.37963867188</ele>
        <time>2010-09-19T14:07:35Z</time>
      </trkpt>
      <trkpt lat="46.28638" lon="5.7285">
        <ele>789.37963867188</ele>
        <time>2010-09-19T14:07:41Z</time>
      </trkpt>
      <trkpt lat="46.28624" lon="5.72839">
        <ele>787.93774414062</ele>
        <time>2010-09-19T14:07:44Z</time>
      </trkpt>
      <trkpt lat="46.28576" lon="5.72811">
        <ele>787.93774414062</ele>
        <time>2010-09-19T14:07:53Z</time>
      </trkpt>
      <trkpt lat="46.28539" lon="5.72798">
        <ele>786.01513671875</ele>
        <time>2010-09-19T14:08:00Z</time>
      </trkpt>
      <trkpt lat="46.28534" lon="5.72797">
        <ele>786.01513671875</ele>
        <time>2010-09-19T14:08:01Z</time>
      </trkpt>
      <trkpt lat="46.28518" lon="5.72796">
        <ele>786.01513671875</ele>
        <time>2010-09-19T14:08:04Z</time>
      </trkpt>
      <trkpt lat="46.28488" lon="5.72783">
        <ele>786.01513671875</ele>
        <time>2010-09-19T14:08:10Z</time>
      </trkpt>
      <trkpt lat="46.28468" lon="5.72758">
        <ele>785.53442382812</ele>
        <time>2010-09-19T14:08:15Z</time>
      </trkpt>
      <trkpt lat="46.28463" lon="5.72743">
        <ele>785.05395507812</ele>
        <time>2010-09-19T14:08:17Z</time>
      </trkpt>
      <trkpt lat="46.2845" lon="5.72701">
        <ele>783.13110351562</ele>
        <time>2010-09-19T14:08:22Z</time>
      </trkpt>
      <trkpt lat="46.28436" lon="5.72667">
        <ele>783.61181640625</ele>
        <time>2010-09-19T14:08:27Z</time>
      </trkpt>
      <trkpt lat="46.28437" lon="5.72654">
        <ele>783.61181640625</ele>
        <time>2010-09-19T14:08:30Z</time>
      </trkpt>
      <trkpt lat="46.28447" lon="5.72649">
        <ele>783.61181640625</ele>
        <time>2010-09-19T14:08:33Z</time>
      </trkpt>
      <trkpt lat="46.2846" lon="5.72646">
        <ele>783.13110351562</ele>
        <time>2010-09-19T14:08:37Z</time>
      </trkpt>
      <trkpt lat="46.28474" lon="5.72644">
        <ele>783.13110351562</ele>
        <time>2010-09-19T14:08:42Z</time>
      </trkpt>
      <trkpt lat="46.28476" lon="5.72641">
        <ele>783.61181640625</ele>
        <time>2010-09-19T14:08:43Z</time>
      </trkpt>
      <trkpt lat="46.28491" lon="5.72613">
        <ele>783.61181640625</ele>
        <time>2010-09-19T14:08:52Z</time>
      </trkpt>
      <trkpt lat="46.28507" lon="5.72584">
        <ele>785.05395507812</ele>
        <time>2010-09-19T14:09:02Z</time>
      </trkpt>
      <trkpt lat="46.28524" lon="5.72557">
        <ele>786.01513671875</ele>
        <time>2010-09-19T14:09:12Z</time>
      </trkpt>
      <trkpt lat="46.28541" lon="5.72532">
        <ele>786.49584960938</ele>
        <time>2010-09-19T14:09:22Z</time>
      </trkpt>
      <trkpt lat="46.28556" lon="5.72513">
        <ele>786.97631835938</ele>
        <time>2010-09-19T14:09:31Z</time>
      </trkpt>
      <trkpt lat="46.28571" lon="5.72496">
        <ele>786.97631835938</ele>
        <time>2010-09-19T14:09:40Z</time>
      </trkpt>
      <trkpt lat="46.28588" lon="5.72474">
        <ele>787.45703125</ele>
        <time>2010-09-19T14:09:50Z</time>
      </trkpt>
      <trkpt lat="46.28603" lon="5.72457">
        <ele>787.93774414062</ele>
        <time>2010-09-19T14:09:59Z</time>
      </trkpt>
      <trkpt lat="46.28616" lon="5.72463">
        <ele>788.41845703125</ele>
        <time>2010-09-19T14:10:06Z</time>
      </trkpt>
      <trkpt lat="46.2863" lon="5.7247">
        <ele>789.37963867188</ele>
        <time>2010-09-19T14:10:13Z</time>
      </trkpt>
      <trkpt lat="46.28644" lon="5.72478">
        <ele>789.8603515625</ele>
        <time>2010-09-19T14:10:20Z</time>
      </trkpt>
      <trkpt lat="46.28665" lon="5.72486">
        <ele>790.82153320312</ele>
        <time>2010-09-19T14:10:30Z</time>
      </trkpt>
      <trkpt lat="46.2868" lon="5.72487">
        <ele>792.263671875</ele>
        <time>2010-09-19T14:10:38Z</time>
      </trkpt>
      <trkpt lat="46.28697" lon="5.72485">
        <ele>792.74438476562</ele>
        <time>2010-09-19T14:10:46Z</time>
      </trkpt>
      <trkpt lat="46.28714" lon="5.72493">
        <ele>792.263671875</ele>
        <time>2010-09-19T14:10:52Z</time>
      </trkpt>
      <trkpt lat="46.28736" lon="5.72501">
        <ele>790.82153320312</ele>
        <time>2010-09-19T14:10:57Z</time>
      </trkpt>
      <trkpt lat="46.28763" lon="5.72507">
        <ele>790.34106445312</ele>
        <time>2010-09-19T14:11:03Z</time>
      </trkpt>
      <trkpt lat="46.28778" lon="5.72513">
        <ele>790.82153320312</ele>
        <time>2010-09-19T14:11:07Z</time>
      </trkpt>
      <trkpt lat="46.28801" lon="5.72536">
        <ele>790.34106445312</ele>
        <time>2010-09-19T14:11:14Z</time>
      </trkpt>
      <trkpt lat="46.28819" lon="5.72552">
        <ele>790.34106445312</ele>
        <time>2010-09-19T14:11:21Z</time>
      </trkpt>
      <trkpt lat="46.28835" lon="5.72564">
        <ele>791.30224609375</ele>
        <time>2010-09-19T14:11:29Z</time>
      </trkpt>
      <trkpt lat="46.28847" lon="5.72569">
        <ele>792.263671875</ele>
        <time>2010-09-19T14:11:35Z</time>
      </trkpt>
      <trkpt lat="46.28862" lon="5.72576">
        <ele>792.74438476562</ele>
        <time>2010-09-19T14:11:44Z</time>
      </trkpt>
      <trkpt lat="46.28872" lon="5.72578">
        <ele>794.66674804688</ele>
        <time>2010-09-19T14:11:51Z</time>
      </trkpt>
      <trkpt lat="46.28875" lon="5.72579">
        <ele>795.1474609375</ele>
        <time>2010-09-19T14:11:53Z</time>
      </trkpt>
      <trkpt lat="46.28884" lon="5.72583">
        <ele>796.10913085938</ele>
        <time>2010-09-19T14:12:00Z</time>
      </trkpt>
      <trkpt lat="46.28893" lon="5.72591">
        <ele>797.0703125</ele>
        <time>2010-09-19T14:12:07Z</time>
      </trkpt>
      <trkpt lat="46.28897" lon="5.72595">
        <ele>797.0703125</ele>
        <time>2010-09-19T14:12:11Z</time>
      </trkpt>
      <trkpt lat="46.28907" lon="5.72602">
        <ele>798.03173828125</ele>
        <time>2010-09-19T14:12:19Z</time>
      </trkpt>
      <trkpt lat="46.28917" lon="5.72611">
        <ele>798.03173828125</ele>
        <time>2010-09-19T14:12:27Z</time>
      </trkpt>
      <trkpt lat="46.28927" lon="5.72618">
        <ele>799.4736328125</ele>
        <time>2010-09-19T14:12:35Z</time>
      </trkpt>
      <trkpt lat="46.28937" lon="5.72622">
        <ele>800.43505859375</ele>
        <time>2010-09-19T14:12:42Z</time>
      </trkpt>
      <trkpt lat="46.28947" lon="5.7263">
        <ele>800.91552734375</ele>
        <time>2010-09-19T14:12:49Z</time>
      </trkpt>
      <trkpt lat="46.2896" lon="5.7264">
        <ele>801.876953125</ele>
        <time>2010-09-19T14:12:57Z</time>
      </trkpt>
      <trkpt lat="46.28968" lon="5.72647">
        <ele>802.357421875</ele>
        <time>2010-09-19T14:13:04Z</time>
      </trkpt>
      <trkpt lat="46.2898" lon="5.7266">
        <ele>802.83813476562</ele>
        <time>2010-09-19T14:13:13Z</time>
      </trkpt>
      <trkpt lat="46.28986" lon="5.72667">
        <ele>803.31884765625</ele>
        <time>2010-09-19T14:13:18Z</time>
      </trkpt>
      <trkpt lat="46.28997" lon="5.72679">
        <ele>803.79956054688</ele>
        <time>2010-09-19T14:13:25Z</time>
      </trkpt>
      <trkpt lat="46.29004" lon="5.72687">
        <ele>804.2802734375</ele>
        <time>2010-09-19T14:13:31Z</time>
      </trkpt>
      <trkpt lat="46.29012" lon="5.72699">
        <ele>804.7607421875</ele>
        <time>2010-09-19T14:13:37Z</time>
      </trkpt>
      <trkpt lat="46.29023" lon="5.72711">
        <ele>805.24145507812</ele>
        <time>2010-09-19T14:13:44Z</time>
      </trkpt>
      <trkpt lat="46.29034" lon="5.7271">
        <ele>806.68334960938</ele>
        <time>2010-09-19T14:13:50Z</time>
      </trkpt>
      <trkpt lat="46.29044" lon="5.72695">
        <ele>807.64477539062</ele>
        <time>2010-09-19T14:13:59Z</time>
      </trkpt>
      <trkpt lat="46.29058" lon="5.72682">
        <ele>807.64477539062</ele>
        <time>2010-09-19T14:14:06Z</time>
      </trkpt>
      <trkpt lat="46.29073" lon="5.72677">
        <ele>808.12548828125</ele>
        <time>2010-09-19T14:14:12Z</time>
      </trkpt>
      <trkpt lat="46.29086" lon="5.72678">
        <ele>808.12548828125</ele>
        <time>2010-09-19T14:14:18Z</time>
      </trkpt>
      <trkpt lat="46.29103" lon="5.72685">
        <ele>808.12548828125</ele>
        <time>2010-09-19T14:14:25Z</time>
      </trkpt>
      <trkpt lat="46.29118" lon="5.72681">
        <ele>807.64477539062</ele>
        <time>2010-09-19T14:14:31Z</time>
      </trkpt>
      <trkpt lat="46.2913" lon="5.7267">
        <ele>807.64477539062</ele>
        <time>2010-09-19T14:14:36Z</time>
      </trkpt>
      <trkpt lat="46.29144" lon="5.72644">
        <ele>807.1640625</ele>
        <time>2010-09-19T14:14:43Z</time>
      </trkpt>
      <trkpt lat="46.29155" lon="5.72614">
        <ele>807.1640625</ele>
        <time>2010-09-19T14:14:50Z</time>
      </trkpt>
      <trkpt lat="46.29166" lon="5.72616">
        <ele>806.68334960938</ele>
        <time>2010-09-19T14:14:54Z</time>
      </trkpt>
      <trkpt lat="46.29173" lon="5.72624">
        <ele>806.68334960938</ele>
        <time>2010-09-19T14:14:56Z</time>
      </trkpt>
      <trkpt lat="46.29194" lon="5.72638">
        <ele>807.1640625</ele>
        <time>2010-09-19T14:15:02Z</time>
      </trkpt>
      <trkpt lat="46.29206" lon="5.72631">
        <ele>809.08666992188</ele>
        <time>2010-09-19T14:15:07Z</time>
      </trkpt>
      <trkpt lat="46.29217" lon="5.72618">
        <ele>809.08666992188</ele>
        <time>2010-09-19T14:15:12Z</time>
      </trkpt>
      <trkpt lat="46.29233" lon="5.72619">
        <ele>809.08666992188</ele>
        <time>2010-09-19T14:15:17Z</time>
      </trkpt>
      <trkpt lat="46.29254" lon="5.72621">
        <ele>808.60595703125</ele>
        <time>2010-09-19T14:15:22Z</time>
      </trkpt>
      <trkpt lat="46.29269" lon="5.72619">
        <ele>809.08666992188</ele>
        <time>2010-09-19T14:15:25Z</time>
      </trkpt>
      <trkpt lat="46.29283" lon="5.72614">
        <ele>808.60595703125</ele>
        <time>2010-09-19T14:15:28Z</time>
      </trkpt>
      <trkpt lat="46.29321" lon="5.72606">
        <ele>808.60595703125</ele>
        <time>2010-09-19T14:15:37Z</time>
      </trkpt>
      <trkpt lat="46.29337" lon="5.726">
        <ele>810.0478515625</ele>
        <time>2010-09-19T14:15:43Z</time>
      </trkpt>
      <trkpt lat="46.29348" lon="5.72593">
        <ele>811.970703125</ele>
        <time>2010-09-19T14:15:49Z</time>
      </trkpt>
      <trkpt lat="46.29361" lon="5.72584">
        <ele>811.970703125</ele>
        <time>2010-09-19T14:15:55Z</time>
      </trkpt>
      <trkpt lat="46.29379" lon="5.72571">
        <ele>812.45141601562</ele>
        <time>2010-09-19T14:16:01Z</time>
      </trkpt>
      <trkpt lat="46.29406" lon="5.72554">
        <ele>812.45141601562</ele>
        <time>2010-09-19T14:16:10Z</time>
      </trkpt>
      <trkpt lat="46.2943" lon="5.72553">
        <ele>813.41284179688</ele>
        <time>2010-09-19T14:16:17Z</time>
      </trkpt>
      <trkpt lat="46.29445" lon="5.72558">
        <ele>814.3740234375</ele>
        <time>2010-09-19T14:16:23Z</time>
      </trkpt>
      <trkpt lat="46.29453" lon="5.72562">
        <ele>813.41284179688</ele>
        <time>2010-09-19T14:16:26Z</time>
      </trkpt>
      <trkpt lat="46.29468" lon="5.72585">
        <ele>811.48999023438</ele>
        <time>2010-09-19T14:16:31Z</time>
      </trkpt>
      <trkpt lat="46.29476" lon="5.72597">
        <ele>811.48999023438</ele>
        <time>2010-09-19T14:16:33Z</time>
      </trkpt>
      <trkpt lat="46.29489" lon="5.72609">
        <ele>811.00927734375</ele>
        <time>2010-09-19T14:16:36Z</time>
      </trkpt>
      <trkpt lat="46.29511" lon="5.72614">
        <ele>811.48999023438</ele>
        <time>2010-09-19T14:16:41Z</time>
      </trkpt>
      <trkpt lat="46.2953" lon="5.72619">
        <ele>811.48999023438</ele>
        <time>2010-09-19T14:16:46Z</time>
      </trkpt>
      <trkpt lat="46.29534" lon="5.72621">
        <ele>811.00927734375</ele>
        <time>2010-09-19T14:16:47Z</time>
      </trkpt>
      <trkpt lat="46.29551" lon="5.72632">
        <ele>809.08666992188</ele>
        <time>2010-09-19T14:16:50Z</time>
      </trkpt>
      <trkpt lat="46.29575" lon="5.72651">
        <ele>808.60595703125</ele>
        <time>2010-09-19T14:16:54Z</time>
      </trkpt>
      <trkpt lat="46.2959" lon="5.72668">
        <ele>808.12548828125</ele>
        <time>2010-09-19T14:16:57Z</time>
      </trkpt>
      <trkpt lat="46.29614" lon="5.72687">
        <ele>807.64477539062</ele>
        <time>2010-09-19T14:17:02Z</time>
      </trkpt>
      <trkpt lat="46.29619" lon="5.72688">
        <ele>807.64477539062</ele>
        <time>2010-09-19T14:17:03Z</time>
      </trkpt>
      <trkpt lat="46.29639" lon="5.72696">
        <ele>808.12548828125</ele>
        <time>2010-09-19T14:17:07Z</time>
      </trkpt>
      <trkpt lat="46.2966" lon="5.72691">
        <ele>808.60595703125</ele>
        <time>2010-09-19T14:17:12Z</time>
      </trkpt>
      <trkpt lat="46.29682" lon="5.72684">
        <ele>809.08666992188</ele>
        <time>2010-09-19T14:17:18Z</time>
      </trkpt>
      <trkpt lat="46.29697" lon="5.72686">
        <ele>810.52856445312</ele>
        <time>2010-09-19T14:17:24Z</time>
      </trkpt>
      <trkpt lat="46.29718" lon="5.7269">
        <ele>810.52856445312</ele>
        <time>2010-09-19T14:17:32Z</time>
      </trkpt>
      <trkpt lat="46.2974" lon="5.72697">
        <ele>811.48999023438</ele>
        <time>2010-09-19T14:17:41Z</time>
      </trkpt>
      <trkpt lat="46.29755" lon="5.727">
        <ele>811.970703125</ele>
        <time>2010-09-19T14:17:48Z</time>
      </trkpt>
      <trkpt lat="46.2977" lon="5.72708">
        <ele>812.93212890625</ele>
        <time>2010-09-19T14:17:55Z</time>
      </trkpt>
      <trkpt lat="46.29774" lon="5.72726">
        <ele>813.41284179688</ele>
        <time>2010-09-19T14:18:00Z</time>
      </trkpt>
      <trkpt lat="46.29771" lon="5.72755">
        <ele>813.89331054688</ele>
        <time>2010-09-19T14:18:07Z</time>
      </trkpt>
      <trkpt lat="46.29774" lon="5.72782">
        <ele>813.89331054688</ele>
        <time>2010-09-19T14:18:13Z</time>
      </trkpt>
      <trkpt lat="46.29776" lon="5.72789">
        <ele>812.93212890625</ele>
        <time>2010-09-19T14:18:14Z</time>
      </trkpt>
      <trkpt lat="46.29781" lon="5.72829">
        <ele>811.970703125</ele>
        <time>2010-09-19T14:18:19Z</time>
      </trkpt>
      <trkpt lat="46.29781" lon="5.72868">
        <ele>809.5673828125</ele>
        <time>2010-09-19T14:18:23Z</time>
      </trkpt>
      <trkpt lat="46.29778" lon="5.7291">
        <ele>807.64477539062</ele>
        <time>2010-09-19T14:18:27Z</time>
      </trkpt>
      <trkpt lat="46.2979" lon="5.72989">
        <ele>803.31884765625</ele>
        <time>2010-09-19T14:18:34Z</time>
      </trkpt>
      <trkpt lat="46.29792" lon="5.72999">
        <ele>804.2802734375</ele>
        <time>2010-09-19T14:18:35Z</time>
      </trkpt>
      <trkpt lat="46.29803" lon="5.73032">
        <ele>803.79956054688</ele>
        <time>2010-09-19T14:18:39Z</time>
      </trkpt>
      <trkpt lat="46.29814" lon="5.73041">
        <ele>804.2802734375</ele>
        <time>2010-09-19T14:18:41Z</time>
      </trkpt>
      <trkpt lat="46.29855" lon="5.73061">
        <ele>805.24145507812</ele>
        <time>2010-09-19T14:18:48Z</time>
      </trkpt>
      <trkpt lat="46.29884" lon="5.73083">
        <ele>805.72216796875</ele>
        <time>2010-09-19T14:18:54Z</time>
      </trkpt>
      <trkpt lat="46.29892" lon="5.73095">
        <ele>804.7607421875</ele>
        <time>2010-09-19T14:18:56Z</time>
      </trkpt>
      <trkpt lat="46.29922" lon="5.73157">
        <ele>804.7607421875</ele>
        <time>2010-09-19T14:19:05Z</time>
      </trkpt>
      <trkpt lat="46.29943" lon="5.73176">
        <ele>802.357421875</ele>
        <time>2010-09-19T14:19:10Z</time>
      </trkpt>
      <trkpt lat="46.29956" lon="5.73166">
        <ele>802.357421875</ele>
        <time>2010-09-19T14:19:13Z</time>
      </trkpt>
      <trkpt lat="46.29972" lon="5.73138">
        <ele>802.83813476562</ele>
        <time>2010-09-19T14:19:19Z</time>
      </trkpt>
      <trkpt lat="46.29985" lon="5.73111">
        <ele>803.31884765625</ele>
        <time>2010-09-19T14:19:25Z</time>
      </trkpt>
      <trkpt lat="46.29994" lon="5.73094">
        <ele>804.2802734375</ele>
        <time>2010-09-19T14:19:31Z</time>
      </trkpt>
      <trkpt lat="46.30001" lon="5.73071">
        <ele>805.72216796875</ele>
        <time>2010-09-19T14:19:40Z</time>
      </trkpt>
      <trkpt lat="46.30005" lon="5.7305">
        <ele>806.68334960938</ele>
        <time>2010-09-19T14:19:48Z</time>
      </trkpt>
      <trkpt lat="46.30008" lon="5.7304">
        <ele>807.1640625</ele>
        <time>2010-09-19T14:19:53Z</time>
      </trkpt>
      <trkpt lat="46.30016" lon="5.7302">
        <ele>808.12548828125</ele>
        <time>2010-09-19T14:20:01Z</time>
      </trkpt>
      <trkpt lat="46.30016" lon="5.73018">
        <ele>808.12548828125</ele>
        <time>2010-09-19T14:20:02Z</time>
      </trkpt>
      <trkpt lat="46.30018" lon="5.7301">
        <ele>808.60595703125</ele>
        <time>2010-09-19T14:20:06Z</time>
      </trkpt>
      <trkpt lat="46.30027" lon="5.72997">
        <ele>809.5673828125</ele>
        <time>2010-09-19T14:20:16Z</time>
      </trkpt>
      <trkpt lat="46.30035" lon="5.72992">
        <ele>810.52856445312</ele>
        <time>2010-09-19T14:20:23Z</time>
      </trkpt>
      <trkpt lat="46.30043" lon="5.72976">
        <ele>811.970703125</ele>
        <time>2010-09-19T14:20:31Z</time>
      </trkpt>
      <trkpt lat="46.30045" lon="5.72952">
        <ele>813.89331054688</ele>
        <time>2010-09-19T14:20:39Z</time>
      </trkpt>
      <trkpt lat="46.30042" lon="5.7293">
        <ele>814.85473632812</ele>
        <time>2010-09-19T14:20:46Z</time>
      </trkpt>
      <trkpt lat="46.30038" lon="5.72907">
        <ele>814.85473632812</ele>
        <time>2010-09-19T14:20:52Z</time>
      </trkpt>
      <trkpt lat="46.30032" lon="5.72886">
        <ele>815.33544921875</ele>
        <time>2010-09-19T14:20:59Z</time>
      </trkpt>
      <trkpt lat="46.30028" lon="5.72866">
        <ele>816.77734375</ele>
        <time>2010-09-19T14:21:07Z</time>
      </trkpt>
      <trkpt lat="46.30024" lon="5.72851">
        <ele>818.21923828125</ele>
        <time>2010-09-19T14:21:14Z</time>
      </trkpt>
      <trkpt lat="46.30023" lon="5.72834">
        <ele>819.1806640625</ele>
        <time>2010-09-19T14:21:21Z</time>
      </trkpt>
      <trkpt lat="46.30023" lon="5.72816">
        <ele>820.14184570312</ele>
        <time>2010-09-19T14:21:28Z</time>
      </trkpt>
      <trkpt lat="46.30027" lon="5.72795">
        <ele>818.69995117188</ele>
        <time>2010-09-19T14:21:33Z</time>
      </trkpt>
      <trkpt lat="46.30032" lon="5.72759">
        <ele>817.25805664062</ele>
        <time>2010-09-19T14:21:39Z</time>
      </trkpt>
      <trkpt lat="46.30035" lon="5.72732">
        <ele>817.25805664062</ele>
        <time>2010-09-19T14:21:44Z</time>
      </trkpt>
      <trkpt lat="46.30044" lon="5.7271">
        <ele>817.25805664062</ele>
        <time>2010-09-19T14:21:49Z</time>
      </trkpt>
      <trkpt lat="46.30053" lon="5.72686">
        <ele>816.77734375</ele>
        <time>2010-09-19T14:21:54Z</time>
      </trkpt>
      <trkpt lat="46.30054" lon="5.72668">
        <ele>817.25805664062</ele>
        <time>2010-09-19T14:21:58Z</time>
      </trkpt>
      <trkpt lat="46.30051" lon="5.72652">
        <ele>817.73852539062</ele>
        <time>2010-09-19T14:22:03Z</time>
      </trkpt>
      <trkpt lat="46.30046" lon="5.72638">
        <ele>818.21923828125</ele>
        <time>2010-09-19T14:22:08Z</time>
      </trkpt>
      <trkpt lat="46.3004" lon="5.72621">
        <ele>819.1806640625</ele>
        <time>2010-09-19T14:22:15Z</time>
      </trkpt>
      <trkpt lat="46.30036" lon="5.72601">
        <ele>821.10327148438</ele>
        <time>2010-09-19T14:22:22Z</time>
      </trkpt>
      <trkpt lat="46.30035" lon="5.72572">
        <ele>822.064453125</ele>
        <time>2010-09-19T14:22:30Z</time>
      </trkpt>
      <trkpt lat="46.30041" lon="5.72535">
        <ele>822.54516601562</ele>
        <time>2010-09-19T14:22:37Z</time>
      </trkpt>
      <trkpt lat="46.30045" lon="5.72518">
        <ele>822.54516601562</ele>
        <time>2010-09-19T14:22:40Z</time>
      </trkpt>
      <trkpt lat="46.30051" lon="5.72491">
        <ele>822.54516601562</ele>
        <time>2010-09-19T14:22:45Z</time>
      </trkpt>
      <trkpt lat="46.30059" lon="5.72465">
        <ele>820.62255859375</ele>
        <time>2010-09-19T14:22:50Z</time>
      </trkpt>
      <trkpt lat="46.30064" lon="5.72434">
        <ele>819.66137695312</ele>
        <time>2010-09-19T14:22:55Z</time>
      </trkpt>
      <trkpt lat="46.30074" lon="5.72382">
        <ele>818.69995117188</ele>
        <time>2010-09-19T14:23:03Z</time>
      </trkpt>
      <trkpt lat="46.30077" lon="5.72367">
        <ele>818.69995117188</ele>
        <time>2010-09-19T14:23:05Z</time>
      </trkpt>
      <trkpt lat="46.30079" lon="5.72335">
        <ele>817.25805664062</ele>
        <time>2010-09-19T14:23:09Z</time>
      </trkpt>
      <trkpt lat="46.30088" lon="5.72312">
        <ele>816.29663085938</ele>
        <time>2010-09-19T14:23:13Z</time>
      </trkpt>
      <trkpt lat="46.30104" lon="5.7228">
        <ele>813.89331054688</ele>
        <time>2010-09-19T14:23:17Z</time>
      </trkpt>
      <trkpt lat="46.30102" lon="5.72239">
        <ele>812.45141601562</ele>
        <time>2010-09-19T14:23:21Z</time>
      </trkpt>
      <trkpt lat="46.30091" lon="5.72223">
        <ele>812.45141601562</ele>
        <time>2010-09-19T14:23:23Z</time>
      </trkpt>
      <trkpt lat="46.30062" lon="5.72181">
        <ele>811.970703125</ele>
        <time>2010-09-19T14:23:29Z</time>
      </trkpt>
      <trkpt lat="46.30048" lon="5.72154">
        <ele>811.48999023438</ele>
        <time>2010-09-19T14:23:34Z</time>
      </trkpt>
      <trkpt lat="46.30036" lon="5.72125">
        <ele>812.93212890625</ele>
        <time>2010-09-19T14:23:40Z</time>
      </trkpt>
      <trkpt lat="46.30032" lon="5.72107">
        <ele>812.45141601562</ele>
        <time>2010-09-19T14:23:45Z</time>
      </trkpt>
      <trkpt lat="46.30036" lon="5.72084">
        <ele>812.45141601562</ele>
        <time>2010-09-19T14:23:50Z</time>
      </trkpt>
      <trkpt lat="46.30045" lon="5.72054">
        <ele>812.93212890625</ele>
        <time>2010-09-19T14:23:56Z</time>
      </trkpt>
      <trkpt lat="46.30053" lon="5.72028">
        <ele>814.3740234375</ele>
        <time>2010-09-19T14:24:02Z</time>
      </trkpt>
      <trkpt lat="46.30062" lon="5.72013">
        <ele>815.33544921875</ele>
        <time>2010-09-19T14:24:07Z</time>
      </trkpt>
      <trkpt lat="46.30077" lon="5.71995">
        <ele>817.73852539062</ele>
        <time>2010-09-19T14:24:15Z</time>
      </trkpt>
      <trkpt lat="46.30087" lon="5.71983">
        <ele>818.69995117188</ele>
        <time>2010-09-19T14:24:22Z</time>
      </trkpt>
      <trkpt lat="46.30096" lon="5.71971">
        <ele>819.66137695312</ele>
        <time>2010-09-19T14:24:30Z</time>
      </trkpt>
      <trkpt lat="46.30105" lon="5.71961">
        <ele>821.10327148438</ele>
        <time>2010-09-19T14:24:37Z</time>
      </trkpt>
      <trkpt lat="46.30116" lon="5.71948">
        <ele>823.98706054688</ele>
        <time>2010-09-19T14:24:45Z</time>
      </trkpt>
      <trkpt lat="46.30124" lon="5.71933">
        <ele>825.90966796875</ele>
        <time>2010-09-19T14:24:53Z</time>
      </trkpt>
      <trkpt lat="46.30128" lon="5.71913">
        <ele>827.35180664062</ele>
        <time>2010-09-19T14:25:01Z</time>
      </trkpt>
      <trkpt lat="46.30129" lon="5.71894">
        <ele>829.2744140625</ele>
        <time>2010-09-19T14:25:09Z</time>
      </trkpt>
      <trkpt lat="46.30129" lon="5.71892">
        <ele>829.75512695312</ele>
        <time>2010-09-19T14:25:10Z</time>
      </trkpt>
      <trkpt lat="46.30128" lon="5.71888">
        <ele>830.23583984375</ele>
        <time>2010-09-19T14:25:12Z</time>
      </trkpt>
      <trkpt lat="46.3013" lon="5.71871">
        <ele>831.197265625</ele>
        <time>2010-09-19T14:25:19Z</time>
      </trkpt>
      <trkpt lat="46.3014" lon="5.71848">
        <ele>833.60034179688</ele>
        <time>2010-09-19T14:25:28Z</time>
      </trkpt>
      <trkpt lat="46.30143" lon="5.71831">
        <ele>832.63916015625</ele>
        <time>2010-09-19T14:25:33Z</time>
      </trkpt>
      <trkpt lat="46.30145" lon="5.71814">
        <ele>833.11962890625</ele>
        <time>2010-09-19T14:25:37Z</time>
      </trkpt>
      <trkpt lat="46.30148" lon="5.71792">
        <ele>833.11962890625</ele>
        <time>2010-09-19T14:25:42Z</time>
      </trkpt>
      <trkpt lat="46.30155" lon="5.71775">
        <ele>832.63916015625</ele>
        <time>2010-09-19T14:25:46Z</time>
      </trkpt>
      <trkpt lat="46.30159" lon="5.71765">
        <ele>831.677734375</ele>
        <time>2010-09-19T14:25:48Z</time>
      </trkpt>
      <trkpt lat="46.30167" lon="5.71748">
        <ele>829.75512695312</ele>
        <time>2010-09-19T14:25:51Z</time>
      </trkpt>
      <trkpt lat="46.30186" lon="5.71725">
        <ele>829.2744140625</ele>
        <time>2010-09-19T14:25:55Z</time>
      </trkpt>
      <trkpt lat="46.30199" lon="5.71678">
        <ele>828.31323242188</ele>
        <time>2010-09-19T14:26:01Z</time>
      </trkpt>
      <trkpt lat="46.30202" lon="5.71663">
        <ele>827.35180664062</ele>
        <time>2010-09-19T14:26:03Z</time>
      </trkpt>
      <trkpt lat="46.30205" lon="5.71637">
        <ele>827.83227539062</ele>
        <time>2010-09-19T14:26:07Z</time>
      </trkpt>
      <trkpt lat="46.3021" lon="5.71608">
        <ele>827.83227539062</ele>
        <time>2010-09-19T14:26:13Z</time>
      </trkpt>
      <trkpt lat="46.30212" lon="5.71584">
        <ele>828.31323242188</ele>
        <time>2010-09-19T14:26:18Z</time>
      </trkpt>
      <trkpt lat="46.30209" lon="5.71557">
        <ele>828.7939453125</ele>
        <time>2010-09-19T14:26:24Z</time>
      </trkpt>
      <trkpt lat="46.30204" lon="5.71537">
        <ele>829.2744140625</ele>
        <time>2010-09-19T14:26:29Z</time>
      </trkpt>
      <trkpt lat="46.30198" lon="5.71506">
        <ele>827.35180664062</ele>
        <time>2010-09-19T14:26:35Z</time>
      </trkpt>
      <trkpt lat="46.30194" lon="5.71482">
        <ele>824.4677734375</ele>
        <time>2010-09-19T14:26:38Z</time>
      </trkpt>
      <trkpt lat="46.30191" lon="5.71457">
        <ele>824.4677734375</ele>
        <time>2010-09-19T14:26:41Z</time>
      </trkpt>
      <trkpt lat="46.30198" lon="5.71435">
        <ele>823.98706054688</ele>
        <time>2010-09-19T14:26:45Z</time>
      </trkpt>
      <trkpt lat="46.30201" lon="5.71425">
        <ele>823.02587890625</ele>
        <time>2010-09-19T14:26:47Z</time>
      </trkpt>
      <trkpt lat="46.30205" lon="5.71402">
        <ele>822.54516601562</ele>
        <time>2010-09-19T14:26:51Z</time>
      </trkpt>
      <trkpt lat="46.30206" lon="5.71386">
        <ele>822.064453125</ele>
        <time>2010-09-19T14:26:55Z</time>
      </trkpt>
      <trkpt lat="46.30207" lon="5.71379">
        <ele>823.02587890625</ele>
        <time>2010-09-19T14:26:58Z</time>
      </trkpt>
      <trkpt lat="46.30208" lon="5.71373">
        <ele>822.54516601562</ele>
        <time>2010-09-19T14:27:01Z</time>
      </trkpt>
      <trkpt lat="46.30208" lon="5.71358">
        <ele>823.50659179688</ele>
        <time>2010-09-19T14:27:08Z</time>
      </trkpt>
      <trkpt lat="46.30213" lon="5.71347">
        <ele>824.4677734375</ele>
        <time>2010-09-19T14:27:13Z</time>
      </trkpt>
      <trkpt lat="46.30221" lon="5.71333">
        <ele>824.94848632812</ele>
        <time>2010-09-19T14:27:18Z</time>
      </trkpt>
      <trkpt lat="46.30231" lon="5.71315">
        <ele>823.98706054688</ele>
        <time>2010-09-19T14:27:23Z</time>
      </trkpt>
      <trkpt lat="46.3023" lon="5.71291">
        <ele>821.58374023438</ele>
        <time>2010-09-19T14:27:28Z</time>
      </trkpt>
      <trkpt lat="46.30227" lon="5.71275">
        <ele>820.14184570312</ele>
        <time>2010-09-19T14:27:30Z</time>
      </trkpt>
      <trkpt lat="46.30224" lon="5.71243">
        <ele>818.69995117188</ele>
        <time>2010-09-19T14:27:34Z</time>
      </trkpt>
      <trkpt lat="46.30223" lon="5.71229">
        <ele>815.81616210938</ele>
        <time>2010-09-19T14:27:37Z</time>
      </trkpt>
      <trkpt lat="46.30222" lon="5.71223">
        <ele>814.85473632812</ele>
        <time>2010-09-19T14:27:38Z</time>
      </trkpt>
      <trkpt lat="46.30222" lon="5.71209">
        <ele>811.970703125</ele>
        <time>2010-09-19T14:27:40Z</time>
      </trkpt>
      <trkpt lat="46.30221" lon="5.7118">
        <ele>810.0478515625</ele>
        <time>2010-09-19T14:27:44Z</time>
      </trkpt>
      <trkpt lat="46.3022" lon="5.7115">
        <ele>807.1640625</ele>
        <time>2010-09-19T14:27:48Z</time>
      </trkpt>
      <trkpt lat="46.3022" lon="5.71132">
        <ele>805.24145507812</ele>
        <time>2010-09-19T14:27:51Z</time>
      </trkpt>
      <trkpt lat="46.30223" lon="5.71118">
        <ele>803.31884765625</ele>
        <time>2010-09-19T14:27:54Z</time>
      </trkpt>
      <trkpt lat="46.30224" lon="5.71113">
        <ele>802.83813476562</ele>
        <time>2010-09-19T14:27:55Z</time>
      </trkpt>
      <trkpt lat="46.30228" lon="5.71103">
        <ele>801.876953125</ele>
        <time>2010-09-19T14:27:57Z</time>
      </trkpt>
      <trkpt lat="46.30233" lon="5.71085">
        <ele>798.03173828125</ele>
        <time>2010-09-19T14:28:01Z</time>
      </trkpt>
      <trkpt lat="46.30236" lon="5.71066">
        <ele>794.18627929688</ele>
        <time>2010-09-19T14:28:05Z</time>
      </trkpt>
      <trkpt lat="46.30237" lon="5.71061">
        <ele>793.70556640625</ele>
        <time>2010-09-19T14:28:06Z</time>
      </trkpt>
      <trkpt lat="46.30239" lon="5.71036">
        <ele>788.41845703125</ele>
        <time>2010-09-19T14:28:10Z</time>
      </trkpt>
      <trkpt lat="46.30241" lon="5.71028">
        <ele>787.45703125</ele>
        <time>2010-09-19T14:28:11Z</time>
      </trkpt>
      <trkpt lat="46.30246" lon="5.71007">
        <ele>783.13110351562</ele>
        <time>2010-09-19T14:28:14Z</time>
      </trkpt>
      <trkpt lat="46.3025" lon="5.70977">
        <ele>778.80517578125</ele>
        <time>2010-09-19T14:28:18Z</time>
      </trkpt>
      <trkpt lat="46.30255" lon="5.70948">
        <ele>775.92114257812</ele>
        <time>2010-09-19T14:28:21Z</time>
      </trkpt>
      <trkpt lat="46.30257" lon="5.70929">
        <ele>773.99853515625</ele>
        <time>2010-09-19T14:28:23Z</time>
      </trkpt>
      <trkpt lat="46.30256" lon="5.70901">
        <ele>769.19213867188</ele>
        <time>2010-09-19T14:28:26Z</time>
      </trkpt>
      <trkpt lat="46.30255" lon="5.70891">
        <ele>767.75</ele>
        <time>2010-09-19T14:28:27Z</time>
      </trkpt>
      <trkpt lat="46.30253" lon="5.70851">
        <ele>763.42407226562</ele>
        <time>2010-09-19T14:28:31Z</time>
      </trkpt>
      <trkpt lat="46.30252" lon="5.70841">
        <ele>763.42407226562</ele>
        <time>2010-09-19T14:28:32Z</time>
      </trkpt>
      <trkpt lat="46.30252" lon="5.70831">
        <ele>761.98217773438</ele>
        <time>2010-09-19T14:28:33Z</time>
      </trkpt>
      <trkpt lat="46.30248" lon="5.70788">
        <ele>759.57885742188</ele>
        <time>2010-09-19T14:28:37Z</time>
      </trkpt>
      <trkpt lat="46.30249" lon="5.70746">
        <ele>756.21411132812</ele>
        <time>2010-09-19T14:28:40Z</time>
      </trkpt>
      <trkpt lat="46.30236" lon="5.70684">
        <ele>754.77221679688</ele>
        <time>2010-09-19T14:28:45Z</time>
      </trkpt>
      <trkpt lat="46.30227" lon="5.70653">
        <ele>755.73364257812</ele>
        <time>2010-09-19T14:28:49Z</time>
      </trkpt>
      <trkpt lat="46.30223" lon="5.7062">
        <ele>757.17553710938</ele>
        <time>2010-09-19T14:28:54Z</time>
      </trkpt>
      <trkpt lat="46.30216" lon="5.70602">
        <ele>757.65625</ele>
        <time>2010-09-19T14:28:58Z</time>
      </trkpt>
      <trkpt lat="46.30199" lon="5.7059">
        <ele>758.13696289062</ele>
        <time>2010-09-19T14:29:03Z</time>
      </trkpt>
      <trkpt lat="46.30186" lon="5.70587">
        <ele>756.69482421875</ele>
        <time>2010-09-19T14:29:06Z</time>
      </trkpt>
      <trkpt lat="46.30181" lon="5.70587">
        <ele>756.69482421875</ele>
        <time>2010-09-19T14:29:07Z</time>
      </trkpt>
      <trkpt lat="46.30152" lon="5.70571">
        <ele>755.73364257812</ele>
        <time>2010-09-19T14:29:12Z</time>
      </trkpt>
      <trkpt lat="46.30143" lon="5.70559">
        <ele>754.77221679688</ele>
        <time>2010-09-19T14:29:14Z</time>
      </trkpt>
      <trkpt lat="46.30132" lon="5.70525">
        <ele>753.33032226562</ele>
        <time>2010-09-19T14:29:18Z</time>
      </trkpt>
      <trkpt lat="46.30117" lon="5.70494">
        <ele>752.36889648438</ele>
        <time>2010-09-19T14:29:22Z</time>
      </trkpt>
      <trkpt lat="46.30095" lon="5.70477">
        <ele>751.88842773438</ele>
        <time>2010-09-19T14:29:26Z</time>
      </trkpt>
      <trkpt lat="46.30069" lon="5.70466">
        <ele>751.40771484375</ele>
        <time>2010-09-19T14:29:30Z</time>
      </trkpt>
      <trkpt lat="46.30049" lon="5.70451">
        <ele>752.36889648438</ele>
        <time>2010-09-19T14:29:35Z</time>
      </trkpt>
      <trkpt lat="46.30042" lon="5.70434">
        <ele>754.29174804688</ele>
        <time>2010-09-19T14:29:39Z</time>
      </trkpt>
      <trkpt lat="46.30038" lon="5.70398">
        <ele>755.2529296875</ele>
        <time>2010-09-19T14:29:45Z</time>
      </trkpt>
      <trkpt lat="46.30038" lon="5.70375">
        <ele>754.77221679688</ele>
        <time>2010-09-19T14:29:48Z</time>
      </trkpt>
      <trkpt lat="46.30038" lon="5.70342">
        <ele>753.81103515625</ele>
        <time>2010-09-19T14:29:52Z</time>
      </trkpt>
      <trkpt lat="46.30047" lon="5.70278">
        <ele>752.36889648438</ele>
        <time>2010-09-19T14:29:59Z</time>
      </trkpt>
      <trkpt lat="46.3005" lon="5.7025">
        <ele>751.40771484375</ele>
        <time>2010-09-19T14:30:02Z</time>
      </trkpt>
      <trkpt lat="46.30043" lon="5.70202">
        <ele>748.52368164062</ele>
        <time>2010-09-19T14:30:07Z</time>
      </trkpt>
      <trkpt lat="46.3003" lon="5.70179">
        <ele>747.08154296875</ele>
        <time>2010-09-19T14:30:10Z</time>
      </trkpt>
      <trkpt lat="46.30018" lon="5.70164">
        <ele>746.60107421875</ele>
        <time>2010-09-19T14:30:12Z</time>
      </trkpt>
      <trkpt lat="46.30011" lon="5.70147">
        <ele>746.12036132812</ele>
        <time>2010-09-19T14:30:14Z</time>
      </trkpt>
      <trkpt lat="46.29991" lon="5.70123">
        <ele>746.60107421875</ele>
        <time>2010-09-19T14:30:18Z</time>
      </trkpt>
      <trkpt lat="46.29966" lon="5.70115">
        <ele>746.60107421875</ele>
        <time>2010-09-19T14:30:22Z</time>
      </trkpt>
      <trkpt lat="46.29922" lon="5.70114">
        <ele>744.19775390625</ele>
        <time>2010-09-19T14:30:28Z</time>
      </trkpt>
      <trkpt lat="46.29913" lon="5.70112">
        <ele>744.19775390625</ele>
        <time>2010-09-19T14:30:29Z</time>
      </trkpt>
      <trkpt lat="46.2988" lon="5.70101">
        <ele>743.236328125</ele>
        <time>2010-09-19T14:30:33Z</time>
      </trkpt>
      <trkpt lat="46.29873" lon="5.70097">
        <ele>743.236328125</ele>
        <time>2010-09-19T14:30:34Z</time>
      </trkpt>
      <trkpt lat="46.29839" lon="5.7009">
        <ele>742.755859375</ele>
        <time>2010-09-19T14:30:39Z</time>
      </trkpt>
      <trkpt lat="46.29807" lon="5.70079">
        <ele>742.27514648438</ele>
        <time>2010-09-19T14:30:43Z</time>
      </trkpt>
      <trkpt lat="46.29801" lon="5.70075">
        <ele>741.79443359375</ele>
        <time>2010-09-19T14:30:44Z</time>
      </trkpt>
      <trkpt lat="46.29773" lon="5.7008">
        <ele>740.3525390625</ele>
        <time>2010-09-19T14:30:48Z</time>
      </trkpt>
      <trkpt lat="46.29759" lon="5.7009">
        <ele>738.42993164062</ele>
        <time>2010-09-19T14:30:50Z</time>
      </trkpt>
      <trkpt lat="46.29746" lon="5.70102">
        <ele>737.46850585938</ele>
        <time>2010-09-19T14:30:52Z</time>
      </trkpt>
      <trkpt lat="46.29723" lon="5.70115">
        <ele>736.02661132812</ele>
        <time>2010-09-19T14:30:55Z</time>
      </trkpt>
      <trkpt lat="46.29705" lon="5.70121">
        <ele>735.0654296875</ele>
        <time>2010-09-19T14:30:57Z</time>
      </trkpt>
      <trkpt lat="46.29675" lon="5.70143">
        <ele>733.62329101562</ele>
        <time>2010-09-19T14:31:01Z</time>
      </trkpt>
      <trkpt lat="46.29643" lon="5.70189">
        <ele>731.70043945312</ele>
        <time>2010-09-19T14:31:07Z</time>
      </trkpt>
      <trkpt lat="46.29614" lon="5.70237">
        <ele>729.29711914062</ele>
        <time>2010-09-19T14:31:12Z</time>
      </trkpt>
      <trkpt lat="46.29591" lon="5.70279">
        <ele>726.41333007812</ele>
        <time>2010-09-19T14:31:16Z</time>
      </trkpt>
      <trkpt lat="46.29579" lon="5.703">
        <ele>724.97143554688</ele>
        <time>2010-09-19T14:31:18Z</time>
      </trkpt>
      <trkpt lat="46.29556" lon="5.70337">
        <ele>724.49072265625</ele>
        <time>2010-09-19T14:31:22Z</time>
      </trkpt>
      <trkpt lat="46.29525" lon="5.70388">
        <ele>723.048828125</ele>
        <time>2010-09-19T14:31:28Z</time>
      </trkpt>
      <trkpt lat="46.29497" lon="5.70433">
        <ele>722.56811523438</ele>
        <time>2010-09-19T14:31:33Z</time>
      </trkpt>
      <trkpt lat="46.29466" lon="5.70494">
        <ele>720.6455078125</ele>
        <time>2010-09-19T14:31:39Z</time>
      </trkpt>
      <trkpt lat="46.29446" lon="5.70529">
        <ele>720.16479492188</ele>
        <time>2010-09-19T14:31:43Z</time>
      </trkpt>
      <trkpt lat="46.29415" lon="5.70575">
        <ele>720.6455078125</ele>
        <time>2010-09-19T14:31:49Z</time>
      </trkpt>
      <trkpt lat="46.29399" lon="5.70604">
        <ele>719.68432617188</ele>
        <time>2010-09-19T14:31:53Z</time>
      </trkpt>
      <trkpt lat="46.29369" lon="5.70657">
        <ele>716.31958007812</ele>
        <time>2010-09-19T14:32:00Z</time>
      </trkpt>
      <trkpt lat="46.29358" lon="5.70672">
        <ele>714.39672851562</ele>
        <time>2010-09-19T14:32:02Z</time>
      </trkpt>
      <trkpt lat="46.29338" lon="5.7069">
        <ele>712.47412109375</ele>
        <time>2010-09-19T14:32:05Z</time>
      </trkpt>
      <trkpt lat="46.29325" lon="5.70703">
        <ele>711.0322265625</ele>
        <time>2010-09-19T14:32:07Z</time>
      </trkpt>
      <trkpt lat="46.29295" lon="5.70732">
        <ele>707.18701171875</ele>
        <time>2010-09-19T14:32:12Z</time>
      </trkpt>
      <trkpt lat="46.29282" lon="5.70726">
        <ele>706.2255859375</ele>
        <time>2010-09-19T14:32:14Z</time>
      </trkpt>
      <trkpt lat="46.29265" lon="5.70724">
        <ele>707.18701171875</ele>
        <time>2010-09-19T14:32:17Z</time>
      </trkpt>
      <trkpt lat="46.29258" lon="5.70738">
        <ele>707.66772460938</ele>
        <time>2010-09-19T14:32:19Z</time>
      </trkpt>
      <trkpt lat="46.29251" lon="5.70748">
        <ele>708.1484375</ele>
        <time>2010-09-19T14:32:21Z</time>
      </trkpt>
      <trkpt lat="46.2923" lon="5.70769">
        <ele>711.0322265625</ele>
        <time>2010-09-19T14:32:27Z</time>
      </trkpt>
      <trkpt lat="46.29216" lon="5.70785">
        <ele>712.47412109375</ele>
        <time>2010-09-19T14:32:33Z</time>
      </trkpt>
      <trkpt lat="46.292" lon="5.70808">
        <ele>714.39672851562</ele>
        <time>2010-09-19T14:32:42Z</time>
      </trkpt>
      <trkpt lat="46.29182" lon="5.70834">
        <ele>715.8388671875</ele>
        <time>2010-09-19T14:32:51Z</time>
      </trkpt>
      <trkpt lat="46.29167" lon="5.70849">
        <ele>716.80029296875</ele>
        <time>2010-09-19T14:32:58Z</time>
      </trkpt>
      <trkpt lat="46.29153" lon="5.70863">
        <ele>715.8388671875</ele>
        <time>2010-09-19T14:33:03Z</time>
      </trkpt>
      <trkpt lat="46.29116" lon="5.70887">
        <ele>715.8388671875</ele>
        <time>2010-09-19T14:33:10Z</time>
      </trkpt>
      <trkpt lat="46.29077" lon="5.70909">
        <ele>713.435546875</ele>
        <time>2010-09-19T14:33:16Z</time>
      </trkpt>
      <trkpt lat="46.2905" lon="5.70938">
        <ele>711.99365234375</ele>
        <time>2010-09-19T14:33:21Z</time>
      </trkpt>
      <trkpt lat="46.29038" lon="5.70954">
        <ele>711.99365234375</ele>
        <time>2010-09-19T14:33:23Z</time>
      </trkpt>
      <trkpt lat="46.29023" lon="5.70997">
        <ele>711.0322265625</ele>
        <time>2010-09-19T14:33:27Z</time>
      </trkpt>
      <trkpt lat="46.29003" lon="5.71075">
        <ele>708.62890625</ele>
        <time>2010-09-19T14:33:33Z</time>
      </trkpt>
      <trkpt lat="46.28997" lon="5.71101">
        <ele>707.66772460938</ele>
        <time>2010-09-19T14:33:35Z</time>
      </trkpt>
      <trkpt lat="46.28994" lon="5.71179">
        <ele>706.2255859375</ele>
        <time>2010-09-19T14:33:40Z</time>
      </trkpt>
      <trkpt lat="46.28992" lon="5.7124">
        <ele>704.30322265625</ele>
        <time>2010-09-19T14:33:45Z</time>
      </trkpt>
      <trkpt lat="46.28991" lon="5.71252">
        <ele>703.82250976562</ele>
        <time>2010-09-19T14:33:46Z</time>
      </trkpt>
      <trkpt lat="46.2897" lon="5.71262">
        <ele>704.30322265625</ele>
        <time>2010-09-19T14:33:50Z</time>
      </trkpt>
      <trkpt lat="46.28962" lon="5.71248">
        <ele>704.30322265625</ele>
        <time>2010-09-19T14:33:52Z</time>
      </trkpt>
      <trkpt lat="46.28944" lon="5.71217">
        <ele>705.7451171875</ele>
        <time>2010-09-19T14:33:57Z</time>
      </trkpt>
      <trkpt lat="46.28922" lon="5.71191">
        <ele>706.70629882812</ele>
        <time>2010-09-19T14:34:03Z</time>
      </trkpt>
      <trkpt lat="46.28908" lon="5.71172">
        <ele>707.66772460938</ele>
        <time>2010-09-19T14:34:08Z</time>
      </trkpt>
      <trkpt lat="46.2889" lon="5.7114">
        <ele>709.10961914062</ele>
        <time>2010-09-19T14:34:15Z</time>
      </trkpt>
      <trkpt lat="46.28884" lon="5.71122">
        <ele>709.10961914062</ele>
        <time>2010-09-19T14:34:20Z</time>
      </trkpt>
      <trkpt lat="46.2887" lon="5.71092">
        <ele>710.07080078125</ele>
        <time>2010-09-19T14:34:26Z</time>
      </trkpt>
      <trkpt lat="46.28859" lon="5.71062">
        <ele>710.07080078125</ele>
        <time>2010-09-19T14:34:31Z</time>
      </trkpt>
      <trkpt lat="46.28854" lon="5.71038">
        <ele>711.0322265625</ele>
        <time>2010-09-19T14:34:36Z</time>
      </trkpt>
      <trkpt lat="46.28847" lon="5.71009">
        <ele>711.99365234375</ele>
        <time>2010-09-19T14:34:42Z</time>
      </trkpt>
      <trkpt lat="46.28843" lon="5.70981">
        <ele>712.47412109375</ele>
        <time>2010-09-19T14:34:47Z</time>
      </trkpt>
      <trkpt lat="46.28842" lon="5.70956">
        <ele>713.435546875</ele>
        <time>2010-09-19T14:34:52Z</time>
      </trkpt>
      <trkpt lat="46.28835" lon="5.70928">
        <ele>715.35815429688</ele>
        <time>2010-09-19T14:34:58Z</time>
      </trkpt>
      <trkpt lat="46.28829" lon="5.70908">
        <ele>716.31958007812</ele>
        <time>2010-09-19T14:35:03Z</time>
      </trkpt>
      <trkpt lat="46.28827" lon="5.70901">
        <ele>716.80029296875</ele>
        <time>2010-09-19T14:35:05Z</time>
      </trkpt>
      <trkpt lat="46.28813" lon="5.70885">
        <ele>717.76147460938</ele>
        <time>2010-09-19T14:35:11Z</time>
      </trkpt>
      <trkpt lat="46.28797" lon="5.70873">
        <ele>717.76147460938</ele>
        <time>2010-09-19T14:35:17Z</time>
      </trkpt>
      <trkpt lat="46.28782" lon="5.70863">
        <ele>718.72290039062</ele>
        <time>2010-09-19T14:35:23Z</time>
      </trkpt>
      <trkpt lat="46.28763" lon="5.70849">
        <ele>719.68432617188</ele>
        <time>2010-09-19T14:35:30Z</time>
      </trkpt>
      <trkpt lat="46.28748" lon="5.70839">
        <ele>720.16479492188</ele>
        <time>2010-09-19T14:35:36Z</time>
      </trkpt>
      <trkpt lat="46.28726" lon="5.70825">
        <ele>721.12622070312</ele>
        <time>2010-09-19T14:35:44Z</time>
      </trkpt>
      <trkpt lat="46.28708" lon="5.7081">
        <ele>723.048828125</ele>
        <time>2010-09-19T14:35:52Z</time>
      </trkpt>
      <trkpt lat="46.28692" lon="5.70796">
        <ele>725.45190429688</ele>
        <time>2010-09-19T14:36:00Z</time>
      </trkpt>
      <trkpt lat="46.28679" lon="5.70784">
        <ele>727.37475585938</ele>
        <time>2010-09-19T14:36:07Z</time>
      </trkpt>
      <trkpt lat="46.28661" lon="5.70767">
        <ele>728.81665039062</ele>
        <time>2010-09-19T14:36:16Z</time>
      </trkpt>
      <trkpt lat="46.28646" lon="5.70753">
        <ele>729.29711914062</ele>
        <time>2010-09-19T14:36:22Z</time>
      </trkpt>
      <trkpt lat="46.28628" lon="5.70736">
        <ele>729.77783203125</ele>
        <time>2010-09-19T14:36:29Z</time>
      </trkpt>
      <trkpt lat="46.28613" lon="5.70723">
        <ele>730.25854492188</ele>
        <time>2010-09-19T14:36:34Z</time>
      </trkpt>
      <trkpt lat="46.28593" lon="5.70711">
        <ele>730.25854492188</ele>
        <time>2010-09-19T14:36:40Z</time>
      </trkpt>
      <trkpt lat="46.2856" lon="5.70695">
        <ele>730.25854492188</ele>
        <time>2010-09-19T14:36:48Z</time>
      </trkpt>
      <trkpt lat="46.28532" lon="5.7068">
        <ele>729.77783203125</ele>
        <time>2010-09-19T14:36:54Z</time>
      </trkpt>
      <trkpt lat="46.28494" lon="5.70659">
        <ele>728.81665039062</ele>
        <time>2010-09-19T14:37:01Z</time>
      </trkpt>
      <trkpt lat="46.28461" lon="5.70637">
        <ele>729.29711914062</ele>
        <time>2010-09-19T14:37:07Z</time>
      </trkpt>
      <trkpt lat="46.28437" lon="5.70625">
        <ele>728.81665039062</ele>
        <time>2010-09-19T14:37:11Z</time>
      </trkpt>
      <trkpt lat="46.28426" lon="5.70604">
        <ele>728.3359375</ele>
        <time>2010-09-19T14:37:15Z</time>
      </trkpt>
      <trkpt lat="46.28434" lon="5.7059">
        <ele>728.3359375</ele>
        <time>2010-09-19T14:37:18Z</time>
      </trkpt>
      <trkpt lat="46.28438" lon="5.70573">
        <ele>728.81665039062</ele>
        <time>2010-09-19T14:37:22Z</time>
      </trkpt>
      <trkpt lat="46.28443" lon="5.70558">
        <ele>730.7392578125</ele>
        <time>2010-09-19T14:37:29Z</time>
      </trkpt>
      <trkpt lat="46.28441" lon="5.70549">
        <ele>731.70043945312</ele>
        <time>2010-09-19T14:37:34Z</time>
      </trkpt>
      <trkpt lat="46.28438" lon="5.70541">
        <ele>733.142578125</ele>
        <time>2010-09-19T14:37:39Z</time>
      </trkpt>
      <trkpt lat="46.28436" lon="5.70528">
        <ele>733.142578125</ele>
        <time>2010-09-19T14:37:46Z</time>
      </trkpt>
      <trkpt lat="46.28433" lon="5.70516">
        <ele>734.10400390625</ele>
        <time>2010-09-19T14:37:52Z</time>
      </trkpt>
      <trkpt lat="46.28431" lon="5.70508">
        <ele>735.5458984375</ele>
        <time>2010-09-19T14:37:57Z</time>
      </trkpt>
      <trkpt lat="46.28428" lon="5.70494">
        <ele>736.98779296875</ele>
        <time>2010-09-19T14:38:03Z</time>
      </trkpt>
      <trkpt lat="46.28425" lon="5.70479">
        <ele>738.42993164062</ele>
        <time>2010-09-19T14:38:09Z</time>
      </trkpt>
      <trkpt lat="46.28423" lon="5.70468">
        <ele>739.87182617188</ele>
        <time>2010-09-19T14:38:15Z</time>
      </trkpt>
      <trkpt lat="46.28422" lon="5.70464">
        <ele>739.87182617188</ele>
        <time>2010-09-19T14:38:17Z</time>
      </trkpt>
      <trkpt lat="46.28419" lon="5.70453">
        <ele>741.31372070312</ele>
        <time>2010-09-19T14:38:24Z</time>
      </trkpt>
      <trkpt lat="46.28418" lon="5.70447">
        <ele>742.27514648438</ele>
        <time>2010-09-19T14:38:28Z</time>
      </trkpt>
      <trkpt lat="46.28417" lon="5.70439">
        <ele>743.71704101562</ele>
        <time>2010-09-19T14:38:33Z</time>
      </trkpt>
      <trkpt lat="46.28416" lon="5.70429">
        <ele>744.67822265625</ele>
        <time>2010-09-19T14:38:38Z</time>
      </trkpt>
      <trkpt lat="46.28415" lon="5.70417">
        <ele>745.6396484375</ele>
        <time>2010-09-19T14:38:44Z</time>
      </trkpt>
      <trkpt lat="46.28414" lon="5.7041">
        <ele>746.60107421875</ele>
        <time>2010-09-19T14:38:48Z</time>
      </trkpt>
      <trkpt lat="46.28412" lon="5.70398">
        <ele>748.04321289062</ele>
        <time>2010-09-19T14:38:56Z</time>
      </trkpt>
      <trkpt lat="46.28411" lon="5.70389">
        <ele>749.48510742188</ele>
        <time>2010-09-19T14:39:02Z</time>
      </trkpt>
      <trkpt lat="46.28412" lon="5.70381">
        <ele>751.40771484375</ele>
        <time>2010-09-19T14:39:06Z</time>
      </trkpt>
      <trkpt lat="46.28413" lon="5.70368">
        <ele>753.33032226562</ele>
        <time>2010-09-19T14:39:13Z</time>
      </trkpt>
      <trkpt lat="46.28413" lon="5.70355">
        <ele>755.2529296875</ele>
        <time>2010-09-19T14:39:19Z</time>
      </trkpt>
      <trkpt lat="46.28413" lon="5.70343">
        <ele>756.21411132812</ele>
        <time>2010-09-19T14:39:24Z</time>
      </trkpt>
      <trkpt lat="46.28415" lon="5.70331">
        <ele>756.69482421875</ele>
        <time>2010-09-19T14:39:29Z</time>
      </trkpt>
      <trkpt lat="46.28412" lon="5.70311">
        <ele>758.13696289062</ele>
        <time>2010-09-19T14:39:35Z</time>
      </trkpt>
      <trkpt lat="46.28415" lon="5.70295">
        <ele>759.57885742188</ele>
        <time>2010-09-19T14:39:40Z</time>
      </trkpt>
      <trkpt lat="46.28419" lon="5.70286">
        <ele>759.57885742188</ele>
        <time>2010-09-19T14:39:44Z</time>
      </trkpt>
      <trkpt lat="46.28423" lon="5.70271">
        <ele>760.5400390625</ele>
        <time>2010-09-19T14:39:50Z</time>
      </trkpt>
      <trkpt lat="46.28424" lon="5.70262">
        <ele>760.05932617188</ele>
        <time>2010-09-19T14:39:53Z</time>
      </trkpt>
      <trkpt lat="46.28437" lon="5.70237">
        <ele>757.65625</ele>
        <time>2010-09-19T14:39:59Z</time>
      </trkpt>
      <trkpt lat="46.28451" lon="5.70221">
        <ele>754.77221679688</ele>
        <time>2010-09-19T14:40:02Z</time>
      </trkpt>
      <trkpt lat="46.28466" lon="5.70203">
        <ele>751.88842773438</ele>
        <time>2010-09-19T14:40:05Z</time>
      </trkpt>
      <trkpt lat="46.28485" lon="5.70175">
        <ele>751.40771484375</ele>
        <time>2010-09-19T14:40:09Z</time>
      </trkpt>
      <trkpt lat="46.28504" lon="5.70149">
        <ele>752.36889648438</ele>
        <time>2010-09-19T14:40:14Z</time>
      </trkpt>
      <trkpt lat="46.28524" lon="5.70135">
        <ele>753.81103515625</ele>
        <time>2010-09-19T14:40:20Z</time>
      </trkpt>
      <trkpt lat="46.28544" lon="5.70116">
        <ele>751.88842773438</ele>
        <time>2010-09-19T14:40:26Z</time>
      </trkpt>
      <trkpt lat="46.28562" lon="5.70083">
        <ele>748.52368164062</ele>
        <time>2010-09-19T14:40:30Z</time>
      </trkpt>
      <trkpt lat="46.28566" lon="5.70072">
        <ele>748.52368164062</ele>
        <time>2010-09-19T14:40:31Z</time>
      </trkpt>
      <trkpt lat="46.28578" lon="5.7003">
        <ele>748.52368164062</ele>
        <time>2010-09-19T14:40:36Z</time>
      </trkpt>
      <trkpt lat="46.28585" lon="5.70009">
        <ele>749.00439453125</ele>
        <time>2010-09-19T14:40:40Z</time>
      </trkpt>
      <trkpt lat="46.28592" lon="5.69991">
        <ele>750.44653320312</ele>
        <time>2010-09-19T14:40:45Z</time>
      </trkpt>
      <trkpt lat="46.28607" lon="5.69963">
        <ele>750.44653320312</ele>
        <time>2010-09-19T14:40:53Z</time>
      </trkpt>
      <trkpt lat="46.28611" lon="5.69953">
        <ele>749.48510742188</ele>
        <time>2010-09-19T14:40:55Z</time>
      </trkpt>
      <trkpt lat="46.28613" lon="5.69946">
        <ele>749.48510742188</ele>
        <time>2010-09-19T14:40:56Z</time>
      </trkpt>
      <trkpt lat="46.28625" lon="5.69918">
        <ele>746.60107421875</ele>
        <time>2010-09-19T14:41:00Z</time>
      </trkpt>
      <trkpt lat="46.28643" lon="5.69883">
        <ele>745.6396484375</ele>
        <time>2010-09-19T14:41:05Z</time>
      </trkpt>
      <trkpt lat="46.28643" lon="5.69876">
        <ele>745.15893554688</ele>
        <time>2010-09-19T14:41:06Z</time>
      </trkpt>
      <trkpt lat="46.28648" lon="5.69841">
        <ele>746.12036132812</ele>
        <time>2010-09-19T14:41:13Z</time>
      </trkpt>
      <trkpt lat="46.28659" lon="5.69818">
        <ele>746.60107421875</ele>
        <time>2010-09-19T14:41:19Z</time>
      </trkpt>
      <trkpt lat="46.28667" lon="5.69799">
        <ele>748.04321289062</ele>
        <time>2010-09-19T14:41:25Z</time>
      </trkpt>
      <trkpt lat="46.28675" lon="5.69791">
        <ele>748.52368164062</ele>
        <time>2010-09-19T14:41:28Z</time>
      </trkpt>
      <trkpt lat="46.28698" lon="5.69764">
        <ele>744.67822265625</ele>
        <time>2010-09-19T14:41:33Z</time>
      </trkpt>
      <trkpt lat="46.28719" lon="5.6973">
        <ele>740.3525390625</ele>
        <time>2010-09-19T14:41:37Z</time>
      </trkpt>
      <trkpt lat="46.28722" lon="5.69708">
        <ele>739.39111328125</ele>
        <time>2010-09-19T14:41:41Z</time>
      </trkpt>
      <trkpt lat="46.28719" lon="5.69703">
        <ele>739.39111328125</ele>
        <time>2010-09-19T14:41:42Z</time>
      </trkpt>
      <trkpt lat="46.28713" lon="5.69688">
        <ele>736.98779296875</ele>
        <time>2010-09-19T14:41:44Z</time>
      </trkpt>
      <trkpt lat="46.28709" lon="5.69648">
        <ele>733.62329101562</ele>
        <time>2010-09-19T14:41:48Z</time>
      </trkpt>
      <trkpt lat="46.28707" lon="5.69625">
        <ele>729.77783203125</ele>
        <time>2010-09-19T14:41:52Z</time>
      </trkpt>
      <trkpt lat="46.28703" lon="5.69605">
        <ele>725.9326171875</ele>
        <time>2010-09-19T14:41:56Z</time>
      </trkpt>
      <trkpt lat="46.28694" lon="5.69579">
        <ele>721.60668945312</ele>
        <time>2010-09-19T14:41:59Z</time>
      </trkpt>
      <trkpt lat="46.2869" lon="5.69575">
        <ele>721.12622070312</ele>
        <time>2010-09-19T14:42:00Z</time>
      </trkpt>
      <trkpt lat="46.28688" lon="5.69572">
        <ele>720.6455078125</ele>
        <time>2010-09-19T14:42:01Z</time>
      </trkpt>
      <trkpt lat="46.28679" lon="5.69544">
        <ele>717.28100585938</ele>
        <time>2010-09-19T14:42:06Z</time>
      </trkpt>
      <trkpt lat="46.28676" lon="5.69524">
        <ele>714.39672851562</ele>
        <time>2010-09-19T14:42:10Z</time>
      </trkpt>
      <trkpt lat="46.28665" lon="5.69503">
        <ele>710.07080078125</ele>
        <time>2010-09-19T14:42:15Z</time>
      </trkpt>
      <trkpt lat="46.28661" lon="5.6949">
        <ele>705.7451171875</ele>
        <time>2010-09-19T14:42:18Z</time>
      </trkpt>
      <trkpt lat="46.28657" lon="5.69471">
        <ele>702.38037109375</ele>
        <time>2010-09-19T14:42:21Z</time>
      </trkpt>
      <trkpt lat="46.28646" lon="5.69447">
        <ele>696.61254882812</ele>
        <time>2010-09-19T14:42:25Z</time>
      </trkpt>
      <trkpt lat="46.2864" lon="5.69432">
        <ele>692.28662109375</ele>
        <time>2010-09-19T14:42:28Z</time>
      </trkpt>
      <trkpt lat="46.28634" lon="5.69415">
        <ele>688.92211914062</ele>
        <time>2010-09-19T14:42:31Z</time>
      </trkpt>
      <trkpt lat="46.2863" lon="5.69398">
        <ele>685.55737304688</ele>
        <time>2010-09-19T14:42:34Z</time>
      </trkpt>
      <trkpt lat="46.28624" lon="5.69377">
        <ele>682.67333984375</ele>
        <time>2010-09-19T14:42:38Z</time>
      </trkpt>
      <trkpt lat="46.28624" lon="5.69369">
        <ele>681.2314453125</ele>
        <time>2010-09-19T14:42:40Z</time>
      </trkpt>
      <trkpt lat="46.28627" lon="5.69355">
        <ele>679.30859375</ele>
        <time>2010-09-19T14:42:44Z</time>
      </trkpt>
      <trkpt lat="46.28628" lon="5.69349">
        <ele>677.86669921875</ele>
        <time>2010-09-19T14:42:46Z</time>
      </trkpt>
      <trkpt lat="46.2863" lon="5.69334">
        <ele>674.50219726562</ele>
        <time>2010-09-19T14:42:51Z</time>
      </trkpt>
      <trkpt lat="46.28636" lon="5.69314">
        <ele>671.6181640625</ele>
        <time>2010-09-19T14:42:55Z</time>
      </trkpt>
      <trkpt lat="46.2864" lon="5.69302">
        <ele>670.17626953125</ele>
        <time>2010-09-19T14:42:57Z</time>
      </trkpt>
      <trkpt lat="46.28645" lon="5.6929">
        <ele>667.77270507812</ele>
        <time>2010-09-19T14:42:59Z</time>
      </trkpt>
      <trkpt lat="46.28651" lon="5.69261">
        <ele>662.96630859375</ele>
        <time>2010-09-19T14:43:03Z</time>
      </trkpt>
      <trkpt lat="46.28652" lon="5.69248">
        <ele>661.5244140625</ele>
        <time>2010-09-19T14:43:05Z</time>
      </trkpt>
      <trkpt lat="46.28657" lon="5.69208">
        <ele>658.15991210938</ele>
        <time>2010-09-19T14:43:12Z</time>
      </trkpt>
      <trkpt lat="46.2866" lon="5.69194">
        <ele>655.27587890625</ele>
        <time>2010-09-19T14:43:15Z</time>
      </trkpt>
      <trkpt lat="46.28658" lon="5.69174">
        <ele>651.9111328125</ele>
        <time>2010-09-19T14:43:20Z</time>
      </trkpt>
      <trkpt lat="46.28654" lon="5.69156">
        <ele>648.54638671875</ele>
        <time>2010-09-19T14:43:24Z</time>
      </trkpt>
      <trkpt lat="46.28651" lon="5.69143">
        <ele>645.66259765625</ele>
        <time>2010-09-19T14:43:27Z</time>
      </trkpt>
      <trkpt lat="46.28648" lon="5.69129">
        <ele>643.25927734375</ele>
        <time>2010-09-19T14:43:31Z</time>
      </trkpt>
      <trkpt lat="46.28646" lon="5.69112">
        <ele>640.85595703125</ele>
        <time>2010-09-19T14:43:34Z</time>
      </trkpt>
      <trkpt lat="46.28646" lon="5.69086">
        <ele>635.56860351562</ele>
        <time>2010-09-19T14:43:37Z</time>
      </trkpt>
      <trkpt lat="46.2865" lon="5.69052">
        <ele>631.72338867188</ele>
        <time>2010-09-19T14:43:41Z</time>
      </trkpt>
      <trkpt lat="46.28653" lon="5.6902">
        <ele>626.43627929688</ele>
        <time>2010-09-19T14:43:45Z</time>
      </trkpt>
      <trkpt lat="46.2865" lon="5.68997">
        <ele>622.59106445312</ele>
        <time>2010-09-19T14:43:48Z</time>
      </trkpt>
      <trkpt lat="46.28649" lon="5.6899">
        <ele>621.14916992188</ele>
        <time>2010-09-19T14:43:49Z</time>
      </trkpt>
      <trkpt lat="46.2864" lon="5.68963">
        <ele>616.34228515625</ele>
        <time>2010-09-19T14:43:53Z</time>
      </trkpt>
      <trkpt lat="46.28636" lon="5.68944">
        <ele>612.0166015625</ele>
        <time>2010-09-19T14:43:56Z</time>
      </trkpt>
      <trkpt lat="46.28633" lon="5.68941">
        <ele>610.57446289062</ele>
        <time>2010-09-19T14:44:00Z</time>
      </trkpt>
      <trkpt lat="46.28643" lon="5.68932">
        <ele>610.57446289062</ele>
        <time>2010-09-19T14:44:05Z</time>
      </trkpt>
      <trkpt lat="46.28658" lon="5.68914">
        <ele>610.09375</ele>
        <time>2010-09-19T14:44:10Z</time>
      </trkpt>
      <trkpt lat="46.28671" lon="5.68895">
        <ele>610.57446289062</ele>
        <time>2010-09-19T14:44:14Z</time>
      </trkpt>
      <trkpt lat="46.28677" lon="5.68887">
        <ele>610.57446289062</ele>
        <time>2010-09-19T14:44:16Z</time>
      </trkpt>
      <trkpt lat="46.28698" lon="5.68849">
        <ele>610.09375</ele>
        <time>2010-09-19T14:44:23Z</time>
      </trkpt>
      <trkpt lat="46.28705" lon="5.68828">
        <ele>609.61328125</ele>
        <time>2010-09-19T14:44:27Z</time>
      </trkpt>
      <trkpt lat="46.28713" lon="5.68817">
        <ele>610.57446289062</ele>
        <time>2010-09-19T14:44:30Z</time>
      </trkpt>
      <trkpt lat="46.28722" lon="5.68815">
        <ele>610.57446289062</ele>
        <time>2010-09-19T14:44:34Z</time>
      </trkpt>
      <trkpt lat="46.28735" lon="5.68816">
        <ele>612.97778320312</ele>
        <time>2010-09-19T14:44:42Z</time>
      </trkpt>
      <trkpt lat="46.28747" lon="5.68812">
        <ele>613.93896484375</ele>
        <time>2010-09-19T14:44:50Z</time>
      </trkpt>
      <trkpt lat="46.28756" lon="5.688">
        <ele>613.45849609375</ele>
        <time>2010-09-19T14:44:56Z</time>
      </trkpt>
      <trkpt lat="46.28764" lon="5.68788">
        <ele>612.97778320312</ele>
        <time>2010-09-19T14:45:00Z</time>
      </trkpt>
      <trkpt lat="46.2877" lon="5.68784">
        <ele>613.93896484375</ele>
        <time>2010-09-19T14:45:04Z</time>
      </trkpt>
      <trkpt lat="46.2878" lon="5.68781">
        <ele>614.41967773438</ele>
        <time>2010-09-19T14:45:09Z</time>
      </trkpt>
      <trkpt lat="46.2879" lon="5.68771">
        <ele>612.4970703125</ele>
        <time>2010-09-19T14:45:13Z</time>
      </trkpt>
      <trkpt lat="46.28793" lon="5.68768">
        <ele>612.0166015625</ele>
        <time>2010-09-19T14:45:14Z</time>
      </trkpt>
      <trkpt lat="46.28807" lon="5.68765">
        <ele>612.0166015625</ele>
        <time>2010-09-19T14:45:19Z</time>
      </trkpt>
      <trkpt lat="46.28818" lon="5.68772">
        <ele>612.97778320312</ele>
        <time>2010-09-19T14:45:24Z</time>
      </trkpt>
      <trkpt lat="46.28828" lon="5.68777">
        <ele>613.93896484375</ele>
        <time>2010-09-19T14:45:29Z</time>
      </trkpt>
      <trkpt lat="46.28841" lon="5.6877">
        <ele>613.45849609375</ele>
        <time>2010-09-19T14:45:34Z</time>
      </trkpt>
      <trkpt lat="46.28848" lon="5.68772">
        <ele>612.97778320312</ele>
        <time>2010-09-19T14:45:38Z</time>
      </trkpt>
      <trkpt lat="46.28852" lon="5.68773">
        <ele>613.45849609375</ele>
        <time>2010-09-19T14:45:40Z</time>
      </trkpt>
      <trkpt lat="46.28864" lon="5.68766">
        <ele>612.4970703125</ele>
        <time>2010-09-19T14:45:46Z</time>
      </trkpt>
      <trkpt lat="46.28867" lon="5.68765">
        <ele>612.4970703125</ele>
        <time>2010-09-19T14:45:49Z</time>
      </trkpt>
      <trkpt lat="46.28865" lon="5.68765">
        <ele>612.4970703125</ele>
        <time>2010-09-19T14:46:00Z</time>
      </trkpt>
      <trkpt lat="46.28857" lon="5.68771">
        <ele>613.93896484375</ele>
        <time>2010-09-19T14:46:05Z</time>
      </trkpt>
      <trkpt lat="46.28853" lon="5.68772">
        <ele>613.45849609375</ele>
        <time>2010-09-19T14:46:07Z</time>
      </trkpt>
      <trkpt lat="46.28844" lon="5.68769">
        <ele>613.45849609375</ele>
        <time>2010-09-19T14:46:10Z</time>
      </trkpt>
      <trkpt lat="46.2883" lon="5.68777">
        <ele>613.93896484375</ele>
        <time>2010-09-19T14:46:15Z</time>
      </trkpt>
      <trkpt lat="46.28825" lon="5.68777">
        <ele>612.97778320312</ele>
        <time>2010-09-19T14:46:19Z</time>
      </trkpt>
      <trkpt lat="46.28819" lon="5.68772">
        <ele>612.97778320312</ele>
        <time>2010-09-19T14:46:26Z</time>
      </trkpt>
      <trkpt lat="46.28805" lon="5.68766">
        <ele>612.0166015625</ele>
        <time>2010-09-19T14:46:30Z</time>
      </trkpt>
      <trkpt lat="46.28795" lon="5.68769">
        <ele>612.97778320312</ele>
        <time>2010-09-19T14:46:34Z</time>
      </trkpt>
      <trkpt lat="46.28792" lon="5.6877">
        <ele>612.4970703125</ele>
        <time>2010-09-19T14:46:35Z</time>
      </trkpt>
      <trkpt lat="46.28788" lon="5.68776">
        <ele>613.93896484375</ele>
        <time>2010-09-19T14:46:38Z</time>
      </trkpt>
      <trkpt lat="46.2878" lon="5.68782">
        <ele>615.38110351562</ele>
        <time>2010-09-19T14:46:43Z</time>
      </trkpt>
      <trkpt lat="46.28765" lon="5.68788">
        <ele>614.41967773438</ele>
        <time>2010-09-19T14:46:50Z</time>
      </trkpt>
      <trkpt lat="46.28758" lon="5.68797">
        <ele>614.41967773438</ele>
        <time>2010-09-19T14:46:54Z</time>
      </trkpt>
      <trkpt lat="46.28752" lon="5.68807">
        <ele>615.38110351562</ele>
        <time>2010-09-19T14:47:00Z</time>
      </trkpt>
      <trkpt lat="46.28748" lon="5.68813">
        <ele>614.900390625</ele>
        <time>2010-09-19T14:47:03Z</time>
      </trkpt>
      <trkpt lat="46.28744" lon="5.68814">
        <ele>614.900390625</ele>
        <time>2010-09-19T14:47:10Z</time>
      </trkpt>
      <trkpt lat="46.28738" lon="5.68816">
        <ele>614.41967773438</ele>
        <time>2010-09-19T14:47:16Z</time>
      </trkpt>
      <trkpt lat="46.28729" lon="5.68817">
        <ele>613.45849609375</ele>
        <time>2010-09-19T14:47:19Z</time>
      </trkpt>
      <trkpt lat="46.2871" lon="5.6882">
        <ele>612.0166015625</ele>
        <time>2010-09-19T14:47:23Z</time>
      </trkpt>
      <trkpt lat="46.28703" lon="5.68828">
        <ele>611.53588867188</ele>
        <time>2010-09-19T14:47:25Z</time>
      </trkpt>
      <trkpt lat="46.28694" lon="5.68853">
        <ele>611.05517578125</ele>
        <time>2010-09-19T14:47:30Z</time>
      </trkpt>
      <trkpt lat="46.28691" lon="5.68865">
        <ele>611.53588867188</ele>
        <time>2010-09-19T14:47:32Z</time>
      </trkpt>
      <trkpt lat="46.28677" lon="5.68889">
        <ele>611.53588867188</ele>
        <time>2010-09-19T14:47:37Z</time>
      </trkpt>
      <trkpt lat="46.28667" lon="5.68904">
        <ele>610.57446289062</ele>
        <time>2010-09-19T14:47:40Z</time>
      </trkpt>
      <trkpt lat="46.28645" lon="5.6893">
        <ele>611.53588867188</ele>
        <time>2010-09-19T14:47:45Z</time>
      </trkpt>
      <trkpt lat="46.28626" lon="5.68948">
        <ele>611.05517578125</ele>
        <time>2010-09-19T14:47:51Z</time>
      </trkpt>
      <trkpt lat="46.28624" lon="5.68935">
        <ele>609.61328125</ele>
        <time>2010-09-19T14:47:54Z</time>
      </trkpt>
      <trkpt lat="46.28631" lon="5.68907">
        <ele>607.69067382812</ele>
        <time>2010-09-19T14:47:57Z</time>
      </trkpt>
      <trkpt lat="46.28639" lon="5.68876">
        <ele>604.806640625</ele>
        <time>2010-09-19T14:48:00Z</time>
      </trkpt>
      <trkpt lat="46.28647" lon="5.68845">
        <ele>602.40307617188</ele>
        <time>2010-09-19T14:48:03Z</time>
      </trkpt>
      <trkpt lat="46.28655" lon="5.68825">
        <ele>600.96118164062</ele>
        <time>2010-09-19T14:48:05Z</time>
      </trkpt>
      <trkpt lat="46.28661" lon="5.68803">
        <ele>600</ele>
        <time>2010-09-19T14:48:07Z</time>
      </trkpt>
      <trkpt lat="46.28667" lon="5.6877">
        <ele>598.55786132812</ele>
        <time>2010-09-19T14:48:10Z</time>
      </trkpt>
      <trkpt lat="46.28674" lon="5.68713">
        <ele>595.67407226562</ele>
        <time>2010-09-19T14:48:15Z</time>
      </trkpt>
      <trkpt lat="46.2868" lon="5.68687">
        <ele>594.23217773438</ele>
        <time>2010-09-19T14:48:17Z</time>
      </trkpt>
      <trkpt lat="46.28682" lon="5.68676">
        <ele>594.23217773438</ele>
        <time>2010-09-19T14:48:18Z</time>
      </trkpt>
      <trkpt lat="46.28689" lon="5.68619">
        <ele>590.86743164062</ele>
        <time>2010-09-19T14:48:24Z</time>
      </trkpt>
      <trkpt lat="46.28689" lon="5.68601">
        <ele>589.42553710938</ele>
        <time>2010-09-19T14:48:26Z</time>
      </trkpt>
      <trkpt lat="46.28682" lon="5.68586">
        <ele>586.06079101562</ele>
        <time>2010-09-19T14:48:28Z</time>
      </trkpt>
      <trkpt lat="46.28665" lon="5.6857">
        <ele>582.6962890625</ele>
        <time>2010-09-19T14:48:31Z</time>
      </trkpt>
      <trkpt lat="46.28643" lon="5.68568">
        <ele>583.1767578125</ele>
        <time>2010-09-19T14:48:34Z</time>
      </trkpt>
      <trkpt lat="46.28631" lon="5.68563">
        <ele>585.099609375</ele>
        <time>2010-09-19T14:48:36Z</time>
      </trkpt>
      <trkpt lat="46.28614" lon="5.68536">
        <ele>585.099609375</ele>
        <time>2010-09-19T14:48:41Z</time>
      </trkpt>
      <trkpt lat="46.28604" lon="5.68503">
        <ele>583.65747070312</ele>
        <time>2010-09-19T14:48:45Z</time>
      </trkpt>
      <trkpt lat="46.28599" lon="5.68476">
        <ele>582.21557617188</ele>
        <time>2010-09-19T14:48:48Z</time>
      </trkpt>
      <trkpt lat="46.28596" lon="5.6844">
        <ele>582.6962890625</ele>
        <time>2010-09-19T14:48:53Z</time>
      </trkpt>
      <trkpt lat="46.28594" lon="5.68423">
        <ele>584.61889648438</ele>
        <time>2010-09-19T14:48:58Z</time>
      </trkpt>
      <trkpt lat="46.28587" lon="5.68414">
        <ele>585.099609375</ele>
        <time>2010-09-19T14:49:01Z</time>
      </trkpt>
      <trkpt lat="46.28587" lon="5.68393">
        <ele>583.1767578125</ele>
        <time>2010-09-19T14:49:06Z</time>
      </trkpt>
      <trkpt lat="46.28594" lon="5.68377">
        <ele>579.33154296875</ele>
        <time>2010-09-19T14:49:09Z</time>
      </trkpt>
      <trkpt lat="46.28607" lon="5.68353">
        <ele>575.486328125</ele>
        <time>2010-09-19T14:49:13Z</time>
      </trkpt>
      <trkpt lat="46.28616" lon="5.68335">
        <ele>572.6025390625</ele>
        <time>2010-09-19T14:49:16Z</time>
      </trkpt>
      <trkpt lat="46.28623" lon="5.68318">
        <ele>570.19897460938</ele>
        <time>2010-09-19T14:49:19Z</time>
      </trkpt>
      <trkpt lat="46.28636" lon="5.68291">
        <ele>566.35375976562</ele>
        <time>2010-09-19T14:49:24Z</time>
      </trkpt>
      <trkpt lat="46.28635" lon="5.68272">
        <ele>566.35375976562</ele>
        <time>2010-09-19T14:49:27Z</time>
      </trkpt>
      <trkpt lat="46.28635" lon="5.68268">
        <ele>566.35375976562</ele>
        <time>2010-09-19T14:49:28Z</time>
      </trkpt>
      <trkpt lat="46.2864" lon="5.68248">
        <ele>564.43115234375</ele>
        <time>2010-09-19T14:49:32Z</time>
      </trkpt>
      <trkpt lat="46.28642" lon="5.68228">
        <ele>562.50854492188</ele>
        <time>2010-09-19T14:49:35Z</time>
      </trkpt>
      <trkpt lat="46.28643" lon="5.68221">
        <ele>561.06665039062</ele>
        <time>2010-09-19T14:49:36Z</time>
      </trkpt>
      <trkpt lat="46.28645" lon="5.68199">
        <ele>559.62475585938</ele>
        <time>2010-09-19T14:49:39Z</time>
      </trkpt>
      <trkpt lat="46.28642" lon="5.68169">
        <ele>558.18286132812</ele>
        <time>2010-09-19T14:49:44Z</time>
      </trkpt>
      <trkpt lat="46.28639" lon="5.6815">
        <ele>556.26000976562</ele>
        <time>2010-09-19T14:49:47Z</time>
      </trkpt>
      <trkpt lat="46.28638" lon="5.68145">
        <ele>556.26000976562</ele>
        <time>2010-09-19T14:49:48Z</time>
      </trkpt>
      <trkpt lat="46.28623" lon="5.68116">
        <ele>554.81787109375</ele>
        <time>2010-09-19T14:49:53Z</time>
      </trkpt>
      <trkpt lat="46.28619" lon="5.68112">
        <ele>553.85668945312</ele>
        <time>2010-09-19T14:49:54Z</time>
      </trkpt>
      <trkpt lat="46.28603" lon="5.6809">
        <ele>552.89526367188</ele>
        <time>2010-09-19T14:49:59Z</time>
      </trkpt>
      <trkpt lat="46.28591" lon="5.68063">
        <ele>552.41455078125</ele>
        <time>2010-09-19T14:50:04Z</time>
      </trkpt>
      <trkpt lat="46.2858" lon="5.6804">
        <ele>551.93408203125</ele>
        <time>2010-09-19T14:50:09Z</time>
      </trkpt>
      <trkpt lat="46.28569" lon="5.68021">
        <ele>551.45336914062</ele>
        <time>2010-09-19T14:50:14Z</time>
      </trkpt>
      <trkpt lat="46.28543" lon="5.67988">
        <ele>550.4921875</ele>
        <time>2010-09-19T14:50:21Z</time>
      </trkpt>
      <trkpt lat="46.28523" lon="5.67971">
        <ele>550.4921875</ele>
        <time>2010-09-19T14:50:26Z</time>
      </trkpt>
      <trkpt lat="46.28499" lon="5.67958">
        <ele>550.97265625</ele>
        <time>2010-09-19T14:50:32Z</time>
      </trkpt>
      <trkpt lat="46.28475" lon="5.67951">
        <ele>549.53076171875</ele>
        <time>2010-09-19T14:50:37Z</time>
      </trkpt>
      <trkpt lat="46.28443" lon="5.67952">
        <ele>548.5693359375</ele>
        <time>2010-09-19T14:50:42Z</time>
      </trkpt>
      <trkpt lat="46.2841" lon="5.67955">
        <ele>548.0888671875</ele>
        <time>2010-09-19T14:50:47Z</time>
      </trkpt>
      <trkpt lat="46.28372" lon="5.67961">
        <ele>547.60815429688</ele>
        <time>2010-09-19T14:50:54Z</time>
      </trkpt>
      <trkpt lat="46.28331" lon="5.67966">
        <ele>547.60815429688</ele>
        <time>2010-09-19T14:51:02Z</time>
      </trkpt>
      <trkpt lat="46.2832" lon="5.67966">
        <ele>547.60815429688</ele>
        <time>2010-09-19T14:51:04Z</time>
      </trkpt>
      <trkpt lat="46.28301" lon="5.67976">
        <ele>548.5693359375</ele>
        <time>2010-09-19T14:51:09Z</time>
      </trkpt>
      <trkpt lat="46.28283" lon="5.67987">
        <ele>551.45336914062</ele>
        <time>2010-09-19T14:51:16Z</time>
      </trkpt>
      <trkpt lat="46.28272" lon="5.68002">
        <ele>553.85668945312</ele>
        <time>2010-09-19T14:51:22Z</time>
      </trkpt>
      <trkpt lat="46.28263" lon="5.68029">
        <ele>555.29858398438</ele>
        <time>2010-09-19T14:51:29Z</time>
      </trkpt>
      <trkpt lat="46.2825" lon="5.68048">
        <ele>557.22143554688</ele>
        <time>2010-09-19T14:51:34Z</time>
      </trkpt>
      <trkpt lat="46.28232" lon="5.68055">
        <ele>558.66333007812</ele>
        <time>2010-09-19T14:51:39Z</time>
      </trkpt>
      <trkpt lat="46.28209" lon="5.68053">
        <ele>561.06665039062</ele>
        <time>2010-09-19T14:51:45Z</time>
      </trkpt>
      <trkpt lat="46.28181" lon="5.68048">
        <ele>562.02807617188</ele>
        <time>2010-09-19T14:51:52Z</time>
      </trkpt>
      <trkpt lat="46.28159" lon="5.68054">
        <ele>562.9892578125</ele>
        <time>2010-09-19T14:51:58Z</time>
      </trkpt>
      <trkpt lat="46.28141" lon="5.68062">
        <ele>563.95043945312</ele>
        <time>2010-09-19T14:52:04Z</time>
      </trkpt>
      <trkpt lat="46.28125" lon="5.68073">
        <ele>566.35375976562</ele>
        <time>2010-09-19T14:52:10Z</time>
      </trkpt>
      <trkpt lat="46.28112" lon="5.6808">
        <ele>567.31518554688</ele>
        <time>2010-09-19T14:52:15Z</time>
      </trkpt>
      <trkpt lat="46.2809" lon="5.68085">
        <ele>568.2763671875</ele>
        <time>2010-09-19T14:52:22Z</time>
      </trkpt>
      <trkpt lat="46.28071" lon="5.6809">
        <ele>569.71850585938</ele>
        <time>2010-09-19T14:52:28Z</time>
      </trkpt>
      <trkpt lat="46.28048" lon="5.681">
        <ele>570.6796875</ele>
        <time>2010-09-19T14:52:35Z</time>
      </trkpt>
      <trkpt lat="46.28024" lon="5.68117">
        <ele>572.12182617188</ele>
        <time>2010-09-19T14:52:44Z</time>
      </trkpt>
      <trkpt lat="46.28005" lon="5.68128">
        <ele>575.486328125</ele>
        <time>2010-09-19T14:52:51Z</time>
      </trkpt>
      <trkpt lat="46.27994" lon="5.68133">
        <ele>576.92846679688</ele>
        <time>2010-09-19T14:52:55Z</time>
      </trkpt>
      <trkpt lat="46.27987" lon="5.68118">
        <ele>574.52514648438</ele>
        <time>2010-09-19T14:52:59Z</time>
      </trkpt>
      <trkpt lat="46.27985" lon="5.68107">
        <ele>573.08325195312</ele>
        <time>2010-09-19T14:53:01Z</time>
      </trkpt>
      <trkpt lat="46.27978" lon="5.68083">
        <ele>569.71850585938</ele>
        <time>2010-09-19T14:53:04Z</time>
      </trkpt>
      <trkpt lat="46.27969" lon="5.68067">
        <ele>568.75708007812</ele>
        <time>2010-09-19T14:53:06Z</time>
      </trkpt>
      <trkpt lat="46.27967" lon="5.6805">
        <ele>566.83447265625</ele>
        <time>2010-09-19T14:53:08Z</time>
      </trkpt>
      <trkpt lat="46.27975" lon="5.68032">
        <ele>565.392578125</ele>
        <time>2010-09-19T14:53:10Z</time>
      </trkpt>
      <trkpt lat="46.2799" lon="5.68006">
        <ele>562.50854492188</ele>
        <time>2010-09-19T14:53:13Z</time>
      </trkpt>
      <trkpt lat="46.28001" lon="5.67997">
        <ele>562.02807617188</ele>
        <time>2010-09-19T14:53:15Z</time>
      </trkpt>
      <trkpt lat="46.28008" lon="5.68001">
        <ele>562.50854492188</ele>
        <time>2010-09-19T14:53:17Z</time>
      </trkpt>
      <trkpt lat="46.2803" lon="5.67995">
        <ele>563.46997070312</ele>
        <time>2010-09-19T14:53:22Z</time>
      </trkpt>
      <trkpt lat="46.28027" lon="5.6798">
        <ele>562.9892578125</ele>
        <time>2010-09-19T14:53:24Z</time>
      </trkpt>
      <trkpt lat="46.28016" lon="5.67969">
        <ele>562.02807617188</ele>
        <time>2010-09-19T14:53:26Z</time>
      </trkpt>
      <trkpt lat="46.28006" lon="5.6794">
        <ele>560.10522460938</ele>
        <time>2010-09-19T14:53:30Z</time>
      </trkpt>
      <trkpt lat="46.28017" lon="5.67937">
        <ele>558.66333007812</ele>
        <time>2010-09-19T14:53:32Z</time>
      </trkpt>
      <trkpt lat="46.28024" lon="5.67938">
        <ele>558.66333007812</ele>
        <time>2010-09-19T14:53:33Z</time>
      </trkpt>
      <trkpt lat="46.28036" lon="5.67941">
        <ele>558.66333007812</ele>
        <time>2010-09-19T14:53:35Z</time>
      </trkpt>
      <trkpt lat="46.28047" lon="5.67926">
        <ele>556.26000976562</ele>
        <time>2010-09-19T14:53:38Z</time>
      </trkpt>
      <trkpt lat="46.28046" lon="5.67905">
        <ele>553.85668945312</ele>
        <time>2010-09-19T14:53:41Z</time>
      </trkpt>
      <trkpt lat="46.28035" lon="5.67901">
        <ele>554.33740234375</ele>
        <time>2010-09-19T14:53:43Z</time>
      </trkpt>
      <trkpt lat="46.27991" lon="5.6789">
        <ele>554.33740234375</ele>
        <time>2010-09-19T14:53:50Z</time>
      </trkpt>
      <trkpt lat="46.27977" lon="5.67892">
        <ele>554.33740234375</ele>
        <time>2010-09-19T14:53:54Z</time>
      </trkpt>
      <trkpt lat="46.27976" lon="5.67897">
        <ele>554.81787109375</ele>
        <time>2010-09-19T14:53:56Z</time>
      </trkpt>
    </trkseg>
  </trk>
</gpx>